<?xml version='1.0' encoding='UTF-8'?><gpx version="1.1" creator="JPX - https://github.com/jenetics/jpx" xmlns="http://www.topografix.com/GPX/1/1"><trk><trkseg><trkpt lat="41.8802" lon="12.4510273"><ele>52.833333333333336</ele><time>2026-03-28T08:54:56.054Z</time></trkpt><trkpt lat="41.8800965" lon="12.4510242"><ele>52.66666666666667</ele><time>2026-03-28T08:55:59.068Z</time></trkpt><trkpt lat="41.8800011" lon="12.4510536"><ele>52.5</ele><time>2026-03-28T08:56:01.055Z</time></trkpt><trkpt lat="41.8799209" lon="12.4511434"><ele>52.33333333333333</ele><time>2026-03-28T08:56:03.063Z</time></trkpt><trkpt lat="41.8799402" lon="12.4512383"><ele>52.166666666666664</ele><time>2026-03-28T08:56:25.056Z</time></trkpt><trkpt lat="41.8799176" lon="12.4513185"><ele>52.0</ele><time>2026-03-28T08:56:30.059Z</time></trkpt><trkpt lat="41.879832" lon="12.451419"><ele>53.33333333333333</ele><time>2026-03-28T08:56:32.063Z</time></trkpt><trkpt lat="41.879769" lon="12.4514952"><ele>54.666666666666664</ele><time>2026-03-28T08:56:33.058Z</time></trkpt><trkpt lat="41.8796939" lon="12.451559"><ele>56.0</ele><time>2026-03-28T08:56:34.061Z</time></trkpt><trkpt lat="41.8796255" lon="12.4516396"><ele>57.33333333333333</ele><time>2026-03-28T08:56:35.061Z</time></trkpt><trkpt lat="41.8795831" lon="12.4517213"><ele>58.666666666666664</ele><time>2026-03-28T08:56:36.061Z</time></trkpt><trkpt lat="41.879604" lon="12.4518558"><ele>60.0</ele><time>2026-03-28T08:56:38.056Z</time></trkpt><trkpt lat="41.879712" lon="12.4519034"><ele>60.0</ele><time>2026-03-28T08:56:40.061Z</time></trkpt><trkpt lat="41.8797748" lon="12.4519305"><ele>60.0</ele><time>2026-03-28T08:56:41.054Z</time></trkpt><trkpt lat="41.8798389" lon="12.4519579"><ele>60.0</ele><time>2026-03-28T08:56:42.06Z</time></trkpt><trkpt lat="41.8799558" lon="12.4520115"><ele>60.0</ele><time>2026-03-28T08:56:44.06Z</time></trkpt><trkpt lat="41.8800167" lon="12.4520333"><ele>60.0</ele><time>2026-03-28T08:56:45.056Z</time></trkpt><trkpt lat="41.8801048" lon="12.4520728"><ele>60.0</ele><time>2026-03-28T08:56:47.063Z</time></trkpt><trkpt lat="41.8800977" lon="12.452199"><ele>61.4</ele><time>2026-03-28T08:56:50.06Z</time></trkpt><trkpt lat="41.8800466" lon="12.4523546"><ele>62.8</ele><time>2026-03-28T08:56:52.059Z</time></trkpt><trkpt lat="41.8800093" lon="12.4525129"><ele>64.2</ele><time>2026-03-28T08:56:54.071Z</time></trkpt><trkpt lat="41.8799763" lon="12.4525855"><ele>65.6</ele><time>2026-03-28T08:56:55.061Z</time></trkpt><trkpt lat="41.8799763" lon="12.4526816"><ele>67.0</ele><time>2026-03-28T08:56:56.06Z</time></trkpt><trkpt lat="41.8799665" lon="12.452768"><ele>67.0</ele><time>2026-03-28T08:56:57.057Z</time></trkpt><trkpt lat="41.8799626" lon="12.452858"><ele>67.0</ele><time>2026-03-28T08:56:58.061Z</time></trkpt><trkpt lat="41.8799644" lon="12.4529432"><ele>67.0</ele><time>2026-03-28T08:56:59.057Z</time></trkpt><trkpt lat="41.8799952" lon="12.4530223"><ele>67.0</ele><time>2026-03-28T08:57:00.061Z</time></trkpt><trkpt lat="41.8800401" lon="12.4531077"><ele>67.0</ele><time>2026-03-28T08:57:01.056Z</time></trkpt><trkpt lat="41.8800799" lon="12.4532024"><ele>67.0</ele><time>2026-03-28T08:57:02.057Z</time></trkpt><trkpt lat="41.8801319" lon="12.4532909"><ele>67.0</ele><time>2026-03-28T08:57:03.058Z</time></trkpt><trkpt lat="41.8802013" lon="12.4534188"><ele>67.4</ele><time>2026-03-28T08:57:05.056Z</time></trkpt><trkpt lat="41.880283" lon="12.4535256"><ele>67.80000000000001</ele><time>2026-03-28T08:57:07.058Z</time></trkpt><trkpt lat="41.8803628" lon="12.4536291"><ele>68.2</ele><time>2026-03-28T08:57:09.068Z</time></trkpt><trkpt lat="41.8804407" lon="12.4537504"><ele>68.60000000000001</ele><time>2026-03-28T08:57:11.063Z</time></trkpt><trkpt lat="41.880523" lon="12.453831"><ele>69.0</ele><time>2026-03-28T08:57:13.061Z</time></trkpt><trkpt lat="41.8805353" lon="12.4539309"><ele>69.0</ele><time>2026-03-28T08:57:15.058Z</time></trkpt><trkpt lat="41.8804631" lon="12.4540723"><ele>69.0</ele><time>2026-03-28T08:57:17.062Z</time></trkpt><trkpt lat="41.8804456" lon="12.454222"><ele>69.0</ele><time>2026-03-28T08:57:19.06Z</time></trkpt><trkpt lat="41.8804575" lon="12.4543338"><ele>69.0</ele><time>2026-03-28T08:57:22.06Z</time></trkpt><trkpt lat="41.8804472" lon="12.4544252"><ele>69.0</ele><time>2026-03-28T08:57:24.067Z</time></trkpt><trkpt lat="41.8804117" lon="12.4545711"><ele>69.4</ele><time>2026-03-28T08:57:26.061Z</time></trkpt><trkpt lat="41.8803875" lon="12.4546975"><ele>69.80000000000001</ele><time>2026-03-28T08:57:28.075Z</time></trkpt><trkpt lat="41.880328" lon="12.4547963"><ele>70.19999999999999</ele><time>2026-03-28T08:57:31.057Z</time></trkpt><trkpt lat="41.8801855" lon="12.4547544"><ele>70.6</ele><time>2026-03-28T08:57:33.067Z</time></trkpt><trkpt lat="41.8800891" lon="12.4547334"><ele>71.0</ele><time>2026-03-28T08:57:34.062Z</time></trkpt><trkpt lat="41.8800082" lon="12.4547275"><ele>70.0</ele><time>2026-03-28T08:57:35.063Z</time></trkpt><trkpt lat="41.8799325" lon="12.454743"><ele>69.0</ele><time>2026-03-28T08:57:36.062Z</time></trkpt><trkpt lat="41.8798669" lon="12.4547864"><ele>68.0</ele><time>2026-03-28T08:57:37.063Z</time></trkpt><trkpt lat="41.879818" lon="12.4548555"><ele>67.0</ele><time>2026-03-28T08:57:38.071Z</time></trkpt><trkpt lat="41.8797717" lon="12.4549353"><ele>66.0</ele><time>2026-03-28T08:57:39.056Z</time></trkpt><trkpt lat="41.879744" lon="12.4550309"><ele>65.0</ele><time>2026-03-28T08:57:40.056Z</time></trkpt><trkpt lat="41.8797388" lon="12.4551338"><ele>64.0</ele><time>2026-03-28T08:57:41.058Z</time></trkpt><trkpt lat="41.87974" lon="12.4552282"><ele>63.99999999999999</ele><time>2026-03-28T08:57:42.058Z</time></trkpt><trkpt lat="41.879754" lon="12.4553122"><ele>64.0</ele><time>2026-03-28T08:57:43.064Z</time></trkpt><trkpt lat="41.8797719" lon="12.4553934"><ele>64.0</ele><time>2026-03-28T08:57:44.068Z</time></trkpt><trkpt lat="41.8798113" lon="12.4554632"><ele>64.0</ele><time>2026-03-28T08:57:45.058Z</time></trkpt><trkpt lat="41.8798757" lon="12.4555276"><ele>63.99999999999999</ele><time>2026-03-28T08:57:46.055Z</time></trkpt><trkpt lat="41.8799351" lon="12.4555863"><ele>64.0</ele><time>2026-03-28T08:57:47.062Z</time></trkpt><trkpt lat="41.8800495" lon="12.4557195"><ele>65.28571428571428</ele><time>2026-03-28T08:57:49.068Z</time></trkpt><trkpt lat="41.8801132" lon="12.4557797"><ele>66.57142857142857</ele><time>2026-03-28T08:57:50.06Z</time></trkpt><trkpt lat="41.8801759" lon="12.4558312"><ele>67.85714285714286</ele><time>2026-03-28T08:57:51.062Z</time></trkpt><trkpt lat="41.8802302" lon="12.45588"><ele>69.14285714285714</ele><time>2026-03-28T08:57:52.06Z</time></trkpt><trkpt lat="41.8802888" lon="12.4559244"><ele>70.42857142857143</ele><time>2026-03-28T08:57:53.06Z</time></trkpt><trkpt lat="41.8803459" lon="12.4559761"><ele>71.71428571428571</ele><time>2026-03-28T08:57:54.059Z</time></trkpt><trkpt lat="41.8804039" lon="12.4560211"><ele>73.0</ele><time>2026-03-28T08:57:55.055Z</time></trkpt><trkpt lat="41.8804875" lon="12.4560993"><ele>73.0</ele><time>2026-03-28T08:57:57.056Z</time></trkpt><trkpt lat="41.880584" lon="12.4561819"><ele>73.0</ele><time>2026-03-28T08:57:59.064Z</time></trkpt><trkpt lat="41.8806773" lon="12.4562604"><ele>73.0</ele><time>2026-03-28T08:58:01.066Z</time></trkpt><trkpt lat="41.8807594" lon="12.4563458"><ele>73.0</ele><time>2026-03-28T08:58:03.057Z</time></trkpt><trkpt lat="41.8807955" lon="12.4564532"><ele>73.0</ele><time>2026-03-28T08:58:05.064Z</time></trkpt><trkpt lat="41.8807771" lon="12.4565634"><ele>74.6</ele><time>2026-03-28T08:58:07.06Z</time></trkpt><trkpt lat="41.8806507" lon="12.4565709"><ele>76.19999999999999</ele><time>2026-03-28T08:58:09.059Z</time></trkpt><trkpt lat="41.880579" lon="12.4565503"><ele>77.8</ele><time>2026-03-28T08:58:10.064Z</time></trkpt><trkpt lat="41.8804684" lon="12.4565339"><ele>79.39999999999999</ele><time>2026-03-28T08:58:12.064Z</time></trkpt><trkpt lat="41.8804039" lon="12.4565357"><ele>81.0</ele><time>2026-03-28T08:58:47.062Z</time></trkpt><trkpt lat="41.8803189" lon="12.4565659"><ele>81.0</ele><time>2026-03-28T08:59:35.059Z</time></trkpt><trkpt lat="41.880205" lon="12.4565863"><ele>81.0</ele><time>2026-03-28T08:59:37.063Z</time></trkpt><trkpt lat="41.8801413" lon="12.4565918"><ele>81.0</ele><time>2026-03-28T08:59:38.068Z</time></trkpt><trkpt lat="41.8800274" lon="12.4566343"><ele>81.0</ele><time>2026-03-28T08:59:40.055Z</time></trkpt><trkpt lat="41.8799625" lon="12.4566651"><ele>81.0</ele><time>2026-03-28T08:59:41.061Z</time></trkpt><trkpt lat="41.8798842" lon="12.4566875"><ele>81.0</ele><time>2026-03-28T08:59:42.059Z</time></trkpt><trkpt lat="41.8798087" lon="12.4567035"><ele>80.5</ele><time>2026-03-28T08:59:43.059Z</time></trkpt><trkpt lat="41.8797282" lon="12.4567151"><ele>80.0</ele><time>2026-03-28T08:59:44.058Z</time></trkpt><trkpt lat="41.8796481" lon="12.4567254"><ele>79.5</ele><time>2026-03-28T08:59:45.052Z</time></trkpt><trkpt lat="41.8795829" lon="12.4567235"><ele>79.0</ele><time>2026-03-28T08:59:46.061Z</time></trkpt><trkpt lat="41.8795069" lon="12.4567037"><ele>78.5</ele><time>2026-03-28T08:59:47.065Z</time></trkpt><trkpt lat="41.8794279" lon="12.4566871"><ele>78.0</ele><time>2026-03-28T08:59:48.058Z</time></trkpt><trkpt lat="41.8793475" lon="12.4566667"><ele>78.0</ele><time>2026-03-28T08:59:49.065Z</time></trkpt><trkpt lat="41.8792798" lon="12.4566455"><ele>78.0</ele><time>2026-03-28T08:59:50.062Z</time></trkpt><trkpt lat="41.8792006" lon="12.4566245"><ele>78.0</ele><time>2026-03-28T08:59:51.058Z</time></trkpt><trkpt lat="41.8791365" lon="12.4565975"><ele>78.0</ele><time>2026-03-28T08:59:52.062Z</time></trkpt><trkpt lat="41.8790679" lon="12.456578"><ele>78.0</ele><time>2026-03-28T08:59:53.055Z</time></trkpt><trkpt lat="41.8789607" lon="12.4565252"><ele>78.0</ele><time>2026-03-28T08:59:55.061Z</time></trkpt><trkpt lat="41.8788942" lon="12.4564667"><ele>77.0</ele><time>2026-03-28T08:59:57.067Z</time></trkpt><trkpt lat="41.8788301" lon="12.4564079"><ele>76.0</ele><time>2026-03-28T08:59:59.062Z</time></trkpt><trkpt lat="41.8787638" lon="12.4563513"><ele>75.0</ele><time>2026-03-28T09:00:01.069Z</time></trkpt><trkpt lat="41.8787073" lon="12.4563113"><ele>74.0</ele><time>2026-03-28T09:00:02.062Z</time></trkpt><trkpt lat="41.8786487" lon="12.4562618"><ele>73.0</ele><time>2026-03-28T09:00:03.065Z</time></trkpt><trkpt lat="41.8785472" lon="12.4561947"><ele>72.0</ele><time>2026-03-28T09:00:05.068Z</time></trkpt><trkpt lat="41.8784231" lon="12.4561261"><ele>71.83333333333333</ele><time>2026-03-28T09:00:07.064Z</time></trkpt><trkpt lat="41.8783468" lon="12.4560698"><ele>71.66666666666667</ele><time>2026-03-28T09:00:08.064Z</time></trkpt><trkpt lat="41.8782718" lon="12.4560212"><ele>71.5</ele><time>2026-03-28T09:00:09.062Z</time></trkpt><trkpt lat="41.8781808" lon="12.4559622"><ele>71.33333333333334</ele><time>2026-03-28T09:00:10.067Z</time></trkpt><trkpt lat="41.8780949" lon="12.4559193"><ele>71.16666666666667</ele><time>2026-03-28T09:00:11.056Z</time></trkpt><trkpt lat="41.8780213" lon="12.4558824"><ele>71.0</ele><time>2026-03-28T09:00:12.061Z</time></trkpt><trkpt lat="41.8779531" lon="12.4558389"><ele>71.0</ele><time>2026-03-28T09:00:13.061Z</time></trkpt><trkpt lat="41.8778861" lon="12.4558251"><ele>71.0</ele><time>2026-03-28T09:00:14.066Z</time></trkpt><trkpt lat="41.8778192" lon="12.4557997"><ele>71.0</ele><time>2026-03-28T09:00:15.056Z</time></trkpt><trkpt lat="41.8776953" lon="12.4557515"><ele>71.0</ele><time>2026-03-28T09:00:17.063Z</time></trkpt><trkpt lat="41.8776279" lon="12.4557236"><ele>71.0</ele><time>2026-03-28T09:00:18.06Z</time></trkpt><trkpt lat="41.8775222" lon="12.4556497"><ele>70.83333333333334</ele><time>2026-03-28T09:00:20.066Z</time></trkpt><trkpt lat="41.8774584" lon="12.4555986"><ele>70.66666666666667</ele><time>2026-03-28T09:00:21.064Z</time></trkpt><trkpt lat="41.877373" lon="12.4555432"><ele>70.5</ele><time>2026-03-28T09:00:23.057Z</time></trkpt><trkpt lat="41.8773084" lon="12.4555201"><ele>70.33333333333333</ele><time>2026-03-28T09:00:25.062Z</time></trkpt><trkpt lat="41.877229" lon="12.4555048"><ele>70.16666666666666</ele><time>2026-03-28T09:00:27.056Z</time></trkpt><trkpt lat="41.8771277" lon="12.4554835"><ele>70.0</ele><time>2026-03-28T09:00:29.058Z</time></trkpt><trkpt lat="41.8770378" lon="12.4554063"><ele>69.0</ele><time>2026-03-28T09:00:31.061Z</time></trkpt><trkpt lat="41.8769324" lon="12.4553286"><ele>68.0</ele><time>2026-03-28T09:00:33.055Z</time></trkpt><trkpt lat="41.8768608" lon="12.4552918"><ele>67.0</ele><time>2026-03-28T09:00:45.07Z</time></trkpt><trkpt lat="41.876801" lon="12.4552384"><ele>66.0</ele><time>2026-03-28T09:00:51.064Z</time></trkpt><trkpt lat="41.8767147" lon="12.4552483"><ele>65.0</ele><time>2026-03-28T09:00:58.065Z</time></trkpt><trkpt lat="41.8765994" lon="12.4552332"><ele>65.0</ele><time>2026-03-28T09:01:00.058Z</time></trkpt><trkpt lat="41.8764845" lon="12.4552308"><ele>65.0</ele><time>2026-03-28T09:01:02.069Z</time></trkpt><trkpt lat="41.8763698" lon="12.4552403"><ele>65.0</ele><time>2026-03-28T09:01:04.07Z</time></trkpt><trkpt lat="41.8762998" lon="12.4552722"><ele>65.0</ele><time>2026-03-28T09:01:06.063Z</time></trkpt><trkpt lat="41.876252" lon="12.455386"><ele>65.0</ele><time>2026-03-28T09:01:08.059Z</time></trkpt><trkpt lat="41.876205" lon="12.4555271"><ele>65.8</ele><time>2026-03-28T09:01:10.065Z</time></trkpt><trkpt lat="41.8761723" lon="12.4556606"><ele>66.6</ele><time>2026-03-28T09:01:12.058Z</time></trkpt><trkpt lat="41.8761361" lon="12.455784"><ele>67.4</ele><time>2026-03-28T09:01:14.059Z</time></trkpt><trkpt lat="41.8761096" lon="12.4559068"><ele>68.2</ele><time>2026-03-28T09:01:16.059Z</time></trkpt><trkpt lat="41.8761088" lon="12.4560481"><ele>69.0</ele><time>2026-03-28T09:01:18.065Z</time></trkpt><trkpt lat="41.8761225" lon="12.4561907"><ele>68.5</ele><time>2026-03-28T09:01:20.06Z</time></trkpt><trkpt lat="41.8761414" lon="12.4563476"><ele>68.0</ele><time>2026-03-28T09:01:22.055Z</time></trkpt><trkpt lat="41.8761886" lon="12.4565097"><ele>67.5</ele><time>2026-03-28T09:01:24.062Z</time></trkpt><trkpt lat="41.8762453" lon="12.4566456"><ele>67.0</ele><time>2026-03-28T09:01:26.063Z</time></trkpt><trkpt lat="41.8763307" lon="12.45676"><ele>67.0</ele><time>2026-03-28T09:01:28.059Z</time></trkpt><trkpt lat="41.8764179" lon="12.4568839"><ele>67.0</ele><time>2026-03-28T09:01:30.062Z</time></trkpt><trkpt lat="41.8764761" lon="12.4569351"><ele>67.0</ele><time>2026-03-28T09:01:31.063Z</time></trkpt><trkpt lat="41.8765437" lon="12.4569878"><ele>67.0</ele><time>2026-03-28T09:01:32.062Z</time></trkpt><trkpt lat="41.8766212" lon="12.4570383"><ele>67.0</ele><time>2026-03-28T09:01:33.059Z</time></trkpt><trkpt lat="41.8766973" lon="12.457081"><ele>67.0</ele><time>2026-03-28T09:01:34.063Z</time></trkpt><trkpt lat="41.8767675" lon="12.4571228"><ele>67.0</ele><time>2026-03-28T09:01:35.061Z</time></trkpt><trkpt lat="41.8768362" lon="12.4571737"><ele>67.0</ele><time>2026-03-28T09:01:36.066Z</time></trkpt><trkpt lat="41.8768996" lon="12.4572332"><ele>67.0</ele><time>2026-03-28T09:01:37.058Z</time></trkpt><trkpt lat="41.8769614" lon="12.4572808"><ele>67.0</ele><time>2026-03-28T09:01:38.062Z</time></trkpt><trkpt lat="41.8770218" lon="12.457339"><ele>67.0</ele><time>2026-03-28T09:01:39.062Z</time></trkpt><trkpt lat="41.8770784" lon="12.4574139"><ele>67.0</ele><time>2026-03-28T09:01:40.056Z</time></trkpt><trkpt lat="41.8771451" lon="12.4574771"><ele>67.0</ele><time>2026-03-28T09:01:41.063Z</time></trkpt><trkpt lat="41.8772141" lon="12.457543"><ele>67.0</ele><time>2026-03-28T09:01:42.062Z</time></trkpt><trkpt lat="41.8772734" lon="12.4576136"><ele>67.0</ele><time>2026-03-28T09:01:43.064Z</time></trkpt><trkpt lat="41.8773249" lon="12.4576824"><ele>67.0</ele><time>2026-03-28T09:01:44.056Z</time></trkpt><trkpt lat="41.8773753" lon="12.4577402"><ele>67.0</ele><time>2026-03-28T09:01:45.06Z</time></trkpt><trkpt lat="41.8774326" lon="12.4577924"><ele>67.0</ele><time>2026-03-28T09:01:46.061Z</time></trkpt><trkpt lat="41.8775448" lon="12.457871"><ele>67.0</ele><time>2026-03-28T09:01:48.057Z</time></trkpt><trkpt lat="41.8775953" lon="12.4579262"><ele>67.0</ele><time>2026-03-28T09:01:49.064Z</time></trkpt><trkpt lat="41.8776482" lon="12.457984"><ele>67.0</ele><time>2026-03-28T09:01:50.061Z</time></trkpt><trkpt lat="41.8777335" lon="12.4580725"><ele>67.0</ele><time>2026-03-28T09:01:52.064Z</time></trkpt><trkpt lat="41.8777458" lon="12.4581648"><ele>67.0</ele><time>2026-03-28T09:01:54.054Z</time></trkpt><trkpt lat="41.8776741" lon="12.4582576"><ele>67.0</ele><time>2026-03-28T09:01:57.068Z</time></trkpt><trkpt lat="41.8775439" lon="12.4582563"><ele>64.83333333333333</ele><time>2026-03-28T09:01:59.056Z</time></trkpt><trkpt lat="41.8774686" lon="12.4582402"><ele>62.666666666666664</ele><time>2026-03-28T09:02:00.053Z</time></trkpt><trkpt lat="41.8773842" lon="12.4582338"><ele>60.5</ele><time>2026-03-28T09:02:01.059Z</time></trkpt><trkpt lat="41.877301" lon="12.4582353"><ele>58.33333333333333</ele><time>2026-03-28T09:02:02.059Z</time></trkpt><trkpt lat="41.8772226" lon="12.4582233"><ele>56.166666666666664</ele><time>2026-03-28T09:02:03.057Z</time></trkpt><trkpt lat="41.8771472" lon="12.4582141"><ele>54.0</ele><time>2026-03-28T09:02:04.072Z</time></trkpt><trkpt lat="41.8770328" lon="12.4582014"><ele>54.0</ele><time>2026-03-28T09:02:06.056Z</time></trkpt><trkpt lat="41.8770164" lon="12.4581142"><ele>54.0</ele><time>2026-03-28T09:02:41.072Z</time></trkpt><trkpt lat="41.876989" lon="12.4580203"><ele>54.0</ele><time>2026-03-28T09:02:49.07Z</time></trkpt><trkpt lat="41.8769714" lon="12.4579031"><ele>54.0</ele><time>2026-03-28T09:02:53.072Z</time></trkpt><trkpt lat="41.8769874" lon="12.4577896"><ele>54.0</ele><time>2026-03-28T09:02:55.061Z</time></trkpt><trkpt lat="41.8769945" lon="12.4576387"><ele>54.0</ele><time>2026-03-28T09:02:57.064Z</time></trkpt><trkpt lat="41.8769933" lon="12.4574774"><ele>56.166666666666664</ele><time>2026-03-28T09:02:59.07Z</time></trkpt><trkpt lat="41.8769995" lon="12.4573235"><ele>58.33333333333333</ele><time>2026-03-28T09:03:01.058Z</time></trkpt><trkpt lat="41.8770148" lon="12.4572071"><ele>60.5</ele><time>2026-03-28T09:03:03.072Z</time></trkpt><trkpt lat="41.8770121" lon="12.4571133"><ele>62.666666666666664</ele><time>2026-03-28T09:03:46.057Z</time></trkpt><trkpt lat="41.8769782" lon="12.4570296"><ele>64.83333333333333</ele><time>2026-03-28T09:03:52.065Z</time></trkpt><trkpt lat="41.8769314" lon="12.4569584"><ele>67.0</ele><time>2026-03-28T09:03:55.061Z</time></trkpt><trkpt lat="41.8769031" lon="12.4568406"><ele>67.6</ele><time>2026-03-28T09:03:58.068Z</time></trkpt><trkpt lat="41.8768817" lon="12.4567547"><ele>68.2</ele><time>2026-03-28T09:04:00.069Z</time></trkpt><trkpt lat="41.8768462" lon="12.456658"><ele>68.8</ele><time>2026-03-28T09:04:06.079Z</time></trkpt><trkpt lat="41.8768208" lon="12.4565401"><ele>69.4</ele><time>2026-03-28T09:04:25.086Z</time></trkpt><trkpt lat="41.8767896" lon="12.4562921"><ele>70.0</ele><time>2026-03-28T09:04:57.065Z</time></trkpt><trkpt lat="41.8767832" lon="12.4561838"><ele>54.0</ele><time>2026-03-28T09:05:07.071Z</time></trkpt><trkpt lat="41.8769626" lon="12.457977"><ele>54.0</ele><time>2026-03-28T09:05:21.132Z</time></trkpt><trkpt lat="41.8769821" lon="12.4577322"><ele>54.0</ele><time>2026-03-28T09:06:17.058Z</time></trkpt><trkpt lat="41.8769518" lon="12.4579932"><ele>54.0</ele><time>2026-03-28T09:06:18.063Z</time></trkpt><trkpt lat="41.8769331" lon="12.4580808"><ele>54.0</ele><time>2026-03-28T09:06:19.069Z</time></trkpt><trkpt lat="41.8769965" lon="12.4580463"><ele>54.0</ele><time>2026-03-28T09:07:24.067Z</time></trkpt><trkpt lat="41.8769602" lon="12.4581619"><ele>54.0</ele><time>2026-03-28T09:08:02.056Z</time></trkpt><trkpt lat="41.8769676" lon="12.4582503"><ele>54.0</ele><time>2026-03-28T09:08:10.059Z</time></trkpt><trkpt lat="41.8769111" lon="12.4581993"><ele>54.0</ele><time>2026-03-28T09:08:34.061Z</time></trkpt><trkpt lat="41.8768309" lon="12.458216"><ele>54.0</ele><time>2026-03-28T09:08:36.063Z</time></trkpt><trkpt lat="41.8767518" lon="12.4582148"><ele>54.0</ele><time>2026-03-28T09:08:37.058Z</time></trkpt><trkpt lat="41.8766793" lon="12.4581942"><ele>54.666666666666664</ele><time>2026-03-28T09:08:38.058Z</time></trkpt><trkpt lat="41.8766011" lon="12.45818"><ele>55.33333333333333</ele><time>2026-03-28T09:08:39.06Z</time></trkpt><trkpt lat="41.8765217" lon="12.4581771"><ele>56.0</ele><time>2026-03-28T09:08:40.061Z</time></trkpt><trkpt lat="41.8764458" lon="12.458164"><ele>56.666666666666664</ele><time>2026-03-28T09:08:41.067Z</time></trkpt><trkpt lat="41.876353" lon="12.4581472"><ele>57.33333333333333</ele><time>2026-03-28T09:08:42.056Z</time></trkpt><trkpt lat="41.8762676" lon="12.458125"><ele>58.0</ele><time>2026-03-28T09:08:43.063Z</time></trkpt><trkpt lat="41.8761787" lon="12.4580963"><ele>57.99999999999999</ele><time>2026-03-28T09:08:44.06Z</time></trkpt><trkpt lat="41.8760931" lon="12.4580674"><ele>58.0</ele><time>2026-03-28T09:08:45.055Z</time></trkpt><trkpt lat="41.8760114" lon="12.4580398"><ele>58.0</ele><time>2026-03-28T09:08:46.056Z</time></trkpt><trkpt lat="41.8759308" lon="12.4580206"><ele>58.0</ele><time>2026-03-28T09:08:47.06Z</time></trkpt><trkpt lat="41.8758456" lon="12.4580045"><ele>57.99999999999999</ele><time>2026-03-28T09:08:48.063Z</time></trkpt><trkpt lat="41.8757692" lon="12.4579803"><ele>58.0</ele><time>2026-03-28T09:08:49.058Z</time></trkpt><trkpt lat="41.8757" lon="12.4579576"><ele>57.166666666666664</ele><time>2026-03-28T09:08:50.068Z</time></trkpt><trkpt lat="41.8756331" lon="12.4579394"><ele>56.33333333333333</ele><time>2026-03-28T09:08:51.059Z</time></trkpt><trkpt lat="41.8755647" lon="12.4579264"><ele>55.5</ele><time>2026-03-28T09:08:52.058Z</time></trkpt><trkpt lat="41.8754848" lon="12.4579151"><ele>54.66666666666667</ele><time>2026-03-28T09:08:53.059Z</time></trkpt><trkpt lat="41.8753992" lon="12.4578963"><ele>53.833333333333336</ele><time>2026-03-28T09:08:54.056Z</time></trkpt><trkpt lat="41.8753122" lon="12.4578802"><ele>53.0</ele><time>2026-03-28T09:08:55.06Z</time></trkpt><trkpt lat="41.875229" lon="12.4578565"><ele>53.0</ele><time>2026-03-28T09:08:56.062Z</time></trkpt><trkpt lat="41.8751551" lon="12.4578389"><ele>53.0</ele><time>2026-03-28T09:08:57.059Z</time></trkpt><trkpt lat="41.8750908" lon="12.4578298"><ele>53.0</ele><time>2026-03-28T09:08:58.053Z</time></trkpt><trkpt lat="41.8750165" lon="12.4578149"><ele>53.0</ele><time>2026-03-28T09:08:59.06Z</time></trkpt><trkpt lat="41.8749361" lon="12.4577886"><ele>53.0</ele><time>2026-03-28T09:09:00.055Z</time></trkpt><trkpt lat="41.8748676" lon="12.4577735"><ele>53.0</ele><time>2026-03-28T09:09:01.053Z</time></trkpt><trkpt lat="41.874798" lon="12.4577542"><ele>53.0</ele><time>2026-03-28T09:09:02.055Z</time></trkpt><trkpt lat="41.8746979" lon="12.4577125"><ele>51.2</ele><time>2026-03-28T09:09:04.053Z</time></trkpt><trkpt lat="41.8746296" lon="12.4576884"><ele>49.4</ele><time>2026-03-28T09:09:09.057Z</time></trkpt><trkpt lat="41.8745166" lon="12.457664"><ele>47.6</ele><time>2026-03-28T09:09:12.062Z</time></trkpt><trkpt lat="41.874431" lon="12.4576463"><ele>45.800000000000004</ele><time>2026-03-28T09:09:13.056Z</time></trkpt><trkpt lat="41.8743202" lon="12.4576296"><ele>44.0</ele><time>2026-03-28T09:09:14.059Z</time></trkpt><trkpt lat="41.8742183" lon="12.4576192"><ele>43.25</ele><time>2026-03-28T09:09:15.059Z</time></trkpt><trkpt lat="41.8741153" lon="12.4576272"><ele>42.5</ele><time>2026-03-28T09:09:16.054Z</time></trkpt><trkpt lat="41.8740091" lon="12.4576387"><ele>41.75</ele><time>2026-03-28T09:09:17.058Z</time></trkpt><trkpt lat="41.8738886" lon="12.4576607"><ele>41.0</ele><time>2026-03-28T09:09:18.055Z</time></trkpt><trkpt lat="41.8737683" lon="12.4577023"><ele>41.0</ele><time>2026-03-28T09:09:19.063Z</time></trkpt><trkpt lat="41.8736621" lon="12.4577492"><ele>41.0</ele><time>2026-03-28T09:09:20.065Z</time></trkpt><trkpt lat="41.8735547" lon="12.457803"><ele>41.0</ele><time>2026-03-28T09:09:21.057Z</time></trkpt><trkpt lat="41.8734562" lon="12.4578578"><ele>41.0</ele><time>2026-03-28T09:09:22.058Z</time></trkpt><trkpt lat="41.8733644" lon="12.4579188"><ele>41.0</ele><time>2026-03-28T09:09:23.062Z</time></trkpt><trkpt lat="41.8732597" lon="12.457995"><ele>41.0</ele><time>2026-03-28T09:09:24.06Z</time></trkpt><trkpt lat="41.8731688" lon="12.4580611"><ele>41.0</ele><time>2026-03-28T09:09:25.054Z</time></trkpt><trkpt lat="41.8730874" lon="12.4581152"><ele>41.0</ele><time>2026-03-28T09:09:26.054Z</time></trkpt><trkpt lat="41.87303" lon="12.4581606"><ele>41.0</ele><time>2026-03-28T09:09:27.056Z</time></trkpt><trkpt lat="41.8729643" lon="12.4582066"><ele>41.0</ele><time>2026-03-28T09:09:29.063Z</time></trkpt><trkpt lat="41.8729599" lon="12.4581064"><ele>41.0</ele><time>2026-03-28T09:09:31.066Z</time></trkpt><trkpt lat="41.8730075" lon="12.4579726"><ele>41.5</ele><time>2026-03-28T09:09:33.067Z</time></trkpt><trkpt lat="41.8730716" lon="12.4579184"><ele>42.0</ele><time>2026-03-28T09:09:34.057Z</time></trkpt><trkpt lat="41.8731363" lon="12.4578692"><ele>42.5</ele><time>2026-03-28T09:09:35.06Z</time></trkpt><trkpt lat="41.8732006" lon="12.4578125"><ele>43.0</ele><time>2026-03-28T09:09:36.068Z</time></trkpt><trkpt lat="41.8732591" lon="12.45774"><ele>43.5</ele><time>2026-03-28T09:09:37.063Z</time></trkpt><trkpt lat="41.8733273" lon="12.4576573"><ele>44.0</ele><time>2026-03-28T09:09:38.062Z</time></trkpt><trkpt lat="41.8733895" lon="12.4575791"><ele>43.5</ele><time>2026-03-28T09:09:39.06Z</time></trkpt><trkpt lat="41.8734516" lon="12.4575154"><ele>43.0</ele><time>2026-03-28T09:09:40.059Z</time></trkpt><trkpt lat="41.873509" lon="12.457443"><ele>42.5</ele><time>2026-03-28T09:09:41.065Z</time></trkpt><trkpt lat="41.8735717" lon="12.4573684"><ele>42.0</ele><time>2026-03-28T09:09:42.059Z</time></trkpt><trkpt lat="41.8736311" lon="12.4573129"><ele>41.5</ele><time>2026-03-28T09:09:43.057Z</time></trkpt><trkpt lat="41.8736939" lon="12.4572865"><ele>41.0</ele><time>2026-03-28T09:09:44.058Z</time></trkpt><trkpt lat="41.8737669" lon="12.4572038"><ele>41.0</ele><time>2026-03-28T09:09:46.06Z</time></trkpt><trkpt lat="41.8738219" lon="12.4571247"><ele>41.0</ele><time>2026-03-28T09:10:04.057Z</time></trkpt><trkpt lat="41.8739017" lon="12.4569976"><ele>41.0</ele><time>2026-03-28T09:10:06.061Z</time></trkpt><trkpt lat="41.873932" lon="12.4569162"><ele>41.0</ele><time>2026-03-28T09:10:07.063Z</time></trkpt><trkpt lat="41.8739709" lon="12.4568339"><ele>41.0</ele><time>2026-03-28T09:10:08.06Z</time></trkpt><trkpt lat="41.8740054" lon="12.4567561"><ele>41.0</ele><time>2026-03-28T09:10:09.066Z</time></trkpt><trkpt lat="41.8740722" lon="12.4566167"><ele>41.33333333333333</ele><time>2026-03-28T09:10:11.061Z</time></trkpt><trkpt lat="41.8741133" lon="12.4565467"><ele>41.666666666666664</ele><time>2026-03-28T09:10:12.066Z</time></trkpt><trkpt lat="41.8741609" lon="12.4564866"><ele>42.0</ele><time>2026-03-28T09:10:13.063Z</time></trkpt><trkpt lat="41.8742157" lon="12.4563815"><ele>42.333333333333336</ele><time>2026-03-28T09:10:15.054Z</time></trkpt><trkpt lat="41.8742278" lon="12.4562778"><ele>42.66666666666667</ele><time>2026-03-28T09:10:18.063Z</time></trkpt><trkpt lat="41.8742762" lon="12.456187"><ele>43.0</ele><time>2026-03-28T09:10:22.061Z</time></trkpt><trkpt lat="41.8743223" lon="12.456076"><ele>44.8</ele><time>2026-03-28T09:10:24.062Z</time></trkpt><trkpt lat="41.8743968" lon="12.4559286"><ele>46.599999999999994</ele><time>2026-03-28T09:10:26.059Z</time></trkpt><trkpt lat="41.874441" lon="12.4558282"><ele>48.400000000000006</ele><time>2026-03-28T09:10:27.058Z</time></trkpt><trkpt lat="41.8744988" lon="12.4557242"><ele>50.2</ele><time>2026-03-28T09:10:28.062Z</time></trkpt><trkpt lat="41.8745585" lon="12.4556293"><ele>52.0</ele><time>2026-03-28T09:10:29.063Z</time></trkpt><trkpt lat="41.8746152" lon="12.4555415"><ele>51.99999999999999</ele><time>2026-03-28T09:10:30.058Z</time></trkpt><trkpt lat="41.8746661" lon="12.4554636"><ele>52.0</ele><time>2026-03-28T09:10:31.057Z</time></trkpt><trkpt lat="41.8747206" lon="12.4553897"><ele>52.0</ele><time>2026-03-28T09:10:32.058Z</time></trkpt><trkpt lat="41.8747823" lon="12.4553183"><ele>52.0</ele><time>2026-03-28T09:10:33.067Z</time></trkpt><trkpt lat="41.8748382" lon="12.4552452"><ele>51.99999999999999</ele><time>2026-03-28T09:10:34.07Z</time></trkpt><trkpt lat="41.8749003" lon="12.4551753"><ele>52.0</ele><time>2026-03-28T09:10:35.056Z</time></trkpt><trkpt lat="41.8749616" lon="12.4550905"><ele>51.6</ele><time>2026-03-28T09:10:36.06Z</time></trkpt><trkpt lat="41.8750232" lon="12.4550088"><ele>51.2</ele><time>2026-03-28T09:10:37.057Z</time></trkpt><trkpt lat="41.8750831" lon="12.454932"><ele>50.8</ele><time>2026-03-28T09:10:38.072Z</time></trkpt><trkpt lat="41.8751562" lon="12.4548499"><ele>50.4</ele><time>2026-03-28T09:10:39.055Z</time></trkpt><trkpt lat="41.8752506" lon="12.4547726"><ele>50.0</ele><time>2026-03-28T09:10:40.058Z</time></trkpt><trkpt lat="41.8753427" lon="12.4546894"><ele>51.4</ele><time>2026-03-28T09:10:41.061Z</time></trkpt><trkpt lat="41.8754393" lon="12.4546193"><ele>52.8</ele><time>2026-03-28T09:10:42.06Z</time></trkpt><trkpt lat="41.8755255" lon="12.4545491"><ele>54.2</ele><time>2026-03-28T09:10:43.054Z</time></trkpt><trkpt lat="41.8756131" lon="12.4544834"><ele>55.6</ele><time>2026-03-28T09:10:44.059Z</time></trkpt><trkpt lat="41.8757136" lon="12.4544259"><ele>57.0</ele><time>2026-03-28T09:10:45.057Z</time></trkpt><trkpt lat="41.8758125" lon="12.4543734"><ele>57.0</ele><time>2026-03-28T09:10:46.068Z</time></trkpt><trkpt lat="41.8759058" lon="12.4543053"><ele>57.0</ele><time>2026-03-28T09:10:47.056Z</time></trkpt><trkpt lat="41.8759985" lon="12.4542414"><ele>57.0</ele><time>2026-03-28T09:10:48.061Z</time></trkpt><trkpt lat="41.8760932" lon="12.4541762"><ele>57.0</ele><time>2026-03-28T09:10:49.057Z</time></trkpt><trkpt lat="41.8761804" lon="12.454108"><ele>57.0</ele><time>2026-03-28T09:10:50.065Z</time></trkpt><trkpt lat="41.8762635" lon="12.4540206"><ele>56.6</ele><time>2026-03-28T09:10:51.065Z</time></trkpt><trkpt lat="41.8763507" lon="12.453932"><ele>56.2</ele><time>2026-03-28T09:10:52.059Z</time></trkpt><trkpt lat="41.876436" lon="12.4538411"><ele>55.8</ele><time>2026-03-28T09:10:53.06Z</time></trkpt><trkpt lat="41.8765125" lon="12.4537644"><ele>55.4</ele><time>2026-03-28T09:10:54.07Z</time></trkpt><trkpt lat="41.8765761" lon="12.4536945"><ele>55.0</ele><time>2026-03-28T09:10:55.056Z</time></trkpt><trkpt lat="41.8766411" lon="12.4536391"><ele>54.4</ele><time>2026-03-28T09:10:56.06Z</time></trkpt><trkpt lat="41.8767158" lon="12.4535662"><ele>53.8</ele><time>2026-03-28T09:10:57.056Z</time></trkpt><trkpt lat="41.8767759" lon="12.45348"><ele>53.2</ele><time>2026-03-28T09:10:58.061Z</time></trkpt><trkpt lat="41.8768567" lon="12.453404"><ele>52.6</ele><time>2026-03-28T09:10:59.06Z</time></trkpt><trkpt lat="41.8769393" lon="12.4533212"><ele>52.0</ele><time>2026-03-28T09:11:00.06Z</time></trkpt><trkpt lat="41.8769983" lon="12.4532343"><ele>51.99999999999999</ele><time>2026-03-28T09:11:01.061Z</time></trkpt><trkpt lat="41.8770387" lon="12.4531482"><ele>52.0</ele><time>2026-03-28T09:11:02.059Z</time></trkpt><trkpt lat="41.8771373" lon="12.4530836"><ele>52.0</ele><time>2026-03-28T09:11:04.063Z</time></trkpt><trkpt lat="41.8772382" lon="12.453038"><ele>52.0</ele><time>2026-03-28T09:11:06.055Z</time></trkpt><trkpt lat="41.8772945" lon="12.4529743"><ele>51.99999999999999</ele><time>2026-03-28T09:11:07.064Z</time></trkpt><trkpt lat="41.8773492" lon="12.4529286"><ele>52.0</ele><time>2026-03-28T09:11:08.058Z</time></trkpt><trkpt lat="41.8774301" lon="12.4528572"><ele>51.99999999999999</ele><time>2026-03-28T09:11:10.057Z</time></trkpt><trkpt lat="41.8774747" lon="12.4527834"><ele>52.0</ele><time>2026-03-28T09:11:26.056Z</time></trkpt><trkpt lat="41.8775372" lon="12.4527553"><ele>52.0</ele><time>2026-03-28T09:11:36.06Z</time></trkpt><trkpt lat="41.8776077" lon="12.4527164"><ele>52.0</ele><time>2026-03-28T09:11:41.054Z</time></trkpt><trkpt lat="41.8776516" lon="12.4526033"><ele>51.99999999999999</ele><time>2026-03-28T09:11:43.06Z</time></trkpt><trkpt lat="41.8776634" lon="12.4525057"><ele>52.0</ele><time>2026-03-28T09:11:44.054Z</time></trkpt><trkpt lat="41.8776632" lon="12.4524057"><ele>51.8</ele><time>2026-03-28T09:11:45.056Z</time></trkpt><trkpt lat="41.8776559" lon="12.4522524"><ele>51.6</ele><time>2026-03-28T09:11:46.064Z</time></trkpt><trkpt lat="41.8776475" lon="12.4521036"><ele>51.4</ele><time>2026-03-28T09:11:47.055Z</time></trkpt><trkpt lat="41.877633" lon="12.4519682"><ele>51.199999999999996</ele><time>2026-03-28T09:11:48.052Z</time></trkpt><trkpt lat="41.8776298" lon="12.4518236"><ele>51.0</ele><time>2026-03-28T09:11:49.055Z</time></trkpt><trkpt lat="41.8776116" lon="12.4516728"><ele>52.75</ele><time>2026-03-28T09:11:50.06Z</time></trkpt><trkpt lat="41.8775958" lon="12.4515232"><ele>54.5</ele><time>2026-03-28T09:11:51.056Z</time></trkpt><trkpt lat="41.8775671" lon="12.451373"><ele>56.25</ele><time>2026-03-28T09:11:52.055Z</time></trkpt><trkpt lat="41.8775442" lon="12.4512247"><ele>58.0</ele><time>2026-03-28T09:11:53.064Z</time></trkpt><trkpt lat="41.8775059" lon="12.4510858"><ele>58.166666666666664</ele><time>2026-03-28T09:11:54.059Z</time></trkpt><trkpt lat="41.8774859" lon="12.4509431"><ele>58.33333333333333</ele><time>2026-03-28T09:11:55.054Z</time></trkpt><trkpt lat="41.8774616" lon="12.4508273"><ele>58.5</ele><time>2026-03-28T09:11:56.055Z</time></trkpt><trkpt lat="41.877434" lon="12.4507169"><ele>58.66666666666667</ele><time>2026-03-28T09:11:57.058Z</time></trkpt><trkpt lat="41.8774078" lon="12.4506252"><ele>58.833333333333336</ele><time>2026-03-28T09:11:58.056Z</time></trkpt><trkpt lat="41.8773669" lon="12.4505369"><ele>59.0</ele><time>2026-03-28T09:11:59.056Z</time></trkpt><trkpt lat="41.877327" lon="12.4504403"><ele>59.50000000000001</ele><time>2026-03-28T09:12:00.054Z</time></trkpt><trkpt lat="41.8772852" lon="12.4503339"><ele>60.0</ele><time>2026-03-28T09:12:01.054Z</time></trkpt><trkpt lat="41.8772539" lon="12.4502239"><ele>60.5</ele><time>2026-03-28T09:12:02.058Z</time></trkpt><trkpt lat="41.8772246" lon="12.450127"><ele>61.0</ele><time>2026-03-28T09:12:03.058Z</time></trkpt><trkpt lat="41.8771905" lon="12.4500226"><ele>61.50000000000001</ele><time>2026-03-28T09:12:04.058Z</time></trkpt><trkpt lat="41.8771511" lon="12.4499211"><ele>62.0</ele><time>2026-03-28T09:12:05.064Z</time></trkpt><trkpt lat="41.8771057" lon="12.4498184"><ele>62.00000000000001</ele><time>2026-03-28T09:12:06.059Z</time></trkpt><trkpt lat="41.8770659" lon="12.4497323"><ele>62.0</ele><time>2026-03-28T09:12:07.071Z</time></trkpt><trkpt lat="41.8770171" lon="12.4496402"><ele>62.0</ele><time>2026-03-28T09:12:08.056Z</time></trkpt><trkpt lat="41.8769613" lon="12.4495407"><ele>62.0</ele><time>2026-03-28T09:12:09.054Z</time></trkpt><trkpt lat="41.8769077" lon="12.4494632"><ele>62.00000000000001</ele><time>2026-03-28T09:12:10.059Z</time></trkpt><trkpt lat="41.8768432" lon="12.4493782"><ele>62.0</ele><time>2026-03-28T09:12:11.062Z</time></trkpt><trkpt lat="41.8767838" lon="12.4492873"><ele>63.6</ele><time>2026-03-28T09:12:12.065Z</time></trkpt><trkpt lat="41.8767357" lon="12.4491902"><ele>65.2</ele><time>2026-03-28T09:12:13.056Z</time></trkpt><trkpt lat="41.8766939" lon="12.4491132"><ele>66.8</ele><time>2026-03-28T09:12:14.065Z</time></trkpt><trkpt lat="41.8766465" lon="12.4490378"><ele>68.4</ele><time>2026-03-28T09:12:15.061Z</time></trkpt><trkpt lat="41.8765679" lon="12.4489228"><ele>70.0</ele><time>2026-03-28T09:12:17.06Z</time></trkpt><trkpt lat="41.8765124" lon="12.4487894"><ele>70.5</ele><time>2026-03-28T09:12:19.059Z</time></trkpt><trkpt lat="41.8764681" lon="12.448726"><ele>71.0</ele><time>2026-03-28T09:12:20.065Z</time></trkpt><trkpt lat="41.8764361" lon="12.4486518"><ele>71.5</ele><time>2026-03-28T09:12:21.054Z</time></trkpt><trkpt lat="41.8763931" lon="12.4485656"><ele>72.0</ele><time>2026-03-28T09:12:22.061Z</time></trkpt><trkpt lat="41.876338" lon="12.4484668"><ele>72.5</ele><time>2026-03-28T09:12:23.06Z</time></trkpt><trkpt lat="41.87628" lon="12.4483625"><ele>73.0</ele><time>2026-03-28T09:12:24.058Z</time></trkpt><trkpt lat="41.8762201" lon="12.4482512"><ele>73.0</ele><time>2026-03-28T09:12:25.062Z</time></trkpt><trkpt lat="41.8761574" lon="12.4481635"><ele>73.0</ele><time>2026-03-28T09:12:26.061Z</time></trkpt><trkpt lat="41.8761003" lon="12.4480806"><ele>73.0</ele><time>2026-03-28T09:12:27.058Z</time></trkpt><trkpt lat="41.8760539" lon="12.4480084"><ele>73.0</ele><time>2026-03-28T09:12:28.056Z</time></trkpt><trkpt lat="41.8760129" lon="12.447934"><ele>73.0</ele><time>2026-03-28T09:12:29.057Z</time></trkpt><trkpt lat="41.8759407" lon="12.4477933"><ele>73.0</ele><time>2026-03-28T09:12:31.06Z</time></trkpt><trkpt lat="41.8759096" lon="12.4477049"><ele>73.6</ele><time>2026-03-28T09:12:32.056Z</time></trkpt><trkpt lat="41.8758731" lon="12.4476262"><ele>74.19999999999999</ele><time>2026-03-28T09:12:33.06Z</time></trkpt><trkpt lat="41.8758066" lon="12.4475167"><ele>74.8</ele><time>2026-03-28T09:12:35.059Z</time></trkpt><trkpt lat="41.8757372" lon="12.4474133"><ele>75.39999999999999</ele><time>2026-03-28T09:12:37.058Z</time></trkpt><trkpt lat="41.8756878" lon="12.4473602"><ele>76.0</ele><time>2026-03-28T09:12:38.061Z</time></trkpt><trkpt lat="41.8755975" lon="12.447239"><ele>75.83333333333333</ele><time>2026-03-28T09:12:40.062Z</time></trkpt><trkpt lat="41.8755283" lon="12.4471213"><ele>75.66666666666666</ele><time>2026-03-28T09:12:42.055Z</time></trkpt><trkpt lat="41.8754785" lon="12.4470158"><ele>75.5</ele><time>2026-03-28T09:12:44.063Z</time></trkpt><trkpt lat="41.8754423" lon="12.446889"><ele>75.33333333333333</ele><time>2026-03-28T09:12:46.06Z</time></trkpt><trkpt lat="41.8754063" lon="12.4468055"><ele>75.16666666666667</ele><time>2026-03-28T09:12:47.059Z</time></trkpt><trkpt lat="41.8753751" lon="12.4467316"><ele>75.0</ele><time>2026-03-28T09:12:48.074Z</time></trkpt><trkpt lat="41.8753093" lon="12.4466195"><ele>75.0</ele><time>2026-03-28T09:12:50.057Z</time></trkpt><trkpt lat="41.8752765" lon="12.4465406"><ele>75.0</ele><time>2026-03-28T09:12:52.061Z</time></trkpt><trkpt lat="41.8752355" lon="12.4464719"><ele>75.0</ele><time>2026-03-28T09:12:55.058Z</time></trkpt><trkpt lat="41.8751897" lon="12.4463946"><ele>75.0</ele><time>2026-03-28T09:13:24.062Z</time></trkpt><trkpt lat="41.8751567" lon="12.4462676"><ele>75.0</ele><time>2026-03-28T09:13:27.059Z</time></trkpt><trkpt lat="41.8752201" lon="12.4461242"><ele>75.0</ele><time>2026-03-28T09:13:29.065Z</time></trkpt><trkpt lat="41.8752789" lon="12.4460446"><ele>74.8</ele><time>2026-03-28T09:13:30.071Z</time></trkpt><trkpt lat="41.8753323" lon="12.4459806"><ele>74.6</ele><time>2026-03-28T09:13:31.055Z</time></trkpt><trkpt lat="41.8754319" lon="12.4459159"><ele>74.4</ele><time>2026-03-28T09:13:33.058Z</time></trkpt><trkpt lat="41.8754876" lon="12.4458626"><ele>74.2</ele><time>2026-03-28T09:13:35.066Z</time></trkpt><trkpt lat="41.8755623" lon="12.445771"><ele>74.0</ele><time>2026-03-28T09:15:04.056Z</time></trkpt><trkpt lat="41.8756619" lon="12.4456513"><ele>74.0</ele><time>2026-03-28T09:15:06.065Z</time></trkpt><trkpt lat="41.8757134" lon="12.4455793"><ele>74.0</ele><time>2026-03-28T09:15:07.054Z</time></trkpt><trkpt lat="41.8757516" lon="12.4454995"><ele>74.0</ele><time>2026-03-28T09:15:08.069Z</time></trkpt><trkpt lat="41.8757819" lon="12.4454219"><ele>74.0</ele><time>2026-03-28T09:15:09.058Z</time></trkpt><trkpt lat="41.8758272" lon="12.4452864"><ele>74.0</ele><time>2026-03-28T09:15:11.062Z</time></trkpt><trkpt lat="41.875851" lon="12.4452037"><ele>74.0</ele><time>2026-03-28T09:15:13.056Z</time></trkpt><trkpt lat="41.8758997" lon="12.4450727"><ele>73.5</ele><time>2026-03-28T09:16:14.056Z</time></trkpt><trkpt lat="41.8759758" lon="12.4449802"><ele>73.0</ele><time>2026-03-28T09:16:15.054Z</time></trkpt><trkpt lat="41.8760751" lon="12.4448469"><ele>72.5</ele><time>2026-03-28T09:16:16.057Z</time></trkpt><trkpt lat="41.8761651" lon="12.4447135"><ele>72.0</ele><time>2026-03-28T09:16:17.057Z</time></trkpt><trkpt lat="41.8762649" lon="12.4445812"><ele>72.0</ele><time>2026-03-28T09:16:18.055Z</time></trkpt><trkpt lat="41.8763706" lon="12.4444392"><ele>72.0</ele><time>2026-03-28T09:16:19.056Z</time></trkpt><trkpt lat="41.876487" lon="12.4442654"><ele>72.0</ele><time>2026-03-28T09:16:20.062Z</time></trkpt><trkpt lat="41.8765901" lon="12.4440974"><ele>72.0</ele><time>2026-03-28T09:16:21.057Z</time></trkpt><trkpt lat="41.8766973" lon="12.443991"><ele>72.0</ele><time>2026-03-28T09:16:22.053Z</time></trkpt><trkpt lat="41.8767884" lon="12.4438626"><ele>72.0</ele><time>2026-03-28T09:16:23.053Z</time></trkpt><trkpt lat="41.8768832" lon="12.4437218"><ele>72.0</ele><time>2026-03-28T09:16:24.06Z</time></trkpt><trkpt lat="41.8769801" lon="12.4435775"><ele>72.25</ele><time>2026-03-28T09:16:25.052Z</time></trkpt><trkpt lat="41.8770701" lon="12.4434404"><ele>72.5</ele><time>2026-03-28T09:16:26.054Z</time></trkpt><trkpt lat="41.8771344" lon="12.4433344"><ele>72.75</ele><time>2026-03-28T09:16:27.058Z</time></trkpt><trkpt lat="41.8771913" lon="12.4432148"><ele>73.0</ele><time>2026-03-28T09:16:28.062Z</time></trkpt><trkpt lat="41.8772414" lon="12.4430852"><ele>73.25</ele><time>2026-03-28T09:16:29.062Z</time></trkpt><trkpt lat="41.8772828" lon="12.4429353"><ele>73.5</ele><time>2026-03-28T09:16:30.054Z</time></trkpt><trkpt lat="41.877327" lon="12.4427892"><ele>73.75</ele><time>2026-03-28T09:16:31.055Z</time></trkpt><trkpt lat="41.8773431" lon="12.4426173"><ele>74.0</ele><time>2026-03-28T09:16:32.055Z</time></trkpt><trkpt lat="41.8773534" lon="12.4424505"><ele>74.0</ele><time>2026-03-28T09:16:33.054Z</time></trkpt><trkpt lat="41.8773596" lon="12.442304"><ele>74.0</ele><time>2026-03-28T09:16:34.053Z</time></trkpt><trkpt lat="41.877383" lon="12.4421511"><ele>74.0</ele><time>2026-03-28T09:16:35.064Z</time></trkpt><trkpt lat="41.8774057" lon="12.4419905"><ele>74.0</ele><time>2026-03-28T09:16:36.053Z</time></trkpt><trkpt lat="41.8774298" lon="12.4418142"><ele>75.0</ele><time>2026-03-28T09:16:37.055Z</time></trkpt><trkpt lat="41.877449" lon="12.4416314"><ele>76.0</ele><time>2026-03-28T09:16:38.056Z</time></trkpt><trkpt lat="41.8774656" lon="12.4414311"><ele>77.0</ele><time>2026-03-28T09:16:39.06Z</time></trkpt><trkpt lat="41.8775006" lon="12.4412472"><ele>78.0</ele><time>2026-03-28T09:16:40.061Z</time></trkpt><trkpt lat="41.8775414" lon="12.4410927"><ele>78.0</ele><time>2026-03-28T09:16:41.055Z</time></trkpt><trkpt lat="41.8775588" lon="12.4409544"><ele>78.0</ele><time>2026-03-28T09:16:42.053Z</time></trkpt><trkpt lat="41.8775859" lon="12.440817"><ele>78.0</ele><time>2026-03-28T09:16:43.06Z</time></trkpt><trkpt lat="41.8776043" lon="12.4406423"><ele>78.0</ele><time>2026-03-28T09:16:44.056Z</time></trkpt><trkpt lat="41.8776249" lon="12.4405162"><ele>78.0</ele><time>2026-03-28T09:16:45.063Z</time></trkpt><trkpt lat="41.8776382" lon="12.4403686"><ele>77.4</ele><time>2026-03-28T09:16:46.059Z</time></trkpt><trkpt lat="41.8776579" lon="12.4402233"><ele>76.8</ele><time>2026-03-28T09:16:47.058Z</time></trkpt><trkpt lat="41.8776781" lon="12.4400877"><ele>76.2</ele><time>2026-03-28T09:16:48.057Z</time></trkpt><trkpt lat="41.8776929" lon="12.4399425"><ele>75.6</ele><time>2026-03-28T09:16:49.056Z</time></trkpt><trkpt lat="41.8777105" lon="12.4398032"><ele>75.0</ele><time>2026-03-28T09:16:50.059Z</time></trkpt><trkpt lat="41.8777298" lon="12.4396722"><ele>73.6</ele><time>2026-03-28T09:16:51.059Z</time></trkpt><trkpt lat="41.8777448" lon="12.4395401"><ele>72.2</ele><time>2026-03-28T09:16:52.058Z</time></trkpt><trkpt lat="41.877753" lon="12.4394109"><ele>70.8</ele><time>2026-03-28T09:16:53.053Z</time></trkpt><trkpt lat="41.8777569" lon="12.4392951"><ele>69.4</ele><time>2026-03-28T09:16:54.057Z</time></trkpt><trkpt lat="41.877757" lon="12.4391912"><ele>68.0</ele><time>2026-03-28T09:16:55.058Z</time></trkpt><trkpt lat="41.8777455" lon="12.4390546"><ele>68.0</ele><time>2026-03-28T09:16:57.056Z</time></trkpt><trkpt lat="41.8777482" lon="12.4389335"><ele>68.0</ele><time>2026-03-28T09:17:30.057Z</time></trkpt><trkpt lat="41.8778207" lon="12.4389021"><ele>68.0</ele><time>2026-03-28T09:17:33.057Z</time></trkpt><trkpt lat="41.8779937" lon="12.4389816"><ele>68.0</ele><time>2026-03-28T09:17:35.068Z</time></trkpt><trkpt lat="41.8780867" lon="12.4390419"><ele>68.0</ele><time>2026-03-28T09:17:36.05Z</time></trkpt><trkpt lat="41.8781626" lon="12.4390856"><ele>68.0</ele><time>2026-03-28T09:17:37.059Z</time></trkpt><trkpt lat="41.878243" lon="12.4391332"><ele>68.0</ele><time>2026-03-28T09:17:38.054Z</time></trkpt><trkpt lat="41.8783155" lon="12.4391946"><ele>68.0</ele><time>2026-03-28T09:17:39.05Z</time></trkpt><trkpt lat="41.8783858" lon="12.4392578"><ele>68.0</ele><time>2026-03-28T09:17:40.06Z</time></trkpt><trkpt lat="41.8784599" lon="12.439311"><ele>68.0</ele><time>2026-03-28T09:17:41.052Z</time></trkpt><trkpt lat="41.8785426" lon="12.4393761"><ele>67.2</ele><time>2026-03-28T09:17:42.063Z</time></trkpt><trkpt lat="41.8786235" lon="12.4394504"><ele>66.4</ele><time>2026-03-28T09:17:43.056Z</time></trkpt><trkpt lat="41.878701" lon="12.4395382"><ele>65.60000000000001</ele><time>2026-03-28T09:17:44.054Z</time></trkpt><trkpt lat="41.8787844" lon="12.4396282"><ele>64.8</ele><time>2026-03-28T09:17:45.06Z</time></trkpt><trkpt lat="41.8788705" lon="12.4397239"><ele>64.0</ele><time>2026-03-28T09:17:46.058Z</time></trkpt><trkpt lat="41.8789465" lon="12.4398159"><ele>65.0</ele><time>2026-03-28T09:17:47.056Z</time></trkpt><trkpt lat="41.8790133" lon="12.4399079"><ele>66.0</ele><time>2026-03-28T09:17:48.075Z</time></trkpt><trkpt lat="41.8790799" lon="12.4399809"><ele>67.0</ele><time>2026-03-28T09:17:49.055Z</time></trkpt><trkpt lat="41.8791424" lon="12.4400474"><ele>68.0</ele><time>2026-03-28T09:17:50.058Z</time></trkpt><trkpt lat="41.8792089" lon="12.4401226"><ele>69.0</ele><time>2026-03-28T09:17:51.056Z</time></trkpt><trkpt lat="41.8792612" lon="12.4401889"><ele>70.0</ele><time>2026-03-28T09:17:52.061Z</time></trkpt><trkpt lat="41.8793486" lon="12.4402981"><ele>70.0</ele><time>2026-03-28T09:17:54.055Z</time></trkpt><trkpt lat="41.8794433" lon="12.4403962"><ele>70.0</ele><time>2026-03-28T09:17:56.059Z</time></trkpt><trkpt lat="41.8795399" lon="12.4404847"><ele>70.0</ele><time>2026-03-28T09:17:58.055Z</time></trkpt><trkpt lat="41.8796082" lon="12.4405696"><ele>70.0</ele><time>2026-03-28T09:18:00.058Z</time></trkpt><trkpt lat="41.8796869" lon="12.4406306"><ele>70.0</ele><time>2026-03-28T09:18:03.065Z</time></trkpt><trkpt lat="41.879764" lon="12.4406835"><ele>71.0</ele><time>2026-03-28T09:18:05.06Z</time></trkpt><trkpt lat="41.8798415" lon="12.4407715"><ele>72.0</ele><time>2026-03-28T09:18:07.054Z</time></trkpt><trkpt lat="41.8798861" lon="12.4408334"><ele>73.0</ele><time>2026-03-28T09:18:08.056Z</time></trkpt><trkpt lat="41.8799687" lon="12.4409653"><ele>74.0</ele><time>2026-03-28T09:18:10.052Z</time></trkpt><trkpt lat="41.8800153" lon="12.4410572"><ele>75.0</ele><time>2026-03-28T09:18:11.055Z</time></trkpt><trkpt lat="41.8800666" lon="12.4411301"><ele>75.4</ele><time>2026-03-28T09:18:12.056Z</time></trkpt><trkpt lat="41.8801343" lon="12.4411614"><ele>75.8</ele><time>2026-03-28T09:18:13.055Z</time></trkpt><trkpt lat="41.8802093" lon="12.4411558"><ele>76.2</ele><time>2026-03-28T09:18:14.055Z</time></trkpt><trkpt lat="41.8802985" lon="12.4411293"><ele>76.6</ele><time>2026-03-28T09:18:15.062Z</time></trkpt><trkpt lat="41.8804081" lon="12.4411"><ele>77.0</ele><time>2026-03-28T09:18:16.064Z</time></trkpt><trkpt lat="41.8805398" lon="12.4410562"><ele>77.0</ele><time>2026-03-28T09:18:17.07Z</time></trkpt><trkpt lat="41.8806998" lon="12.44099"><ele>77.0</ele><time>2026-03-28T09:18:18.059Z</time></trkpt><trkpt lat="41.8809095" lon="12.4409228"><ele>77.0</ele><time>2026-03-28T09:18:19.065Z</time></trkpt><trkpt lat="41.881074" lon="12.4408902"><ele>77.0</ele><time>2026-03-28T09:18:20.059Z</time></trkpt><trkpt lat="41.8812368" lon="12.4408478"><ele>77.0</ele><time>2026-03-28T09:18:21.061Z</time></trkpt><trkpt lat="41.8813999" lon="12.4408088"><ele>77.0</ele><time>2026-03-28T09:18:22.062Z</time></trkpt><trkpt lat="41.8815854" lon="12.4407599"><ele>77.0</ele><time>2026-03-28T09:18:23.057Z</time></trkpt><trkpt lat="41.8817657" lon="12.4407064"><ele>77.0</ele><time>2026-03-28T09:18:24.062Z</time></trkpt><trkpt lat="41.8819336" lon="12.4406538"><ele>77.0</ele><time>2026-03-28T09:18:25.056Z</time></trkpt><trkpt lat="41.8820844" lon="12.44059"><ele>77.0</ele><time>2026-03-28T09:18:26.064Z</time></trkpt><trkpt lat="41.8822219" lon="12.4405482"><ele>77.0</ele><time>2026-03-28T09:18:27.054Z</time></trkpt><trkpt lat="41.8823703" lon="12.4405172"><ele>77.0</ele><time>2026-03-28T09:18:28.066Z</time></trkpt><trkpt lat="41.8825275" lon="12.4404961"><ele>77.0</ele><time>2026-03-28T09:18:29.058Z</time></trkpt><trkpt lat="41.8827069" lon="12.4404693"><ele>73.66666666666667</ele><time>2026-03-28T09:18:30.061Z</time></trkpt><trkpt lat="41.882922" lon="12.4404429"><ele>70.33333333333333</ele><time>2026-03-28T09:18:31.059Z</time></trkpt><trkpt lat="41.8831334" lon="12.4404325"><ele>67.0</ele><time>2026-03-28T09:18:32.062Z</time></trkpt><trkpt lat="41.88336" lon="12.4404346"><ele>67.0</ele><time>2026-03-28T09:18:33.06Z</time></trkpt><trkpt lat="41.8836312" lon="12.4404387"><ele>67.0</ele><time>2026-03-28T09:18:34.061Z</time></trkpt><trkpt lat="41.883897" lon="12.4404661"><ele>71.5</ele><time>2026-03-28T09:18:35.055Z</time></trkpt><trkpt lat="41.8841794" lon="12.4405085"><ele>76.0</ele><time>2026-03-28T09:18:36.056Z</time></trkpt><trkpt lat="41.8844852" lon="12.4405147"><ele>76.5</ele><time>2026-03-28T09:18:37.066Z</time></trkpt><trkpt lat="41.8848015" lon="12.4405198"><ele>77.0</ele><time>2026-03-28T09:18:38.084Z</time></trkpt><trkpt lat="41.8851308" lon="12.4405274"><ele>77.0</ele><time>2026-03-28T09:18:39.063Z</time></trkpt><trkpt lat="41.8854386" lon="12.4405275"><ele>77.0</ele><time>2026-03-28T09:18:40.066Z</time></trkpt><trkpt lat="41.8856954" lon="12.4405423"><ele>76.0</ele><time>2026-03-28T09:18:41.067Z</time></trkpt><trkpt lat="41.8859424" lon="12.440558"><ele>75.0</ele><time>2026-03-28T09:18:42.057Z</time></trkpt><trkpt lat="41.8861861" lon="12.4405734"><ele>75.0</ele><time>2026-03-28T09:18:43.07Z</time></trkpt><trkpt lat="41.8864501" lon="12.4405811"><ele>75.0</ele><time>2026-03-28T09:18:44.066Z</time></trkpt><trkpt lat="41.886736" lon="12.4405896"><ele>76.5</ele><time>2026-03-28T09:18:45.063Z</time></trkpt><trkpt lat="41.8870158" lon="12.4405975"><ele>78.0</ele><time>2026-03-28T09:18:46.06Z</time></trkpt><trkpt lat="41.8873038" lon="12.4406072"><ele>78.0</ele><time>2026-03-28T09:18:47.06Z</time></trkpt><trkpt lat="41.8875875" lon="12.4406307"><ele>78.0</ele><time>2026-03-28T09:18:48.055Z</time></trkpt><trkpt lat="41.8878438" lon="12.4406376"><ele>78.5</ele><time>2026-03-28T09:18:49.058Z</time></trkpt><trkpt lat="41.8880939" lon="12.4406575"><ele>79.0</ele><time>2026-03-28T09:18:50.058Z</time></trkpt><trkpt lat="41.8883195" lon="12.4406754"><ele>79.66666666666666</ele><time>2026-03-28T09:18:51.054Z</time></trkpt><trkpt lat="41.8885334" lon="12.4406889"><ele>80.33333333333333</ele><time>2026-03-28T09:18:52.056Z</time></trkpt><trkpt lat="41.8887177" lon="12.4406684"><ele>81.0</ele><time>2026-03-28T09:18:53.066Z</time></trkpt><trkpt lat="41.8888983" lon="12.44067"><ele>81.0</ele><time>2026-03-28T09:18:54.059Z</time></trkpt><trkpt lat="41.8890777" lon="12.4406546"><ele>81.0</ele><time>2026-03-28T09:18:55.065Z</time></trkpt><trkpt lat="41.8892635" lon="12.4405723"><ele>81.0</ele><time>2026-03-28T09:18:56.064Z</time></trkpt><trkpt lat="41.8894365" lon="12.4404652"><ele>82.66666666666667</ele><time>2026-03-28T09:18:57.061Z</time></trkpt><trkpt lat="41.8896092" lon="12.4403341"><ele>84.33333333333334</ele><time>2026-03-28T09:18:58.055Z</time></trkpt><trkpt lat="41.8897679" lon="12.4401171"><ele>86.0</ele><time>2026-03-28T09:18:59.061Z</time></trkpt><trkpt lat="41.8899237" lon="12.4399105"><ele>86.5</ele><time>2026-03-28T09:19:00.071Z</time></trkpt><trkpt lat="41.8900986" lon="12.439677"><ele>87.0</ele><time>2026-03-28T09:19:01.064Z</time></trkpt><trkpt lat="41.8902624" lon="12.4394496"><ele>84.0</ele><time>2026-03-28T09:19:02.058Z</time></trkpt><trkpt lat="41.8904059" lon="12.4392411"><ele>81.0</ele><time>2026-03-28T09:19:03.064Z</time></trkpt><trkpt lat="41.8905556" lon="12.4390276"><ele>78.0</ele><time>2026-03-28T09:19:04.059Z</time></trkpt><trkpt lat="41.8907289" lon="12.4388287"><ele>76.66666666666667</ele><time>2026-03-28T09:19:05.066Z</time></trkpt><trkpt lat="41.8909092" lon="12.4386492"><ele>75.33333333333334</ele><time>2026-03-28T09:19:06.059Z</time></trkpt><trkpt lat="41.8910705" lon="12.4385089"><ele>74.0</ele><time>2026-03-28T09:19:07.067Z</time></trkpt><trkpt lat="41.8912555" lon="12.4383854"><ele>72.33333333333334</ele><time>2026-03-28T09:19:08.05Z</time></trkpt><trkpt lat="41.8913978" lon="12.4382853"><ele>70.66666666666667</ele><time>2026-03-28T09:19:09.059Z</time></trkpt><trkpt lat="41.8915764" lon="12.438197"><ele>69.0</ele><time>2026-03-28T09:19:10.06Z</time></trkpt><trkpt lat="41.8917599" lon="12.4381441"><ele>68.33333333333333</ele><time>2026-03-28T09:19:11.056Z</time></trkpt><trkpt lat="41.8919275" lon="12.4381029"><ele>67.66666666666666</ele><time>2026-03-28T09:19:12.057Z</time></trkpt><trkpt lat="41.8920971" lon="12.4380457"><ele>67.0</ele><time>2026-03-28T09:19:13.054Z</time></trkpt><trkpt lat="41.8922672" lon="12.4379886"><ele>67.75</ele><time>2026-03-28T09:19:14.056Z</time></trkpt><trkpt lat="41.892417" lon="12.4379329"><ele>68.5</ele><time>2026-03-28T09:19:15.062Z</time></trkpt><trkpt lat="41.8925557" lon="12.4378832"><ele>69.25</ele><time>2026-03-28T09:19:16.065Z</time></trkpt><trkpt lat="41.8926964" lon="12.4378358"><ele>70.0</ele><time>2026-03-28T09:19:17.056Z</time></trkpt><trkpt lat="41.8928355" lon="12.4377879"><ele>68.25</ele><time>2026-03-28T09:19:18.057Z</time></trkpt><trkpt lat="41.8929526" lon="12.4377454"><ele>66.5</ele><time>2026-03-28T09:19:19.063Z</time></trkpt><trkpt lat="41.8930787" lon="12.4377186"><ele>64.75</ele><time>2026-03-28T09:19:20.054Z</time></trkpt><trkpt lat="41.8932088" lon="12.4376695"><ele>63.0</ele><time>2026-03-28T09:19:21.054Z</time></trkpt><trkpt lat="41.8933313" lon="12.4376225"><ele>62.8</ele><time>2026-03-28T09:19:22.061Z</time></trkpt><trkpt lat="41.8934411" lon="12.4376089"><ele>62.599999999999994</ele><time>2026-03-28T09:19:23.057Z</time></trkpt><trkpt lat="41.8935372" lon="12.4375639"><ele>62.400000000000006</ele><time>2026-03-28T09:19:24.055Z</time></trkpt><trkpt lat="41.8936225" lon="12.4375141"><ele>62.2</ele><time>2026-03-28T09:19:25.054Z</time></trkpt><trkpt lat="41.893722" lon="12.4374815"><ele>62.0</ele><time>2026-03-28T09:19:26.06Z</time></trkpt><trkpt lat="41.8938218" lon="12.4374604"><ele>62.00000000000001</ele><time>2026-03-28T09:19:27.058Z</time></trkpt><trkpt lat="41.893911" lon="12.4374516"><ele>62.0</ele><time>2026-03-28T09:19:28.087Z</time></trkpt><trkpt lat="41.8939923" lon="12.437477"><ele>62.0</ele><time>2026-03-28T09:19:29.067Z</time></trkpt><trkpt lat="41.8940598" lon="12.4375185"><ele>62.0</ele><time>2026-03-28T09:19:30.057Z</time></trkpt><trkpt lat="41.8940982" lon="12.4376194"><ele>62.00000000000001</ele><time>2026-03-28T09:19:32.065Z</time></trkpt><trkpt lat="41.8941702" lon="12.4377398"><ele>62.0</ele><time>2026-03-28T09:19:34.055Z</time></trkpt><trkpt lat="41.8942295" lon="12.4378482"><ele>61.400000000000006</ele><time>2026-03-28T09:19:41.061Z</time></trkpt><trkpt lat="41.8943121" lon="12.4379696"><ele>60.800000000000004</ele><time>2026-03-28T09:19:43.056Z</time></trkpt><trkpt lat="41.894377" lon="12.4380607"><ele>60.2</ele><time>2026-03-28T09:19:44.057Z</time></trkpt><trkpt lat="41.8944346" lon="12.4381778"><ele>59.6</ele><time>2026-03-28T09:19:45.061Z</time></trkpt><trkpt lat="41.8944922" lon="12.438293"><ele>59.0</ele><time>2026-03-28T09:19:46.055Z</time></trkpt><trkpt lat="41.8945429" lon="12.4383867"><ele>59.0</ele><time>2026-03-28T09:19:47.063Z</time></trkpt><trkpt lat="41.8945832" lon="12.4384674"><ele>59.0</ele><time>2026-03-28T09:19:48.054Z</time></trkpt><trkpt lat="41.8946194" lon="12.4385487"><ele>59.0</ele><time>2026-03-28T09:19:49.056Z</time></trkpt><trkpt lat="41.8946461" lon="12.438628"><ele>59.0</ele><time>2026-03-28T09:19:50.06Z</time></trkpt><trkpt lat="41.8946604" lon="12.4387213"><ele>59.0</ele><time>2026-03-28T09:19:51.061Z</time></trkpt><trkpt lat="41.8946729" lon="12.438806"><ele>59.0</ele><time>2026-03-28T09:19:52.054Z</time></trkpt><trkpt lat="41.8947342" lon="12.4388814"><ele>59.0</ele><time>2026-03-28T09:19:54.059Z</time></trkpt><trkpt lat="41.8947923" lon="12.4388138"><ele>59.0</ele><time>2026-03-28T09:19:56.056Z</time></trkpt><trkpt lat="41.8948406" lon="12.4387278"><ele>59.00000000000001</ele><time>2026-03-28T09:21:04.054Z</time></trkpt><trkpt lat="41.8949099" lon="12.4385788"><ele>59.00000000000001</ele><time>2026-03-28T09:21:06.056Z</time></trkpt><trkpt lat="41.894926" lon="12.4384566"><ele>59.0</ele><time>2026-03-28T09:21:07.064Z</time></trkpt><trkpt lat="41.8948926" lon="12.4383144"><ele>59.0</ele><time>2026-03-28T09:21:08.069Z</time></trkpt><trkpt lat="41.8948452" lon="12.4381831"><ele>59.0</ele><time>2026-03-28T09:21:09.064Z</time></trkpt><trkpt lat="41.8947778" lon="12.4380655"><ele>59.00000000000001</ele><time>2026-03-28T09:21:10.052Z</time></trkpt><trkpt lat="41.8947036" lon="12.4379519"><ele>59.00000000000001</ele><time>2026-03-28T09:21:11.064Z</time></trkpt><trkpt lat="41.8946296" lon="12.4378354"><ele>59.0</ele><time>2026-03-28T09:21:12.059Z</time></trkpt><trkpt lat="41.894561" lon="12.4377432"><ele>59.0</ele><time>2026-03-28T09:21:13.053Z</time></trkpt><trkpt lat="41.8945052" lon="12.4376815"><ele>59.50000000000001</ele><time>2026-03-28T09:21:14.069Z</time></trkpt><trkpt lat="41.8944543" lon="12.4376298"><ele>60.0</ele><time>2026-03-28T09:21:15.063Z</time></trkpt><trkpt lat="41.894387" lon="12.4375753"><ele>60.5</ele><time>2026-03-28T09:21:17.057Z</time></trkpt><trkpt lat="41.8943069" lon="12.4375152"><ele>61.0</ele><time>2026-03-28T09:22:01.059Z</time></trkpt><trkpt lat="41.8942515" lon="12.4374443"><ele>61.50000000000001</ele><time>2026-03-28T09:22:02.058Z</time></trkpt><trkpt lat="41.8941821" lon="12.4373547"><ele>62.0</ele><time>2026-03-28T09:22:03.064Z</time></trkpt><trkpt lat="41.8941192" lon="12.4372459"><ele>62.5</ele><time>2026-03-28T09:22:04.06Z</time></trkpt><trkpt lat="41.8940643" lon="12.4371192"><ele>63.0</ele><time>2026-03-28T09:22:05.054Z</time></trkpt><trkpt lat="41.8940043" lon="12.4369843"><ele>63.5</ele><time>2026-03-28T09:22:06.058Z</time></trkpt><trkpt lat="41.8939293" lon="12.4368349"><ele>64.0</ele><time>2026-03-28T09:22:07.066Z</time></trkpt><trkpt lat="41.8938553" lon="12.436694"><ele>64.0</ele><time>2026-03-28T09:22:08.055Z</time></trkpt><trkpt lat="41.8937817" lon="12.4365667"><ele>64.0</ele><time>2026-03-28T09:22:09.069Z</time></trkpt><trkpt lat="41.8937086" lon="12.436415"><ele>64.0</ele><time>2026-03-28T09:22:10.06Z</time></trkpt><trkpt lat="41.8936422" lon="12.4362517"><ele>64.0</ele><time>2026-03-28T09:22:11.069Z</time></trkpt><trkpt lat="41.8935907" lon="12.4360642"><ele>66.33333333333333</ele><time>2026-03-28T09:22:12.06Z</time></trkpt><trkpt lat="41.8935449" lon="12.4358772"><ele>68.66666666666667</ele><time>2026-03-28T09:22:13.06Z</time></trkpt><trkpt lat="41.8935256" lon="12.4356395"><ele>71.0</ele><time>2026-03-28T09:22:14.058Z</time></trkpt><trkpt lat="41.8935304" lon="12.4354249"><ele>71.75</ele><time>2026-03-28T09:22:15.053Z</time></trkpt><trkpt lat="41.8935299" lon="12.4352455"><ele>72.5</ele><time>2026-03-28T09:22:16.064Z</time></trkpt><trkpt lat="41.8935172" lon="12.4350878"><ele>73.25</ele><time>2026-03-28T09:22:17.058Z</time></trkpt><trkpt lat="41.8935114" lon="12.4349284"><ele>74.0</ele><time>2026-03-28T09:22:18.058Z</time></trkpt><trkpt lat="41.8935192" lon="12.4347847"><ele>74.0</ele><time>2026-03-28T09:22:19.053Z</time></trkpt><trkpt lat="41.8935297" lon="12.4346693"><ele>74.0</ele><time>2026-03-28T09:22:20.055Z</time></trkpt><trkpt lat="41.893521" lon="12.434568"><ele>74.0</ele><time>2026-03-28T09:22:21.051Z</time></trkpt><trkpt lat="41.8935457" lon="12.4344733"><ele>74.0</ele><time>2026-03-28T09:22:22.061Z</time></trkpt><trkpt lat="41.8935735" lon="12.4343455"><ele>74.0</ele><time>2026-03-28T09:22:23.057Z</time></trkpt><trkpt lat="41.8936052" lon="12.4342344"><ele>74.0</ele><time>2026-03-28T09:22:24.062Z</time></trkpt><trkpt lat="41.8936479" lon="12.434164"><ele>74.16666666666667</ele><time>2026-03-28T09:22:25.061Z</time></trkpt><trkpt lat="41.8936729" lon="12.4340479"><ele>74.33333333333334</ele><time>2026-03-28T09:22:27.059Z</time></trkpt><trkpt lat="41.8936892" lon="12.433966"><ele>74.5</ele><time>2026-03-28T09:22:45.061Z</time></trkpt><trkpt lat="41.8937046" lon="12.4338619"><ele>74.66666666666667</ele><time>2026-03-28T09:22:47.056Z</time></trkpt><trkpt lat="41.8937414" lon="12.4337483"><ele>74.83333333333333</ele><time>2026-03-28T09:22:48.065Z</time></trkpt><trkpt lat="41.8937905" lon="12.4336021"><ele>75.0</ele><time>2026-03-28T09:22:49.054Z</time></trkpt><trkpt lat="41.8938392" lon="12.4334549"><ele>75.25</ele><time>2026-03-28T09:22:50.066Z</time></trkpt><trkpt lat="41.8938927" lon="12.433299"><ele>75.5</ele><time>2026-03-28T09:22:51.059Z</time></trkpt><trkpt lat="41.8939435" lon="12.4331283"><ele>75.75</ele><time>2026-03-28T09:22:52.059Z</time></trkpt><trkpt lat="41.8939949" lon="12.4329682"><ele>76.0</ele><time>2026-03-28T09:22:53.055Z</time></trkpt><trkpt lat="41.8940429" lon="12.4328107"><ele>77.75</ele><time>2026-03-28T09:22:54.07Z</time></trkpt><trkpt lat="41.8940892" lon="12.432647"><ele>79.5</ele><time>2026-03-28T09:22:55.061Z</time></trkpt><trkpt lat="41.8941336" lon="12.432495"><ele>81.25</ele><time>2026-03-28T09:22:56.058Z</time></trkpt><trkpt lat="41.8941648" lon="12.4323516"><ele>83.0</ele><time>2026-03-28T09:22:57.063Z</time></trkpt><trkpt lat="41.8941979" lon="12.4322049"><ele>83.25</ele><time>2026-03-28T09:22:58.056Z</time></trkpt><trkpt lat="41.8942411" lon="12.4320571"><ele>83.5</ele><time>2026-03-28T09:22:59.059Z</time></trkpt><trkpt lat="41.8942894" lon="12.4319014"><ele>83.75</ele><time>2026-03-28T09:23:00.054Z</time></trkpt><trkpt lat="41.8943429" lon="12.4317218"><ele>84.0</ele><time>2026-03-28T09:23:01.063Z</time></trkpt><trkpt lat="41.8943963" lon="12.4315517"><ele>84.5</ele><time>2026-03-28T09:23:02.053Z</time></trkpt><trkpt lat="41.8944366" lon="12.43138"><ele>85.0</ele><time>2026-03-28T09:23:03.058Z</time></trkpt><trkpt lat="41.8944716" lon="12.4312078"><ele>85.5</ele><time>2026-03-28T09:23:04.058Z</time></trkpt><trkpt lat="41.8945365" lon="12.4310501"><ele>86.0</ele><time>2026-03-28T09:23:05.058Z</time></trkpt><trkpt lat="41.8945923" lon="12.4309238"><ele>86.4</ele><time>2026-03-28T09:23:06.066Z</time></trkpt><trkpt lat="41.8946318" lon="12.4307804"><ele>86.8</ele><time>2026-03-28T09:23:07.063Z</time></trkpt><trkpt lat="41.8946757" lon="12.4306531"><ele>87.2</ele><time>2026-03-28T09:23:08.059Z</time></trkpt><trkpt lat="41.89471" lon="12.430526"><ele>87.60000000000001</ele><time>2026-03-28T09:23:09.063Z</time></trkpt><trkpt lat="41.8947493" lon="12.4304052"><ele>88.0</ele><time>2026-03-28T09:23:10.053Z</time></trkpt><trkpt lat="41.8947806" lon="12.4303109"><ele>88.5</ele><time>2026-03-28T09:23:11.058Z</time></trkpt><trkpt lat="41.8948" lon="12.4302203"><ele>89.0</ele><time>2026-03-28T09:23:12.058Z</time></trkpt><trkpt lat="41.8948396" lon="12.4300783"><ele>89.5</ele><time>2026-03-28T09:23:14.054Z</time></trkpt><trkpt lat="41.8948935" lon="12.4300263"><ele>90.0</ele><time>2026-03-28T09:23:16.058Z</time></trkpt><trkpt lat="41.8949517" lon="12.4299714"><ele>90.5</ele><time>2026-03-28T09:23:19.06Z</time></trkpt><trkpt lat="41.8950146" lon="12.4299369"><ele>91.0</ele><time>2026-03-28T09:23:20.061Z</time></trkpt><trkpt lat="41.8950843" lon="12.4298978"><ele>91.4</ele><time>2026-03-28T09:23:21.056Z</time></trkpt><trkpt lat="41.8951504" lon="12.429863"><ele>91.8</ele><time>2026-03-28T09:23:22.055Z</time></trkpt><trkpt lat="41.8952421" lon="12.4298085"><ele>92.2</ele><time>2026-03-28T09:23:24.061Z</time></trkpt><trkpt lat="41.8953214" lon="12.4297652"><ele>92.60000000000001</ele><time>2026-03-28T09:23:27.057Z</time></trkpt><trkpt lat="41.8953703" lon="12.4297059"><ele>93.0</ele><time>2026-03-28T09:23:29.056Z</time></trkpt><trkpt lat="41.895462" lon="12.4295578"><ele>92.0</ele><time>2026-03-28T09:23:31.052Z</time></trkpt><trkpt lat="41.8955043" lon="12.429494"><ele>91.0</ele><time>2026-03-28T09:23:32.056Z</time></trkpt><trkpt lat="41.8955464" lon="12.4294139"><ele>90.0</ele><time>2026-03-28T09:23:33.053Z</time></trkpt><trkpt lat="41.8956022" lon="12.4293217"><ele>89.0</ele><time>2026-03-28T09:23:34.055Z</time></trkpt><trkpt lat="41.8956623" lon="12.4292402"><ele>88.0</ele><time>2026-03-28T09:23:35.059Z</time></trkpt><trkpt lat="41.8957365" lon="12.4291812"><ele>87.0</ele><time>2026-03-28T09:23:36.053Z</time></trkpt><trkpt lat="41.89583" lon="12.4291334"><ele>89.0</ele><time>2026-03-28T09:23:37.057Z</time></trkpt><trkpt lat="41.8959362" lon="12.4291003"><ele>91.0</ele><time>2026-03-28T09:23:38.066Z</time></trkpt><trkpt lat="41.8960378" lon="12.4290571"><ele>93.0</ele><time>2026-03-28T09:23:39.057Z</time></trkpt><trkpt lat="41.8961548" lon="12.4290121"><ele>95.0</ele><time>2026-03-28T09:23:40.054Z</time></trkpt><trkpt lat="41.8962724" lon="12.4289564"><ele>95.0</ele><time>2026-03-28T09:23:41.052Z</time></trkpt><trkpt lat="41.8963716" lon="12.4288964"><ele>95.0</ele><time>2026-03-28T09:23:42.059Z</time></trkpt><trkpt lat="41.8964504" lon="12.4288512"><ele>95.0</ele><time>2026-03-28T09:23:43.057Z</time></trkpt><trkpt lat="41.896519" lon="12.4288135"><ele>95.0</ele><time>2026-03-28T09:23:44.056Z</time></trkpt><trkpt lat="41.8965898" lon="12.4287841"><ele>95.0</ele><time>2026-03-28T09:23:45.063Z</time></trkpt><trkpt lat="41.8966561" lon="12.4287355"><ele>95.0</ele><time>2026-03-28T09:23:48.053Z</time></trkpt><trkpt lat="41.8967469" lon="12.4286721"><ele>94.0</ele><time>2026-03-28T09:23:50.056Z</time></trkpt><trkpt lat="41.8968202" lon="12.4286272"><ele>93.0</ele><time>2026-03-28T09:23:51.061Z</time></trkpt><trkpt lat="41.8968902" lon="12.4285769"><ele>92.0</ele><time>2026-03-28T09:23:52.058Z</time></trkpt><trkpt lat="41.8969791" lon="12.4285373"><ele>91.0</ele><time>2026-03-28T09:23:53.067Z</time></trkpt><trkpt lat="41.8970752" lon="12.4284897"><ele>90.0</ele><time>2026-03-28T09:23:54.054Z</time></trkpt><trkpt lat="41.8971741" lon="12.4284461"><ele>90.0</ele><time>2026-03-28T09:23:55.06Z</time></trkpt><trkpt lat="41.8972723" lon="12.4284076"><ele>90.0</ele><time>2026-03-28T09:23:56.054Z</time></trkpt><trkpt lat="41.8973617" lon="12.4283652"><ele>90.0</ele><time>2026-03-28T09:23:57.054Z</time></trkpt><trkpt lat="41.8974466" lon="12.4283198"><ele>90.0</ele><time>2026-03-28T09:23:58.056Z</time></trkpt><trkpt lat="41.8975252" lon="12.4282736"><ele>90.0</ele><time>2026-03-28T09:23:59.061Z</time></trkpt><trkpt lat="41.8975991" lon="12.4282349"><ele>89.66666666666667</ele><time>2026-03-28T09:24:00.056Z</time></trkpt><trkpt lat="41.8976685" lon="12.4281962"><ele>89.33333333333333</ele><time>2026-03-28T09:24:01.05Z</time></trkpt><trkpt lat="41.8977286" lon="12.42817"><ele>89.0</ele><time>2026-03-28T09:24:02.053Z</time></trkpt><trkpt lat="41.8978293" lon="12.4281053"><ele>88.66666666666666</ele><time>2026-03-28T09:24:04.054Z</time></trkpt><trkpt lat="41.8978868" lon="12.4280649"><ele>88.33333333333333</ele><time>2026-03-28T09:24:05.053Z</time></trkpt><trkpt lat="41.897992" lon="12.4279987"><ele>88.0</ele><time>2026-03-28T09:24:07.056Z</time></trkpt><trkpt lat="41.8980582" lon="12.4279709"><ele>88.0</ele><time>2026-03-28T09:24:08.055Z</time></trkpt><trkpt lat="41.8981206" lon="12.4279541"><ele>88.0</ele><time>2026-03-28T09:24:09.054Z</time></trkpt><trkpt lat="41.8981844" lon="12.427943"><ele>88.0</ele><time>2026-03-28T09:24:10.053Z</time></trkpt><trkpt lat="41.8983064" lon="12.4278852"><ele>88.0</ele><time>2026-03-28T09:24:12.053Z</time></trkpt><trkpt lat="41.8983666" lon="12.4278563"><ele>88.0</ele><time>2026-03-28T09:24:13.056Z</time></trkpt><trkpt lat="41.8984687" lon="12.4278051"><ele>88.0</ele><time>2026-03-28T09:24:15.06Z</time></trkpt><trkpt lat="41.8985483" lon="12.4277702"><ele>88.0</ele><time>2026-03-28T09:24:17.06Z</time></trkpt><trkpt lat="41.898634" lon="12.4277039"><ele>88.0</ele><time>2026-03-28T09:24:19.059Z</time></trkpt><trkpt lat="41.8987035" lon="12.427645"><ele>88.0</ele><time>2026-03-28T09:24:20.054Z</time></trkpt><trkpt lat="41.8987844" lon="12.4275965"><ele>88.0</ele><time>2026-03-28T09:24:21.063Z</time></trkpt><trkpt lat="41.8988738" lon="12.4275597"><ele>88.0</ele><time>2026-03-28T09:24:22.059Z</time></trkpt><trkpt lat="41.8989729" lon="12.4275076"><ele>88.0</ele><time>2026-03-28T09:24:23.065Z</time></trkpt><trkpt lat="41.8990657" lon="12.4274541"><ele>88.0</ele><time>2026-03-28T09:24:24.061Z</time></trkpt><trkpt lat="41.8991629" lon="12.427388"><ele>88.0</ele><time>2026-03-28T09:24:25.057Z</time></trkpt><trkpt lat="41.8992858" lon="12.4273206"><ele>88.0</ele><time>2026-03-28T09:24:26.068Z</time></trkpt><trkpt lat="41.8994178" lon="12.4272373"><ele>89.25</ele><time>2026-03-28T09:24:27.057Z</time></trkpt><trkpt lat="41.8995412" lon="12.4271488"><ele>90.5</ele><time>2026-03-28T09:24:28.073Z</time></trkpt><trkpt lat="41.8996669" lon="12.427063"><ele>91.75</ele><time>2026-03-28T09:24:29.056Z</time></trkpt><trkpt lat="41.8998005" lon="12.4269665"><ele>93.0</ele><time>2026-03-28T09:24:30.061Z</time></trkpt><trkpt lat="41.8999319" lon="12.4268745"><ele>93.25</ele><time>2026-03-28T09:24:31.053Z</time></trkpt><trkpt lat="41.9000777" lon="12.4267941"><ele>93.5</ele><time>2026-03-28T09:24:32.064Z</time></trkpt><trkpt lat="41.9002147" lon="12.4267147"><ele>93.75</ele><time>2026-03-28T09:24:33.056Z</time></trkpt><trkpt lat="41.900349" lon="12.426653"><ele>94.0</ele><time>2026-03-28T09:24:34.055Z</time></trkpt><trkpt lat="41.9004867" lon="12.4265697"><ele>94.0</ele><time>2026-03-28T09:24:35.057Z</time></trkpt><trkpt lat="41.9006203" lon="12.4264945"><ele>94.0</ele><time>2026-03-28T09:24:36.054Z</time></trkpt><trkpt lat="41.9007563" lon="12.4264151"><ele>94.0</ele><time>2026-03-28T09:24:37.055Z</time></trkpt><trkpt lat="41.9008906" lon="12.4263353"><ele>94.0</ele><time>2026-03-28T09:24:38.058Z</time></trkpt><trkpt lat="41.9010237" lon="12.4262566"><ele>93.25</ele><time>2026-03-28T09:24:39.055Z</time></trkpt><trkpt lat="41.9011363" lon="12.426198"><ele>92.5</ele><time>2026-03-28T09:24:40.054Z</time></trkpt><trkpt lat="41.9012663" lon="12.4261247"><ele>91.75</ele><time>2026-03-28T09:24:41.056Z</time></trkpt><trkpt lat="41.9013903" lon="12.4260489"><ele>91.0</ele><time>2026-03-28T09:24:42.055Z</time></trkpt><trkpt lat="41.901516" lon="12.4259492"><ele>91.0</ele><time>2026-03-28T09:24:43.055Z</time></trkpt><trkpt lat="41.9016733" lon="12.4258675"><ele>91.0</ele><time>2026-03-28T09:24:44.055Z</time></trkpt><trkpt lat="41.9018132" lon="12.4257779"><ele>91.0</ele><time>2026-03-28T09:24:45.056Z</time></trkpt><trkpt lat="41.901925" lon="12.4256988"><ele>91.6</ele><time>2026-03-28T09:24:46.061Z</time></trkpt><trkpt lat="41.9020264" lon="12.4256044"><ele>92.19999999999999</ele><time>2026-03-28T09:24:47.057Z</time></trkpt><trkpt lat="41.9021025" lon="12.4255005"><ele>92.80000000000001</ele><time>2026-03-28T09:24:48.055Z</time></trkpt><trkpt lat="41.9021469" lon="12.4253736"><ele>93.4</ele><time>2026-03-28T09:24:49.064Z</time></trkpt><trkpt lat="41.9021703" lon="12.4252649"><ele>94.0</ele><time>2026-03-28T09:24:50.06Z</time></trkpt><trkpt lat="41.9022028" lon="12.4251248"><ele>94.0</ele><time>2026-03-28T09:24:52.052Z</time></trkpt><trkpt lat="41.9022532" lon="12.4249848"><ele>94.0</ele><time>2026-03-28T09:24:54.056Z</time></trkpt><trkpt lat="41.902319" lon="12.4248389"><ele>94.0</ele><time>2026-03-28T09:24:56.056Z</time></trkpt><trkpt lat="41.9023552" lon="12.4247616"><ele>94.0</ele><time>2026-03-28T09:24:57.063Z</time></trkpt><trkpt lat="41.9023866" lon="12.4246632"><ele>94.0</ele><time>2026-03-28T09:24:58.061Z</time></trkpt><trkpt lat="41.9024237" lon="12.4245694"><ele>93.66666666666666</ele><time>2026-03-28T09:24:59.057Z</time></trkpt><trkpt lat="41.9024615" lon="12.4244728"><ele>93.33333333333333</ele><time>2026-03-28T09:25:00.053Z</time></trkpt><trkpt lat="41.9024996" lon="12.4243722"><ele>93.0</ele><time>2026-03-28T09:25:01.06Z</time></trkpt><trkpt lat="41.902533" lon="12.4242849"><ele>92.66666666666667</ele><time>2026-03-28T09:25:02.072Z</time></trkpt><trkpt lat="41.9025668" lon="12.4242085"><ele>92.33333333333334</ele><time>2026-03-28T09:25:03.063Z</time></trkpt><trkpt lat="41.9025932" lon="12.424116"><ele>92.0</ele><time>2026-03-28T09:25:04.068Z</time></trkpt><trkpt lat="41.9026265" lon="12.4240135"><ele>91.8</ele><time>2026-03-28T09:25:05.051Z</time></trkpt><trkpt lat="41.9026665" lon="12.4239003"><ele>91.6</ele><time>2026-03-28T09:25:06.051Z</time></trkpt><trkpt lat="41.9027005" lon="12.4237991"><ele>91.39999999999999</ele><time>2026-03-28T09:25:07.049Z</time></trkpt><trkpt lat="41.9027271" lon="12.4237156"><ele>91.19999999999999</ele><time>2026-03-28T09:25:08.059Z</time></trkpt><trkpt lat="41.9027606" lon="12.4235757"><ele>91.0</ele><time>2026-03-28T09:25:10.055Z</time></trkpt><trkpt lat="41.9028025" lon="12.4234323"><ele>90.8</ele><time>2026-03-28T09:25:12.062Z</time></trkpt><trkpt lat="41.9028216" lon="12.4233096"><ele>90.6</ele><time>2026-03-28T09:25:14.06Z</time></trkpt><trkpt lat="41.902859" lon="12.423186"><ele>90.4</ele><time>2026-03-28T09:25:16.064Z</time></trkpt><trkpt lat="41.9029044" lon="12.4230336"><ele>90.2</ele><time>2026-03-28T09:25:18.075Z</time></trkpt><trkpt lat="41.9029334" lon="12.42294"><ele>90.0</ele><time>2026-03-28T09:25:19.06Z</time></trkpt><trkpt lat="41.9029514" lon="12.4228493"><ele>89.4</ele><time>2026-03-28T09:25:20.067Z</time></trkpt><trkpt lat="41.9029757" lon="12.422761"><ele>88.8</ele><time>2026-03-28T09:25:21.053Z</time></trkpt><trkpt lat="41.903003" lon="12.4226704"><ele>88.19999999999999</ele><time>2026-03-28T09:25:22.056Z</time></trkpt><trkpt lat="41.9030347" lon="12.4225338"><ele>87.6</ele><time>2026-03-28T09:25:24.073Z</time></trkpt><trkpt lat="41.9030654" lon="12.4223981"><ele>87.0</ele><time>2026-03-28T09:25:26.065Z</time></trkpt><trkpt lat="41.9030964" lon="12.4222467"><ele>87.0</ele><time>2026-03-28T09:25:28.058Z</time></trkpt><trkpt lat="41.9031282" lon="12.4221404"><ele>87.0</ele><time>2026-03-28T09:25:30.067Z</time></trkpt><trkpt lat="41.9031563" lon="12.4220492"><ele>87.0</ele><time>2026-03-28T09:25:46.06Z</time></trkpt><trkpt lat="41.9031776" lon="12.4219622"><ele>87.0</ele><time>2026-03-28T09:25:48.061Z</time></trkpt><trkpt lat="41.9032211" lon="12.4218164"><ele>87.0</ele><time>2026-03-28T09:25:51.061Z</time></trkpt><trkpt lat="41.9032591" lon="12.4217149"><ele>87.0</ele><time>2026-03-28T09:25:52.053Z</time></trkpt><trkpt lat="41.9033026" lon="12.4216164"><ele>87.0</ele><time>2026-03-28T09:25:53.064Z</time></trkpt><trkpt lat="41.9033344" lon="12.4215157"><ele>87.0</ele><time>2026-03-28T09:25:54.059Z</time></trkpt><trkpt lat="41.9033583" lon="12.4214038"><ele>87.0</ele><time>2026-03-28T09:25:55.065Z</time></trkpt><trkpt lat="41.9033883" lon="12.4212923"><ele>87.0</ele><time>2026-03-28T09:25:56.062Z</time></trkpt><trkpt lat="41.9034142" lon="12.4211856"><ele>87.0</ele><time>2026-03-28T09:25:57.058Z</time></trkpt><trkpt lat="41.903432" lon="12.421086"><ele>87.0</ele><time>2026-03-28T09:25:58.063Z</time></trkpt><trkpt lat="41.9034531" lon="12.4209901"><ele>88.0</ele><time>2026-03-28T09:25:59.057Z</time></trkpt><trkpt lat="41.9034812" lon="12.420849"><ele>89.0</ele><time>2026-03-28T09:26:01.056Z</time></trkpt><trkpt lat="41.903503" lon="12.4207074"><ele>90.0</ele><time>2026-03-28T09:26:03.058Z</time></trkpt><trkpt lat="41.903515" lon="12.4205264"><ele>91.0</ele><time>2026-03-28T09:26:05.06Z</time></trkpt><trkpt lat="41.9035192" lon="12.4204188"><ele>92.0</ele><time>2026-03-28T09:26:06.053Z</time></trkpt><trkpt lat="41.903525" lon="12.4203276"><ele>92.19999999999999</ele><time>2026-03-28T09:26:07.06Z</time></trkpt><trkpt lat="41.9035314" lon="12.420207"><ele>92.4</ele><time>2026-03-28T09:26:09.054Z</time></trkpt><trkpt lat="41.9035641" lon="12.420093"><ele>92.6</ele><time>2026-03-28T09:26:12.055Z</time></trkpt><trkpt lat="41.9035967" lon="12.4199619"><ele>92.80000000000001</ele><time>2026-03-28T09:26:14.069Z</time></trkpt><trkpt lat="41.903603" lon="12.4198629"><ele>93.0</ele><time>2026-03-28T09:26:15.061Z</time></trkpt><trkpt lat="41.9036338" lon="12.4197243"><ele>93.0</ele><time>2026-03-28T09:26:17.06Z</time></trkpt><trkpt lat="41.9036483" lon="12.419617"><ele>93.0</ele><time>2026-03-28T09:26:19.057Z</time></trkpt><trkpt lat="41.9036522" lon="12.4194646"><ele>93.0</ele><time>2026-03-28T09:26:21.053Z</time></trkpt><trkpt lat="41.9036559" lon="12.419376"><ele>93.0</ele><time>2026-03-28T09:26:22.062Z</time></trkpt><trkpt lat="41.9036633" lon="12.419236"><ele>93.0</ele><time>2026-03-28T09:26:24.066Z</time></trkpt><trkpt lat="41.9036752" lon="12.4191324"><ele>93.0</ele><time>2026-03-28T09:26:26.067Z</time></trkpt><trkpt lat="41.903657" lon="12.4190085"><ele>93.0</ele><time>2026-03-28T09:26:28.058Z</time></trkpt><trkpt lat="41.9036505" lon="12.41892"><ele>93.0</ele><time>2026-03-28T09:26:29.053Z</time></trkpt><trkpt lat="41.903654" lon="12.4188132"><ele>93.0</ele><time>2026-03-28T09:26:30.068Z</time></trkpt><trkpt lat="41.9036468" lon="12.4186764"><ele>93.0</ele><time>2026-03-28T09:26:31.057Z</time></trkpt><trkpt lat="41.9036288" lon="12.4185173"><ele>93.0</ele><time>2026-03-28T09:26:32.052Z</time></trkpt><trkpt lat="41.9036257" lon="12.4183861"><ele>92.5</ele><time>2026-03-28T09:26:33.049Z</time></trkpt><trkpt lat="41.9036167" lon="12.4182382"><ele>92.0</ele><time>2026-03-28T09:26:34.057Z</time></trkpt><trkpt lat="41.9036018" lon="12.4180787"><ele>91.5</ele><time>2026-03-28T09:26:35.063Z</time></trkpt><trkpt lat="41.9035899" lon="12.4179108"><ele>91.0</ele><time>2026-03-28T09:26:36.052Z</time></trkpt><trkpt lat="41.9035806" lon="12.4177389"><ele>91.0</ele><time>2026-03-28T09:26:37.064Z</time></trkpt><trkpt lat="41.9035685" lon="12.4175605"><ele>91.0</ele><time>2026-03-28T09:26:38.06Z</time></trkpt><trkpt lat="41.9035589" lon="12.4173861"><ele>91.0</ele><time>2026-03-28T09:26:39.06Z</time></trkpt><trkpt lat="41.90355" lon="12.4172347"><ele>91.0</ele><time>2026-03-28T09:26:40.055Z</time></trkpt><trkpt lat="41.903543" lon="12.4170777"><ele>91.0</ele><time>2026-03-28T09:26:41.058Z</time></trkpt><trkpt lat="41.9035375" lon="12.4169157"><ele>91.0</ele><time>2026-03-28T09:26:42.063Z</time></trkpt><trkpt lat="41.9035455" lon="12.4167464"><ele>91.0</ele><time>2026-03-28T09:26:43.057Z</time></trkpt><trkpt lat="41.9035533" lon="12.4165842"><ele>91.0</ele><time>2026-03-28T09:26:44.069Z</time></trkpt><trkpt lat="41.9035509" lon="12.4164424"><ele>90.6</ele><time>2026-03-28T09:26:45.059Z</time></trkpt><trkpt lat="41.9035431" lon="12.4163001"><ele>90.19999999999999</ele><time>2026-03-28T09:26:46.057Z</time></trkpt><trkpt lat="41.9035365" lon="12.4161613"><ele>89.80000000000001</ele><time>2026-03-28T09:26:47.06Z</time></trkpt><trkpt lat="41.9035299" lon="12.4160232"><ele>89.4</ele><time>2026-03-28T09:26:48.062Z</time></trkpt><trkpt lat="41.9035194" lon="12.4158805"><ele>89.0</ele><time>2026-03-28T09:26:49.056Z</time></trkpt><trkpt lat="41.9035115" lon="12.4157528"><ele>89.0</ele><time>2026-03-28T09:26:50.072Z</time></trkpt><trkpt lat="41.9035109" lon="12.415645"><ele>89.0</ele><time>2026-03-28T09:26:51.056Z</time></trkpt><trkpt lat="41.9035003" lon="12.4155407"><ele>89.0</ele><time>2026-03-28T09:26:52.066Z</time></trkpt><trkpt lat="41.9034889" lon="12.4154464"><ele>89.0</ele><time>2026-03-28T09:26:53.058Z</time></trkpt><trkpt lat="41.903476" lon="12.4152994"><ele>89.0</ele><time>2026-03-28T09:26:55.055Z</time></trkpt><trkpt lat="41.9034593" lon="12.4152"><ele>89.0</ele><time>2026-03-28T09:26:57.062Z</time></trkpt><trkpt lat="41.903388" lon="12.4151057"><ele>88.85714285714285</ele><time>2026-03-28T09:31:38.071Z</time></trkpt><trkpt lat="41.9033662" lon="12.4150253"><ele>88.71428571428571</ele><time>2026-03-28T09:31:39.061Z</time></trkpt><trkpt lat="41.903341" lon="12.4149334"><ele>88.57142857142857</ele><time>2026-03-28T09:31:40.062Z</time></trkpt><trkpt lat="41.9033023" lon="12.4148436"><ele>88.42857142857142</ele><time>2026-03-28T09:31:41.055Z</time></trkpt><trkpt lat="41.903274" lon="12.4147542"><ele>88.28571428571428</ele><time>2026-03-28T09:31:42.057Z</time></trkpt><trkpt lat="41.9032416" lon="12.4146649"><ele>88.14285714285714</ele><time>2026-03-28T09:31:43.05Z</time></trkpt><trkpt lat="41.9032177" lon="12.4145745"><ele>88.0</ele><time>2026-03-28T09:31:44.052Z</time></trkpt><trkpt lat="41.903189" lon="12.4144674"><ele>87.60000000000001</ele><time>2026-03-28T09:31:45.059Z</time></trkpt><trkpt lat="41.9031548" lon="12.4143479"><ele>87.2</ele><time>2026-03-28T09:31:46.055Z</time></trkpt><trkpt lat="41.9031268" lon="12.4142294"><ele>86.8</ele><time>2026-03-28T09:31:47.062Z</time></trkpt><trkpt lat="41.9030965" lon="12.4141096"><ele>86.4</ele><time>2026-03-28T09:31:48.061Z</time></trkpt><trkpt lat="41.9030645" lon="12.4139791"><ele>86.0</ele><time>2026-03-28T09:31:49.058Z</time></trkpt><trkpt lat="41.9030425" lon="12.4138386"><ele>85.19999999999999</ele><time>2026-03-28T09:31:50.052Z</time></trkpt><trkpt lat="41.9030308" lon="12.4136974"><ele>84.39999999999999</ele><time>2026-03-28T09:31:51.062Z</time></trkpt><trkpt lat="41.903019" lon="12.4135587"><ele>83.6</ele><time>2026-03-28T09:31:52.07Z</time></trkpt><trkpt lat="41.9030214" lon="12.4134338"><ele>82.8</ele><time>2026-03-28T09:31:53.053Z</time></trkpt><trkpt lat="41.903027" lon="12.4133038"><ele>82.0</ele><time>2026-03-28T09:31:54.054Z</time></trkpt><trkpt lat="41.903036" lon="12.4131728"><ele>82.0</ele><time>2026-03-28T09:31:55.053Z</time></trkpt><trkpt lat="41.9030403" lon="12.4130334"><ele>82.0</ele><time>2026-03-28T09:31:56.05Z</time></trkpt><trkpt lat="41.9030455" lon="12.4128941"><ele>82.0</ele><time>2026-03-28T09:31:57.054Z</time></trkpt><trkpt lat="41.9030565" lon="12.4127672"><ele>82.0</ele><time>2026-03-28T09:31:58.074Z</time></trkpt><trkpt lat="41.9030691" lon="12.4126418"><ele>82.0</ele><time>2026-03-28T09:31:59.054Z</time></trkpt><trkpt lat="41.9030824" lon="12.4125176"><ele>81.0</ele><time>2026-03-28T09:32:00.051Z</time></trkpt><trkpt lat="41.9030971" lon="12.4123962"><ele>80.0</ele><time>2026-03-28T09:32:01.053Z</time></trkpt><trkpt lat="41.9031173" lon="12.4122724"><ele>79.0</ele><time>2026-03-28T09:32:02.063Z</time></trkpt><trkpt lat="41.9031329" lon="12.4121413"><ele>78.0</ele><time>2026-03-28T09:32:03.065Z</time></trkpt><trkpt lat="41.9031501" lon="12.41201"><ele>77.0</ele><time>2026-03-28T09:32:04.059Z</time></trkpt><trkpt lat="41.903162" lon="12.411876"><ele>76.0</ele><time>2026-03-28T09:32:05.061Z</time></trkpt><trkpt lat="41.9031733" lon="12.4117508"><ele>75.0</ele><time>2026-03-28T09:32:06.054Z</time></trkpt><trkpt lat="41.9031919" lon="12.4116297"><ele>74.0</ele><time>2026-03-28T09:32:07.066Z</time></trkpt><trkpt lat="41.903218" lon="12.4115145"><ele>73.0</ele><time>2026-03-28T09:32:08.055Z</time></trkpt><trkpt lat="41.9032598" lon="12.4114204"><ele>72.0</ele><time>2026-03-28T09:32:09.055Z</time></trkpt><trkpt lat="41.903299" lon="12.4113213"><ele>71.0</ele><time>2026-03-28T09:32:10.062Z</time></trkpt><trkpt lat="41.9033444" lon="12.4112156"><ele>70.2</ele><time>2026-03-28T09:32:11.056Z</time></trkpt><trkpt lat="41.9033959" lon="12.4111012"><ele>69.39999999999999</ele><time>2026-03-28T09:32:12.064Z</time></trkpt><trkpt lat="41.9034584" lon="12.4109813"><ele>68.6</ele><time>2026-03-28T09:32:13.057Z</time></trkpt><trkpt lat="41.9035323" lon="12.4108828"><ele>67.8</ele><time>2026-03-28T09:32:14.054Z</time></trkpt><trkpt lat="41.9036248" lon="12.4107998"><ele>67.0</ele><time>2026-03-28T09:32:15.057Z</time></trkpt><trkpt lat="41.903735" lon="12.4107391"><ele>65.6</ele><time>2026-03-28T09:32:16.055Z</time></trkpt><trkpt lat="41.9038377" lon="12.4106821"><ele>64.2</ele><time>2026-03-28T09:32:17.053Z</time></trkpt><trkpt lat="41.9039329" lon="12.4106163"><ele>62.8</ele><time>2026-03-28T09:32:18.052Z</time></trkpt><trkpt lat="41.9040205" lon="12.4105601"><ele>61.4</ele><time>2026-03-28T09:32:19.055Z</time></trkpt><trkpt lat="41.9041026" lon="12.4105018"><ele>60.0</ele><time>2026-03-28T09:32:20.06Z</time></trkpt><trkpt lat="41.9041737" lon="12.4104531"><ele>60.333333333333336</ele><time>2026-03-28T09:32:21.055Z</time></trkpt><trkpt lat="41.9042339" lon="12.4103988"><ele>60.66666666666667</ele><time>2026-03-28T09:32:22.055Z</time></trkpt><trkpt lat="41.9042929" lon="12.4103051"><ele>61.0</ele><time>2026-03-28T09:32:24.057Z</time></trkpt><trkpt lat="41.9043305" lon="12.4102266"><ele>61.333333333333336</ele><time>2026-03-28T09:32:27.054Z</time></trkpt><trkpt lat="41.9043849" lon="12.4101367"><ele>61.66666666666667</ele><time>2026-03-28T09:32:58.05Z</time></trkpt><trkpt lat="41.9044325" lon="12.4100649"><ele>62.0</ele><time>2026-03-28T09:32:59.057Z</time></trkpt><trkpt lat="41.9045021" lon="12.4099324"><ele>62.0</ele><time>2026-03-28T09:33:00.056Z</time></trkpt><trkpt lat="41.9045873" lon="12.4097779"><ele>62.0</ele><time>2026-03-28T09:33:01.054Z</time></trkpt><trkpt lat="41.904687" lon="12.4096116"><ele>62.0</ele><time>2026-03-28T09:33:02.052Z</time></trkpt><trkpt lat="41.9048002" lon="12.4094218"><ele>63.0</ele><time>2026-03-28T09:33:03.058Z</time></trkpt><trkpt lat="41.9049339" lon="12.4092517"><ele>64.0</ele><time>2026-03-28T09:33:04.053Z</time></trkpt><trkpt lat="41.9050582" lon="12.4090927"><ele>65.0</ele><time>2026-03-28T09:33:05.055Z</time></trkpt><trkpt lat="41.9051608" lon="12.4089648"><ele>69.0</ele><time>2026-03-28T09:33:06.05Z</time></trkpt><trkpt lat="41.9052802" lon="12.4088239"><ele>73.0</ele><time>2026-03-28T09:33:07.049Z</time></trkpt><trkpt lat="41.9054278" lon="12.408747"><ele>77.0</ele><time>2026-03-28T09:33:08.054Z</time></trkpt><trkpt lat="41.9055891" lon="12.4087003"><ele>77.0</ele><time>2026-03-28T09:33:09.063Z</time></trkpt><trkpt lat="41.9057684" lon="12.4086863"><ele>77.0</ele><time>2026-03-28T09:33:10.054Z</time></trkpt><trkpt lat="41.9059189" lon="12.4086484"><ele>77.0</ele><time>2026-03-28T09:33:11.058Z</time></trkpt><trkpt lat="41.9060778" lon="12.4086138"><ele>77.75</ele><time>2026-03-28T09:33:12.055Z</time></trkpt><trkpt lat="41.9061988" lon="12.4085528"><ele>78.5</ele><time>2026-03-28T09:33:13.051Z</time></trkpt><trkpt lat="41.9062961" lon="12.4084797"><ele>79.25</ele><time>2026-03-28T09:33:14.059Z</time></trkpt><trkpt lat="41.9064149" lon="12.4084128"><ele>80.0</ele><time>2026-03-28T09:33:15.055Z</time></trkpt><trkpt lat="41.9065181" lon="12.4083492"><ele>80.0</ele><time>2026-03-28T09:33:16.055Z</time></trkpt><trkpt lat="41.9066334" lon="12.4083023"><ele>80.0</ele><time>2026-03-28T09:33:17.056Z</time></trkpt><trkpt lat="41.9067443" lon="12.4082477"><ele>80.0</ele><time>2026-03-28T09:33:18.068Z</time></trkpt><trkpt lat="41.9068485" lon="12.4081866"><ele>80.0</ele><time>2026-03-28T09:33:19.06Z</time></trkpt><trkpt lat="41.9069671" lon="12.4081116"><ele>79.75</ele><time>2026-03-28T09:33:20.06Z</time></trkpt><trkpt lat="41.9071008" lon="12.4080152"><ele>79.5</ele><time>2026-03-28T09:33:21.054Z</time></trkpt><trkpt lat="41.9072282" lon="12.4079253"><ele>79.25</ele><time>2026-03-28T09:33:22.048Z</time></trkpt><trkpt lat="41.9073538" lon="12.4078522"><ele>79.0</ele><time>2026-03-28T09:33:23.058Z</time></trkpt><trkpt lat="41.9074577" lon="12.4077502"><ele>80.33333333333333</ele><time>2026-03-28T09:33:24.053Z</time></trkpt><trkpt lat="41.907584" lon="12.4076504"><ele>81.66666666666667</ele><time>2026-03-28T09:33:25.058Z</time></trkpt><trkpt lat="41.9077261" lon="12.4075334"><ele>83.0</ele><time>2026-03-28T09:33:26.061Z</time></trkpt><trkpt lat="41.907859" lon="12.4074113"><ele>83.0</ele><time>2026-03-28T09:33:27.057Z</time></trkpt><trkpt lat="41.9079644" lon="12.4072988"><ele>83.0</ele><time>2026-03-28T09:33:28.053Z</time></trkpt><trkpt lat="41.9080655" lon="12.4071976"><ele>83.0</ele><time>2026-03-28T09:33:29.053Z</time></trkpt><trkpt lat="41.9081677" lon="12.4070748"><ele>83.0</ele><time>2026-03-28T09:33:30.051Z</time></trkpt><trkpt lat="41.9082721" lon="12.4069518"><ele>80.25</ele><time>2026-03-28T09:33:31.053Z</time></trkpt><trkpt lat="41.90837" lon="12.4068165"><ele>77.5</ele><time>2026-03-28T09:33:32.054Z</time></trkpt><trkpt lat="41.9084365" lon="12.4066805"><ele>74.75</ele><time>2026-03-28T09:33:33.052Z</time></trkpt><trkpt lat="41.9084959" lon="12.4065331"><ele>72.0</ele><time>2026-03-28T09:33:34.058Z</time></trkpt><trkpt lat="41.9085624" lon="12.4064024"><ele>70.0</ele><time>2026-03-28T09:33:35.053Z</time></trkpt><trkpt lat="41.9086284" lon="12.406274"><ele>68.0</ele><time>2026-03-28T09:33:36.06Z</time></trkpt><trkpt lat="41.9086738" lon="12.4061019"><ele>66.0</ele><time>2026-03-28T09:33:37.05Z</time></trkpt><trkpt lat="41.9087129" lon="12.4059123"><ele>64.0</ele><time>2026-03-28T09:33:38.069Z</time></trkpt><trkpt lat="41.9087246" lon="12.4056897"><ele>66.0</ele><time>2026-03-28T09:33:39.056Z</time></trkpt><trkpt lat="41.9087442" lon="12.4054879"><ele>68.0</ele><time>2026-03-28T09:33:40.059Z</time></trkpt><trkpt lat="41.9087412" lon="12.4052787"><ele>70.0</ele><time>2026-03-28T09:33:41.064Z</time></trkpt><trkpt lat="41.9087361" lon="12.4050625"><ele>70.0</ele><time>2026-03-28T09:33:42.058Z</time></trkpt><trkpt lat="41.908741" lon="12.4048429"><ele>70.0</ele><time>2026-03-28T09:33:43.067Z</time></trkpt><trkpt lat="41.9087493" lon="12.4046094"><ele>70.0</ele><time>2026-03-28T09:33:44.051Z</time></trkpt><trkpt lat="41.9087652" lon="12.404379"><ele>69.66666666666666</ele><time>2026-03-28T09:33:45.061Z</time></trkpt><trkpt lat="41.908797" lon="12.4041455"><ele>69.33333333333333</ele><time>2026-03-28T09:33:46.056Z</time></trkpt><trkpt lat="41.9088314" lon="12.4039007"><ele>69.0</ele><time>2026-03-28T09:33:47.059Z</time></trkpt><trkpt lat="41.908881" lon="12.4036388"><ele>69.0</ele><time>2026-03-28T09:33:48.055Z</time></trkpt><trkpt lat="41.9089191" lon="12.4034082"><ele>69.0</ele><time>2026-03-28T09:33:49.059Z</time></trkpt><trkpt lat="41.9089598" lon="12.40319"><ele>69.0</ele><time>2026-03-28T09:33:50.057Z</time></trkpt><trkpt lat="41.9090138" lon="12.4029764"><ele>68.66666666666667</ele><time>2026-03-28T09:33:51.056Z</time></trkpt><trkpt lat="41.909081" lon="12.4027469"><ele>68.33333333333334</ele><time>2026-03-28T09:33:52.054Z</time></trkpt><trkpt lat="41.9091358" lon="12.4025277"><ele>68.0</ele><time>2026-03-28T09:33:53.064Z</time></trkpt><trkpt lat="41.9092152" lon="12.4023133"><ele>71.66666666666667</ele><time>2026-03-28T09:33:54.062Z</time></trkpt><trkpt lat="41.9092849" lon="12.4020886"><ele>75.33333333333333</ele><time>2026-03-28T09:33:55.057Z</time></trkpt><trkpt lat="41.9093864" lon="12.4018822"><ele>79.0</ele><time>2026-03-28T09:33:56.058Z</time></trkpt><trkpt lat="41.9094855" lon="12.4017041"><ele>79.0</ele><time>2026-03-28T09:33:57.052Z</time></trkpt><trkpt lat="41.90957" lon="12.4015257"><ele>79.0</ele><time>2026-03-28T09:33:58.059Z</time></trkpt><trkpt lat="41.9096606" lon="12.4013517"><ele>79.0</ele><time>2026-03-28T09:33:59.059Z</time></trkpt><trkpt lat="41.9097364" lon="12.4011915"><ele>80.5</ele><time>2026-03-28T09:34:00.055Z</time></trkpt><trkpt lat="41.9097982" lon="12.4010231"><ele>82.0</ele><time>2026-03-28T09:34:01.051Z</time></trkpt><trkpt lat="41.9098631" lon="12.4008827"><ele>83.5</ele><time>2026-03-28T09:34:02.057Z</time></trkpt><trkpt lat="41.9099322" lon="12.4007498"><ele>85.0</ele><time>2026-03-28T09:34:03.06Z</time></trkpt><trkpt lat="41.9099935" lon="12.4006246"><ele>85.25</ele><time>2026-03-28T09:34:04.053Z</time></trkpt><trkpt lat="41.9100504" lon="12.4004866"><ele>85.5</ele><time>2026-03-28T09:34:05.053Z</time></trkpt><trkpt lat="41.910109" lon="12.4003569"><ele>85.75</ele><time>2026-03-28T09:34:06.052Z</time></trkpt><trkpt lat="41.9101683" lon="12.4002289"><ele>86.0</ele><time>2026-03-28T09:34:07.052Z</time></trkpt><trkpt lat="41.910229" lon="12.4001104"><ele>85.83333333333334</ele><time>2026-03-28T09:34:08.06Z</time></trkpt><trkpt lat="41.910299" lon="12.4000011"><ele>85.66666666666667</ele><time>2026-03-28T09:34:09.054Z</time></trkpt><trkpt lat="41.910355" lon="12.3999016"><ele>85.5</ele><time>2026-03-28T09:34:10.055Z</time></trkpt><trkpt lat="41.9104083" lon="12.3998156"><ele>85.33333333333333</ele><time>2026-03-28T09:34:11.058Z</time></trkpt><trkpt lat="41.9104653" lon="12.399732"><ele>85.16666666666666</ele><time>2026-03-28T09:34:12.07Z</time></trkpt><trkpt lat="41.910515" lon="12.3996647"><ele>85.0</ele><time>2026-03-28T09:34:13.058Z</time></trkpt><trkpt lat="41.9105665" lon="12.3996091"><ele>85.0</ele><time>2026-03-28T09:34:14.058Z</time></trkpt><trkpt lat="41.9106161" lon="12.3995556"><ele>85.0</ele><time>2026-03-28T09:34:15.054Z</time></trkpt><trkpt lat="41.9107085" lon="12.3995014"><ele>85.0</ele><time>2026-03-28T09:34:17.057Z</time></trkpt><trkpt lat="41.910764" lon="12.3994458"><ele>85.0</ele><time>2026-03-28T09:34:59.049Z</time></trkpt><trkpt lat="41.9108397" lon="12.3993531"><ele>85.0</ele><time>2026-03-28T09:35:01.06Z</time></trkpt><trkpt lat="41.9109006" lon="12.3992603"><ele>85.0</ele><time>2026-03-28T09:35:02.062Z</time></trkpt><trkpt lat="41.9109788" lon="12.3991007"><ele>85.5</ele><time>2026-03-28T09:35:03.052Z</time></trkpt><trkpt lat="41.9111059" lon="12.3988696"><ele>86.0</ele><time>2026-03-28T09:35:04.064Z</time></trkpt><trkpt lat="41.9112429" lon="12.3985633"><ele>85.5</ele><time>2026-03-28T09:35:05.052Z</time></trkpt><trkpt lat="41.9112766" lon="12.398342"><ele>85.0</ele><time>2026-03-28T09:35:06.059Z</time></trkpt><trkpt lat="41.9112893" lon="12.3981441"><ele>84.5</ele><time>2026-03-28T09:35:07.058Z</time></trkpt><trkpt lat="41.9113082" lon="12.3979744"><ele>84.0</ele><time>2026-03-28T09:35:08.063Z</time></trkpt><trkpt lat="41.9113219" lon="12.3977932"><ele>84.0</ele><time>2026-03-28T09:35:09.058Z</time></trkpt><trkpt lat="41.9113199" lon="12.3976102"><ele>84.0</ele><time>2026-03-28T09:35:10.056Z</time></trkpt><trkpt lat="41.9112891" lon="12.3974201"><ele>84.0</ele><time>2026-03-28T09:35:11.058Z</time></trkpt><trkpt lat="41.9112552" lon="12.3972186"><ele>84.0</ele><time>2026-03-28T09:35:12.056Z</time></trkpt><trkpt lat="41.9112264" lon="12.3970201"><ele>84.33333333333333</ele><time>2026-03-28T09:35:13.067Z</time></trkpt><trkpt lat="41.9111948" lon="12.3968272"><ele>84.66666666666666</ele><time>2026-03-28T09:35:14.051Z</time></trkpt><trkpt lat="41.9111348" lon="12.3966183"><ele>85.0</ele><time>2026-03-28T09:35:15.06Z</time></trkpt><trkpt lat="41.9110649" lon="12.3964111"><ele>84.0</ele><time>2026-03-28T09:35:16.055Z</time></trkpt><trkpt lat="41.9109912" lon="12.3961817"><ele>83.0</ele><time>2026-03-28T09:35:17.058Z</time></trkpt><trkpt lat="41.9109285" lon="12.3959301"><ele>82.0</ele><time>2026-03-28T09:35:18.062Z</time></trkpt><trkpt lat="41.9108519" lon="12.3956714"><ele>80.66666666666666</ele><time>2026-03-28T09:35:19.06Z</time></trkpt><trkpt lat="41.9108049" lon="12.3953859"><ele>79.33333333333333</ele><time>2026-03-28T09:35:20.053Z</time></trkpt><trkpt lat="41.9107703" lon="12.3950981"><ele>78.0</ele><time>2026-03-28T09:35:21.052Z</time></trkpt><trkpt lat="41.9107601" lon="12.3947971"><ele>75.66666666666667</ele><time>2026-03-28T09:35:22.055Z</time></trkpt><trkpt lat="41.9107584" lon="12.3945233"><ele>73.33333333333334</ele><time>2026-03-28T09:35:23.054Z</time></trkpt><trkpt lat="41.9107801" lon="12.394292"><ele>71.0</ele><time>2026-03-28T09:35:24.057Z</time></trkpt><trkpt lat="41.9107862" lon="12.3940994"><ele>71.0</ele><time>2026-03-28T09:35:25.065Z</time></trkpt><trkpt lat="41.9108091" lon="12.3939597"><ele>71.0</ele><time>2026-03-28T09:35:26.051Z</time></trkpt><trkpt lat="41.910794" lon="12.3938479"><ele>71.0</ele><time>2026-03-28T09:35:27.049Z</time></trkpt><trkpt lat="41.9107961" lon="12.3937399"><ele>71.0</ele><time>2026-03-28T09:35:29.06Z</time></trkpt><trkpt lat="41.9108345" lon="12.3936203"><ele>71.0</ele><time>2026-03-28T09:36:20.056Z</time></trkpt><trkpt lat="41.9108518" lon="12.3934359"><ele>70.75</ele><time>2026-03-28T09:36:22.065Z</time></trkpt><trkpt lat="41.9108753" lon="12.3932672"><ele>70.5</ele><time>2026-03-28T09:36:23.059Z</time></trkpt><trkpt lat="41.910897" lon="12.3930708"><ele>70.25</ele><time>2026-03-28T09:36:24.053Z</time></trkpt><trkpt lat="41.9109188" lon="12.3928763"><ele>70.0</ele><time>2026-03-28T09:36:25.049Z</time></trkpt><trkpt lat="41.9109822" lon="12.3927"><ele>72.33333333333333</ele><time>2026-03-28T09:36:26.056Z</time></trkpt><trkpt lat="41.9111101" lon="12.3925266"><ele>74.66666666666667</ele><time>2026-03-28T09:36:27.052Z</time></trkpt><trkpt lat="41.9112491" lon="12.3923911"><ele>77.0</ele><time>2026-03-28T09:36:28.058Z</time></trkpt><trkpt lat="41.9113803" lon="12.3922595"><ele>78.0</ele><time>2026-03-28T09:36:29.061Z</time></trkpt><trkpt lat="41.9115275" lon="12.3921242"><ele>79.0</ele><time>2026-03-28T09:36:30.054Z</time></trkpt><trkpt lat="41.9116721" lon="12.3920045"><ele>80.0</ele><time>2026-03-28T09:36:31.057Z</time></trkpt><trkpt lat="41.9118145" lon="12.3918806"><ele>81.0</ele><time>2026-03-28T09:36:32.048Z</time></trkpt><trkpt lat="41.9119374" lon="12.3917326"><ele>82.0</ele><time>2026-03-28T09:36:33.061Z</time></trkpt><trkpt lat="41.912084" lon="12.3915529"><ele>83.0</ele><time>2026-03-28T09:36:34.052Z</time></trkpt><trkpt lat="41.9122399" lon="12.3913509"><ele>82.33333333333334</ele><time>2026-03-28T09:36:35.054Z</time></trkpt><trkpt lat="41.9123943" lon="12.391173"><ele>81.66666666666667</ele><time>2026-03-28T09:36:36.062Z</time></trkpt><trkpt lat="41.9125362" lon="12.3909839"><ele>81.0</ele><time>2026-03-28T09:36:37.052Z</time></trkpt><trkpt lat="41.9126691" lon="12.3908043"><ele>80.33333333333333</ele><time>2026-03-28T09:36:38.055Z</time></trkpt><trkpt lat="41.9127996" lon="12.3906242"><ele>79.66666666666666</ele><time>2026-03-28T09:36:39.049Z</time></trkpt><trkpt lat="41.9129174" lon="12.390441"><ele>79.0</ele><time>2026-03-28T09:36:40.047Z</time></trkpt><trkpt lat="41.913051" lon="12.3902561"><ele>77.0</ele><time>2026-03-28T09:36:41.059Z</time></trkpt><trkpt lat="41.913176" lon="12.3900898"><ele>75.0</ele><time>2026-03-28T09:36:42.062Z</time></trkpt><trkpt lat="41.9133016" lon="12.389938"><ele>73.0</ele><time>2026-03-28T09:36:43.063Z</time></trkpt><trkpt lat="41.9134396" lon="12.3897767"><ele>68.33333333333333</ele><time>2026-03-28T09:36:44.053Z</time></trkpt><trkpt lat="41.9135814" lon="12.3896131"><ele>63.66666666666667</ele><time>2026-03-28T09:36:45.058Z</time></trkpt><trkpt lat="41.9136973" lon="12.3894379"><ele>59.0</ele><time>2026-03-28T09:36:46.056Z</time></trkpt><trkpt lat="41.9137922" lon="12.3892585"><ele>59.0</ele><time>2026-03-28T09:36:47.053Z</time></trkpt><trkpt lat="41.9138707" lon="12.3890585"><ele>59.0</ele><time>2026-03-28T09:36:48.06Z</time></trkpt><trkpt lat="41.9139362" lon="12.3888825"><ele>59.0</ele><time>2026-03-28T09:36:49.052Z</time></trkpt><trkpt lat="41.9139509" lon="12.3887215"><ele>59.0</ele><time>2026-03-28T09:36:50.053Z</time></trkpt><trkpt lat="41.9139643" lon="12.3885596"><ele>58.5</ele><time>2026-03-28T09:36:51.054Z</time></trkpt><trkpt lat="41.9139873" lon="12.3884077"><ele>58.0</ele><time>2026-03-28T09:36:52.052Z</time></trkpt><trkpt lat="41.9140211" lon="12.3882606"><ele>57.5</ele><time>2026-03-28T09:36:53.057Z</time></trkpt><trkpt lat="41.9140533" lon="12.3881106"><ele>57.0</ele><time>2026-03-28T09:36:54.06Z</time></trkpt><trkpt lat="41.9140894" lon="12.3879384"><ele>57.0</ele><time>2026-03-28T09:36:55.065Z</time></trkpt><trkpt lat="41.9141322" lon="12.3877728"><ele>57.0</ele><time>2026-03-28T09:36:56.06Z</time></trkpt><trkpt lat="41.9141746" lon="12.3876238"><ele>57.0</ele><time>2026-03-28T09:36:57.055Z</time></trkpt><trkpt lat="41.9142133" lon="12.3874683"><ele>57.0</ele><time>2026-03-28T09:36:58.073Z</time></trkpt><trkpt lat="41.9142421" lon="12.3873022"><ele>59.25</ele><time>2026-03-28T09:36:59.051Z</time></trkpt><trkpt lat="41.914275" lon="12.3871467"><ele>61.5</ele><time>2026-03-28T09:37:00.05Z</time></trkpt><trkpt lat="41.9143042" lon="12.3869938"><ele>63.75</ele><time>2026-03-28T09:37:01.058Z</time></trkpt><trkpt lat="41.9143303" lon="12.3868423"><ele>66.0</ele><time>2026-03-28T09:37:02.059Z</time></trkpt><trkpt lat="41.9143551" lon="12.3867016"><ele>66.0</ele><time>2026-03-28T09:37:03.052Z</time></trkpt><trkpt lat="41.9143751" lon="12.3865792"><ele>66.0</ele><time>2026-03-28T09:37:04.052Z</time></trkpt><trkpt lat="41.9143991" lon="12.3864735"><ele>66.0</ele><time>2026-03-28T09:37:05.068Z</time></trkpt><trkpt lat="41.9144144" lon="12.3863459"><ele>66.0</ele><time>2026-03-28T09:37:06.055Z</time></trkpt><trkpt lat="41.9144396" lon="12.3861988"><ele>66.0</ele><time>2026-03-28T09:37:07.054Z</time></trkpt><trkpt lat="41.9144874" lon="12.386036"><ele>65.5</ele><time>2026-03-28T09:37:08.057Z</time></trkpt><trkpt lat="41.9145333" lon="12.3858779"><ele>65.0</ele><time>2026-03-28T09:37:09.055Z</time></trkpt><trkpt lat="41.9145856" lon="12.3857302"><ele>64.5</ele><time>2026-03-28T09:37:10.052Z</time></trkpt><trkpt lat="41.9146415" lon="12.3855818"><ele>64.0</ele><time>2026-03-28T09:37:11.052Z</time></trkpt><trkpt lat="41.914691" lon="12.3854357"><ele>62.5</ele><time>2026-03-28T09:37:12.05Z</time></trkpt><trkpt lat="41.9147493" lon="12.3852878"><ele>61.0</ele><time>2026-03-28T09:37:13.057Z</time></trkpt><trkpt lat="41.9148229" lon="12.3851362"><ele>59.5</ele><time>2026-03-28T09:37:14.052Z</time></trkpt><trkpt lat="41.914888" lon="12.3849818"><ele>58.0</ele><time>2026-03-28T09:37:15.055Z</time></trkpt><trkpt lat="41.914954" lon="12.3848278"><ele>58.0</ele><time>2026-03-28T09:37:16.054Z</time></trkpt><trkpt lat="41.9150068" lon="12.3846802"><ele>58.0</ele><time>2026-03-28T09:37:17.057Z</time></trkpt><trkpt lat="41.9150562" lon="12.3845062"><ele>58.0</ele><time>2026-03-28T09:37:18.052Z</time></trkpt><trkpt lat="41.9150604" lon="12.3843454"><ele>58.0</ele><time>2026-03-28T09:37:19.051Z</time></trkpt><trkpt lat="41.915072" lon="12.3841987"><ele>57.666666666666664</ele><time>2026-03-28T09:37:20.049Z</time></trkpt><trkpt lat="41.9151021" lon="12.3840786"><ele>57.33333333333333</ele><time>2026-03-28T09:37:21.055Z</time></trkpt><trkpt lat="41.9151046" lon="12.3839663"><ele>57.0</ele><time>2026-03-28T09:37:22.054Z</time></trkpt><trkpt lat="41.9151171" lon="12.3838703"><ele>56.66666666666667</ele><time>2026-03-28T09:37:23.053Z</time></trkpt><trkpt lat="41.9151252" lon="12.3837827"><ele>56.333333333333336</ele><time>2026-03-28T09:37:24.049Z</time></trkpt><trkpt lat="41.9151438" lon="12.383691"><ele>56.0</ele><time>2026-03-28T09:37:25.055Z</time></trkpt><trkpt lat="41.9151618" lon="12.3836053"><ele>55.8</ele><time>2026-03-28T09:37:26.059Z</time></trkpt><trkpt lat="41.915178" lon="12.3835208"><ele>55.599999999999994</ele><time>2026-03-28T09:37:27.05Z</time></trkpt><trkpt lat="41.9151255" lon="12.3833936"><ele>55.4</ele><time>2026-03-28T09:37:29.055Z</time></trkpt><trkpt lat="41.9150157" lon="12.3833677"><ele>55.2</ele><time>2026-03-28T09:37:31.052Z</time></trkpt><trkpt lat="41.9149206" lon="12.3834043"><ele>55.0</ele><time>2026-03-28T09:37:33.047Z</time></trkpt><trkpt lat="41.9148664" lon="12.3834629"><ele>54.99999999999999</ele><time>2026-03-28T09:37:34.066Z</time></trkpt><trkpt lat="41.91481" lon="12.383523"><ele>55.0</ele><time>2026-03-28T09:37:35.056Z</time></trkpt><trkpt lat="41.9147572" lon="12.3835787"><ele>55.0</ele><time>2026-03-28T09:37:36.061Z</time></trkpt><trkpt lat="41.9146465" lon="12.3836627"><ele>55.0</ele><time>2026-03-28T09:37:38.049Z</time></trkpt><trkpt lat="41.9145802" lon="12.383711"><ele>54.99999999999999</ele><time>2026-03-28T09:37:39.051Z</time></trkpt><trkpt lat="41.9145123" lon="12.3837681"><ele>55.0</ele><time>2026-03-28T09:37:40.054Z</time></trkpt><trkpt lat="41.9144307" lon="12.3838333"><ele>54.75</ele><time>2026-03-28T09:37:41.053Z</time></trkpt><trkpt lat="41.914329" lon="12.3839135"><ele>54.5</ele><time>2026-03-28T09:37:42.055Z</time></trkpt><trkpt lat="41.914219" lon="12.3840235"><ele>54.25</ele><time>2026-03-28T09:37:43.058Z</time></trkpt><trkpt lat="41.9141275" lon="12.3841467"><ele>54.0</ele><time>2026-03-28T09:37:44.054Z</time></trkpt><trkpt lat="41.9140331" lon="12.3842594"><ele>54.400000000000006</ele><time>2026-03-28T09:37:45.056Z</time></trkpt><trkpt lat="41.9139419" lon="12.3843535"><ele>54.800000000000004</ele><time>2026-03-28T09:37:46.05Z</time></trkpt><trkpt lat="41.9138566" lon="12.3844382"><ele>55.199999999999996</ele><time>2026-03-28T09:37:47.055Z</time></trkpt><trkpt lat="41.9137689" lon="12.3845311"><ele>55.599999999999994</ele><time>2026-03-28T09:37:48.053Z</time></trkpt><trkpt lat="41.913687" lon="12.3846227"><ele>56.0</ele><time>2026-03-28T09:37:49.056Z</time></trkpt><trkpt lat="41.9136058" lon="12.3846974"><ele>56.0</ele><time>2026-03-28T09:37:50.053Z</time></trkpt><trkpt lat="41.9135206" lon="12.3847666"><ele>55.99999999999999</ele><time>2026-03-28T09:37:51.066Z</time></trkpt><trkpt lat="41.9134191" lon="12.3848165"><ele>55.99999999999999</ele><time>2026-03-28T09:37:52.056Z</time></trkpt><trkpt lat="41.9133008" lon="12.3848638"><ele>56.0</ele><time>2026-03-28T09:37:53.055Z</time></trkpt><trkpt lat="41.9131913" lon="12.3848994"><ele>56.0</ele><time>2026-03-28T09:37:54.054Z</time></trkpt><trkpt lat="41.9130891" lon="12.3849293"><ele>56.4</ele><time>2026-03-28T09:37:55.058Z</time></trkpt><trkpt lat="41.9129938" lon="12.3849584"><ele>56.8</ele><time>2026-03-28T09:37:56.053Z</time></trkpt><trkpt lat="41.9129208" lon="12.3849958"><ele>57.199999999999996</ele><time>2026-03-28T09:37:57.057Z</time></trkpt><trkpt lat="41.9128498" lon="12.3850549"><ele>57.599999999999994</ele><time>2026-03-28T09:37:58.054Z</time></trkpt><trkpt lat="41.9127877" lon="12.3851561"><ele>58.0</ele><time>2026-03-28T09:37:59.054Z</time></trkpt><trkpt lat="41.9127338" lon="12.3852708"><ele>58.0</ele><time>2026-03-28T09:38:00.054Z</time></trkpt><trkpt lat="41.9126842" lon="12.3853906"><ele>58.0</ele><time>2026-03-28T09:38:01.054Z</time></trkpt><trkpt lat="41.9126318" lon="12.3855018"><ele>58.0</ele><time>2026-03-28T09:38:02.053Z</time></trkpt><trkpt lat="41.9126068" lon="12.3856437"><ele>58.0</ele><time>2026-03-28T09:38:03.052Z</time></trkpt><trkpt lat="41.9125966" lon="12.3858047"><ele>58.0</ele><time>2026-03-28T09:38:04.055Z</time></trkpt><trkpt lat="41.9126478" lon="12.3859623"><ele>57.2</ele><time>2026-03-28T09:38:05.057Z</time></trkpt><trkpt lat="41.9126963" lon="12.3861189"><ele>56.4</ele><time>2026-03-28T09:38:06.05Z</time></trkpt><trkpt lat="41.9127287" lon="12.3862534"><ele>55.60000000000001</ele><time>2026-03-28T09:38:07.057Z</time></trkpt><trkpt lat="41.9127736" lon="12.3863714"><ele>54.800000000000004</ele><time>2026-03-28T09:38:08.053Z</time></trkpt><trkpt lat="41.9128231" lon="12.3864845"><ele>54.0</ele><time>2026-03-28T09:38:09.054Z</time></trkpt><trkpt lat="41.9128781" lon="12.3865896"><ele>53.6</ele><time>2026-03-28T09:38:10.051Z</time></trkpt><trkpt lat="41.9129261" lon="12.3866818"><ele>53.2</ele><time>2026-03-28T09:38:11.057Z</time></trkpt><trkpt lat="41.9129912" lon="12.3867635"><ele>52.800000000000004</ele><time>2026-03-28T09:38:12.053Z</time></trkpt><trkpt lat="41.913068" lon="12.3868374"><ele>52.400000000000006</ele><time>2026-03-28T09:38:13.054Z</time></trkpt><trkpt lat="41.9131539" lon="12.3869106"><ele>52.0</ele><time>2026-03-28T09:38:14.054Z</time></trkpt><trkpt lat="41.9132462" lon="12.3869958"><ele>52.0</ele><time>2026-03-28T09:38:15.057Z</time></trkpt><trkpt lat="41.9133434" lon="12.3870874"><ele>52.0</ele><time>2026-03-28T09:38:16.058Z</time></trkpt><trkpt lat="41.9134452" lon="12.3871884"><ele>52.0</ele><time>2026-03-28T09:38:17.05Z</time></trkpt><trkpt lat="41.9135545" lon="12.387289"><ele>52.0</ele><time>2026-03-28T09:38:18.057Z</time></trkpt><trkpt lat="41.9136463" lon="12.3873813"><ele>52.83333333333333</ele><time>2026-03-28T09:38:19.058Z</time></trkpt><trkpt lat="41.9137237" lon="12.3874539"><ele>53.666666666666664</ele><time>2026-03-28T09:38:20.05Z</time></trkpt><trkpt lat="41.9137922" lon="12.3875073"><ele>54.5</ele><time>2026-03-28T09:38:21.051Z</time></trkpt><trkpt lat="41.9138538" lon="12.387535"><ele>55.33333333333333</ele><time>2026-03-28T09:38:22.05Z</time></trkpt><trkpt lat="41.91397" lon="12.3875021"><ele>56.166666666666664</ele><time>2026-03-28T09:38:24.056Z</time></trkpt><trkpt lat="41.9140247" lon="12.3874536"><ele>57.0</ele><time>2026-03-28T09:38:25.054Z</time></trkpt><trkpt lat="41.9141163" lon="12.3873674"><ele>57.0</ele><time>2026-03-28T09:38:27.052Z</time></trkpt><trkpt lat="41.914184" lon="12.3872919"><ele>57.0</ele><time>2026-03-28T09:38:29.051Z</time></trkpt><trkpt lat="41.9142501" lon="12.3871612"><ele>57.0</ele><time>2026-03-28T09:38:31.062Z</time></trkpt><trkpt lat="41.9142756" lon="12.387071"><ele>57.0</ele><time>2026-03-28T09:38:32.063Z</time></trkpt><trkpt lat="41.9143034" lon="12.3869704"><ele>57.0</ele><time>2026-03-28T09:38:33.064Z</time></trkpt><trkpt lat="41.9143454" lon="12.3868626"><ele>57.0</ele><time>2026-03-28T09:38:34.05Z</time></trkpt><trkpt lat="41.9143722" lon="12.3867527"><ele>58.166666666666664</ele><time>2026-03-28T09:38:35.054Z</time></trkpt><trkpt lat="41.9143859" lon="12.3866503"><ele>59.33333333333333</ele><time>2026-03-28T09:38:36.048Z</time></trkpt><trkpt lat="41.9144036" lon="12.3865626"><ele>60.5</ele><time>2026-03-28T09:38:37.058Z</time></trkpt><trkpt lat="41.9144283" lon="12.3864558"><ele>61.666666666666664</ele><time>2026-03-28T09:38:38.068Z</time></trkpt><trkpt lat="41.9144554" lon="12.3863394"><ele>62.83333333333333</ele><time>2026-03-28T09:38:39.056Z</time></trkpt><trkpt lat="41.9144824" lon="12.3862266"><ele>64.0</ele><time>2026-03-28T09:38:40.054Z</time></trkpt><trkpt lat="41.9145047" lon="12.3861249"><ele>64.0</ele><time>2026-03-28T09:38:41.056Z</time></trkpt><trkpt lat="41.9145344" lon="12.3860358"><ele>64.0</ele><time>2026-03-28T09:38:42.053Z</time></trkpt><trkpt lat="41.9145754" lon="12.3858872"><ele>64.0</ele><time>2026-03-28T09:38:44.055Z</time></trkpt><trkpt lat="41.9146179" lon="12.3857213"><ele>64.0</ele><time>2026-03-28T09:38:46.052Z</time></trkpt><trkpt lat="41.9146429" lon="12.3855995"><ele>64.0</ele><time>2026-03-28T09:38:47.055Z</time></trkpt><trkpt lat="41.9146815" lon="12.3854631"><ele>62.800000000000004</ele><time>2026-03-28T09:38:48.053Z</time></trkpt><trkpt lat="41.9147303" lon="12.385336"><ele>61.60000000000001</ele><time>2026-03-28T09:38:49.05Z</time></trkpt><trkpt lat="41.9147765" lon="12.3852078"><ele>60.4</ele><time>2026-03-28T09:38:50.053Z</time></trkpt><trkpt lat="41.9148165" lon="12.3850804"><ele>59.2</ele><time>2026-03-28T09:38:51.055Z</time></trkpt><trkpt lat="41.9148519" lon="12.3849515"><ele>58.0</ele><time>2026-03-28T09:38:52.053Z</time></trkpt><trkpt lat="41.9148959" lon="12.3848199"><ele>57.5</ele><time>2026-03-28T09:38:53.05Z</time></trkpt><trkpt lat="41.9149279" lon="12.3846695"><ele>57.0</ele><time>2026-03-28T09:38:54.05Z</time></trkpt><trkpt lat="41.9149804" lon="12.384525"><ele>56.5</ele><time>2026-03-28T09:38:55.052Z</time></trkpt><trkpt lat="41.9150346" lon="12.3843725"><ele>56.0</ele><time>2026-03-28T09:38:56.049Z</time></trkpt><trkpt lat="41.9150741" lon="12.3842621"><ele>56.00000000000001</ele><time>2026-03-28T09:38:57.061Z</time></trkpt><trkpt lat="41.9151034" lon="12.3841463"><ele>56.0</ele><time>2026-03-28T09:38:58.055Z</time></trkpt><trkpt lat="41.9151242" lon="12.3840271"><ele>56.0</ele><time>2026-03-28T09:38:59.053Z</time></trkpt><trkpt lat="41.9151369" lon="12.383918"><ele>56.0</ele><time>2026-03-28T09:39:00.052Z</time></trkpt><trkpt lat="41.9151455" lon="12.3838123"><ele>56.00000000000001</ele><time>2026-03-28T09:39:01.057Z</time></trkpt><trkpt lat="41.915154" lon="12.383705"><ele>56.0</ele><time>2026-03-28T09:39:02.055Z</time></trkpt><trkpt lat="41.9151646" lon="12.3835776"><ele>55.8</ele><time>2026-03-28T09:39:03.05Z</time></trkpt><trkpt lat="41.9151739" lon="12.3834442"><ele>55.599999999999994</ele><time>2026-03-28T09:39:04.053Z</time></trkpt><trkpt lat="41.9151866" lon="12.3833127"><ele>55.4</ele><time>2026-03-28T09:39:05.052Z</time></trkpt><trkpt lat="41.9152092" lon="12.3831737"><ele>55.2</ele><time>2026-03-28T09:39:06.055Z</time></trkpt><trkpt lat="41.9152374" lon="12.3830366"><ele>55.0</ele><time>2026-03-28T09:39:07.055Z</time></trkpt><trkpt lat="41.9152652" lon="12.382886"><ele>55.4</ele><time>2026-03-28T09:39:08.051Z</time></trkpt><trkpt lat="41.9152992" lon="12.3827343"><ele>55.8</ele><time>2026-03-28T09:39:09.062Z</time></trkpt><trkpt lat="41.9153342" lon="12.3825838"><ele>56.2</ele><time>2026-03-28T09:39:10.053Z</time></trkpt><trkpt lat="41.9153563" lon="12.3824399"><ele>56.6</ele><time>2026-03-28T09:39:11.064Z</time></trkpt><trkpt lat="41.9153784" lon="12.3823024"><ele>57.0</ele><time>2026-03-28T09:39:12.066Z</time></trkpt><trkpt lat="41.9153977" lon="12.3821598"><ele>58.400000000000006</ele><time>2026-03-28T09:39:13.059Z</time></trkpt><trkpt lat="41.9154238" lon="12.3820134"><ele>59.800000000000004</ele><time>2026-03-28T09:39:14.056Z</time></trkpt><trkpt lat="41.9154467" lon="12.3818708"><ele>61.2</ele><time>2026-03-28T09:39:15.059Z</time></trkpt><trkpt lat="41.9154735" lon="12.3817287"><ele>62.6</ele><time>2026-03-28T09:39:16.053Z</time></trkpt><trkpt lat="41.9154975" lon="12.3815895"><ele>64.0</ele><time>2026-03-28T09:39:17.056Z</time></trkpt><trkpt lat="41.9155217" lon="12.3814559"><ele>65.2</ele><time>2026-03-28T09:39:18.053Z</time></trkpt><trkpt lat="41.9155419" lon="12.3813314"><ele>66.4</ele><time>2026-03-28T09:39:19.048Z</time></trkpt><trkpt lat="41.9155657" lon="12.3812026"><ele>67.6</ele><time>2026-03-28T09:39:20.05Z</time></trkpt><trkpt lat="41.9155937" lon="12.3810701"><ele>68.8</ele><time>2026-03-28T09:39:21.056Z</time></trkpt><trkpt lat="41.9156272" lon="12.3809353"><ele>70.0</ele><time>2026-03-28T09:39:22.051Z</time></trkpt><trkpt lat="41.9156502" lon="12.3808051"><ele>70.0</ele><time>2026-03-28T09:39:23.065Z</time></trkpt><trkpt lat="41.9156657" lon="12.3806741"><ele>70.0</ele><time>2026-03-28T09:39:24.062Z</time></trkpt><trkpt lat="41.9156902" lon="12.380538"><ele>70.0</ele><time>2026-03-28T09:39:25.057Z</time></trkpt><trkpt lat="41.9157206" lon="12.3803987"><ele>70.0</ele><time>2026-03-28T09:39:26.052Z</time></trkpt><trkpt lat="41.9157519" lon="12.3802381"><ele>70.0</ele><time>2026-03-28T09:39:27.053Z</time></trkpt><trkpt lat="41.9157854" lon="12.3800935"><ele>69.5</ele><time>2026-03-28T09:39:28.064Z</time></trkpt><trkpt lat="41.9158225" lon="12.3799657"><ele>69.0</ele><time>2026-03-28T09:39:29.055Z</time></trkpt><trkpt lat="41.9158516" lon="12.379866"><ele>68.5</ele><time>2026-03-28T09:39:30.055Z</time></trkpt><trkpt lat="41.9158966" lon="12.3797861"><ele>68.0</ele><time>2026-03-28T09:39:32.06Z</time></trkpt><trkpt lat="41.9159714" lon="12.3796692"><ele>67.5</ele><time>2026-03-28T09:39:35.068Z</time></trkpt><trkpt lat="41.9160286" lon="12.379607"><ele>67.0</ele><time>2026-03-28T09:39:36.056Z</time></trkpt><trkpt lat="41.9160723" lon="12.3795398"><ele>68.16666666666666</ele><time>2026-03-28T09:39:37.054Z</time></trkpt><trkpt lat="41.9161286" lon="12.3794687"><ele>69.33333333333333</ele><time>2026-03-28T09:39:38.051Z</time></trkpt><trkpt lat="41.9161884" lon="12.3794026"><ele>70.5</ele><time>2026-03-28T09:39:39.051Z</time></trkpt><trkpt lat="41.9162503" lon="12.3793353"><ele>71.66666666666667</ele><time>2026-03-28T09:39:40.052Z</time></trkpt><trkpt lat="41.9163182" lon="12.3792618"><ele>72.83333333333334</ele><time>2026-03-28T09:39:41.054Z</time></trkpt><trkpt lat="41.9163966" lon="12.3791815"><ele>74.0</ele><time>2026-03-28T09:39:42.05Z</time></trkpt><trkpt lat="41.9164796" lon="12.3791067"><ele>74.0</ele><time>2026-03-28T09:39:43.057Z</time></trkpt><trkpt lat="41.9165543" lon="12.379035"><ele>74.0</ele><time>2026-03-28T09:39:44.055Z</time></trkpt><trkpt lat="41.916637" lon="12.3789769"><ele>74.0</ele><time>2026-03-28T09:39:45.058Z</time></trkpt><trkpt lat="41.9167274" lon="12.378922"><ele>74.0</ele><time>2026-03-28T09:39:46.049Z</time></trkpt><trkpt lat="41.9168215" lon="12.3788701"><ele>74.0</ele><time>2026-03-28T09:39:47.051Z</time></trkpt><trkpt lat="41.9169228" lon="12.3788286"><ele>74.4</ele><time>2026-03-28T09:39:48.051Z</time></trkpt><trkpt lat="41.9170171" lon="12.3787924"><ele>74.80000000000001</ele><time>2026-03-28T09:39:49.054Z</time></trkpt><trkpt lat="41.9171205" lon="12.3787535"><ele>75.19999999999999</ele><time>2026-03-28T09:39:50.053Z</time></trkpt><trkpt lat="41.9172251" lon="12.3787022"><ele>75.6</ele><time>2026-03-28T09:39:51.058Z</time></trkpt><trkpt lat="41.9173198" lon="12.3786541"><ele>76.0</ele><time>2026-03-28T09:39:52.055Z</time></trkpt><trkpt lat="41.9174223" lon="12.3786175"><ele>76.0</ele><time>2026-03-28T09:39:53.059Z</time></trkpt><trkpt lat="41.9175136" lon="12.3785865"><ele>76.0</ele><time>2026-03-28T09:39:54.054Z</time></trkpt><trkpt lat="41.9175957" lon="12.3785479"><ele>76.0</ele><time>2026-03-28T09:39:55.058Z</time></trkpt><trkpt lat="41.917657" lon="12.3785071"><ele>76.0</ele><time>2026-03-28T09:39:56.051Z</time></trkpt><trkpt lat="41.917745" lon="12.3784309"><ele>76.0</ele><time>2026-03-28T09:39:58.06Z</time></trkpt><trkpt lat="41.9178263" lon="12.3783749"><ele>76.0</ele><time>2026-03-28T09:40:00.054Z</time></trkpt><trkpt lat="41.9178824" lon="12.378317"><ele>76.57142857142857</ele><time>2026-03-28T09:40:02.054Z</time></trkpt><trkpt lat="41.9179677" lon="12.3782555"><ele>77.14285714285715</ele><time>2026-03-28T09:40:04.052Z</time></trkpt><trkpt lat="41.9180251" lon="12.3782198"><ele>77.71428571428572</ele><time>2026-03-28T09:40:05.053Z</time></trkpt><trkpt lat="41.9180943" lon="12.3781998"><ele>78.28571428571428</ele><time>2026-03-28T09:40:06.054Z</time></trkpt><trkpt lat="41.9181593" lon="12.3781783"><ele>78.85714285714286</ele><time>2026-03-28T09:40:07.052Z</time></trkpt><trkpt lat="41.91823" lon="12.3781498"><ele>79.42857142857143</ele><time>2026-03-28T09:40:08.053Z</time></trkpt><trkpt lat="41.9183001" lon="12.3781194"><ele>80.0</ele><time>2026-03-28T09:40:09.05Z</time></trkpt><trkpt lat="41.9183629" lon="12.3780923"><ele>80.16666666666667</ele><time>2026-03-28T09:40:10.054Z</time></trkpt><trkpt lat="41.9184351" lon="12.3780448"><ele>80.33333333333334</ele><time>2026-03-28T09:40:12.051Z</time></trkpt><trkpt lat="41.9185069" lon="12.3779741"><ele>80.5</ele><time>2026-03-28T09:40:16.055Z</time></trkpt><trkpt lat="41.9185619" lon="12.3779183"><ele>80.66666666666667</ele><time>2026-03-28T09:40:18.065Z</time></trkpt><trkpt lat="41.9186234" lon="12.3778448"><ele>80.83333333333333</ele><time>2026-03-28T09:40:20.052Z</time></trkpt><trkpt lat="41.9186971" lon="12.3777627"><ele>81.0</ele><time>2026-03-28T09:40:22.055Z</time></trkpt><trkpt lat="41.9187865" lon="12.3776926"><ele>81.0</ele><time>2026-03-28T09:40:24.05Z</time></trkpt><trkpt lat="41.9188459" lon="12.3776635"><ele>81.0</ele><time>2026-03-28T09:40:25.056Z</time></trkpt><trkpt lat="41.9189498" lon="12.3776366"><ele>81.0</ele><time>2026-03-28T09:40:27.054Z</time></trkpt><trkpt lat="41.91907" lon="12.3776583"><ele>81.0</ele><time>2026-03-28T09:40:29.062Z</time></trkpt><trkpt lat="41.9191344" lon="12.3776605"><ele>81.0</ele><time>2026-03-28T09:40:30.053Z</time></trkpt><trkpt lat="41.9192493" lon="12.3776459"><ele>81.4</ele><time>2026-03-28T09:40:32.05Z</time></trkpt><trkpt lat="41.9193579" lon="12.3775834"><ele>81.8</ele><time>2026-03-28T09:40:34.055Z</time></trkpt><trkpt lat="41.9194386" lon="12.3774977"><ele>82.2</ele><time>2026-03-28T09:40:36.052Z</time></trkpt><trkpt lat="41.9195092" lon="12.3773561"><ele>82.60000000000001</ele><time>2026-03-28T09:40:38.051Z</time></trkpt><trkpt lat="41.9195432" lon="12.3772609"><ele>83.0</ele><time>2026-03-28T09:40:39.063Z</time></trkpt><trkpt lat="41.9195856" lon="12.3771683"><ele>83.0</ele><time>2026-03-28T09:40:40.05Z</time></trkpt><trkpt lat="41.9196404" lon="12.3770648"><ele>83.0</ele><time>2026-03-28T09:40:41.056Z</time></trkpt><trkpt lat="41.9197041" lon="12.376962"><ele>83.0</ele><time>2026-03-28T09:40:42.068Z</time></trkpt><trkpt lat="41.9197728" lon="12.3768492"><ele>83.0</ele><time>2026-03-28T09:40:43.053Z</time></trkpt><trkpt lat="41.9198693" lon="12.3767455"><ele>83.0</ele><time>2026-03-28T09:40:44.061Z</time></trkpt><trkpt lat="41.9199872" lon="12.3766587"><ele>82.33333333333334</ele><time>2026-03-28T09:40:45.05Z</time></trkpt><trkpt lat="41.9201123" lon="12.376578"><ele>81.66666666666667</ele><time>2026-03-28T09:40:46.065Z</time></trkpt><trkpt lat="41.9202534" lon="12.3764788"><ele>81.0</ele><time>2026-03-28T09:40:47.051Z</time></trkpt><trkpt lat="41.9203978" lon="12.3763841"><ele>80.75</ele><time>2026-03-28T09:40:48.059Z</time></trkpt><trkpt lat="41.9205418" lon="12.3763128"><ele>80.5</ele><time>2026-03-28T09:40:49.049Z</time></trkpt><trkpt lat="41.9206717" lon="12.376254"><ele>80.25</ele><time>2026-03-28T09:40:50.065Z</time></trkpt><trkpt lat="41.9207897" lon="12.3761821"><ele>80.0</ele><time>2026-03-28T09:40:51.051Z</time></trkpt><trkpt lat="41.9209254" lon="12.376103"><ele>80.0</ele><time>2026-03-28T09:40:52.054Z</time></trkpt><trkpt lat="41.9210536" lon="12.3760243"><ele>80.0</ele><time>2026-03-28T09:40:53.052Z</time></trkpt><trkpt lat="41.9211532" lon="12.3759533"><ele>80.0</ele><time>2026-03-28T09:40:54.056Z</time></trkpt><trkpt lat="41.9212532" lon="12.375881"><ele>80.0</ele><time>2026-03-28T09:40:55.055Z</time></trkpt><trkpt lat="41.9213314" lon="12.3758127"><ele>80.0</ele><time>2026-03-28T09:40:56.058Z</time></trkpt><trkpt lat="41.9214133" lon="12.3757451"><ele>80.0</ele><time>2026-03-28T09:40:57.046Z</time></trkpt><trkpt lat="41.9214775" lon="12.3756776"><ele>80.0</ele><time>2026-03-28T09:40:58.054Z</time></trkpt><trkpt lat="41.9215408" lon="12.375616"><ele>80.0</ele><time>2026-03-28T09:40:59.059Z</time></trkpt><trkpt lat="41.9216138" lon="12.375513"><ele>80.0</ele><time>2026-03-28T09:41:01.059Z</time></trkpt><trkpt lat="41.9216555" lon="12.3754345"><ele>80.0</ele><time>2026-03-28T09:41:03.055Z</time></trkpt><trkpt lat="41.9217288" lon="12.3753046"><ele>80.83333333333334</ele><time>2026-03-28T09:41:05.048Z</time></trkpt><trkpt lat="41.921764" lon="12.3752299"><ele>81.66666666666667</ele><time>2026-03-28T09:41:06.059Z</time></trkpt><trkpt lat="41.9218035" lon="12.3751577"><ele>82.5</ele><time>2026-03-28T09:41:07.056Z</time></trkpt><trkpt lat="41.9218413" lon="12.3750852"><ele>83.33333333333333</ele><time>2026-03-28T09:41:09.057Z</time></trkpt><trkpt lat="41.9218819" lon="12.3749783"><ele>84.16666666666666</ele><time>2026-03-28T09:41:12.067Z</time></trkpt><trkpt lat="41.9219414" lon="12.3748533"><ele>85.0</ele><time>2026-03-28T09:41:14.061Z</time></trkpt><trkpt lat="41.9219951" lon="12.3747264"><ele>85.2</ele><time>2026-03-28T09:41:16.05Z</time></trkpt><trkpt lat="41.922045" lon="12.3745889"><ele>85.4</ele><time>2026-03-28T09:41:18.065Z</time></trkpt><trkpt lat="41.9220753" lon="12.3745084"><ele>85.6</ele><time>2026-03-28T09:41:19.063Z</time></trkpt><trkpt lat="41.9221015" lon="12.3744267"><ele>85.8</ele><time>2026-03-28T09:41:20.054Z</time></trkpt><trkpt lat="41.9221488" lon="12.3742686"><ele>86.0</ele><time>2026-03-28T09:41:22.06Z</time></trkpt><trkpt lat="41.9221778" lon="12.3741699"><ele>86.0</ele><time>2026-03-28T09:41:23.065Z</time></trkpt><trkpt lat="41.9221993" lon="12.3740689"><ele>86.0</ele><time>2026-03-28T09:41:24.058Z</time></trkpt><trkpt lat="41.9222133" lon="12.373974"><ele>86.0</ele><time>2026-03-28T09:41:25.05Z</time></trkpt><trkpt lat="41.9222215" lon="12.3738765"><ele>86.0</ele><time>2026-03-28T09:41:26.057Z</time></trkpt><trkpt lat="41.9222288" lon="12.3737688"><ele>86.0</ele><time>2026-03-28T09:41:27.054Z</time></trkpt><trkpt lat="41.9222302" lon="12.3736453"><ele>86.0</ele><time>2026-03-28T09:41:28.053Z</time></trkpt><trkpt lat="41.9222288" lon="12.3735314"><ele>85.6</ele><time>2026-03-28T09:41:29.052Z</time></trkpt><trkpt lat="41.9222206" lon="12.3734263"><ele>85.19999999999999</ele><time>2026-03-28T09:41:30.049Z</time></trkpt><trkpt lat="41.9221972" lon="12.3733265"><ele>84.80000000000001</ele><time>2026-03-28T09:41:31.053Z</time></trkpt><trkpt lat="41.9221651" lon="12.373184"><ele>84.4</ele><time>2026-03-28T09:41:32.052Z</time></trkpt><trkpt lat="41.9221095" lon="12.3730185"><ele>84.0</ele><time>2026-03-28T09:41:33.053Z</time></trkpt><trkpt lat="41.9220269" lon="12.3728326"><ele>82.5</ele><time>2026-03-28T09:41:34.053Z</time></trkpt><trkpt lat="41.9219291" lon="12.3726679"><ele>81.0</ele><time>2026-03-28T09:41:35.057Z</time></trkpt><trkpt lat="41.9218517" lon="12.372509"><ele>79.5</ele><time>2026-03-28T09:41:36.05Z</time></trkpt><trkpt lat="41.9217947" lon="12.3723438"><ele>78.0</ele><time>2026-03-28T09:41:37.053Z</time></trkpt><trkpt lat="41.9217635" lon="12.3721851"><ele>76.75</ele><time>2026-03-28T09:41:38.057Z</time></trkpt><trkpt lat="41.9217715" lon="12.3720242"><ele>75.5</ele><time>2026-03-28T09:41:39.063Z</time></trkpt><trkpt lat="41.9218263" lon="12.3718853"><ele>74.25</ele><time>2026-03-28T09:41:40.057Z</time></trkpt><trkpt lat="41.9219108" lon="12.3717545"><ele>73.0</ele><time>2026-03-28T09:41:41.055Z</time></trkpt><trkpt lat="41.9219842" lon="12.3716216"><ele>73.0</ele><time>2026-03-28T09:41:42.058Z</time></trkpt><trkpt lat="41.9220484" lon="12.3715"><ele>73.0</ele><time>2026-03-28T09:41:43.054Z</time></trkpt><trkpt lat="41.9221031" lon="12.3713918"><ele>73.0</ele><time>2026-03-28T09:41:44.058Z</time></trkpt><trkpt lat="41.9221538" lon="12.3712827"><ele>73.0</ele><time>2026-03-28T09:41:45.053Z</time></trkpt><trkpt lat="41.9222156" lon="12.3711653"><ele>73.0</ele><time>2026-03-28T09:41:46.059Z</time></trkpt><trkpt lat="41.9222815" lon="12.371031"><ele>72.6</ele><time>2026-03-28T09:41:47.053Z</time></trkpt><trkpt lat="41.9223233" lon="12.3709021"><ele>72.19999999999999</ele><time>2026-03-28T09:41:48.058Z</time></trkpt><trkpt lat="41.9223668" lon="12.370767"><ele>71.8</ele><time>2026-03-28T09:41:49.059Z</time></trkpt><trkpt lat="41.922399" lon="12.3706189"><ele>71.39999999999999</ele><time>2026-03-28T09:41:50.053Z</time></trkpt><trkpt lat="41.9224268" lon="12.3704614"><ele>71.0</ele><time>2026-03-28T09:41:51.05Z</time></trkpt><trkpt lat="41.9224424" lon="12.3702748"><ele>71.0</ele><time>2026-03-28T09:41:52.055Z</time></trkpt><trkpt lat="41.922477" lon="12.3700857"><ele>71.0</ele><time>2026-03-28T09:41:53.052Z</time></trkpt><trkpt lat="41.9225079" lon="12.3699024"><ele>71.0</ele><time>2026-03-28T09:41:54.057Z</time></trkpt><trkpt lat="41.9225346" lon="12.3697405"><ele>71.0</ele><time>2026-03-28T09:41:55.056Z</time></trkpt><trkpt lat="41.9225799" lon="12.3695671"><ele>70.0</ele><time>2026-03-28T09:41:56.062Z</time></trkpt><trkpt lat="41.9226431" lon="12.3693987"><ele>69.0</ele><time>2026-03-28T09:41:57.059Z</time></trkpt><trkpt lat="41.9227009" lon="12.3692416"><ele>68.0</ele><time>2026-03-28T09:41:58.067Z</time></trkpt><trkpt lat="41.9227492" lon="12.3690908"><ele>67.0</ele><time>2026-03-28T09:41:59.053Z</time></trkpt><trkpt lat="41.9228004" lon="12.3689568"><ele>66.0</ele><time>2026-03-28T09:42:00.05Z</time></trkpt><trkpt lat="41.9228505" lon="12.3688381"><ele>65.0</ele><time>2026-03-28T09:42:01.048Z</time></trkpt><trkpt lat="41.9228679" lon="12.3687222"><ele>64.0</ele><time>2026-03-28T09:42:02.052Z</time></trkpt><trkpt lat="41.9229156" lon="12.3685687"><ele>63.0</ele><time>2026-03-28T09:42:04.058Z</time></trkpt><trkpt lat="41.9229694" lon="12.3684414"><ele>62.0</ele><time>2026-03-28T09:42:06.06Z</time></trkpt><trkpt lat="41.9229953" lon="12.3683619"><ele>62.00000000000001</ele><time>2026-03-28T09:42:07.051Z</time></trkpt><trkpt lat="41.9230361" lon="12.368261"><ele>62.0</ele><time>2026-03-28T09:42:08.059Z</time></trkpt><trkpt lat="41.9230855" lon="12.3681574"><ele>62.0</ele><time>2026-03-28T09:42:09.052Z</time></trkpt><trkpt lat="41.9231252" lon="12.3680722"><ele>62.0</ele><time>2026-03-28T09:42:10.065Z</time></trkpt><trkpt lat="41.9231706" lon="12.367969"><ele>62.00000000000001</ele><time>2026-03-28T09:42:11.054Z</time></trkpt><trkpt lat="41.9232192" lon="12.3678695"><ele>62.0</ele><time>2026-03-28T09:42:12.057Z</time></trkpt><trkpt lat="41.9232782" lon="12.367746"><ele>62.75</ele><time>2026-03-28T09:42:13.052Z</time></trkpt><trkpt lat="41.9233532" lon="12.367607"><ele>63.5</ele><time>2026-03-28T09:42:14.061Z</time></trkpt><trkpt lat="41.923433" lon="12.3674653"><ele>64.25</ele><time>2026-03-28T09:42:15.056Z</time></trkpt><trkpt lat="41.9235205" lon="12.3673298"><ele>65.0</ele><time>2026-03-28T09:42:16.055Z</time></trkpt><trkpt lat="41.9236031" lon="12.3672215"><ele>65.4</ele><time>2026-03-28T09:42:17.059Z</time></trkpt><trkpt lat="41.9236779" lon="12.3671294"><ele>65.8</ele><time>2026-03-28T09:42:18.068Z</time></trkpt><trkpt lat="41.9237543" lon="12.3670453"><ele>66.2</ele><time>2026-03-28T09:42:19.053Z</time></trkpt><trkpt lat="41.9238279" lon="12.3669704"><ele>66.6</ele><time>2026-03-28T09:42:20.055Z</time></trkpt><trkpt lat="41.9239019" lon="12.3668861"><ele>67.0</ele><time>2026-03-28T09:42:21.052Z</time></trkpt><trkpt lat="41.9239756" lon="12.3667951"><ele>67.0</ele><time>2026-03-28T09:42:22.053Z</time></trkpt><trkpt lat="41.9240518" lon="12.3666846"><ele>67.0</ele><time>2026-03-28T09:42:23.049Z</time></trkpt><trkpt lat="41.9241265" lon="12.3665634"><ele>67.0</ele><time>2026-03-28T09:42:24.063Z</time></trkpt><trkpt lat="41.9241984" lon="12.366429"><ele>67.0</ele><time>2026-03-28T09:42:25.058Z</time></trkpt><trkpt lat="41.924266" lon="12.3662903"><ele>68.8</ele><time>2026-03-28T09:42:26.054Z</time></trkpt><trkpt lat="41.9243233" lon="12.3661683"><ele>70.6</ele><time>2026-03-28T09:42:27.05Z</time></trkpt><trkpt lat="41.9243688" lon="12.366042"><ele>72.39999999999999</ele><time>2026-03-28T09:42:28.055Z</time></trkpt><trkpt lat="41.9243977" lon="12.3659128"><ele>74.2</ele><time>2026-03-28T09:42:29.053Z</time></trkpt><trkpt lat="41.9244184" lon="12.3657812"><ele>76.0</ele><time>2026-03-28T09:42:30.06Z</time></trkpt><trkpt lat="41.9244363" lon="12.3656471"><ele>75.0</ele><time>2026-03-28T09:42:31.049Z</time></trkpt><trkpt lat="41.9244504" lon="12.3655096"><ele>74.0</ele><time>2026-03-28T09:42:32.056Z</time></trkpt><trkpt lat="41.924453" lon="12.3653773"><ele>73.0</ele><time>2026-03-28T09:42:33.058Z</time></trkpt><trkpt lat="41.9244447" lon="12.3652569"><ele>72.0</ele><time>2026-03-28T09:42:34.059Z</time></trkpt><trkpt lat="41.9244376" lon="12.3651331"><ele>71.0</ele><time>2026-03-28T09:42:35.057Z</time></trkpt><trkpt lat="41.9244448" lon="12.3650104"><ele>71.0</ele><time>2026-03-28T09:42:36.061Z</time></trkpt><trkpt lat="41.9244777" lon="12.364891"><ele>71.0</ele><time>2026-03-28T09:42:37.055Z</time></trkpt><trkpt lat="41.9245405" lon="12.3647841"><ele>71.0</ele><time>2026-03-28T09:42:38.051Z</time></trkpt><trkpt lat="41.9246284" lon="12.3646786"><ele>71.0</ele><time>2026-03-28T09:42:39.055Z</time></trkpt><trkpt lat="41.9247208" lon="12.3645913"><ele>71.0</ele><time>2026-03-28T09:42:40.048Z</time></trkpt><trkpt lat="41.9248073" lon="12.3644925"><ele>69.8</ele><time>2026-03-28T09:42:41.053Z</time></trkpt><trkpt lat="41.9248778" lon="12.3643964"><ele>68.6</ele><time>2026-03-28T09:42:42.059Z</time></trkpt><trkpt lat="41.924948" lon="12.3643044"><ele>67.4</ele><time>2026-03-28T09:42:43.056Z</time></trkpt><trkpt lat="41.9250237" lon="12.3642032"><ele>66.2</ele><time>2026-03-28T09:42:44.057Z</time></trkpt><trkpt lat="41.92509" lon="12.3640872"><ele>65.0</ele><time>2026-03-28T09:42:45.056Z</time></trkpt><trkpt lat="41.9251553" lon="12.3639556"><ele>62.5</ele><time>2026-03-28T09:42:46.051Z</time></trkpt><trkpt lat="41.9251946" lon="12.3638162"><ele>60.0</ele><time>2026-03-28T09:42:47.054Z</time></trkpt><trkpt lat="41.9252345" lon="12.3636624"><ele>57.5</ele><time>2026-03-28T09:42:48.075Z</time></trkpt><trkpt lat="41.9252678" lon="12.363514"><ele>55.0</ele><time>2026-03-28T09:42:49.057Z</time></trkpt><trkpt lat="41.9252865" lon="12.3633662"><ele>55.0</ele><time>2026-03-28T09:42:50.062Z</time></trkpt><trkpt lat="41.9252933" lon="12.3632273"><ele>55.0</ele><time>2026-03-28T09:42:51.054Z</time></trkpt><trkpt lat="41.9253011" lon="12.3631014"><ele>55.0</ele><time>2026-03-28T09:42:52.063Z</time></trkpt><trkpt lat="41.9253182" lon="12.3629955"><ele>55.0</ele><time>2026-03-28T09:42:53.064Z</time></trkpt><trkpt lat="41.9253341" lon="12.3628419"><ele>55.0</ele><time>2026-03-28T09:42:55.055Z</time></trkpt><trkpt lat="41.9253539" lon="12.3627301"><ele>55.0</ele><time>2026-03-28T09:42:56.053Z</time></trkpt><trkpt lat="41.9253845" lon="12.3626041"><ele>55.0</ele><time>2026-03-28T09:42:57.067Z</time></trkpt><trkpt lat="41.9254157" lon="12.3624541"><ele>55.0</ele><time>2026-03-28T09:42:58.048Z</time></trkpt><trkpt lat="41.9254515" lon="12.3622943"><ele>55.0</ele><time>2026-03-28T09:42:59.055Z</time></trkpt><trkpt lat="41.9254973" lon="12.3621325"><ele>55.0</ele><time>2026-03-28T09:43:00.05Z</time></trkpt><trkpt lat="41.9255421" lon="12.3619787"><ele>55.0</ele><time>2026-03-28T09:43:01.056Z</time></trkpt><trkpt lat="41.9255832" lon="12.3618438"><ele>55.0</ele><time>2026-03-28T09:43:02.05Z</time></trkpt><trkpt lat="41.9256271" lon="12.3616982"><ele>55.0</ele><time>2026-03-28T09:43:03.053Z</time></trkpt><trkpt lat="41.9256769" lon="12.3615419"><ele>55.0</ele><time>2026-03-28T09:43:04.049Z</time></trkpt><trkpt lat="41.9257223" lon="12.3613847"><ele>55.0</ele><time>2026-03-28T09:43:05.063Z</time></trkpt><trkpt lat="41.9257565" lon="12.3612323"><ele>55.0</ele><time>2026-03-28T09:43:06.051Z</time></trkpt><trkpt lat="41.9257887" lon="12.3610837"><ele>55.0</ele><time>2026-03-28T09:43:07.058Z</time></trkpt><trkpt lat="41.9258151" lon="12.3609377"><ele>55.4</ele><time>2026-03-28T09:43:08.051Z</time></trkpt><trkpt lat="41.925838" lon="12.3607972"><ele>55.8</ele><time>2026-03-28T09:43:09.065Z</time></trkpt><trkpt lat="41.9258732" lon="12.3606523"><ele>56.2</ele><time>2026-03-28T09:43:10.058Z</time></trkpt><trkpt lat="41.9259112" lon="12.3605185"><ele>56.6</ele><time>2026-03-28T09:43:11.058Z</time></trkpt><trkpt lat="41.9259487" lon="12.3604087"><ele>57.0</ele><time>2026-03-28T09:43:12.061Z</time></trkpt><trkpt lat="41.9259772" lon="12.3603028"><ele>57.6</ele><time>2026-03-28T09:43:13.049Z</time></trkpt><trkpt lat="41.9260191" lon="12.3601941"><ele>58.2</ele><time>2026-03-28T09:43:14.049Z</time></trkpt><trkpt lat="41.926068" lon="12.3600771"><ele>58.8</ele><time>2026-03-28T09:43:15.056Z</time></trkpt><trkpt lat="41.9261194" lon="12.3599494"><ele>59.4</ele><time>2026-03-28T09:43:16.056Z</time></trkpt><trkpt lat="41.9261743" lon="12.359818"><ele>60.0</ele><time>2026-03-28T09:43:17.063Z</time></trkpt><trkpt lat="41.9262381" lon="12.3596993"><ele>60.0</ele><time>2026-03-28T09:43:18.059Z</time></trkpt><trkpt lat="41.9263221" lon="12.3595904"><ele>60.0</ele><time>2026-03-28T09:43:19.055Z</time></trkpt><trkpt lat="41.9264111" lon="12.3595024"><ele>60.0</ele><time>2026-03-28T09:43:20.049Z</time></trkpt><trkpt lat="41.9264967" lon="12.3594202"><ele>60.0</ele><time>2026-03-28T09:43:21.063Z</time></trkpt><trkpt lat="41.9265905" lon="12.3593436"><ele>60.0</ele><time>2026-03-28T09:43:22.054Z</time></trkpt><trkpt lat="41.9266848" lon="12.3592669"><ele>61.0</ele><time>2026-03-28T09:43:23.054Z</time></trkpt><trkpt lat="41.9267822" lon="12.3591907"><ele>62.0</ele><time>2026-03-28T09:43:24.061Z</time></trkpt><trkpt lat="41.9268616" lon="12.3591275"><ele>63.0</ele><time>2026-03-28T09:43:25.05Z</time></trkpt><trkpt lat="41.9269333" lon="12.3590628"><ele>64.0</ele><time>2026-03-28T09:43:26.055Z</time></trkpt><trkpt lat="41.9270034" lon="12.3590037"><ele>65.0</ele><time>2026-03-28T09:43:27.052Z</time></trkpt><trkpt lat="41.9270669" lon="12.3589387"><ele>65.0</ele><time>2026-03-28T09:43:28.058Z</time></trkpt><trkpt lat="41.9271328" lon="12.3588877"><ele>65.0</ele><time>2026-03-28T09:43:29.06Z</time></trkpt><trkpt lat="41.9272024" lon="12.3588476"><ele>65.0</ele><time>2026-03-28T09:43:30.064Z</time></trkpt><trkpt lat="41.9272755" lon="12.3588325"><ele>65.0</ele><time>2026-03-28T09:43:31.05Z</time></trkpt><trkpt lat="41.9273605" lon="12.3588301"><ele>65.0</ele><time>2026-03-28T09:43:32.062Z</time></trkpt><trkpt lat="41.9274665" lon="12.3588296"><ele>65.0</ele><time>2026-03-28T09:43:33.05Z</time></trkpt><trkpt lat="41.9275842" lon="12.3588191"><ele>63.5</ele><time>2026-03-28T09:43:34.062Z</time></trkpt><trkpt lat="41.927699" lon="12.3587759"><ele>62.0</ele><time>2026-03-28T09:43:35.054Z</time></trkpt><trkpt lat="41.9277924" lon="12.3586873"><ele>60.5</ele><time>2026-03-28T09:43:36.053Z</time></trkpt><trkpt lat="41.9278711" lon="12.3585609"><ele>59.0</ele><time>2026-03-28T09:43:37.053Z</time></trkpt><trkpt lat="41.927927" lon="12.358399"><ele>59.0</ele><time>2026-03-28T09:43:38.074Z</time></trkpt><trkpt lat="41.9279846" lon="12.3582274"><ele>59.0</ele><time>2026-03-28T09:43:39.053Z</time></trkpt><trkpt lat="41.9280511" lon="12.358057"><ele>59.0</ele><time>2026-03-28T09:43:40.05Z</time></trkpt><trkpt lat="41.9281259" lon="12.3578865"><ele>59.0</ele><time>2026-03-28T09:43:41.047Z</time></trkpt><trkpt lat="41.9281875" lon="12.3577313"><ele>58.5</ele><time>2026-03-28T09:43:42.063Z</time></trkpt><trkpt lat="41.9282772" lon="12.3575675"><ele>58.0</ele><time>2026-03-28T09:43:43.054Z</time></trkpt><trkpt lat="41.9283778" lon="12.3574331"><ele>57.5</ele><time>2026-03-28T09:43:44.05Z</time></trkpt><trkpt lat="41.9284506" lon="12.3573085"><ele>57.0</ele><time>2026-03-28T09:43:45.048Z</time></trkpt><trkpt lat="41.9285182" lon="12.357149"><ele>55.0</ele><time>2026-03-28T09:43:46.057Z</time></trkpt><trkpt lat="41.9285763" lon="12.356984"><ele>53.0</ele><time>2026-03-28T09:43:47.05Z</time></trkpt><trkpt lat="41.9285837" lon="12.3568191"><ele>51.0</ele><time>2026-03-28T09:43:48.059Z</time></trkpt><trkpt lat="41.9285633" lon="12.3566817"><ele>49.0</ele><time>2026-03-28T09:43:49.062Z</time></trkpt><trkpt lat="41.9284905" lon="12.3565764"><ele>49.0</ele><time>2026-03-28T09:43:50.05Z</time></trkpt><trkpt lat="41.9284046" lon="12.3564851"><ele>49.0</ele><time>2026-03-28T09:43:51.056Z</time></trkpt><trkpt lat="41.9283246" lon="12.3563729"><ele>49.0</ele><time>2026-03-28T09:43:52.059Z</time></trkpt><trkpt lat="41.9282705" lon="12.3562493"><ele>49.0</ele><time>2026-03-28T09:43:53.06Z</time></trkpt><trkpt lat="41.9282388" lon="12.3561076"><ele>49.0</ele><time>2026-03-28T09:43:54.055Z</time></trkpt><trkpt lat="41.9282252" lon="12.3559564"><ele>48.25</ele><time>2026-03-28T09:43:55.052Z</time></trkpt><trkpt lat="41.9282204" lon="12.3558008"><ele>47.5</ele><time>2026-03-28T09:43:56.054Z</time></trkpt><trkpt lat="41.9282346" lon="12.3556381"><ele>46.75</ele><time>2026-03-28T09:43:57.053Z</time></trkpt><trkpt lat="41.9282431" lon="12.3554726"><ele>46.0</ele><time>2026-03-28T09:43:58.051Z</time></trkpt><trkpt lat="41.928254" lon="12.355309"><ele>46.0</ele><time>2026-03-28T09:43:59.055Z</time></trkpt><trkpt lat="41.9282665" lon="12.3551529"><ele>46.0</ele><time>2026-03-28T09:44:00.056Z</time></trkpt><trkpt lat="41.928273" lon="12.3550017"><ele>46.0</ele><time>2026-03-28T09:44:01.049Z</time></trkpt><trkpt lat="41.9282742" lon="12.3548557"><ele>46.0</ele><time>2026-03-28T09:44:02.054Z</time></trkpt><trkpt lat="41.9282741" lon="12.3547135"><ele>46.0</ele><time>2026-03-28T09:44:03.055Z</time></trkpt><trkpt lat="41.9282742" lon="12.3545744"><ele>46.16666666666667</ele><time>2026-03-28T09:44:04.05Z</time></trkpt><trkpt lat="41.9282716" lon="12.3544561"><ele>46.333333333333336</ele><time>2026-03-28T09:44:05.056Z</time></trkpt><trkpt lat="41.9282648" lon="12.3543585"><ele>46.5</ele><time>2026-03-28T09:44:06.05Z</time></trkpt><trkpt lat="41.9282544" lon="12.354269"><ele>46.666666666666664</ele><time>2026-03-28T09:44:07.055Z</time></trkpt><trkpt lat="41.9282431" lon="12.3541784"><ele>46.83333333333333</ele><time>2026-03-28T09:44:08.049Z</time></trkpt><trkpt lat="41.9282224" lon="12.3540425"><ele>47.0</ele><time>2026-03-28T09:44:10.056Z</time></trkpt><trkpt lat="41.9281981" lon="12.3539612"><ele>47.0</ele><time>2026-03-28T09:44:12.056Z</time></trkpt><trkpt lat="41.9281784" lon="12.3538783"><ele>47.0</ele><time>2026-03-28T09:44:14.054Z</time></trkpt><trkpt lat="41.9281593" lon="12.353746"><ele>47.0</ele><time>2026-03-28T09:44:16.05Z</time></trkpt><trkpt lat="41.9281225" lon="12.3535964"><ele>47.0</ele><time>2026-03-28T09:44:18.053Z</time></trkpt><trkpt lat="41.9280926" lon="12.3534472"><ele>47.0</ele><time>2026-03-28T09:44:20.058Z</time></trkpt><trkpt lat="41.9280807" lon="12.3533303"><ele>46.83333333333333</ele><time>2026-03-28T09:44:22.051Z</time></trkpt><trkpt lat="41.9281401" lon="12.3532024"><ele>46.666666666666664</ele><time>2026-03-28T09:44:24.055Z</time></trkpt><trkpt lat="41.9281951" lon="12.3531402"><ele>46.5</ele><time>2026-03-28T09:44:25.052Z</time></trkpt><trkpt lat="41.9282582" lon="12.3530771"><ele>46.333333333333336</ele><time>2026-03-28T09:44:26.059Z</time></trkpt><trkpt lat="41.9283369" lon="12.3530182"><ele>46.16666666666667</ele><time>2026-03-28T09:44:27.05Z</time></trkpt><trkpt lat="41.9284194" lon="12.3529528"><ele>46.0</ele><time>2026-03-28T09:44:28.073Z</time></trkpt><trkpt lat="41.9285037" lon="12.3528853"><ele>46.599999999999994</ele><time>2026-03-28T09:44:29.055Z</time></trkpt><trkpt lat="41.9285916" lon="12.3528196"><ele>47.2</ele><time>2026-03-28T09:44:30.055Z</time></trkpt><trkpt lat="41.9286673" lon="12.3527591"><ele>47.8</ele><time>2026-03-28T09:44:31.054Z</time></trkpt><trkpt lat="41.9287591" lon="12.3526874"><ele>48.400000000000006</ele><time>2026-03-28T09:44:32.061Z</time></trkpt><trkpt lat="41.9288625" lon="12.3526169"><ele>49.0</ele><time>2026-03-28T09:44:33.056Z</time></trkpt><trkpt lat="41.9289731" lon="12.3525438"><ele>49.0</ele><time>2026-03-28T09:44:34.057Z</time></trkpt><trkpt lat="41.9290963" lon="12.3524692"><ele>49.0</ele><time>2026-03-28T09:44:35.05Z</time></trkpt><trkpt lat="41.9292274" lon="12.3523865"><ele>49.0</ele><time>2026-03-28T09:44:36.049Z</time></trkpt><trkpt lat="41.9293608" lon="12.3523023"><ele>49.0</ele><time>2026-03-28T09:44:37.051Z</time></trkpt><trkpt lat="41.9295074" lon="12.352234"><ele>47.75</ele><time>2026-03-28T09:44:38.052Z</time></trkpt><trkpt lat="41.9296324" lon="12.3521622"><ele>46.5</ele><time>2026-03-28T09:44:39.054Z</time></trkpt><trkpt lat="41.9297641" lon="12.3520865"><ele>45.25</ele><time>2026-03-28T09:44:40.057Z</time></trkpt><trkpt lat="41.9298963" lon="12.3520099"><ele>44.0</ele><time>2026-03-28T09:44:41.053Z</time></trkpt><trkpt lat="41.9300446" lon="12.3519302"><ele>44.666666666666664</ele><time>2026-03-28T09:44:42.051Z</time></trkpt><trkpt lat="41.9301939" lon="12.3518695"><ele>45.333333333333336</ele><time>2026-03-28T09:44:43.058Z</time></trkpt><trkpt lat="41.9303497" lon="12.3518006"><ele>46.0</ele><time>2026-03-28T09:44:44.045Z</time></trkpt><trkpt lat="41.9304989" lon="12.3517225"><ele>46.0</ele><time>2026-03-28T09:44:45.058Z</time></trkpt><trkpt lat="41.9306432" lon="12.3516413"><ele>46.0</ele><time>2026-03-28T09:44:46.056Z</time></trkpt><trkpt lat="41.9307926" lon="12.3515624"><ele>46.0</ele><time>2026-03-28T09:44:47.055Z</time></trkpt><trkpt lat="41.9309482" lon="12.3514861"><ele>45.66666666666667</ele><time>2026-03-28T09:44:48.061Z</time></trkpt><trkpt lat="41.9311095" lon="12.3514178"><ele>45.333333333333336</ele><time>2026-03-28T09:44:49.049Z</time></trkpt><trkpt lat="41.9312565" lon="12.3513417"><ele>45.0</ele><time>2026-03-28T09:44:50.058Z</time></trkpt><trkpt lat="41.9314205" lon="12.3512686"><ele>45.333333333333336</ele><time>2026-03-28T09:44:51.051Z</time></trkpt><trkpt lat="41.9315774" lon="12.351181"><ele>45.66666666666667</ele><time>2026-03-28T09:44:52.055Z</time></trkpt><trkpt lat="41.9317458" lon="12.3511147"><ele>46.0</ele><time>2026-03-28T09:44:53.057Z</time></trkpt><trkpt lat="41.9318911" lon="12.3510247"><ele>46.0</ele><time>2026-03-28T09:44:54.059Z</time></trkpt><trkpt lat="41.9320445" lon="12.3509458"><ele>46.0</ele><time>2026-03-28T09:44:55.062Z</time></trkpt><trkpt lat="41.9322087" lon="12.350856"><ele>46.0</ele><time>2026-03-28T09:44:56.054Z</time></trkpt><trkpt lat="41.9323656" lon="12.3507781"><ele>46.0</ele><time>2026-03-28T09:44:57.063Z</time></trkpt><trkpt lat="41.9325276" lon="12.3506874"><ele>46.0</ele><time>2026-03-28T09:44:58.062Z</time></trkpt><trkpt lat="41.9326891" lon="12.3506178"><ele>46.0</ele><time>2026-03-28T09:44:59.048Z</time></trkpt><trkpt lat="41.9328477" lon="12.3505484"><ele>46.0</ele><time>2026-03-28T09:45:00.06Z</time></trkpt><trkpt lat="41.9330069" lon="12.3504738"><ele>46.0</ele><time>2026-03-28T09:45:01.055Z</time></trkpt><trkpt lat="41.9331608" lon="12.3504063"><ele>46.0</ele><time>2026-03-28T09:45:02.058Z</time></trkpt><trkpt lat="41.9333216" lon="12.350319"><ele>46.0</ele><time>2026-03-28T09:45:03.06Z</time></trkpt><trkpt lat="41.9334881" lon="12.3502338"><ele>46.0</ele><time>2026-03-28T09:45:04.05Z</time></trkpt><trkpt lat="41.9336497" lon="12.350167"><ele>46.0</ele><time>2026-03-28T09:45:05.065Z</time></trkpt><trkpt lat="41.9338151" lon="12.3500888"><ele>46.0</ele><time>2026-03-28T09:45:06.049Z</time></trkpt><trkpt lat="41.9339904" lon="12.3500103"><ele>46.0</ele><time>2026-03-28T09:45:07.061Z</time></trkpt><trkpt lat="41.9341416" lon="12.3499298"><ele>46.0</ele><time>2026-03-28T09:45:08.052Z</time></trkpt><trkpt lat="41.9342884" lon="12.3498527"><ele>46.0</ele><time>2026-03-28T09:45:09.059Z</time></trkpt><trkpt lat="41.9344363" lon="12.349772"><ele>46.0</ele><time>2026-03-28T09:45:10.051Z</time></trkpt><trkpt lat="41.9346043" lon="12.3496927"><ele>46.0</ele><time>2026-03-28T09:45:11.054Z</time></trkpt><trkpt lat="41.9347764" lon="12.3496058"><ele>46.0</ele><time>2026-03-28T09:45:12.05Z</time></trkpt><trkpt lat="41.9349531" lon="12.3495145"><ele>46.0</ele><time>2026-03-28T09:45:13.065Z</time></trkpt><trkpt lat="41.9351226" lon="12.3494472"><ele>46.0</ele><time>2026-03-28T09:45:14.058Z</time></trkpt><trkpt lat="41.9352817" lon="12.3493843"><ele>46.0</ele><time>2026-03-28T09:45:15.054Z</time></trkpt><trkpt lat="41.9354558" lon="12.3493068"><ele>46.0</ele><time>2026-03-28T09:45:16.056Z</time></trkpt><trkpt lat="41.935614" lon="12.3492237"><ele>46.0</ele><time>2026-03-28T09:45:17.053Z</time></trkpt><trkpt lat="41.9357801" lon="12.3491374"><ele>46.333333333333336</ele><time>2026-03-28T09:45:18.065Z</time></trkpt><trkpt lat="41.9359582" lon="12.3490412"><ele>46.666666666666664</ele><time>2026-03-28T09:45:19.052Z</time></trkpt><trkpt lat="41.9361074" lon="12.3489815"><ele>47.0</ele><time>2026-03-28T09:45:20.054Z</time></trkpt><trkpt lat="41.9362672" lon="12.3489148"><ele>46.33333333333333</ele><time>2026-03-28T09:45:21.051Z</time></trkpt><trkpt lat="41.9364151" lon="12.348846"><ele>45.666666666666664</ele><time>2026-03-28T09:45:22.062Z</time></trkpt><trkpt lat="41.9365661" lon="12.3487696"><ele>45.0</ele><time>2026-03-28T09:45:23.047Z</time></trkpt><trkpt lat="41.9367101" lon="12.3487072"><ele>46.0</ele><time>2026-03-28T09:45:24.061Z</time></trkpt><trkpt lat="41.936845" lon="12.3486526"><ele>47.0</ele><time>2026-03-28T09:45:25.049Z</time></trkpt><trkpt lat="41.9369852" lon="12.3485999"><ele>48.0</ele><time>2026-03-28T09:45:26.063Z</time></trkpt><trkpt lat="41.9371525" lon="12.3485558"><ele>48.0</ele><time>2026-03-28T09:45:27.062Z</time></trkpt><trkpt lat="41.9373246" lon="12.3485325"><ele>48.0</ele><time>2026-03-28T09:45:28.051Z</time></trkpt><trkpt lat="41.9375059" lon="12.3485184"><ele>48.0</ele><time>2026-03-28T09:45:29.065Z</time></trkpt><trkpt lat="41.9376858" lon="12.3485059"><ele>48.33333333333333</ele><time>2026-03-28T09:45:30.047Z</time></trkpt><trkpt lat="41.9378676" lon="12.3484867"><ele>48.666666666666664</ele><time>2026-03-28T09:45:31.058Z</time></trkpt><trkpt lat="41.9380411" lon="12.348481"><ele>49.0</ele><time>2026-03-28T09:45:32.052Z</time></trkpt><trkpt lat="41.9382143" lon="12.3484607"><ele>49.0</ele><time>2026-03-28T09:45:33.062Z</time></trkpt><trkpt lat="41.9383867" lon="12.3484264"><ele>49.0</ele><time>2026-03-28T09:45:34.062Z</time></trkpt><trkpt lat="41.9385592" lon="12.3483982"><ele>49.0</ele><time>2026-03-28T09:45:35.058Z</time></trkpt><trkpt lat="41.9387378" lon="12.3483806"><ele>49.0</ele><time>2026-03-28T09:45:36.059Z</time></trkpt><trkpt lat="41.9388994" lon="12.3483636"><ele>49.0</ele><time>2026-03-28T09:45:37.048Z</time></trkpt><trkpt lat="41.9390693" lon="12.3483466"><ele>49.0</ele><time>2026-03-28T09:45:38.058Z</time></trkpt><trkpt lat="41.9392334" lon="12.3483251"><ele>49.5</ele><time>2026-03-28T09:45:39.059Z</time></trkpt><trkpt lat="41.939383" lon="12.3483053"><ele>50.0</ele><time>2026-03-28T09:45:40.053Z</time></trkpt><trkpt lat="41.9395261" lon="12.3482841"><ele>50.5</ele><time>2026-03-28T09:45:41.064Z</time></trkpt><trkpt lat="41.9396616" lon="12.348275"><ele>51.0</ele><time>2026-03-28T09:45:42.05Z</time></trkpt><trkpt lat="41.939798" lon="12.348278"><ele>51.0</ele><time>2026-03-28T09:45:43.054Z</time></trkpt><trkpt lat="41.9399084" lon="12.3483076"><ele>51.0</ele><time>2026-03-28T09:45:44.051Z</time></trkpt><trkpt lat="41.9400197" lon="12.3483319"><ele>51.0</ele><time>2026-03-28T09:45:45.064Z</time></trkpt><trkpt lat="41.9401271" lon="12.3483772"><ele>51.0</ele><time>2026-03-28T09:45:46.048Z</time></trkpt><trkpt lat="41.9402296" lon="12.3484469"><ele>51.0</ele><time>2026-03-28T09:45:47.06Z</time></trkpt><trkpt lat="41.9403312" lon="12.3485661"><ele>51.0</ele><time>2026-03-28T09:45:48.051Z</time></trkpt><trkpt lat="41.9404265" lon="12.3487002"><ele>51.0</ele><time>2026-03-28T09:45:49.06Z</time></trkpt><trkpt lat="41.9405228" lon="12.3488491"><ele>51.0</ele><time>2026-03-28T09:45:50.055Z</time></trkpt><trkpt lat="41.9406203" lon="12.3490099"><ele>51.0</ele><time>2026-03-28T09:45:51.062Z</time></trkpt><trkpt lat="41.9407239" lon="12.3491557"><ele>51.0</ele><time>2026-03-28T09:45:52.055Z</time></trkpt><trkpt lat="41.9408289" lon="12.3492988"><ele>51.0</ele><time>2026-03-28T09:45:53.055Z</time></trkpt><trkpt lat="41.9409305" lon="12.3494463"><ele>51.0</ele><time>2026-03-28T09:45:54.052Z</time></trkpt><trkpt lat="41.941032" lon="12.3495878"><ele>52.25</ele><time>2026-03-28T09:45:55.05Z</time></trkpt><trkpt lat="41.9411236" lon="12.3497384"><ele>53.5</ele><time>2026-03-28T09:45:56.056Z</time></trkpt><trkpt lat="41.9412252" lon="12.3498777"><ele>54.75</ele><time>2026-03-28T09:45:57.049Z</time></trkpt><trkpt lat="41.9413177" lon="12.3500221"><ele>56.0</ele><time>2026-03-28T09:45:58.055Z</time></trkpt><trkpt lat="41.9414198" lon="12.350163"><ele>56.0</ele><time>2026-03-28T09:45:59.052Z</time></trkpt><trkpt lat="41.9415172" lon="12.3503108"><ele>56.0</ele><time>2026-03-28T09:46:00.049Z</time></trkpt><trkpt lat="41.941602" lon="12.3504436"><ele>56.0</ele><time>2026-03-28T09:46:01.058Z</time></trkpt><trkpt lat="41.9416966" lon="12.3505791"><ele>56.0</ele><time>2026-03-28T09:46:02.055Z</time></trkpt><trkpt lat="41.9417858" lon="12.3507081"><ele>58.75</ele><time>2026-03-28T09:46:03.053Z</time></trkpt><trkpt lat="41.9418718" lon="12.35084"><ele>61.5</ele><time>2026-03-28T09:46:04.059Z</time></trkpt><trkpt lat="41.9419809" lon="12.3509625"><ele>64.25</ele><time>2026-03-28T09:46:05.056Z</time></trkpt><trkpt lat="41.9420794" lon="12.3510918"><ele>67.0</ele><time>2026-03-28T09:46:06.057Z</time></trkpt><trkpt lat="41.9421846" lon="12.3512054"><ele>67.0</ele><time>2026-03-28T09:46:07.049Z</time></trkpt><trkpt lat="41.942288" lon="12.3513109"><ele>67.0</ele><time>2026-03-28T09:46:08.067Z</time></trkpt><trkpt lat="41.9423899" lon="12.3514095"><ele>67.0</ele><time>2026-03-28T09:46:09.05Z</time></trkpt><trkpt lat="41.9424983" lon="12.3515107"><ele>67.0</ele><time>2026-03-28T09:46:10.058Z</time></trkpt><trkpt lat="41.9426265" lon="12.3516229"><ele>69.66666666666666</ele><time>2026-03-28T09:46:11.053Z</time></trkpt><trkpt lat="41.942755" lon="12.3517391"><ele>72.33333333333333</ele><time>2026-03-28T09:46:12.056Z</time></trkpt><trkpt lat="41.9428881" lon="12.3518714"><ele>75.0</ele><time>2026-03-28T09:46:13.057Z</time></trkpt><trkpt lat="41.9430021" lon="12.3519809"><ele>75.0</ele><time>2026-03-28T09:46:14.053Z</time></trkpt><trkpt lat="41.9431361" lon="12.3521404"><ele>75.0</ele><time>2026-03-28T09:46:15.054Z</time></trkpt><trkpt lat="41.9432764" lon="12.352287"><ele>75.0</ele><time>2026-03-28T09:46:16.061Z</time></trkpt><trkpt lat="41.9434187" lon="12.3524222"><ele>75.33333333333333</ele><time>2026-03-28T09:46:17.047Z</time></trkpt><trkpt lat="41.9435561" lon="12.3525519"><ele>75.66666666666666</ele><time>2026-03-28T09:46:18.057Z</time></trkpt><trkpt lat="41.9437089" lon="12.3526997"><ele>76.0</ele><time>2026-03-28T09:46:19.059Z</time></trkpt><trkpt lat="41.9438476" lon="12.3528374"><ele>76.0</ele><time>2026-03-28T09:46:20.061Z</time></trkpt><trkpt lat="41.9440106" lon="12.3530005"><ele>76.0</ele><time>2026-03-28T09:46:21.064Z</time></trkpt><trkpt lat="41.9441665" lon="12.3531622"><ele>76.0</ele><time>2026-03-28T09:46:22.05Z</time></trkpt><trkpt lat="41.9443099" lon="12.3533138"><ele>76.66666666666666</ele><time>2026-03-28T09:46:23.054Z</time></trkpt><trkpt lat="41.9444591" lon="12.3534506"><ele>77.33333333333333</ele><time>2026-03-28T09:46:24.05Z</time></trkpt><trkpt lat="41.9446078" lon="12.3535601"><ele>78.0</ele><time>2026-03-28T09:46:25.051Z</time></trkpt><trkpt lat="41.9447504" lon="12.3536539"><ele>78.0</ele><time>2026-03-28T09:46:26.051Z</time></trkpt><trkpt lat="41.9448996" lon="12.3537429"><ele>78.0</ele><time>2026-03-28T09:46:27.051Z</time></trkpt><trkpt lat="41.9450678" lon="12.3537873"><ele>78.0</ele><time>2026-03-28T09:46:28.062Z</time></trkpt><trkpt lat="41.9452342" lon="12.3538233"><ele>80.0</ele><time>2026-03-28T09:46:29.068Z</time></trkpt><trkpt lat="41.9454123" lon="12.3538543"><ele>82.0</ele><time>2026-03-28T09:46:30.051Z</time></trkpt><trkpt lat="41.9455908" lon="12.3538808"><ele>84.0</ele><time>2026-03-28T09:46:31.054Z</time></trkpt><trkpt lat="41.9457811" lon="12.3539233"><ele>84.33333333333333</ele><time>2026-03-28T09:46:32.05Z</time></trkpt><trkpt lat="41.9459647" lon="12.3539696"><ele>84.66666666666666</ele><time>2026-03-28T09:46:33.059Z</time></trkpt><trkpt lat="41.9461489" lon="12.3540088"><ele>85.0</ele><time>2026-03-28T09:46:34.056Z</time></trkpt><trkpt lat="41.9463437" lon="12.3540599"><ele>85.0</ele><time>2026-03-28T09:46:35.054Z</time></trkpt><trkpt lat="41.9465273" lon="12.3541285"><ele>85.0</ele><time>2026-03-28T09:46:36.058Z</time></trkpt><trkpt lat="41.9467077" lon="12.3541809"><ele>85.0</ele><time>2026-03-28T09:46:37.056Z</time></trkpt><trkpt lat="41.9469023" lon="12.3542215"><ele>86.33333333333333</ele><time>2026-03-28T09:46:38.054Z</time></trkpt><trkpt lat="41.9470961" lon="12.354267"><ele>87.66666666666667</ele><time>2026-03-28T09:46:39.054Z</time></trkpt><trkpt lat="41.9472904" lon="12.3543174"><ele>89.0</ele><time>2026-03-28T09:46:40.061Z</time></trkpt><trkpt lat="41.9474838" lon="12.354379"><ele>90.0</ele><time>2026-03-28T09:46:41.052Z</time></trkpt><trkpt lat="41.9476907" lon="12.354439"><ele>91.0</ele><time>2026-03-28T09:46:42.059Z</time></trkpt><trkpt lat="41.9478928" lon="12.3545068"><ele>92.0</ele><time>2026-03-28T09:46:43.062Z</time></trkpt><trkpt lat="41.9480821" lon="12.3545711"><ele>92.0</ele><time>2026-03-28T09:46:44.05Z</time></trkpt><trkpt lat="41.9482684" lon="12.3546272"><ele>92.0</ele><time>2026-03-28T09:46:45.057Z</time></trkpt><trkpt lat="41.9484429" lon="12.3546869"><ele>92.0</ele><time>2026-03-28T09:46:46.05Z</time></trkpt><trkpt lat="41.9486146" lon="12.3547405"><ele>91.33333333333334</ele><time>2026-03-28T09:46:47.051Z</time></trkpt><trkpt lat="41.9487817" lon="12.3547922"><ele>90.66666666666667</ele><time>2026-03-28T09:46:48.056Z</time></trkpt><trkpt lat="41.9489487" lon="12.3548417"><ele>90.0</ele><time>2026-03-28T09:46:49.056Z</time></trkpt><trkpt lat="41.9491106" lon="12.3549031"><ele>89.0</ele><time>2026-03-28T09:46:50.057Z</time></trkpt><trkpt lat="41.9492701" lon="12.3549738"><ele>88.0</ele><time>2026-03-28T09:46:51.053Z</time></trkpt><trkpt lat="41.9494205" lon="12.3550274"><ele>87.0</ele><time>2026-03-28T09:46:52.062Z</time></trkpt><trkpt lat="41.949567" lon="12.3550894"><ele>87.0</ele><time>2026-03-28T09:46:53.054Z</time></trkpt><trkpt lat="41.9497137" lon="12.3551582"><ele>87.0</ele><time>2026-03-28T09:46:54.054Z</time></trkpt><trkpt lat="41.9498461" lon="12.3552192"><ele>87.0</ele><time>2026-03-28T09:46:55.05Z</time></trkpt><trkpt lat="41.9499699" lon="12.3552948"><ele>87.0</ele><time>2026-03-28T09:46:56.063Z</time></trkpt><trkpt lat="41.950094" lon="12.3554049"><ele>87.66666666666667</ele><time>2026-03-28T09:46:57.051Z</time></trkpt><trkpt lat="41.9502162" lon="12.3555311"><ele>88.33333333333334</ele><time>2026-03-28T09:46:58.077Z</time></trkpt><trkpt lat="41.9503654" lon="12.3556758"><ele>89.0</ele><time>2026-03-28T09:46:59.049Z</time></trkpt><trkpt lat="41.9505128" lon="12.3558407"><ele>89.0</ele><time>2026-03-28T09:47:00.052Z</time></trkpt><trkpt lat="41.950661" lon="12.3560164"><ele>89.0</ele><time>2026-03-28T09:47:01.049Z</time></trkpt><trkpt lat="41.950808" lon="12.3561716"><ele>89.0</ele><time>2026-03-28T09:47:02.054Z</time></trkpt><trkpt lat="41.9509435" lon="12.3563155"><ele>87.66666666666667</ele><time>2026-03-28T09:47:03.054Z</time></trkpt><trkpt lat="41.951067" lon="12.3564607"><ele>86.33333333333333</ele><time>2026-03-28T09:47:04.058Z</time></trkpt><trkpt lat="41.9512071" lon="12.3566032"><ele>85.0</ele><time>2026-03-28T09:47:05.057Z</time></trkpt><trkpt lat="41.9513564" lon="12.3566855"><ele>85.0</ele><time>2026-03-28T09:47:06.053Z</time></trkpt><trkpt lat="41.9515009" lon="12.3567211"><ele>85.0</ele><time>2026-03-28T09:47:07.063Z</time></trkpt><trkpt lat="41.951647" lon="12.3567435"><ele>85.0</ele><time>2026-03-28T09:47:08.052Z</time></trkpt><trkpt lat="41.9518019" lon="12.3567643"><ele>85.33333333333333</ele><time>2026-03-28T09:47:09.055Z</time></trkpt><trkpt lat="41.951959" lon="12.3567761"><ele>85.66666666666667</ele><time>2026-03-28T09:47:10.055Z</time></trkpt><trkpt lat="41.9521159" lon="12.3567959"><ele>86.0</ele><time>2026-03-28T09:47:11.057Z</time></trkpt><trkpt lat="41.9522657" lon="12.3568153"><ele>86.0</ele><time>2026-03-28T09:47:12.057Z</time></trkpt><trkpt lat="41.952423" lon="12.3568341"><ele>86.0</ele><time>2026-03-28T09:47:13.058Z</time></trkpt><trkpt lat="41.9525759" lon="12.3568487"><ele>86.0</ele><time>2026-03-28T09:47:14.061Z</time></trkpt><trkpt lat="41.9527209" lon="12.3568737"><ele>87.0</ele><time>2026-03-28T09:47:15.06Z</time></trkpt><trkpt lat="41.9528665" lon="12.3568946"><ele>88.0</ele><time>2026-03-28T09:47:16.054Z</time></trkpt><trkpt lat="41.9529984" lon="12.3569146"><ele>89.0</ele><time>2026-03-28T09:47:17.05Z</time></trkpt><trkpt lat="41.9531288" lon="12.3569371"><ele>90.0</ele><time>2026-03-28T09:47:18.055Z</time></trkpt><trkpt lat="41.9532598" lon="12.3569753"><ele>90.5</ele><time>2026-03-28T09:47:19.053Z</time></trkpt><trkpt lat="41.9533743" lon="12.3570622"><ele>91.0</ele><time>2026-03-28T09:47:20.045Z</time></trkpt><trkpt lat="41.9534933" lon="12.3571769"><ele>91.5</ele><time>2026-03-28T09:47:21.058Z</time></trkpt><trkpt lat="41.9536168" lon="12.3573137"><ele>92.0</ele><time>2026-03-28T09:47:22.056Z</time></trkpt><trkpt lat="41.953758" lon="12.3574524"><ele>92.0</ele><time>2026-03-28T09:47:23.049Z</time></trkpt><trkpt lat="41.9539165" lon="12.3576225"><ele>92.0</ele><time>2026-03-28T09:47:24.053Z</time></trkpt><trkpt lat="41.9540765" lon="12.3578129"><ele>92.0</ele><time>2026-03-28T09:47:25.054Z</time></trkpt><trkpt lat="41.9542319" lon="12.3579838"><ele>92.33333333333334</ele><time>2026-03-28T09:47:26.053Z</time></trkpt><trkpt lat="41.9543936" lon="12.358144"><ele>92.66666666666667</ele><time>2026-03-28T09:47:27.063Z</time></trkpt><trkpt lat="41.9545555" lon="12.3582681"><ele>93.0</ele><time>2026-03-28T09:47:28.055Z</time></trkpt><trkpt lat="41.9547264" lon="12.3583689"><ele>93.0</ele><time>2026-03-28T09:47:29.049Z</time></trkpt><trkpt lat="41.9549" lon="12.3584323"><ele>93.0</ele><time>2026-03-28T09:47:30.048Z</time></trkpt><trkpt lat="41.9551036" lon="12.3584967"><ele>93.0</ele><time>2026-03-28T09:47:31.055Z</time></trkpt><trkpt lat="41.9553239" lon="12.3585666"><ele>93.0</ele><time>2026-03-28T09:47:32.06Z</time></trkpt><trkpt lat="41.9555563" lon="12.358643"><ele>93.0</ele><time>2026-03-28T09:47:33.051Z</time></trkpt><trkpt lat="41.9557908" lon="12.3587286"><ele>93.0</ele><time>2026-03-28T09:47:34.058Z</time></trkpt><trkpt lat="41.9560212" lon="12.358819"><ele>93.0</ele><time>2026-03-28T09:47:35.048Z</time></trkpt><trkpt lat="41.9562703" lon="12.358909"><ele>93.0</ele><time>2026-03-28T09:47:36.057Z</time></trkpt><trkpt lat="41.9564955" lon="12.3589821"><ele>93.0</ele><time>2026-03-28T09:47:37.059Z</time></trkpt><trkpt lat="41.9567" lon="12.3590479"><ele>93.0</ele><time>2026-03-28T09:47:38.056Z</time></trkpt><trkpt lat="41.9568986" lon="12.3591256"><ele>94.0</ele><time>2026-03-28T09:47:39.059Z</time></trkpt><trkpt lat="41.9570834" lon="12.3591862"><ele>95.0</ele><time>2026-03-28T09:47:40.058Z</time></trkpt><trkpt lat="41.9572598" lon="12.3592593"><ele>96.0</ele><time>2026-03-28T09:47:41.054Z</time></trkpt><trkpt lat="41.9574222" lon="12.3593474"><ele>95.66666666666667</ele><time>2026-03-28T09:47:42.052Z</time></trkpt><trkpt lat="41.9575518" lon="12.3594624"><ele>95.33333333333334</ele><time>2026-03-28T09:47:43.054Z</time></trkpt><trkpt lat="41.9576767" lon="12.3596224"><ele>95.0</ele><time>2026-03-28T09:47:44.051Z</time></trkpt><trkpt lat="41.9577904" lon="12.3598103"><ele>95.0</ele><time>2026-03-28T09:47:45.054Z</time></trkpt><trkpt lat="41.9579029" lon="12.3599853"><ele>95.0</ele><time>2026-03-28T09:47:46.063Z</time></trkpt><trkpt lat="41.9580218" lon="12.3601714"><ele>95.0</ele><time>2026-03-28T09:47:47.056Z</time></trkpt><trkpt lat="41.9581264" lon="12.360341"><ele>95.0</ele><time>2026-03-28T09:47:48.072Z</time></trkpt><trkpt lat="41.9582577" lon="12.3604804"><ele>95.0</ele><time>2026-03-28T09:47:49.051Z</time></trkpt><trkpt lat="41.9584015" lon="12.3606013"><ele>95.0</ele><time>2026-03-28T09:47:50.059Z</time></trkpt><trkpt lat="41.9585542" lon="12.3606987"><ele>97.33333333333334</ele><time>2026-03-28T09:47:51.053Z</time></trkpt><trkpt lat="41.9587173" lon="12.3607834"><ele>99.66666666666667</ele><time>2026-03-28T09:47:52.058Z</time></trkpt><trkpt lat="41.9588739" lon="12.3608771"><ele>102.0</ele><time>2026-03-28T09:47:53.061Z</time></trkpt><trkpt lat="41.9590419" lon="12.360954"><ele>102.33333333333334</ele><time>2026-03-28T09:47:54.064Z</time></trkpt><trkpt lat="41.9592108" lon="12.3610237"><ele>102.66666666666667</ele><time>2026-03-28T09:47:55.057Z</time></trkpt><trkpt lat="41.9593687" lon="12.3610691"><ele>103.0</ele><time>2026-03-28T09:47:56.053Z</time></trkpt><trkpt lat="41.9595273" lon="12.3610906"><ele>103.0</ele><time>2026-03-28T09:47:57.054Z</time></trkpt><trkpt lat="41.9596975" lon="12.3610913"><ele>103.0</ele><time>2026-03-28T09:47:58.05Z</time></trkpt><trkpt lat="41.959889" lon="12.3610502"><ele>103.0</ele><time>2026-03-28T09:47:59.063Z</time></trkpt><trkpt lat="41.9600678" lon="12.3610299"><ele>102.33333333333334</ele><time>2026-03-28T09:48:00.054Z</time></trkpt><trkpt lat="41.9602497" lon="12.3610015"><ele>101.66666666666666</ele><time>2026-03-28T09:48:01.059Z</time></trkpt><trkpt lat="41.9604336" lon="12.3609851"><ele>101.0</ele><time>2026-03-28T09:48:02.049Z</time></trkpt><trkpt lat="41.960617" lon="12.3609938"><ele>101.0</ele><time>2026-03-28T09:48:03.052Z</time></trkpt><trkpt lat="41.960788" lon="12.3610282"><ele>101.0</ele><time>2026-03-28T09:48:04.057Z</time></trkpt><trkpt lat="41.9609748" lon="12.3610793"><ele>101.0</ele><time>2026-03-28T09:48:05.064Z</time></trkpt><trkpt lat="41.9611537" lon="12.3611239"><ele>101.33333333333333</ele><time>2026-03-28T09:48:06.054Z</time></trkpt><trkpt lat="41.9613307" lon="12.3611697"><ele>101.66666666666666</ele><time>2026-03-28T09:48:07.054Z</time></trkpt><trkpt lat="41.9614986" lon="12.3612207"><ele>102.0</ele><time>2026-03-28T09:48:08.051Z</time></trkpt><trkpt lat="41.9616573" lon="12.361288"><ele>102.33333333333334</ele><time>2026-03-28T09:48:09.063Z</time></trkpt><trkpt lat="41.9618096" lon="12.3613699"><ele>102.66666666666667</ele><time>2026-03-28T09:48:10.056Z</time></trkpt><trkpt lat="41.961963" lon="12.3614518"><ele>103.0</ele><time>2026-03-28T09:48:11.051Z</time></trkpt><trkpt lat="41.9621108" lon="12.3615586"><ele>103.0</ele><time>2026-03-28T09:48:12.052Z</time></trkpt><trkpt lat="41.9622572" lon="12.3616693"><ele>103.0</ele><time>2026-03-28T09:48:13.06Z</time></trkpt><trkpt lat="41.9624051" lon="12.3618056"><ele>103.0</ele><time>2026-03-28T09:48:14.059Z</time></trkpt><trkpt lat="41.9625572" lon="12.3619313"><ele>103.33333333333334</ele><time>2026-03-28T09:48:15.062Z</time></trkpt><trkpt lat="41.9627037" lon="12.3620612"><ele>103.66666666666666</ele><time>2026-03-28T09:48:16.052Z</time></trkpt><trkpt lat="41.9628543" lon="12.3621965"><ele>104.0</ele><time>2026-03-28T09:48:17.057Z</time></trkpt><trkpt lat="41.9629993" lon="12.3623461"><ele>104.0</ele><time>2026-03-28T09:48:18.056Z</time></trkpt><trkpt lat="41.9631414" lon="12.3624732"><ele>104.0</ele><time>2026-03-28T09:48:19.054Z</time></trkpt><trkpt lat="41.9632992" lon="12.3625892"><ele>104.0</ele><time>2026-03-28T09:48:20.054Z</time></trkpt><trkpt lat="41.9634355" lon="12.362719"><ele>104.0</ele><time>2026-03-28T09:48:21.049Z</time></trkpt><trkpt lat="41.9635694" lon="12.3628449"><ele>104.0</ele><time>2026-03-28T09:48:22.058Z</time></trkpt><trkpt lat="41.9637274" lon="12.3629807"><ele>104.0</ele><time>2026-03-28T09:48:23.052Z</time></trkpt><trkpt lat="41.963895" lon="12.3631093"><ele>104.0</ele><time>2026-03-28T09:48:24.056Z</time></trkpt><trkpt lat="41.9640596" lon="12.363258"><ele>104.0</ele><time>2026-03-28T09:48:25.057Z</time></trkpt><trkpt lat="41.9642123" lon="12.3634094"><ele>104.0</ele><time>2026-03-28T09:48:26.055Z</time></trkpt><trkpt lat="41.9643602" lon="12.3635536"><ele>104.33333333333333</ele><time>2026-03-28T09:48:27.052Z</time></trkpt><trkpt lat="41.9645153" lon="12.363685"><ele>104.66666666666666</ele><time>2026-03-28T09:48:28.05Z</time></trkpt><trkpt lat="41.9646645" lon="12.363821"><ele>105.0</ele><time>2026-03-28T09:48:29.063Z</time></trkpt><trkpt lat="41.9648129" lon="12.3639598"><ele>105.0</ele><time>2026-03-28T09:48:30.063Z</time></trkpt><trkpt lat="41.9649658" lon="12.3640946"><ele>105.0</ele><time>2026-03-28T09:48:31.053Z</time></trkpt><trkpt lat="41.9651092" lon="12.364219"><ele>105.0</ele><time>2026-03-28T09:48:32.051Z</time></trkpt><trkpt lat="41.9652517" lon="12.3643404"><ele>105.66666666666666</ele><time>2026-03-28T09:48:33.056Z</time></trkpt><trkpt lat="41.9653985" lon="12.3644599"><ele>106.33333333333333</ele><time>2026-03-28T09:48:34.061Z</time></trkpt><trkpt lat="41.9655494" lon="12.3645676"><ele>107.0</ele><time>2026-03-28T09:48:35.056Z</time></trkpt><trkpt lat="41.9657258" lon="12.3646476"><ele>107.0</ele><time>2026-03-28T09:48:36.051Z</time></trkpt><trkpt lat="41.9658903" lon="12.3647089"><ele>107.0</ele><time>2026-03-28T09:48:37.053Z</time></trkpt><trkpt lat="41.9660614" lon="12.3647588"><ele>107.0</ele><time>2026-03-28T09:48:38.073Z</time></trkpt><trkpt lat="41.9662293" lon="12.36483"><ele>107.0</ele><time>2026-03-28T09:48:39.05Z</time></trkpt><trkpt lat="41.9663983" lon="12.3648952"><ele>107.0</ele><time>2026-03-28T09:48:40.052Z</time></trkpt><trkpt lat="41.966575" lon="12.3649457"><ele>107.0</ele><time>2026-03-28T09:48:41.048Z</time></trkpt><trkpt lat="41.9667485" lon="12.3650153"><ele>107.0</ele><time>2026-03-28T09:48:42.053Z</time></trkpt><trkpt lat="41.9669253" lon="12.3650947"><ele>107.0</ele><time>2026-03-28T09:48:43.051Z</time></trkpt><trkpt lat="41.9671149" lon="12.365152"><ele>107.0</ele><time>2026-03-28T09:48:44.059Z</time></trkpt><trkpt lat="41.9673043" lon="12.3652204"><ele>107.0</ele><time>2026-03-28T09:48:45.055Z</time></trkpt><trkpt lat="41.9674884" lon="12.3652985"><ele>107.0</ele><time>2026-03-28T09:48:46.056Z</time></trkpt><trkpt lat="41.9676778" lon="12.365361"><ele>107.0</ele><time>2026-03-28T09:48:47.054Z</time></trkpt><trkpt lat="41.9678663" lon="12.3654189"><ele>107.66666666666666</ele><time>2026-03-28T09:48:48.052Z</time></trkpt><trkpt lat="41.9680479" lon="12.3654916"><ele>108.33333333333334</ele><time>2026-03-28T09:48:49.067Z</time></trkpt><trkpt lat="41.9682352" lon="12.3655653"><ele>109.0</ele><time>2026-03-28T09:48:50.059Z</time></trkpt><trkpt lat="41.9684191" lon="12.3656302"><ele>110.0</ele><time>2026-03-28T09:48:51.058Z</time></trkpt><trkpt lat="41.9685979" lon="12.3657124"><ele>111.0</ele><time>2026-03-28T09:48:52.054Z</time></trkpt><trkpt lat="41.9687702" lon="12.3657792"><ele>112.0</ele><time>2026-03-28T09:48:53.056Z</time></trkpt><trkpt lat="41.9689516" lon="12.3658506"><ele>112.0</ele><time>2026-03-28T09:48:54.059Z</time></trkpt><trkpt lat="41.9691295" lon="12.3659139"><ele>112.0</ele><time>2026-03-28T09:48:55.055Z</time></trkpt><trkpt lat="41.9693051" lon="12.3659708"><ele>112.0</ele><time>2026-03-28T09:48:56.054Z</time></trkpt><trkpt lat="41.9694804" lon="12.3660356"><ele>113.33333333333334</ele><time>2026-03-28T09:48:57.056Z</time></trkpt><trkpt lat="41.9696492" lon="12.3660983"><ele>114.66666666666666</ele><time>2026-03-28T09:48:58.053Z</time></trkpt><trkpt lat="41.969825" lon="12.3661733"><ele>116.0</ele><time>2026-03-28T09:48:59.055Z</time></trkpt><trkpt lat="41.9699961" lon="12.3662358"><ele>115.66666666666666</ele><time>2026-03-28T09:49:00.05Z</time></trkpt><trkpt lat="41.9701633" lon="12.3662958"><ele>115.33333333333334</ele><time>2026-03-28T09:49:01.053Z</time></trkpt><trkpt lat="41.9703275" lon="12.3663551"><ele>115.0</ele><time>2026-03-28T09:49:02.053Z</time></trkpt><trkpt lat="41.9705011" lon="12.3664082"><ele>115.0</ele><time>2026-03-28T09:49:03.068Z</time></trkpt><trkpt lat="41.9706675" lon="12.3664697"><ele>115.0</ele><time>2026-03-28T09:49:04.059Z</time></trkpt><trkpt lat="41.9708417" lon="12.3665389"><ele>115.0</ele><time>2026-03-28T09:49:05.055Z</time></trkpt><trkpt lat="41.9710009" lon="12.3666065"><ele>113.66666666666667</ele><time>2026-03-28T09:49:06.053Z</time></trkpt><trkpt lat="41.9711488" lon="12.366689"><ele>112.33333333333334</ele><time>2026-03-28T09:49:07.052Z</time></trkpt><trkpt lat="41.97128" lon="12.3667908"><ele>111.0</ele><time>2026-03-28T09:49:08.061Z</time></trkpt><trkpt lat="41.9714199" lon="12.3669176"><ele>111.0</ele><time>2026-03-28T09:49:09.057Z</time></trkpt><trkpt lat="41.9715672" lon="12.3670657"><ele>111.0</ele><time>2026-03-28T09:49:10.054Z</time></trkpt><trkpt lat="41.9717163" lon="12.3672295"><ele>111.0</ele><time>2026-03-28T09:49:11.065Z</time></trkpt><trkpt lat="41.9718565" lon="12.3673824"><ele>110.66666666666666</ele><time>2026-03-28T09:49:12.055Z</time></trkpt><trkpt lat="41.9720076" lon="12.3675033"><ele>110.33333333333333</ele><time>2026-03-28T09:49:13.053Z</time></trkpt><trkpt lat="41.9721516" lon="12.3675886"><ele>110.0</ele><time>2026-03-28T09:49:14.062Z</time></trkpt><trkpt lat="41.9723055" lon="12.367671"><ele>110.0</ele><time>2026-03-28T09:49:15.052Z</time></trkpt><trkpt lat="41.9724658" lon="12.3677113"><ele>110.0</ele><time>2026-03-28T09:49:16.059Z</time></trkpt><trkpt lat="41.9726228" lon="12.3677227"><ele>110.0</ele><time>2026-03-28T09:49:17.055Z</time></trkpt><trkpt lat="41.9727836" lon="12.3677352"><ele>109.66666666666666</ele><time>2026-03-28T09:49:18.062Z</time></trkpt><trkpt lat="41.9729535" lon="12.3677305"><ele>109.33333333333334</ele><time>2026-03-28T09:49:19.061Z</time></trkpt><trkpt lat="41.9731289" lon="12.3676859"><ele>109.0</ele><time>2026-03-28T09:49:20.067Z</time></trkpt><trkpt lat="41.9732922" lon="12.3675976"><ele>108.66666666666667</ele><time>2026-03-28T09:49:21.053Z</time></trkpt><trkpt lat="41.9734595" lon="12.3675235"><ele>108.33333333333334</ele><time>2026-03-28T09:49:22.063Z</time></trkpt><trkpt lat="41.9736464" lon="12.3674316"><ele>108.0</ele><time>2026-03-28T09:49:23.055Z</time></trkpt><trkpt lat="41.9738178" lon="12.3673563"><ele>108.0</ele><time>2026-03-28T09:49:24.06Z</time></trkpt><trkpt lat="41.9739875" lon="12.367278"><ele>108.0</ele><time>2026-03-28T09:49:25.055Z</time></trkpt><trkpt lat="41.9741593" lon="12.3671939"><ele>108.0</ele><time>2026-03-28T09:49:26.055Z</time></trkpt><trkpt lat="41.9743374" lon="12.367107"><ele>109.66666666666666</ele><time>2026-03-28T09:49:27.053Z</time></trkpt><trkpt lat="41.9745182" lon="12.3670262"><ele>111.33333333333333</ele><time>2026-03-28T09:49:28.076Z</time></trkpt><trkpt lat="41.9747016" lon="12.3669419"><ele>113.0</ele><time>2026-03-28T09:49:29.055Z</time></trkpt><trkpt lat="41.974866" lon="12.3668674"><ele>113.66666666666666</ele><time>2026-03-28T09:49:30.067Z</time></trkpt><trkpt lat="41.9750331" lon="12.366814"><ele>114.33333333333334</ele><time>2026-03-28T09:49:31.058Z</time></trkpt><trkpt lat="41.9752141" lon="12.3667771"><ele>115.0</ele><time>2026-03-28T09:49:32.061Z</time></trkpt><trkpt lat="41.9753955" lon="12.3667603"><ele>115.0</ele><time>2026-03-28T09:49:33.05Z</time></trkpt><trkpt lat="41.9755665" lon="12.366781"><ele>115.0</ele><time>2026-03-28T09:49:34.049Z</time></trkpt><trkpt lat="41.9757284" lon="12.3668225"><ele>115.0</ele><time>2026-03-28T09:49:35.056Z</time></trkpt><trkpt lat="41.9758847" lon="12.3668881"><ele>115.33333333333334</ele><time>2026-03-28T09:49:36.057Z</time></trkpt><trkpt lat="41.9760441" lon="12.3669508"><ele>115.66666666666666</ele><time>2026-03-28T09:49:37.058Z</time></trkpt><trkpt lat="41.9762074" lon="12.3670034"><ele>116.0</ele><time>2026-03-28T09:49:38.051Z</time></trkpt><trkpt lat="41.9763607" lon="12.3670668"><ele>116.0</ele><time>2026-03-28T09:49:39.059Z</time></trkpt><trkpt lat="41.9765284" lon="12.3671219"><ele>116.0</ele><time>2026-03-28T09:49:40.055Z</time></trkpt><trkpt lat="41.9766934" lon="12.3671888"><ele>116.0</ele><time>2026-03-28T09:49:41.06Z</time></trkpt><trkpt lat="41.9768611" lon="12.3672419"><ele>115.66666666666666</ele><time>2026-03-28T09:49:42.067Z</time></trkpt><trkpt lat="41.9770525" lon="12.3672799"><ele>115.33333333333334</ele><time>2026-03-28T09:49:43.058Z</time></trkpt><trkpt lat="41.9772296" lon="12.3673321"><ele>115.0</ele><time>2026-03-28T09:49:44.06Z</time></trkpt><trkpt lat="41.9773797" lon="12.3674014"><ele>116.0</ele><time>2026-03-28T09:49:45.056Z</time></trkpt><trkpt lat="41.9775418" lon="12.3674707"><ele>117.0</ele><time>2026-03-28T09:49:46.058Z</time></trkpt><trkpt lat="41.9776992" lon="12.3675323"><ele>118.0</ele><time>2026-03-28T09:49:47.053Z</time></trkpt><trkpt lat="41.977875" lon="12.3675829"><ele>118.0</ele><time>2026-03-28T09:49:48.058Z</time></trkpt><trkpt lat="41.9780433" lon="12.367628"><ele>118.0</ele><time>2026-03-28T09:49:49.051Z</time></trkpt><trkpt lat="41.9782096" lon="12.3676534"><ele>118.0</ele><time>2026-03-28T09:49:50.061Z</time></trkpt><trkpt lat="41.9783827" lon="12.3676663"><ele>118.66666666666667</ele><time>2026-03-28T09:49:51.05Z</time></trkpt><trkpt lat="41.9785678" lon="12.3676682"><ele>119.33333333333334</ele><time>2026-03-28T09:49:52.06Z</time></trkpt><trkpt lat="41.9787532" lon="12.3676589"><ele>120.0</ele><time>2026-03-28T09:49:53.05Z</time></trkpt><trkpt lat="41.9789359" lon="12.3676437"><ele>120.0</ele><time>2026-03-28T09:49:54.062Z</time></trkpt><trkpt lat="41.9791126" lon="12.367639"><ele>120.0</ele><time>2026-03-28T09:49:55.056Z</time></trkpt><trkpt lat="41.9792887" lon="12.3676367"><ele>120.0</ele><time>2026-03-28T09:49:56.06Z</time></trkpt><trkpt lat="41.9794635" lon="12.3676345"><ele>120.33333333333334</ele><time>2026-03-28T09:49:57.055Z</time></trkpt><trkpt lat="41.9796401" lon="12.367635"><ele>120.66666666666667</ele><time>2026-03-28T09:49:58.065Z</time></trkpt><trkpt lat="41.9798174" lon="12.3676259"><ele>121.0</ele><time>2026-03-28T09:49:59.058Z</time></trkpt><trkpt lat="41.98" lon="12.3676233"><ele>122.33333333333334</ele><time>2026-03-28T09:50:00.057Z</time></trkpt><trkpt lat="41.9801787" lon="12.3676025"><ele>123.66666666666666</ele><time>2026-03-28T09:50:01.055Z</time></trkpt><trkpt lat="41.98036" lon="12.3675787"><ele>125.0</ele><time>2026-03-28T09:50:02.055Z</time></trkpt><trkpt lat="41.9805377" lon="12.3675468"><ele>125.0</ele><time>2026-03-28T09:50:03.052Z</time></trkpt><trkpt lat="41.9807196" lon="12.3675153"><ele>125.0</ele><time>2026-03-28T09:50:04.053Z</time></trkpt><trkpt lat="41.9809099" lon="12.3674891"><ele>125.0</ele><time>2026-03-28T09:50:05.063Z</time></trkpt><trkpt lat="41.9810809" lon="12.3674811"><ele>125.66666666666666</ele><time>2026-03-28T09:50:06.062Z</time></trkpt><trkpt lat="41.9812588" lon="12.3674585"><ele>126.33333333333334</ele><time>2026-03-28T09:50:07.053Z</time></trkpt><trkpt lat="41.9814171" lon="12.3674792"><ele>127.0</ele><time>2026-03-28T09:50:08.068Z</time></trkpt><trkpt lat="41.981596" lon="12.3675084"><ele>128.0</ele><time>2026-03-28T09:50:09.051Z</time></trkpt><trkpt lat="41.9817805" lon="12.3675451"><ele>129.0</ele><time>2026-03-28T09:50:10.06Z</time></trkpt><trkpt lat="41.9819663" lon="12.3676072"><ele>130.0</ele><time>2026-03-28T09:50:11.049Z</time></trkpt><trkpt lat="41.9821518" lon="12.3676616"><ele>130.0</ele><time>2026-03-28T09:50:12.05Z</time></trkpt><trkpt lat="41.9823469" lon="12.3677157"><ele>130.0</ele><time>2026-03-28T09:50:13.05Z</time></trkpt><trkpt lat="41.9825463" lon="12.3677688"><ele>130.0</ele><time>2026-03-28T09:50:14.057Z</time></trkpt><trkpt lat="41.9827281" lon="12.3678251"><ele>129.33333333333334</ele><time>2026-03-28T09:50:15.058Z</time></trkpt><trkpt lat="41.9828991" lon="12.3678727"><ele>128.66666666666666</ele><time>2026-03-28T09:50:16.053Z</time></trkpt><trkpt lat="41.9830777" lon="12.3679293"><ele>128.0</ele><time>2026-03-28T09:50:17.06Z</time></trkpt><trkpt lat="41.983236" lon="12.3679951"><ele>128.66666666666666</ele><time>2026-03-28T09:50:18.064Z</time></trkpt><trkpt lat="41.9833948" lon="12.368063"><ele>129.33333333333334</ele><time>2026-03-28T09:50:19.052Z</time></trkpt><trkpt lat="41.9835345" lon="12.3681558"><ele>130.0</ele><time>2026-03-28T09:50:20.047Z</time></trkpt><trkpt lat="41.9836609" lon="12.3682964"><ele>130.0</ele><time>2026-03-28T09:50:21.059Z</time></trkpt><trkpt lat="41.9837683" lon="12.3684583"><ele>130.0</ele><time>2026-03-28T09:50:22.051Z</time></trkpt><trkpt lat="41.9838573" lon="12.3686423"><ele>130.0</ele><time>2026-03-28T09:50:23.051Z</time></trkpt><trkpt lat="41.9839616" lon="12.3688219"><ele>130.33333333333334</ele><time>2026-03-28T09:50:24.054Z</time></trkpt><trkpt lat="41.9840671" lon="12.3689977"><ele>130.66666666666666</ele><time>2026-03-28T09:50:25.061Z</time></trkpt><trkpt lat="41.9841768" lon="12.3691547"><ele>131.0</ele><time>2026-03-28T09:50:26.066Z</time></trkpt><trkpt lat="41.9842889" lon="12.3693151"><ele>131.0</ele><time>2026-03-28T09:50:27.057Z</time></trkpt><trkpt lat="41.9843926" lon="12.3694163"><ele>131.0</ele><time>2026-03-28T09:50:28.049Z</time></trkpt><trkpt lat="41.9845471" lon="12.3694873"><ele>131.0</ele><time>2026-03-28T09:50:29.05Z</time></trkpt><trkpt lat="41.9847023" lon="12.3695429"><ele>131.0</ele><time>2026-03-28T09:50:30.047Z</time></trkpt><trkpt lat="41.9848645" lon="12.3696112"><ele>131.0</ele><time>2026-03-28T09:50:31.057Z</time></trkpt><trkpt lat="41.9850262" lon="12.3696853"><ele>131.0</ele><time>2026-03-28T09:50:32.052Z</time></trkpt><trkpt lat="41.9851742" lon="12.3697439"><ele>131.5</ele><time>2026-03-28T09:50:33.05Z</time></trkpt><trkpt lat="41.9853187" lon="12.3697933"><ele>132.0</ele><time>2026-03-28T09:50:34.049Z</time></trkpt><trkpt lat="41.9854575" lon="12.3698173"><ele>132.5</ele><time>2026-03-28T09:50:35.053Z</time></trkpt><trkpt lat="41.9856137" lon="12.3698305"><ele>133.0</ele><time>2026-03-28T09:50:36.049Z</time></trkpt><trkpt lat="41.9857786" lon="12.3698361"><ele>133.33333333333334</ele><time>2026-03-28T09:50:37.055Z</time></trkpt><trkpt lat="41.9859433" lon="12.3698396"><ele>133.66666666666666</ele><time>2026-03-28T09:50:38.06Z</time></trkpt><trkpt lat="41.9860998" lon="12.3698495"><ele>134.0</ele><time>2026-03-28T09:50:39.05Z</time></trkpt><trkpt lat="41.986265" lon="12.3698506"><ele>134.0</ele><time>2026-03-28T09:50:40.056Z</time></trkpt><trkpt lat="41.9864325" lon="12.3698674"><ele>134.0</ele><time>2026-03-28T09:50:41.05Z</time></trkpt><trkpt lat="41.9866055" lon="12.3698871"><ele>134.0</ele><time>2026-03-28T09:50:42.059Z</time></trkpt><trkpt lat="41.9867806" lon="12.3698909"><ele>133.66666666666666</ele><time>2026-03-28T09:50:43.056Z</time></trkpt><trkpt lat="41.9869472" lon="12.3698936"><ele>133.33333333333334</ele><time>2026-03-28T09:50:44.053Z</time></trkpt><trkpt lat="41.9871192" lon="12.3699007"><ele>133.0</ele><time>2026-03-28T09:50:45.057Z</time></trkpt><trkpt lat="41.9872936" lon="12.3699185"><ele>133.0</ele><time>2026-03-28T09:50:46.053Z</time></trkpt><trkpt lat="41.9874749" lon="12.3699267"><ele>133.0</ele><time>2026-03-28T09:50:47.063Z</time></trkpt><trkpt lat="41.9876433" lon="12.3699426"><ele>133.0</ele><time>2026-03-28T09:50:48.051Z</time></trkpt><trkpt lat="41.9878135" lon="12.3699619"><ele>133.33333333333334</ele><time>2026-03-28T09:50:49.058Z</time></trkpt><trkpt lat="41.9879869" lon="12.369979"><ele>133.66666666666666</ele><time>2026-03-28T09:50:50.053Z</time></trkpt><trkpt lat="41.9881558" lon="12.3700048"><ele>134.0</ele><time>2026-03-28T09:50:51.053Z</time></trkpt><trkpt lat="41.988333" lon="12.3700506"><ele>134.66666666666666</ele><time>2026-03-28T09:50:52.047Z</time></trkpt><trkpt lat="41.9885017" lon="12.3701348"><ele>135.33333333333334</ele><time>2026-03-28T09:50:53.058Z</time></trkpt><trkpt lat="41.9886594" lon="12.3702255"><ele>136.0</ele><time>2026-03-28T09:50:54.05Z</time></trkpt><trkpt lat="41.9888265" lon="12.3703162"><ele>136.0</ele><time>2026-03-28T09:50:55.058Z</time></trkpt><trkpt lat="41.9889959" lon="12.3704076"><ele>136.0</ele><time>2026-03-28T09:50:56.054Z</time></trkpt><trkpt lat="41.9891615" lon="12.3705016"><ele>136.0</ele><time>2026-03-28T09:50:57.057Z</time></trkpt><trkpt lat="41.989327" lon="12.3706014"><ele>136.66666666666669</ele><time>2026-03-28T09:50:58.054Z</time></trkpt><trkpt lat="41.98949" lon="12.3707043"><ele>137.33333333333334</ele><time>2026-03-28T09:50:59.058Z</time></trkpt><trkpt lat="41.9896476" lon="12.3708095"><ele>138.0</ele><time>2026-03-28T09:51:00.049Z</time></trkpt><trkpt lat="41.9898199" lon="12.3709199"><ele>138.0</ele><time>2026-03-28T09:51:01.056Z</time></trkpt><trkpt lat="41.9899828" lon="12.3710093"><ele>138.0</ele><time>2026-03-28T09:51:02.052Z</time></trkpt><trkpt lat="41.9901492" lon="12.3710991"><ele>138.0</ele><time>2026-03-28T09:51:03.067Z</time></trkpt><trkpt lat="41.9903208" lon="12.3712009"><ele>139.0</ele><time>2026-03-28T09:51:04.08Z</time></trkpt><trkpt lat="41.9904763" lon="12.3713198"><ele>140.0</ele><time>2026-03-28T09:51:05.062Z</time></trkpt><trkpt lat="41.990632" lon="12.37145"><ele>141.0</ele><time>2026-03-28T09:51:06.056Z</time></trkpt><trkpt lat="41.9907746" lon="12.3715913"><ele>139.0</ele><time>2026-03-28T09:51:07.048Z</time></trkpt><trkpt lat="41.9909178" lon="12.371733"><ele>137.0</ele><time>2026-03-28T09:51:08.072Z</time></trkpt><trkpt lat="41.9910635" lon="12.3718739"><ele>135.0</ele><time>2026-03-28T09:51:09.058Z</time></trkpt><trkpt lat="41.9912183" lon="12.3720146"><ele>135.0</ele><time>2026-03-28T09:51:10.05Z</time></trkpt><trkpt lat="41.9913623" lon="12.3721542"><ele>135.0</ele><time>2026-03-28T09:51:11.058Z</time></trkpt><trkpt lat="41.9915099" lon="12.372291"><ele>135.0</ele><time>2026-03-28T09:51:12.049Z</time></trkpt><trkpt lat="41.9916608" lon="12.3724258"><ele>135.66666666666666</ele><time>2026-03-28T09:51:13.058Z</time></trkpt><trkpt lat="41.9918007" lon="12.3725597"><ele>136.33333333333331</ele><time>2026-03-28T09:51:14.055Z</time></trkpt><trkpt lat="41.9919411" lon="12.3726906"><ele>137.0</ele><time>2026-03-28T09:51:15.06Z</time></trkpt><trkpt lat="41.9920865" lon="12.372797"><ele>137.0</ele><time>2026-03-28T09:51:16.058Z</time></trkpt><trkpt lat="41.9922424" lon="12.3728813"><ele>137.0</ele><time>2026-03-28T09:51:17.049Z</time></trkpt><trkpt lat="41.9924134" lon="12.3729298"><ele>137.0</ele><time>2026-03-28T09:51:18.059Z</time></trkpt><trkpt lat="41.9925789" lon="12.3729623"><ele>138.33333333333331</ele><time>2026-03-28T09:51:19.05Z</time></trkpt><trkpt lat="41.9927508" lon="12.3730145"><ele>139.66666666666666</ele><time>2026-03-28T09:51:20.059Z</time></trkpt><trkpt lat="41.9929403" lon="12.3730703"><ele>141.0</ele><time>2026-03-28T09:51:21.054Z</time></trkpt><trkpt lat="41.9931303" lon="12.3731204"><ele>141.66666666666666</ele><time>2026-03-28T09:51:22.061Z</time></trkpt><trkpt lat="41.9933094" lon="12.3731722"><ele>142.33333333333331</ele><time>2026-03-28T09:51:23.058Z</time></trkpt><trkpt lat="41.9934705" lon="12.373227"><ele>143.0</ele><time>2026-03-28T09:51:24.062Z</time></trkpt><trkpt lat="41.9936351" lon="12.3732762"><ele>143.0</ele><time>2026-03-28T09:51:25.054Z</time></trkpt><trkpt lat="41.993796" lon="12.3733098"><ele>143.0</ele><time>2026-03-28T09:51:26.054Z</time></trkpt><trkpt lat="41.9939595" lon="12.3733318"><ele>143.0</ele><time>2026-03-28T09:51:27.062Z</time></trkpt><trkpt lat="41.9941197" lon="12.3733254"><ele>143.0</ele><time>2026-03-28T09:51:28.05Z</time></trkpt><trkpt lat="41.9942691" lon="12.3732726"><ele>143.0</ele><time>2026-03-28T09:51:29.053Z</time></trkpt><trkpt lat="41.9944364" lon="12.3732101"><ele>143.0</ele><time>2026-03-28T09:51:30.057Z</time></trkpt><trkpt lat="41.9945804" lon="12.3731303"><ele>143.0</ele><time>2026-03-28T09:51:31.057Z</time></trkpt><trkpt lat="41.994743" lon="12.3730497"><ele>143.0</ele><time>2026-03-28T09:51:32.061Z</time></trkpt><trkpt lat="41.9949002" lon="12.3729651"><ele>143.0</ele><time>2026-03-28T09:51:33.051Z</time></trkpt><trkpt lat="41.9950628" lon="12.3728768"><ele>144.66666666666666</ele><time>2026-03-28T09:51:34.064Z</time></trkpt><trkpt lat="41.9952107" lon="12.372809"><ele>146.33333333333334</ele><time>2026-03-28T09:51:35.047Z</time></trkpt><trkpt lat="41.995361" lon="12.3727776"><ele>148.0</ele><time>2026-03-28T09:51:36.056Z</time></trkpt><trkpt lat="41.9955312" lon="12.3727653"><ele>148.0</ele><time>2026-03-28T09:51:37.048Z</time></trkpt><trkpt lat="41.9956936" lon="12.3727809"><ele>148.0</ele><time>2026-03-28T09:51:38.055Z</time></trkpt><trkpt lat="41.9958516" lon="12.3728258"><ele>148.0</ele><time>2026-03-28T09:51:39.049Z</time></trkpt><trkpt lat="41.9960118" lon="12.3728983"><ele>148.0</ele><time>2026-03-28T09:51:40.049Z</time></trkpt><trkpt lat="41.9961559" lon="12.372974"><ele>148.0</ele><time>2026-03-28T09:51:41.054Z</time></trkpt><trkpt lat="41.9963053" lon="12.373048"><ele>148.0</ele><time>2026-03-28T09:51:42.051Z</time></trkpt><trkpt lat="41.9964324" lon="12.3731832"><ele>148.0</ele><time>2026-03-28T09:51:43.072Z</time></trkpt><trkpt lat="41.9965341" lon="12.3733627"><ele>148.0</ele><time>2026-03-28T09:51:44.049Z</time></trkpt><trkpt lat="41.9966153" lon="12.3735412"><ele>148.0</ele><time>2026-03-28T09:51:45.05Z</time></trkpt><trkpt lat="41.9966672" lon="12.3737461"><ele>149.0</ele><time>2026-03-28T09:51:46.048Z</time></trkpt><trkpt lat="41.996735" lon="12.3739072"><ele>150.0</ele><time>2026-03-28T09:51:47.065Z</time></trkpt><trkpt lat="41.9968038" lon="12.3740582"><ele>151.0</ele><time>2026-03-28T09:51:48.06Z</time></trkpt><trkpt lat="41.9969314" lon="12.374177"><ele>152.0</ele><time>2026-03-28T09:51:49.054Z</time></trkpt><trkpt lat="41.9970628" lon="12.3742728"><ele>152.0</ele><time>2026-03-28T09:51:50.051Z</time></trkpt><trkpt lat="41.9972007" lon="12.3743582"><ele>152.0</ele><time>2026-03-28T09:51:51.056Z</time></trkpt><trkpt lat="41.9973212" lon="12.3744648"><ele>152.0</ele><time>2026-03-28T09:51:52.059Z</time></trkpt><trkpt lat="41.9974294" lon="12.3745807"><ele>152.0</ele><time>2026-03-28T09:51:53.051Z</time></trkpt><trkpt lat="41.9975304" lon="12.3746741"><ele>151.75</ele><time>2026-03-28T09:51:54.055Z</time></trkpt><trkpt lat="41.9976331" lon="12.3747625"><ele>151.5</ele><time>2026-03-28T09:51:55.052Z</time></trkpt><trkpt lat="41.9977397" lon="12.3748266"><ele>151.25</ele><time>2026-03-28T09:51:56.059Z</time></trkpt><trkpt lat="41.9978406" lon="12.3748789"><ele>151.0</ele><time>2026-03-28T09:51:57.051Z</time></trkpt><trkpt lat="41.9979682" lon="12.3749"><ele>151.0</ele><time>2026-03-28T09:51:58.07Z</time></trkpt><trkpt lat="41.9981094" lon="12.3748762"><ele>151.0</ele><time>2026-03-28T09:51:59.051Z</time></trkpt><trkpt lat="41.9982258" lon="12.3748737"><ele>151.0</ele><time>2026-03-28T09:52:00.05Z</time></trkpt><trkpt lat="41.9983599" lon="12.3748517"><ele>151.0</ele><time>2026-03-28T09:52:01.05Z</time></trkpt><trkpt lat="41.998496" lon="12.3748293"><ele>150.5</ele><time>2026-03-28T09:52:02.06Z</time></trkpt><trkpt lat="41.9986304" lon="12.3748099"><ele>150.0</ele><time>2026-03-28T09:52:03.056Z</time></trkpt><trkpt lat="41.9987494" lon="12.3747943"><ele>149.5</ele><time>2026-03-28T09:52:04.057Z</time></trkpt><trkpt lat="41.9988701" lon="12.3747678"><ele>149.0</ele><time>2026-03-28T09:52:05.049Z</time></trkpt><trkpt lat="41.9989976" lon="12.3747235"><ele>149.0</ele><time>2026-03-28T09:52:06.05Z</time></trkpt><trkpt lat="41.9991234" lon="12.374689"><ele>149.0</ele><time>2026-03-28T09:52:07.054Z</time></trkpt><trkpt lat="41.9992327" lon="12.3746499"><ele>149.0</ele><time>2026-03-28T09:52:08.051Z</time></trkpt><trkpt lat="41.9993388" lon="12.3746072"><ele>149.0</ele><time>2026-03-28T09:52:09.06Z</time></trkpt><trkpt lat="41.9994457" lon="12.3745495"><ele>150.25</ele><time>2026-03-28T09:52:10.048Z</time></trkpt><trkpt lat="41.9995543" lon="12.374498"><ele>151.5</ele><time>2026-03-28T09:52:11.054Z</time></trkpt><trkpt lat="41.999675" lon="12.3744585"><ele>152.75</ele><time>2026-03-28T09:52:12.053Z</time></trkpt><trkpt lat="41.9998047" lon="12.3744512"><ele>154.0</ele><time>2026-03-28T09:52:13.057Z</time></trkpt><trkpt lat="41.9999189" lon="12.3744583"><ele>154.0</ele><time>2026-03-28T09:52:14.05Z</time></trkpt><trkpt lat="42.0000296" lon="12.3744931"><ele>154.0</ele><time>2026-03-28T09:52:15.054Z</time></trkpt><trkpt lat="42.0001396" lon="12.3745594"><ele>154.0</ele><time>2026-03-28T09:52:16.051Z</time></trkpt><trkpt lat="42.0002383" lon="12.3746495"><ele>154.0</ele><time>2026-03-28T09:52:17.055Z</time></trkpt><trkpt lat="42.0003404" lon="12.3747422"><ele>153.0</ele><time>2026-03-28T09:52:18.051Z</time></trkpt><trkpt lat="42.0004436" lon="12.3748485"><ele>152.0</ele><time>2026-03-28T09:52:19.051Z</time></trkpt><trkpt lat="42.0005325" lon="12.3749631"><ele>151.0</ele><time>2026-03-28T09:52:20.057Z</time></trkpt><trkpt lat="42.0006151" lon="12.3751037"><ele>150.0</ele><time>2026-03-28T09:52:21.056Z</time></trkpt><trkpt lat="42.0006946" lon="12.3752433"><ele>150.0</ele><time>2026-03-28T09:52:22.049Z</time></trkpt><trkpt lat="42.0007883" lon="12.3753738"><ele>150.0</ele><time>2026-03-28T09:52:23.059Z</time></trkpt><trkpt lat="42.0008824" lon="12.3755152"><ele>150.0</ele><time>2026-03-28T09:52:24.052Z</time></trkpt><trkpt lat="42.0009728" lon="12.3756646"><ele>150.0</ele><time>2026-03-28T09:52:25.056Z</time></trkpt><trkpt lat="42.0010667" lon="12.3758083"><ele>150.75</ele><time>2026-03-28T09:52:26.051Z</time></trkpt><trkpt lat="42.0011697" lon="12.3759516"><ele>151.5</ele><time>2026-03-28T09:52:27.056Z</time></trkpt><trkpt lat="42.001267" lon="12.3760942"><ele>152.25</ele><time>2026-03-28T09:52:28.056Z</time></trkpt><trkpt lat="42.0013535" lon="12.3762345"><ele>153.0</ele><time>2026-03-28T09:52:29.06Z</time></trkpt><trkpt lat="42.0014463" lon="12.376379"><ele>153.0</ele><time>2026-03-28T09:52:30.055Z</time></trkpt><trkpt lat="42.0015403" lon="12.3765316"><ele>153.0</ele><time>2026-03-28T09:52:31.053Z</time></trkpt><trkpt lat="42.0016427" lon="12.3766749"><ele>153.0</ele><time>2026-03-28T09:52:32.053Z</time></trkpt><trkpt lat="42.0017457" lon="12.3768266"><ele>153.0</ele><time>2026-03-28T09:52:33.067Z</time></trkpt><trkpt lat="42.0018373" lon="12.3769702"><ele>154.5</ele><time>2026-03-28T09:52:34.054Z</time></trkpt><trkpt lat="42.0019273" lon="12.3771099"><ele>156.0</ele><time>2026-03-28T09:52:35.056Z</time></trkpt><trkpt lat="42.0020249" lon="12.3772547"><ele>157.5</ele><time>2026-03-28T09:52:36.056Z</time></trkpt><trkpt lat="42.0021185" lon="12.3774198"><ele>159.0</ele><time>2026-03-28T09:52:37.052Z</time></trkpt><trkpt lat="42.0022123" lon="12.3775942"><ele>159.25</ele><time>2026-03-28T09:52:38.049Z</time></trkpt><trkpt lat="42.0022934" lon="12.3777617"><ele>159.5</ele><time>2026-03-28T09:52:39.045Z</time></trkpt><trkpt lat="42.0023689" lon="12.377912"><ele>159.75</ele><time>2026-03-28T09:52:40.053Z</time></trkpt><trkpt lat="42.0024506" lon="12.3780494"><ele>160.0</ele><time>2026-03-28T09:52:41.049Z</time></trkpt><trkpt lat="42.0025425" lon="12.3781753"><ele>161.0</ele><time>2026-03-28T09:52:42.049Z</time></trkpt><trkpt lat="42.0026334" lon="12.378298"><ele>162.0</ele><time>2026-03-28T09:52:43.045Z</time></trkpt><trkpt lat="42.0027264" lon="12.3784111"><ele>163.0</ele><time>2026-03-28T09:52:44.054Z</time></trkpt><trkpt lat="42.0028367" lon="12.3785055"><ele>164.0</ele><time>2026-03-28T09:52:45.049Z</time></trkpt><trkpt lat="42.0029586" lon="12.3785782"><ele>164.0</ele><time>2026-03-28T09:52:46.053Z</time></trkpt><trkpt lat="42.0030688" lon="12.3786628"><ele>164.0</ele><time>2026-03-28T09:52:47.055Z</time></trkpt><trkpt lat="42.0031846" lon="12.3787459"><ele>164.0</ele><time>2026-03-28T09:52:48.064Z</time></trkpt><trkpt lat="42.0032961" lon="12.3788284"><ele>164.0</ele><time>2026-03-28T09:52:49.054Z</time></trkpt><trkpt lat="42.0034002" lon="12.3789031"><ele>163.39999999999998</ele><time>2026-03-28T09:52:50.054Z</time></trkpt><trkpt lat="42.003493" lon="12.3789777"><ele>162.8</ele><time>2026-03-28T09:52:51.053Z</time></trkpt><trkpt lat="42.0035798" lon="12.3790524"><ele>162.2</ele><time>2026-03-28T09:52:52.048Z</time></trkpt><trkpt lat="42.0036593" lon="12.3791279"><ele>161.60000000000002</ele><time>2026-03-28T09:52:53.05Z</time></trkpt><trkpt lat="42.0037251" lon="12.3792033"><ele>161.0</ele><time>2026-03-28T09:52:54.046Z</time></trkpt><trkpt lat="42.0037734" lon="12.3792733"><ele>161.0</ele><time>2026-03-28T09:52:55.053Z</time></trkpt><trkpt lat="42.0038766" lon="12.3793435"><ele>161.0</ele><time>2026-03-28T09:52:57.049Z</time></trkpt><trkpt lat="42.0039459" lon="12.3793362"><ele>161.0</ele><time>2026-03-28T09:52:58.056Z</time></trkpt><trkpt lat="42.0040384" lon="12.379306"><ele>161.0</ele><time>2026-03-28T09:52:59.057Z</time></trkpt><trkpt lat="42.0041524" lon="12.3792702"><ele>161.0</ele><time>2026-03-28T09:53:00.051Z</time></trkpt><trkpt lat="42.0042753" lon="12.3792363"><ele>160.8</ele><time>2026-03-28T09:53:01.058Z</time></trkpt><trkpt lat="42.0043977" lon="12.3792123"><ele>160.60000000000002</ele><time>2026-03-28T09:53:02.059Z</time></trkpt><trkpt lat="42.0045164" lon="12.3791917"><ele>160.4</ele><time>2026-03-28T09:53:03.052Z</time></trkpt><trkpt lat="42.0046154" lon="12.3791442"><ele>160.2</ele><time>2026-03-28T09:53:04.05Z</time></trkpt><trkpt lat="42.0046991" lon="12.3790767"><ele>160.0</ele><time>2026-03-28T09:53:05.048Z</time></trkpt><trkpt lat="42.0047722" lon="12.3789841"><ele>160.0</ele><time>2026-03-28T09:53:06.055Z</time></trkpt><trkpt lat="42.0048367" lon="12.3788838"><ele>160.0</ele><time>2026-03-28T09:53:07.05Z</time></trkpt><trkpt lat="42.0049066" lon="12.3788068"><ele>160.0</ele><time>2026-03-28T09:53:08.052Z</time></trkpt><trkpt lat="42.0049969" lon="12.3787732"><ele>160.0</ele><time>2026-03-28T09:53:09.051Z</time></trkpt><trkpt lat="42.0051052" lon="12.3787687"><ele>160.0</ele><time>2026-03-28T09:53:10.054Z</time></trkpt><trkpt lat="42.0052308" lon="12.3787868"><ele>160.25</ele><time>2026-03-28T09:53:11.051Z</time></trkpt><trkpt lat="42.0053721" lon="12.3788163"><ele>160.5</ele><time>2026-03-28T09:53:12.05Z</time></trkpt><trkpt lat="42.0055064" lon="12.3788407"><ele>160.75</ele><time>2026-03-28T09:53:13.054Z</time></trkpt><trkpt lat="42.0056495" lon="12.3788615"><ele>161.0</ele><time>2026-03-28T09:53:14.057Z</time></trkpt><trkpt lat="42.0057974" lon="12.3788572"><ele>160.33333333333331</ele><time>2026-03-28T09:53:15.053Z</time></trkpt><trkpt lat="42.0059535" lon="12.3788253"><ele>159.66666666666666</ele><time>2026-03-28T09:53:16.05Z</time></trkpt><trkpt lat="42.0061105" lon="12.378774"><ele>159.0</ele><time>2026-03-28T09:53:17.047Z</time></trkpt><trkpt lat="42.0062692" lon="12.3787075"><ele>159.0</ele><time>2026-03-28T09:53:18.053Z</time></trkpt><trkpt lat="42.0064064" lon="12.3786169"><ele>159.0</ele><time>2026-03-28T09:53:19.052Z</time></trkpt><trkpt lat="42.0065555" lon="12.3785232"><ele>159.0</ele><time>2026-03-28T09:53:20.058Z</time></trkpt><trkpt lat="42.0067135" lon="12.3784394"><ele>158.66666666666666</ele><time>2026-03-28T09:53:21.047Z</time></trkpt><trkpt lat="42.0068856" lon="12.3783613"><ele>158.33333333333331</ele><time>2026-03-28T09:53:22.058Z</time></trkpt><trkpt lat="42.007064" lon="12.3782852"><ele>158.0</ele><time>2026-03-28T09:53:23.056Z</time></trkpt><trkpt lat="42.0072382" lon="12.3781949"><ele>158.0</ele><time>2026-03-28T09:53:24.046Z</time></trkpt><trkpt lat="42.0073989" lon="12.3780926"><ele>158.0</ele><time>2026-03-28T09:53:25.054Z</time></trkpt><trkpt lat="42.0075501" lon="12.3779715"><ele>158.0</ele><time>2026-03-28T09:53:26.051Z</time></trkpt><trkpt lat="42.0076978" lon="12.3778423"><ele>157.33333333333331</ele><time>2026-03-28T09:53:27.061Z</time></trkpt><trkpt lat="42.0078642" lon="12.3777463"><ele>156.66666666666666</ele><time>2026-03-28T09:53:28.053Z</time></trkpt><trkpt lat="42.0080113" lon="12.3776409"><ele>156.0</ele><time>2026-03-28T09:53:29.059Z</time></trkpt><trkpt lat="42.0081483" lon="12.3775111"><ele>156.0</ele><time>2026-03-28T09:53:30.057Z</time></trkpt><trkpt lat="42.0082734" lon="12.3773701"><ele>156.0</ele><time>2026-03-28T09:53:31.062Z</time></trkpt><trkpt lat="42.0083767" lon="12.3772057"><ele>156.0</ele><time>2026-03-28T09:53:32.05Z</time></trkpt><trkpt lat="42.0084806" lon="12.3770327"><ele>154.0</ele><time>2026-03-28T09:53:33.064Z</time></trkpt><trkpt lat="42.0085592" lon="12.3768206"><ele>152.0</ele><time>2026-03-28T09:53:34.057Z</time></trkpt><trkpt lat="42.0086082" lon="12.3766073"><ele>150.0</ele><time>2026-03-28T09:53:35.053Z</time></trkpt><trkpt lat="42.0086559" lon="12.3763819"><ele>148.33333333333334</ele><time>2026-03-28T09:53:36.057Z</time></trkpt><trkpt lat="42.0086803" lon="12.3761446"><ele>146.66666666666669</ele><time>2026-03-28T09:53:37.048Z</time></trkpt><trkpt lat="42.0087079" lon="12.3759124"><ele>145.0</ele><time>2026-03-28T09:53:38.067Z</time></trkpt><trkpt lat="42.0087501" lon="12.3756802"><ele>145.0</ele><time>2026-03-28T09:53:39.052Z</time></trkpt><trkpt lat="42.008772" lon="12.3754441"><ele>145.0</ele><time>2026-03-28T09:53:40.058Z</time></trkpt><trkpt lat="42.0088086" lon="12.3752055"><ele>145.0</ele><time>2026-03-28T09:53:41.057Z</time></trkpt><trkpt lat="42.0088488" lon="12.3749824"><ele>145.0</ele><time>2026-03-28T09:53:42.057Z</time></trkpt><trkpt lat="42.0088732" lon="12.3747608"><ele>145.0</ele><time>2026-03-28T09:53:43.049Z</time></trkpt><trkpt lat="42.0089005" lon="12.374514"><ele>145.0</ele><time>2026-03-28T09:53:44.054Z</time></trkpt><trkpt lat="42.0089293" lon="12.3742819"><ele>147.0</ele><time>2026-03-28T09:53:45.052Z</time></trkpt><trkpt lat="42.0089538" lon="12.3740379"><ele>149.0</ele><time>2026-03-28T09:53:46.058Z</time></trkpt><trkpt lat="42.0089738" lon="12.3737978"><ele>151.0</ele><time>2026-03-28T09:53:47.054Z</time></trkpt><trkpt lat="42.0089797" lon="12.3735772"><ele>151.0</ele><time>2026-03-28T09:53:48.051Z</time></trkpt><trkpt lat="42.0089701" lon="12.3733369"><ele>151.0</ele><time>2026-03-28T09:53:49.055Z</time></trkpt><trkpt lat="42.0089566" lon="12.3730761"><ele>151.0</ele><time>2026-03-28T09:53:50.057Z</time></trkpt><trkpt lat="42.0089721" lon="12.3727851"><ele>150.66666666666669</ele><time>2026-03-28T09:53:51.054Z</time></trkpt><trkpt lat="42.0089778" lon="12.3724845"><ele>150.33333333333334</ele><time>2026-03-28T09:53:52.048Z</time></trkpt><trkpt lat="42.0089794" lon="12.3721843"><ele>150.0</ele><time>2026-03-28T09:53:53.057Z</time></trkpt><trkpt lat="42.0089896" lon="12.3718886"><ele>152.66666666666666</ele><time>2026-03-28T09:53:54.053Z</time></trkpt><trkpt lat="42.008982" lon="12.3716282"><ele>155.33333333333331</ele><time>2026-03-28T09:53:55.05Z</time></trkpt><trkpt lat="42.008987" lon="12.3713459"><ele>158.0</ele><time>2026-03-28T09:53:56.05Z</time></trkpt><trkpt lat="42.009018" lon="12.3710579"><ele>159.0</ele><time>2026-03-28T09:53:57.051Z</time></trkpt><trkpt lat="42.0090563" lon="12.3707901"><ele>160.0</ele><time>2026-03-28T09:53:58.053Z</time></trkpt><trkpt lat="42.009104" lon="12.3705381"><ele>161.0</ele><time>2026-03-28T09:53:59.048Z</time></trkpt><trkpt lat="42.0091359" lon="12.3702971"><ele>161.0</ele><time>2026-03-28T09:54:00.049Z</time></trkpt><trkpt lat="42.0091839" lon="12.3700531"><ele>161.0</ele><time>2026-03-28T09:54:01.05Z</time></trkpt><trkpt lat="42.0092615" lon="12.3698395"><ele>161.0</ele><time>2026-03-28T09:54:02.052Z</time></trkpt><trkpt lat="42.0093334" lon="12.3696164"><ele>160.33333333333331</ele><time>2026-03-28T09:54:03.049Z</time></trkpt><trkpt lat="42.0094091" lon="12.3694136"><ele>159.66666666666666</ele><time>2026-03-28T09:54:04.048Z</time></trkpt><trkpt lat="42.0094911" lon="12.3692098"><ele>159.0</ele><time>2026-03-28T09:54:05.057Z</time></trkpt><trkpt lat="42.009585" lon="12.3689887"><ele>157.66666666666666</ele><time>2026-03-28T09:54:06.056Z</time></trkpt><trkpt lat="42.009684" lon="12.3687812"><ele>156.33333333333331</ele><time>2026-03-28T09:54:07.049Z</time></trkpt><trkpt lat="42.009799" lon="12.3685693"><ele>155.0</ele><time>2026-03-28T09:54:08.049Z</time></trkpt><trkpt lat="42.0099175" lon="12.3683708"><ele>155.0</ele><time>2026-03-28T09:54:09.052Z</time></trkpt><trkpt lat="42.0100313" lon="12.3682053"><ele>155.0</ele><time>2026-03-28T09:54:10.047Z</time></trkpt><trkpt lat="42.0101431" lon="12.3680402"><ele>155.0</ele><time>2026-03-28T09:54:11.052Z</time></trkpt><trkpt lat="42.0102665" lon="12.3678835"><ele>153.66666666666666</ele><time>2026-03-28T09:54:12.044Z</time></trkpt><trkpt lat="42.010393" lon="12.3677516"><ele>152.33333333333334</ele><time>2026-03-28T09:54:13.048Z</time></trkpt><trkpt lat="42.0105173" lon="12.367615"><ele>151.0</ele><time>2026-03-28T09:54:14.054Z</time></trkpt><trkpt lat="42.0106393" lon="12.3675062"><ele>151.0</ele><time>2026-03-28T09:54:15.05Z</time></trkpt><trkpt lat="42.0107387" lon="12.3673786"><ele>151.0</ele><time>2026-03-28T09:54:16.051Z</time></trkpt><trkpt lat="42.0108526" lon="12.3672499"><ele>151.0</ele><time>2026-03-28T09:54:17.048Z</time></trkpt><trkpt lat="42.0109512" lon="12.3671471"><ele>151.0</ele><time>2026-03-28T09:54:18.055Z</time></trkpt><trkpt lat="42.0110459" lon="12.3670653"><ele>151.5</ele><time>2026-03-28T09:54:19.053Z</time></trkpt><trkpt lat="42.0111596" lon="12.3669723"><ele>152.0</ele><time>2026-03-28T09:54:20.059Z</time></trkpt><trkpt lat="42.0112334" lon="12.3668656"><ele>152.5</ele><time>2026-03-28T09:54:21.047Z</time></trkpt><trkpt lat="42.0113062" lon="12.3667785"><ele>153.0</ele><time>2026-03-28T09:54:22.059Z</time></trkpt><trkpt lat="42.0114169" lon="12.3666995"><ele>153.0</ele><time>2026-03-28T09:54:23.062Z</time></trkpt><trkpt lat="42.0115273" lon="12.3665959"><ele>153.0</ele><time>2026-03-28T09:54:24.046Z</time></trkpt><trkpt lat="42.0116476" lon="12.3664697"><ele>153.0</ele><time>2026-03-28T09:54:25.058Z</time></trkpt><trkpt lat="42.0117885" lon="12.366337"><ele>154.33333333333334</ele><time>2026-03-28T09:54:26.046Z</time></trkpt><trkpt lat="42.0119563" lon="12.366186"><ele>155.66666666666669</ele><time>2026-03-28T09:54:27.06Z</time></trkpt><trkpt lat="42.0120927" lon="12.3660387"><ele>157.0</ele><time>2026-03-28T09:54:28.066Z</time></trkpt><trkpt lat="42.012237" lon="12.3659102"><ele>157.0</ele><time>2026-03-28T09:54:29.058Z</time></trkpt><trkpt lat="42.0123653" lon="12.3657643"><ele>157.0</ele><time>2026-03-28T09:54:30.066Z</time></trkpt><trkpt lat="42.0125073" lon="12.3656083"><ele>157.0</ele><time>2026-03-28T09:54:31.051Z</time></trkpt><trkpt lat="42.0126611" lon="12.3654447"><ele>154.33333333333334</ele><time>2026-03-28T09:54:32.059Z</time></trkpt><trkpt lat="42.0127894" lon="12.3652864"><ele>151.66666666666666</ele><time>2026-03-28T09:54:33.052Z</time></trkpt><trkpt lat="42.0129142" lon="12.3651157"><ele>149.0</ele><time>2026-03-28T09:54:34.048Z</time></trkpt><trkpt lat="42.0130656" lon="12.3649389"><ele>149.0</ele><time>2026-03-28T09:54:35.062Z</time></trkpt><trkpt lat="42.0132177" lon="12.3647859"><ele>149.0</ele><time>2026-03-28T09:54:36.048Z</time></trkpt><trkpt lat="42.0133654" lon="12.3646324"><ele>149.0</ele><time>2026-03-28T09:54:37.052Z</time></trkpt><trkpt lat="42.0135116" lon="12.3644753"><ele>148.0</ele><time>2026-03-28T09:54:38.047Z</time></trkpt><trkpt lat="42.0136658" lon="12.3643344"><ele>147.0</ele><time>2026-03-28T09:54:39.055Z</time></trkpt><trkpt lat="42.0138111" lon="12.3642131"><ele>146.0</ele><time>2026-03-28T09:54:40.054Z</time></trkpt><trkpt lat="42.0139563" lon="12.3640767"><ele>146.0</ele><time>2026-03-28T09:54:41.058Z</time></trkpt><trkpt lat="42.014095" lon="12.3639402"><ele>146.0</ele><time>2026-03-28T09:54:42.061Z</time></trkpt><trkpt lat="42.0142181" lon="12.3638007"><ele>146.0</ele><time>2026-03-28T09:54:43.055Z</time></trkpt><trkpt lat="42.0143499" lon="12.3636449"><ele>144.66666666666666</ele><time>2026-03-28T09:54:44.059Z</time></trkpt><trkpt lat="42.0144612" lon="12.3634649"><ele>143.33333333333334</ele><time>2026-03-28T09:54:45.058Z</time></trkpt><trkpt lat="42.0145817" lon="12.3632735"><ele>142.0</ele><time>2026-03-28T09:54:46.059Z</time></trkpt><trkpt lat="42.0146964" lon="12.3630934"><ele>141.33333333333334</ele><time>2026-03-28T09:54:47.054Z</time></trkpt><trkpt lat="42.0148241" lon="12.3629005"><ele>140.66666666666666</ele><time>2026-03-28T09:54:48.062Z</time></trkpt><trkpt lat="42.0149381" lon="12.3627309"><ele>140.0</ele><time>2026-03-28T09:54:49.049Z</time></trkpt><trkpt lat="42.0150628" lon="12.3625499"><ele>140.0</ele><time>2026-03-28T09:54:50.067Z</time></trkpt><trkpt lat="42.0151813" lon="12.3623814"><ele>140.0</ele><time>2026-03-28T09:54:51.047Z</time></trkpt><trkpt lat="42.0153304" lon="12.3622274"><ele>140.0</ele><time>2026-03-28T09:54:52.054Z</time></trkpt><trkpt lat="42.0154715" lon="12.3620902"><ele>139.66666666666666</ele><time>2026-03-28T09:54:53.046Z</time></trkpt><trkpt lat="42.0156084" lon="12.3619448"><ele>139.33333333333334</ele><time>2026-03-28T09:54:54.054Z</time></trkpt><trkpt lat="42.0157644" lon="12.3617929"><ele>139.0</ele><time>2026-03-28T09:54:55.058Z</time></trkpt><trkpt lat="42.0159129" lon="12.3616614"><ele>139.66666666666669</ele><time>2026-03-28T09:54:56.052Z</time></trkpt><trkpt lat="42.0160544" lon="12.3615308"><ele>140.33333333333334</ele><time>2026-03-28T09:54:57.052Z</time></trkpt><trkpt lat="42.0162043" lon="12.3613955"><ele>141.0</ele><time>2026-03-28T09:54:58.048Z</time></trkpt><trkpt lat="42.0163364" lon="12.3612693"><ele>142.66666666666666</ele><time>2026-03-28T09:54:59.058Z</time></trkpt><trkpt lat="42.0164587" lon="12.361146"><ele>144.33333333333331</ele><time>2026-03-28T09:55:00.054Z</time></trkpt><trkpt lat="42.0165923" lon="12.3610237"><ele>146.0</ele><time>2026-03-28T09:55:01.052Z</time></trkpt><trkpt lat="42.0167159" lon="12.3608958"><ele>146.33333333333331</ele><time>2026-03-28T09:55:02.05Z</time></trkpt><trkpt lat="42.0168393" lon="12.3607672"><ele>146.66666666666666</ele><time>2026-03-28T09:55:03.054Z</time></trkpt><trkpt lat="42.0169554" lon="12.3606182"><ele>147.0</ele><time>2026-03-28T09:55:04.051Z</time></trkpt><trkpt lat="42.0170718" lon="12.3604513"><ele>147.75</ele><time>2026-03-28T09:55:05.065Z</time></trkpt><trkpt lat="42.0171581" lon="12.3602846"><ele>148.5</ele><time>2026-03-28T09:55:06.052Z</time></trkpt><trkpt lat="42.0172344" lon="12.3601177"><ele>149.25</ele><time>2026-03-28T09:55:07.05Z</time></trkpt><trkpt lat="42.0173097" lon="12.3599446"><ele>150.0</ele><time>2026-03-28T09:55:08.051Z</time></trkpt><trkpt lat="42.0173779" lon="12.3597686"><ele>150.5</ele><time>2026-03-28T09:55:09.053Z</time></trkpt><trkpt lat="42.0174468" lon="12.3596033"><ele>151.0</ele><time>2026-03-28T09:55:10.05Z</time></trkpt><trkpt lat="42.01751" lon="12.3594335"><ele>151.5</ele><time>2026-03-28T09:55:11.049Z</time></trkpt><trkpt lat="42.0175788" lon="12.3592671"><ele>152.0</ele><time>2026-03-28T09:55:12.051Z</time></trkpt><trkpt lat="42.0176561" lon="12.3590761"><ele>150.66666666666666</ele><time>2026-03-28T09:55:13.047Z</time></trkpt><trkpt lat="42.0177259" lon="12.3588803"><ele>149.33333333333334</ele><time>2026-03-28T09:55:14.053Z</time></trkpt><trkpt lat="42.0177912" lon="12.3586929"><ele>148.0</ele><time>2026-03-28T09:55:15.051Z</time></trkpt><trkpt lat="42.0178463" lon="12.3584956"><ele>146.66666666666669</ele><time>2026-03-28T09:55:16.052Z</time></trkpt><trkpt lat="42.0178875" lon="12.3582954"><ele>145.33333333333334</ele><time>2026-03-28T09:55:17.049Z</time></trkpt><trkpt lat="42.0178982" lon="12.3580829"><ele>144.0</ele><time>2026-03-28T09:55:18.066Z</time></trkpt><trkpt lat="42.0178718" lon="12.3578632"><ele>143.33333333333334</ele><time>2026-03-28T09:55:19.055Z</time></trkpt><trkpt lat="42.017831" lon="12.3576669"><ele>142.66666666666669</ele><time>2026-03-28T09:55:20.05Z</time></trkpt><trkpt lat="42.0177877" lon="12.3574723"><ele>142.0</ele><time>2026-03-28T09:55:21.054Z</time></trkpt><trkpt lat="42.017735" lon="12.3572582"><ele>141.66666666666669</ele><time>2026-03-28T09:55:22.056Z</time></trkpt><trkpt lat="42.0176985" lon="12.3570556"><ele>141.33333333333334</ele><time>2026-03-28T09:55:23.056Z</time></trkpt><trkpt lat="42.0176726" lon="12.3568528"><ele>141.0</ele><time>2026-03-28T09:55:24.056Z</time></trkpt><trkpt lat="42.017647" lon="12.3566436"><ele>141.0</ele><time>2026-03-28T09:55:25.05Z</time></trkpt><trkpt lat="42.0176299" lon="12.3564267"><ele>141.0</ele><time>2026-03-28T09:55:26.057Z</time></trkpt><trkpt lat="42.0176331" lon="12.3562254"><ele>141.0</ele><time>2026-03-28T09:55:27.052Z</time></trkpt><trkpt lat="42.0176479" lon="12.3560141"><ele>139.66666666666666</ele><time>2026-03-28T09:55:28.054Z</time></trkpt><trkpt lat="42.017682" lon="12.3557952"><ele>138.33333333333331</ele><time>2026-03-28T09:55:29.048Z</time></trkpt><trkpt lat="42.0177372" lon="12.3555848"><ele>137.0</ele><time>2026-03-28T09:55:30.047Z</time></trkpt><trkpt lat="42.0177959" lon="12.3553702"><ele>136.0</ele><time>2026-03-28T09:55:31.056Z</time></trkpt><trkpt lat="42.0178461" lon="12.3551746"><ele>135.0</ele><time>2026-03-28T09:55:32.054Z</time></trkpt><trkpt lat="42.0179144" lon="12.3549908"><ele>134.0</ele><time>2026-03-28T09:55:33.046Z</time></trkpt><trkpt lat="42.0179773" lon="12.3548095"><ele>134.5</ele><time>2026-03-28T09:55:34.06Z</time></trkpt><trkpt lat="42.0180393" lon="12.3546471"><ele>135.0</ele><time>2026-03-28T09:55:35.05Z</time></trkpt><trkpt lat="42.0181073" lon="12.3544862"><ele>135.5</ele><time>2026-03-28T09:55:36.061Z</time></trkpt><trkpt lat="42.0181516" lon="12.3543271"><ele>136.0</ele><time>2026-03-28T09:55:37.05Z</time></trkpt><trkpt lat="42.0182015" lon="12.3541745"><ele>136.0</ele><time>2026-03-28T09:55:38.06Z</time></trkpt><trkpt lat="42.0182381" lon="12.3539945"><ele>136.0</ele><time>2026-03-28T09:55:39.065Z</time></trkpt><trkpt lat="42.0182553" lon="12.3537952"><ele>136.0</ele><time>2026-03-28T09:55:40.052Z</time></trkpt><trkpt lat="42.0182696" lon="12.3535814"><ele>136.0</ele><time>2026-03-28T09:55:41.055Z</time></trkpt><trkpt lat="42.0182763" lon="12.3533332"><ele>136.0</ele><time>2026-03-28T09:55:42.053Z</time></trkpt><trkpt lat="42.0183066" lon="12.353091"><ele>136.0</ele><time>2026-03-28T09:55:43.056Z</time></trkpt><trkpt lat="42.0183385" lon="12.3528653"><ele>136.0</ele><time>2026-03-28T09:55:44.053Z</time></trkpt><trkpt lat="42.0183804" lon="12.3526423"><ele>135.0</ele><time>2026-03-28T09:55:45.049Z</time></trkpt><trkpt lat="42.0184172" lon="12.3524235"><ele>134.0</ele><time>2026-03-28T09:55:46.054Z</time></trkpt><trkpt lat="42.018459" lon="12.3522238"><ele>133.0</ele><time>2026-03-28T09:55:47.048Z</time></trkpt><trkpt lat="42.0185066" lon="12.352025"><ele>132.5</ele><time>2026-03-28T09:55:48.053Z</time></trkpt><trkpt lat="42.0185605" lon="12.3518377"><ele>132.0</ele><time>2026-03-28T09:55:49.051Z</time></trkpt><trkpt lat="42.0186272" lon="12.3516598"><ele>131.5</ele><time>2026-03-28T09:55:50.05Z</time></trkpt><trkpt lat="42.0186925" lon="12.3514871"><ele>131.0</ele><time>2026-03-28T09:55:51.051Z</time></trkpt><trkpt lat="42.0187576" lon="12.3513125"><ele>130.25</ele><time>2026-03-28T09:55:52.05Z</time></trkpt><trkpt lat="42.018824" lon="12.3511569"><ele>129.5</ele><time>2026-03-28T09:55:53.048Z</time></trkpt><trkpt lat="42.018912" lon="12.3509926"><ele>128.75</ele><time>2026-03-28T09:55:54.05Z</time></trkpt><trkpt lat="42.0190108" lon="12.3508519"><ele>128.0</ele><time>2026-03-28T09:55:55.058Z</time></trkpt><trkpt lat="42.0191076" lon="12.3507336"><ele>128.33333333333331</ele><time>2026-03-28T09:55:56.05Z</time></trkpt><trkpt lat="42.0192327" lon="12.3506497"><ele>128.66666666666666</ele><time>2026-03-28T09:55:57.057Z</time></trkpt><trkpt lat="42.0193916" lon="12.3505773"><ele>129.0</ele><time>2026-03-28T09:55:58.052Z</time></trkpt><trkpt lat="42.0195449" lon="12.3505108"><ele>129.0</ele><time>2026-03-28T09:55:59.053Z</time></trkpt><trkpt lat="42.0197046" lon="12.3504582"><ele>129.0</ele><time>2026-03-28T09:56:00.047Z</time></trkpt><trkpt lat="42.019842" lon="12.3504034"><ele>129.0</ele><time>2026-03-28T09:56:01.059Z</time></trkpt><trkpt lat="42.0199815" lon="12.3503447"><ele>129.33333333333334</ele><time>2026-03-28T09:56:02.049Z</time></trkpt><trkpt lat="42.0201188" lon="12.3502731"><ele>129.66666666666669</ele><time>2026-03-28T09:56:03.059Z</time></trkpt><trkpt lat="42.0202602" lon="12.3501957"><ele>130.0</ele><time>2026-03-28T09:56:04.055Z</time></trkpt><trkpt lat="42.0204043" lon="12.3501199"><ele>130.0</ele><time>2026-03-28T09:56:05.046Z</time></trkpt><trkpt lat="42.0205455" lon="12.3500408"><ele>130.0</ele><time>2026-03-28T09:56:06.049Z</time></trkpt><trkpt lat="42.0206579" lon="12.3499242"><ele>130.0</ele><time>2026-03-28T09:56:07.048Z</time></trkpt><trkpt lat="42.020768" lon="12.3498097"><ele>130.0</ele><time>2026-03-28T09:56:08.074Z</time></trkpt><trkpt lat="42.0209075" lon="12.3496621"><ele>130.0</ele><time>2026-03-28T09:56:09.047Z</time></trkpt><trkpt lat="42.02105" lon="12.3494913"><ele>130.0</ele><time>2026-03-28T09:56:10.052Z</time></trkpt><trkpt lat="42.0211642" lon="12.3493342"><ele>130.0</ele><time>2026-03-28T09:56:11.047Z</time></trkpt><trkpt lat="42.0212604" lon="12.3491855"><ele>130.0</ele><time>2026-03-28T09:56:12.064Z</time></trkpt><trkpt lat="42.0213393" lon="12.3490137"><ele>130.0</ele><time>2026-03-28T09:56:13.059Z</time></trkpt><trkpt lat="42.0214246" lon="12.3488365"><ele>130.0</ele><time>2026-03-28T09:56:14.049Z</time></trkpt><trkpt lat="42.0215043" lon="12.3486489"><ele>130.33333333333334</ele><time>2026-03-28T09:56:15.065Z</time></trkpt><trkpt lat="42.0215808" lon="12.3484601"><ele>130.66666666666666</ele><time>2026-03-28T09:56:16.052Z</time></trkpt><trkpt lat="42.0216483" lon="12.3482695"><ele>131.0</ele><time>2026-03-28T09:56:17.058Z</time></trkpt><trkpt lat="42.0217151" lon="12.3480593"><ele>131.33333333333331</ele><time>2026-03-28T09:56:18.049Z</time></trkpt><trkpt lat="42.0218091" lon="12.3478511"><ele>131.66666666666666</ele><time>2026-03-28T09:56:19.049Z</time></trkpt><trkpt lat="42.021893" lon="12.3476719"><ele>132.0</ele><time>2026-03-28T09:56:20.058Z</time></trkpt><trkpt lat="42.0219773" lon="12.3474716"><ele>132.0</ele><time>2026-03-28T09:56:21.053Z</time></trkpt><trkpt lat="42.0220793" lon="12.3472615"><ele>132.0</ele><time>2026-03-28T09:56:22.054Z</time></trkpt><trkpt lat="42.0221674" lon="12.3470323"><ele>132.0</ele><time>2026-03-28T09:56:23.049Z</time></trkpt><trkpt lat="42.0222752" lon="12.3467943"><ele>133.5</ele><time>2026-03-28T09:56:24.055Z</time></trkpt><trkpt lat="42.0224026" lon="12.3465436"><ele>135.0</ele><time>2026-03-28T09:56:25.051Z</time></trkpt><trkpt lat="42.0225373" lon="12.3462649"><ele>136.0</ele><time>2026-03-28T09:56:26.056Z</time></trkpt><trkpt lat="42.022666" lon="12.3459736"><ele>137.0</ele><time>2026-03-28T09:56:27.065Z</time></trkpt><trkpt lat="42.0228003" lon="12.3457184"><ele>137.33333333333331</ele><time>2026-03-28T09:56:28.049Z</time></trkpt><trkpt lat="42.022905" lon="12.3454884"><ele>137.66666666666666</ele><time>2026-03-28T09:56:29.052Z</time></trkpt><trkpt lat="42.0229963" lon="12.3452912"><ele>138.0</ele><time>2026-03-28T09:56:30.05Z</time></trkpt><trkpt lat="42.0230906" lon="12.345099"><ele>138.0</ele><time>2026-03-28T09:56:31.051Z</time></trkpt><trkpt lat="42.0232114" lon="12.3449118"><ele>138.0</ele><time>2026-03-28T09:56:32.045Z</time></trkpt><trkpt lat="42.0233203" lon="12.3447577"><ele>138.0</ele><time>2026-03-28T09:56:33.052Z</time></trkpt><trkpt lat="42.0234268" lon="12.3446354"><ele>139.33333333333334</ele><time>2026-03-28T09:56:34.05Z</time></trkpt><trkpt lat="42.0235538" lon="12.3445358"><ele>140.66666666666669</ele><time>2026-03-28T09:56:35.048Z</time></trkpt><trkpt lat="42.0236797" lon="12.3444498"><ele>142.0</ele><time>2026-03-28T09:56:36.05Z</time></trkpt><trkpt lat="42.0238294" lon="12.3443659"><ele>142.0</ele><time>2026-03-28T09:56:37.055Z</time></trkpt><trkpt lat="42.0239782" lon="12.344293"><ele>142.0</ele><time>2026-03-28T09:56:38.065Z</time></trkpt><trkpt lat="42.0241245" lon="12.34422"><ele>142.0</ele><time>2026-03-28T09:56:39.052Z</time></trkpt><trkpt lat="42.0242746" lon="12.3441422"><ele>142.33333333333334</ele><time>2026-03-28T09:56:40.055Z</time></trkpt><trkpt lat="42.0244486" lon="12.3440722"><ele>142.66666666666666</ele><time>2026-03-28T09:56:41.052Z</time></trkpt><trkpt lat="42.0246075" lon="12.3439969"><ele>143.0</ele><time>2026-03-28T09:56:42.055Z</time></trkpt><trkpt lat="42.0247669" lon="12.3439218"><ele>141.66666666666666</ele><time>2026-03-28T09:56:43.05Z</time></trkpt><trkpt lat="42.024919" lon="12.3438503"><ele>140.33333333333334</ele><time>2026-03-28T09:56:44.057Z</time></trkpt><trkpt lat="42.0250851" lon="12.3437695"><ele>139.0</ele><time>2026-03-28T09:56:45.059Z</time></trkpt><trkpt lat="42.0252499" lon="12.343701"><ele>139.0</ele><time>2026-03-28T09:56:46.051Z</time></trkpt><trkpt lat="42.0254186" lon="12.3436468"><ele>139.0</ele><time>2026-03-28T09:56:47.055Z</time></trkpt><trkpt lat="42.025558" lon="12.3436119"><ele>139.0</ele><time>2026-03-28T09:56:48.058Z</time></trkpt><trkpt lat="42.0256735" lon="12.3435727"><ele>139.0</ele><time>2026-03-28T09:56:49.049Z</time></trkpt><trkpt lat="42.0258025" lon="12.3435293"><ele>139.33333333333334</ele><time>2026-03-28T09:56:50.051Z</time></trkpt><trkpt lat="42.0259425" lon="12.3434885"><ele>139.66666666666666</ele><time>2026-03-28T09:56:51.047Z</time></trkpt><trkpt lat="42.0260847" lon="12.3434328"><ele>140.0</ele><time>2026-03-28T09:56:52.062Z</time></trkpt><trkpt lat="42.0262585" lon="12.3433684"><ele>140.0</ele><time>2026-03-28T09:56:53.05Z</time></trkpt><trkpt lat="42.0264659" lon="12.3433072"><ele>140.0</ele><time>2026-03-28T09:56:54.06Z</time></trkpt><trkpt lat="42.0266711" lon="12.3432322"><ele>140.0</ele><time>2026-03-28T09:56:55.058Z</time></trkpt><trkpt lat="42.0268667" lon="12.3431721"><ele>139.66666666666666</ele><time>2026-03-28T09:56:56.047Z</time></trkpt><trkpt lat="42.0270686" lon="12.3431034"><ele>139.33333333333334</ele><time>2026-03-28T09:56:57.058Z</time></trkpt><trkpt lat="42.0272765" lon="12.3430304"><ele>139.0</ele><time>2026-03-28T09:56:58.061Z</time></trkpt><trkpt lat="42.0274908" lon="12.3429704"><ele>137.66666666666669</ele><time>2026-03-28T09:56:59.058Z</time></trkpt><trkpt lat="42.027664" lon="12.3429104"><ele>136.33333333333334</ele><time>2026-03-28T09:57:00.049Z</time></trkpt><trkpt lat="42.0278563" lon="12.3428734"><ele>135.0</ele><time>2026-03-28T09:57:01.054Z</time></trkpt><trkpt lat="42.0280389" lon="12.342847"><ele>135.0</ele><time>2026-03-28T09:57:02.057Z</time></trkpt><trkpt lat="42.0281912" lon="12.3428492"><ele>135.0</ele><time>2026-03-28T09:57:03.052Z</time></trkpt><trkpt lat="42.0283426" lon="12.3428671"><ele>135.0</ele><time>2026-03-28T09:57:04.052Z</time></trkpt><trkpt lat="42.028492" lon="12.3428823"><ele>136.0</ele><time>2026-03-28T09:57:05.056Z</time></trkpt><trkpt lat="42.028655" lon="12.3429023"><ele>137.0</ele><time>2026-03-28T09:57:06.054Z</time></trkpt><trkpt lat="42.0288073" lon="12.3429336"><ele>138.0</ele><time>2026-03-28T09:57:07.055Z</time></trkpt><trkpt lat="42.0289536" lon="12.3429501"><ele>138.0</ele><time>2026-03-28T09:57:08.054Z</time></trkpt><trkpt lat="42.0290942" lon="12.3429736"><ele>138.0</ele><time>2026-03-28T09:57:09.057Z</time></trkpt><trkpt lat="42.0292428" lon="12.3429879"><ele>138.0</ele><time>2026-03-28T09:57:10.057Z</time></trkpt><trkpt lat="42.029399" lon="12.3429838"><ele>138.0</ele><time>2026-03-28T09:57:11.047Z</time></trkpt><trkpt lat="42.0295509" lon="12.3429639"><ele>136.66666666666666</ele><time>2026-03-28T09:57:12.052Z</time></trkpt><trkpt lat="42.0297117" lon="12.3429284"><ele>135.33333333333331</ele><time>2026-03-28T09:57:13.052Z</time></trkpt><trkpt lat="42.0298613" lon="12.3428727"><ele>134.0</ele><time>2026-03-28T09:57:14.062Z</time></trkpt><trkpt lat="42.0300249" lon="12.3427767"><ele>133.0</ele><time>2026-03-28T09:57:15.053Z</time></trkpt><trkpt lat="42.0302048" lon="12.3426475"><ele>132.0</ele><time>2026-03-28T09:57:16.046Z</time></trkpt><trkpt lat="42.0303822" lon="12.3424909"><ele>131.0</ele><time>2026-03-28T09:57:17.048Z</time></trkpt><trkpt lat="42.030568" lon="12.3423353"><ele>130.0</ele><time>2026-03-28T09:57:18.063Z</time></trkpt><trkpt lat="42.0307479" lon="12.3421947"><ele>129.0</ele><time>2026-03-28T09:57:19.048Z</time></trkpt><trkpt lat="42.0309067" lon="12.3420692"><ele>128.0</ele><time>2026-03-28T09:57:20.057Z</time></trkpt><trkpt lat="42.0310674" lon="12.3419604"><ele>128.0</ele><time>2026-03-28T09:57:21.049Z</time></trkpt><trkpt lat="42.0312576" lon="12.341849"><ele>128.0</ele><time>2026-03-28T09:57:22.051Z</time></trkpt><trkpt lat="42.0314513" lon="12.341771"><ele>128.0</ele><time>2026-03-28T09:57:23.052Z</time></trkpt><trkpt lat="42.0316404" lon="12.3417014"><ele>128.33333333333331</ele><time>2026-03-28T09:57:24.057Z</time></trkpt><trkpt lat="42.0318295" lon="12.3416188"><ele>128.66666666666666</ele><time>2026-03-28T09:57:25.053Z</time></trkpt><trkpt lat="42.03202" lon="12.341523"><ele>129.0</ele><time>2026-03-28T09:57:26.049Z</time></trkpt><trkpt lat="42.032193" lon="12.3414098"><ele>129.33333333333334</ele><time>2026-03-28T09:57:27.046Z</time></trkpt><trkpt lat="42.0323664" lon="12.3413039"><ele>129.66666666666669</ele><time>2026-03-28T09:57:28.059Z</time></trkpt><trkpt lat="42.0325373" lon="12.3411895"><ele>130.0</ele><time>2026-03-28T09:57:29.052Z</time></trkpt><trkpt lat="42.0326659" lon="12.341066"><ele>130.0</ele><time>2026-03-28T09:57:30.05Z</time></trkpt><trkpt lat="42.0328016" lon="12.3409167"><ele>130.0</ele><time>2026-03-28T09:57:31.055Z</time></trkpt><trkpt lat="42.0329061" lon="12.3407338"><ele>130.0</ele><time>2026-03-28T09:57:32.059Z</time></trkpt><trkpt lat="42.0330152" lon="12.3405164"><ele>129.66666666666669</ele><time>2026-03-28T09:57:33.068Z</time></trkpt><trkpt lat="42.0331295" lon="12.3402955"><ele>129.33333333333334</ele><time>2026-03-28T09:57:34.054Z</time></trkpt><trkpt lat="42.0332424" lon="12.3400857"><ele>129.0</ele><time>2026-03-28T09:57:35.058Z</time></trkpt><trkpt lat="42.033352" lon="12.3398802"><ele>128.66666666666666</ele><time>2026-03-28T09:57:36.048Z</time></trkpt><trkpt lat="42.0334566" lon="12.3396921"><ele>128.33333333333331</ele><time>2026-03-28T09:57:37.056Z</time></trkpt><trkpt lat="42.0335923" lon="12.339515"><ele>128.0</ele><time>2026-03-28T09:57:38.046Z</time></trkpt><trkpt lat="42.0337256" lon="12.3393506"><ele>128.0</ele><time>2026-03-28T09:57:39.057Z</time></trkpt><trkpt lat="42.033864" lon="12.3392141"><ele>128.0</ele><time>2026-03-28T09:57:40.05Z</time></trkpt><trkpt lat="42.0340218" lon="12.3390729"><ele>128.0</ele><time>2026-03-28T09:57:41.049Z</time></trkpt><trkpt lat="42.0341974" lon="12.3389489"><ele>126.66666666666666</ele><time>2026-03-28T09:57:42.058Z</time></trkpt><trkpt lat="42.034375" lon="12.3388218"><ele>125.33333333333334</ele><time>2026-03-28T09:57:43.05Z</time></trkpt><trkpt lat="42.0345593" lon="12.338711"><ele>124.0</ele><time>2026-03-28T09:57:44.06Z</time></trkpt><trkpt lat="42.0347219" lon="12.3386003"><ele>124.0</ele><time>2026-03-28T09:57:45.046Z</time></trkpt><trkpt lat="42.0348863" lon="12.3384916"><ele>124.0</ele><time>2026-03-28T09:57:46.055Z</time></trkpt><trkpt lat="42.0350384" lon="12.3383832"><ele>124.0</ele><time>2026-03-28T09:57:47.052Z</time></trkpt><trkpt lat="42.0351879" lon="12.3382761"><ele>124.5</ele><time>2026-03-28T09:57:48.07Z</time></trkpt><trkpt lat="42.0353063" lon="12.3381644"><ele>125.0</ele><time>2026-03-28T09:57:49.052Z</time></trkpt><trkpt lat="42.0354033" lon="12.338044"><ele>125.5</ele><time>2026-03-28T09:57:50.055Z</time></trkpt><trkpt lat="42.0354597" lon="12.3378613"><ele>126.0</ele><time>2026-03-28T09:57:51.055Z</time></trkpt><trkpt lat="42.0354972" lon="12.337694"><ele>126.33333333333334</ele><time>2026-03-28T09:57:52.056Z</time></trkpt><trkpt lat="42.0355121" lon="12.3374971"><ele>126.66666666666667</ele><time>2026-03-28T09:57:53.056Z</time></trkpt><trkpt lat="42.0354879" lon="12.3372683"><ele>127.0</ele><time>2026-03-28T09:57:54.051Z</time></trkpt><trkpt lat="42.0354789" lon="12.3370293"><ele>128.0</ele><time>2026-03-28T09:57:55.059Z</time></trkpt><trkpt lat="42.0354752" lon="12.336761"><ele>129.0</ele><time>2026-03-28T09:57:56.064Z</time></trkpt><trkpt lat="42.0354804" lon="12.3364791"><ele>130.0</ele><time>2026-03-28T09:57:57.045Z</time></trkpt><trkpt lat="42.0354796" lon="12.3361777"><ele>130.0</ele><time>2026-03-28T09:57:58.057Z</time></trkpt><trkpt lat="42.0354596" lon="12.3359103"><ele>130.0</ele><time>2026-03-28T09:57:59.049Z</time></trkpt><trkpt lat="42.0354499" lon="12.335649"><ele>130.0</ele><time>2026-03-28T09:58:00.058Z</time></trkpt><trkpt lat="42.0354349" lon="12.3353806"><ele>128.0</ele><time>2026-03-28T09:58:01.048Z</time></trkpt><trkpt lat="42.035428" lon="12.3351132"><ele>126.0</ele><time>2026-03-28T09:58:02.055Z</time></trkpt><trkpt lat="42.0354011" lon="12.334869"><ele>124.0</ele><time>2026-03-28T09:58:03.057Z</time></trkpt><trkpt lat="42.035403" lon="12.3346667"><ele>123.0</ele><time>2026-03-28T09:58:04.056Z</time></trkpt><trkpt lat="42.0353629" lon="12.3344685"><ele>122.0</ele><time>2026-03-28T09:58:05.06Z</time></trkpt><trkpt lat="42.0353717" lon="12.3342736"><ele>121.0</ele><time>2026-03-28T09:58:06.057Z</time></trkpt><trkpt lat="42.0354032" lon="12.3340768"><ele>120.0</ele><time>2026-03-28T09:58:07.051Z</time></trkpt><trkpt lat="42.0354656" lon="12.3339268"><ele>119.33333333333334</ele><time>2026-03-28T09:58:08.059Z</time></trkpt><trkpt lat="42.0355535" lon="12.3337841"><ele>118.66666666666667</ele><time>2026-03-28T09:58:09.047Z</time></trkpt><trkpt lat="42.0356832" lon="12.3336261"><ele>118.0</ele><time>2026-03-28T09:58:10.051Z</time></trkpt><trkpt lat="42.035784" lon="12.3334673"><ele>117.66666666666667</ele><time>2026-03-28T09:58:11.059Z</time></trkpt><trkpt lat="42.0359241" lon="12.3332624"><ele>117.33333333333334</ele><time>2026-03-28T09:58:12.059Z</time></trkpt><trkpt lat="42.0360894" lon="12.3330477"><ele>117.0</ele><time>2026-03-28T09:58:13.064Z</time></trkpt><trkpt lat="42.0362724" lon="12.3328704"><ele>117.66666666666666</ele><time>2026-03-28T09:58:14.051Z</time></trkpt><trkpt lat="42.0364265" lon="12.3326746"><ele>118.33333333333333</ele><time>2026-03-28T09:58:15.052Z</time></trkpt><trkpt lat="42.0365624" lon="12.3324979"><ele>119.0</ele><time>2026-03-28T09:58:16.047Z</time></trkpt><trkpt lat="42.0366701" lon="12.3322768"><ele>121.33333333333333</ele><time>2026-03-28T09:58:17.047Z</time></trkpt><trkpt lat="42.0368032" lon="12.3320322"><ele>123.66666666666666</ele><time>2026-03-28T09:58:18.058Z</time></trkpt><trkpt lat="42.0369465" lon="12.3318176"><ele>126.0</ele><time>2026-03-28T09:58:19.059Z</time></trkpt><trkpt lat="42.0370801" lon="12.3315985"><ele>127.66666666666666</ele><time>2026-03-28T09:58:20.048Z</time></trkpt><trkpt lat="42.0371905" lon="12.3313758"><ele>129.33333333333331</ele><time>2026-03-28T09:58:21.058Z</time></trkpt><trkpt lat="42.0372607" lon="12.3311556"><ele>131.0</ele><time>2026-03-28T09:58:22.053Z</time></trkpt><trkpt lat="42.0373334" lon="12.3309121"><ele>131.0</ele><time>2026-03-28T09:58:23.056Z</time></trkpt><trkpt lat="42.0373789" lon="12.3306726"><ele>131.0</ele><time>2026-03-28T09:58:24.053Z</time></trkpt><trkpt lat="42.0374053" lon="12.3304447"><ele>131.0</ele><time>2026-03-28T09:58:25.047Z</time></trkpt><trkpt lat="42.0374193" lon="12.3301913"><ele>131.66666666666666</ele><time>2026-03-28T09:58:26.052Z</time></trkpt><trkpt lat="42.037405" lon="12.3299288"><ele>132.33333333333334</ele><time>2026-03-28T09:58:27.047Z</time></trkpt><trkpt lat="42.0373365" lon="12.3296937"><ele>133.0</ele><time>2026-03-28T09:58:28.061Z</time></trkpt><trkpt lat="42.0372342" lon="12.3294642"><ele>133.33333333333334</ele><time>2026-03-28T09:58:29.052Z</time></trkpt><trkpt lat="42.0371189" lon="12.3292263"><ele>133.66666666666666</ele><time>2026-03-28T09:58:30.054Z</time></trkpt><trkpt lat="42.0370101" lon="12.3289618"><ele>134.0</ele><time>2026-03-28T09:58:31.047Z</time></trkpt><trkpt lat="42.0369196" lon="12.3286874"><ele>134.33333333333331</ele><time>2026-03-28T09:58:32.059Z</time></trkpt><trkpt lat="42.0368348" lon="12.3284269"><ele>134.66666666666666</ele><time>2026-03-28T09:58:33.051Z</time></trkpt><trkpt lat="42.0367482" lon="12.328177"><ele>135.0</ele><time>2026-03-28T09:58:34.056Z</time></trkpt><trkpt lat="42.0366864" lon="12.3279513"><ele>136.0</ele><time>2026-03-28T09:58:35.048Z</time></trkpt><trkpt lat="42.0366466" lon="12.3277184"><ele>137.0</ele><time>2026-03-28T09:58:36.051Z</time></trkpt><trkpt lat="42.0366578" lon="12.3274794"><ele>138.0</ele><time>2026-03-28T09:58:37.054Z</time></trkpt><trkpt lat="42.0366839" lon="12.3272356"><ele>138.33333333333334</ele><time>2026-03-28T09:58:38.068Z</time></trkpt><trkpt lat="42.0367382" lon="12.3269856"><ele>138.66666666666669</ele><time>2026-03-28T09:58:39.054Z</time></trkpt><trkpt lat="42.0367943" lon="12.3267317"><ele>139.0</ele><time>2026-03-28T09:58:40.05Z</time></trkpt><trkpt lat="42.0368574" lon="12.3264817"><ele>139.0</ele><time>2026-03-28T09:58:41.051Z</time></trkpt><trkpt lat="42.0368971" lon="12.326275"><ele>139.0</ele><time>2026-03-28T09:58:42.059Z</time></trkpt><trkpt lat="42.0369549" lon="12.326059"><ele>139.0</ele><time>2026-03-28T09:58:43.051Z</time></trkpt><trkpt lat="42.037024" lon="12.3258499"><ele>139.0</ele><time>2026-03-28T09:58:44.059Z</time></trkpt><trkpt lat="42.0370758" lon="12.3256384"><ele>139.0</ele><time>2026-03-28T09:58:45.055Z</time></trkpt><trkpt lat="42.0371289" lon="12.3254275"><ele>139.0</ele><time>2026-03-28T09:58:46.049Z</time></trkpt><trkpt lat="42.0371902" lon="12.3252141"><ele>138.0</ele><time>2026-03-28T09:58:47.053Z</time></trkpt><trkpt lat="42.0372449" lon="12.3249854"><ele>137.0</ele><time>2026-03-28T09:58:48.058Z</time></trkpt><trkpt lat="42.0373016" lon="12.3247739"><ele>136.0</ele><time>2026-03-28T09:58:49.056Z</time></trkpt><trkpt lat="42.0373505" lon="12.3245349"><ele>134.66666666666669</ele><time>2026-03-28T09:58:50.068Z</time></trkpt><trkpt lat="42.0373899" lon="12.3243086"><ele>133.33333333333334</ele><time>2026-03-28T09:58:51.045Z</time></trkpt><trkpt lat="42.0374215" lon="12.3240615"><ele>132.0</ele><time>2026-03-28T09:58:52.059Z</time></trkpt><trkpt lat="42.037461" lon="12.3238384"><ele>133.0</ele><time>2026-03-28T09:58:53.058Z</time></trkpt><trkpt lat="42.0375006" lon="12.3236098"><ele>134.0</ele><time>2026-03-28T09:58:54.053Z</time></trkpt><trkpt lat="42.0375365" lon="12.3233874"><ele>135.0</ele><time>2026-03-28T09:58:55.056Z</time></trkpt><trkpt lat="42.0375649" lon="12.3231702"><ele>134.0</ele><time>2026-03-28T09:58:56.049Z</time></trkpt><trkpt lat="42.0375817" lon="12.3229668"><ele>133.0</ele><time>2026-03-28T09:58:57.055Z</time></trkpt><trkpt lat="42.0375975" lon="12.3227779"><ele>132.0</ele><time>2026-03-28T09:58:58.057Z</time></trkpt><trkpt lat="42.0376119" lon="12.3225852"><ele>131.0</ele><time>2026-03-28T09:58:59.046Z</time></trkpt><trkpt lat="42.0376307" lon="12.3223869"><ele>132.0</ele><time>2026-03-28T09:59:00.05Z</time></trkpt><trkpt lat="42.0376325" lon="12.3221803"><ele>133.0</ele><time>2026-03-28T09:59:01.054Z</time></trkpt><trkpt lat="42.0376083" lon="12.3219799"><ele>134.0</ele><time>2026-03-28T09:59:02.056Z</time></trkpt><trkpt lat="42.0375798" lon="12.3217687"><ele>134.0</ele><time>2026-03-28T09:59:03.055Z</time></trkpt><trkpt lat="42.0375452" lon="12.3215464"><ele>134.0</ele><time>2026-03-28T09:59:04.056Z</time></trkpt><trkpt lat="42.0375006" lon="12.3213306"><ele>134.0</ele><time>2026-03-28T09:59:05.049Z</time></trkpt><trkpt lat="42.03745" lon="12.3211206"><ele>134.0</ele><time>2026-03-28T09:59:06.055Z</time></trkpt><trkpt lat="42.0374036" lon="12.3208876"><ele>134.0</ele><time>2026-03-28T09:59:07.061Z</time></trkpt><trkpt lat="42.0373422" lon="12.3206451"><ele>134.0</ele><time>2026-03-28T09:59:08.058Z</time></trkpt><trkpt lat="42.0372948" lon="12.3203989"><ele>134.66666666666666</ele><time>2026-03-28T09:59:09.048Z</time></trkpt><trkpt lat="42.0372409" lon="12.3201797"><ele>135.33333333333334</ele><time>2026-03-28T09:59:10.057Z</time></trkpt><trkpt lat="42.0371992" lon="12.3199737"><ele>136.0</ele><time>2026-03-28T09:59:11.056Z</time></trkpt><trkpt lat="42.0371583" lon="12.3197817"><ele>137.66666666666669</ele><time>2026-03-28T09:59:12.051Z</time></trkpt><trkpt lat="42.0371238" lon="12.3195733"><ele>139.33333333333334</ele><time>2026-03-28T09:59:13.057Z</time></trkpt><trkpt lat="42.0370882" lon="12.3193745"><ele>141.0</ele><time>2026-03-28T09:59:14.05Z</time></trkpt><trkpt lat="42.037047" lon="12.3191562"><ele>141.0</ele><time>2026-03-28T09:59:15.057Z</time></trkpt><trkpt lat="42.037012" lon="12.3189359"><ele>141.0</ele><time>2026-03-28T09:59:16.06Z</time></trkpt><trkpt lat="42.0369823" lon="12.3187223"><ele>141.0</ele><time>2026-03-28T09:59:17.058Z</time></trkpt><trkpt lat="42.0369452" lon="12.318519"><ele>142.33333333333334</ele><time>2026-03-28T09:59:18.057Z</time></trkpt><trkpt lat="42.0368975" lon="12.3182962"><ele>143.66666666666669</ele><time>2026-03-28T09:59:19.049Z</time></trkpt><trkpt lat="42.0368613" lon="12.3180744"><ele>145.0</ele><time>2026-03-28T09:59:20.06Z</time></trkpt><trkpt lat="42.0368327" lon="12.317839"><ele>145.0</ele><time>2026-03-28T09:59:21.053Z</time></trkpt><trkpt lat="42.0367884" lon="12.3175676"><ele>145.0</ele><time>2026-03-28T09:59:22.052Z</time></trkpt><trkpt lat="42.0367487" lon="12.3173177"><ele>145.0</ele><time>2026-03-28T09:59:23.062Z</time></trkpt><trkpt lat="42.0367279" lon="12.3171026"><ele>145.0</ele><time>2026-03-28T09:59:24.052Z</time></trkpt><trkpt lat="42.0366982" lon="12.3168945"><ele>145.0</ele><time>2026-03-28T09:59:25.048Z</time></trkpt><trkpt lat="42.0366759" lon="12.3166622"><ele>145.0</ele><time>2026-03-28T09:59:26.06Z</time></trkpt><trkpt lat="42.0366623" lon="12.3164365"><ele>144.33333333333334</ele><time>2026-03-28T09:59:27.05Z</time></trkpt><trkpt lat="42.0366394" lon="12.3162243"><ele>143.66666666666666</ele><time>2026-03-28T09:59:28.061Z</time></trkpt><trkpt lat="42.036615" lon="12.3160263"><ele>143.0</ele><time>2026-03-28T09:59:29.061Z</time></trkpt><trkpt lat="42.0366045" lon="12.3158333"><ele>143.0</ele><time>2026-03-28T09:59:30.055Z</time></trkpt><trkpt lat="42.0365876" lon="12.3156399"><ele>143.0</ele><time>2026-03-28T09:59:31.048Z</time></trkpt><trkpt lat="42.0365629" lon="12.3154553"><ele>143.0</ele><time>2026-03-28T09:59:32.056Z</time></trkpt><trkpt lat="42.0365367" lon="12.3152766"><ele>143.0</ele><time>2026-03-28T09:59:33.051Z</time></trkpt><trkpt lat="42.0365111" lon="12.3150852"><ele>142.5</ele><time>2026-03-28T09:59:34.052Z</time></trkpt><trkpt lat="42.0364803" lon="12.3148989"><ele>142.0</ele><time>2026-03-28T09:59:35.063Z</time></trkpt><trkpt lat="42.0364588" lon="12.314711"><ele>141.5</ele><time>2026-03-28T09:59:36.053Z</time></trkpt><trkpt lat="42.0364439" lon="12.3145296"><ele>141.0</ele><time>2026-03-28T09:59:37.053Z</time></trkpt><trkpt lat="42.0364218" lon="12.3143393"><ele>140.75</ele><time>2026-03-28T09:59:38.051Z</time></trkpt><trkpt lat="42.0364042" lon="12.3141452"><ele>140.5</ele><time>2026-03-28T09:59:39.053Z</time></trkpt><trkpt lat="42.0363695" lon="12.3139758"><ele>140.25</ele><time>2026-03-28T09:59:40.053Z</time></trkpt><trkpt lat="42.0363429" lon="12.3138025"><ele>140.0</ele><time>2026-03-28T09:59:41.049Z</time></trkpt><trkpt lat="42.0363438" lon="12.3136341"><ele>139.75</ele><time>2026-03-28T09:59:42.051Z</time></trkpt><trkpt lat="42.0363472" lon="12.3134399"><ele>139.5</ele><time>2026-03-28T09:59:43.047Z</time></trkpt><trkpt lat="42.0363431" lon="12.3132351"><ele>139.25</ele><time>2026-03-28T09:59:44.05Z</time></trkpt><trkpt lat="42.0363477" lon="12.3130319"><ele>139.0</ele><time>2026-03-28T09:59:45.054Z</time></trkpt><trkpt lat="42.0363703" lon="12.3128356"><ele>137.75</ele><time>2026-03-28T09:59:46.049Z</time></trkpt><trkpt lat="42.0363879" lon="12.3126499"><ele>136.5</ele><time>2026-03-28T09:59:47.053Z</time></trkpt><trkpt lat="42.036418" lon="12.3124722"><ele>135.25</ele><time>2026-03-28T09:59:48.053Z</time></trkpt><trkpt lat="42.0364294" lon="12.3123107"><ele>134.0</ele><time>2026-03-28T09:59:49.046Z</time></trkpt><trkpt lat="42.036431" lon="12.3121538"><ele>133.4</ele><time>2026-03-28T09:59:50.047Z</time></trkpt><trkpt lat="42.0364471" lon="12.3120017"><ele>132.8</ele><time>2026-03-28T09:59:51.053Z</time></trkpt><trkpt lat="42.036461" lon="12.3118709"><ele>132.2</ele><time>2026-03-28T09:59:52.053Z</time></trkpt><trkpt lat="42.0364763" lon="12.3117207"><ele>131.6</ele><time>2026-03-28T09:59:53.049Z</time></trkpt><trkpt lat="42.0365023" lon="12.3115879"><ele>131.0</ele><time>2026-03-28T09:59:54.051Z</time></trkpt><trkpt lat="42.036527" lon="12.3114693"><ele>130.66666666666666</ele><time>2026-03-28T09:59:55.055Z</time></trkpt><trkpt lat="42.0365544" lon="12.3113768"><ele>130.33333333333331</ele><time>2026-03-28T09:59:56.058Z</time></trkpt><trkpt lat="42.036589" lon="12.3113052"><ele>130.0</ele><time>2026-03-28T09:59:57.046Z</time></trkpt><trkpt lat="42.0366866" lon="12.3112188"><ele>129.66666666666666</ele><time>2026-03-28T09:59:59.057Z</time></trkpt><trkpt lat="42.0367738" lon="12.3112061"><ele>129.33333333333334</ele><time>2026-03-28T10:00:00.053Z</time></trkpt><trkpt lat="42.0368678" lon="12.3112036"><ele>129.0</ele><time>2026-03-28T10:00:01.066Z</time></trkpt><trkpt lat="42.0369644" lon="12.3111931"><ele>130.14285714285714</ele><time>2026-03-28T10:00:02.053Z</time></trkpt><trkpt lat="42.0370469" lon="12.3111786"><ele>131.28571428571428</ele><time>2026-03-28T10:00:03.054Z</time></trkpt><trkpt lat="42.0371279" lon="12.3111761"><ele>132.42857142857144</ele><time>2026-03-28T10:00:04.055Z</time></trkpt><trkpt lat="42.0371937" lon="12.3111633"><ele>133.57142857142856</ele><time>2026-03-28T10:00:05.049Z</time></trkpt><trkpt lat="42.0372643" lon="12.3111579"><ele>134.71428571428572</ele><time>2026-03-28T10:00:06.055Z</time></trkpt><trkpt lat="42.037334" lon="12.3111433"><ele>135.85714285714286</ele><time>2026-03-28T10:00:07.055Z</time></trkpt><trkpt lat="42.0374009" lon="12.311121"><ele>137.0</ele><time>2026-03-28T10:00:08.058Z</time></trkpt><trkpt lat="42.0374805" lon="12.3110943"><ele>137.4</ele><time>2026-03-28T10:00:09.05Z</time></trkpt><trkpt lat="42.037546" lon="12.311042"><ele>137.79999999999998</ele><time>2026-03-28T10:00:10.048Z</time></trkpt><trkpt lat="42.0376117" lon="12.3109821"><ele>138.2</ele><time>2026-03-28T10:00:11.051Z</time></trkpt><trkpt lat="42.0376836" lon="12.3109016"><ele>138.6</ele><time>2026-03-28T10:00:12.055Z</time></trkpt><trkpt lat="42.0377524" lon="12.3107981"><ele>139.0</ele><time>2026-03-28T10:00:13.066Z</time></trkpt><trkpt lat="42.0378303" lon="12.3106865"><ele>139.5</ele><time>2026-03-28T10:00:14.048Z</time></trkpt><trkpt lat="42.0379047" lon="12.310569"><ele>140.0</ele><time>2026-03-28T10:00:15.052Z</time></trkpt><trkpt lat="42.0379873" lon="12.3104467"><ele>140.5</ele><time>2026-03-28T10:00:16.051Z</time></trkpt><trkpt lat="42.038069" lon="12.3103279"><ele>141.0</ele><time>2026-03-28T10:00:17.061Z</time></trkpt><trkpt lat="42.0381532" lon="12.3101973"><ele>141.0</ele><time>2026-03-28T10:00:18.071Z</time></trkpt><trkpt lat="42.0382509" lon="12.3100644"><ele>141.0</ele><time>2026-03-28T10:00:19.051Z</time></trkpt><trkpt lat="42.0383593" lon="12.3099053"><ele>141.0</ele><time>2026-03-28T10:00:20.053Z</time></trkpt><trkpt lat="42.038517" lon="12.3096958"><ele>142.0</ele><time>2026-03-28T10:00:21.05Z</time></trkpt><trkpt lat="42.0386389" lon="12.3095401"><ele>143.0</ele><time>2026-03-28T10:00:22.062Z</time></trkpt><trkpt lat="42.0387468" lon="12.3093911"><ele>144.0</ele><time>2026-03-28T10:00:23.059Z</time></trkpt><trkpt lat="42.0388279" lon="12.3092646"><ele>145.0</ele><time>2026-03-28T10:00:24.049Z</time></trkpt><trkpt lat="42.0389196" lon="12.3091215"><ele>145.0</ele><time>2026-03-28T10:00:25.056Z</time></trkpt><trkpt lat="42.0390326" lon="12.3090098"><ele>145.0</ele><time>2026-03-28T10:00:26.058Z</time></trkpt><trkpt lat="42.0391252" lon="12.3088849"><ele>145.0</ele><time>2026-03-28T10:00:27.057Z</time></trkpt><trkpt lat="42.0392093" lon="12.3087539"><ele>145.0</ele><time>2026-03-28T10:00:28.051Z</time></trkpt><trkpt lat="42.0393253" lon="12.3086508"><ele>145.0</ele><time>2026-03-28T10:00:29.049Z</time></trkpt><trkpt lat="42.039418" lon="12.308525"><ele>145.0</ele><time>2026-03-28T10:00:30.055Z</time></trkpt><trkpt lat="42.0395246" lon="12.3083928"><ele>145.0</ele><time>2026-03-28T10:00:31.053Z</time></trkpt><trkpt lat="42.0396208" lon="12.3082693"><ele>145.0</ele><time>2026-03-28T10:00:32.045Z</time></trkpt><trkpt lat="42.0397073" lon="12.3081561"><ele>144.75</ele><time>2026-03-28T10:00:33.047Z</time></trkpt><trkpt lat="42.0397931" lon="12.3080414"><ele>144.5</ele><time>2026-03-28T10:00:34.051Z</time></trkpt><trkpt lat="42.0398795" lon="12.3079141"><ele>144.25</ele><time>2026-03-28T10:00:35.062Z</time></trkpt><trkpt lat="42.0399642" lon="12.3077845"><ele>144.0</ele><time>2026-03-28T10:00:36.061Z</time></trkpt><trkpt lat="42.0400665" lon="12.3076604"><ele>144.0</ele><time>2026-03-28T10:00:37.053Z</time></trkpt><trkpt lat="42.0401933" lon="12.3075335"><ele>144.0</ele><time>2026-03-28T10:00:38.057Z</time></trkpt><trkpt lat="42.0403114" lon="12.3073964"><ele>144.0</ele><time>2026-03-28T10:00:39.053Z</time></trkpt><trkpt lat="42.0404292" lon="12.307252"><ele>143.66666666666666</ele><time>2026-03-28T10:00:40.057Z</time></trkpt><trkpt lat="42.0405396" lon="12.3070967"><ele>143.33333333333331</ele><time>2026-03-28T10:00:41.055Z</time></trkpt><trkpt lat="42.0406574" lon="12.3069606"><ele>143.0</ele><time>2026-03-28T10:00:42.054Z</time></trkpt><trkpt lat="42.0407694" lon="12.306813"><ele>142.33333333333331</ele><time>2026-03-28T10:00:43.065Z</time></trkpt><trkpt lat="42.0408768" lon="12.3066571"><ele>141.66666666666666</ele><time>2026-03-28T10:00:44.063Z</time></trkpt><trkpt lat="42.0409985" lon="12.3065008"><ele>141.0</ele><time>2026-03-28T10:00:45.045Z</time></trkpt><trkpt lat="42.0411143" lon="12.3063566"><ele>141.0</ele><time>2026-03-28T10:00:46.053Z</time></trkpt><trkpt lat="42.0412459" lon="12.3062062"><ele>141.0</ele><time>2026-03-28T10:00:47.054Z</time></trkpt><trkpt lat="42.0413497" lon="12.3060586"><ele>141.0</ele><time>2026-03-28T10:00:48.064Z</time></trkpt><trkpt lat="42.0414673" lon="12.3058936"><ele>141.0</ele><time>2026-03-28T10:00:49.048Z</time></trkpt><trkpt lat="42.0415689" lon="12.3057339"><ele>141.0</ele><time>2026-03-28T10:00:50.052Z</time></trkpt><trkpt lat="42.0416894" lon="12.3055811"><ele>141.0</ele><time>2026-03-28T10:00:51.049Z</time></trkpt><trkpt lat="42.0418199" lon="12.3054202"><ele>142.0</ele><time>2026-03-28T10:00:52.059Z</time></trkpt><trkpt lat="42.0419495" lon="12.3052512"><ele>143.0</ele><time>2026-03-28T10:00:53.059Z</time></trkpt><trkpt lat="42.0420906" lon="12.3050763"><ele>144.0</ele><time>2026-03-28T10:00:54.054Z</time></trkpt><trkpt lat="42.0422126" lon="12.3048923"><ele>144.0</ele><time>2026-03-28T10:00:55.052Z</time></trkpt><trkpt lat="42.0423497" lon="12.3047213"><ele>144.0</ele><time>2026-03-28T10:00:56.054Z</time></trkpt><trkpt lat="42.0424733" lon="12.3045432"><ele>144.0</ele><time>2026-03-28T10:00:57.058Z</time></trkpt><trkpt lat="42.0425886" lon="12.304359"><ele>144.0</ele><time>2026-03-28T10:00:58.059Z</time></trkpt><trkpt lat="42.0427147" lon="12.3041836"><ele>144.0</ele><time>2026-03-28T10:00:59.062Z</time></trkpt><trkpt lat="42.0428482" lon="12.3040132"><ele>144.0</ele><time>2026-03-28T10:01:00.049Z</time></trkpt><trkpt lat="42.0429921" lon="12.3038424"><ele>144.33333333333334</ele><time>2026-03-28T10:01:01.047Z</time></trkpt><trkpt lat="42.0431283" lon="12.3036923"><ele>144.66666666666669</ele><time>2026-03-28T10:01:02.055Z</time></trkpt><trkpt lat="42.0432509" lon="12.3035238"><ele>145.0</ele><time>2026-03-28T10:01:03.064Z</time></trkpt><trkpt lat="42.0433745" lon="12.3033546"><ele>144.66666666666669</ele><time>2026-03-28T10:01:04.049Z</time></trkpt><trkpt lat="42.0435045" lon="12.3031894"><ele>144.33333333333334</ele><time>2026-03-28T10:01:05.057Z</time></trkpt><trkpt lat="42.0436422" lon="12.3030078"><ele>144.0</ele><time>2026-03-28T10:01:06.054Z</time></trkpt><trkpt lat="42.0437737" lon="12.3028469"><ele>144.0</ele><time>2026-03-28T10:01:07.054Z</time></trkpt><trkpt lat="42.0438964" lon="12.3026814"><ele>144.0</ele><time>2026-03-28T10:01:08.072Z</time></trkpt><trkpt lat="42.0440416" lon="12.3024983"><ele>144.0</ele><time>2026-03-28T10:01:09.052Z</time></trkpt><trkpt lat="42.0441591" lon="12.3023273"><ele>144.66666666666666</ele><time>2026-03-28T10:01:10.055Z</time></trkpt><trkpt lat="42.0442814" lon="12.3021566"><ele>145.33333333333331</ele><time>2026-03-28T10:01:11.055Z</time></trkpt><trkpt lat="42.0444281" lon="12.3019897"><ele>146.0</ele><time>2026-03-28T10:01:12.054Z</time></trkpt><trkpt lat="42.044557" lon="12.3018158"><ele>146.0</ele><time>2026-03-28T10:01:13.056Z</time></trkpt><trkpt lat="42.0446773" lon="12.3016381"><ele>146.0</ele><time>2026-03-28T10:01:14.057Z</time></trkpt><trkpt lat="42.0447977" lon="12.3014715"><ele>146.0</ele><time>2026-03-28T10:01:15.059Z</time></trkpt><trkpt lat="42.0449151" lon="12.301315"><ele>147.0</ele><time>2026-03-28T10:01:16.054Z</time></trkpt><trkpt lat="42.0450413" lon="12.3011559"><ele>148.0</ele><time>2026-03-28T10:01:17.053Z</time></trkpt><trkpt lat="42.0451581" lon="12.3009887"><ele>149.0</ele><time>2026-03-28T10:01:18.056Z</time></trkpt><trkpt lat="42.045287" lon="12.300812"><ele>149.0</ele><time>2026-03-28T10:01:19.051Z</time></trkpt><trkpt lat="42.0454541" lon="12.300636"><ele>149.0</ele><time>2026-03-28T10:01:20.051Z</time></trkpt><trkpt lat="42.0455737" lon="12.3004499"><ele>149.0</ele><time>2026-03-28T10:01:21.049Z</time></trkpt><trkpt lat="42.0457161" lon="12.3002771"><ele>148.0</ele><time>2026-03-28T10:01:22.056Z</time></trkpt><trkpt lat="42.0458532" lon="12.3001126"><ele>147.0</ele><time>2026-03-28T10:01:23.053Z</time></trkpt><trkpt lat="42.0459893" lon="12.299936"><ele>146.0</ele><time>2026-03-28T10:01:24.057Z</time></trkpt><trkpt lat="42.0461325" lon="12.2997615"><ele>145.33333333333331</ele><time>2026-03-28T10:01:25.06Z</time></trkpt><trkpt lat="42.0462657" lon="12.2995911"><ele>144.66666666666666</ele><time>2026-03-28T10:01:26.052Z</time></trkpt><trkpt lat="42.0463848" lon="12.2994372"><ele>144.0</ele><time>2026-03-28T10:01:27.057Z</time></trkpt><trkpt lat="42.0464998" lon="12.2992879"><ele>144.0</ele><time>2026-03-28T10:01:28.054Z</time></trkpt><trkpt lat="42.0465975" lon="12.2991361"><ele>144.0</ele><time>2026-03-28T10:01:29.059Z</time></trkpt><trkpt lat="42.0467107" lon="12.298988"><ele>144.0</ele><time>2026-03-28T10:01:30.059Z</time></trkpt><trkpt lat="42.0468394" lon="12.2988239"><ele>144.0</ele><time>2026-03-28T10:01:31.049Z</time></trkpt><trkpt lat="42.0469531" lon="12.2986577"><ele>144.0</ele><time>2026-03-28T10:01:32.057Z</time></trkpt><trkpt lat="42.0470639" lon="12.2985071"><ele>144.0</ele><time>2026-03-28T10:01:33.054Z</time></trkpt><trkpt lat="42.0471901" lon="12.2983605"><ele>144.0</ele><time>2026-03-28T10:01:34.06Z</time></trkpt><trkpt lat="42.0472974" lon="12.2982128"><ele>144.0</ele><time>2026-03-28T10:01:35.049Z</time></trkpt><trkpt lat="42.0473781" lon="12.2980431"><ele>144.0</ele><time>2026-03-28T10:01:36.054Z</time></trkpt><trkpt lat="42.0474549" lon="12.2978524"><ele>144.0</ele><time>2026-03-28T10:01:37.054Z</time></trkpt><trkpt lat="42.0475616" lon="12.2976279"><ele>144.0</ele><time>2026-03-28T10:01:38.058Z</time></trkpt><trkpt lat="42.0476654" lon="12.2973775"><ele>144.0</ele><time>2026-03-28T10:01:39.056Z</time></trkpt><trkpt lat="42.0477594" lon="12.2971117"><ele>145.66666666666666</ele><time>2026-03-28T10:01:40.051Z</time></trkpt><trkpt lat="42.0478561" lon="12.2968428"><ele>147.33333333333331</ele><time>2026-03-28T10:01:41.06Z</time></trkpt><trkpt lat="42.0479519" lon="12.2966202"><ele>149.0</ele><time>2026-03-28T10:01:42.053Z</time></trkpt><trkpt lat="42.0480676" lon="12.2964176"><ele>151.0</ele><time>2026-03-28T10:01:43.057Z</time></trkpt><trkpt lat="42.0482045" lon="12.2962396"><ele>153.0</ele><time>2026-03-28T10:01:44.052Z</time></trkpt><trkpt lat="42.0483619" lon="12.2961063"><ele>155.0</ele><time>2026-03-28T10:01:45.053Z</time></trkpt><trkpt lat="42.0485505" lon="12.2960017"><ele>155.33333333333331</ele><time>2026-03-28T10:01:46.055Z</time></trkpt><trkpt lat="42.048746" lon="12.2959151"><ele>155.66666666666666</ele><time>2026-03-28T10:01:47.055Z</time></trkpt><trkpt lat="42.0489514" lon="12.2958364"><ele>156.0</ele><time>2026-03-28T10:01:48.052Z</time></trkpt><trkpt lat="42.0491508" lon="12.2957582"><ele>156.33333333333334</ele><time>2026-03-28T10:01:49.049Z</time></trkpt><trkpt lat="42.0493708" lon="12.2956701"><ele>156.66666666666669</ele><time>2026-03-28T10:01:50.053Z</time></trkpt><trkpt lat="42.0495802" lon="12.2955874"><ele>157.0</ele><time>2026-03-28T10:01:51.054Z</time></trkpt><trkpt lat="42.0497709" lon="12.2955246"><ele>157.0</ele><time>2026-03-28T10:01:52.061Z</time></trkpt><trkpt lat="42.0499513" lon="12.2954653"><ele>157.0</ele><time>2026-03-28T10:01:53.048Z</time></trkpt><trkpt lat="42.0501227" lon="12.2954294"><ele>157.0</ele><time>2026-03-28T10:01:54.053Z</time></trkpt><trkpt lat="42.0502769" lon="12.2954321"><ele>155.0</ele><time>2026-03-28T10:01:55.052Z</time></trkpt><trkpt lat="42.0504367" lon="12.2955042"><ele>153.0</ele><time>2026-03-28T10:01:56.055Z</time></trkpt><trkpt lat="42.0506113" lon="12.2955935"><ele>151.0</ele><time>2026-03-28T10:01:57.05Z</time></trkpt><trkpt lat="42.05078" lon="12.2956827"><ele>151.66666666666669</ele><time>2026-03-28T10:01:58.063Z</time></trkpt><trkpt lat="42.0509625" lon="12.295733"><ele>152.33333333333334</ele><time>2026-03-28T10:01:59.054Z</time></trkpt><trkpt lat="42.0511179" lon="12.2957828"><ele>153.0</ele><time>2026-03-28T10:02:00.049Z</time></trkpt><trkpt lat="42.0512744" lon="12.295833"><ele>153.0</ele><time>2026-03-28T10:02:01.052Z</time></trkpt><trkpt lat="42.0514269" lon="12.2958533"><ele>153.0</ele><time>2026-03-28T10:02:02.061Z</time></trkpt><trkpt lat="42.0516055" lon="12.295826"><ele>153.0</ele><time>2026-03-28T10:02:03.049Z</time></trkpt><trkpt lat="42.0517947" lon="12.2957678"><ele>153.66666666666666</ele><time>2026-03-28T10:02:04.065Z</time></trkpt><trkpt lat="42.0519859" lon="12.2957336"><ele>154.33333333333331</ele><time>2026-03-28T10:02:05.063Z</time></trkpt><trkpt lat="42.0521758" lon="12.2956905"><ele>155.0</ele><time>2026-03-28T10:02:06.061Z</time></trkpt><trkpt lat="42.0523675" lon="12.2956433"><ele>155.66666666666666</ele><time>2026-03-28T10:02:07.053Z</time></trkpt><trkpt lat="42.0525499" lon="12.2956075"><ele>156.33333333333334</ele><time>2026-03-28T10:02:08.057Z</time></trkpt><trkpt lat="42.0527332" lon="12.2955717"><ele>157.0</ele><time>2026-03-28T10:02:09.059Z</time></trkpt><trkpt lat="42.0528998" lon="12.2955297"><ele>157.33333333333334</ele><time>2026-03-28T10:02:10.059Z</time></trkpt><trkpt lat="42.0530648" lon="12.295494"><ele>157.66666666666666</ele><time>2026-03-28T10:02:11.053Z</time></trkpt><trkpt lat="42.0532285" lon="12.2954641"><ele>158.0</ele><time>2026-03-28T10:02:12.059Z</time></trkpt><trkpt lat="42.0534083" lon="12.2954318"><ele>158.0</ele><time>2026-03-28T10:02:13.052Z</time></trkpt><trkpt lat="42.0535832" lon="12.295387"><ele>158.0</ele><time>2026-03-28T10:02:14.067Z</time></trkpt><trkpt lat="42.0537631" lon="12.2953459"><ele>158.0</ele><time>2026-03-28T10:02:15.056Z</time></trkpt><trkpt lat="42.0539143" lon="12.2953139"><ele>158.0</ele><time>2026-03-28T10:02:16.053Z</time></trkpt><trkpt lat="42.054092" lon="12.2952672"><ele>158.0</ele><time>2026-03-28T10:02:17.049Z</time></trkpt><trkpt lat="42.0542689" lon="12.2952399"><ele>158.0</ele><time>2026-03-28T10:02:18.056Z</time></trkpt><trkpt lat="42.0544371" lon="12.2952069"><ele>158.0</ele><time>2026-03-28T10:02:19.068Z</time></trkpt><trkpt lat="42.0546207" lon="12.2951667"><ele>158.0</ele><time>2026-03-28T10:02:20.051Z</time></trkpt><trkpt lat="42.0547952" lon="12.2951215"><ele>158.0</ele><time>2026-03-28T10:02:21.064Z</time></trkpt><trkpt lat="42.0549612" lon="12.2950839"><ele>159.0</ele><time>2026-03-28T10:02:22.05Z</time></trkpt><trkpt lat="42.0551224" lon="12.2950325"><ele>160.0</ele><time>2026-03-28T10:02:23.056Z</time></trkpt><trkpt lat="42.0552733" lon="12.2949658"><ele>161.0</ele><time>2026-03-28T10:02:24.049Z</time></trkpt><trkpt lat="42.0554316" lon="12.2948745"><ele>161.0</ele><time>2026-03-28T10:02:25.065Z</time></trkpt><trkpt lat="42.0555855" lon="12.294802"><ele>161.0</ele><time>2026-03-28T10:02:26.06Z</time></trkpt><trkpt lat="42.0557457" lon="12.2947258"><ele>161.0</ele><time>2026-03-28T10:02:27.056Z</time></trkpt><trkpt lat="42.0559008" lon="12.2946459"><ele>161.25</ele><time>2026-03-28T10:02:28.049Z</time></trkpt><trkpt lat="42.0560268" lon="12.2945844"><ele>161.5</ele><time>2026-03-28T10:02:29.058Z</time></trkpt><trkpt lat="42.0561566" lon="12.2945213"><ele>161.75</ele><time>2026-03-28T10:02:30.061Z</time></trkpt><trkpt lat="42.056289" lon="12.2944559"><ele>162.0</ele><time>2026-03-28T10:02:31.054Z</time></trkpt><trkpt lat="42.0564197" lon="12.2943847"><ele>162.0</ele><time>2026-03-28T10:02:32.052Z</time></trkpt><trkpt lat="42.0565654" lon="12.2943259"><ele>162.0</ele><time>2026-03-28T10:02:33.048Z</time></trkpt><trkpt lat="42.0567229" lon="12.2942626"><ele>162.0</ele><time>2026-03-28T10:02:34.057Z</time></trkpt><trkpt lat="42.056864" lon="12.2942043"><ele>161.5</ele><time>2026-03-28T10:02:35.058Z</time></trkpt><trkpt lat="42.0570106" lon="12.2941405"><ele>161.0</ele><time>2026-03-28T10:02:36.06Z</time></trkpt><trkpt lat="42.0571433" lon="12.2940813"><ele>160.5</ele><time>2026-03-28T10:02:37.05Z</time></trkpt><trkpt lat="42.057268" lon="12.2940229"><ele>160.0</ele><time>2026-03-28T10:02:38.057Z</time></trkpt><trkpt lat="42.0573919" lon="12.2939883"><ele>160.0</ele><time>2026-03-28T10:02:39.057Z</time></trkpt><trkpt lat="42.0575067" lon="12.2939438"><ele>160.0</ele><time>2026-03-28T10:02:40.054Z</time></trkpt><trkpt lat="42.0576176" lon="12.2938953"><ele>160.0</ele><time>2026-03-28T10:02:41.054Z</time></trkpt><trkpt lat="42.0577567" lon="12.293852"><ele>160.0</ele><time>2026-03-28T10:02:42.057Z</time></trkpt><trkpt lat="42.0578696" lon="12.2938205"><ele>160.0</ele><time>2026-03-28T10:02:43.059Z</time></trkpt><trkpt lat="42.0579559" lon="12.2938059"><ele>160.0</ele><time>2026-03-28T10:02:44.066Z</time></trkpt><trkpt lat="42.0580369" lon="12.2937804"><ele>160.0</ele><time>2026-03-28T10:02:46.055Z</time></trkpt><trkpt lat="42.0581307" lon="12.2937532"><ele>160.0</ele><time>2026-03-28T10:02:48.062Z</time></trkpt><trkpt lat="42.0582433" lon="12.2937249"><ele>160.0</ele><time>2026-03-28T10:02:50.056Z</time></trkpt><trkpt lat="42.058336" lon="12.2936858"><ele>160.0</ele><time>2026-03-28T10:02:51.053Z</time></trkpt><trkpt lat="42.0584547" lon="12.2936354"><ele>160.0</ele><time>2026-03-28T10:02:52.048Z</time></trkpt><trkpt lat="42.0586022" lon="12.2935827"><ele>160.0</ele><time>2026-03-28T10:02:53.061Z</time></trkpt><trkpt lat="42.0587503" lon="12.2935242"><ele>160.0</ele><time>2026-03-28T10:02:54.046Z</time></trkpt><trkpt lat="42.058923" lon="12.2934342"><ele>159.66666666666669</ele><time>2026-03-28T10:02:55.054Z</time></trkpt><trkpt lat="42.0591196" lon="12.2933399"><ele>159.33333333333334</ele><time>2026-03-28T10:02:56.064Z</time></trkpt><trkpt lat="42.0593067" lon="12.2932613"><ele>159.0</ele><time>2026-03-28T10:02:57.053Z</time></trkpt><trkpt lat="42.0594721" lon="12.2931743"><ele>159.0</ele><time>2026-03-28T10:02:58.053Z</time></trkpt><trkpt lat="42.0596255" lon="12.2931099"><ele>159.0</ele><time>2026-03-28T10:02:59.051Z</time></trkpt><trkpt lat="42.0597758" lon="12.2930348"><ele>159.0</ele><time>2026-03-28T10:03:00.049Z</time></trkpt><trkpt lat="42.0599478" lon="12.2929382"><ele>159.0</ele><time>2026-03-28T10:03:01.047Z</time></trkpt><trkpt lat="42.0601609" lon="12.2928668"><ele>159.0</ele><time>2026-03-28T10:03:02.06Z</time></trkpt><trkpt lat="42.0603528" lon="12.2928055"><ele>159.0</ele><time>2026-03-28T10:03:03.046Z</time></trkpt><trkpt lat="42.0605224" lon="12.292755"><ele>159.0</ele><time>2026-03-28T10:03:04.061Z</time></trkpt><trkpt lat="42.0606866" lon="12.2927183"><ele>159.0</ele><time>2026-03-28T10:03:05.048Z</time></trkpt><trkpt lat="42.0608447" lon="12.2926904"><ele>159.0</ele><time>2026-03-28T10:03:06.06Z</time></trkpt><trkpt lat="42.0609921" lon="12.2926591"><ele>159.0</ele><time>2026-03-28T10:03:07.062Z</time></trkpt><trkpt lat="42.0611508" lon="12.2926095"><ele>159.0</ele><time>2026-03-28T10:03:08.049Z</time></trkpt><trkpt lat="42.0613112" lon="12.2925723"><ele>159.0</ele><time>2026-03-28T10:03:09.059Z</time></trkpt><trkpt lat="42.0614746" lon="12.292538"><ele>159.0</ele><time>2026-03-28T10:03:10.057Z</time></trkpt><trkpt lat="42.0616242" lon="12.2925024"><ele>159.0</ele><time>2026-03-28T10:03:11.055Z</time></trkpt><trkpt lat="42.0617902" lon="12.2924782"><ele>159.0</ele><time>2026-03-28T10:03:12.056Z</time></trkpt><trkpt lat="42.061949" lon="12.2924427"><ele>159.0</ele><time>2026-03-28T10:03:13.051Z</time></trkpt><trkpt lat="42.0620971" lon="12.2923999"><ele>159.0</ele><time>2026-03-28T10:03:14.055Z</time></trkpt><trkpt lat="42.0622487" lon="12.2923602"><ele>159.0</ele><time>2026-03-28T10:03:15.052Z</time></trkpt><trkpt lat="42.062404" lon="12.2923209"><ele>159.33333333333334</ele><time>2026-03-28T10:03:16.051Z</time></trkpt><trkpt lat="42.0625606" lon="12.2922835"><ele>159.66666666666669</ele><time>2026-03-28T10:03:17.055Z</time></trkpt><trkpt lat="42.0627157" lon="12.2922413"><ele>160.0</ele><time>2026-03-28T10:03:18.057Z</time></trkpt><trkpt lat="42.0628771" lon="12.2921858"><ele>160.33333333333334</ele><time>2026-03-28T10:03:19.054Z</time></trkpt><trkpt lat="42.0630333" lon="12.2921496"><ele>160.66666666666666</ele><time>2026-03-28T10:03:20.057Z</time></trkpt><trkpt lat="42.0631997" lon="12.2921061"><ele>161.0</ele><time>2026-03-28T10:03:21.049Z</time></trkpt><trkpt lat="42.0633595" lon="12.2920677"><ele>161.0</ele><time>2026-03-28T10:03:22.059Z</time></trkpt><trkpt lat="42.063508" lon="12.2920307"><ele>161.0</ele><time>2026-03-28T10:03:23.057Z</time></trkpt><trkpt lat="42.0636791" lon="12.2919838"><ele>161.0</ele><time>2026-03-28T10:03:24.058Z</time></trkpt><trkpt lat="42.0638534" lon="12.2919437"><ele>161.0</ele><time>2026-03-28T10:03:25.054Z</time></trkpt><trkpt lat="42.0640194" lon="12.2918956"><ele>161.0</ele><time>2026-03-28T10:03:26.05Z</time></trkpt><trkpt lat="42.0641903" lon="12.291851"><ele>161.0</ele><time>2026-03-28T10:03:27.067Z</time></trkpt><trkpt lat="42.0643598" lon="12.2918079"><ele>161.0</ele><time>2026-03-28T10:03:28.047Z</time></trkpt><trkpt lat="42.064523" lon="12.2917594"><ele>161.0</ele><time>2026-03-28T10:03:29.053Z</time></trkpt><trkpt lat="42.0646903" lon="12.291714"><ele>161.0</ele><time>2026-03-28T10:03:30.054Z</time></trkpt><trkpt lat="42.0648669" lon="12.2916657"><ele>162.0</ele><time>2026-03-28T10:03:31.058Z</time></trkpt><trkpt lat="42.0650445" lon="12.2916045"><ele>163.0</ele><time>2026-03-28T10:03:32.055Z</time></trkpt><trkpt lat="42.0652287" lon="12.2915493"><ele>164.0</ele><time>2026-03-28T10:03:33.056Z</time></trkpt><trkpt lat="42.0653997" lon="12.2915219"><ele>164.0</ele><time>2026-03-28T10:03:34.052Z</time></trkpt><trkpt lat="42.0655652" lon="12.2914781"><ele>164.0</ele><time>2026-03-28T10:03:35.05Z</time></trkpt><trkpt lat="42.0657267" lon="12.2914349"><ele>164.0</ele><time>2026-03-28T10:03:36.049Z</time></trkpt><trkpt lat="42.0658852" lon="12.2913922"><ele>164.0</ele><time>2026-03-28T10:03:37.054Z</time></trkpt><trkpt lat="42.0660142" lon="12.2913644"><ele>164.0</ele><time>2026-03-28T10:03:38.07Z</time></trkpt><trkpt lat="42.0661184" lon="12.2913281"><ele>164.0</ele><time>2026-03-28T10:03:39.05Z</time></trkpt><trkpt lat="42.0662152" lon="12.2913065"><ele>164.0</ele><time>2026-03-28T10:03:40.056Z</time></trkpt><trkpt lat="42.0662896" lon="12.2912878"><ele>164.0</ele><time>2026-03-28T10:03:41.047Z</time></trkpt><trkpt lat="42.066354" lon="12.291264"><ele>164.0</ele><time>2026-03-28T10:03:42.067Z</time></trkpt><trkpt lat="42.0664368" lon="12.2912512"><ele>164.0</ele><time>2026-03-28T10:03:44.064Z</time></trkpt><trkpt lat="42.0665327" lon="12.2912067"><ele>164.0</ele><time>2026-03-28T10:03:47.048Z</time></trkpt><trkpt lat="42.066626" lon="12.2911776"><ele>164.0</ele><time>2026-03-28T10:03:49.053Z</time></trkpt><trkpt lat="42.0666922" lon="12.2911574"><ele>164.0</ele><time>2026-03-28T10:03:50.061Z</time></trkpt><trkpt lat="42.0667657" lon="12.2911412"><ele>164.0</ele><time>2026-03-28T10:03:51.05Z</time></trkpt><trkpt lat="42.0668358" lon="12.2911219"><ele>164.16666666666666</ele><time>2026-03-28T10:03:52.056Z</time></trkpt><trkpt lat="42.0669076" lon="12.2911016"><ele>164.33333333333331</ele><time>2026-03-28T10:03:53.051Z</time></trkpt><trkpt lat="42.0669923" lon="12.2910685"><ele>164.5</ele><time>2026-03-28T10:03:54.054Z</time></trkpt><trkpt lat="42.0670903" lon="12.2910446"><ele>164.66666666666666</ele><time>2026-03-28T10:03:55.049Z</time></trkpt><trkpt lat="42.0671655" lon="12.291035"><ele>164.83333333333334</ele><time>2026-03-28T10:03:56.047Z</time></trkpt><trkpt lat="42.0672619" lon="12.2910089"><ele>165.0</ele><time>2026-03-28T10:03:58.053Z</time></trkpt><trkpt lat="42.0673236" lon="12.290978"><ele>165.0</ele><time>2026-03-28T10:04:00.047Z</time></trkpt><trkpt lat="42.0674056" lon="12.290953"><ele>165.0</ele><time>2026-03-28T10:04:03.052Z</time></trkpt><trkpt lat="42.0674769" lon="12.2909369"><ele>165.0</ele><time>2026-03-28T10:04:06.059Z</time></trkpt><trkpt lat="42.0675461" lon="12.2909247"><ele>165.0</ele><time>2026-03-28T10:04:09.051Z</time></trkpt><trkpt lat="42.0676255" lon="12.2909539"><ele>165.0</ele><time>2026-03-28T10:04:12.057Z</time></trkpt><trkpt lat="42.0677119" lon="12.2909006"><ele>165.0</ele><time>2026-03-28T10:04:14.051Z</time></trkpt><trkpt lat="42.0678191" lon="12.2908502"><ele>165.6</ele><time>2026-03-28T10:04:16.054Z</time></trkpt><trkpt lat="42.0679154" lon="12.2908132"><ele>166.2</ele><time>2026-03-28T10:04:17.066Z</time></trkpt><trkpt lat="42.0680213" lon="12.2908084"><ele>166.8</ele><time>2026-03-28T10:04:18.046Z</time></trkpt><trkpt lat="42.06811" lon="12.2908062"><ele>167.4</ele><time>2026-03-28T10:04:19.056Z</time></trkpt><trkpt lat="42.0681962" lon="12.2907924"><ele>168.0</ele><time>2026-03-28T10:04:20.053Z</time></trkpt><trkpt lat="42.0682626" lon="12.2907651"><ele>168.0</ele><time>2026-03-28T10:04:21.054Z</time></trkpt><trkpt lat="42.0683333" lon="12.2907434"><ele>168.0</ele><time>2026-03-28T10:04:22.059Z</time></trkpt><trkpt lat="42.0684093" lon="12.2907265"><ele>168.0</ele><time>2026-03-28T10:04:23.05Z</time></trkpt><trkpt lat="42.0684899" lon="12.2907138"><ele>168.0</ele><time>2026-03-28T10:04:24.056Z</time></trkpt><trkpt lat="42.0685773" lon="12.2907014"><ele>168.0</ele><time>2026-03-28T10:04:25.048Z</time></trkpt><trkpt lat="42.0686712" lon="12.2906845"><ele>168.0</ele><time>2026-03-28T10:04:26.063Z</time></trkpt><trkpt lat="42.068758" lon="12.2906738"><ele>168.0</ele><time>2026-03-28T10:04:27.047Z</time></trkpt><trkpt lat="42.0688359" lon="12.29066"><ele>168.0</ele><time>2026-03-28T10:04:28.073Z</time></trkpt><trkpt lat="42.0689124" lon="12.2906457"><ele>168.0</ele><time>2026-03-28T10:04:29.05Z</time></trkpt><trkpt lat="42.0690431" lon="12.2906162"><ele>168.0</ele><time>2026-03-28T10:04:31.054Z</time></trkpt><trkpt lat="42.069124" lon="12.2905996"><ele>168.0</ele><time>2026-03-28T10:04:32.05Z</time></trkpt><trkpt lat="42.0692222" lon="12.2905961"><ele>168.25</ele><time>2026-03-28T10:04:33.054Z</time></trkpt><trkpt lat="42.0693296" lon="12.2905885"><ele>168.5</ele><time>2026-03-28T10:04:34.054Z</time></trkpt><trkpt lat="42.069463" lon="12.2906012"><ele>168.75</ele><time>2026-03-28T10:04:35.062Z</time></trkpt><trkpt lat="42.0696199" lon="12.2906409"><ele>169.0</ele><time>2026-03-28T10:04:36.052Z</time></trkpt><trkpt lat="42.069773" lon="12.2907008"><ele>168.5</ele><time>2026-03-28T10:04:37.056Z</time></trkpt><trkpt lat="42.0699092" lon="12.2907469"><ele>168.0</ele><time>2026-03-28T10:04:38.052Z</time></trkpt><trkpt lat="42.07003" lon="12.2907868"><ele>167.5</ele><time>2026-03-28T10:04:39.052Z</time></trkpt><trkpt lat="42.0701549" lon="12.2908252"><ele>167.0</ele><time>2026-03-28T10:04:40.057Z</time></trkpt><trkpt lat="42.0702808" lon="12.29088"><ele>167.0</ele><time>2026-03-28T10:04:41.048Z</time></trkpt><trkpt lat="42.0704157" lon="12.2909339"><ele>167.0</ele><time>2026-03-28T10:04:42.054Z</time></trkpt><trkpt lat="42.0705484" lon="12.2909886"><ele>167.0</ele><time>2026-03-28T10:04:43.054Z</time></trkpt><trkpt lat="42.07068" lon="12.2910447"><ele>167.0</ele><time>2026-03-28T10:04:44.052Z</time></trkpt><trkpt lat="42.0708138" lon="12.2910899"><ele>167.5</ele><time>2026-03-28T10:04:45.056Z</time></trkpt><trkpt lat="42.070934" lon="12.2911146"><ele>168.0</ele><time>2026-03-28T10:04:46.062Z</time></trkpt><trkpt lat="42.0710654" lon="12.2911402"><ele>168.5</ele><time>2026-03-28T10:04:47.054Z</time></trkpt><trkpt lat="42.071184" lon="12.2911571"><ele>169.0</ele><time>2026-03-28T10:04:48.057Z</time></trkpt><trkpt lat="42.0713052" lon="12.291163"><ele>169.0</ele><time>2026-03-28T10:04:49.047Z</time></trkpt><trkpt lat="42.0714182" lon="12.2911818"><ele>169.0</ele><time>2026-03-28T10:04:50.056Z</time></trkpt><trkpt lat="42.0715318" lon="12.2911866"><ele>169.0</ele><time>2026-03-28T10:04:51.055Z</time></trkpt><trkpt lat="42.0716589" lon="12.2911889"><ele>169.0</ele><time>2026-03-28T10:04:52.056Z</time></trkpt><trkpt lat="42.0717732" lon="12.2911833"><ele>169.39999999999998</ele><time>2026-03-28T10:04:53.06Z</time></trkpt><trkpt lat="42.0718717" lon="12.2911729"><ele>169.8</ele><time>2026-03-28T10:04:54.055Z</time></trkpt><trkpt lat="42.0719653" lon="12.2911511"><ele>170.2</ele><time>2026-03-28T10:04:55.064Z</time></trkpt><trkpt lat="42.072058" lon="12.2911313"><ele>170.60000000000002</ele><time>2026-03-28T10:04:56.05Z</time></trkpt><trkpt lat="42.0721529" lon="12.2911187"><ele>171.0</ele><time>2026-03-28T10:04:57.056Z</time></trkpt><trkpt lat="42.0722648" lon="12.2911135"><ele>171.0</ele><time>2026-03-28T10:04:58.05Z</time></trkpt><trkpt lat="42.0723855" lon="12.2911057"><ele>171.0</ele><time>2026-03-28T10:04:59.06Z</time></trkpt><trkpt lat="42.0725076" lon="12.291086"><ele>171.0</ele><time>2026-03-28T10:05:00.051Z</time></trkpt><trkpt lat="42.0726375" lon="12.291061"><ele>171.0</ele><time>2026-03-28T10:05:01.047Z</time></trkpt><trkpt lat="42.0727709" lon="12.2910397"><ele>171.0</ele><time>2026-03-28T10:05:02.048Z</time></trkpt><trkpt lat="42.0729067" lon="12.2910144"><ele>171.0</ele><time>2026-03-28T10:05:03.058Z</time></trkpt><trkpt lat="42.0730349" lon="12.2909895"><ele>171.0</ele><time>2026-03-28T10:05:04.052Z</time></trkpt><trkpt lat="42.0731883" lon="12.2909644"><ele>171.0</ele><time>2026-03-28T10:05:05.049Z</time></trkpt><trkpt lat="42.0733261" lon="12.2909355"><ele>171.0</ele><time>2026-03-28T10:05:06.054Z</time></trkpt><trkpt lat="42.0734564" lon="12.2908993"><ele>171.0</ele><time>2026-03-28T10:05:07.053Z</time></trkpt><trkpt lat="42.0735907" lon="12.2908639"><ele>171.0</ele><time>2026-03-28T10:05:08.059Z</time></trkpt><trkpt lat="42.0737189" lon="12.2908523"><ele>171.0</ele><time>2026-03-28T10:05:09.062Z</time></trkpt><trkpt lat="42.073845" lon="12.2908325"><ele>171.0</ele><time>2026-03-28T10:05:10.053Z</time></trkpt><trkpt lat="42.0739751" lon="12.2908151"><ele>171.0</ele><time>2026-03-28T10:05:11.056Z</time></trkpt><trkpt lat="42.0741024" lon="12.2907984"><ele>171.0</ele><time>2026-03-28T10:05:12.047Z</time></trkpt><trkpt lat="42.0742145" lon="12.290778"><ele>171.0</ele><time>2026-03-28T10:05:13.063Z</time></trkpt><trkpt lat="42.0743296" lon="12.2907568"><ele>170.75</ele><time>2026-03-28T10:05:14.065Z</time></trkpt><trkpt lat="42.0744614" lon="12.2907248"><ele>170.5</ele><time>2026-03-28T10:05:15.054Z</time></trkpt><trkpt lat="42.0745955" lon="12.2907019"><ele>170.25</ele><time>2026-03-28T10:05:16.049Z</time></trkpt><trkpt lat="42.0747346" lon="12.2906769"><ele>170.0</ele><time>2026-03-28T10:05:17.058Z</time></trkpt><trkpt lat="42.0748777" lon="12.2906481"><ele>170.5</ele><time>2026-03-28T10:05:18.06Z</time></trkpt><trkpt lat="42.0750238" lon="12.290628"><ele>171.0</ele><time>2026-03-28T10:05:19.061Z</time></trkpt><trkpt lat="42.0751574" lon="12.2906107"><ele>171.5</ele><time>2026-03-28T10:05:20.054Z</time></trkpt><trkpt lat="42.0752831" lon="12.2905877"><ele>172.0</ele><time>2026-03-28T10:05:21.056Z</time></trkpt><trkpt lat="42.0754128" lon="12.2905553"><ele>172.25</ele><time>2026-03-28T10:05:22.049Z</time></trkpt><trkpt lat="42.0755458" lon="12.2905037"><ele>172.5</ele><time>2026-03-28T10:05:23.057Z</time></trkpt><trkpt lat="42.0756565" lon="12.290459"><ele>172.75</ele><time>2026-03-28T10:05:24.048Z</time></trkpt><trkpt lat="42.0757601" lon="12.2903998"><ele>173.0</ele><time>2026-03-28T10:05:25.063Z</time></trkpt><trkpt lat="42.0758659" lon="12.2903374"><ele>173.0</ele><time>2026-03-28T10:05:26.053Z</time></trkpt><trkpt lat="42.0759789" lon="12.2902555"><ele>173.0</ele><time>2026-03-28T10:05:27.05Z</time></trkpt><trkpt lat="42.0760944" lon="12.2901611"><ele>173.0</ele><time>2026-03-28T10:05:28.051Z</time></trkpt><trkpt lat="42.0762178" lon="12.2900566"><ele>173.0</ele><time>2026-03-28T10:05:29.055Z</time></trkpt><trkpt lat="42.0763494" lon="12.2899476"><ele>173.0</ele><time>2026-03-28T10:05:30.051Z</time></trkpt><trkpt lat="42.0764791" lon="12.2898495"><ele>173.0</ele><time>2026-03-28T10:05:31.048Z</time></trkpt><trkpt lat="42.0765959" lon="12.2897447"><ele>173.0</ele><time>2026-03-28T10:05:32.051Z</time></trkpt><trkpt lat="42.0767083" lon="12.2896421"><ele>173.0</ele><time>2026-03-28T10:05:33.052Z</time></trkpt><trkpt lat="42.0768392" lon="12.2895294"><ele>174.33333333333331</ele><time>2026-03-28T10:05:34.056Z</time></trkpt><trkpt lat="42.0769625" lon="12.2894329"><ele>175.66666666666666</ele><time>2026-03-28T10:05:35.051Z</time></trkpt><trkpt lat="42.0770869" lon="12.2893049"><ele>177.0</ele><time>2026-03-28T10:05:36.046Z</time></trkpt><trkpt lat="42.0772109" lon="12.2891875"><ele>177.0</ele><time>2026-03-28T10:05:37.049Z</time></trkpt><trkpt lat="42.0773298" lon="12.2890804"><ele>177.0</ele><time>2026-03-28T10:05:38.055Z</time></trkpt><trkpt lat="42.077443" lon="12.2889739"><ele>177.0</ele><time>2026-03-28T10:05:39.062Z</time></trkpt><trkpt lat="42.0775563" lon="12.2888667"><ele>177.0</ele><time>2026-03-28T10:05:40.057Z</time></trkpt><trkpt lat="42.0776687" lon="12.2887717"><ele>177.5</ele><time>2026-03-28T10:05:41.058Z</time></trkpt><trkpt lat="42.0777837" lon="12.2886629"><ele>178.0</ele><time>2026-03-28T10:05:42.048Z</time></trkpt><trkpt lat="42.0779044" lon="12.2885491"><ele>178.5</ele><time>2026-03-28T10:05:43.056Z</time></trkpt><trkpt lat="42.0780066" lon="12.2884349"><ele>179.0</ele><time>2026-03-28T10:05:44.046Z</time></trkpt><trkpt lat="42.0781128" lon="12.2883551"><ele>179.0</ele><time>2026-03-28T10:05:45.052Z</time></trkpt><trkpt lat="42.0782207" lon="12.2882588"><ele>179.0</ele><time>2026-03-28T10:05:46.052Z</time></trkpt><trkpt lat="42.0783238" lon="12.2881605"><ele>179.0</ele><time>2026-03-28T10:05:47.053Z</time></trkpt><trkpt lat="42.0784238" lon="12.2880722"><ele>179.0</ele><time>2026-03-28T10:05:48.058Z</time></trkpt><trkpt lat="42.0785099" lon="12.2879889"><ele>178.75</ele><time>2026-03-28T10:05:49.055Z</time></trkpt><trkpt lat="42.0785911" lon="12.2879124"><ele>178.5</ele><time>2026-03-28T10:05:50.06Z</time></trkpt><trkpt lat="42.0786742" lon="12.287819"><ele>178.25</ele><time>2026-03-28T10:05:51.049Z</time></trkpt><trkpt lat="42.0787759" lon="12.2877223"><ele>178.0</ele><time>2026-03-28T10:05:52.05Z</time></trkpt><trkpt lat="42.0788807" lon="12.2876296"><ele>178.0</ele><time>2026-03-28T10:05:53.049Z</time></trkpt><trkpt lat="42.078981" lon="12.2875438"><ele>178.0</ele><time>2026-03-28T10:05:54.057Z</time></trkpt><trkpt lat="42.0790783" lon="12.2874578"><ele>178.0</ele><time>2026-03-28T10:05:55.066Z</time></trkpt><trkpt lat="42.0791742" lon="12.287369"><ele>178.0</ele><time>2026-03-28T10:05:56.048Z</time></trkpt><trkpt lat="42.0792718" lon="12.2872843"><ele>178.25</ele><time>2026-03-28T10:05:57.054Z</time></trkpt><trkpt lat="42.0793719" lon="12.2871879"><ele>178.5</ele><time>2026-03-28T10:05:58.05Z</time></trkpt><trkpt lat="42.0794648" lon="12.2870952"><ele>178.75</ele><time>2026-03-28T10:05:59.062Z</time></trkpt><trkpt lat="42.0795636" lon="12.2870076"><ele>179.0</ele><time>2026-03-28T10:06:00.056Z</time></trkpt><trkpt lat="42.0796623" lon="12.2869056"><ele>179.0</ele><time>2026-03-28T10:06:01.055Z</time></trkpt><trkpt lat="42.0797552" lon="12.2868054"><ele>179.0</ele><time>2026-03-28T10:06:02.064Z</time></trkpt><trkpt lat="42.0798447" lon="12.2867068"><ele>179.0</ele><time>2026-03-28T10:06:03.05Z</time></trkpt><trkpt lat="42.0799292" lon="12.2866162"><ele>179.0</ele><time>2026-03-28T10:06:04.066Z</time></trkpt><trkpt lat="42.0800096" lon="12.286529"><ele>179.0</ele><time>2026-03-28T10:06:05.051Z</time></trkpt><trkpt lat="42.0800829" lon="12.2864297"><ele>179.25</ele><time>2026-03-28T10:06:06.053Z</time></trkpt><trkpt lat="42.0801693" lon="12.2863357"><ele>179.5</ele><time>2026-03-28T10:06:07.051Z</time></trkpt><trkpt lat="42.0802529" lon="12.2862395"><ele>179.75</ele><time>2026-03-28T10:06:08.07Z</time></trkpt><trkpt lat="42.0803489" lon="12.2861397"><ele>180.0</ele><time>2026-03-28T10:06:09.055Z</time></trkpt><trkpt lat="42.0804372" lon="12.2860283"><ele>180.0</ele><time>2026-03-28T10:06:10.057Z</time></trkpt><trkpt lat="42.0805326" lon="12.2859123"><ele>180.0</ele><time>2026-03-28T10:06:11.049Z</time></trkpt><trkpt lat="42.0806164" lon="12.2857914"><ele>180.0</ele><time>2026-03-28T10:06:12.047Z</time></trkpt><trkpt lat="42.080694" lon="12.2856811"><ele>180.0</ele><time>2026-03-28T10:06:13.06Z</time></trkpt><trkpt lat="42.0807596" lon="12.285571"><ele>180.2</ele><time>2026-03-28T10:06:14.048Z</time></trkpt><trkpt lat="42.0808158" lon="12.2854508"><ele>180.4</ele><time>2026-03-28T10:06:15.051Z</time></trkpt><trkpt lat="42.0808821" lon="12.2853302"><ele>180.60000000000002</ele><time>2026-03-28T10:06:16.053Z</time></trkpt><trkpt lat="42.080944" lon="12.285226"><ele>180.8</ele><time>2026-03-28T10:06:17.05Z</time></trkpt><trkpt lat="42.0810051" lon="12.2851234"><ele>181.0</ele><time>2026-03-28T10:06:18.057Z</time></trkpt><trkpt lat="42.0810667" lon="12.2850151"><ele>181.0</ele><time>2026-03-28T10:06:19.054Z</time></trkpt><trkpt lat="42.0811271" lon="12.2849052"><ele>181.0</ele><time>2026-03-28T10:06:20.054Z</time></trkpt><trkpt lat="42.0811867" lon="12.2848002"><ele>181.0</ele><time>2026-03-28T10:06:21.052Z</time></trkpt><trkpt lat="42.0812425" lon="12.2847049"><ele>181.0</ele><time>2026-03-28T10:06:22.047Z</time></trkpt><trkpt lat="42.0812982" lon="12.2846209"><ele>181.0</ele><time>2026-03-28T10:06:23.056Z</time></trkpt><trkpt lat="42.0813539" lon="12.2845409"><ele>181.0</ele><time>2026-03-28T10:06:24.044Z</time></trkpt><trkpt lat="42.0814226" lon="12.2844482"><ele>181.0</ele><time>2026-03-28T10:06:25.051Z</time></trkpt><trkpt lat="42.0814954" lon="12.2843527"><ele>181.0</ele><time>2026-03-28T10:06:26.047Z</time></trkpt><trkpt lat="42.0815747" lon="12.2842532"><ele>181.0</ele><time>2026-03-28T10:06:27.055Z</time></trkpt><trkpt lat="42.0816355" lon="12.2841713"><ele>181.0</ele><time>2026-03-28T10:06:28.053Z</time></trkpt><trkpt lat="42.0816964" lon="12.2840935"><ele>181.16666666666669</ele><time>2026-03-28T10:06:29.052Z</time></trkpt><trkpt lat="42.0817712" lon="12.284022"><ele>181.33333333333334</ele><time>2026-03-28T10:06:30.05Z</time></trkpt><trkpt lat="42.0818379" lon="12.2839606"><ele>181.5</ele><time>2026-03-28T10:06:31.063Z</time></trkpt><trkpt lat="42.081912" lon="12.2839111"><ele>181.66666666666666</ele><time>2026-03-28T10:06:32.054Z</time></trkpt><trkpt lat="42.0819764" lon="12.2838634"><ele>181.83333333333331</ele><time>2026-03-28T10:06:33.054Z</time></trkpt><trkpt lat="42.0820745" lon="12.283776"><ele>182.0</ele><time>2026-03-28T10:06:35.054Z</time></trkpt><trkpt lat="42.0821401" lon="12.2837319"><ele>182.0</ele><time>2026-03-28T10:06:36.048Z</time></trkpt><trkpt lat="42.0822153" lon="12.2836755"><ele>182.0</ele><time>2026-03-28T10:06:37.054Z</time></trkpt><trkpt lat="42.0823046" lon="12.2836265"><ele>182.0</ele><time>2026-03-28T10:06:38.046Z</time></trkpt><trkpt lat="42.0823984" lon="12.2835798"><ele>182.0</ele><time>2026-03-28T10:06:39.059Z</time></trkpt><trkpt lat="42.0825057" lon="12.2835145"><ele>182.0</ele><time>2026-03-28T10:06:40.056Z</time></trkpt><trkpt lat="42.0826431" lon="12.2834376"><ele>182.0</ele><time>2026-03-28T10:06:41.048Z</time></trkpt><trkpt lat="42.0827891" lon="12.283372"><ele>182.0</ele><time>2026-03-28T10:06:42.049Z</time></trkpt><trkpt lat="42.08291" lon="12.2833132"><ele>182.0</ele><time>2026-03-28T10:06:43.047Z</time></trkpt><trkpt lat="42.0830163" lon="12.2832529"><ele>182.0</ele><time>2026-03-28T10:06:44.052Z</time></trkpt><trkpt lat="42.0831391" lon="12.2831881"><ele>182.0</ele><time>2026-03-28T10:06:45.049Z</time></trkpt><trkpt lat="42.0832629" lon="12.2831255"><ele>182.0</ele><time>2026-03-28T10:06:46.05Z</time></trkpt><trkpt lat="42.083379" lon="12.2830947"><ele>182.0</ele><time>2026-03-28T10:06:47.046Z</time></trkpt><trkpt lat="42.0834831" lon="12.2830555"><ele>182.0</ele><time>2026-03-28T10:06:48.052Z</time></trkpt><trkpt lat="42.0835899" lon="12.2830091"><ele>182.2</ele><time>2026-03-28T10:06:49.057Z</time></trkpt><trkpt lat="42.0837065" lon="12.2829538"><ele>182.39999999999998</ele><time>2026-03-28T10:06:50.05Z</time></trkpt><trkpt lat="42.0838187" lon="12.2829016"><ele>182.60000000000002</ele><time>2026-03-28T10:06:51.047Z</time></trkpt><trkpt lat="42.0839159" lon="12.2828468"><ele>182.8</ele><time>2026-03-28T10:06:52.053Z</time></trkpt><trkpt lat="42.0840079" lon="12.2827914"><ele>183.0</ele><time>2026-03-28T10:06:53.051Z</time></trkpt><trkpt lat="42.0840974" lon="12.2827463"><ele>183.0</ele><time>2026-03-28T10:06:54.047Z</time></trkpt><trkpt lat="42.0841874" lon="12.2827039"><ele>183.0</ele><time>2026-03-28T10:06:55.053Z</time></trkpt><trkpt lat="42.0842652" lon="12.2826582"><ele>183.0</ele><time>2026-03-28T10:06:56.048Z</time></trkpt><trkpt lat="42.0843381" lon="12.2826177"><ele>183.0</ele><time>2026-03-28T10:06:57.057Z</time></trkpt><trkpt lat="42.0844522" lon="12.2825808"><ele>183.0</ele><time>2026-03-28T10:06:59.051Z</time></trkpt><trkpt lat="42.0845471" lon="12.2826024"><ele>183.0</ele><time>2026-03-28T10:07:01.055Z</time></trkpt><trkpt lat="42.0846171" lon="12.2825632"><ele>183.0</ele><time>2026-03-28T10:07:03.054Z</time></trkpt><trkpt lat="42.0846538" lon="12.2824924"><ele>183.0</ele><time>2026-03-28T10:07:04.057Z</time></trkpt><trkpt lat="42.0846894" lon="12.2823999"><ele>183.0</ele><time>2026-03-28T10:07:05.06Z</time></trkpt><trkpt lat="42.0847482" lon="12.2823126"><ele>183.0</ele><time>2026-03-28T10:07:06.055Z</time></trkpt><trkpt lat="42.0848352" lon="12.2822324"><ele>183.0</ele><time>2026-03-28T10:07:07.052Z</time></trkpt><trkpt lat="42.0849358" lon="12.2821604"><ele>183.25</ele><time>2026-03-28T10:07:08.049Z</time></trkpt><trkpt lat="42.0850398" lon="12.2820871"><ele>183.5</ele><time>2026-03-28T10:07:09.054Z</time></trkpt><trkpt lat="42.0851633" lon="12.2820028"><ele>183.75</ele><time>2026-03-28T10:07:10.048Z</time></trkpt><trkpt lat="42.0853035" lon="12.2818991"><ele>184.0</ele><time>2026-03-28T10:07:11.053Z</time></trkpt><trkpt lat="42.085477" lon="12.2817634"><ele>184.0</ele><time>2026-03-28T10:07:12.051Z</time></trkpt><trkpt lat="42.0856693" lon="12.2816462"><ele>184.0</ele><time>2026-03-28T10:07:13.052Z</time></trkpt><trkpt lat="42.0858527" lon="12.2815177"><ele>184.0</ele><time>2026-03-28T10:07:14.051Z</time></trkpt><trkpt lat="42.0860167" lon="12.2813995"><ele>184.66666666666669</ele><time>2026-03-28T10:07:15.054Z</time></trkpt><trkpt lat="42.0861601" lon="12.2812643"><ele>185.33333333333334</ele><time>2026-03-28T10:07:16.051Z</time></trkpt><trkpt lat="42.0863003" lon="12.2811098"><ele>186.0</ele><time>2026-03-28T10:07:17.048Z</time></trkpt><trkpt lat="42.0864122" lon="12.2809329"><ele>186.0</ele><time>2026-03-28T10:07:18.046Z</time></trkpt><trkpt lat="42.0865537" lon="12.2807423"><ele>186.0</ele><time>2026-03-28T10:07:19.053Z</time></trkpt><trkpt lat="42.0866799" lon="12.2805723"><ele>186.0</ele><time>2026-03-28T10:07:20.052Z</time></trkpt><trkpt lat="42.0867973" lon="12.2804051"><ele>186.66666666666666</ele><time>2026-03-28T10:07:21.05Z</time></trkpt><trkpt lat="42.0869118" lon="12.2802398"><ele>187.33333333333331</ele><time>2026-03-28T10:07:22.048Z</time></trkpt><trkpt lat="42.0870224" lon="12.2800879"><ele>188.0</ele><time>2026-03-28T10:07:23.06Z</time></trkpt><trkpt lat="42.0871649" lon="12.27994"><ele>188.0</ele><time>2026-03-28T10:07:24.049Z</time></trkpt><trkpt lat="42.0872867" lon="12.2798038"><ele>188.0</ele><time>2026-03-28T10:07:25.051Z</time></trkpt><trkpt lat="42.0874057" lon="12.2796805"><ele>188.0</ele><time>2026-03-28T10:07:26.05Z</time></trkpt><trkpt lat="42.0875282" lon="12.2795417"><ele>187.66666666666666</ele><time>2026-03-28T10:07:27.057Z</time></trkpt><trkpt lat="42.0876961" lon="12.2794191"><ele>187.33333333333334</ele><time>2026-03-28T10:07:28.052Z</time></trkpt><trkpt lat="42.08785" lon="12.279298"><ele>187.0</ele><time>2026-03-28T10:07:29.058Z</time></trkpt><trkpt lat="42.0879988" lon="12.2792169"><ele>187.0</ele><time>2026-03-28T10:07:30.061Z</time></trkpt><trkpt lat="42.0881388" lon="12.2791134"><ele>187.0</ele><time>2026-03-28T10:07:31.052Z</time></trkpt><trkpt lat="42.0882869" lon="12.2790267"><ele>187.0</ele><time>2026-03-28T10:07:32.052Z</time></trkpt><trkpt lat="42.0884056" lon="12.2789257"><ele>187.0</ele><time>2026-03-28T10:07:33.046Z</time></trkpt><trkpt lat="42.0885112" lon="12.2788192"><ele>187.0</ele><time>2026-03-28T10:07:34.052Z</time></trkpt><trkpt lat="42.0885936" lon="12.2786913"><ele>187.0</ele><time>2026-03-28T10:07:35.064Z</time></trkpt><trkpt lat="42.0886374" lon="12.2785444"><ele>187.0</ele><time>2026-03-28T10:07:36.054Z</time></trkpt><trkpt lat="42.0886903" lon="12.2783989"><ele>187.0</ele><time>2026-03-28T10:07:37.058Z</time></trkpt><trkpt lat="42.0887451" lon="12.2782662"><ele>187.0</ele><time>2026-03-28T10:07:38.066Z</time></trkpt><trkpt lat="42.0888197" lon="12.2781367"><ele>187.0</ele><time>2026-03-28T10:07:39.052Z</time></trkpt><trkpt lat="42.0888798" lon="12.27801"><ele>187.0</ele><time>2026-03-28T10:07:40.061Z</time></trkpt><trkpt lat="42.0889393" lon="12.2778882"><ele>187.25</ele><time>2026-03-28T10:07:41.054Z</time></trkpt><trkpt lat="42.0890095" lon="12.277749"><ele>187.5</ele><time>2026-03-28T10:07:42.051Z</time></trkpt><trkpt lat="42.0890827" lon="12.2775978"><ele>187.75</ele><time>2026-03-28T10:07:43.055Z</time></trkpt><trkpt lat="42.0891647" lon="12.2774494"><ele>188.0</ele><time>2026-03-28T10:07:44.046Z</time></trkpt><trkpt lat="42.0892359" lon="12.2773241"><ele>187.75</ele><time>2026-03-28T10:07:45.058Z</time></trkpt><trkpt lat="42.0893185" lon="12.2772093"><ele>187.5</ele><time>2026-03-28T10:07:46.054Z</time></trkpt><trkpt lat="42.0893755" lon="12.2770967"><ele>187.25</ele><time>2026-03-28T10:07:47.051Z</time></trkpt><trkpt lat="42.0894269" lon="12.2769679"><ele>187.0</ele><time>2026-03-28T10:07:48.066Z</time></trkpt><trkpt lat="42.0894944" lon="12.2768289"><ele>187.0</ele><time>2026-03-28T10:07:49.059Z</time></trkpt><trkpt lat="42.089533" lon="12.2767091"><ele>187.0</ele><time>2026-03-28T10:07:50.057Z</time></trkpt><trkpt lat="42.0895992" lon="12.2766029"><ele>187.0</ele><time>2026-03-28T10:07:51.057Z</time></trkpt><trkpt lat="42.0896602" lon="12.2764983"><ele>187.0</ele><time>2026-03-28T10:07:52.055Z</time></trkpt><trkpt lat="42.0897149" lon="12.27639"><ele>187.0</ele><time>2026-03-28T10:07:53.055Z</time></trkpt><trkpt lat="42.0897727" lon="12.2762714"><ele>187.5</ele><time>2026-03-28T10:07:54.058Z</time></trkpt><trkpt lat="42.0898478" lon="12.2761444"><ele>188.0</ele><time>2026-03-28T10:07:55.052Z</time></trkpt><trkpt lat="42.0899294" lon="12.2760123"><ele>188.5</ele><time>2026-03-28T10:07:56.046Z</time></trkpt><trkpt lat="42.0899994" lon="12.2758564"><ele>189.0</ele><time>2026-03-28T10:07:57.054Z</time></trkpt><trkpt lat="42.0900697" lon="12.2757072"><ele>189.5</ele><time>2026-03-28T10:07:58.053Z</time></trkpt><trkpt lat="42.0901591" lon="12.2755673"><ele>190.0</ele><time>2026-03-28T10:07:59.049Z</time></trkpt><trkpt lat="42.0902285" lon="12.2754214"><ele>190.5</ele><time>2026-03-28T10:08:00.05Z</time></trkpt><trkpt lat="42.0902863" lon="12.2752601"><ele>191.0</ele><time>2026-03-28T10:08:01.051Z</time></trkpt><trkpt lat="42.0903408" lon="12.2751047"><ele>191.0</ele><time>2026-03-28T10:08:02.048Z</time></trkpt><trkpt lat="42.0903956" lon="12.2749631"><ele>191.0</ele><time>2026-03-28T10:08:03.053Z</time></trkpt><trkpt lat="42.0904469" lon="12.2748247"><ele>191.0</ele><time>2026-03-28T10:08:04.045Z</time></trkpt><trkpt lat="42.0905204" lon="12.2746721"><ele>191.0</ele><time>2026-03-28T10:08:05.05Z</time></trkpt><trkpt lat="42.0905666" lon="12.274521"><ele>191.20000000000002</ele><time>2026-03-28T10:08:06.056Z</time></trkpt><trkpt lat="42.0906133" lon="12.2743813"><ele>191.4</ele><time>2026-03-28T10:08:07.052Z</time></trkpt><trkpt lat="42.0906542" lon="12.2742576"><ele>191.6</ele><time>2026-03-28T10:08:08.051Z</time></trkpt><trkpt lat="42.0906856" lon="12.2741586"><ele>191.8</ele><time>2026-03-28T10:08:09.046Z</time></trkpt><trkpt lat="42.0907294" lon="12.2740238"><ele>192.0</ele><time>2026-03-28T10:08:11.048Z</time></trkpt><trkpt lat="42.0907883" lon="12.2738907"><ele>192.0</ele><time>2026-03-28T10:08:13.046Z</time></trkpt><trkpt lat="42.0908628" lon="12.2738754"><ele>192.0</ele><time>2026-03-28T10:08:15.052Z</time></trkpt><trkpt lat="42.0909281" lon="12.2739186"><ele>192.0</ele><time>2026-03-28T10:08:17.06Z</time></trkpt><trkpt lat="42.0909923" lon="12.2739516"><ele>192.0</ele><time>2026-03-28T10:08:20.049Z</time></trkpt><trkpt lat="42.0910608" lon="12.2740095"><ele>192.0</ele><time>2026-03-28T10:08:22.049Z</time></trkpt><trkpt lat="42.0911156" lon="12.2740546"><ele>192.0</ele><time>2026-03-28T10:08:23.051Z</time></trkpt><trkpt lat="42.0912035" lon="12.2740875"><ele>191.39999999999998</ele><time>2026-03-28T10:08:24.053Z</time></trkpt><trkpt lat="42.0913" lon="12.2741397"><ele>190.79999999999998</ele><time>2026-03-28T10:08:25.054Z</time></trkpt><trkpt lat="42.0913979" lon="12.2741876"><ele>190.2</ele><time>2026-03-28T10:08:26.056Z</time></trkpt><trkpt lat="42.0914934" lon="12.2742319"><ele>189.6</ele><time>2026-03-28T10:08:27.052Z</time></trkpt><trkpt lat="42.0915835" lon="12.2742916"><ele>189.0</ele><time>2026-03-28T10:08:28.048Z</time></trkpt><trkpt lat="42.0916652" lon="12.2743741"><ele>188.75</ele><time>2026-03-28T10:08:29.051Z</time></trkpt><trkpt lat="42.091747" lon="12.2744807"><ele>188.5</ele><time>2026-03-28T10:08:30.044Z</time></trkpt><trkpt lat="42.0918173" lon="12.2746107"><ele>188.25</ele><time>2026-03-28T10:08:31.049Z</time></trkpt><trkpt lat="42.0918819" lon="12.2747516"><ele>188.0</ele><time>2026-03-28T10:08:32.055Z</time></trkpt><trkpt lat="42.0919501" lon="12.2749007"><ele>188.0</ele><time>2026-03-28T10:08:33.045Z</time></trkpt><trkpt lat="42.0920256" lon="12.2750386"><ele>188.0</ele><time>2026-03-28T10:08:34.048Z</time></trkpt><trkpt lat="42.0920954" lon="12.2751757"><ele>188.0</ele><time>2026-03-28T10:08:35.051Z</time></trkpt><trkpt lat="42.0921596" lon="12.2753101"><ele>188.0</ele><time>2026-03-28T10:08:36.054Z</time></trkpt><trkpt lat="42.0922271" lon="12.2754106"><ele>188.0</ele><time>2026-03-28T10:08:37.056Z</time></trkpt><trkpt lat="42.0922977" lon="12.2754925"><ele>188.0</ele><time>2026-03-28T10:08:38.063Z</time></trkpt><trkpt lat="42.0923765" lon="12.2755261"><ele>188.0</ele><time>2026-03-28T10:08:39.051Z</time></trkpt><trkpt lat="42.0924659" lon="12.2755408"><ele>188.0</ele><time>2026-03-28T10:08:40.046Z</time></trkpt><trkpt lat="42.0925672" lon="12.2755177"><ele>188.0</ele><time>2026-03-28T10:08:41.05Z</time></trkpt><trkpt lat="42.0926578" lon="12.2755058"><ele>186.16666666666666</ele><time>2026-03-28T10:08:42.055Z</time></trkpt><trkpt lat="42.0927398" lon="12.2755198"><ele>184.33333333333331</ele><time>2026-03-28T10:08:43.053Z</time></trkpt><trkpt lat="42.0927941" lon="12.2755712"><ele>182.5</ele><time>2026-03-28T10:08:44.045Z</time></trkpt><trkpt lat="42.0928222" lon="12.2756659"><ele>180.66666666666666</ele><time>2026-03-28T10:08:45.056Z</time></trkpt><trkpt lat="42.0928383" lon="12.2758055"><ele>178.83333333333334</ele><time>2026-03-28T10:08:46.059Z</time></trkpt><trkpt lat="42.0928529" lon="12.2759592"><ele>177.0</ele><time>2026-03-28T10:08:47.059Z</time></trkpt><trkpt lat="42.0928841" lon="12.2761265"><ele>177.0</ele><time>2026-03-28T10:08:48.046Z</time></trkpt><trkpt lat="42.0929225" lon="12.2763049"><ele>177.0</ele><time>2026-03-28T10:08:49.058Z</time></trkpt><trkpt lat="42.0929528" lon="12.2764783"><ele>177.0</ele><time>2026-03-28T10:08:50.049Z</time></trkpt><trkpt lat="42.0929795" lon="12.276638"><ele>177.0</ele><time>2026-03-28T10:08:51.055Z</time></trkpt><trkpt lat="42.0930063" lon="12.2767894"><ele>175.75</ele><time>2026-03-28T10:08:52.05Z</time></trkpt><trkpt lat="42.0930394" lon="12.2769393"><ele>174.5</ele><time>2026-03-28T10:08:53.054Z</time></trkpt><trkpt lat="42.0930729" lon="12.277094"><ele>173.25</ele><time>2026-03-28T10:08:54.049Z</time></trkpt><trkpt lat="42.0931078" lon="12.2772433"><ele>172.0</ele><time>2026-03-28T10:08:55.047Z</time></trkpt><trkpt lat="42.0931437" lon="12.2773984"><ele>171.75</ele><time>2026-03-28T10:08:56.044Z</time></trkpt><trkpt lat="42.0931775" lon="12.2775539"><ele>171.5</ele><time>2026-03-28T10:08:57.054Z</time></trkpt><trkpt lat="42.0932108" lon="12.2776985"><ele>171.25</ele><time>2026-03-28T10:08:58.051Z</time></trkpt><trkpt lat="42.0932461" lon="12.2778464"><ele>171.0</ele><time>2026-03-28T10:08:59.055Z</time></trkpt><trkpt lat="42.0932792" lon="12.2779926"><ele>170.0</ele><time>2026-03-28T10:09:00.05Z</time></trkpt><trkpt lat="42.0933165" lon="12.2781376"><ele>169.0</ele><time>2026-03-28T10:09:01.055Z</time></trkpt><trkpt lat="42.0933567" lon="12.2782824"><ele>168.0</ele><time>2026-03-28T10:09:02.062Z</time></trkpt><trkpt lat="42.0934005" lon="12.2784402"><ele>167.0</ele><time>2026-03-28T10:09:03.056Z</time></trkpt><trkpt lat="42.0934449" lon="12.2786066"><ele>167.0</ele><time>2026-03-28T10:09:04.049Z</time></trkpt><trkpt lat="42.0934788" lon="12.2787772"><ele>167.0</ele><time>2026-03-28T10:09:05.06Z</time></trkpt><trkpt lat="42.0935083" lon="12.2789534"><ele>167.0</ele><time>2026-03-28T10:09:06.045Z</time></trkpt><trkpt lat="42.0935489" lon="12.2791193"><ele>167.0</ele><time>2026-03-28T10:09:07.057Z</time></trkpt><trkpt lat="42.0935915" lon="12.2792843"><ele>167.0</ele><time>2026-03-28T10:09:08.05Z</time></trkpt><trkpt lat="42.093642" lon="12.2794593"><ele>167.0</ele><time>2026-03-28T10:09:09.055Z</time></trkpt><trkpt lat="42.0937036" lon="12.2796301"><ele>167.0</ele><time>2026-03-28T10:09:10.05Z</time></trkpt><trkpt lat="42.0937741" lon="12.2797769"><ele>167.0</ele><time>2026-03-28T10:09:11.062Z</time></trkpt><trkpt lat="42.0938693" lon="12.2798956"><ele>166.75</ele><time>2026-03-28T10:09:12.05Z</time></trkpt><trkpt lat="42.0939969" lon="12.2799739"><ele>166.5</ele><time>2026-03-28T10:09:13.059Z</time></trkpt><trkpt lat="42.0941368" lon="12.2800186"><ele>166.25</ele><time>2026-03-28T10:09:14.049Z</time></trkpt><trkpt lat="42.094276" lon="12.2800441"><ele>166.0</ele><time>2026-03-28T10:09:15.049Z</time></trkpt><trkpt lat="42.094427" lon="12.2800435"><ele>166.0</ele><time>2026-03-28T10:09:16.055Z</time></trkpt><trkpt lat="42.0945612" lon="12.2800258"><ele>166.0</ele><time>2026-03-28T10:09:17.051Z</time></trkpt><trkpt lat="42.0947096" lon="12.2799969"><ele>166.0</ele><time>2026-03-28T10:09:18.049Z</time></trkpt><trkpt lat="42.0948482" lon="12.279957"><ele>166.0</ele><time>2026-03-28T10:09:19.052Z</time></trkpt><trkpt lat="42.0949903" lon="12.2799262"><ele>165.75</ele><time>2026-03-28T10:09:20.058Z</time></trkpt><trkpt lat="42.0951283" lon="12.2798828"><ele>165.5</ele><time>2026-03-28T10:09:21.051Z</time></trkpt><trkpt lat="42.0952694" lon="12.279856"><ele>165.25</ele><time>2026-03-28T10:09:22.057Z</time></trkpt><trkpt lat="42.095403" lon="12.2798253"><ele>165.0</ele><time>2026-03-28T10:09:23.051Z</time></trkpt><trkpt lat="42.0955249" lon="12.2797878"><ele>164.5</ele><time>2026-03-28T10:09:24.057Z</time></trkpt><trkpt lat="42.0956643" lon="12.279743"><ele>164.0</ele><time>2026-03-28T10:09:25.045Z</time></trkpt><trkpt lat="42.0957875" lon="12.2797061"><ele>163.5</ele><time>2026-03-28T10:09:26.059Z</time></trkpt><trkpt lat="42.0959132" lon="12.2796836"><ele>163.0</ele><time>2026-03-28T10:09:27.053Z</time></trkpt><trkpt lat="42.0960372" lon="12.2796573"><ele>163.0</ele><time>2026-03-28T10:09:28.068Z</time></trkpt><trkpt lat="42.0961489" lon="12.2796322"><ele>163.0</ele><time>2026-03-28T10:09:29.047Z</time></trkpt><trkpt lat="42.096258" lon="12.2796082"><ele>163.0</ele><time>2026-03-28T10:09:30.045Z</time></trkpt><trkpt lat="42.0963687" lon="12.2795925"><ele>163.0</ele><time>2026-03-28T10:09:31.051Z</time></trkpt><trkpt lat="42.0964895" lon="12.2795747"><ele>163.25</ele><time>2026-03-28T10:09:32.055Z</time></trkpt><trkpt lat="42.096617" lon="12.2795383"><ele>163.5</ele><time>2026-03-28T10:09:33.059Z</time></trkpt><trkpt lat="42.0967467" lon="12.2794967"><ele>163.75</ele><time>2026-03-28T10:09:34.054Z</time></trkpt><trkpt lat="42.0968767" lon="12.2794577"><ele>164.0</ele><time>2026-03-28T10:09:35.057Z</time></trkpt><trkpt lat="42.0970133" lon="12.2794285"><ele>164.0</ele><time>2026-03-28T10:09:36.048Z</time></trkpt><trkpt lat="42.0971391" lon="12.2794006"><ele>164.0</ele><time>2026-03-28T10:09:37.057Z</time></trkpt><trkpt lat="42.0972657" lon="12.2793705"><ele>164.0</ele><time>2026-03-28T10:09:38.049Z</time></trkpt><trkpt lat="42.0973913" lon="12.2793346"><ele>164.0</ele><time>2026-03-28T10:09:39.055Z</time></trkpt><trkpt lat="42.0975198" lon="12.2793048"><ele>165.0</ele><time>2026-03-28T10:09:40.055Z</time></trkpt><trkpt lat="42.0976446" lon="12.279285"><ele>166.0</ele><time>2026-03-28T10:09:41.051Z</time></trkpt><trkpt lat="42.0977595" lon="12.2792653"><ele>167.0</ele><time>2026-03-28T10:09:42.052Z</time></trkpt><trkpt lat="42.0978749" lon="12.2792684"><ele>168.0</ele><time>2026-03-28T10:09:43.053Z</time></trkpt><trkpt lat="42.0979976" lon="12.2793041"><ele>168.0</ele><time>2026-03-28T10:09:44.048Z</time></trkpt><trkpt lat="42.0981186" lon="12.2793736"><ele>168.0</ele><time>2026-03-28T10:09:45.058Z</time></trkpt><trkpt lat="42.098251" lon="12.2794904"><ele>168.0</ele><time>2026-03-28T10:09:46.052Z</time></trkpt><trkpt lat="42.098385" lon="12.2795747"><ele>168.0</ele><time>2026-03-28T10:09:47.051Z</time></trkpt><trkpt lat="42.0985251" lon="12.2796353"><ele>167.25</ele><time>2026-03-28T10:09:48.051Z</time></trkpt><trkpt lat="42.0986684" lon="12.2796628"><ele>166.5</ele><time>2026-03-28T10:09:49.049Z</time></trkpt><trkpt lat="42.0988103" lon="12.2796839"><ele>165.75</ele><time>2026-03-28T10:09:50.054Z</time></trkpt><trkpt lat="42.0989394" lon="12.2797014"><ele>165.0</ele><time>2026-03-28T10:09:51.051Z</time></trkpt><trkpt lat="42.0990774" lon="12.2797092"><ele>164.25</ele><time>2026-03-28T10:09:52.05Z</time></trkpt><trkpt lat="42.0992046" lon="12.2797188"><ele>163.5</ele><time>2026-03-28T10:09:53.049Z</time></trkpt><trkpt lat="42.0993423" lon="12.279748"><ele>162.75</ele><time>2026-03-28T10:09:54.05Z</time></trkpt><trkpt lat="42.0994712" lon="12.2797547"><ele>162.0</ele><time>2026-03-28T10:09:55.051Z</time></trkpt><trkpt lat="42.0996121" lon="12.2797634"><ele>163.25</ele><time>2026-03-28T10:09:56.047Z</time></trkpt><trkpt lat="42.0997439" lon="12.2797676"><ele>164.5</ele><time>2026-03-28T10:09:57.056Z</time></trkpt><trkpt lat="42.0998852" lon="12.2797901"><ele>165.75</ele><time>2026-03-28T10:09:58.057Z</time></trkpt><trkpt lat="42.1000248" lon="12.2798157"><ele>167.0</ele><time>2026-03-28T10:09:59.049Z</time></trkpt><trkpt lat="42.1001648" lon="12.2798278"><ele>167.0</ele><time>2026-03-28T10:10:00.047Z</time></trkpt><trkpt lat="42.1003038" lon="12.279842"><ele>167.0</ele><time>2026-03-28T10:10:01.051Z</time></trkpt><trkpt lat="42.1004469" lon="12.2798516"><ele>167.0</ele><time>2026-03-28T10:10:02.054Z</time></trkpt><trkpt lat="42.1005961" lon="12.2798685"><ele>167.0</ele><time>2026-03-28T10:10:03.05Z</time></trkpt><trkpt lat="42.1007276" lon="12.2798729"><ele>166.25</ele><time>2026-03-28T10:10:04.051Z</time></trkpt><trkpt lat="42.1008544" lon="12.2798463"><ele>165.5</ele><time>2026-03-28T10:10:05.047Z</time></trkpt><trkpt lat="42.1009778" lon="12.2797969"><ele>164.75</ele><time>2026-03-28T10:10:06.053Z</time></trkpt><trkpt lat="42.1010943" lon="12.2797224"><ele>164.0</ele><time>2026-03-28T10:10:07.047Z</time></trkpt><trkpt lat="42.1012025" lon="12.2796261"><ele>164.0</ele><time>2026-03-28T10:10:08.063Z</time></trkpt><trkpt lat="42.1013257" lon="12.2795034"><ele>164.0</ele><time>2026-03-28T10:10:09.057Z</time></trkpt><trkpt lat="42.1014349" lon="12.2793904"><ele>164.0</ele><time>2026-03-28T10:10:10.058Z</time></trkpt><trkpt lat="42.1015754" lon="12.2792809"><ele>166.75</ele><time>2026-03-28T10:10:11.043Z</time></trkpt><trkpt lat="42.1016764" lon="12.2791871"><ele>169.5</ele><time>2026-03-28T10:10:12.053Z</time></trkpt><trkpt lat="42.1017798" lon="12.2791205"><ele>172.25</ele><time>2026-03-28T10:10:13.059Z</time></trkpt><trkpt lat="42.1018997" lon="12.2790511"><ele>175.0</ele><time>2026-03-28T10:10:14.062Z</time></trkpt><trkpt lat="42.1020372" lon="12.27899"><ele>172.5</ele><time>2026-03-28T10:10:15.056Z</time></trkpt><trkpt lat="42.1021863" lon="12.2789309"><ele>170.0</ele><time>2026-03-28T10:10:16.053Z</time></trkpt><trkpt lat="42.1023255" lon="12.2788948"><ele>167.5</ele><time>2026-03-28T10:10:17.061Z</time></trkpt><trkpt lat="42.1024697" lon="12.2788753"><ele>165.0</ele><time>2026-03-28T10:10:18.058Z</time></trkpt><trkpt lat="42.1026119" lon="12.2788243"><ele>165.0</ele><time>2026-03-28T10:10:19.056Z</time></trkpt><trkpt lat="42.1027523" lon="12.2787564"><ele>165.0</ele><time>2026-03-28T10:10:20.047Z</time></trkpt><trkpt lat="42.1028962" lon="12.2787015"><ele>165.0</ele><time>2026-03-28T10:10:21.054Z</time></trkpt><trkpt lat="42.1030526" lon="12.2786572"><ele>165.0</ele><time>2026-03-28T10:10:22.043Z</time></trkpt><trkpt lat="42.1031868" lon="12.2785997"><ele>165.0</ele><time>2026-03-28T10:10:23.056Z</time></trkpt><trkpt lat="42.1033251" lon="12.2785341"><ele>165.0</ele><time>2026-03-28T10:10:24.048Z</time></trkpt><trkpt lat="42.1034477" lon="12.2784797"><ele>165.0</ele><time>2026-03-28T10:10:25.051Z</time></trkpt><trkpt lat="42.1035807" lon="12.2784016"><ele>168.25</ele><time>2026-03-28T10:10:26.051Z</time></trkpt><trkpt lat="42.1037179" lon="12.2783542"><ele>171.5</ele><time>2026-03-28T10:10:27.049Z</time></trkpt><trkpt lat="42.1038549" lon="12.2783312"><ele>174.75</ele><time>2026-03-28T10:10:28.064Z</time></trkpt><trkpt lat="42.1039935" lon="12.2783266"><ele>178.0</ele><time>2026-03-28T10:10:29.054Z</time></trkpt><trkpt lat="42.104124" lon="12.2783259"><ele>179.0</ele><time>2026-03-28T10:10:30.054Z</time></trkpt><trkpt lat="42.1042452" lon="12.278294"><ele>180.0</ele><time>2026-03-28T10:10:31.05Z</time></trkpt><trkpt lat="42.1043817" lon="12.2782627"><ele>181.0</ele><time>2026-03-28T10:10:32.052Z</time></trkpt><trkpt lat="42.1045169" lon="12.2782505"><ele>182.0</ele><time>2026-03-28T10:10:33.056Z</time></trkpt><trkpt lat="42.104673" lon="12.2782684"><ele>182.0</ele><time>2026-03-28T10:10:34.047Z</time></trkpt><trkpt lat="42.1048227" lon="12.2783071"><ele>182.0</ele><time>2026-03-28T10:10:35.057Z</time></trkpt><trkpt lat="42.1049749" lon="12.2783606"><ele>182.0</ele><time>2026-03-28T10:10:36.049Z</time></trkpt><trkpt lat="42.1051389" lon="12.2783888"><ele>178.66666666666666</ele><time>2026-03-28T10:10:37.051Z</time></trkpt><trkpt lat="42.1052975" lon="12.2784242"><ele>175.33333333333334</ele><time>2026-03-28T10:10:38.059Z</time></trkpt><trkpt lat="42.1054569" lon="12.2784595"><ele>172.0</ele><time>2026-03-28T10:10:39.059Z</time></trkpt><trkpt lat="42.105635" lon="12.2785103"><ele>170.66666666666669</ele><time>2026-03-28T10:10:40.047Z</time></trkpt><trkpt lat="42.1057758" lon="12.278537"><ele>169.33333333333334</ele><time>2026-03-28T10:10:41.06Z</time></trkpt><trkpt lat="42.1059344" lon="12.2785915"><ele>168.0</ele><time>2026-03-28T10:10:42.047Z</time></trkpt><trkpt lat="42.1060895" lon="12.2786419"><ele>168.0</ele><time>2026-03-28T10:10:43.056Z</time></trkpt><trkpt lat="42.1062271" lon="12.2786924"><ele>168.0</ele><time>2026-03-28T10:10:44.056Z</time></trkpt><trkpt lat="42.1063641" lon="12.2787386"><ele>168.0</ele><time>2026-03-28T10:10:45.052Z</time></trkpt><trkpt lat="42.1065049" lon="12.2788148"><ele>168.0</ele><time>2026-03-28T10:10:46.059Z</time></trkpt><trkpt lat="42.1066262" lon="12.2789325"><ele>172.33333333333334</ele><time>2026-03-28T10:10:47.049Z</time></trkpt><trkpt lat="42.1067136" lon="12.2790553"><ele>176.66666666666669</ele><time>2026-03-28T10:10:48.062Z</time></trkpt><trkpt lat="42.1068043" lon="12.2792186"><ele>181.0</ele><time>2026-03-28T10:10:49.043Z</time></trkpt><trkpt lat="42.1069253" lon="12.2793918"><ele>181.0</ele><time>2026-03-28T10:10:50.049Z</time></trkpt><trkpt lat="42.107042" lon="12.2795396"><ele>181.0</ele><time>2026-03-28T10:10:51.048Z</time></trkpt><trkpt lat="42.1071627" lon="12.2796571"><ele>181.0</ele><time>2026-03-28T10:10:52.048Z</time></trkpt><trkpt lat="42.1072841" lon="12.2797687"><ele>182.33333333333334</ele><time>2026-03-28T10:10:53.054Z</time></trkpt><trkpt lat="42.1074047" lon="12.2798687"><ele>183.66666666666666</ele><time>2026-03-28T10:10:54.056Z</time></trkpt><trkpt lat="42.107538" lon="12.2799882"><ele>185.0</ele><time>2026-03-28T10:10:55.05Z</time></trkpt><trkpt lat="42.1076667" lon="12.2801004"><ele>185.0</ele><time>2026-03-28T10:10:56.044Z</time></trkpt><trkpt lat="42.1077947" lon="12.2801976"><ele>185.0</ele><time>2026-03-28T10:10:57.057Z</time></trkpt><trkpt lat="42.1079186" lon="12.2802877"><ele>185.0</ele><time>2026-03-28T10:10:58.05Z</time></trkpt><trkpt lat="42.1080598" lon="12.2803563"><ele>185.0</ele><time>2026-03-28T10:10:59.056Z</time></trkpt><trkpt lat="42.1082058" lon="12.2804358"><ele>187.66666666666666</ele><time>2026-03-28T10:11:00.047Z</time></trkpt><trkpt lat="42.1083618" lon="12.2805192"><ele>190.33333333333331</ele><time>2026-03-28T10:11:01.057Z</time></trkpt><trkpt lat="42.1085128" lon="12.2805949"><ele>193.0</ele><time>2026-03-28T10:11:02.051Z</time></trkpt><trkpt lat="42.1086676" lon="12.280681"><ele>193.0</ele><time>2026-03-28T10:11:03.062Z</time></trkpt><trkpt lat="42.1088102" lon="12.2807498"><ele>193.0</ele><time>2026-03-28T10:11:04.048Z</time></trkpt><trkpt lat="42.1089625" lon="12.2807815"><ele>193.0</ele><time>2026-03-28T10:11:05.053Z</time></trkpt><trkpt lat="42.1091166" lon="12.280789"><ele>190.66666666666666</ele><time>2026-03-28T10:11:06.05Z</time></trkpt><trkpt lat="42.1092769" lon="12.2807584"><ele>188.33333333333331</ele><time>2026-03-28T10:11:07.05Z</time></trkpt><trkpt lat="42.1094211" lon="12.2806822"><ele>186.0</ele><time>2026-03-28T10:11:08.071Z</time></trkpt><trkpt lat="42.10955" lon="12.280595"><ele>179.75</ele><time>2026-03-28T10:11:09.052Z</time></trkpt><trkpt lat="42.1096678" lon="12.2805343"><ele>173.5</ele><time>2026-03-28T10:11:10.047Z</time></trkpt><trkpt lat="42.1097751" lon="12.2804892"><ele>167.25</ele><time>2026-03-28T10:11:11.052Z</time></trkpt><trkpt lat="42.1098851" lon="12.2804913"><ele>161.0</ele><time>2026-03-28T10:11:12.06Z</time></trkpt><trkpt lat="42.1099869" lon="12.280513"><ele>161.0</ele><time>2026-03-28T10:11:13.056Z</time></trkpt><trkpt lat="42.1100812" lon="12.2805472"><ele>161.0</ele><time>2026-03-28T10:11:14.053Z</time></trkpt><trkpt lat="42.1101632" lon="12.2806257"><ele>161.0</ele><time>2026-03-28T10:11:15.05Z</time></trkpt><trkpt lat="42.1102767" lon="12.2807126"><ele>161.0</ele><time>2026-03-28T10:11:16.055Z</time></trkpt><trkpt lat="42.1104043" lon="12.2808221"><ele>163.33333333333331</ele><time>2026-03-28T10:11:17.05Z</time></trkpt><trkpt lat="42.1105603" lon="12.2809821"><ele>165.66666666666666</ele><time>2026-03-28T10:11:18.051Z</time></trkpt><trkpt lat="42.1107239" lon="12.2811593"><ele>168.0</ele><time>2026-03-28T10:11:19.05Z</time></trkpt><trkpt lat="42.1108779" lon="12.2813074"><ele>175.0</ele><time>2026-03-28T10:11:20.051Z</time></trkpt><trkpt lat="42.1110323" lon="12.2814667"><ele>182.0</ele><time>2026-03-28T10:11:21.053Z</time></trkpt><trkpt lat="42.1111976" lon="12.281605"><ele>189.0</ele><time>2026-03-28T10:11:22.05Z</time></trkpt><trkpt lat="42.1113684" lon="12.2817291"><ele>189.0</ele><time>2026-03-28T10:11:23.054Z</time></trkpt><trkpt lat="42.1115332" lon="12.2818327"><ele>189.0</ele><time>2026-03-28T10:11:24.044Z</time></trkpt><trkpt lat="42.1116919" lon="12.281939"><ele>189.0</ele><time>2026-03-28T10:11:25.064Z</time></trkpt><trkpt lat="42.1118329" lon="12.2820257"><ele>182.33333333333334</ele><time>2026-03-28T10:11:26.049Z</time></trkpt><trkpt lat="42.1119768" lon="12.2820884"><ele>175.66666666666669</ele><time>2026-03-28T10:11:27.048Z</time></trkpt><trkpt lat="42.1121412" lon="12.2821546"><ele>169.0</ele><time>2026-03-28T10:11:28.05Z</time></trkpt><trkpt lat="42.1123103" lon="12.2821834"><ele>167.33333333333334</ele><time>2026-03-28T10:11:29.048Z</time></trkpt><trkpt lat="42.1124905" lon="12.28223"><ele>165.66666666666666</ele><time>2026-03-28T10:11:30.049Z</time></trkpt><trkpt lat="42.1126602" lon="12.282285"><ele>164.0</ele><time>2026-03-28T10:11:31.047Z</time></trkpt><trkpt lat="42.1128302" lon="12.2823279"><ele>169.0</ele><time>2026-03-28T10:11:32.053Z</time></trkpt><trkpt lat="42.1130113" lon="12.2823711"><ele>174.0</ele><time>2026-03-28T10:11:33.057Z</time></trkpt><trkpt lat="42.1131945" lon="12.2824043"><ele>179.0</ele><time>2026-03-28T10:11:34.047Z</time></trkpt><trkpt lat="42.1133789" lon="12.2824462"><ele>179.0</ele><time>2026-03-28T10:11:35.054Z</time></trkpt><trkpt lat="42.1135542" lon="12.2824988"><ele>179.0</ele><time>2026-03-28T10:11:36.046Z</time></trkpt><trkpt lat="42.1137271" lon="12.2825556"><ele>179.0</ele><time>2026-03-28T10:11:37.057Z</time></trkpt><trkpt lat="42.1139138" lon="12.2826205"><ele>177.33333333333331</ele><time>2026-03-28T10:11:38.061Z</time></trkpt><trkpt lat="42.114103" lon="12.2826696"><ele>175.66666666666666</ele><time>2026-03-28T10:11:39.054Z</time></trkpt><trkpt lat="42.1142868" lon="12.2827045"><ele>174.0</ele><time>2026-03-28T10:11:40.051Z</time></trkpt><trkpt lat="42.1144736" lon="12.2827516"><ele>174.0</ele><time>2026-03-28T10:11:41.046Z</time></trkpt><trkpt lat="42.1146524" lon="12.2828129"><ele>174.0</ele><time>2026-03-28T10:11:42.052Z</time></trkpt><trkpt lat="42.1148235" lon="12.2828564"><ele>174.0</ele><time>2026-03-28T10:11:43.052Z</time></trkpt><trkpt lat="42.1149791" lon="12.2829014"><ele>171.66666666666666</ele><time>2026-03-28T10:11:44.057Z</time></trkpt><trkpt lat="42.1151396" lon="12.2829543"><ele>169.33333333333331</ele><time>2026-03-28T10:11:45.058Z</time></trkpt><trkpt lat="42.1153229" lon="12.2829956"><ele>167.0</ele><time>2026-03-28T10:11:46.062Z</time></trkpt><trkpt lat="42.1154968" lon="12.2830463"><ele>167.0</ele><time>2026-03-28T10:11:47.046Z</time></trkpt><trkpt lat="42.1156859" lon="12.2830918"><ele>167.0</ele><time>2026-03-28T10:11:48.056Z</time></trkpt><trkpt lat="42.1158603" lon="12.2831376"><ele>167.0</ele><time>2026-03-28T10:11:49.05Z</time></trkpt><trkpt lat="42.1160426" lon="12.2831574"><ele>171.0</ele><time>2026-03-28T10:11:50.053Z</time></trkpt><trkpt lat="42.1162342" lon="12.2831806"><ele>175.0</ele><time>2026-03-28T10:11:51.046Z</time></trkpt><trkpt lat="42.116433" lon="12.2831932"><ele>179.0</ele><time>2026-03-28T10:11:52.057Z</time></trkpt><trkpt lat="42.1166269" lon="12.283222"><ele>179.0</ele><time>2026-03-28T10:11:53.053Z</time></trkpt><trkpt lat="42.1168277" lon="12.2832397"><ele>179.0</ele><time>2026-03-28T10:11:54.054Z</time></trkpt><trkpt lat="42.1170421" lon="12.2832566"><ele>179.0</ele><time>2026-03-28T10:11:55.053Z</time></trkpt><trkpt lat="42.1172488" lon="12.2832943"><ele>177.0</ele><time>2026-03-28T10:11:56.064Z</time></trkpt><trkpt lat="42.1174474" lon="12.2833125"><ele>175.0</ele><time>2026-03-28T10:11:57.062Z</time></trkpt><trkpt lat="42.1176159" lon="12.283346"><ele>173.0</ele><time>2026-03-28T10:11:58.067Z</time></trkpt><trkpt lat="42.117794" lon="12.283367"><ele>173.0</ele><time>2026-03-28T10:11:59.057Z</time></trkpt><trkpt lat="42.1179757" lon="12.2833967"><ele>173.0</ele><time>2026-03-28T10:12:00.054Z</time></trkpt><trkpt lat="42.1181315" lon="12.2834281"><ele>173.0</ele><time>2026-03-28T10:12:01.05Z</time></trkpt><trkpt lat="42.1182829" lon="12.2834451"><ele>172.33333333333331</ele><time>2026-03-28T10:12:02.058Z</time></trkpt><trkpt lat="42.1184431" lon="12.2834691"><ele>171.66666666666666</ele><time>2026-03-28T10:12:03.05Z</time></trkpt><trkpt lat="42.1185833" lon="12.2835033"><ele>171.0</ele><time>2026-03-28T10:12:04.061Z</time></trkpt><trkpt lat="42.1187325" lon="12.283549"><ele>171.0</ele><time>2026-03-28T10:12:05.044Z</time></trkpt><trkpt lat="42.1188786" lon="12.2835956"><ele>171.0</ele><time>2026-03-28T10:12:06.051Z</time></trkpt><trkpt lat="42.1190388" lon="12.2836456"><ele>171.0</ele><time>2026-03-28T10:12:07.051Z</time></trkpt><trkpt lat="42.1191979" lon="12.283684"><ele>170.33333333333334</ele><time>2026-03-28T10:12:08.05Z</time></trkpt><trkpt lat="42.1193585" lon="12.2837241"><ele>169.66666666666669</ele><time>2026-03-28T10:12:09.052Z</time></trkpt><trkpt lat="42.119523" lon="12.283766"><ele>169.0</ele><time>2026-03-28T10:12:10.054Z</time></trkpt><trkpt lat="42.1196809" lon="12.2838153"><ele>169.0</ele><time>2026-03-28T10:12:11.052Z</time></trkpt><trkpt lat="42.1198547" lon="12.283858"><ele>169.0</ele><time>2026-03-28T10:12:12.059Z</time></trkpt><trkpt lat="42.1200236" lon="12.2838967"><ele>169.0</ele><time>2026-03-28T10:12:13.052Z</time></trkpt><trkpt lat="42.120177" lon="12.2839404"><ele>173.33333333333334</ele><time>2026-03-28T10:12:14.053Z</time></trkpt><trkpt lat="42.1203392" lon="12.2839896"><ele>177.66666666666666</ele><time>2026-03-28T10:12:15.051Z</time></trkpt><trkpt lat="42.1205077" lon="12.2840342"><ele>182.0</ele><time>2026-03-28T10:12:16.06Z</time></trkpt><trkpt lat="42.1206721" lon="12.2840678"><ele>181.66666666666666</ele><time>2026-03-28T10:12:17.06Z</time></trkpt><trkpt lat="42.1208395" lon="12.2840805"><ele>181.33333333333334</ele><time>2026-03-28T10:12:18.045Z</time></trkpt><trkpt lat="42.12101" lon="12.2840956"><ele>181.0</ele><time>2026-03-28T10:12:19.059Z</time></trkpt><trkpt lat="42.1211787" lon="12.2840981"><ele>181.0</ele><time>2026-03-28T10:12:20.053Z</time></trkpt><trkpt lat="42.1213544" lon="12.2840918"><ele>181.0</ele><time>2026-03-28T10:12:21.057Z</time></trkpt><trkpt lat="42.1215336" lon="12.2840783"><ele>181.0</ele><time>2026-03-28T10:12:22.049Z</time></trkpt><trkpt lat="42.121709" lon="12.2840787"><ele>179.66666666666669</ele><time>2026-03-28T10:12:23.053Z</time></trkpt><trkpt lat="42.1218649" lon="12.2840957"><ele>178.33333333333334</ele><time>2026-03-28T10:12:24.052Z</time></trkpt><trkpt lat="42.1220052" lon="12.2841101"><ele>177.0</ele><time>2026-03-28T10:12:25.059Z</time></trkpt><trkpt lat="42.1221615" lon="12.2841165"><ele>177.0</ele><time>2026-03-28T10:12:26.05Z</time></trkpt><trkpt lat="42.1223297" lon="12.2841173"><ele>177.0</ele><time>2026-03-28T10:12:27.061Z</time></trkpt><trkpt lat="42.1224936" lon="12.284106"><ele>177.0</ele><time>2026-03-28T10:12:28.049Z</time></trkpt><trkpt lat="42.1226547" lon="12.2840983"><ele>177.25</ele><time>2026-03-28T10:12:29.052Z</time></trkpt><trkpt lat="42.1227975" lon="12.2841106"><ele>177.5</ele><time>2026-03-28T10:12:30.051Z</time></trkpt><trkpt lat="42.1229324" lon="12.2841064"><ele>177.75</ele><time>2026-03-28T10:12:31.053Z</time></trkpt><trkpt lat="42.1230602" lon="12.2841314"><ele>178.0</ele><time>2026-03-28T10:12:32.049Z</time></trkpt><trkpt lat="42.1232111" lon="12.2841828"><ele>177.0</ele><time>2026-03-28T10:12:33.047Z</time></trkpt><trkpt lat="42.1233612" lon="12.2842104"><ele>176.0</ele><time>2026-03-28T10:12:34.059Z</time></trkpt><trkpt lat="42.1235087" lon="12.2842448"><ele>175.0</ele><time>2026-03-28T10:12:35.052Z</time></trkpt><trkpt lat="42.1236677" lon="12.2842942"><ele>175.0</ele><time>2026-03-28T10:12:36.06Z</time></trkpt><trkpt lat="42.1238371" lon="12.2843454"><ele>175.0</ele><time>2026-03-28T10:12:37.056Z</time></trkpt><trkpt lat="42.1240094" lon="12.2843888"><ele>175.0</ele><time>2026-03-28T10:12:38.05Z</time></trkpt><trkpt lat="42.124165" lon="12.2844393"><ele>171.66666666666669</ele><time>2026-03-28T10:12:39.056Z</time></trkpt><trkpt lat="42.1243348" lon="12.2844813"><ele>168.33333333333334</ele><time>2026-03-28T10:12:40.047Z</time></trkpt><trkpt lat="42.1244926" lon="12.284515"><ele>165.0</ele><time>2026-03-28T10:12:41.045Z</time></trkpt><trkpt lat="42.1246677" lon="12.2845514"><ele>165.0</ele><time>2026-03-28T10:12:42.052Z</time></trkpt><trkpt lat="42.1248352" lon="12.2845818"><ele>165.0</ele><time>2026-03-28T10:12:43.052Z</time></trkpt><trkpt lat="42.1250188" lon="12.2846272"><ele>165.0</ele><time>2026-03-28T10:12:44.061Z</time></trkpt><trkpt lat="42.1252183" lon="12.2846688"><ele>164.33333333333334</ele><time>2026-03-28T10:12:45.053Z</time></trkpt><trkpt lat="42.1254306" lon="12.2847177"><ele>163.66666666666669</ele><time>2026-03-28T10:12:46.053Z</time></trkpt><trkpt lat="42.1256147" lon="12.284771"><ele>163.0</ele><time>2026-03-28T10:12:47.06Z</time></trkpt><trkpt lat="42.1258084" lon="12.2848061"><ele>171.0</ele><time>2026-03-28T10:12:48.071Z</time></trkpt><trkpt lat="42.1259793" lon="12.284843"><ele>179.0</ele><time>2026-03-28T10:12:49.05Z</time></trkpt><trkpt lat="42.1261274" lon="12.2848958"><ele>187.0</ele><time>2026-03-28T10:12:50.058Z</time></trkpt><trkpt lat="42.1262654" lon="12.284946"><ele>187.0</ele><time>2026-03-28T10:12:51.054Z</time></trkpt><trkpt lat="42.1263878" lon="12.2849898"><ele>187.0</ele><time>2026-03-28T10:12:52.058Z</time></trkpt><trkpt lat="42.1265014" lon="12.285038"><ele>187.0</ele><time>2026-03-28T10:12:53.054Z</time></trkpt><trkpt lat="42.1266121" lon="12.2850804"><ele>187.0</ele><time>2026-03-28T10:12:54.049Z</time></trkpt><trkpt lat="42.1267216" lon="12.2851168"><ele>185.0</ele><time>2026-03-28T10:12:55.058Z</time></trkpt><trkpt lat="42.1268387" lon="12.2851628"><ele>183.0</ele><time>2026-03-28T10:12:56.056Z</time></trkpt><trkpt lat="42.1269463" lon="12.28519"><ele>181.0</ele><time>2026-03-28T10:12:57.046Z</time></trkpt><trkpt lat="42.1270504" lon="12.2852171"><ele>179.0</ele><time>2026-03-28T10:12:58.057Z</time></trkpt><trkpt lat="42.1271432" lon="12.2852531"><ele>177.0</ele><time>2026-03-28T10:12:59.048Z</time></trkpt><trkpt lat="42.127226" lon="12.2852768"><ele>177.0</ele><time>2026-03-28T10:13:00.047Z</time></trkpt><trkpt lat="42.1273272" lon="12.2852916"><ele>177.0</ele><time>2026-03-28T10:13:01.044Z</time></trkpt><trkpt lat="42.1274284" lon="12.2853104"><ele>177.0</ele><time>2026-03-28T10:13:02.052Z</time></trkpt><trkpt lat="42.1275394" lon="12.285331"><ele>177.0</ele><time>2026-03-28T10:13:03.055Z</time></trkpt><trkpt lat="42.1276519" lon="12.2853622"><ele>177.0</ele><time>2026-03-28T10:13:04.048Z</time></trkpt><trkpt lat="42.1277685" lon="12.2853887"><ele>175.6</ele><time>2026-03-28T10:13:05.055Z</time></trkpt><trkpt lat="42.1278835" lon="12.2854091"><ele>174.2</ele><time>2026-03-28T10:13:06.051Z</time></trkpt><trkpt lat="42.1279957" lon="12.2854188"><ele>172.8</ele><time>2026-03-28T10:13:07.067Z</time></trkpt><trkpt lat="42.1281035" lon="12.2854343"><ele>171.4</ele><time>2026-03-28T10:13:08.048Z</time></trkpt><trkpt lat="42.12819" lon="12.2854553"><ele>170.0</ele><time>2026-03-28T10:13:09.055Z</time></trkpt><trkpt lat="42.1282794" lon="12.2854818"><ele>168.8</ele><time>2026-03-28T10:13:10.047Z</time></trkpt><trkpt lat="42.1283685" lon="12.2855166"><ele>167.6</ele><time>2026-03-28T10:13:11.057Z</time></trkpt><trkpt lat="42.1284574" lon="12.2855475"><ele>166.39999999999998</ele><time>2026-03-28T10:13:12.046Z</time></trkpt><trkpt lat="42.1285437" lon="12.2855929"><ele>165.2</ele><time>2026-03-28T10:13:13.054Z</time></trkpt><trkpt lat="42.1286358" lon="12.2856512"><ele>164.0</ele><time>2026-03-28T10:13:14.057Z</time></trkpt><trkpt lat="42.1287304" lon="12.2857221"><ele>165.6</ele><time>2026-03-28T10:13:15.046Z</time></trkpt><trkpt lat="42.1288236" lon="12.2857958"><ele>167.2</ele><time>2026-03-28T10:13:16.055Z</time></trkpt><trkpt lat="42.1289099" lon="12.2858539"><ele>168.79999999999998</ele><time>2026-03-28T10:13:17.051Z</time></trkpt><trkpt lat="42.1290006" lon="12.2859088"><ele>170.39999999999998</ele><time>2026-03-28T10:13:18.052Z</time></trkpt><trkpt lat="42.1290924" lon="12.2859702"><ele>172.0</ele><time>2026-03-28T10:13:19.05Z</time></trkpt><trkpt lat="42.129188" lon="12.2860435"><ele>172.0</ele><time>2026-03-28T10:13:20.058Z</time></trkpt><trkpt lat="42.1292879" lon="12.2861069"><ele>172.0</ele><time>2026-03-28T10:13:21.056Z</time></trkpt><trkpt lat="42.129392" lon="12.2861709"><ele>172.0</ele><time>2026-03-28T10:13:22.05Z</time></trkpt><trkpt lat="42.1294977" lon="12.2862426"><ele>172.0</ele><time>2026-03-28T10:13:23.057Z</time></trkpt><trkpt lat="42.1295971" lon="12.2863009"><ele>172.0</ele><time>2026-03-28T10:13:24.052Z</time></trkpt><trkpt lat="42.1296916" lon="12.2863576"><ele>172.0</ele><time>2026-03-28T10:13:25.054Z</time></trkpt><trkpt lat="42.1297975" lon="12.286411"><ele>172.0</ele><time>2026-03-28T10:13:26.046Z</time></trkpt><trkpt lat="42.1299093" lon="12.2864667"><ele>172.0</ele><time>2026-03-28T10:13:27.052Z</time></trkpt><trkpt lat="42.1300107" lon="12.2865256"><ele>172.0</ele><time>2026-03-28T10:13:28.054Z</time></trkpt><trkpt lat="42.1301093" lon="12.2865774"><ele>173.25</ele><time>2026-03-28T10:13:29.055Z</time></trkpt><trkpt lat="42.1302195" lon="12.2866251"><ele>174.5</ele><time>2026-03-28T10:13:30.059Z</time></trkpt><trkpt lat="42.1303179" lon="12.2866862"><ele>175.75</ele><time>2026-03-28T10:13:31.047Z</time></trkpt><trkpt lat="42.1304167" lon="12.2867596"><ele>177.0</ele><time>2026-03-28T10:13:32.05Z</time></trkpt><trkpt lat="42.1305122" lon="12.286845"><ele>177.0</ele><time>2026-03-28T10:13:33.053Z</time></trkpt><trkpt lat="42.1305955" lon="12.286936"><ele>177.0</ele><time>2026-03-28T10:13:34.052Z</time></trkpt><trkpt lat="42.1306671" lon="12.2870358"><ele>177.0</ele><time>2026-03-28T10:13:35.052Z</time></trkpt><trkpt lat="42.1307305" lon="12.2871425"><ele>177.0</ele><time>2026-03-28T10:13:36.061Z</time></trkpt><trkpt lat="42.1307943" lon="12.2872546"><ele>177.0</ele><time>2026-03-28T10:13:37.05Z</time></trkpt><trkpt lat="42.1308582" lon="12.2873707"><ele>176.6</ele><time>2026-03-28T10:13:38.065Z</time></trkpt><trkpt lat="42.130925" lon="12.2874818"><ele>176.2</ele><time>2026-03-28T10:13:39.05Z</time></trkpt><trkpt lat="42.1309853" lon="12.2875836"><ele>175.8</ele><time>2026-03-28T10:13:40.056Z</time></trkpt><trkpt lat="42.1310467" lon="12.2876884"><ele>175.4</ele><time>2026-03-28T10:13:41.052Z</time></trkpt><trkpt lat="42.131104" lon="12.2877968"><ele>175.0</ele><time>2026-03-28T10:13:42.057Z</time></trkpt><trkpt lat="42.1311682" lon="12.2879034"><ele>175.0</ele><time>2026-03-28T10:13:43.057Z</time></trkpt><trkpt lat="42.1312479" lon="12.2880097"><ele>175.0</ele><time>2026-03-28T10:13:44.046Z</time></trkpt><trkpt lat="42.1313381" lon="12.288099"><ele>175.0</ele><time>2026-03-28T10:13:45.05Z</time></trkpt><trkpt lat="42.1314381" lon="12.2881521"><ele>175.0</ele><time>2026-03-28T10:13:46.049Z</time></trkpt><trkpt lat="42.1315351" lon="12.2881821"><ele>175.0</ele><time>2026-03-28T10:13:47.054Z</time></trkpt><trkpt lat="42.1316341" lon="12.2882102"><ele>173.6</ele><time>2026-03-28T10:13:48.051Z</time></trkpt><trkpt lat="42.1317338" lon="12.2882318"><ele>172.2</ele><time>2026-03-28T10:13:49.049Z</time></trkpt><trkpt lat="42.1318309" lon="12.2882506"><ele>170.8</ele><time>2026-03-28T10:13:50.053Z</time></trkpt><trkpt lat="42.1319267" lon="12.2882695"><ele>169.4</ele><time>2026-03-28T10:13:51.056Z</time></trkpt><trkpt lat="42.1320238" lon="12.288291"><ele>168.0</ele><time>2026-03-28T10:13:52.045Z</time></trkpt><trkpt lat="42.1321233" lon="12.2883191"><ele>168.0</ele><time>2026-03-28T10:13:53.062Z</time></trkpt><trkpt lat="42.132217" lon="12.2883395"><ele>168.0</ele><time>2026-03-28T10:13:54.047Z</time></trkpt><trkpt lat="42.1323105" lon="12.2883574"><ele>168.0</ele><time>2026-03-28T10:13:55.056Z</time></trkpt><trkpt lat="42.1323923" lon="12.2883879"><ele>168.0</ele><time>2026-03-28T10:13:56.047Z</time></trkpt><trkpt lat="42.1324728" lon="12.2884205"><ele>168.0</ele><time>2026-03-28T10:13:57.06Z</time></trkpt><trkpt lat="42.1325663" lon="12.2884412"><ele>167.60000000000002</ele><time>2026-03-28T10:13:58.051Z</time></trkpt><trkpt lat="42.1326726" lon="12.288467"><ele>167.20000000000002</ele><time>2026-03-28T10:13:59.048Z</time></trkpt><trkpt lat="42.1327818" lon="12.2884908"><ele>166.8</ele><time>2026-03-28T10:14:00.052Z</time></trkpt><trkpt lat="42.1328854" lon="12.2885151"><ele>166.4</ele><time>2026-03-28T10:14:01.062Z</time></trkpt><trkpt lat="42.132997" lon="12.2885446"><ele>166.0</ele><time>2026-03-28T10:14:02.058Z</time></trkpt><trkpt lat="42.1331237" lon="12.2885854"><ele>165.75</ele><time>2026-03-28T10:14:03.059Z</time></trkpt><trkpt lat="42.1332523" lon="12.2886157"><ele>165.5</ele><time>2026-03-28T10:14:04.053Z</time></trkpt><trkpt lat="42.1333738" lon="12.2886539"><ele>165.25</ele><time>2026-03-28T10:14:05.055Z</time></trkpt><trkpt lat="42.1335005" lon="12.2886888"><ele>165.0</ele><time>2026-03-28T10:14:06.046Z</time></trkpt><trkpt lat="42.133621" lon="12.2887263"><ele>165.0</ele><time>2026-03-28T10:14:07.06Z</time></trkpt><trkpt lat="42.1337328" lon="12.2887573"><ele>165.0</ele><time>2026-03-28T10:14:08.048Z</time></trkpt><trkpt lat="42.1338462" lon="12.2887802"><ele>165.0</ele><time>2026-03-28T10:14:09.051Z</time></trkpt><trkpt lat="42.1339641" lon="12.2888007"><ele>165.0</ele><time>2026-03-28T10:14:10.048Z</time></trkpt><trkpt lat="42.1340822" lon="12.2887854"><ele>165.75</ele><time>2026-03-28T10:14:11.053Z</time></trkpt><trkpt lat="42.1342021" lon="12.2887435"><ele>166.5</ele><time>2026-03-28T10:14:12.047Z</time></trkpt><trkpt lat="42.1343179" lon="12.2886792"><ele>167.25</ele><time>2026-03-28T10:14:13.049Z</time></trkpt><trkpt lat="42.1344279" lon="12.288594"><ele>168.0</ele><time>2026-03-28T10:14:14.051Z</time></trkpt><trkpt lat="42.1345137" lon="12.2884879"><ele>168.0</ele><time>2026-03-28T10:14:15.059Z</time></trkpt><trkpt lat="42.1345847" lon="12.2883684"><ele>168.0</ele><time>2026-03-28T10:14:16.052Z</time></trkpt><trkpt lat="42.1346533" lon="12.2882416"><ele>168.0</ele><time>2026-03-28T10:14:17.05Z</time></trkpt><trkpt lat="42.1347142" lon="12.2880908"><ele>168.0</ele><time>2026-03-28T10:14:18.049Z</time></trkpt><trkpt lat="42.1347939" lon="12.2879225"><ele>169.0</ele><time>2026-03-28T10:14:19.057Z</time></trkpt><trkpt lat="42.1349084" lon="12.2877264"><ele>170.0</ele><time>2026-03-28T10:14:20.052Z</time></trkpt><trkpt lat="42.1350475" lon="12.2875083"><ele>171.0</ele><time>2026-03-28T10:14:21.046Z</time></trkpt><trkpt lat="42.1351615" lon="12.2873374"><ele>170.0</ele><time>2026-03-28T10:14:22.049Z</time></trkpt><trkpt lat="42.1352505" lon="12.2871903"><ele>169.0</ele><time>2026-03-28T10:14:23.046Z</time></trkpt><trkpt lat="42.1353198" lon="12.2870517"><ele>168.0</ele><time>2026-03-28T10:14:24.051Z</time></trkpt><trkpt lat="42.1354175" lon="12.2869034"><ele>167.0</ele><time>2026-03-28T10:14:25.056Z</time></trkpt><trkpt lat="42.1355197" lon="12.2867609"><ele>167.0</ele><time>2026-03-28T10:14:26.058Z</time></trkpt><trkpt lat="42.1356182" lon="12.2866402"><ele>167.0</ele><time>2026-03-28T10:14:27.062Z</time></trkpt><trkpt lat="42.1357093" lon="12.2865264"><ele>167.0</ele><time>2026-03-28T10:14:28.07Z</time></trkpt><trkpt lat="42.1358296" lon="12.2864009"><ele>167.0</ele><time>2026-03-28T10:14:29.048Z</time></trkpt><trkpt lat="42.1359743" lon="12.2863061"><ele>166.25</ele><time>2026-03-28T10:14:30.055Z</time></trkpt><trkpt lat="42.1361072" lon="12.2862076"><ele>165.5</ele><time>2026-03-28T10:14:31.056Z</time></trkpt><trkpt lat="42.1362426" lon="12.2861272"><ele>164.75</ele><time>2026-03-28T10:14:32.061Z</time></trkpt><trkpt lat="42.136366" lon="12.286041"><ele>164.0</ele><time>2026-03-28T10:14:33.056Z</time></trkpt><trkpt lat="42.1364996" lon="12.2859527"><ele>164.25</ele><time>2026-03-28T10:14:34.048Z</time></trkpt><trkpt lat="42.1366269" lon="12.2858647"><ele>164.5</ele><time>2026-03-28T10:14:35.063Z</time></trkpt><trkpt lat="42.1367574" lon="12.2857772"><ele>164.75</ele><time>2026-03-28T10:14:36.053Z</time></trkpt><trkpt lat="42.1368773" lon="12.2857027"><ele>165.0</ele><time>2026-03-28T10:14:37.044Z</time></trkpt><trkpt lat="42.1370014" lon="12.2856239"><ele>164.25</ele><time>2026-03-28T10:14:38.059Z</time></trkpt><trkpt lat="42.1371191" lon="12.285535"><ele>163.5</ele><time>2026-03-28T10:14:39.047Z</time></trkpt><trkpt lat="42.1372399" lon="12.2854567"><ele>162.75</ele><time>2026-03-28T10:14:40.055Z</time></trkpt><trkpt lat="42.1373763" lon="12.2853662"><ele>162.0</ele><time>2026-03-28T10:14:41.051Z</time></trkpt><trkpt lat="42.1374947" lon="12.2852728"><ele>162.0</ele><time>2026-03-28T10:14:42.052Z</time></trkpt><trkpt lat="42.1376179" lon="12.285182"><ele>162.0</ele><time>2026-03-28T10:14:43.053Z</time></trkpt><trkpt lat="42.137729" lon="12.2851059"><ele>162.0</ele><time>2026-03-28T10:14:44.056Z</time></trkpt><trkpt lat="42.1378413" lon="12.2850264"><ele>162.0</ele><time>2026-03-28T10:14:45.044Z</time></trkpt><trkpt lat="42.1379594" lon="12.2849424"><ele>162.0</ele><time>2026-03-28T10:14:46.055Z</time></trkpt><trkpt lat="42.1380678" lon="12.2848698"><ele>162.0</ele><time>2026-03-28T10:14:47.05Z</time></trkpt><trkpt lat="42.1381713" lon="12.2847861"><ele>162.0</ele><time>2026-03-28T10:14:48.052Z</time></trkpt><trkpt lat="42.138251" lon="12.2847238"><ele>162.0</ele><time>2026-03-28T10:14:49.047Z</time></trkpt><trkpt lat="42.138363" lon="12.2846516"><ele>162.5</ele><time>2026-03-28T10:14:50.061Z</time></trkpt><trkpt lat="42.1384618" lon="12.2845799"><ele>163.0</ele><time>2026-03-28T10:14:51.054Z</time></trkpt><trkpt lat="42.138557" lon="12.2845126"><ele>163.5</ele><time>2026-03-28T10:14:52.054Z</time></trkpt><trkpt lat="42.1386595" lon="12.2844395"><ele>164.0</ele><time>2026-03-28T10:14:53.054Z</time></trkpt><trkpt lat="42.1387652" lon="12.2843554"><ele>164.0</ele><time>2026-03-28T10:14:54.062Z</time></trkpt><trkpt lat="42.1388723" lon="12.2842858"><ele>164.0</ele><time>2026-03-28T10:14:55.048Z</time></trkpt><trkpt lat="42.1389851" lon="12.2842152"><ele>164.0</ele><time>2026-03-28T10:14:56.059Z</time></trkpt><trkpt lat="42.1391012" lon="12.2841399"><ele>164.0</ele><time>2026-03-28T10:14:57.053Z</time></trkpt><trkpt lat="42.1392059" lon="12.2840602"><ele>164.2</ele><time>2026-03-28T10:14:58.054Z</time></trkpt><trkpt lat="42.1393044" lon="12.2839906"><ele>164.39999999999998</ele><time>2026-03-28T10:14:59.058Z</time></trkpt><trkpt lat="42.1393883" lon="12.2839254"><ele>164.6</ele><time>2026-03-28T10:15:00.048Z</time></trkpt><trkpt lat="42.1394556" lon="12.2838785"><ele>164.8</ele><time>2026-03-28T10:15:01.055Z</time></trkpt><trkpt lat="42.139555" lon="12.2837947"><ele>165.0</ele><time>2026-03-28T10:15:03.06Z</time></trkpt><trkpt lat="42.1396307" lon="12.2837347"><ele>165.0</ele><time>2026-03-28T10:15:04.051Z</time></trkpt><trkpt lat="42.1397357" lon="12.2836618"><ele>165.0</ele><time>2026-03-28T10:15:05.054Z</time></trkpt><trkpt lat="42.1398697" lon="12.283581"><ele>165.0</ele><time>2026-03-28T10:15:06.054Z</time></trkpt><trkpt lat="42.1400154" lon="12.2834917"><ele>165.0</ele><time>2026-03-28T10:15:07.066Z</time></trkpt><trkpt lat="42.1401556" lon="12.2833809"><ele>165.25</ele><time>2026-03-28T10:15:08.045Z</time></trkpt><trkpt lat="42.1402918" lon="12.2832686"><ele>165.5</ele><time>2026-03-28T10:15:09.063Z</time></trkpt><trkpt lat="42.1404018" lon="12.2831724"><ele>165.75</ele><time>2026-03-28T10:15:10.05Z</time></trkpt><trkpt lat="42.1405307" lon="12.2830622"><ele>166.0</ele><time>2026-03-28T10:15:11.06Z</time></trkpt><trkpt lat="42.1406452" lon="12.2829453"><ele>166.25</ele><time>2026-03-28T10:15:12.054Z</time></trkpt><trkpt lat="42.140744" lon="12.2828414"><ele>166.5</ele><time>2026-03-28T10:15:13.048Z</time></trkpt><trkpt lat="42.1408463" lon="12.2827243"><ele>166.75</ele><time>2026-03-28T10:15:14.05Z</time></trkpt><trkpt lat="42.1409733" lon="12.2825868"><ele>167.0</ele><time>2026-03-28T10:15:15.05Z</time></trkpt><trkpt lat="42.1410863" lon="12.2824859"><ele>167.0</ele><time>2026-03-28T10:15:16.063Z</time></trkpt><trkpt lat="42.1412082" lon="12.2823897"><ele>167.0</ele><time>2026-03-28T10:15:17.055Z</time></trkpt><trkpt lat="42.1413332" lon="12.2823017"><ele>167.0</ele><time>2026-03-28T10:15:18.066Z</time></trkpt><trkpt lat="42.1414471" lon="12.282241"><ele>167.0</ele><time>2026-03-28T10:15:19.05Z</time></trkpt><trkpt lat="42.141562" lon="12.2822007"><ele>166.75</ele><time>2026-03-28T10:15:20.051Z</time></trkpt><trkpt lat="42.1416864" lon="12.2821675"><ele>166.5</ele><time>2026-03-28T10:15:21.052Z</time></trkpt><trkpt lat="42.141813" lon="12.2821447"><ele>166.25</ele><time>2026-03-28T10:15:22.051Z</time></trkpt><trkpt lat="42.1419437" lon="12.2821417"><ele>166.0</ele><time>2026-03-28T10:15:23.055Z</time></trkpt><trkpt lat="42.1420623" lon="12.2821183"><ele>166.0</ele><time>2026-03-28T10:15:24.051Z</time></trkpt><trkpt lat="42.1421903" lon="12.2821013"><ele>166.0</ele><time>2026-03-28T10:15:25.052Z</time></trkpt><trkpt lat="42.1423351" lon="12.2820769"><ele>166.0</ele><time>2026-03-28T10:15:26.047Z</time></trkpt><trkpt lat="42.142483" lon="12.2820694"><ele>166.0</ele><time>2026-03-28T10:15:27.049Z</time></trkpt><trkpt lat="42.1426313" lon="12.2820636"><ele>166.20000000000002</ele><time>2026-03-28T10:15:28.042Z</time></trkpt><trkpt lat="42.1427603" lon="12.2820696"><ele>166.4</ele><time>2026-03-28T10:15:29.045Z</time></trkpt><trkpt lat="42.1428686" lon="12.2820498"><ele>166.6</ele><time>2026-03-28T10:15:30.048Z</time></trkpt><trkpt lat="42.1429649" lon="12.282029"><ele>166.8</ele><time>2026-03-28T10:15:31.051Z</time></trkpt><trkpt lat="42.1430734" lon="12.2820282"><ele>167.0</ele><time>2026-03-28T10:15:32.046Z</time></trkpt><trkpt lat="42.143172" lon="12.2820117"><ele>167.16666666666666</ele><time>2026-03-28T10:15:33.05Z</time></trkpt><trkpt lat="42.1432593" lon="12.2819987"><ele>167.33333333333331</ele><time>2026-03-28T10:15:34.049Z</time></trkpt><trkpt lat="42.1433418" lon="12.2819863"><ele>167.5</ele><time>2026-03-28T10:15:35.047Z</time></trkpt><trkpt lat="42.1434172" lon="12.2819806"><ele>167.66666666666666</ele><time>2026-03-28T10:15:36.049Z</time></trkpt><trkpt lat="42.1434957" lon="12.2819763"><ele>167.83333333333334</ele><time>2026-03-28T10:15:37.047Z</time></trkpt><trkpt lat="42.1435687" lon="12.2819601"><ele>168.0</ele><time>2026-03-28T10:15:38.05Z</time></trkpt><trkpt lat="42.1436456" lon="12.2819501"><ele>168.0</ele><time>2026-03-28T10:15:39.053Z</time></trkpt><trkpt lat="42.1437485" lon="12.2819324"><ele>168.0</ele><time>2026-03-28T10:15:40.045Z</time></trkpt><trkpt lat="42.143872" lon="12.281915"><ele>168.0</ele><time>2026-03-28T10:15:41.044Z</time></trkpt><trkpt lat="42.1439936" lon="12.2819007"><ele>168.0</ele><time>2026-03-28T10:15:42.048Z</time></trkpt><trkpt lat="42.144086" lon="12.2818998"><ele>168.0</ele><time>2026-03-28T10:15:43.05Z</time></trkpt><trkpt lat="42.1442008" lon="12.2818921"><ele>168.2</ele><time>2026-03-28T10:15:45.043Z</time></trkpt><trkpt lat="42.1443216" lon="12.2819089"><ele>168.4</ele><time>2026-03-28T10:15:47.052Z</time></trkpt><trkpt lat="42.144405" lon="12.2819567"><ele>168.6</ele><time>2026-03-28T10:15:49.048Z</time></trkpt><trkpt lat="42.14447" lon="12.2819453"><ele>168.79999999999998</ele><time>2026-03-28T10:15:51.046Z</time></trkpt><trkpt lat="42.1445462" lon="12.2818823"><ele>169.0</ele><time>2026-03-28T10:15:52.046Z</time></trkpt><trkpt lat="42.1446437" lon="12.2817861"><ele>169.0</ele><time>2026-03-28T10:15:53.05Z</time></trkpt><trkpt lat="42.1447464" lon="12.2816657"><ele>169.0</ele><time>2026-03-28T10:15:54.056Z</time></trkpt><trkpt lat="42.1448608" lon="12.281528"><ele>169.0</ele><time>2026-03-28T10:15:55.054Z</time></trkpt><trkpt lat="42.145057" lon="12.2812946"><ele>169.5</ele><time>2026-03-28T10:15:56.056Z</time></trkpt><trkpt lat="42.1452636" lon="12.2810886"><ele>170.0</ele><time>2026-03-28T10:15:57.052Z</time></trkpt><trkpt lat="42.1454683" lon="12.2808653"><ele>170.0</ele><time>2026-03-28T10:15:58.054Z</time></trkpt><trkpt lat="42.145655" lon="12.2806667"><ele>170.0</ele><time>2026-03-28T10:15:59.057Z</time></trkpt><trkpt lat="42.1458105" lon="12.2804969"><ele>170.0</ele><time>2026-03-28T10:16:00.061Z</time></trkpt><trkpt lat="42.145948" lon="12.2803478"><ele>169.66666666666666</ele><time>2026-03-28T10:16:01.047Z</time></trkpt><trkpt lat="42.1460764" lon="12.2802047"><ele>169.33333333333334</ele><time>2026-03-28T10:16:02.05Z</time></trkpt><trkpt lat="42.1462219" lon="12.2800464"><ele>169.0</ele><time>2026-03-28T10:16:03.051Z</time></trkpt><trkpt lat="42.1463532" lon="12.2799168"><ele>169.33333333333334</ele><time>2026-03-28T10:16:04.055Z</time></trkpt><trkpt lat="42.1464455" lon="12.2797581"><ele>169.66666666666666</ele><time>2026-03-28T10:16:05.059Z</time></trkpt><trkpt lat="42.1464997" lon="12.279584"><ele>170.0</ele><time>2026-03-28T10:16:06.052Z</time></trkpt><trkpt lat="42.1465791" lon="12.2793534"><ele>170.0</ele><time>2026-03-28T10:16:07.047Z</time></trkpt><trkpt lat="42.1466306" lon="12.2791422"><ele>170.0</ele><time>2026-03-28T10:16:08.077Z</time></trkpt><trkpt lat="42.1466611" lon="12.2789165"><ele>170.0</ele><time>2026-03-28T10:16:09.048Z</time></trkpt><trkpt lat="42.1467145" lon="12.2787061"><ele>169.33333333333331</ele><time>2026-03-28T10:16:10.059Z</time></trkpt><trkpt lat="42.1467689" lon="12.2785011"><ele>168.66666666666666</ele><time>2026-03-28T10:16:11.05Z</time></trkpt><trkpt lat="42.1468281" lon="12.2783095"><ele>168.0</ele><time>2026-03-28T10:16:12.056Z</time></trkpt><trkpt lat="42.1468829" lon="12.2781084"><ele>167.66666666666666</ele><time>2026-03-28T10:16:13.049Z</time></trkpt><trkpt lat="42.1469458" lon="12.2778903"><ele>167.33333333333331</ele><time>2026-03-28T10:16:14.052Z</time></trkpt><trkpt lat="42.1470401" lon="12.2776183"><ele>167.0</ele><time>2026-03-28T10:16:15.058Z</time></trkpt><trkpt lat="42.1470884" lon="12.2773828"><ele>166.66666666666666</ele><time>2026-03-28T10:16:16.048Z</time></trkpt><trkpt lat="42.1471555" lon="12.2771507"><ele>166.33333333333334</ele><time>2026-03-28T10:16:17.052Z</time></trkpt><trkpt lat="42.1472278" lon="12.2769225"><ele>166.0</ele><time>2026-03-28T10:16:18.051Z</time></trkpt><trkpt lat="42.1473057" lon="12.2766907"><ele>166.33333333333334</ele><time>2026-03-28T10:16:19.055Z</time></trkpt><trkpt lat="42.1473811" lon="12.2764412"><ele>166.66666666666666</ele><time>2026-03-28T10:16:20.053Z</time></trkpt><trkpt lat="42.1474602" lon="12.2762033"><ele>167.0</ele><time>2026-03-28T10:16:21.051Z</time></trkpt><trkpt lat="42.1475342" lon="12.2759397"><ele>167.0</ele><time>2026-03-28T10:16:22.066Z</time></trkpt><trkpt lat="42.1476124" lon="12.2756972"><ele>167.0</ele><time>2026-03-28T10:16:23.055Z</time></trkpt><trkpt lat="42.147692" lon="12.2754636"><ele>167.0</ele><time>2026-03-28T10:16:24.05Z</time></trkpt><trkpt lat="42.1477549" lon="12.2752481"><ele>166.66666666666666</ele><time>2026-03-28T10:16:25.054Z</time></trkpt><trkpt lat="42.1478227" lon="12.2750269"><ele>166.33333333333334</ele><time>2026-03-28T10:16:26.048Z</time></trkpt><trkpt lat="42.1478818" lon="12.2748081"><ele>166.0</ele><time>2026-03-28T10:16:27.057Z</time></trkpt><trkpt lat="42.1479651" lon="12.2745648"><ele>166.0</ele><time>2026-03-28T10:16:28.049Z</time></trkpt><trkpt lat="42.1480402" lon="12.2743243"><ele>166.0</ele><time>2026-03-28T10:16:29.062Z</time></trkpt><trkpt lat="42.1481131" lon="12.2741011"><ele>166.0</ele><time>2026-03-28T10:16:30.052Z</time></trkpt><trkpt lat="42.1481828" lon="12.2738622"><ele>166.66666666666669</ele><time>2026-03-28T10:16:31.062Z</time></trkpt><trkpt lat="42.1482603" lon="12.2736187"><ele>167.33333333333334</ele><time>2026-03-28T10:16:32.054Z</time></trkpt><trkpt lat="42.1483321" lon="12.2733791"><ele>168.0</ele><time>2026-03-28T10:16:33.062Z</time></trkpt><trkpt lat="42.1483861" lon="12.2731589"><ele>167.66666666666666</ele><time>2026-03-28T10:16:34.049Z</time></trkpt><trkpt lat="42.1484565" lon="12.2729387"><ele>167.33333333333331</ele><time>2026-03-28T10:16:35.065Z</time></trkpt><trkpt lat="42.1485153" lon="12.2727024"><ele>167.0</ele><time>2026-03-28T10:16:36.052Z</time></trkpt><trkpt lat="42.1485722" lon="12.2724902"><ele>167.33333333333331</ele><time>2026-03-28T10:16:37.053Z</time></trkpt><trkpt lat="42.1486386" lon="12.2722643"><ele>167.66666666666666</ele><time>2026-03-28T10:16:38.061Z</time></trkpt><trkpt lat="42.1487146" lon="12.2720096"><ele>168.0</ele><time>2026-03-28T10:16:39.059Z</time></trkpt><trkpt lat="42.1487635" lon="12.27176"><ele>168.0</ele><time>2026-03-28T10:16:40.051Z</time></trkpt><trkpt lat="42.1488168" lon="12.2715384"><ele>168.0</ele><time>2026-03-28T10:16:41.052Z</time></trkpt><trkpt lat="42.148859" lon="12.2713044"><ele>168.0</ele><time>2026-03-28T10:16:42.053Z</time></trkpt><trkpt lat="42.1488995" lon="12.2710611"><ele>167.66666666666666</ele><time>2026-03-28T10:16:43.06Z</time></trkpt><trkpt lat="42.1489205" lon="12.2708475"><ele>167.33333333333331</ele><time>2026-03-28T10:16:44.056Z</time></trkpt><trkpt lat="42.1489465" lon="12.2706448"><ele>167.0</ele><time>2026-03-28T10:16:45.059Z</time></trkpt><trkpt lat="42.1489717" lon="12.270404"><ele>167.0</ele><time>2026-03-28T10:16:46.048Z</time></trkpt><trkpt lat="42.1489947" lon="12.270167"><ele>167.0</ele><time>2026-03-28T10:16:47.06Z</time></trkpt><trkpt lat="42.1490259" lon="12.2699308"><ele>167.0</ele><time>2026-03-28T10:16:48.051Z</time></trkpt><trkpt lat="42.1490627" lon="12.2697113"><ele>168.33333333333331</ele><time>2026-03-28T10:16:49.059Z</time></trkpt><trkpt lat="42.1490729" lon="12.2694961"><ele>169.66666666666666</ele><time>2026-03-28T10:16:50.046Z</time></trkpt><trkpt lat="42.1490898" lon="12.2692788"><ele>171.0</ele><time>2026-03-28T10:16:51.053Z</time></trkpt><trkpt lat="42.1490934" lon="12.2690442"><ele>171.0</ele><time>2026-03-28T10:16:52.051Z</time></trkpt><trkpt lat="42.1490867" lon="12.2687814"><ele>171.0</ele><time>2026-03-28T10:16:53.057Z</time></trkpt><trkpt lat="42.1491028" lon="12.2685455"><ele>171.0</ele><time>2026-03-28T10:16:54.058Z</time></trkpt><trkpt lat="42.149118" lon="12.2683193"><ele>170.66666666666666</ele><time>2026-03-28T10:16:55.05Z</time></trkpt><trkpt lat="42.149138" lon="12.2680844"><ele>170.33333333333331</ele><time>2026-03-28T10:16:56.053Z</time></trkpt><trkpt lat="42.1491606" lon="12.2678537"><ele>170.0</ele><time>2026-03-28T10:16:57.052Z</time></trkpt><trkpt lat="42.1491896" lon="12.2676293"><ele>170.0</ele><time>2026-03-28T10:16:58.074Z</time></trkpt><trkpt lat="42.1492508" lon="12.2673759"><ele>170.0</ele><time>2026-03-28T10:16:59.05Z</time></trkpt><trkpt lat="42.149304" lon="12.2671393"><ele>170.0</ele><time>2026-03-28T10:17:00.047Z</time></trkpt><trkpt lat="42.149345" lon="12.2668934"><ele>169.0</ele><time>2026-03-28T10:17:01.053Z</time></trkpt><trkpt lat="42.1494117" lon="12.2666485"><ele>168.0</ele><time>2026-03-28T10:17:02.047Z</time></trkpt><trkpt lat="42.1494949" lon="12.2663977"><ele>167.0</ele><time>2026-03-28T10:17:03.054Z</time></trkpt><trkpt lat="42.1495666" lon="12.2661713"><ele>166.33333333333331</ele><time>2026-03-28T10:17:04.046Z</time></trkpt><trkpt lat="42.1496436" lon="12.2659606"><ele>165.66666666666666</ele><time>2026-03-28T10:17:05.056Z</time></trkpt><trkpt lat="42.1497167" lon="12.2657599"><ele>165.0</ele><time>2026-03-28T10:17:06.047Z</time></trkpt><trkpt lat="42.149798" lon="12.2655806"><ele>165.66666666666666</ele><time>2026-03-28T10:17:07.049Z</time></trkpt><trkpt lat="42.1498981" lon="12.2654188"><ele>166.33333333333331</ele><time>2026-03-28T10:17:08.062Z</time></trkpt><trkpt lat="42.1500048" lon="12.2652535"><ele>167.0</ele><time>2026-03-28T10:17:09.045Z</time></trkpt><trkpt lat="42.1501206" lon="12.265057"><ele>167.0</ele><time>2026-03-28T10:17:10.058Z</time></trkpt><trkpt lat="42.1502514" lon="12.264877"><ele>167.0</ele><time>2026-03-28T10:17:11.051Z</time></trkpt><trkpt lat="42.1503609" lon="12.2647213"><ele>167.0</ele><time>2026-03-28T10:17:12.063Z</time></trkpt><trkpt lat="42.1504772" lon="12.2645706"><ele>166.75</ele><time>2026-03-28T10:17:13.046Z</time></trkpt><trkpt lat="42.1506158" lon="12.2644629"><ele>166.5</ele><time>2026-03-28T10:17:14.052Z</time></trkpt><trkpt lat="42.1507388" lon="12.2643789"><ele>166.25</ele><time>2026-03-28T10:17:15.05Z</time></trkpt><trkpt lat="42.1508825" lon="12.2643389"><ele>166.0</ele><time>2026-03-28T10:17:16.046Z</time></trkpt><trkpt lat="42.1510393" lon="12.264293"><ele>166.0</ele><time>2026-03-28T10:17:17.048Z</time></trkpt><trkpt lat="42.1512344" lon="12.2642711"><ele>166.0</ele><time>2026-03-28T10:17:18.044Z</time></trkpt><trkpt lat="42.1514237" lon="12.2642524"><ele>166.0</ele><time>2026-03-28T10:17:19.057Z</time></trkpt><trkpt lat="42.1516021" lon="12.2642318"><ele>167.0</ele><time>2026-03-28T10:17:20.058Z</time></trkpt><trkpt lat="42.151755" lon="12.2642132"><ele>168.0</ele><time>2026-03-28T10:17:21.046Z</time></trkpt><trkpt lat="42.1519035" lon="12.2641918"><ele>169.0</ele><time>2026-03-28T10:17:22.045Z</time></trkpt><trkpt lat="42.1520505" lon="12.2641251"><ele>169.0</ele><time>2026-03-28T10:17:23.05Z</time></trkpt><trkpt lat="42.1521685" lon="12.2640407"><ele>169.0</ele><time>2026-03-28T10:17:24.048Z</time></trkpt><trkpt lat="42.1522904" lon="12.2639032"><ele>169.0</ele><time>2026-03-28T10:17:25.057Z</time></trkpt><trkpt lat="42.1524395" lon="12.2637752"><ele>168.33333333333334</ele><time>2026-03-28T10:17:26.057Z</time></trkpt><trkpt lat="42.152542" lon="12.2636506"><ele>167.66666666666666</ele><time>2026-03-28T10:17:27.048Z</time></trkpt><trkpt lat="42.1526735" lon="12.2635376"><ele>167.0</ele><time>2026-03-28T10:17:28.056Z</time></trkpt><trkpt lat="42.1528204" lon="12.2634182"><ele>167.0</ele><time>2026-03-28T10:17:29.044Z</time></trkpt><trkpt lat="42.1529528" lon="12.2632794"><ele>167.0</ele><time>2026-03-28T10:17:30.052Z</time></trkpt><trkpt lat="42.1531049" lon="12.2631196"><ele>167.0</ele><time>2026-03-28T10:17:31.051Z</time></trkpt><trkpt lat="42.1532148" lon="12.2629771"><ele>168.25</ele><time>2026-03-28T10:17:32.053Z</time></trkpt><trkpt lat="42.1533487" lon="12.2628486"><ele>169.5</ele><time>2026-03-28T10:17:33.06Z</time></trkpt><trkpt lat="42.1534538" lon="12.262728"><ele>170.75</ele><time>2026-03-28T10:17:34.051Z</time></trkpt><trkpt lat="42.1535498" lon="12.2626151"><ele>172.0</ele><time>2026-03-28T10:17:35.048Z</time></trkpt><trkpt lat="42.153659" lon="12.262529"><ele>172.0</ele><time>2026-03-28T10:17:36.047Z</time></trkpt><trkpt lat="42.1537784" lon="12.2624769"><ele>172.0</ele><time>2026-03-28T10:17:37.044Z</time></trkpt><trkpt lat="42.153906" lon="12.2625111"><ele>172.0</ele><time>2026-03-28T10:17:38.056Z</time></trkpt><trkpt lat="42.154031" lon="12.2625645"><ele>172.0</ele><time>2026-03-28T10:17:39.048Z</time></trkpt><trkpt lat="42.1541865" lon="12.2626319"><ele>172.66666666666669</ele><time>2026-03-28T10:17:40.051Z</time></trkpt><trkpt lat="42.1543155" lon="12.2627015"><ele>173.33333333333334</ele><time>2026-03-28T10:17:41.045Z</time></trkpt><trkpt lat="42.1544615" lon="12.2627975"><ele>174.0</ele><time>2026-03-28T10:17:42.05Z</time></trkpt><trkpt lat="42.154613" lon="12.2628749"><ele>174.0</ele><time>2026-03-28T10:17:43.055Z</time></trkpt><trkpt lat="42.154758" lon="12.2629548"><ele>174.0</ele><time>2026-03-28T10:17:44.053Z</time></trkpt><trkpt lat="42.1549175" lon="12.2630557"><ele>174.0</ele><time>2026-03-28T10:17:45.055Z</time></trkpt><trkpt lat="42.1550649" lon="12.2631463"><ele>176.33333333333334</ele><time>2026-03-28T10:17:46.05Z</time></trkpt><trkpt lat="42.1552189" lon="12.2632382"><ele>178.66666666666669</ele><time>2026-03-28T10:17:47.052Z</time></trkpt><trkpt lat="42.1553647" lon="12.2633491"><ele>181.0</ele><time>2026-03-28T10:17:48.06Z</time></trkpt><trkpt lat="42.1555086" lon="12.2634571"><ele>181.0</ele><time>2026-03-28T10:17:49.051Z</time></trkpt><trkpt lat="42.1556527" lon="12.2635618"><ele>181.0</ele><time>2026-03-28T10:17:50.052Z</time></trkpt><trkpt lat="42.1557919" lon="12.2636595"><ele>181.0</ele><time>2026-03-28T10:17:51.044Z</time></trkpt><trkpt lat="42.1559482" lon="12.26377"><ele>184.66666666666669</ele><time>2026-03-28T10:17:52.051Z</time></trkpt><trkpt lat="42.156109" lon="12.2638705"><ele>188.33333333333334</ele><time>2026-03-28T10:17:53.055Z</time></trkpt><trkpt lat="42.156276" lon="12.2639745"><ele>192.0</ele><time>2026-03-28T10:17:54.049Z</time></trkpt><trkpt lat="42.1564375" lon="12.2640792"><ele>186.33333333333334</ele><time>2026-03-28T10:17:55.057Z</time></trkpt><trkpt lat="42.1565971" lon="12.2641829"><ele>180.66666666666669</ele><time>2026-03-28T10:17:56.045Z</time></trkpt><trkpt lat="42.15676" lon="12.2642837"><ele>175.0</ele><time>2026-03-28T10:17:57.05Z</time></trkpt><trkpt lat="42.1569059" lon="12.2643947"><ele>175.0</ele><time>2026-03-28T10:17:58.045Z</time></trkpt><trkpt lat="42.1570568" lon="12.2644865"><ele>175.0</ele><time>2026-03-28T10:17:59.058Z</time></trkpt><trkpt lat="42.1572216" lon="12.2645638"><ele>175.0</ele><time>2026-03-28T10:18:00.047Z</time></trkpt><trkpt lat="42.1573884" lon="12.2646458"><ele>177.33333333333334</ele><time>2026-03-28T10:18:01.051Z</time></trkpt><trkpt lat="42.1575531" lon="12.2647097"><ele>179.66666666666666</ele><time>2026-03-28T10:18:02.047Z</time></trkpt><trkpt lat="42.1577415" lon="12.264759"><ele>182.0</ele><time>2026-03-28T10:18:03.058Z</time></trkpt><trkpt lat="42.157927" lon="12.2648231"><ele>182.0</ele><time>2026-03-28T10:18:04.055Z</time></trkpt><trkpt lat="42.1581215" lon="12.2648756"><ele>182.0</ele><time>2026-03-28T10:18:05.05Z</time></trkpt><trkpt lat="42.1583108" lon="12.2649128"><ele>182.0</ele><time>2026-03-28T10:18:06.054Z</time></trkpt><trkpt lat="42.1584845" lon="12.2649542"><ele>178.33333333333331</ele><time>2026-03-28T10:18:07.058Z</time></trkpt><trkpt lat="42.1586391" lon="12.264999"><ele>174.66666666666666</ele><time>2026-03-28T10:18:08.047Z</time></trkpt><trkpt lat="42.1587978" lon="12.2650105"><ele>171.0</ele><time>2026-03-28T10:18:09.05Z</time></trkpt><trkpt lat="42.1589753" lon="12.264988"><ele>170.66666666666666</ele><time>2026-03-28T10:18:10.049Z</time></trkpt><trkpt lat="42.1591601" lon="12.264925"><ele>170.33333333333331</ele><time>2026-03-28T10:18:11.048Z</time></trkpt><trkpt lat="42.1593349" lon="12.2648323"><ele>170.0</ele><time>2026-03-28T10:18:12.061Z</time></trkpt><trkpt lat="42.1595244" lon="12.2647235"><ele>169.0</ele><time>2026-03-28T10:18:13.05Z</time></trkpt><trkpt lat="42.1597199" lon="12.2646249"><ele>168.0</ele><time>2026-03-28T10:18:14.059Z</time></trkpt><trkpt lat="42.1599007" lon="12.2645008"><ele>167.0</ele><time>2026-03-28T10:18:15.049Z</time></trkpt><trkpt lat="42.1600847" lon="12.2643921"><ele>167.0</ele><time>2026-03-28T10:18:16.053Z</time></trkpt><trkpt lat="42.160249" lon="12.2642589"><ele>167.0</ele><time>2026-03-28T10:18:17.051Z</time></trkpt><trkpt lat="42.1604192" lon="12.2641109"><ele>167.0</ele><time>2026-03-28T10:18:18.059Z</time></trkpt><trkpt lat="42.1605815" lon="12.2639824"><ele>167.0</ele><time>2026-03-28T10:18:19.06Z</time></trkpt><trkpt lat="42.1607594" lon="12.2638474"><ele>167.0</ele><time>2026-03-28T10:18:20.064Z</time></trkpt><trkpt lat="42.1609255" lon="12.2637209"><ele>167.0</ele><time>2026-03-28T10:18:21.054Z</time></trkpt><trkpt lat="42.1610816" lon="12.2636043"><ele>167.0</ele><time>2026-03-28T10:18:22.052Z</time></trkpt><trkpt lat="42.1612345" lon="12.2634765"><ele>167.0</ele><time>2026-03-28T10:18:23.055Z</time></trkpt><trkpt lat="42.1613785" lon="12.2633389"><ele>167.0</ele><time>2026-03-28T10:18:24.045Z</time></trkpt><trkpt lat="42.1615118" lon="12.2632211"><ele>167.66666666666666</ele><time>2026-03-28T10:18:25.051Z</time></trkpt><trkpt lat="42.1616512" lon="12.2630783"><ele>168.33333333333334</ele><time>2026-03-28T10:18:26.049Z</time></trkpt><trkpt lat="42.1617622" lon="12.2629226"><ele>169.0</ele><time>2026-03-28T10:18:27.043Z</time></trkpt><trkpt lat="42.1618698" lon="12.2627557"><ele>169.0</ele><time>2026-03-28T10:18:28.052Z</time></trkpt><trkpt lat="42.1619631" lon="12.2625883"><ele>169.0</ele><time>2026-03-28T10:18:29.054Z</time></trkpt><trkpt lat="42.1620748" lon="12.2624134"><ele>169.0</ele><time>2026-03-28T10:18:30.057Z</time></trkpt><trkpt lat="42.16218" lon="12.2622216"><ele>169.0</ele><time>2026-03-28T10:18:31.049Z</time></trkpt><trkpt lat="42.1622736" lon="12.2620231"><ele>169.0</ele><time>2026-03-28T10:18:32.053Z</time></trkpt><trkpt lat="42.162379" lon="12.2618375"><ele>169.0</ele><time>2026-03-28T10:18:33.057Z</time></trkpt><trkpt lat="42.1624644" lon="12.2616299"><ele>168.66666666666669</ele><time>2026-03-28T10:18:34.045Z</time></trkpt><trkpt lat="42.1625522" lon="12.2614292"><ele>168.33333333333334</ele><time>2026-03-28T10:18:35.05Z</time></trkpt><trkpt lat="42.1626298" lon="12.2612358"><ele>168.0</ele><time>2026-03-28T10:18:36.062Z</time></trkpt><trkpt lat="42.1627112" lon="12.2610253"><ele>168.0</ele><time>2026-03-28T10:18:37.048Z</time></trkpt><trkpt lat="42.1628067" lon="12.2608137"><ele>168.0</ele><time>2026-03-28T10:18:38.083Z</time></trkpt><trkpt lat="42.1628764" lon="12.2606154"><ele>168.0</ele><time>2026-03-28T10:18:39.055Z</time></trkpt><trkpt lat="42.1629454" lon="12.2604142"><ele>167.0</ele><time>2026-03-28T10:18:40.05Z</time></trkpt><trkpt lat="42.1629949" lon="12.2602206"><ele>166.0</ele><time>2026-03-28T10:18:41.051Z</time></trkpt><trkpt lat="42.1630444" lon="12.2600112"><ele>165.0</ele><time>2026-03-28T10:18:42.049Z</time></trkpt><trkpt lat="42.163104" lon="12.259796"><ele>164.33333333333334</ele><time>2026-03-28T10:18:43.054Z</time></trkpt><trkpt lat="42.1631499" lon="12.2595757"><ele>163.66666666666669</ele><time>2026-03-28T10:18:44.055Z</time></trkpt><trkpt lat="42.1631818" lon="12.2593732"><ele>163.0</ele><time>2026-03-28T10:18:45.055Z</time></trkpt><trkpt lat="42.1632188" lon="12.2591871"><ele>163.25</ele><time>2026-03-28T10:18:46.059Z</time></trkpt><trkpt lat="42.1632503" lon="12.2590027"><ele>163.5</ele><time>2026-03-28T10:18:47.048Z</time></trkpt><trkpt lat="42.1632513" lon="12.2588179"><ele>163.75</ele><time>2026-03-28T10:18:48.052Z</time></trkpt><trkpt lat="42.1632226" lon="12.2586253"><ele>164.0</ele><time>2026-03-28T10:18:49.054Z</time></trkpt><trkpt lat="42.1631596" lon="12.2584262"><ele>164.0</ele><time>2026-03-28T10:18:50.048Z</time></trkpt><trkpt lat="42.1630776" lon="12.2582442"><ele>164.0</ele><time>2026-03-28T10:18:51.052Z</time></trkpt><trkpt lat="42.1630344" lon="12.2580367"><ele>164.0</ele><time>2026-03-28T10:18:52.051Z</time></trkpt><trkpt lat="42.1629753" lon="12.2578556"><ele>164.0</ele><time>2026-03-28T10:18:53.051Z</time></trkpt><trkpt lat="42.1629622" lon="12.2576499"><ele>164.0</ele><time>2026-03-28T10:18:54.048Z</time></trkpt><trkpt lat="42.1629486" lon="12.2574411"><ele>164.0</ele><time>2026-03-28T10:18:55.052Z</time></trkpt><trkpt lat="42.1629603" lon="12.2572538"><ele>164.0</ele><time>2026-03-28T10:18:56.052Z</time></trkpt><trkpt lat="42.1629944" lon="12.2570722"><ele>164.0</ele><time>2026-03-28T10:18:57.052Z</time></trkpt><trkpt lat="42.1630236" lon="12.2568832"><ele>164.0</ele><time>2026-03-28T10:18:58.047Z</time></trkpt><trkpt lat="42.1630379" lon="12.2567146"><ele>164.0</ele><time>2026-03-28T10:18:59.052Z</time></trkpt><trkpt lat="42.1630747" lon="12.2565509"><ele>164.0</ele><time>2026-03-28T10:19:00.05Z</time></trkpt><trkpt lat="42.1630892" lon="12.2564153"><ele>164.0</ele><time>2026-03-28T10:19:01.052Z</time></trkpt><trkpt lat="42.1631048" lon="12.256289"><ele>164.0</ele><time>2026-03-28T10:19:02.05Z</time></trkpt><trkpt lat="42.1631245" lon="12.2561704"><ele>164.0</ele><time>2026-03-28T10:19:03.062Z</time></trkpt><trkpt lat="42.1631408" lon="12.2560568"><ele>164.0</ele><time>2026-03-28T10:19:04.053Z</time></trkpt><trkpt lat="42.1631566" lon="12.2559549"><ele>164.0</ele><time>2026-03-28T10:19:05.063Z</time></trkpt><trkpt lat="42.163175" lon="12.2558423"><ele>164.0</ele><time>2026-03-28T10:19:06.049Z</time></trkpt><trkpt lat="42.1631821" lon="12.255729"><ele>164.0</ele><time>2026-03-28T10:19:07.053Z</time></trkpt><trkpt lat="42.163187" lon="12.2556091"><ele>164.0</ele><time>2026-03-28T10:19:08.049Z</time></trkpt><trkpt lat="42.1632038" lon="12.2554833"><ele>164.0</ele><time>2026-03-28T10:19:09.051Z</time></trkpt><trkpt lat="42.1632172" lon="12.2553541"><ele>164.0</ele><time>2026-03-28T10:19:10.052Z</time></trkpt><trkpt lat="42.1632195" lon="12.255206"><ele>164.0</ele><time>2026-03-28T10:19:11.056Z</time></trkpt><trkpt lat="42.1632055" lon="12.255058"><ele>164.39999999999998</ele><time>2026-03-28T10:19:12.053Z</time></trkpt><trkpt lat="42.1631974" lon="12.2549054"><ele>164.8</ele><time>2026-03-28T10:19:13.051Z</time></trkpt><trkpt lat="42.1631851" lon="12.2547627"><ele>165.2</ele><time>2026-03-28T10:19:14.055Z</time></trkpt><trkpt lat="42.1631723" lon="12.2546311"><ele>165.60000000000002</ele><time>2026-03-28T10:19:15.048Z</time></trkpt><trkpt lat="42.1631415" lon="12.2544854"><ele>166.0</ele><time>2026-03-28T10:19:16.063Z</time></trkpt><trkpt lat="42.1631144" lon="12.2543392"><ele>166.0</ele><time>2026-03-28T10:19:17.05Z</time></trkpt><trkpt lat="42.1630809" lon="12.2542027"><ele>166.0</ele><time>2026-03-28T10:19:18.049Z</time></trkpt><trkpt lat="42.1630491" lon="12.2540669"><ele>166.0</ele><time>2026-03-28T10:19:19.05Z</time></trkpt><trkpt lat="42.1630094" lon="12.2539425"><ele>166.0</ele><time>2026-03-28T10:19:20.059Z</time></trkpt><trkpt lat="42.1629537" lon="12.2538371"><ele>166.0</ele><time>2026-03-28T10:19:21.049Z</time></trkpt><trkpt lat="42.1628843" lon="12.2537465"><ele>167.0</ele><time>2026-03-28T10:19:22.054Z</time></trkpt><trkpt lat="42.1628173" lon="12.2536603"><ele>168.0</ele><time>2026-03-28T10:19:23.046Z</time></trkpt><trkpt lat="42.1627319" lon="12.2535782"><ele>169.0</ele><time>2026-03-28T10:19:24.058Z</time></trkpt><trkpt lat="42.1626132" lon="12.2535309"><ele>170.0</ele><time>2026-03-28T10:19:25.048Z</time></trkpt><trkpt lat="42.1624762" lon="12.2535033"><ele>169.75</ele><time>2026-03-28T10:19:26.055Z</time></trkpt><trkpt lat="42.1623454" lon="12.2534662"><ele>169.5</ele><time>2026-03-28T10:19:27.051Z</time></trkpt><trkpt lat="42.1622286" lon="12.2534289"><ele>169.25</ele><time>2026-03-28T10:19:28.063Z</time></trkpt><trkpt lat="42.1621195" lon="12.2533917"><ele>169.0</ele><time>2026-03-28T10:19:29.056Z</time></trkpt><trkpt lat="42.1620206" lon="12.2533494"><ele>169.0</ele><time>2026-03-28T10:19:30.048Z</time></trkpt><trkpt lat="42.1619157" lon="12.2533051"><ele>169.0</ele><time>2026-03-28T10:19:31.051Z</time></trkpt><trkpt lat="42.1618062" lon="12.2532631"><ele>169.0</ele><time>2026-03-28T10:19:32.061Z</time></trkpt><trkpt lat="42.1616795" lon="12.2532221"><ele>169.0</ele><time>2026-03-28T10:19:33.054Z</time></trkpt><trkpt lat="42.1615529" lon="12.253191"><ele>168.75</ele><time>2026-03-28T10:19:34.055Z</time></trkpt><trkpt lat="42.1614386" lon="12.2531387"><ele>168.5</ele><time>2026-03-28T10:19:35.047Z</time></trkpt><trkpt lat="42.1613285" lon="12.2530936"><ele>168.25</ele><time>2026-03-28T10:19:36.05Z</time></trkpt><trkpt lat="42.161225" lon="12.2530407"><ele>168.0</ele><time>2026-03-28T10:19:37.051Z</time></trkpt><trkpt lat="42.1611287" lon="12.252985"><ele>168.0</ele><time>2026-03-28T10:19:38.055Z</time></trkpt><trkpt lat="42.16104" lon="12.2529279"><ele>168.0</ele><time>2026-03-28T10:19:39.049Z</time></trkpt><trkpt lat="42.1609531" lon="12.2528702"><ele>168.0</ele><time>2026-03-28T10:19:40.049Z</time></trkpt><trkpt lat="42.1608756" lon="12.2528179"><ele>168.0</ele><time>2026-03-28T10:19:41.049Z</time></trkpt><trkpt lat="42.1607929" lon="12.2527525"><ele>168.0</ele><time>2026-03-28T10:19:42.05Z</time></trkpt><trkpt lat="42.1607061" lon="12.2526817"><ele>167.60000000000002</ele><time>2026-03-28T10:19:43.06Z</time></trkpt><trkpt lat="42.1606243" lon="12.2525947"><ele>167.20000000000002</ele><time>2026-03-28T10:19:44.044Z</time></trkpt><trkpt lat="42.1605446" lon="12.2524914"><ele>166.8</ele><time>2026-03-28T10:19:45.057Z</time></trkpt><trkpt lat="42.1604633" lon="12.2523794"><ele>166.4</ele><time>2026-03-28T10:19:46.049Z</time></trkpt><trkpt lat="42.1603907" lon="12.252275"><ele>166.0</ele><time>2026-03-28T10:19:47.042Z</time></trkpt><trkpt lat="42.1603202" lon="12.2521864"><ele>167.0</ele><time>2026-03-28T10:19:48.048Z</time></trkpt><trkpt lat="42.160245" lon="12.2521082"><ele>168.0</ele><time>2026-03-28T10:19:49.057Z</time></trkpt><trkpt lat="42.1601727" lon="12.2520311"><ele>169.0</ele><time>2026-03-28T10:19:50.053Z</time></trkpt><trkpt lat="42.1601002" lon="12.2519565"><ele>170.0</ele><time>2026-03-28T10:19:51.048Z</time></trkpt><trkpt lat="42.1600257" lon="12.2518817"><ele>171.0</ele><time>2026-03-28T10:19:52.048Z</time></trkpt><trkpt lat="42.1599542" lon="12.2518133"><ele>171.0</ele><time>2026-03-28T10:19:53.048Z</time></trkpt><trkpt lat="42.1598812" lon="12.2517583"><ele>171.0</ele><time>2026-03-28T10:19:54.048Z</time></trkpt><trkpt lat="42.1598123" lon="12.2517033"><ele>171.0</ele><time>2026-03-28T10:19:55.059Z</time></trkpt><trkpt lat="42.1597468" lon="12.2516393"><ele>171.0</ele><time>2026-03-28T10:19:56.058Z</time></trkpt><trkpt lat="42.1596735" lon="12.2515806"><ele>171.0</ele><time>2026-03-28T10:19:57.051Z</time></trkpt><trkpt lat="42.1595996" lon="12.2515191"><ele>171.0</ele><time>2026-03-28T10:19:58.048Z</time></trkpt><trkpt lat="42.1595245" lon="12.2514475"><ele>170.8</ele><time>2026-03-28T10:19:59.059Z</time></trkpt><trkpt lat="42.1594364" lon="12.2513761"><ele>170.60000000000002</ele><time>2026-03-28T10:20:00.049Z</time></trkpt><trkpt lat="42.1593476" lon="12.2512973"><ele>170.4</ele><time>2026-03-28T10:20:01.061Z</time></trkpt><trkpt lat="42.1592588" lon="12.251204"><ele>170.2</ele><time>2026-03-28T10:20:02.054Z</time></trkpt><trkpt lat="42.1591752" lon="12.2511116"><ele>170.0</ele><time>2026-03-28T10:20:03.05Z</time></trkpt><trkpt lat="42.1590892" lon="12.2510181"><ele>170.2</ele><time>2026-03-28T10:20:04.05Z</time></trkpt><trkpt lat="42.1590034" lon="12.250918"><ele>170.4</ele><time>2026-03-28T10:20:05.055Z</time></trkpt><trkpt lat="42.1589206" lon="12.2508082"><ele>170.60000000000002</ele><time>2026-03-28T10:20:06.048Z</time></trkpt><trkpt lat="42.1588435" lon="12.2507015"><ele>170.8</ele><time>2026-03-28T10:20:07.051Z</time></trkpt><trkpt lat="42.1587585" lon="12.25061"><ele>171.0</ele><time>2026-03-28T10:20:08.06Z</time></trkpt><trkpt lat="42.1586719" lon="12.2505374"><ele>171.0</ele><time>2026-03-28T10:20:09.044Z</time></trkpt><trkpt lat="42.1585796" lon="12.2504718"><ele>171.0</ele><time>2026-03-28T10:20:10.046Z</time></trkpt><trkpt lat="42.1584949" lon="12.250407"><ele>171.0</ele><time>2026-03-28T10:20:11.048Z</time></trkpt><trkpt lat="42.1584121" lon="12.2503504"><ele>171.0</ele><time>2026-03-28T10:20:12.058Z</time></trkpt><trkpt lat="42.1583314" lon="12.2502904"><ele>171.0</ele><time>2026-03-28T10:20:13.056Z</time></trkpt><trkpt lat="42.1582446" lon="12.250235"><ele>170.60000000000002</ele><time>2026-03-28T10:20:14.049Z</time></trkpt><trkpt lat="42.1581579" lon="12.2501665"><ele>170.2</ele><time>2026-03-28T10:20:15.057Z</time></trkpt><trkpt lat="42.1580761" lon="12.2500973"><ele>169.8</ele><time>2026-03-28T10:20:16.044Z</time></trkpt><trkpt lat="42.1579922" lon="12.2500389"><ele>169.39999999999998</ele><time>2026-03-28T10:20:17.06Z</time></trkpt><trkpt lat="42.1579138" lon="12.2499852"><ele>169.0</ele><time>2026-03-28T10:20:18.059Z</time></trkpt><trkpt lat="42.1578329" lon="12.2499367"><ele>169.0</ele><time>2026-03-28T10:20:19.052Z</time></trkpt><trkpt lat="42.1577441" lon="12.2498883"><ele>169.0</ele><time>2026-03-28T10:20:20.052Z</time></trkpt><trkpt lat="42.1576597" lon="12.2498415"><ele>169.0</ele><time>2026-03-28T10:20:21.045Z</time></trkpt><trkpt lat="42.1575775" lon="12.2497971"><ele>169.0</ele><time>2026-03-28T10:20:22.052Z</time></trkpt><trkpt lat="42.1574882" lon="12.2497606"><ele>169.0</ele><time>2026-03-28T10:20:23.05Z</time></trkpt><trkpt lat="42.1574029" lon="12.2497168"><ele>169.39999999999998</ele><time>2026-03-28T10:20:24.045Z</time></trkpt><trkpt lat="42.1573114" lon="12.2496717"><ele>169.8</ele><time>2026-03-28T10:20:25.06Z</time></trkpt><trkpt lat="42.1572147" lon="12.2496381"><ele>170.2</ele><time>2026-03-28T10:20:26.055Z</time></trkpt><trkpt lat="42.157124" lon="12.2496002"><ele>170.60000000000002</ele><time>2026-03-28T10:20:27.055Z</time></trkpt><trkpt lat="42.157031" lon="12.2495617"><ele>171.0</ele><time>2026-03-28T10:20:28.059Z</time></trkpt><trkpt lat="42.1569378" lon="12.2495239"><ele>171.0</ele><time>2026-03-28T10:20:29.052Z</time></trkpt><trkpt lat="42.1568486" lon="12.2494817"><ele>171.0</ele><time>2026-03-28T10:20:30.057Z</time></trkpt><trkpt lat="42.1567726" lon="12.2494528"><ele>171.0</ele><time>2026-03-28T10:20:31.048Z</time></trkpt><trkpt lat="42.1566861" lon="12.2494454"><ele>171.0</ele><time>2026-03-28T10:20:32.055Z</time></trkpt><trkpt lat="42.156604" lon="12.2494225"><ele>171.0</ele><time>2026-03-28T10:20:33.057Z</time></trkpt><trkpt lat="42.1565235" lon="12.2494052"><ele>171.0</ele><time>2026-03-28T10:20:34.05Z</time></trkpt><trkpt lat="42.1564475" lon="12.2493806"><ele>170.60000000000002</ele><time>2026-03-28T10:20:35.056Z</time></trkpt><trkpt lat="42.1563758" lon="12.2493536"><ele>170.2</ele><time>2026-03-28T10:20:36.056Z</time></trkpt><trkpt lat="42.1562624" lon="12.2493322"><ele>169.8</ele><time>2026-03-28T10:20:38.05Z</time></trkpt><trkpt lat="42.1561661" lon="12.249317"><ele>169.39999999999998</ele><time>2026-03-28T10:20:40.056Z</time></trkpt><trkpt lat="42.1560604" lon="12.2492989"><ele>169.0</ele><time>2026-03-28T10:20:42.057Z</time></trkpt><trkpt lat="42.1559953" lon="12.2492842"><ele>169.0</ele><time>2026-03-28T10:20:43.047Z</time></trkpt><trkpt lat="42.1559223" lon="12.2492721"><ele>169.0</ele><time>2026-03-28T10:20:44.057Z</time></trkpt><trkpt lat="42.1558437" lon="12.2492638"><ele>169.0</ele><time>2026-03-28T10:20:45.057Z</time></trkpt><trkpt lat="42.1557631" lon="12.2492449"><ele>169.0</ele><time>2026-03-28T10:20:46.048Z</time></trkpt><trkpt lat="42.1556843" lon="12.2492105"><ele>169.0</ele><time>2026-03-28T10:20:47.057Z</time></trkpt><trkpt lat="42.155605" lon="12.249178"><ele>169.0</ele><time>2026-03-28T10:20:49.057Z</time></trkpt><trkpt lat="42.1555474" lon="12.2491411"><ele>168.5</ele><time>2026-03-28T10:20:51.063Z</time></trkpt><trkpt lat="42.155488" lon="12.2490996"><ele>168.0</ele><time>2026-03-28T10:20:52.045Z</time></trkpt><trkpt lat="42.15541" lon="12.249056"><ele>167.5</ele><time>2026-03-28T10:20:53.051Z</time></trkpt><trkpt lat="42.1553331" lon="12.2490001"><ele>167.0</ele><time>2026-03-28T10:20:54.046Z</time></trkpt><trkpt lat="42.1552603" lon="12.2489409"><ele>166.5</ele><time>2026-03-28T10:20:55.052Z</time></trkpt><trkpt lat="42.1552016" lon="12.2488875"><ele>166.0</ele><time>2026-03-28T10:20:56.054Z</time></trkpt><trkpt lat="42.1551437" lon="12.2488476"><ele>165.16666666666669</ele><time>2026-03-28T10:20:57.045Z</time></trkpt><trkpt lat="42.1550371" lon="12.248774"><ele>164.33333333333334</ele><time>2026-03-28T10:20:59.047Z</time></trkpt><trkpt lat="42.1549769" lon="12.2487359"><ele>163.5</ele><time>2026-03-28T10:21:00.055Z</time></trkpt><trkpt lat="42.1549068" lon="12.2487004"><ele>162.66666666666666</ele><time>2026-03-28T10:21:01.051Z</time></trkpt><trkpt lat="42.1548389" lon="12.2486797"><ele>161.83333333333331</ele><time>2026-03-28T10:21:02.046Z</time></trkpt><trkpt lat="42.1547579" lon="12.2486647"><ele>161.0</ele><time>2026-03-28T10:21:03.054Z</time></trkpt><trkpt lat="42.1546858" lon="12.2486305"><ele>161.0</ele><time>2026-03-28T10:21:04.054Z</time></trkpt><trkpt lat="42.1546323" lon="12.2485684"><ele>161.0</ele><time>2026-03-28T10:21:05.046Z</time></trkpt><trkpt lat="42.1545854" lon="12.2484183"><ele>161.0</ele><time>2026-03-28T10:21:07.054Z</time></trkpt><trkpt lat="42.154553" lon="12.2482777"><ele>161.0</ele><time>2026-03-28T10:21:09.05Z</time></trkpt><trkpt lat="42.1545315" lon="12.2481421"><ele>161.0</ele><time>2026-03-28T10:21:11.047Z</time></trkpt><trkpt lat="42.1545012" lon="12.2480286"><ele>161.4</ele><time>2026-03-28T10:21:13.048Z</time></trkpt><trkpt lat="42.1544985" lon="12.2478865"><ele>161.8</ele><time>2026-03-28T10:21:15.063Z</time></trkpt><trkpt lat="42.1545176" lon="12.2477364"><ele>162.20000000000002</ele><time>2026-03-28T10:21:17.057Z</time></trkpt><trkpt lat="42.1545601" lon="12.2475745"><ele>162.60000000000002</ele><time>2026-03-28T10:21:19.06Z</time></trkpt><trkpt lat="42.1545814" lon="12.2474927"><ele>163.0</ele><time>2026-03-28T10:21:20.05Z</time></trkpt><trkpt lat="42.1546187" lon="12.2473411"><ele>162.8</ele><time>2026-03-28T10:21:22.045Z</time></trkpt><trkpt lat="42.1546603" lon="12.2472031"><ele>162.60000000000002</ele><time>2026-03-28T10:21:24.051Z</time></trkpt><trkpt lat="42.1547168" lon="12.2470706"><ele>162.39999999999998</ele><time>2026-03-28T10:21:26.066Z</time></trkpt><trkpt lat="42.1547674" lon="12.246921"><ele>162.2</ele><time>2026-03-28T10:21:28.059Z</time></trkpt><trkpt lat="42.1547949" lon="12.2468387"><ele>162.0</ele><time>2026-03-28T10:21:29.044Z</time></trkpt><trkpt lat="42.1548522" lon="12.2466992"><ele>163.0</ele><time>2026-03-28T10:21:31.044Z</time></trkpt><trkpt lat="42.1549197" lon="12.2465563"><ele>164.0</ele><time>2026-03-28T10:21:33.05Z</time></trkpt><trkpt lat="42.1549832" lon="12.2464351"><ele>165.0</ele><time>2026-03-28T10:21:35.062Z</time></trkpt><trkpt lat="42.1550464" lon="12.246321"><ele>166.0</ele><time>2026-03-28T10:21:37.051Z</time></trkpt><trkpt lat="42.1551168" lon="12.2461959"><ele>166.0</ele><time>2026-03-28T10:21:39.058Z</time></trkpt><trkpt lat="42.155205" lon="12.2460892"><ele>166.0</ele><time>2026-03-28T10:21:41.054Z</time></trkpt><trkpt lat="42.155317" lon="12.2460569"><ele>166.0</ele><time>2026-03-28T10:21:43.047Z</time></trkpt><trkpt lat="42.1553975" lon="12.2460815"><ele>166.0</ele><time>2026-03-28T10:21:44.049Z</time></trkpt><trkpt lat="42.1555076" lon="12.2460923"><ele>166.0</ele><time>2026-03-28T10:21:46.045Z</time></trkpt><trkpt lat="42.1556284" lon="12.2461153"><ele>166.0</ele><time>2026-03-28T10:21:48.048Z</time></trkpt><trkpt lat="42.1557013" lon="12.2461168"><ele>166.0</ele><time>2026-03-28T10:21:49.049Z</time></trkpt><trkpt lat="42.1557921" lon="12.2461209"><ele>166.0</ele><time>2026-03-28T10:21:51.049Z</time></trkpt><trkpt lat="42.155885" lon="12.2460714"><ele>166.0</ele><time>2026-03-28T10:21:54.053Z</time></trkpt><trkpt lat="42.1559881" lon="12.2460107"><ele>166.0</ele><time>2026-03-28T10:21:56.049Z</time></trkpt><trkpt lat="42.1560512" lon="12.2459462"><ele>166.5</ele><time>2026-03-28T10:21:57.044Z</time></trkpt><trkpt lat="42.1561125" lon="12.2458666"><ele>167.0</ele><time>2026-03-28T10:21:58.058Z</time></trkpt><trkpt lat="42.1561667" lon="12.2457834"><ele>167.5</ele><time>2026-03-28T10:21:59.061Z</time></trkpt><trkpt lat="42.1562134" lon="12.245704"><ele>168.0</ele><time>2026-03-28T10:22:00.05Z</time></trkpt><trkpt lat="42.1562668" lon="12.2456291"><ele>168.5</ele><time>2026-03-28T10:22:01.045Z</time></trkpt><trkpt lat="42.1563172" lon="12.2455738"><ele>169.0</ele><time>2026-03-28T10:22:02.055Z</time></trkpt><trkpt lat="42.1563613" lon="12.2455088"><ele>169.79999999999998</ele><time>2026-03-28T10:22:03.061Z</time></trkpt><trkpt lat="42.1564015" lon="12.2453852"><ele>170.6</ele><time>2026-03-28T10:22:05.057Z</time></trkpt><trkpt lat="42.156468" lon="12.2452418"><ele>171.4</ele><time>2026-03-28T10:22:07.055Z</time></trkpt><trkpt lat="42.1565052" lon="12.2451688"><ele>172.2</ele><time>2026-03-28T10:22:08.052Z</time></trkpt><trkpt lat="42.1565589" lon="12.2450403"><ele>173.0</ele><time>2026-03-28T10:22:10.055Z</time></trkpt><trkpt lat="42.1565989" lon="12.2449495"><ele>173.0</ele><time>2026-03-28T10:22:12.054Z</time></trkpt><trkpt lat="42.1566347" lon="12.2448589"><ele>173.0</ele><time>2026-03-28T10:22:14.052Z</time></trkpt><trkpt lat="42.1567047" lon="12.2447244"><ele>173.0</ele><time>2026-03-28T10:22:16.061Z</time></trkpt><trkpt lat="42.1567487" lon="12.2446582"><ele>173.0</ele><time>2026-03-28T10:22:17.048Z</time></trkpt><trkpt lat="42.156812" lon="12.2445325"><ele>173.0</ele><time>2026-03-28T10:22:19.045Z</time></trkpt><trkpt lat="42.1568859" lon="12.2444273"><ele>172.60000000000002</ele><time>2026-03-28T10:22:21.058Z</time></trkpt><trkpt lat="42.1569225" lon="12.2443533"><ele>172.20000000000002</ele><time>2026-03-28T10:22:22.05Z</time></trkpt><trkpt lat="42.1569831" lon="12.2442173"><ele>171.8</ele><time>2026-03-28T10:22:24.044Z</time></trkpt><trkpt lat="42.1570505" lon="12.2440927"><ele>171.4</ele><time>2026-03-28T10:22:26.057Z</time></trkpt><trkpt lat="42.157129" lon="12.2439828"><ele>171.0</ele><time>2026-03-28T10:22:28.058Z</time></trkpt><trkpt lat="42.1571979" lon="12.243862"><ele>170.75</ele><time>2026-03-28T10:22:30.056Z</time></trkpt><trkpt lat="42.1572599" lon="12.2437371"><ele>170.5</ele><time>2026-03-28T10:22:32.047Z</time></trkpt><trkpt lat="42.15733" lon="12.2436108"><ele>170.25</ele><time>2026-03-28T10:22:34.047Z</time></trkpt><trkpt lat="42.1574026" lon="12.2434735"><ele>170.0</ele><time>2026-03-28T10:22:36.047Z</time></trkpt><trkpt lat="42.1574616" lon="12.2433562"><ele>171.0</ele><time>2026-03-28T10:22:38.055Z</time></trkpt><trkpt lat="42.1575206" lon="12.2432488"><ele>172.0</ele><time>2026-03-28T10:22:40.045Z</time></trkpt><trkpt lat="42.157548" lon="12.2431667"><ele>173.0</ele><time>2026-03-28T10:22:42.05Z</time></trkpt><trkpt lat="42.1575759" lon="12.243061"><ele>174.0</ele><time>2026-03-28T10:22:45.048Z</time></trkpt><trkpt lat="42.1576548" lon="12.2429381"><ele>175.0</ele><time>2026-03-28T10:22:47.062Z</time></trkpt><trkpt lat="42.1577286" lon="12.2428099"><ele>175.0</ele><time>2026-03-28T10:22:49.051Z</time></trkpt><trkpt lat="42.1577606" lon="12.2427305"><ele>175.0</ele><time>2026-03-28T10:22:50.045Z</time></trkpt><trkpt lat="42.1578047" lon="12.2426455"><ele>175.0</ele><time>2026-03-28T10:22:51.06Z</time></trkpt><trkpt lat="42.1578486" lon="12.2425506"><ele>175.0</ele><time>2026-03-28T10:22:52.045Z</time></trkpt><trkpt lat="42.1578881" lon="12.2424708"><ele>175.0</ele><time>2026-03-28T10:22:53.055Z</time></trkpt><trkpt lat="42.1579285" lon="12.2423778"><ele>175.0</ele><time>2026-03-28T10:22:54.064Z</time></trkpt><trkpt lat="42.1579687" lon="12.2422724"><ele>174.5</ele><time>2026-03-28T10:22:55.047Z</time></trkpt><trkpt lat="42.1580117" lon="12.2421722"><ele>174.0</ele><time>2026-03-28T10:22:56.055Z</time></trkpt><trkpt lat="42.1580514" lon="12.2420787"><ele>173.5</ele><time>2026-03-28T10:22:57.042Z</time></trkpt><trkpt lat="42.1580801" lon="12.2419894"><ele>173.0</ele><time>2026-03-28T10:22:58.056Z</time></trkpt><trkpt lat="42.1581204" lon="12.2418522"><ele>172.5</ele><time>2026-03-28T10:23:00.055Z</time></trkpt><trkpt lat="42.1581376" lon="12.2417349"><ele>172.0</ele><time>2026-03-28T10:23:02.05Z</time></trkpt><trkpt lat="42.1581858" lon="12.2416243"><ele>172.39999999999998</ele><time>2026-03-28T10:23:04.049Z</time></trkpt><trkpt lat="42.1582546" lon="12.2414919"><ele>172.79999999999998</ele><time>2026-03-28T10:23:06.054Z</time></trkpt><trkpt lat="42.1583038" lon="12.241401"><ele>173.2</ele><time>2026-03-28T10:23:07.058Z</time></trkpt><trkpt lat="42.1583607" lon="12.2413111"><ele>173.6</ele><time>2026-03-28T10:23:08.048Z</time></trkpt><trkpt lat="42.1584123" lon="12.2412179"><ele>174.0</ele><time>2026-03-28T10:23:09.052Z</time></trkpt><trkpt lat="42.158468" lon="12.2411172"><ele>174.0</ele><time>2026-03-28T10:23:10.05Z</time></trkpt><trkpt lat="42.1585186" lon="12.2410143"><ele>174.0</ele><time>2026-03-28T10:23:11.053Z</time></trkpt><trkpt lat="42.1585657" lon="12.2409121"><ele>174.0</ele><time>2026-03-28T10:23:12.06Z</time></trkpt><trkpt lat="42.1586173" lon="12.2408103"><ele>174.0</ele><time>2026-03-28T10:23:13.05Z</time></trkpt><trkpt lat="42.1586725" lon="12.2407143"><ele>174.0</ele><time>2026-03-28T10:23:14.055Z</time></trkpt><trkpt lat="42.1587179" lon="12.2406089"><ele>173.6</ele><time>2026-03-28T10:23:15.063Z</time></trkpt><trkpt lat="42.1587615" lon="12.2404906"><ele>173.2</ele><time>2026-03-28T10:23:16.051Z</time></trkpt><trkpt lat="42.1588012" lon="12.2403767"><ele>172.79999999999998</ele><time>2026-03-28T10:23:17.061Z</time></trkpt><trkpt lat="42.1588397" lon="12.2402698"><ele>172.39999999999998</ele><time>2026-03-28T10:23:18.05Z</time></trkpt><trkpt lat="42.158875" lon="12.2401628"><ele>172.0</ele><time>2026-03-28T10:23:19.05Z</time></trkpt><trkpt lat="42.1589117" lon="12.2400465"><ele>172.0</ele><time>2026-03-28T10:23:20.048Z</time></trkpt><trkpt lat="42.1589433" lon="12.239935"><ele>172.0</ele><time>2026-03-28T10:23:21.051Z</time></trkpt><trkpt lat="42.1589701" lon="12.2398164"><ele>172.0</ele><time>2026-03-28T10:23:22.048Z</time></trkpt><trkpt lat="42.1590013" lon="12.2397035"><ele>172.0</ele><time>2026-03-28T10:23:23.054Z</time></trkpt><trkpt lat="42.1590292" lon="12.2395934"><ele>172.0</ele><time>2026-03-28T10:23:24.052Z</time></trkpt><trkpt lat="42.1590557" lon="12.2394973"><ele>172.0</ele><time>2026-03-28T10:23:25.051Z</time></trkpt><trkpt lat="42.1590789" lon="12.2393894"><ele>172.39999999999998</ele><time>2026-03-28T10:23:26.047Z</time></trkpt><trkpt lat="42.1591067" lon="12.2392711"><ele>172.79999999999998</ele><time>2026-03-28T10:23:27.055Z</time></trkpt><trkpt lat="42.1591335" lon="12.2391568"><ele>173.2</ele><time>2026-03-28T10:23:28.048Z</time></trkpt><trkpt lat="42.159163" lon="12.2390463"><ele>173.6</ele><time>2026-03-28T10:23:29.052Z</time></trkpt><trkpt lat="42.1592101" lon="12.2389357"><ele>174.0</ele><time>2026-03-28T10:23:30.049Z</time></trkpt><trkpt lat="42.1592661" lon="12.238819"><ele>174.0</ele><time>2026-03-28T10:23:31.045Z</time></trkpt><trkpt lat="42.1593247" lon="12.2387033"><ele>174.0</ele><time>2026-03-28T10:23:32.056Z</time></trkpt><trkpt lat="42.1593769" lon="12.2385895"><ele>174.0</ele><time>2026-03-28T10:23:33.051Z</time></trkpt><trkpt lat="42.1594302" lon="12.2384838"><ele>174.0</ele><time>2026-03-28T10:23:34.047Z</time></trkpt><trkpt lat="42.1594923" lon="12.2383687"><ele>174.0</ele><time>2026-03-28T10:23:35.046Z</time></trkpt><trkpt lat="42.1595573" lon="12.2382497"><ele>174.0</ele><time>2026-03-28T10:23:36.053Z</time></trkpt><trkpt lat="42.1596319" lon="12.2381407"><ele>174.0</ele><time>2026-03-28T10:23:37.049Z</time></trkpt><trkpt lat="42.1596941" lon="12.2380356"><ele>174.0</ele><time>2026-03-28T10:23:38.058Z</time></trkpt><trkpt lat="42.1597506" lon="12.2379458"><ele>174.0</ele><time>2026-03-28T10:23:39.045Z</time></trkpt><trkpt lat="42.1598201" lon="12.2378564"><ele>174.0</ele><time>2026-03-28T10:23:40.054Z</time></trkpt><trkpt lat="42.1599001" lon="12.2377739"><ele>174.0</ele><time>2026-03-28T10:23:41.046Z</time></trkpt><trkpt lat="42.1599699" lon="12.2377001"><ele>174.0</ele><time>2026-03-28T10:23:42.046Z</time></trkpt><trkpt lat="42.1600474" lon="12.2376157"><ele>174.0</ele><time>2026-03-28T10:23:43.047Z</time></trkpt><trkpt lat="42.1601258" lon="12.2375415"><ele>174.0</ele><time>2026-03-28T10:23:44.051Z</time></trkpt><trkpt lat="42.1602092" lon="12.2374616"><ele>174.0</ele><time>2026-03-28T10:23:45.054Z</time></trkpt><trkpt lat="42.1602891" lon="12.2373751"><ele>173.79999999999998</ele><time>2026-03-28T10:23:46.05Z</time></trkpt><trkpt lat="42.1603713" lon="12.2372932"><ele>173.6</ele><time>2026-03-28T10:23:47.052Z</time></trkpt><trkpt lat="42.160447" lon="12.2372048"><ele>173.4</ele><time>2026-03-28T10:23:48.052Z</time></trkpt><trkpt lat="42.1605183" lon="12.2371173"><ele>173.2</ele><time>2026-03-28T10:23:49.048Z</time></trkpt><trkpt lat="42.1605941" lon="12.237023"><ele>173.0</ele><time>2026-03-28T10:23:50.047Z</time></trkpt><trkpt lat="42.1606738" lon="12.2369199"><ele>173.4</ele><time>2026-03-28T10:23:51.053Z</time></trkpt><trkpt lat="42.1607492" lon="12.2368139"><ele>173.8</ele><time>2026-03-28T10:23:52.059Z</time></trkpt><trkpt lat="42.160815" lon="12.2367145"><ele>174.2</ele><time>2026-03-28T10:23:53.049Z</time></trkpt><trkpt lat="42.1608741" lon="12.2366157"><ele>174.6</ele><time>2026-03-28T10:23:54.047Z</time></trkpt><trkpt lat="42.1609282" lon="12.2365168"><ele>175.0</ele><time>2026-03-28T10:23:55.056Z</time></trkpt><trkpt lat="42.1609814" lon="12.2364063"><ele>174.0</ele><time>2026-03-28T10:23:56.045Z</time></trkpt><trkpt lat="42.1610398" lon="12.2362808"><ele>173.0</ele><time>2026-03-28T10:23:57.049Z</time></trkpt><trkpt lat="42.1611111" lon="12.2361502"><ele>172.0</ele><time>2026-03-28T10:23:58.06Z</time></trkpt><trkpt lat="42.1611883" lon="12.2360179"><ele>171.0</ele><time>2026-03-28T10:23:59.046Z</time></trkpt><trkpt lat="42.1612725" lon="12.2358932"><ele>171.0</ele><time>2026-03-28T10:24:00.05Z</time></trkpt><trkpt lat="42.1613839" lon="12.2357565"><ele>171.0</ele><time>2026-03-28T10:24:01.047Z</time></trkpt><trkpt lat="42.1615206" lon="12.2356222"><ele>171.0</ele><time>2026-03-28T10:24:02.048Z</time></trkpt><trkpt lat="42.1616411" lon="12.235511"><ele>171.25</ele><time>2026-03-28T10:24:03.057Z</time></trkpt><trkpt lat="42.1617411" lon="12.2353988"><ele>171.5</ele><time>2026-03-28T10:24:04.049Z</time></trkpt><trkpt lat="42.1618431" lon="12.235296"><ele>171.75</ele><time>2026-03-28T10:24:05.047Z</time></trkpt><trkpt lat="42.1619425" lon="12.2351717"><ele>172.0</ele><time>2026-03-28T10:24:06.047Z</time></trkpt><trkpt lat="42.1620074" lon="12.2350173"><ele>172.0</ele><time>2026-03-28T10:24:07.046Z</time></trkpt><trkpt lat="42.1620791" lon="12.2348731"><ele>172.0</ele><time>2026-03-28T10:24:08.049Z</time></trkpt><trkpt lat="42.1621252" lon="12.2347049"><ele>172.0</ele><time>2026-03-28T10:24:09.048Z</time></trkpt><trkpt lat="42.1621647" lon="12.2345451"><ele>172.0</ele><time>2026-03-28T10:24:10.055Z</time></trkpt><trkpt lat="42.1622083" lon="12.2343711"><ele>172.0</ele><time>2026-03-28T10:24:11.055Z</time></trkpt><trkpt lat="42.1622566" lon="12.2341887"><ele>172.0</ele><time>2026-03-28T10:24:12.043Z</time></trkpt><trkpt lat="42.1622967" lon="12.2340086"><ele>172.0</ele><time>2026-03-28T10:24:13.047Z</time></trkpt><trkpt lat="42.1623347" lon="12.2338205"><ele>172.0</ele><time>2026-03-28T10:24:14.045Z</time></trkpt><trkpt lat="42.1623649" lon="12.2336379"><ele>173.0</ele><time>2026-03-28T10:24:15.047Z</time></trkpt><trkpt lat="42.1623695" lon="12.2334601"><ele>174.0</ele><time>2026-03-28T10:24:16.053Z</time></trkpt><trkpt lat="42.1623648" lon="12.2332866"><ele>175.0</ele><time>2026-03-28T10:24:17.046Z</time></trkpt><trkpt lat="42.1623723" lon="12.2331325"><ele>176.0</ele><time>2026-03-28T10:24:18.056Z</time></trkpt><trkpt lat="42.1624046" lon="12.2329886"><ele>176.0</ele><time>2026-03-28T10:24:19.051Z</time></trkpt><trkpt lat="42.1624599" lon="12.2328323"><ele>176.0</ele><time>2026-03-28T10:24:20.056Z</time></trkpt><trkpt lat="42.1625552" lon="12.232653"><ele>176.0</ele><time>2026-03-28T10:24:21.05Z</time></trkpt><trkpt lat="42.1626587" lon="12.2324574"><ele>176.0</ele><time>2026-03-28T10:24:22.056Z</time></trkpt><trkpt lat="42.1627317" lon="12.232278"><ele>176.0</ele><time>2026-03-28T10:24:23.051Z</time></trkpt><trkpt lat="42.162792" lon="12.2320867"><ele>176.0</ele><time>2026-03-28T10:24:24.046Z</time></trkpt><trkpt lat="42.1628306" lon="12.2318568"><ele>176.0</ele><time>2026-03-28T10:24:25.052Z</time></trkpt><trkpt lat="42.1628613" lon="12.2316176"><ele>176.0</ele><time>2026-03-28T10:24:26.047Z</time></trkpt><trkpt lat="42.1628809" lon="12.2313387"><ele>176.0</ele><time>2026-03-28T10:24:27.051Z</time></trkpt><trkpt lat="42.1628907" lon="12.2310883"><ele>176.0</ele><time>2026-03-28T10:24:28.059Z</time></trkpt><trkpt lat="42.1628835" lon="12.2308699"><ele>176.0</ele><time>2026-03-28T10:24:29.047Z</time></trkpt><trkpt lat="42.1628761" lon="12.2306567"><ele>176.0</ele><time>2026-03-28T10:24:30.047Z</time></trkpt><trkpt lat="42.1628671" lon="12.2304396"><ele>176.66666666666666</ele><time>2026-03-28T10:24:31.048Z</time></trkpt><trkpt lat="42.1628615" lon="12.230217"><ele>177.33333333333334</ele><time>2026-03-28T10:24:32.047Z</time></trkpt><trkpt lat="42.1628872" lon="12.2299944"><ele>178.0</ele><time>2026-03-28T10:24:33.043Z</time></trkpt><trkpt lat="42.1628931" lon="12.2297592"><ele>178.66666666666669</ele><time>2026-03-28T10:24:34.051Z</time></trkpt><trkpt lat="42.1629079" lon="12.2295434"><ele>179.33333333333334</ele><time>2026-03-28T10:24:35.049Z</time></trkpt><trkpt lat="42.1629435" lon="12.2293425"><ele>180.0</ele><time>2026-03-28T10:24:36.045Z</time></trkpt><trkpt lat="42.1629925" lon="12.2291548"><ele>180.0</ele><time>2026-03-28T10:24:37.054Z</time></trkpt><trkpt lat="42.1630375" lon="12.2289865"><ele>180.0</ele><time>2026-03-28T10:24:38.045Z</time></trkpt><trkpt lat="42.1630752" lon="12.228829"><ele>180.0</ele><time>2026-03-28T10:24:39.048Z</time></trkpt><trkpt lat="42.1631138" lon="12.2286587"><ele>180.0</ele><time>2026-03-28T10:24:40.047Z</time></trkpt><trkpt lat="42.1631339" lon="12.2285273"><ele>180.4</ele><time>2026-03-28T10:24:41.047Z</time></trkpt><trkpt lat="42.1631886" lon="12.2284086"><ele>180.8</ele><time>2026-03-28T10:24:42.048Z</time></trkpt><trkpt lat="42.1632231" lon="12.2283045"><ele>181.2</ele><time>2026-03-28T10:24:43.049Z</time></trkpt><trkpt lat="42.163312" lon="12.2282186"><ele>181.6</ele><time>2026-03-28T10:24:45.043Z</time></trkpt><trkpt lat="42.163381" lon="12.2282196"><ele>182.0</ele><time>2026-03-28T10:24:46.053Z</time></trkpt><trkpt lat="42.1634705" lon="12.2282587"><ele>182.0</ele><time>2026-03-28T10:24:47.049Z</time></trkpt><trkpt lat="42.1635613" lon="12.2283025"><ele>182.0</ele><time>2026-03-28T10:24:48.047Z</time></trkpt><trkpt lat="42.1636521" lon="12.2283629"><ele>182.0</ele><time>2026-03-28T10:24:49.045Z</time></trkpt><trkpt lat="42.1637465" lon="12.2284335"><ele>182.0</ele><time>2026-03-28T10:24:50.051Z</time></trkpt><trkpt lat="42.1638305" lon="12.2285315"><ele>182.0</ele><time>2026-03-28T10:24:51.046Z</time></trkpt><trkpt lat="42.163902" lon="12.2286446"><ele>182.0</ele><time>2026-03-28T10:24:52.05Z</time></trkpt><trkpt lat="42.1639706" lon="12.2287609"><ele>182.0</ele><time>2026-03-28T10:24:53.053Z</time></trkpt><trkpt lat="42.164038" lon="12.2288847"><ele>182.0</ele><time>2026-03-28T10:24:54.054Z</time></trkpt><trkpt lat="42.1641036" lon="12.2290074"><ele>182.0</ele><time>2026-03-28T10:24:55.051Z</time></trkpt><trkpt lat="42.1641688" lon="12.2291328"><ele>183.75</ele><time>2026-03-28T10:24:56.053Z</time></trkpt><trkpt lat="42.1642419" lon="12.2292609"><ele>185.5</ele><time>2026-03-28T10:24:57.055Z</time></trkpt><trkpt lat="42.1643193" lon="12.2293867"><ele>187.25</ele><time>2026-03-28T10:24:58.048Z</time></trkpt><trkpt lat="42.1643937" lon="12.2295028"><ele>189.0</ele><time>2026-03-28T10:24:59.053Z</time></trkpt><trkpt lat="42.1644645" lon="12.2296145"><ele>189.0</ele><time>2026-03-28T10:25:00.045Z</time></trkpt><trkpt lat="42.1645356" lon="12.2297388"><ele>189.0</ele><time>2026-03-28T10:25:01.06Z</time></trkpt><trkpt lat="42.1646069" lon="12.2298688"><ele>189.0</ele><time>2026-03-28T10:25:02.057Z</time></trkpt><trkpt lat="42.164671" lon="12.2299992"><ele>189.0</ele><time>2026-03-28T10:25:03.054Z</time></trkpt><trkpt lat="42.1647424" lon="12.2301212"><ele>189.2</ele><time>2026-03-28T10:25:04.046Z</time></trkpt><trkpt lat="42.1648221" lon="12.230238"><ele>189.39999999999998</ele><time>2026-03-28T10:25:05.054Z</time></trkpt><trkpt lat="42.1649058" lon="12.2303323"><ele>189.6</ele><time>2026-03-28T10:25:06.048Z</time></trkpt><trkpt lat="42.1649915" lon="12.230397"><ele>189.8</ele><time>2026-03-28T10:25:07.05Z</time></trkpt><trkpt lat="42.1650823" lon="12.2304351"><ele>190.0</ele><time>2026-03-28T10:25:08.062Z</time></trkpt><trkpt lat="42.1651603" lon="12.2304339"><ele>192.2</ele><time>2026-03-28T10:25:09.05Z</time></trkpt><trkpt lat="42.1652312" lon="12.2303973"><ele>194.4</ele><time>2026-03-28T10:25:10.052Z</time></trkpt><trkpt lat="42.1652888" lon="12.230317"><ele>196.60000000000002</ele><time>2026-03-28T10:25:11.047Z</time></trkpt><trkpt lat="42.1653447" lon="12.2302153"><ele>198.8</ele><time>2026-03-28T10:25:12.046Z</time></trkpt><trkpt lat="42.1653924" lon="12.2300859"><ele>201.0</ele><time>2026-03-28T10:25:13.045Z</time></trkpt><trkpt lat="42.1654432" lon="12.2299457"><ele>201.0</ele><time>2026-03-28T10:25:14.048Z</time></trkpt><trkpt lat="42.165496" lon="12.2297998"><ele>201.0</ele><time>2026-03-28T10:25:15.051Z</time></trkpt><trkpt lat="42.1655509" lon="12.2296522"><ele>201.0</ele><time>2026-03-28T10:25:16.057Z</time></trkpt><trkpt lat="42.1655999" lon="12.2294964"><ele>201.0</ele><time>2026-03-28T10:25:17.049Z</time></trkpt><trkpt lat="42.1656401" lon="12.2293343"><ele>203.25</ele><time>2026-03-28T10:25:18.065Z</time></trkpt><trkpt lat="42.1656959" lon="12.2291731"><ele>205.5</ele><time>2026-03-28T10:25:19.051Z</time></trkpt><trkpt lat="42.1657514" lon="12.2290271"><ele>207.75</ele><time>2026-03-28T10:25:20.057Z</time></trkpt><trkpt lat="42.1658118" lon="12.228873"><ele>210.0</ele><time>2026-03-28T10:25:21.043Z</time></trkpt><trkpt lat="42.1658686" lon="12.2287196"><ele>210.0</ele><time>2026-03-28T10:25:22.051Z</time></trkpt><trkpt lat="42.1659315" lon="12.2285643"><ele>210.0</ele><time>2026-03-28T10:25:23.062Z</time></trkpt><trkpt lat="42.1659963" lon="12.2284051"><ele>210.0</ele><time>2026-03-28T10:25:24.047Z</time></trkpt><trkpt lat="42.1660655" lon="12.2282435"><ele>210.0</ele><time>2026-03-28T10:25:25.054Z</time></trkpt><trkpt lat="42.1661511" lon="12.2280663"><ele>209.5</ele><time>2026-03-28T10:25:26.047Z</time></trkpt><trkpt lat="42.1662048" lon="12.2279096"><ele>209.0</ele><time>2026-03-28T10:25:27.06Z</time></trkpt><trkpt lat="42.1662678" lon="12.2277558"><ele>208.5</ele><time>2026-03-28T10:25:28.045Z</time></trkpt><trkpt lat="42.1663226" lon="12.2276002"><ele>208.0</ele><time>2026-03-28T10:25:29.047Z</time></trkpt><trkpt lat="42.1663725" lon="12.2274513"><ele>207.75</ele><time>2026-03-28T10:25:30.05Z</time></trkpt><trkpt lat="42.166447" lon="12.2273103"><ele>207.5</ele><time>2026-03-28T10:25:31.055Z</time></trkpt><trkpt lat="42.1665373" lon="12.2271952"><ele>207.25</ele><time>2026-03-28T10:25:32.044Z</time></trkpt><trkpt lat="42.1666259" lon="12.2270967"><ele>207.0</ele><time>2026-03-28T10:25:33.043Z</time></trkpt><trkpt lat="42.1667244" lon="12.2270158"><ele>209.5</ele><time>2026-03-28T10:25:34.055Z</time></trkpt><trkpt lat="42.1668348" lon="12.2269471"><ele>212.0</ele><time>2026-03-28T10:25:35.049Z</time></trkpt><trkpt lat="42.1669479" lon="12.226931"><ele>214.5</ele><time>2026-03-28T10:25:36.057Z</time></trkpt><trkpt lat="42.1670587" lon="12.226992"><ele>217.0</ele><time>2026-03-28T10:25:37.046Z</time></trkpt><trkpt lat="42.1671681" lon="12.2270849"><ele>217.0</ele><time>2026-03-28T10:25:38.048Z</time></trkpt><trkpt lat="42.1672671" lon="12.2271903"><ele>217.0</ele><time>2026-03-28T10:25:39.05Z</time></trkpt><trkpt lat="42.1673365" lon="12.2273002"><ele>217.0</ele><time>2026-03-28T10:25:40.053Z</time></trkpt><trkpt lat="42.1673707" lon="12.2274317"><ele>217.0</ele><time>2026-03-28T10:25:41.054Z</time></trkpt><trkpt lat="42.167382" lon="12.2275845"><ele>218.25</ele><time>2026-03-28T10:25:42.045Z</time></trkpt><trkpt lat="42.1673594" lon="12.2277334"><ele>219.5</ele><time>2026-03-28T10:25:43.049Z</time></trkpt><trkpt lat="42.1673132" lon="12.2278679"><ele>220.75</ele><time>2026-03-28T10:25:44.044Z</time></trkpt><trkpt lat="42.1672545" lon="12.227993"><ele>222.0</ele><time>2026-03-28T10:25:45.053Z</time></trkpt><trkpt lat="42.1671692" lon="12.2281306"><ele>223.5</ele><time>2026-03-28T10:25:46.049Z</time></trkpt><trkpt lat="42.1670928" lon="12.2282842"><ele>225.0</ele><time>2026-03-28T10:25:47.047Z</time></trkpt><trkpt lat="42.1670212" lon="12.2284494"><ele>226.5</ele><time>2026-03-28T10:25:48.052Z</time></trkpt><trkpt lat="42.1669674" lon="12.2286101"><ele>228.0</ele><time>2026-03-28T10:25:49.05Z</time></trkpt><trkpt lat="42.1669242" lon="12.2287694"><ele>228.0</ele><time>2026-03-28T10:25:50.05Z</time></trkpt><trkpt lat="42.1668915" lon="12.2289248"><ele>228.0</ele><time>2026-03-28T10:25:51.046Z</time></trkpt><trkpt lat="42.166874" lon="12.2290921"><ele>228.0</ele><time>2026-03-28T10:25:52.043Z</time></trkpt><trkpt lat="42.1668798" lon="12.229254"><ele>228.0</ele><time>2026-03-28T10:25:53.046Z</time></trkpt><trkpt lat="42.1669004" lon="12.2294067"><ele>230.25</ele><time>2026-03-28T10:25:54.057Z</time></trkpt><trkpt lat="42.1669279" lon="12.2295533"><ele>232.5</ele><time>2026-03-28T10:25:55.046Z</time></trkpt><trkpt lat="42.1669737" lon="12.2296898"><ele>234.75</ele><time>2026-03-28T10:25:56.045Z</time></trkpt><trkpt lat="42.1670214" lon="12.2298379"><ele>237.0</ele><time>2026-03-28T10:25:57.053Z</time></trkpt><trkpt lat="42.1670698" lon="12.2299949"><ele>237.0</ele><time>2026-03-28T10:25:58.062Z</time></trkpt><trkpt lat="42.1671141" lon="12.2301471"><ele>237.0</ele><time>2026-03-28T10:25:59.058Z</time></trkpt><trkpt lat="42.1671577" lon="12.2303151"><ele>237.0</ele><time>2026-03-28T10:26:00.044Z</time></trkpt><trkpt lat="42.1672078" lon="12.2304811"><ele>237.0</ele><time>2026-03-28T10:26:01.046Z</time></trkpt><trkpt lat="42.1672623" lon="12.2306411"><ele>237.25</ele><time>2026-03-28T10:26:02.058Z</time></trkpt><trkpt lat="42.167316" lon="12.2308053"><ele>237.5</ele><time>2026-03-28T10:26:03.058Z</time></trkpt><trkpt lat="42.1673504" lon="12.2309538"><ele>237.75</ele><time>2026-03-28T10:26:04.049Z</time></trkpt><trkpt lat="42.1673866" lon="12.2311044"><ele>238.0</ele><time>2026-03-28T10:26:05.051Z</time></trkpt><trkpt lat="42.1674011" lon="12.2312483"><ele>239.25</ele><time>2026-03-28T10:26:06.047Z</time></trkpt><trkpt lat="42.1673959" lon="12.2313934"><ele>240.5</ele><time>2026-03-28T10:26:07.053Z</time></trkpt><trkpt lat="42.1673544" lon="12.2315483"><ele>241.75</ele><time>2026-03-28T10:26:08.057Z</time></trkpt><trkpt lat="42.167285" lon="12.2317038"><ele>243.0</ele><time>2026-03-28T10:26:09.053Z</time></trkpt><trkpt lat="42.1672222" lon="12.2318465"><ele>243.0</ele><time>2026-03-28T10:26:10.05Z</time></trkpt><trkpt lat="42.1671465" lon="12.2319918"><ele>243.0</ele><time>2026-03-28T10:26:11.051Z</time></trkpt><trkpt lat="42.1670847" lon="12.2321432"><ele>243.0</ele><time>2026-03-28T10:26:12.06Z</time></trkpt><trkpt lat="42.1670405" lon="12.2323055"><ele>243.0</ele><time>2026-03-28T10:26:13.05Z</time></trkpt><trkpt lat="42.167033" lon="12.2324661"><ele>244.75</ele><time>2026-03-28T10:26:14.043Z</time></trkpt><trkpt lat="42.1670309" lon="12.2326167"><ele>246.5</ele><time>2026-03-28T10:26:15.054Z</time></trkpt><trkpt lat="42.1670446" lon="12.2327688"><ele>248.25</ele><time>2026-03-28T10:26:16.051Z</time></trkpt><trkpt lat="42.1670894" lon="12.2329118"><ele>250.0</ele><time>2026-03-28T10:26:17.047Z</time></trkpt><trkpt lat="42.1671623" lon="12.2330471"><ele>250.75</ele><time>2026-03-28T10:26:18.055Z</time></trkpt><trkpt lat="42.1672444" lon="12.2331777"><ele>251.5</ele><time>2026-03-28T10:26:19.059Z</time></trkpt><trkpt lat="42.1673249" lon="12.2333005"><ele>252.25</ele><time>2026-03-28T10:26:20.045Z</time></trkpt><trkpt lat="42.1673894" lon="12.2334181"><ele>253.0</ele><time>2026-03-28T10:26:21.052Z</time></trkpt><trkpt lat="42.1674298" lon="12.2335455"><ele>253.0</ele><time>2026-03-28T10:26:22.049Z</time></trkpt><trkpt lat="42.1674469" lon="12.2336772"><ele>253.0</ele><time>2026-03-28T10:26:23.05Z</time></trkpt><trkpt lat="42.1674216" lon="12.233814"><ele>253.0</ele><time>2026-03-28T10:26:24.05Z</time></trkpt><trkpt lat="42.1673596" lon="12.2339419"><ele>253.0</ele><time>2026-03-28T10:26:25.048Z</time></trkpt><trkpt lat="42.167282" lon="12.2340539"><ele>253.0</ele><time>2026-03-28T10:26:26.058Z</time></trkpt><trkpt lat="42.1671937" lon="12.2341898"><ele>255.75</ele><time>2026-03-28T10:26:27.044Z</time></trkpt><trkpt lat="42.1671108" lon="12.234326"><ele>258.5</ele><time>2026-03-28T10:26:28.054Z</time></trkpt><trkpt lat="42.1670374" lon="12.2344654"><ele>261.25</ele><time>2026-03-28T10:26:29.046Z</time></trkpt><trkpt lat="42.1669925" lon="12.2346037"><ele>264.0</ele><time>2026-03-28T10:26:30.048Z</time></trkpt><trkpt lat="42.1669537" lon="12.2347485"><ele>266.0</ele><time>2026-03-28T10:26:31.046Z</time></trkpt><trkpt lat="42.1669454" lon="12.2349063"><ele>268.0</ele><time>2026-03-28T10:26:32.058Z</time></trkpt><trkpt lat="42.1669526" lon="12.2350561"><ele>270.0</ele><time>2026-03-28T10:26:33.053Z</time></trkpt><trkpt lat="42.166989" lon="12.2352066"><ele>272.0</ele><time>2026-03-28T10:26:34.045Z</time></trkpt><trkpt lat="42.1670535" lon="12.2353528"><ele>272.0</ele><time>2026-03-28T10:26:35.044Z</time></trkpt><trkpt lat="42.1671383" lon="12.2354869"><ele>272.0</ele><time>2026-03-28T10:26:36.049Z</time></trkpt><trkpt lat="42.1672254" lon="12.2356194"><ele>272.0</ele><time>2026-03-28T10:26:37.045Z</time></trkpt><trkpt lat="42.1673058" lon="12.2357419"><ele>272.0</ele><time>2026-03-28T10:26:38.053Z</time></trkpt><trkpt lat="42.1673771" lon="12.2358727"><ele>276.5</ele><time>2026-03-28T10:26:39.042Z</time></trkpt><trkpt lat="42.1674256" lon="12.2360115"><ele>281.0</ele><time>2026-03-28T10:26:40.051Z</time></trkpt><trkpt lat="42.167456" lon="12.236166"><ele>285.5</ele><time>2026-03-28T10:26:41.061Z</time></trkpt><trkpt lat="42.1674714" lon="12.2363222"><ele>290.0</ele><time>2026-03-28T10:26:42.045Z</time></trkpt><trkpt lat="42.1674725" lon="12.2364766"><ele>290.5</ele><time>2026-03-28T10:26:43.051Z</time></trkpt><trkpt lat="42.1674728" lon="12.2366453"><ele>291.0</ele><time>2026-03-28T10:26:44.047Z</time></trkpt><trkpt lat="42.1674881" lon="12.2368101"><ele>291.5</ele><time>2026-03-28T10:26:45.053Z</time></trkpt><trkpt lat="42.1675245" lon="12.2369732"><ele>292.0</ele><time>2026-03-28T10:26:46.047Z</time></trkpt><trkpt lat="42.1675734" lon="12.2371292"><ele>292.0</ele><time>2026-03-28T10:26:47.052Z</time></trkpt><trkpt lat="42.1676367" lon="12.2372789"><ele>292.0</ele><time>2026-03-28T10:26:48.047Z</time></trkpt><trkpt lat="42.1677161" lon="12.237406"><ele>292.0</ele><time>2026-03-28T10:26:49.052Z</time></trkpt><trkpt lat="42.1678108" lon="12.2375167"><ele>292.0</ele><time>2026-03-28T10:26:50.049Z</time></trkpt><trkpt lat="42.1678943" lon="12.2376427"><ele>291.0</ele><time>2026-03-28T10:26:51.046Z</time></trkpt><trkpt lat="42.1679675" lon="12.2377758"><ele>290.0</ele><time>2026-03-28T10:26:52.048Z</time></trkpt><trkpt lat="42.1680552" lon="12.2379192"><ele>289.0</ele><time>2026-03-28T10:26:53.06Z</time></trkpt><trkpt lat="42.1681218" lon="12.2380877"><ele>288.0</ele><time>2026-03-28T10:26:54.05Z</time></trkpt><trkpt lat="42.1681763" lon="12.2382867"><ele>290.75</ele><time>2026-03-28T10:26:55.052Z</time></trkpt><trkpt lat="42.1682034" lon="12.2384805"><ele>293.5</ele><time>2026-03-28T10:26:56.047Z</time></trkpt><trkpt lat="42.1682431" lon="12.2386705"><ele>296.25</ele><time>2026-03-28T10:26:57.049Z</time></trkpt><trkpt lat="42.1682888" lon="12.2388587"><ele>299.0</ele><time>2026-03-28T10:26:58.06Z</time></trkpt><trkpt lat="42.1683226" lon="12.2390604"><ele>299.0</ele><time>2026-03-28T10:26:59.055Z</time></trkpt><trkpt lat="42.1683598" lon="12.2392444"><ele>299.0</ele><time>2026-03-28T10:27:00.05Z</time></trkpt><trkpt lat="42.1684329" lon="12.239386"><ele>299.0</ele><time>2026-03-28T10:27:01.049Z</time></trkpt><trkpt lat="42.1685195" lon="12.2395426"><ele>299.0</ele><time>2026-03-28T10:27:02.048Z</time></trkpt><trkpt lat="42.1685904" lon="12.2396984"><ele>300.0</ele><time>2026-03-28T10:27:03.05Z</time></trkpt><trkpt lat="42.1686469" lon="12.2398572"><ele>301.0</ele><time>2026-03-28T10:27:04.047Z</time></trkpt><trkpt lat="42.1686948" lon="12.2400132"><ele>302.0</ele><time>2026-03-28T10:27:05.055Z</time></trkpt><trkpt lat="42.1687605" lon="12.2401509"><ele>303.0</ele><time>2026-03-28T10:27:06.05Z</time></trkpt><trkpt lat="42.1688265" lon="12.2402949"><ele>303.0</ele><time>2026-03-28T10:27:07.053Z</time></trkpt><trkpt lat="42.1688881" lon="12.2404632"><ele>303.0</ele><time>2026-03-28T10:27:08.044Z</time></trkpt><trkpt lat="42.1689578" lon="12.2406087"><ele>303.0</ele><time>2026-03-28T10:27:09.049Z</time></trkpt><trkpt lat="42.1690455" lon="12.2407512"><ele>303.0</ele><time>2026-03-28T10:27:10.054Z</time></trkpt><trkpt lat="42.169137" lon="12.2408997"><ele>306.0</ele><time>2026-03-28T10:27:11.048Z</time></trkpt><trkpt lat="42.1692368" lon="12.2410454"><ele>309.0</ele><time>2026-03-28T10:27:12.051Z</time></trkpt><trkpt lat="42.1693513" lon="12.2411813"><ele>312.0</ele><time>2026-03-28T10:27:13.055Z</time></trkpt><trkpt lat="42.1694402" lon="12.2413306"><ele>315.0</ele><time>2026-03-28T10:27:14.052Z</time></trkpt><trkpt lat="42.1695072" lon="12.241474"><ele>316.25</ele><time>2026-03-28T10:27:15.047Z</time></trkpt><trkpt lat="42.1695864" lon="12.2416033"><ele>317.5</ele><time>2026-03-28T10:27:16.05Z</time></trkpt><trkpt lat="42.1696705" lon="12.2417271"><ele>318.75</ele><time>2026-03-28T10:27:17.057Z</time></trkpt><trkpt lat="42.1697509" lon="12.2418545"><ele>320.0</ele><time>2026-03-28T10:27:18.058Z</time></trkpt><trkpt lat="42.1698605" lon="12.2419545"><ele>321.75</ele><time>2026-03-28T10:27:19.046Z</time></trkpt><trkpt lat="42.1699611" lon="12.2420744"><ele>323.5</ele><time>2026-03-28T10:27:20.057Z</time></trkpt><trkpt lat="42.1700862" lon="12.2421826"><ele>325.25</ele><time>2026-03-28T10:27:21.055Z</time></trkpt><trkpt lat="42.1701869" lon="12.2423047"><ele>327.0</ele><time>2026-03-28T10:27:22.047Z</time></trkpt><trkpt lat="42.1702887" lon="12.2424189"><ele>328.0</ele><time>2026-03-28T10:27:23.06Z</time></trkpt><trkpt lat="42.1703946" lon="12.2425368"><ele>329.0</ele><time>2026-03-28T10:27:24.052Z</time></trkpt><trkpt lat="42.1704975" lon="12.2426534"><ele>330.0</ele><time>2026-03-28T10:27:25.045Z</time></trkpt><trkpt lat="42.1706105" lon="12.2427785"><ele>331.0</ele><time>2026-03-28T10:27:26.048Z</time></trkpt><trkpt lat="42.1707174" lon="12.2428851"><ele>331.20000000000005</ele><time>2026-03-28T10:27:27.045Z</time></trkpt><trkpt lat="42.1707916" lon="12.242978"><ele>331.40000000000003</ele><time>2026-03-28T10:27:28.049Z</time></trkpt><trkpt lat="42.1708458" lon="12.2430655"><ele>331.6</ele><time>2026-03-28T10:27:29.06Z</time></trkpt><trkpt lat="42.1709189" lon="12.2431417"><ele>331.8</ele><time>2026-03-28T10:27:30.055Z</time></trkpt><trkpt lat="42.1710004" lon="12.2432299"><ele>332.0</ele><time>2026-03-28T10:27:31.053Z</time></trkpt><trkpt lat="42.1710871" lon="12.2433361"><ele>332.0</ele><time>2026-03-28T10:27:32.047Z</time></trkpt><trkpt lat="42.1711774" lon="12.2434563"><ele>332.0</ele><time>2026-03-28T10:27:33.054Z</time></trkpt><trkpt lat="42.1712588" lon="12.2435836"><ele>332.0</ele><time>2026-03-28T10:27:34.051Z</time></trkpt><trkpt lat="42.1713434" lon="12.2437186"><ele>332.0</ele><time>2026-03-28T10:27:35.051Z</time></trkpt><trkpt lat="42.1714239" lon="12.2439011"><ele>330.6666666666667</ele><time>2026-03-28T10:27:36.056Z</time></trkpt><trkpt lat="42.1714718" lon="12.2441477"><ele>329.3333333333333</ele><time>2026-03-28T10:27:37.052Z</time></trkpt><trkpt lat="42.1715078" lon="12.2443775"><ele>328.0</ele><time>2026-03-28T10:27:38.046Z</time></trkpt><trkpt lat="42.1715619" lon="12.2445578"><ele>331.25</ele><time>2026-03-28T10:27:39.055Z</time></trkpt><trkpt lat="42.1716219" lon="12.2447215"><ele>334.5</ele><time>2026-03-28T10:27:40.043Z</time></trkpt><trkpt lat="42.1716981" lon="12.2448966"><ele>337.75</ele><time>2026-03-28T10:27:41.049Z</time></trkpt><trkpt lat="42.1717958" lon="12.2450567"><ele>341.0</ele><time>2026-03-28T10:27:42.048Z</time></trkpt><trkpt lat="42.1719062" lon="12.245211"><ele>341.0</ele><time>2026-03-28T10:27:43.056Z</time></trkpt><trkpt lat="42.1720325" lon="12.2453742"><ele>341.0</ele><time>2026-03-28T10:27:44.044Z</time></trkpt><trkpt lat="42.1721811" lon="12.2455469"><ele>341.0</ele><time>2026-03-28T10:27:45.052Z</time></trkpt><trkpt lat="42.1723351" lon="12.2457163"><ele>345.0</ele><time>2026-03-28T10:27:46.047Z</time></trkpt><trkpt lat="42.1724796" lon="12.2458765"><ele>349.0</ele><time>2026-03-28T10:27:47.062Z</time></trkpt><trkpt lat="42.1726081" lon="12.2460485"><ele>353.0</ele><time>2026-03-28T10:27:48.056Z</time></trkpt><trkpt lat="42.1727197" lon="12.2462091"><ele>353.0</ele><time>2026-03-28T10:27:49.055Z</time></trkpt><trkpt lat="42.1728292" lon="12.2463854"><ele>353.0</ele><time>2026-03-28T10:27:50.049Z</time></trkpt><trkpt lat="42.1729328" lon="12.246563"><ele>353.0</ele><time>2026-03-28T10:27:51.051Z</time></trkpt><trkpt lat="42.1730248" lon="12.2467343"><ele>353.33333333333337</ele><time>2026-03-28T10:27:52.044Z</time></trkpt><trkpt lat="42.1730932" lon="12.2469271"><ele>353.6666666666667</ele><time>2026-03-28T10:27:53.047Z</time></trkpt><trkpt lat="42.1731423" lon="12.247141"><ele>354.0</ele><time>2026-03-28T10:27:54.048Z</time></trkpt><trkpt lat="42.173178" lon="12.2473589"><ele>354.0</ele><time>2026-03-28T10:27:55.053Z</time></trkpt><trkpt lat="42.1731912" lon="12.2475798"><ele>354.0</ele><time>2026-03-28T10:27:56.054Z</time></trkpt><trkpt lat="42.1731759" lon="12.2477802"><ele>354.0</ele><time>2026-03-28T10:27:57.054Z</time></trkpt><trkpt lat="42.1731341" lon="12.2479299"><ele>354.0</ele><time>2026-03-28T10:27:58.047Z</time></trkpt><trkpt lat="42.1730608" lon="12.2480674"><ele>356.0</ele><time>2026-03-28T10:27:59.045Z</time></trkpt><trkpt lat="42.1729543" lon="12.2482128"><ele>358.0</ele><time>2026-03-28T10:28:00.046Z</time></trkpt><trkpt lat="42.1728521" lon="12.2483465"><ele>360.0</ele><time>2026-03-28T10:28:01.06Z</time></trkpt><trkpt lat="42.1727786" lon="12.2484774"><ele>362.0</ele><time>2026-03-28T10:28:02.049Z</time></trkpt><trkpt lat="42.1727257" lon="12.2486022"><ele>362.0</ele><time>2026-03-28T10:28:03.05Z</time></trkpt><trkpt lat="42.1726771" lon="12.248742"><ele>362.0</ele><time>2026-03-28T10:28:04.046Z</time></trkpt><trkpt lat="42.1726432" lon="12.2488965"><ele>362.0</ele><time>2026-03-28T10:28:05.054Z</time></trkpt><trkpt lat="42.1726475" lon="12.2490564"><ele>362.0</ele><time>2026-03-28T10:28:06.044Z</time></trkpt><trkpt lat="42.1726718" lon="12.2492228"><ele>363.25</ele><time>2026-03-28T10:28:07.048Z</time></trkpt><trkpt lat="42.1727342" lon="12.2493745"><ele>364.5</ele><time>2026-03-28T10:28:08.046Z</time></trkpt><trkpt lat="42.1728152" lon="12.2495055"><ele>365.75</ele><time>2026-03-28T10:28:09.049Z</time></trkpt><trkpt lat="42.1729238" lon="12.2496013"><ele>367.0</ele><time>2026-03-28T10:28:10.045Z</time></trkpt><trkpt lat="42.1730478" lon="12.2496611"><ele>367.0</ele><time>2026-03-28T10:28:11.045Z</time></trkpt><trkpt lat="42.1731652" lon="12.2496978"><ele>367.0</ele><time>2026-03-28T10:28:12.056Z</time></trkpt><trkpt lat="42.1733127" lon="12.2496904"><ele>367.0</ele><time>2026-03-28T10:28:13.044Z</time></trkpt><trkpt lat="42.1734872" lon="12.2496927"><ele>367.0</ele><time>2026-03-28T10:28:14.052Z</time></trkpt><trkpt lat="42.1737098" lon="12.2496897"><ele>369.66666666666663</ele><time>2026-03-28T10:28:15.044Z</time></trkpt><trkpt lat="42.1739191" lon="12.249722"><ele>372.3333333333333</ele><time>2026-03-28T10:28:16.053Z</time></trkpt><trkpt lat="42.1741243" lon="12.2497561"><ele>375.0</ele><time>2026-03-28T10:28:17.047Z</time></trkpt><trkpt lat="42.174355" lon="12.2497769"><ele>378.0</ele><time>2026-03-28T10:28:18.049Z</time></trkpt><trkpt lat="42.1745925" lon="12.249804"><ele>381.0</ele><time>2026-03-28T10:28:19.049Z</time></trkpt><trkpt lat="42.1748521" lon="12.2498216"><ele>384.5</ele><time>2026-03-28T10:28:20.05Z</time></trkpt><trkpt lat="42.1750854" lon="12.2498488"><ele>388.0</ele><time>2026-03-28T10:28:21.065Z</time></trkpt><trkpt lat="42.1752989" lon="12.2498872"><ele>388.0</ele><time>2026-03-28T10:28:22.046Z</time></trkpt><trkpt lat="42.1755047" lon="12.2499284"><ele>388.0</ele><time>2026-03-28T10:28:23.05Z</time></trkpt><trkpt lat="42.1757063" lon="12.2499746"><ele>388.0</ele><time>2026-03-28T10:28:24.056Z</time></trkpt><trkpt lat="42.1759173" lon="12.2499933"><ele>389.33333333333337</ele><time>2026-03-28T10:28:25.056Z</time></trkpt><trkpt lat="42.1760918" lon="12.2500291"><ele>390.66666666666663</ele><time>2026-03-28T10:28:26.047Z</time></trkpt><trkpt lat="42.1762894" lon="12.2500647"><ele>392.0</ele><time>2026-03-28T10:28:27.047Z</time></trkpt><trkpt lat="42.1764834" lon="12.2500743"><ele>394.3333333333333</ele><time>2026-03-28T10:28:28.055Z</time></trkpt><trkpt lat="42.1766512" lon="12.2500963"><ele>396.66666666666663</ele><time>2026-03-28T10:28:29.064Z</time></trkpt><trkpt lat="42.1768135" lon="12.250119"><ele>399.0</ele><time>2026-03-28T10:28:30.061Z</time></trkpt><trkpt lat="42.1769977" lon="12.2501461"><ele>399.0</ele><time>2026-03-28T10:28:31.046Z</time></trkpt><trkpt lat="42.1771734" lon="12.2501617"><ele>399.0</ele><time>2026-03-28T10:28:32.042Z</time></trkpt><trkpt lat="42.1773412" lon="12.2502005"><ele>399.0</ele><time>2026-03-28T10:28:33.06Z</time></trkpt><trkpt lat="42.1775035" lon="12.2502334"><ele>400.66666666666663</ele><time>2026-03-28T10:28:34.047Z</time></trkpt><trkpt lat="42.1776818" lon="12.2502623"><ele>402.3333333333333</ele><time>2026-03-28T10:28:35.053Z</time></trkpt><trkpt lat="42.1778689" lon="12.2502892"><ele>404.0</ele><time>2026-03-28T10:28:36.046Z</time></trkpt><trkpt lat="42.1780487" lon="12.2503056"><ele>404.3333333333333</ele><time>2026-03-28T10:28:37.054Z</time></trkpt><trkpt lat="42.1782316" lon="12.2503252"><ele>404.66666666666663</ele><time>2026-03-28T10:28:38.072Z</time></trkpt><trkpt lat="42.1784044" lon="12.2503447"><ele>405.0</ele><time>2026-03-28T10:28:39.055Z</time></trkpt><trkpt lat="42.1785631" lon="12.2503668"><ele>405.0</ele><time>2026-03-28T10:28:40.051Z</time></trkpt><trkpt lat="42.1787447" lon="12.2503729"><ele>405.0</ele><time>2026-03-28T10:28:41.045Z</time></trkpt><trkpt lat="42.1789138" lon="12.2503696"><ele>405.0</ele><time>2026-03-28T10:28:42.055Z</time></trkpt><trkpt lat="42.1790873" lon="12.2503721"><ele>405.0</ele><time>2026-03-28T10:28:43.046Z</time></trkpt><trkpt lat="42.1792795" lon="12.2503508"><ele>405.0</ele><time>2026-03-28T10:28:44.048Z</time></trkpt><trkpt lat="42.1794359" lon="12.250319"><ele>405.0</ele><time>2026-03-28T10:28:45.051Z</time></trkpt><trkpt lat="42.1795984" lon="12.2502971"><ele>405.0</ele><time>2026-03-28T10:28:46.051Z</time></trkpt><trkpt lat="42.179749" lon="12.2502572"><ele>405.0</ele><time>2026-03-28T10:28:47.044Z</time></trkpt><trkpt lat="42.1799009" lon="12.2501913"><ele>405.0</ele><time>2026-03-28T10:28:48.047Z</time></trkpt><trkpt lat="42.1800702" lon="12.2501056"><ele>404.66666666666663</ele><time>2026-03-28T10:28:49.044Z</time></trkpt><trkpt lat="42.1802176" lon="12.2500194"><ele>404.3333333333333</ele><time>2026-03-28T10:28:50.056Z</time></trkpt><trkpt lat="42.1803715" lon="12.2499177"><ele>404.0</ele><time>2026-03-28T10:28:51.048Z</time></trkpt><trkpt lat="42.1805358" lon="12.2498032"><ele>403.3333333333333</ele><time>2026-03-28T10:28:52.051Z</time></trkpt><trkpt lat="42.1807115" lon="12.2496945"><ele>402.66666666666663</ele><time>2026-03-28T10:28:53.051Z</time></trkpt><trkpt lat="42.1808989" lon="12.24958"><ele>402.0</ele><time>2026-03-28T10:28:54.044Z</time></trkpt><trkpt lat="42.1811125" lon="12.249457"><ele>402.0</ele><time>2026-03-28T10:28:55.057Z</time></trkpt><trkpt lat="42.1813374" lon="12.2493114"><ele>402.0</ele><time>2026-03-28T10:28:56.048Z</time></trkpt><trkpt lat="42.1815399" lon="12.2491882"><ele>399.5</ele><time>2026-03-28T10:28:57.059Z</time></trkpt><trkpt lat="42.1817549" lon="12.2490563"><ele>397.0</ele><time>2026-03-28T10:28:58.044Z</time></trkpt><trkpt lat="42.1819559" lon="12.2489365"><ele>397.0</ele><time>2026-03-28T10:28:59.054Z</time></trkpt><trkpt lat="42.1821384" lon="12.248822"><ele>397.0</ele><time>2026-03-28T10:29:00.051Z</time></trkpt><trkpt lat="42.1823319" lon="12.2486957"><ele>397.0</ele><time>2026-03-28T10:29:01.057Z</time></trkpt><trkpt lat="42.1825372" lon="12.2485591"><ele>394.6666666666667</ele><time>2026-03-28T10:29:02.06Z</time></trkpt><trkpt lat="42.182736" lon="12.2484494"><ele>392.33333333333337</ele><time>2026-03-28T10:29:03.059Z</time></trkpt><trkpt lat="42.1829386" lon="12.248319"><ele>390.0</ele><time>2026-03-28T10:29:04.049Z</time></trkpt><trkpt lat="42.1831206" lon="12.248193"><ele>390.33333333333337</ele><time>2026-03-28T10:29:05.044Z</time></trkpt><trkpt lat="42.1832868" lon="12.2480873"><ele>390.6666666666667</ele><time>2026-03-28T10:29:06.055Z</time></trkpt><trkpt lat="42.1834574" lon="12.2479838"><ele>391.0</ele><time>2026-03-28T10:29:07.059Z</time></trkpt><trkpt lat="42.1836358" lon="12.2478812"><ele>391.0</ele><time>2026-03-28T10:29:08.047Z</time></trkpt><trkpt lat="42.1838041" lon="12.2477889"><ele>391.0</ele><time>2026-03-28T10:29:09.056Z</time></trkpt><trkpt lat="42.1839658" lon="12.2476887"><ele>391.0</ele><time>2026-03-28T10:29:10.054Z</time></trkpt><trkpt lat="42.1841212" lon="12.2475856"><ele>391.0</ele><time>2026-03-28T10:29:11.06Z</time></trkpt><trkpt lat="42.1842982" lon="12.2474842"><ele>391.0</ele><time>2026-03-28T10:29:12.045Z</time></trkpt><trkpt lat="42.1844888" lon="12.2473657"><ele>391.0</ele><time>2026-03-28T10:29:13.052Z</time></trkpt><trkpt lat="42.1846783" lon="12.2472604"><ele>395.0</ele><time>2026-03-28T10:29:14.052Z</time></trkpt><trkpt lat="42.1848697" lon="12.2471454"><ele>399.0</ele><time>2026-03-28T10:29:15.049Z</time></trkpt><trkpt lat="42.1850677" lon="12.2470228"><ele>403.0</ele><time>2026-03-28T10:29:16.054Z</time></trkpt><trkpt lat="42.1852423" lon="12.246932"><ele>403.0</ele><time>2026-03-28T10:29:17.05Z</time></trkpt><trkpt lat="42.185411" lon="12.2468586"><ele>403.0</ele><time>2026-03-28T10:29:18.051Z</time></trkpt><trkpt lat="42.1855805" lon="12.2467708"><ele>403.0</ele><time>2026-03-28T10:29:19.053Z</time></trkpt><trkpt lat="42.1857412" lon="12.246688"><ele>403.6666666666667</ele><time>2026-03-28T10:29:20.048Z</time></trkpt><trkpt lat="42.185925" lon="12.2465791"><ele>404.33333333333337</ele><time>2026-03-28T10:29:21.048Z</time></trkpt><trkpt lat="42.18609" lon="12.2464591"><ele>405.0</ele><time>2026-03-28T10:29:22.051Z</time></trkpt><trkpt lat="42.1862385" lon="12.246315"><ele>410.0</ele><time>2026-03-28T10:29:23.053Z</time></trkpt><trkpt lat="42.186374" lon="12.2461513"><ele>415.0</ele><time>2026-03-28T10:29:24.044Z</time></trkpt><trkpt lat="42.1864949" lon="12.2459393"><ele>420.0</ele><time>2026-03-28T10:29:25.045Z</time></trkpt><trkpt lat="42.1866345" lon="12.2457233"><ele>426.0</ele><time>2026-03-28T10:29:26.045Z</time></trkpt><trkpt lat="42.1867634" lon="12.2455248"><ele>432.0</ele><time>2026-03-28T10:29:27.053Z</time></trkpt><trkpt lat="42.1868989" lon="12.2453246"><ele>438.0</ele><time>2026-03-28T10:29:28.053Z</time></trkpt><trkpt lat="42.1870052" lon="12.2451413"><ele>438.0</ele><time>2026-03-28T10:29:29.05Z</time></trkpt><trkpt lat="42.1870984" lon="12.2449784"><ele>438.0</ele><time>2026-03-28T10:29:30.048Z</time></trkpt><trkpt lat="42.1871743" lon="12.2448307"><ele>438.0</ele><time>2026-03-28T10:29:31.048Z</time></trkpt><trkpt lat="42.1872466" lon="12.2446602"><ele>438.0</ele><time>2026-03-28T10:29:32.049Z</time></trkpt><trkpt lat="42.1872892" lon="12.2444643"><ele>438.0</ele><time>2026-03-28T10:29:33.048Z</time></trkpt><trkpt lat="42.1873152" lon="12.2442522"><ele>438.0</ele><time>2026-03-28T10:29:34.049Z</time></trkpt><trkpt lat="42.1873494" lon="12.2440433"><ele>438.0</ele><time>2026-03-28T10:29:35.055Z</time></trkpt><trkpt lat="42.1873491" lon="12.2438107"><ele>438.0</ele><time>2026-03-28T10:29:36.044Z</time></trkpt><trkpt lat="42.18739" lon="12.2435644"><ele>438.0</ele><time>2026-03-28T10:29:37.057Z</time></trkpt><trkpt lat="42.1874006" lon="12.2433021"><ele>438.0</ele><time>2026-03-28T10:29:38.046Z</time></trkpt><trkpt lat="42.1874266" lon="12.2430814"><ele>437.25</ele><time>2026-03-28T10:29:39.052Z</time></trkpt><trkpt lat="42.1874482" lon="12.2428629"><ele>436.5</ele><time>2026-03-28T10:29:40.043Z</time></trkpt><trkpt lat="42.1874654" lon="12.2426898"><ele>435.75</ele><time>2026-03-28T10:29:41.055Z</time></trkpt><trkpt lat="42.187516" lon="12.2425184"><ele>435.0</ele><time>2026-03-28T10:29:42.051Z</time></trkpt><trkpt lat="42.1875639" lon="12.2423248"><ele>433.5</ele><time>2026-03-28T10:29:43.057Z</time></trkpt><trkpt lat="42.1876104" lon="12.2421182"><ele>432.0</ele><time>2026-03-28T10:29:44.047Z</time></trkpt><trkpt lat="42.1876888" lon="12.2419491"><ele>430.5</ele><time>2026-03-28T10:29:45.053Z</time></trkpt><trkpt lat="42.1877742" lon="12.2418156"><ele>429.0</ele><time>2026-03-28T10:29:46.047Z</time></trkpt><trkpt lat="42.1878808" lon="12.2416853"><ele>429.0</ele><time>2026-03-28T10:29:47.046Z</time></trkpt><trkpt lat="42.188012" lon="12.2415607"><ele>429.0</ele><time>2026-03-28T10:29:48.043Z</time></trkpt><trkpt lat="42.188152" lon="12.2414426"><ele>429.0</ele><time>2026-03-28T10:29:49.054Z</time></trkpt><trkpt lat="42.1883087" lon="12.2413341"><ele>427.0</ele><time>2026-03-28T10:29:50.052Z</time></trkpt><trkpt lat="42.1884623" lon="12.2412475"><ele>425.0</ele><time>2026-03-28T10:29:51.046Z</time></trkpt><trkpt lat="42.1886207" lon="12.2412019"><ele>423.0</ele><time>2026-03-28T10:29:52.049Z</time></trkpt><trkpt lat="42.1888118" lon="12.2411873"><ele>422.33333333333337</ele><time>2026-03-28T10:29:53.044Z</time></trkpt><trkpt lat="42.1890193" lon="12.2412037"><ele>421.6666666666667</ele><time>2026-03-28T10:29:54.048Z</time></trkpt><trkpt lat="42.1892047" lon="12.2412072"><ele>421.0</ele><time>2026-03-28T10:29:55.046Z</time></trkpt><trkpt lat="42.1893595" lon="12.2412255"><ele>421.0</ele><time>2026-03-28T10:29:56.049Z</time></trkpt><trkpt lat="42.1895416" lon="12.2412404"><ele>421.0</ele><time>2026-03-28T10:29:57.043Z</time></trkpt><trkpt lat="42.1897046" lon="12.2412434"><ele>421.0</ele><time>2026-03-28T10:29:58.05Z</time></trkpt><trkpt lat="42.1898726" lon="12.2412524"><ele>421.6666666666667</ele><time>2026-03-28T10:29:59.051Z</time></trkpt><trkpt lat="42.1900674" lon="12.2412612"><ele>422.33333333333337</ele><time>2026-03-28T10:30:00.043Z</time></trkpt><trkpt lat="42.1902736" lon="12.2412719"><ele>423.0</ele><time>2026-03-28T10:30:01.056Z</time></trkpt><trkpt lat="42.190474" lon="12.2412814"><ele>423.0</ele><time>2026-03-28T10:30:02.057Z</time></trkpt><trkpt lat="42.1906556" lon="12.2413039"><ele>423.0</ele><time>2026-03-28T10:30:03.048Z</time></trkpt><trkpt lat="42.1908449" lon="12.2413284"><ele>423.0</ele><time>2026-03-28T10:30:04.053Z</time></trkpt><trkpt lat="42.1910215" lon="12.2413521"><ele>422.33333333333337</ele><time>2026-03-28T10:30:05.043Z</time></trkpt><trkpt lat="42.1912098" lon="12.2413542"><ele>421.6666666666667</ele><time>2026-03-28T10:30:06.055Z</time></trkpt><trkpt lat="42.1913774" lon="12.2413776"><ele>421.0</ele><time>2026-03-28T10:30:07.046Z</time></trkpt><trkpt lat="42.1915622" lon="12.2414071"><ele>421.0</ele><time>2026-03-28T10:30:08.048Z</time></trkpt><trkpt lat="42.1917375" lon="12.2414386"><ele>421.0</ele><time>2026-03-28T10:30:09.042Z</time></trkpt><trkpt lat="42.1919344" lon="12.2414727"><ele>421.0</ele><time>2026-03-28T10:30:10.052Z</time></trkpt><trkpt lat="42.1921487" lon="12.2415048"><ele>421.0</ele><time>2026-03-28T10:30:11.045Z</time></trkpt><trkpt lat="42.1924125" lon="12.2415132"><ele>421.0</ele><time>2026-03-28T10:30:12.051Z</time></trkpt><trkpt lat="42.1926682" lon="12.2415329"><ele>421.0</ele><time>2026-03-28T10:30:13.044Z</time></trkpt><trkpt lat="42.1928993" lon="12.241557"><ele>421.0</ele><time>2026-03-28T10:30:14.058Z</time></trkpt><trkpt lat="42.1931205" lon="12.2415809"><ele>421.0</ele><time>2026-03-28T10:30:15.046Z</time></trkpt><trkpt lat="42.1933282" lon="12.241608"><ele>421.0</ele><time>2026-03-28T10:30:16.05Z</time></trkpt><trkpt lat="42.1935336" lon="12.2416331"><ele>421.0</ele><time>2026-03-28T10:30:17.049Z</time></trkpt><trkpt lat="42.1937427" lon="12.2416561"><ele>421.0</ele><time>2026-03-28T10:30:18.073Z</time></trkpt><trkpt lat="42.1939517" lon="12.2416795"><ele>421.0</ele><time>2026-03-28T10:30:19.046Z</time></trkpt><trkpt lat="42.1941415" lon="12.2417052"><ele>421.0</ele><time>2026-03-28T10:30:20.057Z</time></trkpt><trkpt lat="42.1943108" lon="12.241665"><ele>420.33333333333337</ele><time>2026-03-28T10:30:21.048Z</time></trkpt><trkpt lat="42.1944757" lon="12.2416395"><ele>419.66666666666663</ele><time>2026-03-28T10:30:22.053Z</time></trkpt><trkpt lat="42.194648" lon="12.2415665"><ele>419.0</ele><time>2026-03-28T10:30:23.048Z</time></trkpt><trkpt lat="42.1948277" lon="12.2414553"><ele>419.0</ele><time>2026-03-28T10:30:24.052Z</time></trkpt><trkpt lat="42.1950113" lon="12.2413408"><ele>419.0</ele><time>2026-03-28T10:30:25.052Z</time></trkpt><trkpt lat="42.1951802" lon="12.2412324"><ele>419.0</ele><time>2026-03-28T10:30:26.057Z</time></trkpt><trkpt lat="42.1953566" lon="12.241095"><ele>419.0</ele><time>2026-03-28T10:30:27.044Z</time></trkpt><trkpt lat="42.1955308" lon="12.2409701"><ele>419.0</ele><time>2026-03-28T10:30:28.044Z</time></trkpt><trkpt lat="42.1957137" lon="12.2408289"><ele>419.0</ele><time>2026-03-28T10:30:29.044Z</time></trkpt><trkpt lat="42.1958917" lon="12.2406876"><ele>420.5</ele><time>2026-03-28T10:30:30.062Z</time></trkpt><trkpt lat="42.1960917" lon="12.2405401"><ele>422.0</ele><time>2026-03-28T10:30:31.06Z</time></trkpt><trkpt lat="42.196299" lon="12.2403837"><ele>422.0</ele><time>2026-03-28T10:30:32.052Z</time></trkpt><trkpt lat="42.1964981" lon="12.2402335"><ele>422.0</ele><time>2026-03-28T10:30:33.051Z</time></trkpt><trkpt lat="42.1967157" lon="12.2400678"><ele>422.0</ele><time>2026-03-28T10:30:34.048Z</time></trkpt><trkpt lat="42.1969165" lon="12.2399106"><ele>422.0</ele><time>2026-03-28T10:30:35.047Z</time></trkpt><trkpt lat="42.1971079" lon="12.2397615"><ele>421.5</ele><time>2026-03-28T10:30:36.051Z</time></trkpt><trkpt lat="42.1973048" lon="12.2395979"><ele>421.0</ele><time>2026-03-28T10:30:37.058Z</time></trkpt><trkpt lat="42.1974987" lon="12.2394558"><ele>420.6666666666667</ele><time>2026-03-28T10:30:38.047Z</time></trkpt><trkpt lat="42.1976835" lon="12.2393111"><ele>420.33333333333337</ele><time>2026-03-28T10:30:39.061Z</time></trkpt><trkpt lat="42.1978483" lon="12.2391756"><ele>420.0</ele><time>2026-03-28T10:30:40.059Z</time></trkpt><trkpt lat="42.1980096" lon="12.2390372"><ele>420.66666666666663</ele><time>2026-03-28T10:30:41.046Z</time></trkpt><trkpt lat="42.1981738" lon="12.238902"><ele>421.3333333333333</ele><time>2026-03-28T10:30:42.052Z</time></trkpt><trkpt lat="42.1983686" lon="12.2387658"><ele>422.0</ele><time>2026-03-28T10:30:43.046Z</time></trkpt><trkpt lat="42.1985616" lon="12.2386223"><ele>422.0</ele><time>2026-03-28T10:30:44.051Z</time></trkpt><trkpt lat="42.1987349" lon="12.2384948"><ele>422.0</ele><time>2026-03-28T10:30:45.047Z</time></trkpt><trkpt lat="42.1989344" lon="12.2383457"><ele>422.0</ele><time>2026-03-28T10:30:46.042Z</time></trkpt><trkpt lat="42.1991539" lon="12.2382017"><ele>421.3333333333333</ele><time>2026-03-28T10:30:47.053Z</time></trkpt><trkpt lat="42.19935" lon="12.2380511"><ele>420.66666666666663</ele><time>2026-03-28T10:30:48.044Z</time></trkpt><trkpt lat="42.1995379" lon="12.2379237"><ele>420.0</ele><time>2026-03-28T10:30:49.049Z</time></trkpt><trkpt lat="42.19973" lon="12.2377878"><ele>418.33333333333337</ele><time>2026-03-28T10:30:50.046Z</time></trkpt><trkpt lat="42.1998975" lon="12.2376207"><ele>416.6666666666667</ele><time>2026-03-28T10:30:51.053Z</time></trkpt><trkpt lat="42.200072" lon="12.2374849"><ele>415.0</ele><time>2026-03-28T10:30:52.044Z</time></trkpt><trkpt lat="42.2002127" lon="12.2373652"><ele>415.0</ele><time>2026-03-28T10:30:53.052Z</time></trkpt><trkpt lat="42.2003793" lon="12.2372483"><ele>415.0</ele><time>2026-03-28T10:30:54.048Z</time></trkpt><trkpt lat="42.2005377" lon="12.2371143"><ele>415.0</ele><time>2026-03-28T10:30:55.054Z</time></trkpt><trkpt lat="42.2007099" lon="12.2369807"><ele>415.0</ele><time>2026-03-28T10:30:56.055Z</time></trkpt><trkpt lat="42.2008752" lon="12.2368685"><ele>415.0</ele><time>2026-03-28T10:30:57.051Z</time></trkpt><trkpt lat="42.201017" lon="12.2367857"><ele>415.0</ele><time>2026-03-28T10:30:58.048Z</time></trkpt><trkpt lat="42.2011719" lon="12.2367281"><ele>415.0</ele><time>2026-03-28T10:30:59.044Z</time></trkpt><trkpt lat="42.2013184" lon="12.2367153"><ele>415.0</ele><time>2026-03-28T10:31:00.042Z</time></trkpt><trkpt lat="42.2014844" lon="12.2367206"><ele>415.0</ele><time>2026-03-28T10:31:01.053Z</time></trkpt><trkpt lat="42.2016485" lon="12.2367692"><ele>413.6666666666667</ele><time>2026-03-28T10:31:02.046Z</time></trkpt><trkpt lat="42.2018004" lon="12.2368614"><ele>412.33333333333337</ele><time>2026-03-28T10:31:03.052Z</time></trkpt><trkpt lat="42.2019546" lon="12.2370016"><ele>411.0</ele><time>2026-03-28T10:31:04.044Z</time></trkpt><trkpt lat="42.202104" lon="12.2371704"><ele>410.66666666666663</ele><time>2026-03-28T10:31:05.067Z</time></trkpt><trkpt lat="42.2022808" lon="12.2373544"><ele>410.3333333333333</ele><time>2026-03-28T10:31:06.046Z</time></trkpt><trkpt lat="42.2024401" lon="12.237541"><ele>410.0</ele><time>2026-03-28T10:31:07.054Z</time></trkpt><trkpt lat="42.2025851" lon="12.2377074"><ele>408.66666666666663</ele><time>2026-03-28T10:31:08.055Z</time></trkpt><trkpt lat="42.202756" lon="12.2378312"><ele>407.33333333333337</ele><time>2026-03-28T10:31:09.05Z</time></trkpt><trkpt lat="42.2029055" lon="12.2379635"><ele>406.0</ele><time>2026-03-28T10:31:10.053Z</time></trkpt><trkpt lat="42.2029981" lon="12.2381548"><ele>406.6666666666667</ele><time>2026-03-28T10:31:11.043Z</time></trkpt><trkpt lat="42.2031024" lon="12.2383409"><ele>407.33333333333337</ele><time>2026-03-28T10:31:12.054Z</time></trkpt><trkpt lat="42.2031516" lon="12.2385946"><ele>408.0</ele><time>2026-03-28T10:31:13.049Z</time></trkpt><trkpt lat="42.2032144" lon="12.2388398"><ele>405.0</ele><time>2026-03-28T10:31:14.05Z</time></trkpt><trkpt lat="42.2032602" lon="12.2391041"><ele>402.0</ele><time>2026-03-28T10:31:15.06Z</time></trkpt><trkpt lat="42.2033127" lon="12.2393354"><ele>399.0</ele><time>2026-03-28T10:31:16.043Z</time></trkpt><trkpt lat="42.2033636" lon="12.2395641"><ele>399.0</ele><time>2026-03-28T10:31:17.048Z</time></trkpt><trkpt lat="42.2034365" lon="12.2397565"><ele>399.0</ele><time>2026-03-28T10:31:18.046Z</time></trkpt><trkpt lat="42.2035215" lon="12.2399292"><ele>399.0</ele><time>2026-03-28T10:31:19.054Z</time></trkpt><trkpt lat="42.2036501" lon="12.2400482"><ele>396.33333333333337</ele><time>2026-03-28T10:31:20.051Z</time></trkpt><trkpt lat="42.2038142" lon="12.240145"><ele>393.6666666666667</ele><time>2026-03-28T10:31:21.052Z</time></trkpt><trkpt lat="42.2039967" lon="12.2402182"><ele>391.0</ele><time>2026-03-28T10:31:22.056Z</time></trkpt><trkpt lat="42.204188" lon="12.2402828"><ele>391.0</ele><time>2026-03-28T10:31:23.056Z</time></trkpt><trkpt lat="42.2043766" lon="12.2403405"><ele>391.0</ele><time>2026-03-28T10:31:24.053Z</time></trkpt><trkpt lat="42.2045568" lon="12.2403931"><ele>391.0</ele><time>2026-03-28T10:31:25.054Z</time></trkpt><trkpt lat="42.2047546" lon="12.2404469"><ele>392.0</ele><time>2026-03-28T10:31:26.045Z</time></trkpt><trkpt lat="42.204956" lon="12.2404979"><ele>393.0</ele><time>2026-03-28T10:31:27.044Z</time></trkpt><trkpt lat="42.2051691" lon="12.2405412"><ele>394.0</ele><time>2026-03-28T10:31:28.048Z</time></trkpt><trkpt lat="42.2053844" lon="12.2405779"><ele>394.0</ele><time>2026-03-28T10:31:29.056Z</time></trkpt><trkpt lat="42.2056049" lon="12.240621"><ele>394.0</ele><time>2026-03-28T10:31:30.053Z</time></trkpt><trkpt lat="42.2058138" lon="12.2406619"><ele>394.0</ele><time>2026-03-28T10:31:31.053Z</time></trkpt><trkpt lat="42.2060287" lon="12.2407085"><ele>385.0</ele><time>2026-03-28T10:31:32.046Z</time></trkpt><trkpt lat="42.2062463" lon="12.2407359"><ele>376.0</ele><time>2026-03-28T10:31:33.048Z</time></trkpt><trkpt lat="42.2064671" lon="12.2407612"><ele>367.0</ele><time>2026-03-28T10:31:34.045Z</time></trkpt><trkpt lat="42.20667" lon="12.2407922"><ele>366.0</ele><time>2026-03-28T10:31:35.052Z</time></trkpt><trkpt lat="42.2068659" lon="12.2408373"><ele>365.0</ele><time>2026-03-28T10:31:36.059Z</time></trkpt><trkpt lat="42.2070421" lon="12.2408705"><ele>364.0</ele><time>2026-03-28T10:31:37.045Z</time></trkpt><trkpt lat="42.2072239" lon="12.2409115"><ele>362.66666666666663</ele><time>2026-03-28T10:31:38.05Z</time></trkpt><trkpt lat="42.2074181" lon="12.240951"><ele>361.3333333333333</ele><time>2026-03-28T10:31:39.047Z</time></trkpt><trkpt lat="42.207604" lon="12.2409654"><ele>360.0</ele><time>2026-03-28T10:31:40.052Z</time></trkpt><trkpt lat="42.2077913" lon="12.2409849"><ele>360.0</ele><time>2026-03-28T10:31:41.055Z</time></trkpt><trkpt lat="42.2079659" lon="12.2409973"><ele>360.0</ele><time>2026-03-28T10:31:42.046Z</time></trkpt><trkpt lat="42.2081392" lon="12.2409524"><ele>360.0</ele><time>2026-03-28T10:31:43.049Z</time></trkpt><trkpt lat="42.2082925" lon="12.2409097"><ele>358.5</ele><time>2026-03-28T10:31:44.048Z</time></trkpt><trkpt lat="42.2084464" lon="12.2408017"><ele>357.0</ele><time>2026-03-28T10:31:45.048Z</time></trkpt><trkpt lat="42.208552" lon="12.2406676"><ele>355.5</ele><time>2026-03-28T10:31:46.045Z</time></trkpt><trkpt lat="42.2086178" lon="12.2405388"><ele>354.0</ele><time>2026-03-28T10:31:47.045Z</time></trkpt><trkpt lat="42.2086294" lon="12.2403462"><ele>354.0</ele><time>2026-03-28T10:31:48.045Z</time></trkpt><trkpt lat="42.2086412" lon="12.2401384"><ele>354.0</ele><time>2026-03-28T10:31:49.044Z</time></trkpt><trkpt lat="42.2086024" lon="12.2399558"><ele>354.0</ele><time>2026-03-28T10:31:50.051Z</time></trkpt><trkpt lat="42.2085233" lon="12.2397989"><ele>354.0</ele><time>2026-03-28T10:31:51.049Z</time></trkpt><trkpt lat="42.2083978" lon="12.2396452"><ele>352.5</ele><time>2026-03-28T10:31:52.049Z</time></trkpt><trkpt lat="42.2082966" lon="12.2394931"><ele>351.0</ele><time>2026-03-28T10:31:53.043Z</time></trkpt><trkpt lat="42.208245" lon="12.2393254"><ele>349.5</ele><time>2026-03-28T10:31:54.052Z</time></trkpt><trkpt lat="42.2082287" lon="12.23917"><ele>348.0</ele><time>2026-03-28T10:31:55.052Z</time></trkpt><trkpt lat="42.2082617" lon="12.2390021"><ele>351.75</ele><time>2026-03-28T10:31:56.044Z</time></trkpt><trkpt lat="42.2083461" lon="12.2388624"><ele>355.5</ele><time>2026-03-28T10:31:57.046Z</time></trkpt><trkpt lat="42.20847" lon="12.2387501"><ele>359.25</ele><time>2026-03-28T10:31:58.065Z</time></trkpt><trkpt lat="42.208607" lon="12.2386673"><ele>363.0</ele><time>2026-03-28T10:31:59.044Z</time></trkpt><trkpt lat="42.2087506" lon="12.238657"><ele>363.0</ele><time>2026-03-28T10:32:00.049Z</time></trkpt><trkpt lat="42.2088583" lon="12.2387096"><ele>363.0</ele><time>2026-03-28T10:32:01.043Z</time></trkpt><trkpt lat="42.2089968" lon="12.2388159"><ele>363.0</ele><time>2026-03-28T10:32:02.043Z</time></trkpt><trkpt lat="42.2091201" lon="12.2389395"><ele>363.0</ele><time>2026-03-28T10:32:03.047Z</time></trkpt><trkpt lat="42.2092688" lon="12.2390924"><ele>355.0</ele><time>2026-03-28T10:32:04.048Z</time></trkpt><trkpt lat="42.2094163" lon="12.2392325"><ele>347.0</ele><time>2026-03-28T10:32:05.051Z</time></trkpt><trkpt lat="42.2095678" lon="12.2393741"><ele>339.0</ele><time>2026-03-28T10:32:06.045Z</time></trkpt><trkpt lat="42.2097042" lon="12.2395254"><ele>340.6666666666667</ele><time>2026-03-28T10:32:07.056Z</time></trkpt><trkpt lat="42.2098408" lon="12.2397053"><ele>342.33333333333337</ele><time>2026-03-28T10:32:08.043Z</time></trkpt><trkpt lat="42.2100038" lon="12.2398844"><ele>344.0</ele><time>2026-03-28T10:32:09.05Z</time></trkpt><trkpt lat="42.2101395" lon="12.2400605"><ele>338.6666666666667</ele><time>2026-03-28T10:32:10.058Z</time></trkpt><trkpt lat="42.2102973" lon="12.2402238"><ele>333.3333333333333</ele><time>2026-03-28T10:32:11.048Z</time></trkpt><trkpt lat="42.2104359" lon="12.2403932"><ele>328.0</ele><time>2026-03-28T10:32:12.047Z</time></trkpt><trkpt lat="42.2105497" lon="12.2406061"><ele>328.0</ele><time>2026-03-28T10:32:13.056Z</time></trkpt><trkpt lat="42.2106203" lon="12.2408543"><ele>328.0</ele><time>2026-03-28T10:32:14.049Z</time></trkpt><trkpt lat="42.2107061" lon="12.2411159"><ele>328.0</ele><time>2026-03-28T10:32:15.06Z</time></trkpt><trkpt lat="42.2107892" lon="12.241371"><ele>324.0</ele><time>2026-03-28T10:32:16.044Z</time></trkpt><trkpt lat="42.2108824" lon="12.2416136"><ele>320.0</ele><time>2026-03-28T10:32:17.056Z</time></trkpt><trkpt lat="42.2109842" lon="12.2418188"><ele>316.0</ele><time>2026-03-28T10:32:18.044Z</time></trkpt><trkpt lat="42.2111124" lon="12.242053"><ele>316.0</ele><time>2026-03-28T10:32:19.05Z</time></trkpt><trkpt lat="42.2112441" lon="12.2422824"><ele>316.0</ele><time>2026-03-28T10:32:20.048Z</time></trkpt><trkpt lat="42.211368" lon="12.2424812"><ele>316.0</ele><time>2026-03-28T10:32:21.051Z</time></trkpt><trkpt lat="42.2115063" lon="12.2426831"><ele>317.0</ele><time>2026-03-28T10:32:22.042Z</time></trkpt><trkpt lat="42.2116274" lon="12.2428797"><ele>318.0</ele><time>2026-03-28T10:32:23.05Z</time></trkpt><trkpt lat="42.2117759" lon="12.2430483"><ele>319.0</ele><time>2026-03-28T10:32:24.044Z</time></trkpt><trkpt lat="42.211918" lon="12.2432003"><ele>316.0</ele><time>2026-03-28T10:32:25.052Z</time></trkpt><trkpt lat="42.2120811" lon="12.2433322"><ele>313.0</ele><time>2026-03-28T10:32:26.044Z</time></trkpt><trkpt lat="42.2122668" lon="12.2434697"><ele>310.0</ele><time>2026-03-28T10:32:27.052Z</time></trkpt><trkpt lat="42.2124597" lon="12.243622"><ele>310.0</ele><time>2026-03-28T10:32:28.046Z</time></trkpt><trkpt lat="42.2126721" lon="12.2438017"><ele>310.0</ele><time>2026-03-28T10:32:29.058Z</time></trkpt><trkpt lat="42.2128919" lon="12.2439942"><ele>305.0</ele><time>2026-03-28T10:32:30.053Z</time></trkpt><trkpt lat="42.2131201" lon="12.2441964"><ele>300.0</ele><time>2026-03-28T10:32:31.048Z</time></trkpt><trkpt lat="42.2133402" lon="12.2443688"><ele>300.0</ele><time>2026-03-28T10:32:32.052Z</time></trkpt><trkpt lat="42.2135431" lon="12.2445308"><ele>300.0</ele><time>2026-03-28T10:32:33.043Z</time></trkpt><trkpt lat="42.2137406" lon="12.2446879"><ele>296.3333333333333</ele><time>2026-03-28T10:32:34.052Z</time></trkpt><trkpt lat="42.2139277" lon="12.2448274"><ele>292.66666666666663</ele><time>2026-03-28T10:32:35.051Z</time></trkpt><trkpt lat="42.2140968" lon="12.2449678"><ele>289.0</ele><time>2026-03-28T10:32:36.046Z</time></trkpt><trkpt lat="42.2142564" lon="12.2450838"><ele>289.0</ele><time>2026-03-28T10:32:37.043Z</time></trkpt><trkpt lat="42.2144188" lon="12.2451758"><ele>289.0</ele><time>2026-03-28T10:32:38.056Z</time></trkpt><trkpt lat="42.2145754" lon="12.245212"><ele>289.0</ele><time>2026-03-28T10:32:39.046Z</time></trkpt><trkpt lat="42.2147477" lon="12.2451899"><ele>287.66666666666663</ele><time>2026-03-28T10:32:40.052Z</time></trkpt><trkpt lat="42.2149303" lon="12.2451524"><ele>286.3333333333333</ele><time>2026-03-28T10:32:41.044Z</time></trkpt><trkpt lat="42.2151071" lon="12.2451156"><ele>285.0</ele><time>2026-03-28T10:32:42.052Z</time></trkpt><trkpt lat="42.215312" lon="12.2450852"><ele>285.0</ele><time>2026-03-28T10:32:43.047Z</time></trkpt><trkpt lat="42.2155424" lon="12.2450405"><ele>285.0</ele><time>2026-03-28T10:32:44.061Z</time></trkpt><trkpt lat="42.2157922" lon="12.2449953"><ele>283.0</ele><time>2026-03-28T10:32:45.052Z</time></trkpt><trkpt lat="42.216031" lon="12.2449439"><ele>281.0</ele><time>2026-03-28T10:32:46.05Z</time></trkpt><trkpt lat="42.216258" lon="12.244894"><ele>279.5</ele><time>2026-03-28T10:32:47.051Z</time></trkpt><trkpt lat="42.2164904" lon="12.2448533"><ele>278.0</ele><time>2026-03-28T10:32:48.06Z</time></trkpt><trkpt lat="42.2167177" lon="12.2447991"><ele>278.33333333333337</ele><time>2026-03-28T10:32:49.056Z</time></trkpt><trkpt lat="42.2169395" lon="12.2447572"><ele>278.6666666666667</ele><time>2026-03-28T10:32:50.053Z</time></trkpt><trkpt lat="42.2171605" lon="12.2447099"><ele>279.0</ele><time>2026-03-28T10:32:51.05Z</time></trkpt><trkpt lat="42.2173698" lon="12.2446776"><ele>277.6666666666667</ele><time>2026-03-28T10:32:52.051Z</time></trkpt><trkpt lat="42.2175593" lon="12.2446518"><ele>276.33333333333337</ele><time>2026-03-28T10:32:53.045Z</time></trkpt><trkpt lat="42.2177556" lon="12.244629"><ele>275.0</ele><time>2026-03-28T10:32:54.054Z</time></trkpt><trkpt lat="42.2179394" lon="12.2446203"><ele>275.0</ele><time>2026-03-28T10:32:55.045Z</time></trkpt><trkpt lat="42.2181144" lon="12.2446367"><ele>275.0</ele><time>2026-03-28T10:32:56.05Z</time></trkpt><trkpt lat="42.2183186" lon="12.244697"><ele>275.0</ele><time>2026-03-28T10:32:57.049Z</time></trkpt><trkpt lat="42.2185093" lon="12.2447779"><ele>274.6666666666667</ele><time>2026-03-28T10:32:58.053Z</time></trkpt><trkpt lat="42.2187029" lon="12.244879"><ele>274.3333333333333</ele><time>2026-03-28T10:32:59.048Z</time></trkpt><trkpt lat="42.2188911" lon="12.244997"><ele>274.0</ele><time>2026-03-28T10:33:00.043Z</time></trkpt><trkpt lat="42.2190837" lon="12.2451032"><ele>273.66666666666663</ele><time>2026-03-28T10:33:01.051Z</time></trkpt><trkpt lat="42.2192795" lon="12.2451946"><ele>273.3333333333333</ele><time>2026-03-28T10:33:02.051Z</time></trkpt><trkpt lat="42.2194704" lon="12.2452965"><ele>273.0</ele><time>2026-03-28T10:33:03.056Z</time></trkpt><trkpt lat="42.2196827" lon="12.245387"><ele>272.3333333333333</ele><time>2026-03-28T10:33:04.05Z</time></trkpt><trkpt lat="42.2198726" lon="12.2454855"><ele>271.66666666666663</ele><time>2026-03-28T10:33:05.051Z</time></trkpt><trkpt lat="42.2200623" lon="12.2455825"><ele>271.0</ele><time>2026-03-28T10:33:06.046Z</time></trkpt><trkpt lat="42.2202697" lon="12.2456754"><ele>270.66666666666663</ele><time>2026-03-28T10:33:07.056Z</time></trkpt><trkpt lat="42.2204827" lon="12.2457497"><ele>270.3333333333333</ele><time>2026-03-28T10:33:08.048Z</time></trkpt><trkpt lat="42.2206848" lon="12.2458226"><ele>270.0</ele><time>2026-03-28T10:33:09.062Z</time></trkpt><trkpt lat="42.2209015" lon="12.245889"><ele>269.0</ele><time>2026-03-28T10:33:10.052Z</time></trkpt><trkpt lat="42.2211265" lon="12.2459535"><ele>268.0</ele><time>2026-03-28T10:33:11.054Z</time></trkpt><trkpt lat="42.2213588" lon="12.2460003"><ele>269.0</ele><time>2026-03-28T10:33:12.046Z</time></trkpt><trkpt lat="42.2215753" lon="12.2460483"><ele>270.0</ele><time>2026-03-28T10:33:13.053Z</time></trkpt><trkpt lat="42.2217729" lon="12.2460866"><ele>271.0</ele><time>2026-03-28T10:33:14.052Z</time></trkpt><trkpt lat="42.2219697" lon="12.2461272"><ele>271.0</ele><time>2026-03-28T10:33:15.046Z</time></trkpt><trkpt lat="42.2221463" lon="12.2461582"><ele>271.0</ele><time>2026-03-28T10:33:16.046Z</time></trkpt><trkpt lat="42.2223239" lon="12.2461739"><ele>271.0</ele><time>2026-03-28T10:33:17.055Z</time></trkpt><trkpt lat="42.2224937" lon="12.246158"><ele>272.66666666666663</ele><time>2026-03-28T10:33:18.044Z</time></trkpt><trkpt lat="42.2226539" lon="12.2461084"><ele>274.3333333333333</ele><time>2026-03-28T10:33:19.046Z</time></trkpt><trkpt lat="42.2228361" lon="12.2460657"><ele>276.0</ele><time>2026-03-28T10:33:20.054Z</time></trkpt><trkpt lat="42.2230351" lon="12.2460246"><ele>275.6666666666667</ele><time>2026-03-28T10:33:21.049Z</time></trkpt><trkpt lat="42.2232434" lon="12.2459845"><ele>275.33333333333337</ele><time>2026-03-28T10:33:22.05Z</time></trkpt><trkpt lat="42.2234545" lon="12.2459594"><ele>275.0</ele><time>2026-03-28T10:33:23.046Z</time></trkpt><trkpt lat="42.2235809" lon="12.2458718"><ele>275.0</ele><time>2026-03-28T10:33:24.048Z</time></trkpt><trkpt lat="42.2237135" lon="12.2457547"><ele>275.0</ele><time>2026-03-28T10:33:25.057Z</time></trkpt><trkpt lat="42.2238236" lon="12.2456056"><ele>275.0</ele><time>2026-03-28T10:33:26.044Z</time></trkpt><trkpt lat="42.223952" lon="12.2454311"><ele>275.0</ele><time>2026-03-28T10:33:27.044Z</time></trkpt><trkpt lat="42.2240845" lon="12.2452045"><ele>275.0</ele><time>2026-03-28T10:33:28.055Z</time></trkpt><trkpt lat="42.2242054" lon="12.2449891"><ele>275.0</ele><time>2026-03-28T10:33:29.06Z</time></trkpt><trkpt lat="42.2243496" lon="12.2447744"><ele>275.0</ele><time>2026-03-28T10:33:30.048Z</time></trkpt><trkpt lat="42.224515" lon="12.2445374"><ele>275.0</ele><time>2026-03-28T10:33:31.052Z</time></trkpt><trkpt lat="42.2246738" lon="12.2443162"><ele>272.0</ele><time>2026-03-28T10:33:32.049Z</time></trkpt><trkpt lat="42.2248312" lon="12.2440918"><ele>269.0</ele><time>2026-03-28T10:33:33.054Z</time></trkpt><trkpt lat="42.2249884" lon="12.2438777"><ele>269.0</ele><time>2026-03-28T10:33:34.053Z</time></trkpt><trkpt lat="42.2251519" lon="12.2436545"><ele>269.0</ele><time>2026-03-28T10:33:35.046Z</time></trkpt><trkpt lat="42.2253162" lon="12.2434419"><ele>269.0</ele><time>2026-03-28T10:33:36.054Z</time></trkpt><trkpt lat="42.2254593" lon="12.2432319"><ele>269.0</ele><time>2026-03-28T10:33:37.047Z</time></trkpt><trkpt lat="42.2256236" lon="12.2430074"><ele>269.0</ele><time>2026-03-28T10:33:38.068Z</time></trkpt><trkpt lat="42.225777" lon="12.2427939"><ele>268.6666666666667</ele><time>2026-03-28T10:33:39.045Z</time></trkpt><trkpt lat="42.2259346" lon="12.2425841"><ele>268.3333333333333</ele><time>2026-03-28T10:33:40.059Z</time></trkpt><trkpt lat="42.2260774" lon="12.2423816"><ele>268.0</ele><time>2026-03-28T10:33:41.046Z</time></trkpt><trkpt lat="42.2262151" lon="12.2421737"><ele>267.66666666666663</ele><time>2026-03-28T10:33:42.051Z</time></trkpt><trkpt lat="42.226348" lon="12.2419643"><ele>267.3333333333333</ele><time>2026-03-28T10:33:43.045Z</time></trkpt><trkpt lat="42.2264624" lon="12.2417309"><ele>267.0</ele><time>2026-03-28T10:33:44.045Z</time></trkpt><trkpt lat="42.2265604" lon="12.2414946"><ele>267.6666666666667</ele><time>2026-03-28T10:33:45.052Z</time></trkpt><trkpt lat="42.2266443" lon="12.241245"><ele>268.33333333333337</ele><time>2026-03-28T10:33:46.049Z</time></trkpt><trkpt lat="42.2267259" lon="12.2409809"><ele>269.0</ele><time>2026-03-28T10:33:47.054Z</time></trkpt><trkpt lat="42.2268129" lon="12.2407069"><ele>269.0</ele><time>2026-03-28T10:33:48.056Z</time></trkpt><trkpt lat="42.2269017" lon="12.2404458"><ele>269.0</ele><time>2026-03-28T10:33:49.062Z</time></trkpt><trkpt lat="42.227014" lon="12.2402159"><ele>269.0</ele><time>2026-03-28T10:33:50.048Z</time></trkpt><trkpt lat="42.2271198" lon="12.2399962"><ele>269.33333333333337</ele><time>2026-03-28T10:33:51.044Z</time></trkpt><trkpt lat="42.2272203" lon="12.2397842"><ele>269.6666666666667</ele><time>2026-03-28T10:33:52.048Z</time></trkpt><trkpt lat="42.2273373" lon="12.2395776"><ele>270.0</ele><time>2026-03-28T10:33:53.05Z</time></trkpt><trkpt lat="42.2274734" lon="12.2393573"><ele>271.6666666666667</ele><time>2026-03-28T10:33:54.052Z</time></trkpt><trkpt lat="42.2276072" lon="12.2391574"><ele>273.33333333333337</ele><time>2026-03-28T10:33:55.051Z</time></trkpt><trkpt lat="42.2277674" lon="12.2389415"><ele>275.0</ele><time>2026-03-28T10:33:56.052Z</time></trkpt><trkpt lat="42.2278908" lon="12.2387598"><ele>275.0</ele><time>2026-03-28T10:33:57.051Z</time></trkpt><trkpt lat="42.2280409" lon="12.2385691"><ele>275.0</ele><time>2026-03-28T10:33:58.047Z</time></trkpt><trkpt lat="42.2281756" lon="12.2383976"><ele>275.0</ele><time>2026-03-28T10:33:59.044Z</time></trkpt><trkpt lat="42.2283237" lon="12.2382349"><ele>276.0</ele><time>2026-03-28T10:34:00.045Z</time></trkpt><trkpt lat="42.2284708" lon="12.2381014"><ele>277.0</ele><time>2026-03-28T10:34:01.048Z</time></trkpt><trkpt lat="42.2286354" lon="12.2380075"><ele>278.0</ele><time>2026-03-28T10:34:02.043Z</time></trkpt><trkpt lat="42.2288149" lon="12.237926"><ele>279.33333333333337</ele><time>2026-03-28T10:34:03.049Z</time></trkpt><trkpt lat="42.2289942" lon="12.2378218"><ele>280.6666666666667</ele><time>2026-03-28T10:34:04.047Z</time></trkpt><trkpt lat="42.2291867" lon="12.237744"><ele>282.0</ele><time>2026-03-28T10:34:05.047Z</time></trkpt><trkpt lat="42.2293817" lon="12.2376468"><ele>282.0</ele><time>2026-03-28T10:34:06.058Z</time></trkpt><trkpt lat="42.2295459" lon="12.2375729"><ele>282.0</ele><time>2026-03-28T10:34:07.049Z</time></trkpt><trkpt lat="42.2296956" lon="12.237507"><ele>282.0</ele><time>2026-03-28T10:34:08.051Z</time></trkpt><trkpt lat="42.2298493" lon="12.2374641"><ele>282.6666666666667</ele><time>2026-03-28T10:34:09.044Z</time></trkpt><trkpt lat="42.2300102" lon="12.2374395"><ele>283.33333333333337</ele><time>2026-03-28T10:34:10.046Z</time></trkpt><trkpt lat="42.2301722" lon="12.2374446"><ele>284.0</ele><time>2026-03-28T10:34:11.05Z</time></trkpt><trkpt lat="42.2303566" lon="12.2374777"><ele>284.0</ele><time>2026-03-28T10:34:12.045Z</time></trkpt><trkpt lat="42.230539" lon="12.2374966"><ele>284.0</ele><time>2026-03-28T10:34:13.04Z</time></trkpt><trkpt lat="42.230687" lon="12.2375082"><ele>284.0</ele><time>2026-03-28T10:34:14.049Z</time></trkpt><trkpt lat="42.2308301" lon="12.2375495"><ele>283.0</ele><time>2026-03-28T10:34:15.048Z</time></trkpt><trkpt lat="42.230988" lon="12.2376073"><ele>282.0</ele><time>2026-03-28T10:34:16.051Z</time></trkpt><trkpt lat="42.2311453" lon="12.2376901"><ele>281.0</ele><time>2026-03-28T10:34:17.047Z</time></trkpt><trkpt lat="42.2313111" lon="12.2378278"><ele>281.0</ele><time>2026-03-28T10:34:18.044Z</time></trkpt><trkpt lat="42.2314606" lon="12.2380009"><ele>281.0</ele><time>2026-03-28T10:34:19.046Z</time></trkpt><trkpt lat="42.2315983" lon="12.2381533"><ele>281.0</ele><time>2026-03-28T10:34:20.044Z</time></trkpt><trkpt lat="42.2317631" lon="12.2382427"><ele>278.0</ele><time>2026-03-28T10:34:21.043Z</time></trkpt><trkpt lat="42.2319315" lon="12.2382951"><ele>275.0</ele><time>2026-03-28T10:34:22.048Z</time></trkpt><trkpt lat="42.2321331" lon="12.2383329"><ele>272.0</ele><time>2026-03-28T10:34:23.044Z</time></trkpt><trkpt lat="42.2322818" lon="12.2383716"><ele>270.5</ele><time>2026-03-28T10:34:24.05Z</time></trkpt><trkpt lat="42.2324207" lon="12.2383879"><ele>269.0</ele><time>2026-03-28T10:34:25.043Z</time></trkpt><trkpt lat="42.2325693" lon="12.238376"><ele>267.5</ele><time>2026-03-28T10:34:26.044Z</time></trkpt><trkpt lat="42.2327009" lon="12.2383351"><ele>266.0</ele><time>2026-03-28T10:34:27.048Z</time></trkpt><trkpt lat="42.2328234" lon="12.238304"><ele>266.0</ele><time>2026-03-28T10:34:28.061Z</time></trkpt><trkpt lat="42.2329313" lon="12.2383071"><ele>266.0</ele><time>2026-03-28T10:34:29.061Z</time></trkpt><trkpt lat="42.2330213" lon="12.2383179"><ele>266.0</ele><time>2026-03-28T10:34:30.048Z</time></trkpt><trkpt lat="42.2331296" lon="12.2383141"><ele>266.0</ele><time>2026-03-28T10:34:32.047Z</time></trkpt><trkpt lat="42.2331972" lon="12.238304"><ele>266.0</ele><time>2026-03-28T10:34:51.051Z</time></trkpt><trkpt lat="42.2332755" lon="12.2381651"><ele>267.0</ele><time>2026-03-28T10:34:53.051Z</time></trkpt><trkpt lat="42.2333119" lon="12.2379651"><ele>268.0</ele><time>2026-03-28T10:34:54.048Z</time></trkpt><trkpt lat="42.2333512" lon="12.2377015"><ele>269.0</ele><time>2026-03-28T10:34:55.05Z</time></trkpt><trkpt lat="42.2334105" lon="12.2374258"><ele>270.25</ele><time>2026-03-28T10:34:56.054Z</time></trkpt><trkpt lat="42.233461" lon="12.2372683"><ele>271.5</ele><time>2026-03-28T10:34:57.053Z</time></trkpt><trkpt lat="42.2335176" lon="12.2371229"><ele>272.75</ele><time>2026-03-28T10:34:58.05Z</time></trkpt><trkpt lat="42.2335527" lon="12.2369685"><ele>274.0</ele><time>2026-03-28T10:34:59.044Z</time></trkpt><trkpt lat="42.233603" lon="12.2368092"><ele>274.0</ele><time>2026-03-28T10:35:00.047Z</time></trkpt><trkpt lat="42.2336788" lon="12.2366461"><ele>274.0</ele><time>2026-03-28T10:35:01.05Z</time></trkpt><trkpt lat="42.2337551" lon="12.236495"><ele>274.0</ele><time>2026-03-28T10:35:02.049Z</time></trkpt><trkpt lat="42.2338234" lon="12.2363467"><ele>274.0</ele><time>2026-03-28T10:35:03.049Z</time></trkpt><trkpt lat="42.2338992" lon="12.2361852"><ele>273.75</ele><time>2026-03-28T10:35:04.047Z</time></trkpt><trkpt lat="42.2339682" lon="12.236042"><ele>273.5</ele><time>2026-03-28T10:35:05.054Z</time></trkpt><trkpt lat="42.2340265" lon="12.2358779"><ele>273.25</ele><time>2026-03-28T10:35:06.047Z</time></trkpt><trkpt lat="42.2341032" lon="12.2356975"><ele>273.0</ele><time>2026-03-28T10:35:07.049Z</time></trkpt><trkpt lat="42.234205" lon="12.2354588"><ele>274.5</ele><time>2026-03-28T10:35:08.052Z</time></trkpt><trkpt lat="42.2343182" lon="12.2352145"><ele>276.0</ele><time>2026-03-28T10:35:09.056Z</time></trkpt><trkpt lat="42.234446" lon="12.2349211"><ele>276.0</ele><time>2026-03-28T10:35:10.049Z</time></trkpt><trkpt lat="42.2345896" lon="12.2345981"><ele>276.0</ele><time>2026-03-28T10:35:11.052Z</time></trkpt><trkpt lat="42.2347219" lon="12.2343289"><ele>276.0</ele><time>2026-03-28T10:35:12.045Z</time></trkpt><trkpt lat="42.2348113" lon="12.2340989"><ele>276.0</ele><time>2026-03-28T10:35:13.054Z</time></trkpt><trkpt lat="42.2349003" lon="12.2338642"><ele>276.0</ele><time>2026-03-28T10:35:14.045Z</time></trkpt><trkpt lat="42.2350152" lon="12.2336039"><ele>276.0</ele><time>2026-03-28T10:35:15.052Z</time></trkpt><trkpt lat="42.2351435" lon="12.2333792"><ele>276.0</ele><time>2026-03-28T10:35:16.045Z</time></trkpt><trkpt lat="42.23526" lon="12.2331851"><ele>276.0</ele><time>2026-03-28T10:35:17.049Z</time></trkpt><trkpt lat="42.2354064" lon="12.2330505"><ele>276.25</ele><time>2026-03-28T10:35:18.055Z</time></trkpt><trkpt lat="42.2355342" lon="12.2329267"><ele>276.5</ele><time>2026-03-28T10:35:19.05Z</time></trkpt><trkpt lat="42.2356507" lon="12.232846"><ele>276.75</ele><time>2026-03-28T10:35:20.044Z</time></trkpt><trkpt lat="42.2357632" lon="12.2327893"><ele>277.0</ele><time>2026-03-28T10:35:21.049Z</time></trkpt><trkpt lat="42.2359086" lon="12.2326744"><ele>278.0</ele><time>2026-03-28T10:35:22.054Z</time></trkpt><trkpt lat="42.2360616" lon="12.232534"><ele>279.0</ele><time>2026-03-28T10:35:23.048Z</time></trkpt><trkpt lat="42.2361982" lon="12.2323747"><ele>280.0</ele><time>2026-03-28T10:35:24.047Z</time></trkpt><trkpt lat="42.2363635" lon="12.2322598"><ele>281.0</ele><time>2026-03-28T10:35:25.052Z</time></trkpt><trkpt lat="42.2365501" lon="12.2321983"><ele>282.0</ele><time>2026-03-28T10:35:26.046Z</time></trkpt><trkpt lat="42.2367504" lon="12.2321693"><ele>283.0</ele><time>2026-03-28T10:35:27.047Z</time></trkpt><trkpt lat="42.236901" lon="12.232112"><ele>283.0</ele><time>2026-03-28T10:35:28.045Z</time></trkpt><trkpt lat="42.2370679" lon="12.2320481"><ele>283.0</ele><time>2026-03-28T10:35:29.056Z</time></trkpt><trkpt lat="42.2371972" lon="12.2319733"><ele>283.0</ele><time>2026-03-28T10:35:30.048Z</time></trkpt><trkpt lat="42.2373399" lon="12.2318868"><ele>279.66666666666663</ele><time>2026-03-28T10:35:31.05Z</time></trkpt><trkpt lat="42.2374884" lon="12.2318031"><ele>276.3333333333333</ele><time>2026-03-28T10:35:32.051Z</time></trkpt><trkpt lat="42.2376276" lon="12.231697"><ele>273.0</ele><time>2026-03-28T10:35:33.048Z</time></trkpt><trkpt lat="42.2377505" lon="12.2315826"><ele>271.75</ele><time>2026-03-28T10:35:34.05Z</time></trkpt><trkpt lat="42.2378722" lon="12.2314568"><ele>270.5</ele><time>2026-03-28T10:35:35.048Z</time></trkpt><trkpt lat="42.2379967" lon="12.2313343"><ele>269.25</ele><time>2026-03-28T10:35:36.057Z</time></trkpt><trkpt lat="42.2381089" lon="12.2312204"><ele>268.0</ele><time>2026-03-28T10:35:37.056Z</time></trkpt><trkpt lat="42.2382162" lon="12.2310957"><ele>268.0</ele><time>2026-03-28T10:35:38.047Z</time></trkpt><trkpt lat="42.2383588" lon="12.230979"><ele>268.0</ele><time>2026-03-28T10:35:39.054Z</time></trkpt><trkpt lat="42.2384562" lon="12.2308858"><ele>268.0</ele><time>2026-03-28T10:35:40.042Z</time></trkpt><trkpt lat="42.2385227" lon="12.2308058"><ele>268.0</ele><time>2026-03-28T10:35:41.052Z</time></trkpt><trkpt lat="42.2386088" lon="12.2307194"><ele>267.8</ele><time>2026-03-28T10:35:42.052Z</time></trkpt><trkpt lat="42.2387004" lon="12.2306249"><ele>267.6</ele><time>2026-03-28T10:35:43.049Z</time></trkpt><trkpt lat="42.238785" lon="12.2305321"><ele>267.4</ele><time>2026-03-28T10:35:44.051Z</time></trkpt><trkpt lat="42.2388635" lon="12.2304476"><ele>267.2</ele><time>2026-03-28T10:35:45.053Z</time></trkpt><trkpt lat="42.2389435" lon="12.2303565"><ele>267.0</ele><time>2026-03-28T10:35:46.052Z</time></trkpt><trkpt lat="42.2390426" lon="12.2302533"><ele>267.0</ele><time>2026-03-28T10:35:47.052Z</time></trkpt><trkpt lat="42.2391391" lon="12.2301446"><ele>267.0</ele><time>2026-03-28T10:35:48.049Z</time></trkpt><trkpt lat="42.2392263" lon="12.2300486"><ele>267.0</ele><time>2026-03-28T10:35:49.054Z</time></trkpt><trkpt lat="42.2393169" lon="12.2299521"><ele>267.0</ele><time>2026-03-28T10:35:50.054Z</time></trkpt><trkpt lat="42.2394061" lon="12.2298629"><ele>266.8</ele><time>2026-03-28T10:35:51.053Z</time></trkpt><trkpt lat="42.2394921" lon="12.2297761"><ele>266.6</ele><time>2026-03-28T10:35:52.048Z</time></trkpt><trkpt lat="42.2395742" lon="12.2296891"><ele>266.40000000000003</ele><time>2026-03-28T10:35:53.048Z</time></trkpt><trkpt lat="42.2396641" lon="12.2295995"><ele>266.2</ele><time>2026-03-28T10:35:54.056Z</time></trkpt><trkpt lat="42.2397555" lon="12.2295052"><ele>266.0</ele><time>2026-03-28T10:35:55.051Z</time></trkpt><trkpt lat="42.2398378" lon="12.2294105"><ele>266.0</ele><time>2026-03-28T10:35:56.051Z</time></trkpt><trkpt lat="42.239914" lon="12.2293153"><ele>266.0</ele><time>2026-03-28T10:35:57.05Z</time></trkpt><trkpt lat="42.2399856" lon="12.229221"><ele>266.0</ele><time>2026-03-28T10:35:58.047Z</time></trkpt><trkpt lat="42.2400713" lon="12.2291009"><ele>266.0</ele><time>2026-03-28T10:35:59.055Z</time></trkpt><trkpt lat="42.2401659" lon="12.2289835"><ele>267.6</ele><time>2026-03-28T10:36:00.049Z</time></trkpt><trkpt lat="42.2402429" lon="12.2288763"><ele>269.20000000000005</ele><time>2026-03-28T10:36:01.064Z</time></trkpt><trkpt lat="42.2403033" lon="12.2287541"><ele>270.79999999999995</ele><time>2026-03-28T10:36:02.052Z</time></trkpt><trkpt lat="42.2403481" lon="12.2286272"><ele>272.4</ele><time>2026-03-28T10:36:03.054Z</time></trkpt><trkpt lat="42.2403803" lon="12.2284911"><ele>274.0</ele><time>2026-03-28T10:36:04.05Z</time></trkpt><trkpt lat="42.2404007" lon="12.2283527"><ele>274.0</ele><time>2026-03-28T10:36:05.052Z</time></trkpt><trkpt lat="42.2404125" lon="12.228216"><ele>274.0</ele><time>2026-03-28T10:36:06.058Z</time></trkpt><trkpt lat="42.2404331" lon="12.2280754"><ele>274.0</ele><time>2026-03-28T10:36:07.049Z</time></trkpt><trkpt lat="42.2404493" lon="12.2279343"><ele>274.0</ele><time>2026-03-28T10:36:08.061Z</time></trkpt><trkpt lat="42.240462" lon="12.2277964"><ele>274.0</ele><time>2026-03-28T10:36:09.06Z</time></trkpt><trkpt lat="42.2404694" lon="12.2276526"><ele>274.5</ele><time>2026-03-28T10:36:10.045Z</time></trkpt><trkpt lat="42.2404838" lon="12.2275055"><ele>275.0</ele><time>2026-03-28T10:36:11.051Z</time></trkpt><trkpt lat="42.2404967" lon="12.2273494"><ele>275.5</ele><time>2026-03-28T10:36:12.046Z</time></trkpt><trkpt lat="42.2405181" lon="12.2271978"><ele>276.0</ele><time>2026-03-28T10:36:13.049Z</time></trkpt><trkpt lat="42.2405421" lon="12.2270462"><ele>276.0</ele><time>2026-03-28T10:36:14.047Z</time></trkpt><trkpt lat="42.2405625" lon="12.2268866"><ele>276.0</ele><time>2026-03-28T10:36:15.048Z</time></trkpt><trkpt lat="42.2405686" lon="12.2267285"><ele>276.0</ele><time>2026-03-28T10:36:16.051Z</time></trkpt><trkpt lat="42.2405802" lon="12.2265691"><ele>276.0</ele><time>2026-03-28T10:36:17.049Z</time></trkpt><trkpt lat="42.2406015" lon="12.226412"><ele>275.25</ele><time>2026-03-28T10:36:18.054Z</time></trkpt><trkpt lat="42.2406236" lon="12.226243"><ele>274.5</ele><time>2026-03-28T10:36:19.052Z</time></trkpt><trkpt lat="42.2406405" lon="12.2260747"><ele>273.75</ele><time>2026-03-28T10:36:20.049Z</time></trkpt><trkpt lat="42.240653" lon="12.2259108"><ele>273.0</ele><time>2026-03-28T10:36:21.05Z</time></trkpt><trkpt lat="42.2406441" lon="12.2257469"><ele>271.75</ele><time>2026-03-28T10:36:22.043Z</time></trkpt><trkpt lat="42.2406116" lon="12.2255908"><ele>270.5</ele><time>2026-03-28T10:36:23.043Z</time></trkpt><trkpt lat="42.2405823" lon="12.2254251"><ele>269.25</ele><time>2026-03-28T10:36:24.044Z</time></trkpt><trkpt lat="42.2405525" lon="12.2252715"><ele>268.0</ele><time>2026-03-28T10:36:25.058Z</time></trkpt><trkpt lat="42.2405248" lon="12.2251302"><ele>268.0</ele><time>2026-03-28T10:36:26.046Z</time></trkpt><trkpt lat="42.2405091" lon="12.2249943"><ele>268.0</ele><time>2026-03-28T10:36:27.045Z</time></trkpt><trkpt lat="42.24052" lon="12.2248585"><ele>268.0</ele><time>2026-03-28T10:36:28.048Z</time></trkpt><trkpt lat="42.2405641" lon="12.2247264"><ele>268.0</ele><time>2026-03-28T10:36:29.047Z</time></trkpt><trkpt lat="42.2406287" lon="12.2246062"><ele>268.0</ele><time>2026-03-28T10:36:30.045Z</time></trkpt><trkpt lat="42.2406868" lon="12.2244745"><ele>268.8333333333333</ele><time>2026-03-28T10:36:31.047Z</time></trkpt><trkpt lat="42.2407388" lon="12.2243481"><ele>269.66666666666663</ele><time>2026-03-28T10:36:32.048Z</time></trkpt><trkpt lat="42.2407835" lon="12.2242333"><ele>270.5</ele><time>2026-03-28T10:36:33.05Z</time></trkpt><trkpt lat="42.2408204" lon="12.2241359"><ele>271.3333333333333</ele><time>2026-03-28T10:36:34.046Z</time></trkpt><trkpt lat="42.2408644" lon="12.2240477"><ele>272.1666666666667</ele><time>2026-03-28T10:36:35.046Z</time></trkpt><trkpt lat="42.2408986" lon="12.2239445"><ele>273.0</ele><time>2026-03-28T10:36:36.05Z</time></trkpt><trkpt lat="42.2409356" lon="12.2238278"><ele>273.0</ele><time>2026-03-28T10:36:37.043Z</time></trkpt><trkpt lat="42.2409703" lon="12.2237037"><ele>273.0</ele><time>2026-03-28T10:36:38.045Z</time></trkpt><trkpt lat="42.2410124" lon="12.2235633"><ele>273.0</ele><time>2026-03-28T10:36:39.045Z</time></trkpt><trkpt lat="42.2410608" lon="12.2234218"><ele>273.0</ele><time>2026-03-28T10:36:40.048Z</time></trkpt><trkpt lat="42.2411079" lon="12.2233011"><ele>273.0</ele><time>2026-03-28T10:36:41.046Z</time></trkpt><trkpt lat="42.2411376" lon="12.2231948"><ele>272.2</ele><time>2026-03-28T10:36:42.045Z</time></trkpt><trkpt lat="42.2411768" lon="12.2230911"><ele>271.4</ele><time>2026-03-28T10:36:43.054Z</time></trkpt><trkpt lat="42.2412205" lon="12.2229893"><ele>270.59999999999997</ele><time>2026-03-28T10:36:44.049Z</time></trkpt><trkpt lat="42.24127" lon="12.2228926"><ele>269.8</ele><time>2026-03-28T10:36:45.045Z</time></trkpt><trkpt lat="42.2413361" lon="12.2227819"><ele>269.0</ele><time>2026-03-28T10:36:46.045Z</time></trkpt><trkpt lat="42.2414103" lon="12.2226654"><ele>270.5</ele><time>2026-03-28T10:36:47.049Z</time></trkpt><trkpt lat="42.241496" lon="12.2225499"><ele>272.0</ele><time>2026-03-28T10:36:48.046Z</time></trkpt><trkpt lat="42.2415898" lon="12.2224559"><ele>273.5</ele><time>2026-03-28T10:36:49.045Z</time></trkpt><trkpt lat="42.2416861" lon="12.2223625"><ele>275.0</ele><time>2026-03-28T10:36:50.045Z</time></trkpt><trkpt lat="42.2417675" lon="12.2222603"><ele>275.0</ele><time>2026-03-28T10:36:51.049Z</time></trkpt><trkpt lat="42.2418334" lon="12.2221694"><ele>275.0</ele><time>2026-03-28T10:36:52.049Z</time></trkpt><trkpt lat="42.2418975" lon="12.2220876"><ele>275.0</ele><time>2026-03-28T10:36:53.045Z</time></trkpt><trkpt lat="42.2419473" lon="12.2220143"><ele>275.0</ele><time>2026-03-28T10:36:54.048Z</time></trkpt><trkpt lat="42.2420033" lon="12.2219399"><ele>275.0</ele><time>2026-03-28T10:36:55.046Z</time></trkpt><trkpt lat="42.2420587" lon="12.2218663"><ele>275.0</ele><time>2026-03-28T10:36:56.059Z</time></trkpt><trkpt lat="42.2421189" lon="12.2217775"><ele>275.0</ele><time>2026-03-28T10:36:57.045Z</time></trkpt><trkpt lat="42.2421634" lon="12.2216812"><ele>275.0</ele><time>2026-03-28T10:36:58.063Z</time></trkpt><trkpt lat="42.2422008" lon="12.2215761"><ele>275.0</ele><time>2026-03-28T10:36:59.052Z</time></trkpt><trkpt lat="42.2422357" lon="12.2214488"><ele>275.0</ele><time>2026-03-28T10:37:00.046Z</time></trkpt><trkpt lat="42.2422726" lon="12.2213266"><ele>275.0</ele><time>2026-03-28T10:37:01.047Z</time></trkpt><trkpt lat="42.2423039" lon="12.22119"><ele>277.1666666666667</ele><time>2026-03-28T10:37:02.046Z</time></trkpt><trkpt lat="42.2423271" lon="12.2210485"><ele>279.33333333333337</ele><time>2026-03-28T10:37:03.055Z</time></trkpt><trkpt lat="42.2423526" lon="12.220912"><ele>281.5</ele><time>2026-03-28T10:37:04.048Z</time></trkpt><trkpt lat="42.2423639" lon="12.2207965"><ele>283.6666666666667</ele><time>2026-03-28T10:37:05.056Z</time></trkpt><trkpt lat="42.2423728" lon="12.2206931"><ele>285.8333333333333</ele><time>2026-03-28T10:37:06.049Z</time></trkpt><trkpt lat="42.242395" lon="12.220599"><ele>288.0</ele><time>2026-03-28T10:37:07.046Z</time></trkpt><trkpt lat="42.2424142" lon="12.2205079"><ele>288.0</ele><time>2026-03-28T10:37:08.05Z</time></trkpt><trkpt lat="42.2424473" lon="12.2203463"><ele>288.0</ele><time>2026-03-28T10:37:10.047Z</time></trkpt><trkpt lat="42.2424657" lon="12.2202441"><ele>288.0</ele><time>2026-03-28T10:37:11.053Z</time></trkpt><trkpt lat="42.2424893" lon="12.2201314"><ele>288.0</ele><time>2026-03-28T10:37:12.044Z</time></trkpt><trkpt lat="42.2425057" lon="12.2200119"><ele>288.0</ele><time>2026-03-28T10:37:13.059Z</time></trkpt><trkpt lat="42.2425387" lon="12.2198854"><ele>286.2</ele><time>2026-03-28T10:37:14.049Z</time></trkpt><trkpt lat="42.242568" lon="12.2197521"><ele>284.4</ele><time>2026-03-28T10:37:15.049Z</time></trkpt><trkpt lat="42.2426077" lon="12.2196351"><ele>282.59999999999997</ele><time>2026-03-28T10:37:16.047Z</time></trkpt><trkpt lat="42.2426641" lon="12.2195311"><ele>280.8</ele><time>2026-03-28T10:37:17.043Z</time></trkpt><trkpt lat="42.2427262" lon="12.2194235"><ele>279.0</ele><time>2026-03-28T10:37:18.045Z</time></trkpt><trkpt lat="42.2428154" lon="12.2193217"><ele>279.0</ele><time>2026-03-28T10:37:19.044Z</time></trkpt><trkpt lat="42.2429109" lon="12.219238"><ele>279.0</ele><time>2026-03-28T10:37:20.047Z</time></trkpt><trkpt lat="42.2430097" lon="12.2191651"><ele>279.0</ele><time>2026-03-28T10:37:21.048Z</time></trkpt><trkpt lat="42.2431197" lon="12.2190878"><ele>279.0</ele><time>2026-03-28T10:37:22.047Z</time></trkpt><trkpt lat="42.2432314" lon="12.2190078"><ele>281.5</ele><time>2026-03-28T10:37:23.05Z</time></trkpt><trkpt lat="42.2433497" lon="12.21893"><ele>284.0</ele><time>2026-03-28T10:37:24.052Z</time></trkpt><trkpt lat="42.2434614" lon="12.2188533"><ele>286.5</ele><time>2026-03-28T10:37:25.049Z</time></trkpt><trkpt lat="42.2435638" lon="12.2187796"><ele>289.0</ele><time>2026-03-28T10:37:26.046Z</time></trkpt><trkpt lat="42.2436619" lon="12.2186869"><ele>289.0</ele><time>2026-03-28T10:37:27.046Z</time></trkpt><trkpt lat="42.2437722" lon="12.2186116"><ele>289.0</ele><time>2026-03-28T10:37:28.041Z</time></trkpt><trkpt lat="42.2438699" lon="12.2185632"><ele>289.0</ele><time>2026-03-28T10:37:29.057Z</time></trkpt><trkpt lat="42.243973" lon="12.2184959"><ele>289.0</ele><time>2026-03-28T10:37:30.049Z</time></trkpt><trkpt lat="42.2440728" lon="12.2184162"><ele>291.25</ele><time>2026-03-28T10:37:31.06Z</time></trkpt><trkpt lat="42.2441808" lon="12.2183467"><ele>293.5</ele><time>2026-03-28T10:37:32.044Z</time></trkpt><trkpt lat="42.2442916" lon="12.2182823"><ele>295.75</ele><time>2026-03-28T10:37:33.06Z</time></trkpt><trkpt lat="42.2443998" lon="12.2182261"><ele>298.0</ele><time>2026-03-28T10:37:34.046Z</time></trkpt><trkpt lat="42.2444964" lon="12.2181616"><ele>298.2</ele><time>2026-03-28T10:37:35.054Z</time></trkpt><trkpt lat="42.2445924" lon="12.218096"><ele>298.4</ele><time>2026-03-28T10:37:36.044Z</time></trkpt><trkpt lat="42.2446844" lon="12.2180272"><ele>298.59999999999997</ele><time>2026-03-28T10:37:37.047Z</time></trkpt><trkpt lat="42.2447736" lon="12.2179479"><ele>298.8</ele><time>2026-03-28T10:37:38.045Z</time></trkpt><trkpt lat="42.2448593" lon="12.2178586"><ele>299.0</ele><time>2026-03-28T10:37:39.046Z</time></trkpt><trkpt lat="42.2449295" lon="12.217758"><ele>300.0</ele><time>2026-03-28T10:37:40.052Z</time></trkpt><trkpt lat="42.2449876" lon="12.2176474"><ele>301.0</ele><time>2026-03-28T10:37:41.047Z</time></trkpt><trkpt lat="42.2450382" lon="12.217525"><ele>302.0</ele><time>2026-03-28T10:37:42.046Z</time></trkpt><trkpt lat="42.245085" lon="12.2174083"><ele>303.0</ele><time>2026-03-28T10:37:43.056Z</time></trkpt><trkpt lat="42.2451129" lon="12.2172829"><ele>304.0</ele><time>2026-03-28T10:37:44.044Z</time></trkpt><trkpt lat="42.2451459" lon="12.2171496"><ele>304.8</ele><time>2026-03-28T10:37:45.046Z</time></trkpt><trkpt lat="42.2451796" lon="12.2170212"><ele>305.59999999999997</ele><time>2026-03-28T10:37:46.05Z</time></trkpt><trkpt lat="42.2452155" lon="12.2168994"><ele>306.4</ele><time>2026-03-28T10:37:47.053Z</time></trkpt><trkpt lat="42.2452533" lon="12.2167804"><ele>307.2</ele><time>2026-03-28T10:37:48.066Z</time></trkpt><trkpt lat="42.2452885" lon="12.2166734"><ele>308.0</ele><time>2026-03-28T10:37:49.05Z</time></trkpt><trkpt lat="42.2453135" lon="12.2165846"><ele>308.0</ele><time>2026-03-28T10:37:50.051Z</time></trkpt><trkpt lat="42.2453378" lon="12.2165026"><ele>308.0</ele><time>2026-03-28T10:37:51.044Z</time></trkpt><trkpt lat="42.245373" lon="12.2163428"><ele>308.0</ele><time>2026-03-28T10:37:53.046Z</time></trkpt><trkpt lat="42.2454054" lon="12.2162432"><ele>308.0</ele><time>2026-03-28T10:37:54.052Z</time></trkpt><trkpt lat="42.2454346" lon="12.2161357"><ele>308.0</ele><time>2026-03-28T10:37:55.045Z</time></trkpt><trkpt lat="42.2454583" lon="12.2160334"><ele>308.0</ele><time>2026-03-28T10:37:56.05Z</time></trkpt><trkpt lat="42.2454944" lon="12.2159422"><ele>308.14285714285717</ele><time>2026-03-28T10:37:57.046Z</time></trkpt><trkpt lat="42.2455306" lon="12.215848"><ele>308.2857142857143</ele><time>2026-03-28T10:37:58.048Z</time></trkpt><trkpt lat="42.2455591" lon="12.2157568"><ele>308.42857142857144</ele><time>2026-03-28T10:37:59.046Z</time></trkpt><trkpt lat="42.2455946" lon="12.2156547"><ele>308.57142857142856</ele><time>2026-03-28T10:38:00.044Z</time></trkpt><trkpt lat="42.2456268" lon="12.2155645"><ele>308.7142857142857</ele><time>2026-03-28T10:38:01.048Z</time></trkpt><trkpt lat="42.245643" lon="12.2154815"><ele>308.8571428571429</ele><time>2026-03-28T10:38:02.05Z</time></trkpt><trkpt lat="42.2456648" lon="12.2153982"><ele>309.0</ele><time>2026-03-28T10:38:03.045Z</time></trkpt><trkpt lat="42.2456897" lon="12.2153193"><ele>309.3333333333333</ele><time>2026-03-28T10:38:04.055Z</time></trkpt><trkpt lat="42.2457238" lon="12.2152064"><ele>309.6666666666667</ele><time>2026-03-28T10:38:06.051Z</time></trkpt><trkpt lat="42.2457462" lon="12.2151145"><ele>310.0</ele><time>2026-03-28T10:38:08.053Z</time></trkpt><trkpt lat="42.2458263" lon="12.2150308"><ele>310.33333333333337</ele><time>2026-03-28T10:38:11.05Z</time></trkpt><trkpt lat="42.2458899" lon="12.2150378"><ele>310.6666666666667</ele><time>2026-03-28T10:38:12.045Z</time></trkpt><trkpt lat="42.2459637" lon="12.2150682"><ele>311.0</ele><time>2026-03-28T10:38:13.048Z</time></trkpt><trkpt lat="42.2460419" lon="12.2151095"><ele>311.0</ele><time>2026-03-28T10:38:14.047Z</time></trkpt><trkpt lat="42.2461136" lon="12.2151463"><ele>311.0</ele><time>2026-03-28T10:38:15.057Z</time></trkpt><trkpt lat="42.2461883" lon="12.2151769"><ele>311.0</ele><time>2026-03-28T10:38:16.043Z</time></trkpt><trkpt lat="42.2462579" lon="12.215191"><ele>311.0</ele><time>2026-03-28T10:38:17.057Z</time></trkpt><trkpt lat="42.246373" lon="12.215229"><ele>311.0</ele><time>2026-03-28T10:38:19.051Z</time></trkpt><trkpt lat="42.2464735" lon="12.2152383"><ele>311.0</ele><time>2026-03-28T10:38:21.047Z</time></trkpt><trkpt lat="42.2466202" lon="12.2152193"><ele>311.6666666666667</ele><time>2026-03-28T10:38:23.057Z</time></trkpt><trkpt lat="42.2466897" lon="12.2152278"><ele>312.33333333333337</ele><time>2026-03-28T10:38:24.055Z</time></trkpt><trkpt lat="42.2467618" lon="12.2152374"><ele>313.0</ele><time>2026-03-28T10:38:25.049Z</time></trkpt><trkpt lat="42.2468574" lon="12.2152564"><ele>313.6666666666667</ele><time>2026-03-28T10:38:27.054Z</time></trkpt><trkpt lat="42.2469298" lon="12.2152718"><ele>314.3333333333333</ele><time>2026-03-28T10:38:30.049Z</time></trkpt><trkpt lat="42.247052" lon="12.2153017"><ele>315.0</ele><time>2026-03-28T10:38:32.047Z</time></trkpt><trkpt lat="42.2471921" lon="12.2153274"><ele>315.25</ele><time>2026-03-28T10:38:33.053Z</time></trkpt><trkpt lat="42.2473159" lon="12.2153534"><ele>315.5</ele><time>2026-03-28T10:38:34.056Z</time></trkpt><trkpt lat="42.2474368" lon="12.2153789"><ele>315.75</ele><time>2026-03-28T10:38:35.056Z</time></trkpt><trkpt lat="42.2475519" lon="12.2153988"><ele>316.0</ele><time>2026-03-28T10:38:36.048Z</time></trkpt><trkpt lat="42.2476649" lon="12.2154214"><ele>316.0</ele><time>2026-03-28T10:38:37.051Z</time></trkpt><trkpt lat="42.2477725" lon="12.215433"><ele>316.0</ele><time>2026-03-28T10:38:38.054Z</time></trkpt><trkpt lat="42.2478799" lon="12.2154511"><ele>316.0</ele><time>2026-03-28T10:38:39.053Z</time></trkpt><trkpt lat="42.2479876" lon="12.2154729"><ele>316.0</ele><time>2026-03-28T10:38:40.053Z</time></trkpt><trkpt lat="42.2480964" lon="12.2154921"><ele>316.0</ele><time>2026-03-28T10:38:41.049Z</time></trkpt><trkpt lat="42.2482061" lon="12.2155056"><ele>315.0</ele><time>2026-03-28T10:38:42.056Z</time></trkpt><trkpt lat="42.248315" lon="12.2155245"><ele>314.0</ele><time>2026-03-28T10:38:43.046Z</time></trkpt><trkpt lat="42.2484291" lon="12.2155367"><ele>313.0</ele><time>2026-03-28T10:38:44.048Z</time></trkpt><trkpt lat="42.248535" lon="12.2155705"><ele>312.0</ele><time>2026-03-28T10:38:45.049Z</time></trkpt><trkpt lat="42.2486475" lon="12.2155979"><ele>311.0</ele><time>2026-03-28T10:38:46.056Z</time></trkpt><trkpt lat="42.2487526" lon="12.2156142"><ele>311.0</ele><time>2026-03-28T10:38:47.045Z</time></trkpt><trkpt lat="42.2488481" lon="12.2156343"><ele>311.0</ele><time>2026-03-28T10:38:48.056Z</time></trkpt><trkpt lat="42.2489302" lon="12.2156481"><ele>311.0</ele><time>2026-03-28T10:38:49.047Z</time></trkpt><trkpt lat="42.2490023" lon="12.2156533"><ele>311.0</ele><time>2026-03-28T10:38:50.048Z</time></trkpt><trkpt lat="42.2491273" lon="12.2156715"><ele>311.0</ele><time>2026-03-28T10:38:52.052Z</time></trkpt><trkpt lat="42.2492022" lon="12.2156812"><ele>310.5</ele><time>2026-03-28T10:38:53.044Z</time></trkpt><trkpt lat="42.2492823" lon="12.2156955"><ele>310.0</ele><time>2026-03-28T10:38:54.054Z</time></trkpt><trkpt lat="42.249366" lon="12.2157035"><ele>309.5</ele><time>2026-03-28T10:38:55.048Z</time></trkpt><trkpt lat="42.2494486" lon="12.2157083"><ele>309.0</ele><time>2026-03-28T10:38:56.047Z</time></trkpt><trkpt lat="42.2495408" lon="12.2157099"><ele>308.5</ele><time>2026-03-28T10:38:57.055Z</time></trkpt><trkpt lat="42.2496346" lon="12.2157168"><ele>308.0</ele><time>2026-03-28T10:38:58.049Z</time></trkpt><trkpt lat="42.2497374" lon="12.2157288"><ele>309.5</ele><time>2026-03-28T10:38:59.049Z</time></trkpt><trkpt lat="42.2498404" lon="12.2157379"><ele>311.0</ele><time>2026-03-28T10:39:00.045Z</time></trkpt><trkpt lat="42.2499472" lon="12.2157498"><ele>312.5</ele><time>2026-03-28T10:39:01.044Z</time></trkpt><trkpt lat="42.2500684" lon="12.2157587"><ele>314.0</ele><time>2026-03-28T10:39:02.053Z</time></trkpt><trkpt lat="42.2501986" lon="12.2157811"><ele>314.0</ele><time>2026-03-28T10:39:03.051Z</time></trkpt><trkpt lat="42.2503556" lon="12.2157951"><ele>314.0</ele><time>2026-03-28T10:39:04.047Z</time></trkpt><trkpt lat="42.2505518" lon="12.2158123"><ele>314.0</ele><time>2026-03-28T10:39:05.046Z</time></trkpt><trkpt lat="42.2507474" lon="12.2158539"><ele>316.33333333333337</ele><time>2026-03-28T10:39:06.057Z</time></trkpt><trkpt lat="42.2509358" lon="12.2158811"><ele>318.6666666666667</ele><time>2026-03-28T10:39:07.051Z</time></trkpt><trkpt lat="42.2510993" lon="12.2159209"><ele>321.0</ele><time>2026-03-28T10:39:08.065Z</time></trkpt><trkpt lat="42.2512947" lon="12.2159511"><ele>323.0</ele><time>2026-03-28T10:39:09.044Z</time></trkpt><trkpt lat="42.2514625" lon="12.2159953"><ele>325.0</ele><time>2026-03-28T10:39:10.058Z</time></trkpt><trkpt lat="42.251615" lon="12.2160191"><ele>327.0</ele><time>2026-03-28T10:39:11.047Z</time></trkpt><trkpt lat="42.251768" lon="12.2159991"><ele>327.0</ele><time>2026-03-28T10:39:12.042Z</time></trkpt><trkpt lat="42.2519408" lon="12.2159828"><ele>327.0</ele><time>2026-03-28T10:39:13.053Z</time></trkpt><trkpt lat="42.2521021" lon="12.2158896"><ele>327.0</ele><time>2026-03-28T10:39:14.055Z</time></trkpt><trkpt lat="42.252257" lon="12.2157523"><ele>327.0</ele><time>2026-03-28T10:39:15.044Z</time></trkpt><trkpt lat="42.2523869" lon="12.2156228"><ele>327.0</ele><time>2026-03-28T10:39:16.061Z</time></trkpt><trkpt lat="42.2525373" lon="12.215484"><ele>327.0</ele><time>2026-03-28T10:39:17.055Z</time></trkpt><trkpt lat="42.2527121" lon="12.2153366"><ele>327.0</ele><time>2026-03-28T10:39:18.052Z</time></trkpt><trkpt lat="42.2528705" lon="12.2152146"><ele>327.0</ele><time>2026-03-28T10:39:19.047Z</time></trkpt><trkpt lat="42.2529981" lon="12.2151349"><ele>327.0</ele><time>2026-03-28T10:39:20.058Z</time></trkpt><trkpt lat="42.2531623" lon="12.2151192"><ele>326.0</ele><time>2026-03-28T10:39:21.047Z</time></trkpt><trkpt lat="42.2533394" lon="12.2151214"><ele>325.0</ele><time>2026-03-28T10:39:22.054Z</time></trkpt><trkpt lat="42.253485" lon="12.2151575"><ele>324.0</ele><time>2026-03-28T10:39:23.044Z</time></trkpt><trkpt lat="42.2536467" lon="12.2152575"><ele>324.0</ele><time>2026-03-28T10:39:24.055Z</time></trkpt><trkpt lat="42.2538157" lon="12.2153614"><ele>324.0</ele><time>2026-03-28T10:39:25.049Z</time></trkpt><trkpt lat="42.2539856" lon="12.2154742"><ele>324.0</ele><time>2026-03-28T10:39:26.059Z</time></trkpt><trkpt lat="42.25417" lon="12.2155884"><ele>324.3333333333333</ele><time>2026-03-28T10:39:27.049Z</time></trkpt><trkpt lat="42.2543497" lon="12.2156834"><ele>324.66666666666663</ele><time>2026-03-28T10:39:28.058Z</time></trkpt><trkpt lat="42.2545074" lon="12.2157892"><ele>325.0</ele><time>2026-03-28T10:39:29.053Z</time></trkpt><trkpt lat="42.2546902" lon="12.2158749"><ele>326.0</ele><time>2026-03-28T10:39:30.047Z</time></trkpt><trkpt lat="42.2548638" lon="12.2159597"><ele>327.0</ele><time>2026-03-28T10:39:31.045Z</time></trkpt><trkpt lat="42.255067" lon="12.2160178"><ele>328.0</ele><time>2026-03-28T10:39:32.057Z</time></trkpt><trkpt lat="42.255261" lon="12.2160714"><ele>328.0</ele><time>2026-03-28T10:39:33.052Z</time></trkpt><trkpt lat="42.2554352" lon="12.2161343"><ele>328.0</ele><time>2026-03-28T10:39:34.052Z</time></trkpt><trkpt lat="42.2556188" lon="12.2162078"><ele>328.0</ele><time>2026-03-28T10:39:35.046Z</time></trkpt><trkpt lat="42.2557876" lon="12.2162648"><ele>329.0</ele><time>2026-03-28T10:39:36.055Z</time></trkpt><trkpt lat="42.2559605" lon="12.21631"><ele>330.0</ele><time>2026-03-28T10:39:37.05Z</time></trkpt><trkpt lat="42.2561297" lon="12.2163614"><ele>331.0</ele><time>2026-03-28T10:39:38.05Z</time></trkpt><trkpt lat="42.2562882" lon="12.216415"><ele>330.66666666666663</ele><time>2026-03-28T10:39:39.047Z</time></trkpt><trkpt lat="42.2564535" lon="12.2164616"><ele>330.3333333333333</ele><time>2026-03-28T10:39:40.045Z</time></trkpt><trkpt lat="42.2566175" lon="12.216504"><ele>330.0</ele><time>2026-03-28T10:39:41.044Z</time></trkpt><trkpt lat="42.2567748" lon="12.2165528"><ele>330.0</ele><time>2026-03-28T10:39:42.052Z</time></trkpt><trkpt lat="42.2569287" lon="12.2166063"><ele>330.0</ele><time>2026-03-28T10:39:43.048Z</time></trkpt><trkpt lat="42.2570847" lon="12.21666"><ele>330.0</ele><time>2026-03-28T10:39:44.05Z</time></trkpt><trkpt lat="42.2572522" lon="12.2167147"><ele>330.6666666666667</ele><time>2026-03-28T10:39:45.045Z</time></trkpt><trkpt lat="42.2574077" lon="12.2167846"><ele>331.33333333333337</ele><time>2026-03-28T10:39:46.046Z</time></trkpt><trkpt lat="42.2575589" lon="12.216879"><ele>332.0</ele><time>2026-03-28T10:39:47.05Z</time></trkpt><trkpt lat="42.2577118" lon="12.2169822"><ele>332.0</ele><time>2026-03-28T10:39:48.051Z</time></trkpt><trkpt lat="42.2578445" lon="12.2170897"><ele>332.0</ele><time>2026-03-28T10:39:49.051Z</time></trkpt><trkpt lat="42.2579657" lon="12.2172146"><ele>332.0</ele><time>2026-03-28T10:39:50.055Z</time></trkpt><trkpt lat="42.2580937" lon="12.2173382"><ele>332.33333333333337</ele><time>2026-03-28T10:39:51.049Z</time></trkpt><trkpt lat="42.2582228" lon="12.217472"><ele>332.6666666666667</ele><time>2026-03-28T10:39:52.055Z</time></trkpt><trkpt lat="42.2583582" lon="12.2176014"><ele>333.0</ele><time>2026-03-28T10:39:53.054Z</time></trkpt><trkpt lat="42.2584904" lon="12.2177188"><ele>333.0</ele><time>2026-03-28T10:39:54.049Z</time></trkpt><trkpt lat="42.2586185" lon="12.2178282"><ele>333.0</ele><time>2026-03-28T10:39:55.047Z</time></trkpt><trkpt lat="42.2587646" lon="12.217959"><ele>333.0</ele><time>2026-03-28T10:39:56.052Z</time></trkpt><trkpt lat="42.2589012" lon="12.2180818"><ele>333.0</ele><time>2026-03-28T10:39:57.059Z</time></trkpt><trkpt lat="42.2590238" lon="12.2182309"><ele>333.0</ele><time>2026-03-28T10:39:58.048Z</time></trkpt><trkpt lat="42.259174" lon="12.2183597"><ele>333.0</ele><time>2026-03-28T10:39:59.047Z</time></trkpt><trkpt lat="42.2593311" lon="12.2184579"><ele>333.0</ele><time>2026-03-28T10:40:00.046Z</time></trkpt><trkpt lat="42.2594964" lon="12.2185318"><ele>333.0</ele><time>2026-03-28T10:40:01.048Z</time></trkpt><trkpt lat="42.2597061" lon="12.218581"><ele>333.0</ele><time>2026-03-28T10:40:02.05Z</time></trkpt><trkpt lat="42.2598672" lon="12.2186637"><ele>335.6666666666667</ele><time>2026-03-28T10:40:03.065Z</time></trkpt><trkpt lat="42.2600549" lon="12.2187306"><ele>338.33333333333337</ele><time>2026-03-28T10:40:04.043Z</time></trkpt><trkpt lat="42.2602193" lon="12.2187826"><ele>341.0</ele><time>2026-03-28T10:40:05.055Z</time></trkpt><trkpt lat="42.2604069" lon="12.218804"><ele>341.0</ele><time>2026-03-28T10:40:06.048Z</time></trkpt><trkpt lat="42.2606067" lon="12.2187801"><ele>341.0</ele><time>2026-03-28T10:40:07.053Z</time></trkpt><trkpt lat="42.2608158" lon="12.2187264"><ele>341.0</ele><time>2026-03-28T10:40:08.044Z</time></trkpt><trkpt lat="42.2609963" lon="12.2186726"><ele>341.33333333333337</ele><time>2026-03-28T10:40:09.051Z</time></trkpt><trkpt lat="42.2611768" lon="12.2186181"><ele>341.6666666666667</ele><time>2026-03-28T10:40:10.047Z</time></trkpt><trkpt lat="42.2613614" lon="12.2185549"><ele>342.0</ele><time>2026-03-28T10:40:11.041Z</time></trkpt><trkpt lat="42.2615666" lon="12.2184926"><ele>342.3333333333333</ele><time>2026-03-28T10:40:12.051Z</time></trkpt><trkpt lat="42.2617514" lon="12.2184363"><ele>342.66666666666663</ele><time>2026-03-28T10:40:13.047Z</time></trkpt><trkpt lat="42.2619549" lon="12.2183768"><ele>343.0</ele><time>2026-03-28T10:40:14.05Z</time></trkpt><trkpt lat="42.2621434" lon="12.2183188"><ele>344.3333333333333</ele><time>2026-03-28T10:40:15.051Z</time></trkpt><trkpt lat="42.2623121" lon="12.2182327"><ele>345.6666666666667</ele><time>2026-03-28T10:40:16.042Z</time></trkpt><trkpt lat="42.2625015" lon="12.218155"><ele>347.0</ele><time>2026-03-28T10:40:17.049Z</time></trkpt><trkpt lat="42.2626734" lon="12.218126"><ele>347.33333333333337</ele><time>2026-03-28T10:40:18.052Z</time></trkpt><trkpt lat="42.2628564" lon="12.2181292"><ele>347.6666666666667</ele><time>2026-03-28T10:40:19.048Z</time></trkpt><trkpt lat="42.2630403" lon="12.2181448"><ele>348.0</ele><time>2026-03-28T10:40:20.057Z</time></trkpt><trkpt lat="42.2632546" lon="12.21815"><ele>349.0</ele><time>2026-03-28T10:40:21.05Z</time></trkpt><trkpt lat="42.2634446" lon="12.2181619"><ele>350.0</ele><time>2026-03-28T10:40:22.048Z</time></trkpt><trkpt lat="42.2636573" lon="12.2181707"><ele>351.0</ele><time>2026-03-28T10:40:23.043Z</time></trkpt><trkpt lat="42.2638579" lon="12.2181558"><ele>352.0</ele><time>2026-03-28T10:40:24.054Z</time></trkpt><trkpt lat="42.2641059" lon="12.2181242"><ele>353.0</ele><time>2026-03-28T10:40:25.052Z</time></trkpt><trkpt lat="42.2643253" lon="12.2181505"><ele>352.6666666666667</ele><time>2026-03-28T10:40:26.053Z</time></trkpt><trkpt lat="42.2645315" lon="12.2181763"><ele>352.3333333333333</ele><time>2026-03-28T10:40:27.045Z</time></trkpt><trkpt lat="42.2647335" lon="12.2181958"><ele>352.0</ele><time>2026-03-28T10:40:28.053Z</time></trkpt><trkpt lat="42.2649203" lon="12.2182218"><ele>352.0</ele><time>2026-03-28T10:40:29.047Z</time></trkpt><trkpt lat="42.2651137" lon="12.2182569"><ele>352.0</ele><time>2026-03-28T10:40:30.054Z</time></trkpt><trkpt lat="42.2653393" lon="12.2182878"><ele>352.0</ele><time>2026-03-28T10:40:31.056Z</time></trkpt><trkpt lat="42.2655493" lon="12.2183351"><ele>353.0</ele><time>2026-03-28T10:40:32.046Z</time></trkpt><trkpt lat="42.2657529" lon="12.2183839"><ele>354.0</ele><time>2026-03-28T10:40:33.049Z</time></trkpt><trkpt lat="42.2659696" lon="12.2184394"><ele>355.0</ele><time>2026-03-28T10:40:34.051Z</time></trkpt><trkpt lat="42.2661897" lon="12.2184982"><ele>355.0</ele><time>2026-03-28T10:40:35.048Z</time></trkpt><trkpt lat="42.2663896" lon="12.218591"><ele>355.0</ele><time>2026-03-28T10:40:36.05Z</time></trkpt><trkpt lat="42.2665848" lon="12.218682"><ele>355.0</ele><time>2026-03-28T10:40:37.05Z</time></trkpt><trkpt lat="42.2667851" lon="12.2187878"><ele>356.66666666666663</ele><time>2026-03-28T10:40:38.044Z</time></trkpt><trkpt lat="42.2669867" lon="12.2189346"><ele>358.3333333333333</ele><time>2026-03-28T10:40:39.047Z</time></trkpt><trkpt lat="42.2671706" lon="12.2190713"><ele>360.0</ele><time>2026-03-28T10:40:40.047Z</time></trkpt><trkpt lat="42.2673858" lon="12.2192402"><ele>363.0</ele><time>2026-03-28T10:40:41.056Z</time></trkpt><trkpt lat="42.2675975" lon="12.2193908"><ele>366.0</ele><time>2026-03-28T10:40:42.047Z</time></trkpt><trkpt lat="42.2677969" lon="12.2195342"><ele>366.0</ele><time>2026-03-28T10:40:43.053Z</time></trkpt><trkpt lat="42.267978" lon="12.2196687"><ele>366.0</ele><time>2026-03-28T10:40:44.045Z</time></trkpt><trkpt lat="42.2681526" lon="12.2198155"><ele>366.0</ele><time>2026-03-28T10:40:45.052Z</time></trkpt><trkpt lat="42.2683402" lon="12.2199533"><ele>368.3333333333333</ele><time>2026-03-28T10:40:46.058Z</time></trkpt><trkpt lat="42.2685166" lon="12.2200598"><ele>370.66666666666663</ele><time>2026-03-28T10:40:47.048Z</time></trkpt><trkpt lat="42.2687058" lon="12.2201375"><ele>373.0</ele><time>2026-03-28T10:40:48.052Z</time></trkpt><trkpt lat="42.2688791" lon="12.2202219"><ele>374.0</ele><time>2026-03-28T10:40:49.045Z</time></trkpt><trkpt lat="42.2690668" lon="12.2202447"><ele>375.0</ele><time>2026-03-28T10:40:50.057Z</time></trkpt><trkpt lat="42.2692632" lon="12.2202251"><ele>376.0</ele><time>2026-03-28T10:40:51.042Z</time></trkpt><trkpt lat="42.2694679" lon="12.2201953"><ele>376.0</ele><time>2026-03-28T10:40:52.05Z</time></trkpt><trkpt lat="42.2696934" lon="12.2201721"><ele>376.0</ele><time>2026-03-28T10:40:53.045Z</time></trkpt><trkpt lat="42.2699017" lon="12.2201241"><ele>376.0</ele><time>2026-03-28T10:40:54.048Z</time></trkpt><trkpt lat="42.2701317" lon="12.2200918"><ele>376.66666666666663</ele><time>2026-03-28T10:40:55.046Z</time></trkpt><trkpt lat="42.2703367" lon="12.2200488"><ele>377.3333333333333</ele><time>2026-03-28T10:40:56.049Z</time></trkpt><trkpt lat="42.2705312" lon="12.2200072"><ele>378.0</ele><time>2026-03-28T10:40:57.047Z</time></trkpt><trkpt lat="42.27073" lon="12.2199797"><ele>379.3333333333333</ele><time>2026-03-28T10:40:58.051Z</time></trkpt><trkpt lat="42.2709373" lon="12.2199504"><ele>380.66666666666663</ele><time>2026-03-28T10:40:59.051Z</time></trkpt><trkpt lat="42.2711397" lon="12.2199347"><ele>382.0</ele><time>2026-03-28T10:41:00.049Z</time></trkpt><trkpt lat="42.2713519" lon="12.2199423"><ele>381.66666666666663</ele><time>2026-03-28T10:41:01.06Z</time></trkpt><trkpt lat="42.271584" lon="12.2199722"><ele>381.3333333333333</ele><time>2026-03-28T10:41:02.046Z</time></trkpt><trkpt lat="42.2717967" lon="12.2200081"><ele>381.0</ele><time>2026-03-28T10:41:03.053Z</time></trkpt><trkpt lat="42.2719654" lon="12.2200664"><ele>381.0</ele><time>2026-03-28T10:41:04.049Z</time></trkpt><trkpt lat="42.2721385" lon="12.2200915"><ele>381.0</ele><time>2026-03-28T10:41:05.046Z</time></trkpt><trkpt lat="42.2723297" lon="12.2200934"><ele>381.0</ele><time>2026-03-28T10:41:06.046Z</time></trkpt><trkpt lat="42.2724788" lon="12.2201285"><ele>380.3333333333333</ele><time>2026-03-28T10:41:07.047Z</time></trkpt><trkpt lat="42.2726454" lon="12.2200837"><ele>379.66666666666663</ele><time>2026-03-28T10:41:08.069Z</time></trkpt><trkpt lat="42.272797" lon="12.2200028"><ele>379.0</ele><time>2026-03-28T10:41:09.048Z</time></trkpt><trkpt lat="42.2729335" lon="12.219921"><ele>381.3333333333333</ele><time>2026-03-28T10:41:10.049Z</time></trkpt><trkpt lat="42.2730319" lon="12.2197925"><ele>383.66666666666663</ele><time>2026-03-28T10:41:11.046Z</time></trkpt><trkpt lat="42.2731022" lon="12.2196055"><ele>386.0</ele><time>2026-03-28T10:41:12.049Z</time></trkpt><trkpt lat="42.2731815" lon="12.2193972"><ele>386.0</ele><time>2026-03-28T10:41:13.051Z</time></trkpt><trkpt lat="42.2732868" lon="12.219243"><ele>386.0</ele><time>2026-03-28T10:41:14.046Z</time></trkpt><trkpt lat="42.2733963" lon="12.219071"><ele>386.0</ele><time>2026-03-28T10:41:15.051Z</time></trkpt><trkpt lat="42.2734965" lon="12.2189453"><ele>386.0</ele><time>2026-03-28T10:41:16.047Z</time></trkpt><trkpt lat="42.2735954" lon="12.2188993"><ele>386.0</ele><time>2026-03-28T10:41:17.046Z</time></trkpt><trkpt lat="42.2736943" lon="12.2188605"><ele>386.0</ele><time>2026-03-28T10:41:18.043Z</time></trkpt><trkpt lat="42.2737749" lon="12.2188625"><ele>386.0</ele><time>2026-03-28T10:41:19.047Z</time></trkpt><trkpt lat="42.2738927" lon="12.2189356"><ele>386.0</ele><time>2026-03-28T10:41:20.058Z</time></trkpt><trkpt lat="42.2740168" lon="12.2190224"><ele>379.75</ele><time>2026-03-28T10:41:21.044Z</time></trkpt><trkpt lat="42.2741327" lon="12.2191073"><ele>373.5</ele><time>2026-03-28T10:41:22.05Z</time></trkpt><trkpt lat="42.274245" lon="12.2191789"><ele>367.25</ele><time>2026-03-28T10:41:23.046Z</time></trkpt><trkpt lat="42.2743395" lon="12.2192287"><ele>361.0</ele><time>2026-03-28T10:41:24.054Z</time></trkpt><trkpt lat="42.2744445" lon="12.2192519"><ele>361.0</ele><time>2026-03-28T10:41:25.043Z</time></trkpt><trkpt lat="42.274545" lon="12.2192393"><ele>361.0</ele><time>2026-03-28T10:41:26.043Z</time></trkpt><trkpt lat="42.2746513" lon="12.2191866"><ele>361.0</ele><time>2026-03-28T10:41:27.044Z</time></trkpt><trkpt lat="42.2747504" lon="12.2190861"><ele>361.0</ele><time>2026-03-28T10:41:28.047Z</time></trkpt><trkpt lat="42.2748554" lon="12.2189516"><ele>362.66666666666663</ele><time>2026-03-28T10:41:29.054Z</time></trkpt><trkpt lat="42.2749756" lon="12.2188216"><ele>364.3333333333333</ele><time>2026-03-28T10:41:30.043Z</time></trkpt><trkpt lat="42.2751183" lon="12.2185942"><ele>366.0</ele><time>2026-03-28T10:41:31.052Z</time></trkpt><trkpt lat="42.2752883" lon="12.2183866"><ele>366.0</ele><time>2026-03-28T10:41:32.044Z</time></trkpt><trkpt lat="42.275457" lon="12.218216"><ele>366.0</ele><time>2026-03-28T10:41:33.054Z</time></trkpt><trkpt lat="42.2756355" lon="12.2180981"><ele>366.0</ele><time>2026-03-28T10:41:34.048Z</time></trkpt><trkpt lat="42.2757951" lon="12.2180329"><ele>371.0</ele><time>2026-03-28T10:41:35.043Z</time></trkpt><trkpt lat="42.2759686" lon="12.2180396"><ele>376.0</ele><time>2026-03-28T10:41:36.047Z</time></trkpt><trkpt lat="42.2761626" lon="12.2180891"><ele>381.0</ele><time>2026-03-28T10:41:37.043Z</time></trkpt><trkpt lat="42.2763465" lon="12.2181737"><ele>385.33333333333337</ele><time>2026-03-28T10:41:38.047Z</time></trkpt><trkpt lat="42.2765452" lon="12.2183047"><ele>389.6666666666667</ele><time>2026-03-28T10:41:39.044Z</time></trkpt><trkpt lat="42.2767458" lon="12.2184075"><ele>394.0</ele><time>2026-03-28T10:41:40.044Z</time></trkpt><trkpt lat="42.2769448" lon="12.2184849"><ele>394.0</ele><time>2026-03-28T10:41:41.046Z</time></trkpt><trkpt lat="42.2771864" lon="12.2185894"><ele>394.0</ele><time>2026-03-28T10:41:42.05Z</time></trkpt><trkpt lat="42.2773876" lon="12.218716"><ele>393.6666666666667</ele><time>2026-03-28T10:41:43.047Z</time></trkpt><trkpt lat="42.2775555" lon="12.2188394"><ele>393.33333333333337</ele><time>2026-03-28T10:41:44.053Z</time></trkpt><trkpt lat="42.2777437" lon="12.218926"><ele>393.0</ele><time>2026-03-28T10:41:45.043Z</time></trkpt><trkpt lat="42.2779289" lon="12.2190019"><ele>394.66666666666663</ele><time>2026-03-28T10:41:46.048Z</time></trkpt><trkpt lat="42.2781038" lon="12.2190786"><ele>396.3333333333333</ele><time>2026-03-28T10:41:47.049Z</time></trkpt><trkpt lat="42.278278" lon="12.2191294"><ele>398.0</ele><time>2026-03-28T10:41:48.049Z</time></trkpt><trkpt lat="42.2784514" lon="12.2191569"><ele>398.0</ele><time>2026-03-28T10:41:49.043Z</time></trkpt><trkpt lat="42.2786234" lon="12.219178"><ele>398.0</ele><time>2026-03-28T10:41:50.048Z</time></trkpt><trkpt lat="42.2787257" lon="12.2191755"><ele>398.0</ele><time>2026-03-28T10:41:51.049Z</time></trkpt><trkpt lat="42.278875" lon="12.2191718"><ele>398.0</ele><time>2026-03-28T10:41:52.048Z</time></trkpt><trkpt lat="42.2790135" lon="12.2191745"><ele>398.59999999999997</ele><time>2026-03-28T10:41:53.046Z</time></trkpt><trkpt lat="42.2791397" lon="12.2191634"><ele>399.2</ele><time>2026-03-28T10:41:54.046Z</time></trkpt><trkpt lat="42.2792561" lon="12.2191563"><ele>399.8</ele><time>2026-03-28T10:41:55.058Z</time></trkpt><trkpt lat="42.2793417" lon="12.2191782"><ele>400.4</ele><time>2026-03-28T10:41:56.045Z</time></trkpt><trkpt lat="42.2794147" lon="12.2192182"><ele>401.0</ele><time>2026-03-28T10:41:57.046Z</time></trkpt><trkpt lat="42.2795196" lon="12.2193255"><ele>401.0</ele><time>2026-03-28T10:41:59.054Z</time></trkpt><trkpt lat="42.2795856" lon="12.2193607"><ele>401.0</ele><time>2026-03-28T10:42:00.046Z</time></trkpt><trkpt lat="42.2796515" lon="12.2193568"><ele>401.0</ele><time>2026-03-28T10:42:01.044Z</time></trkpt><trkpt lat="42.2797014" lon="12.2192871"><ele>401.0</ele><time>2026-03-28T10:42:02.054Z</time></trkpt><trkpt lat="42.2796993" lon="12.2191268"><ele>401.0</ele><time>2026-03-28T10:42:03.046Z</time></trkpt><trkpt lat="42.2796632" lon="12.2189659"><ele>401.0</ele><time>2026-03-28T10:42:04.047Z</time></trkpt><trkpt lat="42.2796612" lon="12.2188207"><ele>401.0</ele><time>2026-03-28T10:42:05.056Z</time></trkpt><trkpt lat="42.2796757" lon="12.2186404"><ele>401.0</ele><time>2026-03-28T10:42:06.044Z</time></trkpt><trkpt lat="42.2797196" lon="12.218433"><ele>401.0</ele><time>2026-03-28T10:42:07.057Z</time></trkpt><trkpt lat="42.2797581" lon="12.218221"><ele>403.0</ele><time>2026-03-28T10:42:08.043Z</time></trkpt><trkpt lat="42.2798147" lon="12.2180284"><ele>405.0</ele><time>2026-03-28T10:42:09.047Z</time></trkpt><trkpt lat="42.279901" lon="12.2178275"><ele>407.0</ele><time>2026-03-28T10:42:10.054Z</time></trkpt><trkpt lat="42.28001" lon="12.2176012"><ele>407.0</ele><time>2026-03-28T10:42:11.043Z</time></trkpt><trkpt lat="42.280125" lon="12.217391"><ele>407.0</ele><time>2026-03-28T10:42:12.047Z</time></trkpt><trkpt lat="42.2802427" lon="12.2172012"><ele>407.0</ele><time>2026-03-28T10:42:13.05Z</time></trkpt><trkpt lat="42.2803441" lon="12.2170293"><ele>407.3333333333333</ele><time>2026-03-28T10:42:14.053Z</time></trkpt><trkpt lat="42.2804841" lon="12.2168246"><ele>407.66666666666663</ele><time>2026-03-28T10:42:15.043Z</time></trkpt><trkpt lat="42.2806049" lon="12.2166415"><ele>408.0</ele><time>2026-03-28T10:42:16.046Z</time></trkpt><trkpt lat="42.2807257" lon="12.2164665"><ele>409.33333333333337</ele><time>2026-03-28T10:42:17.052Z</time></trkpt><trkpt lat="42.2808457" lon="12.2163035"><ele>410.6666666666667</ele><time>2026-03-28T10:42:18.048Z</time></trkpt><trkpt lat="42.2809616" lon="12.2161431"><ele>412.0</ele><time>2026-03-28T10:42:19.052Z</time></trkpt><trkpt lat="42.2810773" lon="12.2159785"><ele>412.0</ele><time>2026-03-28T10:42:20.046Z</time></trkpt><trkpt lat="42.2811752" lon="12.2158286"><ele>412.0</ele><time>2026-03-28T10:42:21.042Z</time></trkpt><trkpt lat="42.2812936" lon="12.2156824"><ele>412.0</ele><time>2026-03-28T10:42:22.05Z</time></trkpt><trkpt lat="42.2814255" lon="12.2155407"><ele>413.6666666666667</ele><time>2026-03-28T10:42:23.045Z</time></trkpt><trkpt lat="42.2815461" lon="12.2154188"><ele>415.33333333333337</ele><time>2026-03-28T10:42:24.056Z</time></trkpt><trkpt lat="42.2816765" lon="12.2153051"><ele>417.0</ele><time>2026-03-28T10:42:25.045Z</time></trkpt><trkpt lat="42.2818288" lon="12.2151895"><ele>417.0</ele><time>2026-03-28T10:42:26.05Z</time></trkpt><trkpt lat="42.2820008" lon="12.2151139"><ele>417.0</ele><time>2026-03-28T10:42:27.044Z</time></trkpt><trkpt lat="42.2821686" lon="12.2150904"><ele>417.0</ele><time>2026-03-28T10:42:28.048Z</time></trkpt><trkpt lat="42.2823403" lon="12.2150612"><ele>418.0</ele><time>2026-03-28T10:42:29.047Z</time></trkpt><trkpt lat="42.282529" lon="12.2150382"><ele>419.0</ele><time>2026-03-28T10:42:30.045Z</time></trkpt><trkpt lat="42.2826941" lon="12.2150202"><ele>420.0</ele><time>2026-03-28T10:42:31.053Z</time></trkpt><trkpt lat="42.282831" lon="12.2150012"><ele>420.0</ele><time>2026-03-28T10:42:32.044Z</time></trkpt><trkpt lat="42.282952" lon="12.2149967"><ele>420.0</ele><time>2026-03-28T10:42:33.046Z</time></trkpt><trkpt lat="42.2830788" lon="12.2149878"><ele>420.0</ele><time>2026-03-28T10:42:34.049Z</time></trkpt><trkpt lat="42.2831899" lon="12.2149805"><ele>420.0</ele><time>2026-03-28T10:42:35.051Z</time></trkpt><trkpt lat="42.2833037" lon="12.2149801"><ele>420.8333333333333</ele><time>2026-03-28T10:42:36.044Z</time></trkpt><trkpt lat="42.283406" lon="12.2149776"><ele>421.66666666666663</ele><time>2026-03-28T10:42:37.048Z</time></trkpt><trkpt lat="42.2834776" lon="12.2149878"><ele>422.5</ele><time>2026-03-28T10:42:38.051Z</time></trkpt><trkpt lat="42.2835524" lon="12.2149833"><ele>423.3333333333333</ele><time>2026-03-28T10:42:39.049Z</time></trkpt><trkpt lat="42.2836302" lon="12.2149786"><ele>424.16666666666663</ele><time>2026-03-28T10:42:40.046Z</time></trkpt><trkpt lat="42.2837053" lon="12.2149623"><ele>425.0</ele><time>2026-03-28T10:42:41.052Z</time></trkpt><trkpt lat="42.2838064" lon="12.2149444"><ele>425.0</ele><time>2026-03-28T10:42:42.055Z</time></trkpt><trkpt lat="42.2839234" lon="12.2149291"><ele>425.0</ele><time>2026-03-28T10:42:43.05Z</time></trkpt><trkpt lat="42.2840444" lon="12.2149162"><ele>425.0</ele><time>2026-03-28T10:42:44.054Z</time></trkpt><trkpt lat="42.2841596" lon="12.2149069"><ele>425.0</ele><time>2026-03-28T10:42:45.05Z</time></trkpt><trkpt lat="42.2842814" lon="12.2148975"><ele>426.0</ele><time>2026-03-28T10:42:46.049Z</time></trkpt><trkpt lat="42.284401" lon="12.2148859"><ele>427.0</ele><time>2026-03-28T10:42:47.049Z</time></trkpt><trkpt lat="42.2845216" lon="12.2148748"><ele>428.0</ele><time>2026-03-28T10:42:48.057Z</time></trkpt><trkpt lat="42.2846458" lon="12.2148589"><ele>429.0</ele><time>2026-03-28T10:42:49.053Z</time></trkpt><trkpt lat="42.2847757" lon="12.2148497"><ele>430.5</ele><time>2026-03-28T10:42:50.047Z</time></trkpt><trkpt lat="42.2849004" lon="12.2148381"><ele>432.0</ele><time>2026-03-28T10:42:51.042Z</time></trkpt><trkpt lat="42.2850228" lon="12.2148251"><ele>433.5</ele><time>2026-03-28T10:42:52.049Z</time></trkpt><trkpt lat="42.2851469" lon="12.2148214"><ele>435.0</ele><time>2026-03-28T10:42:53.047Z</time></trkpt><trkpt lat="42.2852623" lon="12.2148089"><ele>435.5</ele><time>2026-03-28T10:42:54.048Z</time></trkpt><trkpt lat="42.2853829" lon="12.2148"><ele>436.0</ele><time>2026-03-28T10:42:55.045Z</time></trkpt><trkpt lat="42.2854932" lon="12.214791"><ele>436.5</ele><time>2026-03-28T10:42:56.051Z</time></trkpt><trkpt lat="42.2856132" lon="12.2147646"><ele>437.0</ele><time>2026-03-28T10:42:57.047Z</time></trkpt><trkpt lat="42.2857256" lon="12.2147588"><ele>437.99999999999994</ele><time>2026-03-28T10:42:58.057Z</time></trkpt><trkpt lat="42.2858255" lon="12.2147493"><ele>439.0</ele><time>2026-03-28T10:42:59.045Z</time></trkpt><trkpt lat="42.2859192" lon="12.2147397"><ele>440.0</ele><time>2026-03-28T10:43:00.049Z</time></trkpt><trkpt lat="42.2859997" lon="12.2147324"><ele>441.0</ele><time>2026-03-28T10:43:01.048Z</time></trkpt><trkpt lat="42.2860871" lon="12.2147097"><ele>441.99999999999994</ele><time>2026-03-28T10:43:02.051Z</time></trkpt><trkpt lat="42.2861519" lon="12.214696"><ele>443.0</ele><time>2026-03-28T10:43:03.055Z</time></trkpt><trkpt lat="42.2862447" lon="12.2146998"><ele>443.0</ele><time>2026-03-28T10:43:05.048Z</time></trkpt><trkpt lat="42.2863433" lon="12.2146905"><ele>443.0</ele><time>2026-03-28T10:43:22.044Z</time></trkpt><trkpt lat="42.2864741" lon="12.2147019"><ele>443.0</ele><time>2026-03-28T10:43:24.054Z</time></trkpt><trkpt lat="42.2866046" lon="12.2147011"><ele>443.0</ele><time>2026-03-28T10:43:25.044Z</time></trkpt><trkpt lat="42.2867888" lon="12.214686"><ele>445.0</ele><time>2026-03-28T10:43:26.042Z</time></trkpt><trkpt lat="42.2870257" lon="12.2146656"><ele>447.0</ele><time>2026-03-28T10:43:27.042Z</time></trkpt><trkpt lat="42.2872827" lon="12.214623"><ele>448.33333333333337</ele><time>2026-03-28T10:43:28.049Z</time></trkpt><trkpt lat="42.2874893" lon="12.2146002"><ele>449.6666666666667</ele><time>2026-03-28T10:43:29.059Z</time></trkpt><trkpt lat="42.2876582" lon="12.2145743"><ele>451.0</ele><time>2026-03-28T10:43:30.041Z</time></trkpt><trkpt lat="42.2878444" lon="12.2145519"><ele>451.0</ele><time>2026-03-28T10:43:31.056Z</time></trkpt><trkpt lat="42.2880006" lon="12.2145338"><ele>451.0</ele><time>2026-03-28T10:43:32.046Z</time></trkpt><trkpt lat="42.2881619" lon="12.2145109"><ele>451.0</ele><time>2026-03-28T10:43:33.051Z</time></trkpt><trkpt lat="42.2883341" lon="12.2144971"><ele>451.6666666666667</ele><time>2026-03-28T10:43:34.052Z</time></trkpt><trkpt lat="42.2884913" lon="12.2144917"><ele>452.33333333333337</ele><time>2026-03-28T10:43:35.046Z</time></trkpt><trkpt lat="42.2886479" lon="12.2144838"><ele>453.0</ele><time>2026-03-28T10:43:36.047Z</time></trkpt><trkpt lat="42.288806" lon="12.2144827"><ele>452.33333333333337</ele><time>2026-03-28T10:43:37.054Z</time></trkpt><trkpt lat="42.2889636" lon="12.214491"><ele>451.6666666666667</ele><time>2026-03-28T10:43:38.058Z</time></trkpt><trkpt lat="42.2891353" lon="12.2144756"><ele>451.0</ele><time>2026-03-28T10:43:39.058Z</time></trkpt><trkpt lat="42.2892876" lon="12.2144558"><ele>451.0</ele><time>2026-03-28T10:43:40.046Z</time></trkpt><trkpt lat="42.2894034" lon="12.2144278"><ele>451.0</ele><time>2026-03-28T10:43:41.059Z</time></trkpt><trkpt lat="42.2895301" lon="12.2143763"><ele>451.0</ele><time>2026-03-28T10:43:42.043Z</time></trkpt><trkpt lat="42.2896462" lon="12.2142974"><ele>451.0</ele><time>2026-03-28T10:43:43.048Z</time></trkpt><trkpt lat="42.2897624" lon="12.2142298"><ele>451.00000000000006</ele><time>2026-03-28T10:43:44.043Z</time></trkpt><trkpt lat="42.2898179" lon="12.2141859"><ele>451.0</ele><time>2026-03-28T10:43:45.048Z</time></trkpt><trkpt lat="42.2898678" lon="12.2141248"><ele>451.0</ele><time>2026-03-28T10:43:47.049Z</time></trkpt><trkpt lat="42.2899655" lon="12.2140208"><ele>451.0</ele><time>2026-03-28T10:44:05.053Z</time></trkpt><trkpt lat="42.2900337" lon="12.2139565"><ele>451.00000000000006</ele><time>2026-03-28T10:44:06.042Z</time></trkpt><trkpt lat="42.2901028" lon="12.2138603"><ele>451.0</ele><time>2026-03-28T10:44:07.053Z</time></trkpt><trkpt lat="42.2901818" lon="12.2137512"><ele>451.0</ele><time>2026-03-28T10:44:08.043Z</time></trkpt><trkpt lat="42.2902591" lon="12.2136166"><ele>451.0</ele><time>2026-03-28T10:44:09.051Z</time></trkpt><trkpt lat="42.290334" lon="12.213469"><ele>451.0</ele><time>2026-03-28T10:44:10.051Z</time></trkpt><trkpt lat="42.2904087" lon="12.213317"><ele>451.0</ele><time>2026-03-28T10:44:11.063Z</time></trkpt><trkpt lat="42.2904717" lon="12.2131517"><ele>451.5</ele><time>2026-03-28T10:44:12.043Z</time></trkpt><trkpt lat="42.2905435" lon="12.2129967"><ele>452.0</ele><time>2026-03-28T10:44:13.052Z</time></trkpt><trkpt lat="42.2906057" lon="12.2128356"><ele>452.5</ele><time>2026-03-28T10:44:14.043Z</time></trkpt><trkpt lat="42.290686" lon="12.2126681"><ele>453.0</ele><time>2026-03-28T10:44:15.052Z</time></trkpt><trkpt lat="42.2907539" lon="12.212482"><ele>454.75</ele><time>2026-03-28T10:44:16.046Z</time></trkpt><trkpt lat="42.2908452" lon="12.2123151"><ele>456.5</ele><time>2026-03-28T10:44:17.059Z</time></trkpt><trkpt lat="42.2909401" lon="12.2121776"><ele>458.25</ele><time>2026-03-28T10:44:18.046Z</time></trkpt><trkpt lat="42.2910652" lon="12.2120578"><ele>460.0</ele><time>2026-03-28T10:44:19.043Z</time></trkpt><trkpt lat="42.2912055" lon="12.2119168"><ele>460.0</ele><time>2026-03-28T10:44:20.047Z</time></trkpt><trkpt lat="42.2913628" lon="12.2118126"><ele>460.0</ele><time>2026-03-28T10:44:21.042Z</time></trkpt><trkpt lat="42.2915046" lon="12.211686"><ele>460.0</ele><time>2026-03-28T10:44:22.046Z</time></trkpt><trkpt lat="42.2916219" lon="12.2115903"><ele>461.5</ele><time>2026-03-28T10:44:23.042Z</time></trkpt><trkpt lat="42.2917575" lon="12.2114888"><ele>463.0</ele><time>2026-03-28T10:44:24.057Z</time></trkpt><trkpt lat="42.2918743" lon="12.211409"><ele>464.5</ele><time>2026-03-28T10:44:25.048Z</time></trkpt><trkpt lat="42.2920048" lon="12.2113312"><ele>466.0</ele><time>2026-03-28T10:44:26.042Z</time></trkpt><trkpt lat="42.2921517" lon="12.2112782"><ele>466.6666666666667</ele><time>2026-03-28T10:44:27.057Z</time></trkpt><trkpt lat="42.292301" lon="12.2112377"><ele>467.33333333333337</ele><time>2026-03-28T10:44:28.061Z</time></trkpt><trkpt lat="42.2924453" lon="12.2112073"><ele>468.0</ele><time>2026-03-28T10:44:29.052Z</time></trkpt><trkpt lat="42.2926018" lon="12.211176"><ele>468.0</ele><time>2026-03-28T10:44:30.047Z</time></trkpt><trkpt lat="42.292761" lon="12.2111658"><ele>468.0</ele><time>2026-03-28T10:44:31.045Z</time></trkpt><trkpt lat="42.2929256" lon="12.2111306"><ele>468.0</ele><time>2026-03-28T10:44:32.046Z</time></trkpt><trkpt lat="42.2930871" lon="12.2110822"><ele>471.66666666666663</ele><time>2026-03-28T10:44:33.056Z</time></trkpt><trkpt lat="42.293274" lon="12.211002"><ele>475.3333333333333</ele><time>2026-03-28T10:44:34.047Z</time></trkpt><trkpt lat="42.2934162" lon="12.2109297"><ele>479.0</ele><time>2026-03-28T10:44:35.05Z</time></trkpt><trkpt lat="42.2935454" lon="12.2108582"><ele>479.0</ele><time>2026-03-28T10:44:36.046Z</time></trkpt><trkpt lat="42.2936645" lon="12.2108091"><ele>479.0</ele><time>2026-03-28T10:44:37.052Z</time></trkpt><trkpt lat="42.2937859" lon="12.210754"><ele>479.0</ele><time>2026-03-28T10:44:38.05Z</time></trkpt><trkpt lat="42.2938997" lon="12.2107029"><ele>479.0</ele><time>2026-03-28T10:44:39.048Z</time></trkpt><trkpt lat="42.2940381" lon="12.2106751"><ele>480.25</ele><time>2026-03-28T10:44:40.052Z</time></trkpt><trkpt lat="42.2941685" lon="12.2105948"><ele>481.5</ele><time>2026-03-28T10:44:41.04Z</time></trkpt><trkpt lat="42.2942838" lon="12.2105181"><ele>482.75</ele><time>2026-03-28T10:44:42.05Z</time></trkpt><trkpt lat="42.2943921" lon="12.2104664"><ele>484.0</ele><time>2026-03-28T10:44:43.046Z</time></trkpt><trkpt lat="42.2945013" lon="12.21042"><ele>484.0</ele><time>2026-03-28T10:44:44.047Z</time></trkpt><trkpt lat="42.2946073" lon="12.2103646"><ele>484.0</ele><time>2026-03-28T10:44:45.055Z</time></trkpt><trkpt lat="42.294714" lon="12.2103225"><ele>484.0</ele><time>2026-03-28T10:44:46.051Z</time></trkpt><trkpt lat="42.2948094" lon="12.2102761"><ele>484.0</ele><time>2026-03-28T10:44:47.046Z</time></trkpt><trkpt lat="42.2948902" lon="12.2102348"><ele>484.0</ele><time>2026-03-28T10:44:48.053Z</time></trkpt><trkpt lat="42.2949656" lon="12.2101954"><ele>484.33333333333337</ele><time>2026-03-28T10:44:49.041Z</time></trkpt><trkpt lat="42.2950424" lon="12.2101542"><ele>484.6666666666667</ele><time>2026-03-28T10:44:50.054Z</time></trkpt><trkpt lat="42.2951074" lon="12.2101152"><ele>485.0</ele><time>2026-03-28T10:44:51.045Z</time></trkpt><trkpt lat="42.2951824" lon="12.2100744"><ele>485.33333333333337</ele><time>2026-03-28T10:44:52.042Z</time></trkpt><trkpt lat="42.2952674" lon="12.2100275"><ele>485.6666666666667</ele><time>2026-03-28T10:44:53.047Z</time></trkpt><trkpt lat="42.2953521" lon="12.2099859"><ele>486.0</ele><time>2026-03-28T10:44:54.063Z</time></trkpt><trkpt lat="42.295415" lon="12.2099527"><ele>486.0</ele><time>2026-03-28T10:44:55.045Z</time></trkpt><trkpt lat="42.2954829" lon="12.2099236"><ele>486.0</ele><time>2026-03-28T10:44:56.044Z</time></trkpt><trkpt lat="42.2955857" lon="12.2099298"><ele>486.0</ele><time>2026-03-28T10:44:58.044Z</time></trkpt><trkpt lat="42.2956797" lon="12.2099945"><ele>486.0</ele><time>2026-03-28T10:45:00.047Z</time></trkpt><trkpt lat="42.2957577" lon="12.209983"><ele>486.0</ele><time>2026-03-28T10:45:02.046Z</time></trkpt><trkpt lat="42.2958116" lon="12.2098119"><ele>487.0</ele><time>2026-03-28T10:45:04.046Z</time></trkpt><trkpt lat="42.2958555" lon="12.2096952"><ele>488.0</ele><time>2026-03-28T10:45:05.049Z</time></trkpt><trkpt lat="42.2959087" lon="12.2095609"><ele>489.0</ele><time>2026-03-28T10:45:06.049Z</time></trkpt><trkpt lat="42.295962" lon="12.2094198"><ele>490.0</ele><time>2026-03-28T10:45:07.049Z</time></trkpt><trkpt lat="42.2960145" lon="12.2092816"><ele>491.0</ele><time>2026-03-28T10:45:08.051Z</time></trkpt><trkpt lat="42.2960609" lon="12.2091256"><ele>492.25</ele><time>2026-03-28T10:45:09.053Z</time></trkpt><trkpt lat="42.2960996" lon="12.208943"><ele>493.5</ele><time>2026-03-28T10:45:10.046Z</time></trkpt><trkpt lat="42.2961432" lon="12.2087592"><ele>494.75</ele><time>2026-03-28T10:45:11.044Z</time></trkpt><trkpt lat="42.2961875" lon="12.2085705"><ele>496.0</ele><time>2026-03-28T10:45:12.049Z</time></trkpt><trkpt lat="42.2962304" lon="12.2084031"><ele>496.0</ele><time>2026-03-28T10:45:13.051Z</time></trkpt><trkpt lat="42.296266" lon="12.2082295"><ele>496.0</ele><time>2026-03-28T10:45:14.055Z</time></trkpt><trkpt lat="42.2963084" lon="12.2080585"><ele>496.0</ele><time>2026-03-28T10:45:15.054Z</time></trkpt><trkpt lat="42.2963543" lon="12.2078808"><ele>496.0</ele><time>2026-03-28T10:45:16.049Z</time></trkpt><trkpt lat="42.2963923" lon="12.2076954"><ele>495.0</ele><time>2026-03-28T10:45:17.058Z</time></trkpt><trkpt lat="42.2964227" lon="12.2075111"><ele>494.0</ele><time>2026-03-28T10:45:18.058Z</time></trkpt><trkpt lat="42.2964559" lon="12.2073357"><ele>493.0</ele><time>2026-03-28T10:45:19.058Z</time></trkpt><trkpt lat="42.2964908" lon="12.207173"><ele>492.0</ele><time>2026-03-28T10:45:20.042Z</time></trkpt><trkpt lat="42.2965462" lon="12.2070232"><ele>494.66666666666663</ele><time>2026-03-28T10:45:21.049Z</time></trkpt><trkpt lat="42.2965713" lon="12.2068562"><ele>497.3333333333333</ele><time>2026-03-28T10:45:22.048Z</time></trkpt><trkpt lat="42.2966139" lon="12.2066631"><ele>500.0</ele><time>2026-03-28T10:45:23.062Z</time></trkpt><trkpt lat="42.296711" lon="12.2064393"><ele>503.3333333333333</ele><time>2026-03-28T10:45:24.045Z</time></trkpt><trkpt lat="42.2968199" lon="12.2062066"><ele>506.66666666666663</ele><time>2026-03-28T10:45:25.045Z</time></trkpt><trkpt lat="42.2969149" lon="12.2060302"><ele>510.0</ele><time>2026-03-28T10:45:26.046Z</time></trkpt><trkpt lat="42.2969654" lon="12.2058639"><ele>510.0</ele><time>2026-03-28T10:45:27.046Z</time></trkpt><trkpt lat="42.2970166" lon="12.2056891"><ele>510.0</ele><time>2026-03-28T10:45:28.046Z</time></trkpt><trkpt lat="42.29712" lon="12.2054846"><ele>510.0</ele><time>2026-03-28T10:45:29.045Z</time></trkpt><trkpt lat="42.297211" lon="12.205275"><ele>513.5</ele><time>2026-03-28T10:45:30.053Z</time></trkpt><trkpt lat="42.2972817" lon="12.2051114"><ele>517.0</ele><time>2026-03-28T10:45:31.039Z</time></trkpt><trkpt lat="42.2973497" lon="12.204936"><ele>520.5</ele><time>2026-03-28T10:45:32.048Z</time></trkpt><trkpt lat="42.2974066" lon="12.20478"><ele>524.0</ele><time>2026-03-28T10:45:33.045Z</time></trkpt><trkpt lat="42.2974577" lon="12.2046238"><ele>525.0</ele><time>2026-03-28T10:45:34.047Z</time></trkpt><trkpt lat="42.2975108" lon="12.2044395"><ele>526.0</ele><time>2026-03-28T10:45:35.046Z</time></trkpt><trkpt lat="42.2975982" lon="12.2042311"><ele>527.0</ele><time>2026-03-28T10:45:36.051Z</time></trkpt><trkpt lat="42.2976837" lon="12.2040134"><ele>526.3333333333333</ele><time>2026-03-28T10:45:37.057Z</time></trkpt><trkpt lat="42.2978" lon="12.2038201"><ele>525.6666666666666</ele><time>2026-03-28T10:45:38.043Z</time></trkpt><trkpt lat="42.2978864" lon="12.2036661"><ele>525.0</ele><time>2026-03-28T10:45:39.043Z</time></trkpt><trkpt lat="42.29798" lon="12.2035123"><ele>526.75</ele><time>2026-03-28T10:45:40.046Z</time></trkpt><trkpt lat="42.298088" lon="12.2033831"><ele>528.5</ele><time>2026-03-28T10:45:41.047Z</time></trkpt><trkpt lat="42.2981907" lon="12.2032473"><ele>530.25</ele><time>2026-03-28T10:45:42.053Z</time></trkpt><trkpt lat="42.2982642" lon="12.2031339"><ele>532.0</ele><time>2026-03-28T10:45:43.051Z</time></trkpt><trkpt lat="42.2983301" lon="12.2030188"><ele>532.8000000000001</ele><time>2026-03-28T10:45:44.043Z</time></trkpt><trkpt lat="42.2983655" lon="12.2029466"><ele>533.6</ele><time>2026-03-28T10:45:45.054Z</time></trkpt><trkpt lat="42.2984404" lon="12.2028297"><ele>534.4000000000001</ele><time>2026-03-28T10:45:46.043Z</time></trkpt><trkpt lat="42.2985199" lon="12.2027101"><ele>535.2</ele><time>2026-03-28T10:45:47.041Z</time></trkpt><trkpt lat="42.2985929" lon="12.202575"><ele>536.0</ele><time>2026-03-28T10:45:48.047Z</time></trkpt><trkpt lat="42.2986677" lon="12.2024272"><ele>537.0</ele><time>2026-03-28T10:45:49.052Z</time></trkpt><trkpt lat="42.2987499" lon="12.2022573"><ele>538.0</ele><time>2026-03-28T10:45:50.051Z</time></trkpt><trkpt lat="42.2988503" lon="12.2020496"><ele>539.0</ele><time>2026-03-28T10:45:51.044Z</time></trkpt><trkpt lat="42.2989553" lon="12.2018527"><ele>541.0</ele><time>2026-03-28T10:45:52.051Z</time></trkpt><trkpt lat="42.2990959" lon="12.2016396"><ele>543.0</ele><time>2026-03-28T10:45:53.047Z</time></trkpt><trkpt lat="42.2991973" lon="12.2014536"><ele>545.0</ele><time>2026-03-28T10:45:54.052Z</time></trkpt><trkpt lat="42.299319" lon="12.2012802"><ele>545.3333333333333</ele><time>2026-03-28T10:45:55.044Z</time></trkpt><trkpt lat="42.2994523" lon="12.2011446"><ele>545.6666666666666</ele><time>2026-03-28T10:45:56.047Z</time></trkpt><trkpt lat="42.2995853" lon="12.2010523"><ele>546.0</ele><time>2026-03-28T10:45:57.049Z</time></trkpt><trkpt lat="42.2997075" lon="12.2009701"><ele>547.0</ele><time>2026-03-28T10:45:58.041Z</time></trkpt><trkpt lat="42.2998886" lon="12.2009223"><ele>548.0</ele><time>2026-03-28T10:45:59.05Z</time></trkpt><trkpt lat="42.3000657" lon="12.2009073"><ele>549.0</ele><time>2026-03-28T10:46:00.043Z</time></trkpt><trkpt lat="42.3002383" lon="12.2009071"><ele>549.0</ele><time>2026-03-28T10:46:01.054Z</time></trkpt><trkpt lat="42.3004115" lon="12.2008887"><ele>549.0</ele><time>2026-03-28T10:46:02.056Z</time></trkpt><trkpt lat="42.3005657" lon="12.2008421"><ele>549.0</ele><time>2026-03-28T10:46:03.05Z</time></trkpt><trkpt lat="42.3007001" lon="12.2008022"><ele>550.0</ele><time>2026-03-28T10:46:04.045Z</time></trkpt><trkpt lat="42.3008282" lon="12.2007674"><ele>551.0</ele><time>2026-03-28T10:46:05.047Z</time></trkpt><trkpt lat="42.300949" lon="12.2007505"><ele>552.0</ele><time>2026-03-28T10:46:06.049Z</time></trkpt><trkpt lat="42.3010669" lon="12.2007001"><ele>553.0</ele><time>2026-03-28T10:46:07.048Z</time></trkpt><trkpt lat="42.3012064" lon="12.2006216"><ele>554.3333333333334</ele><time>2026-03-28T10:46:08.061Z</time></trkpt><trkpt lat="42.3013766" lon="12.2005244"><ele>555.6666666666666</ele><time>2026-03-28T10:46:09.048Z</time></trkpt><trkpt lat="42.3015318" lon="12.2004276"><ele>557.0</ele><time>2026-03-28T10:46:10.053Z</time></trkpt><trkpt lat="42.3016814" lon="12.2003221"><ele>554.0</ele><time>2026-03-28T10:46:11.047Z</time></trkpt><trkpt lat="42.3018306" lon="12.2002261"><ele>551.0</ele><time>2026-03-28T10:46:12.045Z</time></trkpt><trkpt lat="42.3019868" lon="12.2001508"><ele>548.0</ele><time>2026-03-28T10:46:13.049Z</time></trkpt><trkpt lat="42.3021287" lon="12.2000763"><ele>546.5</ele><time>2026-03-28T10:46:14.042Z</time></trkpt><trkpt lat="42.3022655" lon="12.2000114"><ele>545.0</ele><time>2026-03-28T10:46:15.051Z</time></trkpt><trkpt lat="42.3023885" lon="12.1999588"><ele>543.5</ele><time>2026-03-28T10:46:16.051Z</time></trkpt><trkpt lat="42.3025229" lon="12.1998904"><ele>542.0</ele><time>2026-03-28T10:46:17.051Z</time></trkpt><trkpt lat="42.3026585" lon="12.1998312"><ele>541.75</ele><time>2026-03-28T10:46:18.043Z</time></trkpt><trkpt lat="42.3027825" lon="12.1997754"><ele>541.5</ele><time>2026-03-28T10:46:19.045Z</time></trkpt><trkpt lat="42.3029003" lon="12.1997166"><ele>541.25</ele><time>2026-03-28T10:46:20.044Z</time></trkpt><trkpt lat="42.3030257" lon="12.1996401"><ele>541.0</ele><time>2026-03-28T10:46:21.044Z</time></trkpt><trkpt lat="42.3031549" lon="12.1995665"><ele>540.25</ele><time>2026-03-28T10:46:22.049Z</time></trkpt><trkpt lat="42.3032847" lon="12.1995116"><ele>539.5</ele><time>2026-03-28T10:46:23.047Z</time></trkpt><trkpt lat="42.3033865" lon="12.1994611"><ele>538.75</ele><time>2026-03-28T10:46:24.049Z</time></trkpt><trkpt lat="42.303498" lon="12.199456"><ele>538.0</ele><time>2026-03-28T10:46:25.055Z</time></trkpt><trkpt lat="42.3036016" lon="12.199456"><ele>538.0</ele><time>2026-03-28T10:46:26.051Z</time></trkpt><trkpt lat="42.3036999" lon="12.1994674"><ele>538.0</ele><time>2026-03-28T10:46:27.049Z</time></trkpt><trkpt lat="42.30379" lon="12.1995021"><ele>538.0</ele><time>2026-03-28T10:46:28.05Z</time></trkpt><trkpt lat="42.3038793" lon="12.1995472"><ele>538.0</ele><time>2026-03-28T10:46:29.059Z</time></trkpt><trkpt lat="42.3039685" lon="12.1996187"><ele>538.0</ele><time>2026-03-28T10:46:30.053Z</time></trkpt><trkpt lat="42.3040603" lon="12.1996967"><ele>537.0</ele><time>2026-03-28T10:46:31.051Z</time></trkpt><trkpt lat="42.3041444" lon="12.1997895"><ele>536.0</ele><time>2026-03-28T10:46:32.04Z</time></trkpt><trkpt lat="42.3042184" lon="12.1998849"><ele>535.0</ele><time>2026-03-28T10:46:33.045Z</time></trkpt><trkpt lat="42.3042859" lon="12.1999917"><ele>534.0</ele><time>2026-03-28T10:46:34.049Z</time></trkpt><trkpt lat="42.3043735" lon="12.2001164"><ele>533.0</ele><time>2026-03-28T10:46:35.048Z</time></trkpt><trkpt lat="42.3044673" lon="12.2002574"><ele>533.0</ele><time>2026-03-28T10:46:36.044Z</time></trkpt><trkpt lat="42.3045725" lon="12.2004014"><ele>533.0</ele><time>2026-03-28T10:46:37.043Z</time></trkpt><trkpt lat="42.3046645" lon="12.2005401"><ele>533.0</ele><time>2026-03-28T10:46:38.052Z</time></trkpt><trkpt lat="42.3047463" lon="12.2006664"><ele>533.0</ele><time>2026-03-28T10:46:39.047Z</time></trkpt><trkpt lat="42.3048256" lon="12.2007827"><ele>533.25</ele><time>2026-03-28T10:46:40.058Z</time></trkpt><trkpt lat="42.3049096" lon="12.2009103"><ele>533.5</ele><time>2026-03-28T10:46:41.041Z</time></trkpt><trkpt lat="42.304982" lon="12.2010413"><ele>533.75</ele><time>2026-03-28T10:46:42.057Z</time></trkpt><trkpt lat="42.3050619" lon="12.2011616"><ele>534.0</ele><time>2026-03-28T10:46:43.045Z</time></trkpt><trkpt lat="42.3051276" lon="12.2012812"><ele>534.0</ele><time>2026-03-28T10:46:44.054Z</time></trkpt><trkpt lat="42.3051904" lon="12.2013834"><ele>534.0</ele><time>2026-03-28T10:46:45.046Z</time></trkpt><trkpt lat="42.3052486" lon="12.2014819"><ele>534.0</ele><time>2026-03-28T10:46:46.052Z</time></trkpt><trkpt lat="42.3053107" lon="12.2015693"><ele>534.0</ele><time>2026-03-28T10:46:47.046Z</time></trkpt><trkpt lat="42.3053698" lon="12.2016498"><ele>534.0</ele><time>2026-03-28T10:46:48.048Z</time></trkpt><trkpt lat="42.305424" lon="12.2017283"><ele>534.0</ele><time>2026-03-28T10:46:49.045Z</time></trkpt><trkpt lat="42.3054808" lon="12.201832"><ele>535.0</ele><time>2026-03-28T10:46:50.05Z</time></trkpt><trkpt lat="42.305551" lon="12.2019621"><ele>536.0</ele><time>2026-03-28T10:46:51.05Z</time></trkpt><trkpt lat="42.3056467" lon="12.2021149"><ele>537.0</ele><time>2026-03-28T10:46:52.045Z</time></trkpt><trkpt lat="42.3057662" lon="12.2022961"><ele>538.0</ele><time>2026-03-28T10:46:53.044Z</time></trkpt><trkpt lat="42.3059139" lon="12.2025346"><ele>540.0</ele><time>2026-03-28T10:46:54.046Z</time></trkpt><trkpt lat="42.3060732" lon="12.2027884"><ele>542.0</ele><time>2026-03-28T10:46:55.044Z</time></trkpt><trkpt lat="42.3062515" lon="12.2030359"><ele>545.0</ele><time>2026-03-28T10:46:56.046Z</time></trkpt><trkpt lat="42.3064223" lon="12.2032796"><ele>548.0</ele><time>2026-03-28T10:46:57.053Z</time></trkpt><trkpt lat="42.3066032" lon="12.2035182"><ele>548.0</ele><time>2026-03-28T10:46:58.058Z</time></trkpt><trkpt lat="42.3067761" lon="12.2037289"><ele>548.0</ele><time>2026-03-28T10:46:59.051Z</time></trkpt><trkpt lat="42.3069386" lon="12.2039257"><ele>551.0</ele><time>2026-03-28T10:47:00.045Z</time></trkpt><trkpt lat="42.3070894" lon="12.2041193"><ele>554.0</ele><time>2026-03-28T10:47:01.048Z</time></trkpt><trkpt lat="42.3072383" lon="12.2043391"><ele>557.0</ele><time>2026-03-28T10:47:02.051Z</time></trkpt><trkpt lat="42.3074034" lon="12.2045351"><ele>557.0</ele><time>2026-03-28T10:47:03.044Z</time></trkpt><trkpt lat="42.3075741" lon="12.2047153"><ele>557.0</ele><time>2026-03-28T10:47:04.046Z</time></trkpt><trkpt lat="42.3077733" lon="12.2048788"><ele>560.3333333333333</ele><time>2026-03-28T10:47:05.05Z</time></trkpt><trkpt lat="42.307971" lon="12.2050363"><ele>563.6666666666666</ele><time>2026-03-28T10:47:06.045Z</time></trkpt><trkpt lat="42.3081574" lon="12.2051824"><ele>567.0</ele><time>2026-03-28T10:47:07.051Z</time></trkpt><trkpt lat="42.3083642" lon="12.2053001"><ele>567.0</ele><time>2026-03-28T10:47:08.043Z</time></trkpt><trkpt lat="42.3086066" lon="12.2054165"><ele>567.0</ele><time>2026-03-28T10:47:09.042Z</time></trkpt><trkpt lat="42.3088143" lon="12.2055373"><ele>568.6666666666666</ele><time>2026-03-28T10:47:10.045Z</time></trkpt><trkpt lat="42.3090186" lon="12.2056326"><ele>570.3333333333333</ele><time>2026-03-28T10:47:11.043Z</time></trkpt><trkpt lat="42.309198" lon="12.2057471"><ele>572.0</ele><time>2026-03-28T10:47:12.046Z</time></trkpt><trkpt lat="42.3093385" lon="12.2058883"><ele>575.0</ele><time>2026-03-28T10:47:13.041Z</time></trkpt><trkpt lat="42.3094688" lon="12.2060478"><ele>578.0</ele><time>2026-03-28T10:47:14.06Z</time></trkpt><trkpt lat="42.3095788" lon="12.2062402"><ele>581.0</ele><time>2026-03-28T10:47:15.05Z</time></trkpt><trkpt lat="42.3097081" lon="12.2064118"><ele>583.0</ele><time>2026-03-28T10:47:16.055Z</time></trkpt><trkpt lat="42.309872" lon="12.2065724"><ele>585.0</ele><time>2026-03-28T10:47:17.047Z</time></trkpt><trkpt lat="42.3100374" lon="12.2067339"><ele>587.0</ele><time>2026-03-28T10:47:18.047Z</time></trkpt><trkpt lat="42.3101964" lon="12.2069259"><ele>587.0</ele><time>2026-03-28T10:47:19.045Z</time></trkpt><trkpt lat="42.310357" lon="12.2070942"><ele>587.0</ele><time>2026-03-28T10:47:20.048Z</time></trkpt><trkpt lat="42.3105234" lon="12.2072467"><ele>587.0</ele><time>2026-03-28T10:47:21.051Z</time></trkpt><trkpt lat="42.3106669" lon="12.2074324"><ele>589.0</ele><time>2026-03-28T10:47:22.059Z</time></trkpt><trkpt lat="42.3107946" lon="12.2076282"><ele>591.0</ele><time>2026-03-28T10:47:23.046Z</time></trkpt><trkpt lat="42.3109652" lon="12.2077962"><ele>593.0</ele><time>2026-03-28T10:47:24.057Z</time></trkpt><trkpt lat="42.311137" lon="12.2079692"><ele>593.0</ele><time>2026-03-28T10:47:25.048Z</time></trkpt><trkpt lat="42.3112688" lon="12.2081483"><ele>593.0</ele><time>2026-03-28T10:47:26.053Z</time></trkpt><trkpt lat="42.3114093" lon="12.2083163"><ele>593.0</ele><time>2026-03-28T10:47:27.043Z</time></trkpt><trkpt lat="42.3115595" lon="12.2084973"><ele>594.3333333333333</ele><time>2026-03-28T10:47:28.05Z</time></trkpt><trkpt lat="42.3117117" lon="12.2086634"><ele>595.6666666666666</ele><time>2026-03-28T10:47:29.055Z</time></trkpt><trkpt lat="42.3118719" lon="12.2088411"><ele>597.0</ele><time>2026-03-28T10:47:30.049Z</time></trkpt><trkpt lat="42.3120415" lon="12.2089908"><ele>598.0</ele><time>2026-03-28T10:47:31.051Z</time></trkpt><trkpt lat="42.3122355" lon="12.2091014"><ele>599.0</ele><time>2026-03-28T10:47:32.052Z</time></trkpt><trkpt lat="42.3124387" lon="12.2091893"><ele>600.0</ele><time>2026-03-28T10:47:33.049Z</time></trkpt><trkpt lat="42.3126302" lon="12.2092633"><ele>600.0</ele><time>2026-03-28T10:47:34.044Z</time></trkpt><trkpt lat="42.31283" lon="12.2093021"><ele>600.0</ele><time>2026-03-28T10:47:35.055Z</time></trkpt><trkpt lat="42.3130257" lon="12.2093834"><ele>600.0</ele><time>2026-03-28T10:47:36.043Z</time></trkpt><trkpt lat="42.3132288" lon="12.2094645"><ele>601.3333333333334</ele><time>2026-03-28T10:47:37.055Z</time></trkpt><trkpt lat="42.3134418" lon="12.2095281"><ele>602.6666666666667</ele><time>2026-03-28T10:47:38.043Z</time></trkpt><trkpt lat="42.3136577" lon="12.209586"><ele>604.0</ele><time>2026-03-28T10:47:39.056Z</time></trkpt><trkpt lat="42.3138542" lon="12.209665"><ele>605.0</ele><time>2026-03-28T10:47:40.046Z</time></trkpt><trkpt lat="42.3140284" lon="12.2097486"><ele>606.0</ele><time>2026-03-28T10:47:41.055Z</time></trkpt><trkpt lat="42.3142217" lon="12.2097939"><ele>607.0</ele><time>2026-03-28T10:47:42.051Z</time></trkpt><trkpt lat="42.3144137" lon="12.2098668"><ele>607.0</ele><time>2026-03-28T10:47:43.054Z</time></trkpt><trkpt lat="42.3146133" lon="12.2099345"><ele>607.0</ele><time>2026-03-28T10:47:44.049Z</time></trkpt><trkpt lat="42.3148006" lon="12.2099723"><ele>607.0</ele><time>2026-03-28T10:47:45.055Z</time></trkpt><trkpt lat="42.3150064" lon="12.2099916"><ele>608.6666666666667</ele><time>2026-03-28T10:47:46.049Z</time></trkpt><trkpt lat="42.3152209" lon="12.2099802"><ele>610.3333333333334</ele><time>2026-03-28T10:47:47.045Z</time></trkpt><trkpt lat="42.3154196" lon="12.2099703"><ele>612.0</ele><time>2026-03-28T10:47:48.056Z</time></trkpt><trkpt lat="42.3156206" lon="12.2099716"><ele>612.3333333333334</ele><time>2026-03-28T10:47:49.055Z</time></trkpt><trkpt lat="42.315818" lon="12.2099454"><ele>612.6666666666667</ele><time>2026-03-28T10:47:50.048Z</time></trkpt><trkpt lat="42.3160037" lon="12.2099143"><ele>613.0</ele><time>2026-03-28T10:47:51.045Z</time></trkpt><trkpt lat="42.3161811" lon="12.2099013"><ele>613.0</ele><time>2026-03-28T10:47:52.056Z</time></trkpt><trkpt lat="42.3163665" lon="12.2098874"><ele>613.0</ele><time>2026-03-28T10:47:53.053Z</time></trkpt><trkpt lat="42.3165304" lon="12.209889"><ele>613.0</ele><time>2026-03-28T10:47:54.05Z</time></trkpt><trkpt lat="42.3166827" lon="12.2099097"><ele>614.0</ele><time>2026-03-28T10:47:55.044Z</time></trkpt><trkpt lat="42.3168517" lon="12.2099279"><ele>615.0</ele><time>2026-03-28T10:47:56.046Z</time></trkpt><trkpt lat="42.317014" lon="12.2099864"><ele>616.0</ele><time>2026-03-28T10:47:57.051Z</time></trkpt><trkpt lat="42.3171631" lon="12.2100761"><ele>617.3333333333334</ele><time>2026-03-28T10:47:58.047Z</time></trkpt><trkpt lat="42.317285" lon="12.2101864"><ele>618.6666666666666</ele><time>2026-03-28T10:47:59.054Z</time></trkpt><trkpt lat="42.3174272" lon="12.2103072"><ele>620.0</ele><time>2026-03-28T10:48:00.043Z</time></trkpt><trkpt lat="42.3175657" lon="12.2104225"><ele>620.0</ele><time>2026-03-28T10:48:01.044Z</time></trkpt><trkpt lat="42.3177177" lon="12.2105479"><ele>620.0</ele><time>2026-03-28T10:48:02.053Z</time></trkpt><trkpt lat="42.3178779" lon="12.2106706"><ele>620.0</ele><time>2026-03-28T10:48:03.056Z</time></trkpt><trkpt lat="42.3180416" lon="12.2107925"><ele>621.0</ele><time>2026-03-28T10:48:04.049Z</time></trkpt><trkpt lat="42.3182179" lon="12.2109267"><ele>622.0</ele><time>2026-03-28T10:48:05.061Z</time></trkpt><trkpt lat="42.3183705" lon="12.2111081"><ele>623.0</ele><time>2026-03-28T10:48:06.044Z</time></trkpt><trkpt lat="42.3185623" lon="12.2112694"><ele>623.0</ele><time>2026-03-28T10:48:07.053Z</time></trkpt><trkpt lat="42.3187535" lon="12.2114351"><ele>623.0</ele><time>2026-03-28T10:48:08.052Z</time></trkpt><trkpt lat="42.318976" lon="12.2116022"><ele>626.0</ele><time>2026-03-28T10:48:09.057Z</time></trkpt><trkpt lat="42.3191838" lon="12.2117749"><ele>629.0</ele><time>2026-03-28T10:48:10.044Z</time></trkpt><trkpt lat="42.3194082" lon="12.2119372"><ele>629.0</ele><time>2026-03-28T10:48:11.047Z</time></trkpt><trkpt lat="42.3196456" lon="12.2120937"><ele>629.0</ele><time>2026-03-28T10:48:12.051Z</time></trkpt><trkpt lat="42.3199073" lon="12.2122533"><ele>631.0</ele><time>2026-03-28T10:48:13.051Z</time></trkpt><trkpt lat="42.3201886" lon="12.2124183"><ele>633.0</ele><time>2026-03-28T10:48:14.056Z</time></trkpt><trkpt lat="42.3204887" lon="12.2125902"><ele>635.5</ele><time>2026-03-28T10:48:15.056Z</time></trkpt><trkpt lat="42.3207766" lon="12.2127683"><ele>638.0</ele><time>2026-03-28T10:48:16.045Z</time></trkpt><trkpt lat="42.3210611" lon="12.2129358"><ele>638.0</ele><time>2026-03-28T10:48:17.048Z</time></trkpt><trkpt lat="42.3213187" lon="12.2131052"><ele>638.0</ele><time>2026-03-28T10:48:18.059Z</time></trkpt><trkpt lat="42.3215932" lon="12.2132588"><ele>641.5</ele><time>2026-03-28T10:48:19.04Z</time></trkpt><trkpt lat="42.3218349" lon="12.2134027"><ele>645.0</ele><time>2026-03-28T10:48:20.048Z</time></trkpt><trkpt lat="42.3220525" lon="12.2135499"><ele>647.5</ele><time>2026-03-28T10:48:21.046Z</time></trkpt><trkpt lat="42.322274" lon="12.2136708"><ele>650.0</ele><time>2026-03-28T10:48:22.05Z</time></trkpt><trkpt lat="42.3224896" lon="12.2138076"><ele>650.0</ele><time>2026-03-28T10:48:23.048Z</time></trkpt><trkpt lat="42.3227125" lon="12.2139238"><ele>650.0</ele><time>2026-03-28T10:48:24.051Z</time></trkpt><trkpt lat="42.3229438" lon="12.2140284"><ele>652.3333333333333</ele><time>2026-03-28T10:48:25.043Z</time></trkpt><trkpt lat="42.3231483" lon="12.214131"><ele>654.6666666666666</ele><time>2026-03-28T10:48:26.05Z</time></trkpt><trkpt lat="42.3233657" lon="12.21421"><ele>657.0</ele><time>2026-03-28T10:48:27.046Z</time></trkpt><trkpt lat="42.3235753" lon="12.2142906"><ele>657.0</ele><time>2026-03-28T10:48:28.049Z</time></trkpt><trkpt lat="42.3238114" lon="12.2143578"><ele>657.0</ele><time>2026-03-28T10:48:29.05Z</time></trkpt><trkpt lat="42.3240432" lon="12.2144388"><ele>659.0</ele><time>2026-03-28T10:48:30.045Z</time></trkpt><trkpt lat="42.3242698" lon="12.2145065"><ele>661.0</ele><time>2026-03-28T10:48:31.046Z</time></trkpt><trkpt lat="42.3244512" lon="12.2145693"><ele>663.0</ele><time>2026-03-28T10:48:32.046Z</time></trkpt><trkpt lat="42.3246625" lon="12.2146232"><ele>663.6666666666666</ele><time>2026-03-28T10:48:33.048Z</time></trkpt><trkpt lat="42.3248664" lon="12.2146482"><ele>664.3333333333333</ele><time>2026-03-28T10:48:34.045Z</time></trkpt><trkpt lat="42.3250689" lon="12.2146625"><ele>665.0</ele><time>2026-03-28T10:48:35.047Z</time></trkpt><trkpt lat="42.3252429" lon="12.2146776"><ele>665.0</ele><time>2026-03-28T10:48:36.061Z</time></trkpt><trkpt lat="42.3254623" lon="12.2146575"><ele>665.0</ele><time>2026-03-28T10:48:37.041Z</time></trkpt><trkpt lat="42.3256681" lon="12.2146459"><ele>665.0</ele><time>2026-03-28T10:48:38.059Z</time></trkpt><trkpt lat="42.3258648" lon="12.2146384"><ele>666.3333333333333</ele><time>2026-03-28T10:48:39.05Z</time></trkpt><trkpt lat="42.3260848" lon="12.2146285"><ele>667.6666666666666</ele><time>2026-03-28T10:48:40.046Z</time></trkpt><trkpt lat="42.3262823" lon="12.2146203"><ele>669.0</ele><time>2026-03-28T10:48:41.044Z</time></trkpt><trkpt lat="42.3264753" lon="12.2146258"><ele>669.3333333333334</ele><time>2026-03-28T10:48:42.047Z</time></trkpt><trkpt lat="42.3266521" lon="12.2146208"><ele>669.6666666666667</ele><time>2026-03-28T10:48:43.041Z</time></trkpt><trkpt lat="42.3268183" lon="12.2146146"><ele>670.0</ele><time>2026-03-28T10:48:44.047Z</time></trkpt><trkpt lat="42.3269853" lon="12.2146127"><ele>670.0</ele><time>2026-03-28T10:48:45.045Z</time></trkpt><trkpt lat="42.3271623" lon="12.21464"><ele>670.0</ele><time>2026-03-28T10:48:46.046Z</time></trkpt><trkpt lat="42.3273315" lon="12.2146654"><ele>670.0</ele><time>2026-03-28T10:48:47.048Z</time></trkpt><trkpt lat="42.3274835" lon="12.214698"><ele>671.0</ele><time>2026-03-28T10:48:48.051Z</time></trkpt><trkpt lat="42.3275919" lon="12.2147464"><ele>672.0</ele><time>2026-03-28T10:48:49.048Z</time></trkpt><trkpt lat="42.3277253" lon="12.2147841"><ele>673.0</ele><time>2026-03-28T10:48:50.047Z</time></trkpt><trkpt lat="42.3278315" lon="12.2148093"><ele>674.0</ele><time>2026-03-28T10:48:51.053Z</time></trkpt><trkpt lat="42.3279223" lon="12.2148214"><ele>675.0</ele><time>2026-03-28T10:48:52.046Z</time></trkpt><trkpt lat="42.3279943" lon="12.2147668"><ele>675.0</ele><time>2026-03-28T10:48:54.051Z</time></trkpt><trkpt lat="42.3279854" lon="12.2146403"><ele>675.0</ele><time>2026-03-28T10:48:56.044Z</time></trkpt><trkpt lat="42.3279571" lon="12.2145578"><ele>675.0</ele><time>2026-03-28T10:48:57.045Z</time></trkpt><trkpt lat="42.3279102" lon="12.2144578"><ele>675.0</ele><time>2026-03-28T10:48:58.043Z</time></trkpt><trkpt lat="42.3278508" lon="12.2143455"><ele>675.0</ele><time>2026-03-28T10:48:59.05Z</time></trkpt><trkpt lat="42.3277871" lon="12.2142315"><ele>675.0</ele><time>2026-03-28T10:49:00.048Z</time></trkpt><trkpt lat="42.3277053" lon="12.2141358"><ele>675.0</ele><time>2026-03-28T10:49:01.049Z</time></trkpt><trkpt lat="42.327609" lon="12.2140602"><ele>675.0</ele><time>2026-03-28T10:49:02.055Z</time></trkpt><trkpt lat="42.3274993" lon="12.2139969"><ele>675.0</ele><time>2026-03-28T10:49:03.053Z</time></trkpt><trkpt lat="42.3274089" lon="12.2139157"><ele>675.0</ele><time>2026-03-28T10:49:04.045Z</time></trkpt><trkpt lat="42.3273492" lon="12.213821"><ele>672.4</ele><time>2026-03-28T10:49:05.046Z</time></trkpt><trkpt lat="42.3273322" lon="12.2137051"><ele>669.8</ele><time>2026-03-28T10:49:06.046Z</time></trkpt><trkpt lat="42.3273641" lon="12.2135871"><ele>667.2</ele><time>2026-03-28T10:49:07.052Z</time></trkpt><trkpt lat="42.3274432" lon="12.2134754"><ele>664.6</ele><time>2026-03-28T10:49:08.043Z</time></trkpt><trkpt lat="42.3275499" lon="12.2133931"><ele>662.0</ele><time>2026-03-28T10:49:09.053Z</time></trkpt><trkpt lat="42.3276712" lon="12.2133298"><ele>662.0</ele><time>2026-03-28T10:49:10.043Z</time></trkpt><trkpt lat="42.3277936" lon="12.2132876"><ele>662.0</ele><time>2026-03-28T10:49:11.045Z</time></trkpt><trkpt lat="42.3279039" lon="12.2132651"><ele>662.0</ele><time>2026-03-28T10:49:12.047Z</time></trkpt><trkpt lat="42.3280185" lon="12.2132736"><ele>662.0</ele><time>2026-03-28T10:49:13.04Z</time></trkpt><trkpt lat="42.3281416" lon="12.2133383"><ele>659.75</ele><time>2026-03-28T10:49:14.042Z</time></trkpt><trkpt lat="42.3282561" lon="12.2134302"><ele>657.5</ele><time>2026-03-28T10:49:15.057Z</time></trkpt><trkpt lat="42.3283614" lon="12.2135346"><ele>655.25</ele><time>2026-03-28T10:49:16.042Z</time></trkpt><trkpt lat="42.3284642" lon="12.2136276"><ele>653.0</ele><time>2026-03-28T10:49:17.04Z</time></trkpt><trkpt lat="42.3285875" lon="12.2137048"><ele>653.0</ele><time>2026-03-28T10:49:18.044Z</time></trkpt><trkpt lat="42.3287116" lon="12.2137641"><ele>653.0</ele><time>2026-03-28T10:49:19.047Z</time></trkpt><trkpt lat="42.3288387" lon="12.213803"><ele>653.0</ele><time>2026-03-28T10:49:20.049Z</time></trkpt><trkpt lat="42.3289564" lon="12.2138223"><ele>653.0</ele><time>2026-03-28T10:49:21.042Z</time></trkpt><trkpt lat="42.329084" lon="12.2138299"><ele>651.8</ele><time>2026-03-28T10:49:22.05Z</time></trkpt><trkpt lat="42.3291899" lon="12.2138007"><ele>650.5999999999999</ele><time>2026-03-28T10:49:23.045Z</time></trkpt><trkpt lat="42.3292792" lon="12.2137544"><ele>649.4000000000001</ele><time>2026-03-28T10:49:24.044Z</time></trkpt><trkpt lat="42.3293489" lon="12.2136425"><ele>648.2</ele><time>2026-03-28T10:49:25.057Z</time></trkpt><trkpt lat="42.3294022" lon="12.2135144"><ele>647.0</ele><time>2026-03-28T10:49:26.046Z</time></trkpt><trkpt lat="42.3294436" lon="12.2133715"><ele>647.0</ele><time>2026-03-28T10:49:27.047Z</time></trkpt><trkpt lat="42.3294919" lon="12.2132638"><ele>647.0</ele><time>2026-03-28T10:49:28.059Z</time></trkpt><trkpt lat="42.3295662" lon="12.2131877"><ele>647.0</ele><time>2026-03-28T10:49:29.041Z</time></trkpt><trkpt lat="42.3296545" lon="12.2131835"><ele>647.0</ele><time>2026-03-28T10:49:30.05Z</time></trkpt><trkpt lat="42.3297514" lon="12.2131922"><ele>647.0</ele><time>2026-03-28T10:49:31.04Z</time></trkpt><trkpt lat="42.3298606" lon="12.2132993"><ele>647.6666666666666</ele><time>2026-03-28T10:49:32.039Z</time></trkpt><trkpt lat="42.3299854" lon="12.2134059"><ele>648.3333333333334</ele><time>2026-03-28T10:49:33.048Z</time></trkpt><trkpt lat="42.3301244" lon="12.2135363"><ele>649.0</ele><time>2026-03-28T10:49:34.045Z</time></trkpt><trkpt lat="42.3302737" lon="12.2136034"><ele>649.0</ele><time>2026-03-28T10:49:35.059Z</time></trkpt><trkpt lat="42.3303698" lon="12.2135895"><ele>649.0</ele><time>2026-03-28T10:49:36.046Z</time></trkpt><trkpt lat="42.3304353" lon="12.2135271"><ele>649.0</ele><time>2026-03-28T10:49:37.042Z</time></trkpt><trkpt lat="42.3305162" lon="12.2133852"><ele>649.0</ele><time>2026-03-28T10:49:38.048Z</time></trkpt><trkpt lat="42.3305822" lon="12.2132242"><ele>649.0</ele><time>2026-03-28T10:49:39.048Z</time></trkpt><trkpt lat="42.3306718" lon="12.2130869"><ele>644.6666666666667</ele><time>2026-03-28T10:49:40.051Z</time></trkpt><trkpt lat="42.3307472" lon="12.2129618"><ele>640.3333333333334</ele><time>2026-03-28T10:49:41.058Z</time></trkpt><trkpt lat="42.3308151" lon="12.2128876"><ele>636.0</ele><time>2026-03-28T10:49:42.046Z</time></trkpt><trkpt lat="42.3308865" lon="12.2128639"><ele>631.6666666666666</ele><time>2026-03-28T10:49:43.047Z</time></trkpt><trkpt lat="42.3309648" lon="12.2128732"><ele>627.3333333333333</ele><time>2026-03-28T10:49:44.045Z</time></trkpt><trkpt lat="42.3310528" lon="12.2129019"><ele>623.0</ele><time>2026-03-28T10:49:45.05Z</time></trkpt><trkpt lat="42.3311718" lon="12.2129739"><ele>623.0</ele><time>2026-03-28T10:49:46.048Z</time></trkpt><trkpt lat="42.3313067" lon="12.2130629"><ele>623.0</ele><time>2026-03-28T10:49:47.044Z</time></trkpt><trkpt lat="42.3314438" lon="12.2131492"><ele>623.0</ele><time>2026-03-28T10:49:48.048Z</time></trkpt><trkpt lat="42.3315771" lon="12.2132274"><ele>623.0</ele><time>2026-03-28T10:49:49.054Z</time></trkpt><trkpt lat="42.3316971" lon="12.2132981"><ele>626.5999999999999</ele><time>2026-03-28T10:49:50.055Z</time></trkpt><trkpt lat="42.3318108" lon="12.2133554"><ele>630.1999999999999</ele><time>2026-03-28T10:49:51.04Z</time></trkpt><trkpt lat="42.331918" lon="12.2133884"><ele>633.8</ele><time>2026-03-28T10:49:52.047Z</time></trkpt><trkpt lat="42.33201" lon="12.2133706"><ele>637.4</ele><time>2026-03-28T10:49:53.049Z</time></trkpt><trkpt lat="42.3320919" lon="12.2133408"><ele>641.0</ele><time>2026-03-28T10:49:54.049Z</time></trkpt><trkpt lat="42.3321577" lon="12.2132687"><ele>641.0</ele><time>2026-03-28T10:49:55.054Z</time></trkpt><trkpt lat="42.3321964" lon="12.2131848"><ele>641.0</ele><time>2026-03-28T10:49:56.042Z</time></trkpt><trkpt lat="42.3322204" lon="12.2130455"><ele>641.0</ele><time>2026-03-28T10:49:57.054Z</time></trkpt><trkpt lat="42.3322544" lon="12.2128569"><ele>641.0</ele><time>2026-03-28T10:49:58.054Z</time></trkpt><trkpt lat="42.3322939" lon="12.2126424"><ele>638.5</ele><time>2026-03-28T10:49:59.054Z</time></trkpt><trkpt lat="42.3323303" lon="12.2124355"><ele>636.0</ele><time>2026-03-28T10:50:00.048Z</time></trkpt><trkpt lat="42.3323648" lon="12.2122472"><ele>633.5</ele><time>2026-03-28T10:50:01.047Z</time></trkpt><trkpt lat="42.3323954" lon="12.2120938"><ele>631.0</ele><time>2026-03-28T10:50:02.054Z</time></trkpt><trkpt lat="42.3324336" lon="12.2119384"><ele>627.4</ele><time>2026-03-28T10:50:03.046Z</time></trkpt><trkpt lat="42.332498" lon="12.2118115"><ele>623.8</ele><time>2026-03-28T10:50:04.054Z</time></trkpt><trkpt lat="42.3325741" lon="12.2117094"><ele>620.1999999999999</ele><time>2026-03-28T10:50:05.046Z</time></trkpt><trkpt lat="42.332659" lon="12.2116482"><ele>616.6</ele><time>2026-03-28T10:50:06.043Z</time></trkpt><trkpt lat="42.3327582" lon="12.2116361"><ele>613.0</ele><time>2026-03-28T10:50:07.041Z</time></trkpt><trkpt lat="42.3328685" lon="12.2116558"><ele>613.0</ele><time>2026-03-28T10:50:08.043Z</time></trkpt><trkpt lat="42.332986" lon="12.2117123"><ele>613.0</ele><time>2026-03-28T10:50:09.048Z</time></trkpt><trkpt lat="42.3331038" lon="12.2117589"><ele>613.0</ele><time>2026-03-28T10:50:10.043Z</time></trkpt><trkpt lat="42.3332139" lon="12.2117931"><ele>613.0</ele><time>2026-03-28T10:50:11.045Z</time></trkpt><trkpt lat="42.3333201" lon="12.2118359"><ele>614.6</ele><time>2026-03-28T10:50:12.048Z</time></trkpt><trkpt lat="42.3334137" lon="12.2118247"><ele>616.1999999999999</ele><time>2026-03-28T10:50:13.051Z</time></trkpt><trkpt lat="42.3335005" lon="12.211771"><ele>617.8</ele><time>2026-03-28T10:50:14.047Z</time></trkpt><trkpt lat="42.3335723" lon="12.2116713"><ele>619.4</ele><time>2026-03-28T10:50:15.051Z</time></trkpt><trkpt lat="42.333644" lon="12.2115205"><ele>621.0</ele><time>2026-03-28T10:50:16.051Z</time></trkpt><trkpt lat="42.3337142" lon="12.2113735"><ele>617.6</ele><time>2026-03-28T10:50:17.053Z</time></trkpt><trkpt lat="42.3337825" lon="12.2112495"><ele>614.2</ele><time>2026-03-28T10:50:18.065Z</time></trkpt><trkpt lat="42.333866" lon="12.2111754"><ele>610.8</ele><time>2026-03-28T10:50:19.045Z</time></trkpt><trkpt lat="42.3339647" lon="12.2111291"><ele>607.4</ele><time>2026-03-28T10:50:20.052Z</time></trkpt><trkpt lat="42.3340846" lon="12.2111056"><ele>604.0</ele><time>2026-03-28T10:50:21.047Z</time></trkpt><trkpt lat="42.334213" lon="12.2110732"><ele>604.0</ele><time>2026-03-28T10:50:22.057Z</time></trkpt><trkpt lat="42.3343424" lon="12.2110298"><ele>604.0</ele><time>2026-03-28T10:50:23.042Z</time></trkpt><trkpt lat="42.3344801" lon="12.210967"><ele>604.0</ele><time>2026-03-28T10:50:24.052Z</time></trkpt><trkpt lat="42.334606" lon="12.2108993"><ele>604.0</ele><time>2026-03-28T10:50:25.051Z</time></trkpt><trkpt lat="42.3347221" lon="12.2108166"><ele>606.25</ele><time>2026-03-28T10:50:26.04Z</time></trkpt><trkpt lat="42.3348196" lon="12.2107102"><ele>608.5</ele><time>2026-03-28T10:50:27.052Z</time></trkpt><trkpt lat="42.3348673" lon="12.2105555"><ele>610.75</ele><time>2026-03-28T10:50:28.041Z</time></trkpt><trkpt lat="42.3349075" lon="12.2103736"><ele>613.0</ele><time>2026-03-28T10:50:29.054Z</time></trkpt><trkpt lat="42.3349271" lon="12.210204"><ele>613.0</ele><time>2026-03-28T10:50:30.047Z</time></trkpt><trkpt lat="42.3349588" lon="12.2100437"><ele>613.0</ele><time>2026-03-28T10:50:31.043Z</time></trkpt><trkpt lat="42.3349854" lon="12.2098671"><ele>613.0</ele><time>2026-03-28T10:50:32.053Z</time></trkpt><trkpt lat="42.3350163" lon="12.2097259"><ele>613.0</ele><time>2026-03-28T10:50:33.048Z</time></trkpt><trkpt lat="42.3350712" lon="12.2096047"><ele>608.6</ele><time>2026-03-28T10:50:34.041Z</time></trkpt><trkpt lat="42.3351374" lon="12.2095054"><ele>604.1999999999999</ele><time>2026-03-28T10:50:35.045Z</time></trkpt><trkpt lat="42.335204" lon="12.2094183"><ele>599.8</ele><time>2026-03-28T10:50:36.045Z</time></trkpt><trkpt lat="42.3352968" lon="12.2093343"><ele>595.4</ele><time>2026-03-28T10:50:37.04Z</time></trkpt><trkpt lat="42.3353998" lon="12.2092478"><ele>591.0</ele><time>2026-03-28T10:50:38.05Z</time></trkpt><trkpt lat="42.3355012" lon="12.2091361"><ele>590.5</ele><time>2026-03-28T10:50:39.059Z</time></trkpt><trkpt lat="42.335599" lon="12.2090036"><ele>590.0</ele><time>2026-03-28T10:50:40.047Z</time></trkpt><trkpt lat="42.3356902" lon="12.208873"><ele>589.5</ele><time>2026-03-28T10:50:41.054Z</time></trkpt><trkpt lat="42.3357823" lon="12.2087499"><ele>589.0</ele><time>2026-03-28T10:50:42.043Z</time></trkpt><trkpt lat="42.3358805" lon="12.208647"><ele>589.0</ele><time>2026-03-28T10:50:43.049Z</time></trkpt><trkpt lat="42.3359779" lon="12.2085646"><ele>589.0</ele><time>2026-03-28T10:50:44.047Z</time></trkpt><trkpt lat="42.3360791" lon="12.2084923"><ele>589.0</ele><time>2026-03-28T10:50:45.054Z</time></trkpt><trkpt lat="42.3361757" lon="12.2084562"><ele>589.0</ele><time>2026-03-28T10:50:46.046Z</time></trkpt><trkpt lat="42.3362837" lon="12.2084468"><ele>589.0</ele><time>2026-03-28T10:50:47.039Z</time></trkpt><trkpt lat="42.3364008" lon="12.2084568"><ele>589.75</ele><time>2026-03-28T10:50:48.046Z</time></trkpt><trkpt lat="42.3365221" lon="12.2084688"><ele>590.5</ele><time>2026-03-28T10:50:49.051Z</time></trkpt><trkpt lat="42.3366389" lon="12.2084927"><ele>591.25</ele><time>2026-03-28T10:50:50.045Z</time></trkpt><trkpt lat="42.3367523" lon="12.2085125"><ele>592.0</ele><time>2026-03-28T10:50:51.053Z</time></trkpt><trkpt lat="42.3368609" lon="12.208564"><ele>592.0</ele><time>2026-03-28T10:50:52.045Z</time></trkpt><trkpt lat="42.3369902" lon="12.2086151"><ele>592.0</ele><time>2026-03-28T10:50:53.056Z</time></trkpt><trkpt lat="42.3371222" lon="12.2086735"><ele>592.0</ele><time>2026-03-28T10:50:54.047Z</time></trkpt><trkpt lat="42.3372534" lon="12.2087326"><ele>592.0</ele><time>2026-03-28T10:50:55.045Z</time></trkpt><trkpt lat="42.3373854" lon="12.2087819"><ele>588.0</ele><time>2026-03-28T10:50:56.048Z</time></trkpt><trkpt lat="42.33752" lon="12.208827"><ele>584.0</ele><time>2026-03-28T10:50:57.055Z</time></trkpt><trkpt lat="42.3376357" lon="12.2088773"><ele>580.0</ele><time>2026-03-28T10:50:58.045Z</time></trkpt><trkpt lat="42.3377536" lon="12.2089147"><ele>576.0</ele><time>2026-03-28T10:50:59.043Z</time></trkpt><trkpt lat="42.3378726" lon="12.2089437"><ele>576.0</ele><time>2026-03-28T10:51:00.046Z</time></trkpt><trkpt lat="42.3380081" lon="12.2089414"><ele>576.0</ele><time>2026-03-28T10:51:01.045Z</time></trkpt><trkpt lat="42.33814" lon="12.2089087"><ele>576.0</ele><time>2026-03-28T10:51:02.05Z</time></trkpt><trkpt lat="42.3382762" lon="12.208873"><ele>576.0</ele><time>2026-03-28T10:51:03.044Z</time></trkpt><trkpt lat="42.338402" lon="12.2088533"><ele>574.0</ele><time>2026-03-28T10:51:04.043Z</time></trkpt><trkpt lat="42.3385347" lon="12.2088227"><ele>572.0</ele><time>2026-03-28T10:51:05.045Z</time></trkpt><trkpt lat="42.3386963" lon="12.2087934"><ele>570.0</ele><time>2026-03-28T10:51:06.052Z</time></trkpt><trkpt lat="42.3388232" lon="12.2087565"><ele>568.0</ele><time>2026-03-28T10:51:07.042Z</time></trkpt><trkpt lat="42.3389444" lon="12.2087056"><ele>567.25</ele><time>2026-03-28T10:51:08.058Z</time></trkpt><trkpt lat="42.3390308" lon="12.208621"><ele>566.5</ele><time>2026-03-28T10:51:09.041Z</time></trkpt><trkpt lat="42.3391572" lon="12.2085219"><ele>565.75</ele><time>2026-03-28T10:51:10.046Z</time></trkpt><trkpt lat="42.339237" lon="12.2084108"><ele>565.0</ele><time>2026-03-28T10:51:11.047Z</time></trkpt><trkpt lat="42.3393092" lon="12.2083002"><ele>565.0</ele><time>2026-03-28T10:51:12.042Z</time></trkpt><trkpt lat="42.3393593" lon="12.2082194"><ele>565.0</ele><time>2026-03-28T10:51:13.046Z</time></trkpt><trkpt lat="42.3393982" lon="12.2081086"><ele>565.0</ele><time>2026-03-28T10:51:15.042Z</time></trkpt><trkpt lat="42.3393221" lon="12.2080181"><ele>565.0</ele><time>2026-03-28T10:51:19.048Z</time></trkpt><trkpt lat="42.3392015" lon="12.2080183"><ele>565.0</ele><time>2026-03-28T10:51:21.047Z</time></trkpt><trkpt lat="42.3391221" lon="12.2080217"><ele>563.2</ele><time>2026-03-28T10:51:22.052Z</time></trkpt><trkpt lat="42.3390439" lon="12.2080179"><ele>561.4</ele><time>2026-03-28T10:51:23.045Z</time></trkpt><trkpt lat="42.3389528" lon="12.2080042"><ele>559.6</ele><time>2026-03-28T10:51:24.051Z</time></trkpt><trkpt lat="42.3388606" lon="12.2080014"><ele>557.8</ele><time>2026-03-28T10:51:25.045Z</time></trkpt><trkpt lat="42.338758" lon="12.207998"><ele>556.0</ele><time>2026-03-28T10:51:26.047Z</time></trkpt><trkpt lat="42.3386597" lon="12.2079878"><ele>555.2</ele><time>2026-03-28T10:51:27.05Z</time></trkpt><trkpt lat="42.338568" lon="12.207977"><ele>554.4000000000001</ele><time>2026-03-28T10:51:28.045Z</time></trkpt><trkpt lat="42.338473" lon="12.2079699"><ele>553.6</ele><time>2026-03-28T10:51:29.048Z</time></trkpt><trkpt lat="42.3383785" lon="12.2079684"><ele>552.8000000000001</ele><time>2026-03-28T10:51:30.053Z</time></trkpt><trkpt lat="42.3382871" lon="12.2079629"><ele>552.0</ele><time>2026-03-28T10:51:31.057Z</time></trkpt><trkpt lat="42.3381923" lon="12.2079695"><ele>552.0</ele><time>2026-03-28T10:51:32.057Z</time></trkpt><trkpt lat="42.3381087" lon="12.2079696"><ele>552.0</ele><time>2026-03-28T10:51:33.05Z</time></trkpt><trkpt lat="42.3380296" lon="12.2079877"><ele>552.0</ele><time>2026-03-28T10:51:34.054Z</time></trkpt><trkpt lat="42.3379453" lon="12.2080096"><ele>552.0</ele><time>2026-03-28T10:51:35.053Z</time></trkpt><trkpt lat="42.3378618" lon="12.208017"><ele>552.0</ele><time>2026-03-28T10:51:36.045Z</time></trkpt><trkpt lat="42.3377697" lon="12.2079953"><ele>552.0</ele><time>2026-03-28T10:51:37.049Z</time></trkpt><trkpt lat="42.3376741" lon="12.2079688"><ele>552.0</ele><time>2026-03-28T10:51:38.044Z</time></trkpt><trkpt lat="42.3375731" lon="12.2079219"><ele>552.0</ele><time>2026-03-28T10:51:39.052Z</time></trkpt><trkpt lat="42.337485" lon="12.2078811"><ele>552.0</ele><time>2026-03-28T10:51:40.055Z</time></trkpt><trkpt lat="42.3373931" lon="12.2078413"><ele>552.0</ele><time>2026-03-28T10:51:41.042Z</time></trkpt><trkpt lat="42.3373067" lon="12.2077953"><ele>552.0</ele><time>2026-03-28T10:51:42.055Z</time></trkpt><trkpt lat="42.3372275" lon="12.2077562"><ele>553.0</ele><time>2026-03-28T10:51:43.055Z</time></trkpt><trkpt lat="42.3371412" lon="12.2077102"><ele>554.0</ele><time>2026-03-28T10:51:44.054Z</time></trkpt><trkpt lat="42.3370549" lon="12.2076672"><ele>555.0</ele><time>2026-03-28T10:51:45.043Z</time></trkpt><trkpt lat="42.3369683" lon="12.2076218"><ele>556.0</ele><time>2026-03-28T10:51:46.05Z</time></trkpt><trkpt lat="42.3368885" lon="12.2075985"><ele>557.0</ele><time>2026-03-28T10:51:47.047Z</time></trkpt><trkpt lat="42.3368077" lon="12.2075726"><ele>558.0</ele><time>2026-03-28T10:51:48.043Z</time></trkpt><trkpt lat="42.3367253" lon="12.2075484"><ele>558.0</ele><time>2026-03-28T10:51:49.043Z</time></trkpt><trkpt lat="42.3366449" lon="12.2074983"><ele>558.0</ele><time>2026-03-28T10:51:50.042Z</time></trkpt><trkpt lat="42.3365704" lon="12.2074265"><ele>558.0</ele><time>2026-03-28T10:51:51.05Z</time></trkpt><trkpt lat="42.3364978" lon="12.2073431"><ele>558.0</ele><time>2026-03-28T10:51:52.04Z</time></trkpt><trkpt lat="42.3364249" lon="12.2072458"><ele>558.0</ele><time>2026-03-28T10:51:53.049Z</time></trkpt><trkpt lat="42.3363611" lon="12.2071361"><ele>554.6</ele><time>2026-03-28T10:51:54.042Z</time></trkpt><trkpt lat="42.3362929" lon="12.2070475"><ele>551.1999999999999</ele><time>2026-03-28T10:51:55.051Z</time></trkpt><trkpt lat="42.3362163" lon="12.20699"><ele>547.8</ele><time>2026-03-28T10:51:56.043Z</time></trkpt><trkpt lat="42.3361243" lon="12.2069607"><ele>544.4</ele><time>2026-03-28T10:51:57.055Z</time></trkpt><trkpt lat="42.3360291" lon="12.2069553"><ele>541.0</ele><time>2026-03-28T10:51:58.056Z</time></trkpt><trkpt lat="42.3359297" lon="12.2069856"><ele>541.0</ele><time>2026-03-28T10:51:59.06Z</time></trkpt><trkpt lat="42.3358311" lon="12.2070334"><ele>541.0</ele><time>2026-03-28T10:52:00.044Z</time></trkpt><trkpt lat="42.3357395" lon="12.2070655"><ele>541.0</ele><time>2026-03-28T10:52:01.046Z</time></trkpt><trkpt lat="42.3356548" lon="12.20708"><ele>541.0</ele><time>2026-03-28T10:52:02.045Z</time></trkpt><trkpt lat="42.335563" lon="12.2070574"><ele>541.0</ele><time>2026-03-28T10:52:03.052Z</time></trkpt><trkpt lat="42.3354724" lon="12.2069959"><ele>540.6</ele><time>2026-03-28T10:52:04.043Z</time></trkpt><trkpt lat="42.3353925" lon="12.206893"><ele>540.2</ele><time>2026-03-28T10:52:05.053Z</time></trkpt><trkpt lat="42.3353282" lon="12.2067684"><ele>539.8</ele><time>2026-03-28T10:52:06.047Z</time></trkpt><trkpt lat="42.3352705" lon="12.2066597"><ele>539.4</ele><time>2026-03-28T10:52:07.065Z</time></trkpt><trkpt lat="42.3352127" lon="12.2065333"><ele>539.0</ele><time>2026-03-28T10:52:08.04Z</time></trkpt><trkpt lat="42.3351557" lon="12.2064091"><ele>538.8</ele><time>2026-03-28T10:52:09.05Z</time></trkpt><trkpt lat="42.3350943" lon="12.2062953"><ele>538.5999999999999</ele><time>2026-03-28T10:52:10.044Z</time></trkpt><trkpt lat="42.3350538" lon="12.2061696"><ele>538.4</ele><time>2026-03-28T10:52:11.045Z</time></trkpt><trkpt lat="42.3350228" lon="12.2060468"><ele>538.1999999999999</ele><time>2026-03-28T10:52:12.042Z</time></trkpt><trkpt lat="42.3350179" lon="12.2059149"><ele>538.0</ele><time>2026-03-28T10:52:13.047Z</time></trkpt><trkpt lat="42.3350254" lon="12.2057823"><ele>537.6666666666667</ele><time>2026-03-28T10:52:14.046Z</time></trkpt><trkpt lat="42.3350349" lon="12.2056541"><ele>537.3333333333334</ele><time>2026-03-28T10:52:15.049Z</time></trkpt><trkpt lat="42.3350408" lon="12.2055296"><ele>537.0</ele><time>2026-03-28T10:52:16.046Z</time></trkpt><trkpt lat="42.335047" lon="12.2054253"><ele>536.6666666666666</ele><time>2026-03-28T10:52:17.042Z</time></trkpt><trkpt lat="42.3350481" lon="12.2053316"><ele>536.3333333333333</ele><time>2026-03-28T10:52:18.044Z</time></trkpt><trkpt lat="42.3350484" lon="12.2052267"><ele>536.0</ele><time>2026-03-28T10:52:19.05Z</time></trkpt><trkpt lat="42.3350413" lon="12.2050991"><ele>536.0</ele><time>2026-03-28T10:52:20.042Z</time></trkpt><trkpt lat="42.3350464" lon="12.2049696"><ele>536.0</ele><time>2026-03-28T10:52:21.049Z</time></trkpt><trkpt lat="42.335043" lon="12.2048425"><ele>536.0</ele><time>2026-03-28T10:52:22.047Z</time></trkpt><trkpt lat="42.3350367" lon="12.2047194"><ele>536.0</ele><time>2026-03-28T10:52:23.048Z</time></trkpt><trkpt lat="42.3350311" lon="12.2045945"><ele>536.0</ele><time>2026-03-28T10:52:24.048Z</time></trkpt><trkpt lat="42.3350185" lon="12.2044794"><ele>535.2</ele><time>2026-03-28T10:52:25.049Z</time></trkpt><trkpt lat="42.3350144" lon="12.204351"><ele>534.4000000000001</ele><time>2026-03-28T10:52:26.046Z</time></trkpt><trkpt lat="42.3350113" lon="12.204226"><ele>533.6</ele><time>2026-03-28T10:52:27.046Z</time></trkpt><trkpt lat="42.3350064" lon="12.2041031"><ele>532.8000000000001</ele><time>2026-03-28T10:52:28.046Z</time></trkpt><trkpt lat="42.3350069" lon="12.2039968"><ele>532.0</ele><time>2026-03-28T10:52:29.045Z</time></trkpt><trkpt lat="42.3350208" lon="12.2038592"><ele>531.6</ele><time>2026-03-28T10:52:31.041Z</time></trkpt><trkpt lat="42.335061" lon="12.2037899"><ele>531.2</ele><time>2026-03-28T10:52:33.051Z</time></trkpt><trkpt lat="42.3351354" lon="12.2037136"><ele>530.8</ele><time>2026-03-28T10:52:35.049Z</time></trkpt><trkpt lat="42.3352329" lon="12.2035842"><ele>530.4</ele><time>2026-03-28T10:52:37.044Z</time></trkpt><trkpt lat="42.3352851" lon="12.2034973"><ele>530.0</ele><time>2026-03-28T10:52:38.048Z</time></trkpt><trkpt lat="42.335315" lon="12.2033714"><ele>530.0</ele><time>2026-03-28T10:52:39.051Z</time></trkpt><trkpt lat="42.3353219" lon="12.2032223"><ele>530.0</ele><time>2026-03-28T10:52:40.047Z</time></trkpt><trkpt lat="42.3353013" lon="12.2030594"><ele>530.0</ele><time>2026-03-28T10:52:41.047Z</time></trkpt><trkpt lat="42.3352796" lon="12.2029207"><ele>530.0</ele><time>2026-03-28T10:52:42.046Z</time></trkpt><trkpt lat="42.3352436" lon="12.2027799"><ele>530.0</ele><time>2026-03-28T10:52:43.047Z</time></trkpt><trkpt lat="42.33521" lon="12.2026214"><ele>529.5</ele><time>2026-03-28T10:52:44.051Z</time></trkpt><trkpt lat="42.3351716" lon="12.202447"><ele>529.0</ele><time>2026-03-28T10:52:45.046Z</time></trkpt><trkpt lat="42.3351328" lon="12.2022856"><ele>528.5</ele><time>2026-03-28T10:52:46.042Z</time></trkpt><trkpt lat="42.3351034" lon="12.2021223"><ele>528.0</ele><time>2026-03-28T10:52:47.051Z</time></trkpt><trkpt lat="42.3350656" lon="12.2019494"><ele>527.75</ele><time>2026-03-28T10:52:48.072Z</time></trkpt><trkpt lat="42.335028" lon="12.2017741"><ele>527.5</ele><time>2026-03-28T10:52:49.059Z</time></trkpt><trkpt lat="42.3349822" lon="12.2016073"><ele>527.25</ele><time>2026-03-28T10:52:50.055Z</time></trkpt><trkpt lat="42.3349494" lon="12.2014374"><ele>527.0</ele><time>2026-03-28T10:52:51.047Z</time></trkpt><trkpt lat="42.3349152" lon="12.2012719"><ele>526.5</ele><time>2026-03-28T10:52:52.056Z</time></trkpt><trkpt lat="42.3348784" lon="12.2011071"><ele>526.0</ele><time>2026-03-28T10:52:53.048Z</time></trkpt><trkpt lat="42.3348269" lon="12.2009326"><ele>525.5</ele><time>2026-03-28T10:52:54.05Z</time></trkpt><trkpt lat="42.3347924" lon="12.2007623"><ele>525.0</ele><time>2026-03-28T10:52:55.054Z</time></trkpt><trkpt lat="42.3347631" lon="12.2006021"><ele>524.5</ele><time>2026-03-28T10:52:56.052Z</time></trkpt><trkpt lat="42.3347367" lon="12.2004391"><ele>524.0</ele><time>2026-03-28T10:52:57.058Z</time></trkpt><trkpt lat="42.334701" lon="12.2002829"><ele>523.5</ele><time>2026-03-28T10:52:58.048Z</time></trkpt><trkpt lat="42.3346599" lon="12.2001272"><ele>523.0</ele><time>2026-03-28T10:52:59.051Z</time></trkpt><trkpt lat="42.3346229" lon="12.1999639"><ele>521.5</ele><time>2026-03-28T10:53:00.048Z</time></trkpt><trkpt lat="42.3345866" lon="12.1998012"><ele>520.0</ele><time>2026-03-28T10:53:01.048Z</time></trkpt><trkpt lat="42.3345502" lon="12.1996343"><ele>518.5</ele><time>2026-03-28T10:53:02.059Z</time></trkpt><trkpt lat="42.3345079" lon="12.1994615"><ele>517.0</ele><time>2026-03-28T10:53:03.053Z</time></trkpt><trkpt lat="42.3344688" lon="12.1992865"><ele>517.0</ele><time>2026-03-28T10:53:04.061Z</time></trkpt><trkpt lat="42.3344321" lon="12.1991159"><ele>517.0</ele><time>2026-03-28T10:53:05.052Z</time></trkpt><trkpt lat="42.3343984" lon="12.1989505"><ele>517.0</ele><time>2026-03-28T10:53:06.055Z</time></trkpt><trkpt lat="42.334365" lon="12.1987823"><ele>517.0</ele><time>2026-03-28T10:53:07.043Z</time></trkpt><trkpt lat="42.3343357" lon="12.1986133"><ele>516.5</ele><time>2026-03-28T10:53:08.049Z</time></trkpt><trkpt lat="42.3343103" lon="12.1984441"><ele>516.0</ele><time>2026-03-28T10:53:09.051Z</time></trkpt><trkpt lat="42.3342888" lon="12.1982824"><ele>515.5</ele><time>2026-03-28T10:53:10.044Z</time></trkpt><trkpt lat="42.334269" lon="12.1981289"><ele>515.0</ele><time>2026-03-28T10:53:11.051Z</time></trkpt><trkpt lat="42.3342504" lon="12.1979763"><ele>514.75</ele><time>2026-03-28T10:53:12.046Z</time></trkpt><trkpt lat="42.3342352" lon="12.1978252"><ele>514.5</ele><time>2026-03-28T10:53:13.052Z</time></trkpt><trkpt lat="42.3342205" lon="12.1976616"><ele>514.25</ele><time>2026-03-28T10:53:14.057Z</time></trkpt><trkpt lat="42.3342079" lon="12.1974814"><ele>514.0</ele><time>2026-03-28T10:53:15.045Z</time></trkpt><trkpt lat="42.3341972" lon="12.1973073"><ele>513.75</ele><time>2026-03-28T10:53:16.048Z</time></trkpt><trkpt lat="42.3341877" lon="12.197144"><ele>513.5</ele><time>2026-03-28T10:53:17.047Z</time></trkpt><trkpt lat="42.3341841" lon="12.1969799"><ele>513.25</ele><time>2026-03-28T10:53:18.056Z</time></trkpt><trkpt lat="42.3341852" lon="12.1968202"><ele>513.0</ele><time>2026-03-28T10:53:19.047Z</time></trkpt><trkpt lat="42.3341807" lon="12.1966623"><ele>513.5</ele><time>2026-03-28T10:53:20.053Z</time></trkpt><trkpt lat="42.3341825" lon="12.1965022"><ele>514.0</ele><time>2026-03-28T10:53:21.046Z</time></trkpt><trkpt lat="42.3341869" lon="12.1963469"><ele>514.5</ele><time>2026-03-28T10:53:22.051Z</time></trkpt><trkpt lat="42.3341813" lon="12.1961994"><ele>515.0</ele><time>2026-03-28T10:53:23.056Z</time></trkpt><trkpt lat="42.3341815" lon="12.1960486"><ele>515.0</ele><time>2026-03-28T10:53:24.046Z</time></trkpt><trkpt lat="42.3341831" lon="12.1959118"><ele>515.0</ele><time>2026-03-28T10:53:25.055Z</time></trkpt><trkpt lat="42.3341789" lon="12.1957878"><ele>515.0</ele><time>2026-03-28T10:53:26.042Z</time></trkpt><trkpt lat="42.3341812" lon="12.1956674"><ele>515.0</ele><time>2026-03-28T10:53:27.048Z</time></trkpt><trkpt lat="42.3341801" lon="12.1955626"><ele>515.0</ele><time>2026-03-28T10:53:28.047Z</time></trkpt><trkpt lat="42.3341775" lon="12.1953992"><ele>515.1666666666666</ele><time>2026-03-28T10:53:30.053Z</time></trkpt><trkpt lat="42.3341658" lon="12.1952216"><ele>515.3333333333333</ele><time>2026-03-28T10:53:32.046Z</time></trkpt><trkpt lat="42.3341615" lon="12.1951254"><ele>515.5</ele><time>2026-03-28T10:53:33.057Z</time></trkpt><trkpt lat="42.3341586" lon="12.1950315"><ele>515.6666666666666</ele><time>2026-03-28T10:53:34.055Z</time></trkpt><trkpt lat="42.3341516" lon="12.1949435"><ele>515.8333333333334</ele><time>2026-03-28T10:53:35.047Z</time></trkpt><trkpt lat="42.3341453" lon="12.1948486"><ele>516.0</ele><time>2026-03-28T10:53:36.051Z</time></trkpt><trkpt lat="42.3341474" lon="12.1947535"><ele>516.0</ele><time>2026-03-28T10:53:37.053Z</time></trkpt><trkpt lat="42.3341417" lon="12.1945862"><ele>516.0</ele><time>2026-03-28T10:53:39.048Z</time></trkpt><trkpt lat="42.3341455" lon="12.1945006"><ele>516.0</ele><time>2026-03-28T10:53:40.051Z</time></trkpt><trkpt lat="42.3341415" lon="12.1944067"><ele>516.0</ele><time>2026-03-28T10:53:41.044Z</time></trkpt><trkpt lat="42.334141" lon="12.1942306"><ele>516.0</ele><time>2026-03-28T10:53:43.045Z</time></trkpt><trkpt lat="42.3341397" lon="12.1941426"><ele>516.0</ele><time>2026-03-28T10:53:44.053Z</time></trkpt><trkpt lat="42.334138" lon="12.1939955"><ele>516.0</ele><time>2026-03-28T10:53:46.045Z</time></trkpt><trkpt lat="42.3341258" lon="12.1938777"><ele>516.0</ele><time>2026-03-28T10:53:48.046Z</time></trkpt><trkpt lat="42.3341213" lon="12.1937789"><ele>516.0</ele><time>2026-03-28T10:53:50.056Z</time></trkpt></trkseg><trkseg><trkpt lat="42.3341302" lon="12.1954068"><ele>517.0</ele><time>2026-03-28T11:04:32.042Z</time></trkpt><trkpt lat="42.334137" lon="12.1955031"><ele>517.0</ele><time>2026-03-28T11:04:40.043Z</time></trkpt><trkpt lat="42.3341472" lon="12.1953759"><ele>517.0</ele><time>2026-03-28T11:04:49.053Z</time></trkpt><trkpt lat="42.3341508" lon="12.1952109"><ele>517.0</ele><time>2026-03-28T11:04:51.051Z</time></trkpt><trkpt lat="42.3341498" lon="12.1951216"><ele>517.0</ele><time>2026-03-28T11:04:52.052Z</time></trkpt><trkpt lat="42.3341503" lon="12.1950294"><ele>517.0</ele><time>2026-03-28T11:04:53.062Z</time></trkpt><trkpt lat="42.3341504" lon="12.1949226"><ele>516.8333333333334</ele><time>2026-03-28T11:04:54.048Z</time></trkpt><trkpt lat="42.3341498" lon="12.1948189"><ele>516.6666666666667</ele><time>2026-03-28T11:04:55.052Z</time></trkpt><trkpt lat="42.3341532" lon="12.1947259"><ele>516.5</ele><time>2026-03-28T11:04:56.043Z</time></trkpt><trkpt lat="42.3341443" lon="12.194635"><ele>516.3333333333334</ele><time>2026-03-28T11:04:57.049Z</time></trkpt><trkpt lat="42.3341272" lon="12.1944701"><ele>516.1666666666666</ele><time>2026-03-28T11:04:59.054Z</time></trkpt><trkpt lat="42.334134" lon="12.1943824"><ele>516.0</ele><time>2026-03-28T11:05:00.052Z</time></trkpt><trkpt lat="42.3341265" lon="12.1942968"><ele>516.0</ele><time>2026-03-28T11:05:01.048Z</time></trkpt><trkpt lat="42.3341215" lon="12.1942091"><ele>516.0</ele><time>2026-03-28T11:05:02.045Z</time></trkpt><trkpt lat="42.3341203" lon="12.1941159"><ele>516.0</ele><time>2026-03-28T11:05:03.058Z</time></trkpt><trkpt lat="42.3341212" lon="12.1940078"><ele>516.0</ele><time>2026-03-28T11:05:04.057Z</time></trkpt><trkpt lat="42.3341205" lon="12.1938902"><ele>516.0</ele><time>2026-03-28T11:05:05.051Z</time></trkpt><trkpt lat="42.3341235" lon="12.1937822"><ele>516.0</ele><time>2026-03-28T11:05:06.048Z</time></trkpt><trkpt lat="42.334128" lon="12.1936628"><ele>516.0</ele><time>2026-03-28T11:05:07.055Z</time></trkpt><trkpt lat="42.3341295" lon="12.1935509"><ele>516.0</ele><time>2026-03-28T11:05:08.054Z</time></trkpt><trkpt lat="42.3341254" lon="12.1934295"><ele>516.0</ele><time>2026-03-28T11:05:09.058Z</time></trkpt><trkpt lat="42.3341273" lon="12.193303"><ele>516.0</ele><time>2026-03-28T11:05:10.049Z</time></trkpt><trkpt lat="42.3341332" lon="12.1931816"><ele>516.0</ele><time>2026-03-28T11:05:11.058Z</time></trkpt><trkpt lat="42.3341371" lon="12.1930543"><ele>516.6</ele><time>2026-03-28T11:05:12.049Z</time></trkpt><trkpt lat="42.3341298" lon="12.192906"><ele>517.2</ele><time>2026-03-28T11:05:13.057Z</time></trkpt><trkpt lat="42.3341302" lon="12.1927603"><ele>517.8</ele><time>2026-03-28T11:05:14.041Z</time></trkpt><trkpt lat="42.3341185" lon="12.1926016"><ele>518.4</ele><time>2026-03-28T11:05:15.058Z</time></trkpt><trkpt lat="42.3341069" lon="12.192466"><ele>519.0</ele><time>2026-03-28T11:05:16.049Z</time></trkpt><trkpt lat="42.3340872" lon="12.1923443"><ele>519.3333333333334</ele><time>2026-03-28T11:05:17.052Z</time></trkpt><trkpt lat="42.3340707" lon="12.192235"><ele>519.6666666666666</ele><time>2026-03-28T11:05:18.06Z</time></trkpt><trkpt lat="42.3340568" lon="12.1921345"><ele>520.0</ele><time>2026-03-28T11:05:19.049Z</time></trkpt><trkpt lat="42.3340411" lon="12.1920335"><ele>520.3333333333333</ele><time>2026-03-28T11:05:20.053Z</time></trkpt><trkpt lat="42.3340308" lon="12.1919191"><ele>520.6666666666666</ele><time>2026-03-28T11:05:21.043Z</time></trkpt><trkpt lat="42.3340127" lon="12.1917971"><ele>521.0</ele><time>2026-03-28T11:05:22.056Z</time></trkpt><trkpt lat="42.3340053" lon="12.1916746"><ele>521.0</ele><time>2026-03-28T11:05:23.057Z</time></trkpt><trkpt lat="42.3339957" lon="12.1915424"><ele>521.0</ele><time>2026-03-28T11:05:24.045Z</time></trkpt><trkpt lat="42.333993" lon="12.1914057"><ele>521.0</ele><time>2026-03-28T11:05:25.063Z</time></trkpt><trkpt lat="42.3339871" lon="12.1912643"><ele>521.0</ele><time>2026-03-28T11:05:26.041Z</time></trkpt><trkpt lat="42.3339806" lon="12.1911236"><ele>521.0</ele><time>2026-03-28T11:05:27.056Z</time></trkpt><trkpt lat="42.3339738" lon="12.1909777"><ele>521.5</ele><time>2026-03-28T11:05:28.05Z</time></trkpt><trkpt lat="42.3339621" lon="12.1908179"><ele>522.0</ele><time>2026-03-28T11:05:29.06Z</time></trkpt><trkpt lat="42.3339523" lon="12.1906582"><ele>522.5</ele><time>2026-03-28T11:05:30.059Z</time></trkpt><trkpt lat="42.3339404" lon="12.1905016"><ele>523.0</ele><time>2026-03-28T11:05:31.05Z</time></trkpt><trkpt lat="42.3339278" lon="12.1903498"><ele>523.75</ele><time>2026-03-28T11:05:32.052Z</time></trkpt><trkpt lat="42.3339007" lon="12.1901848"><ele>524.5</ele><time>2026-03-28T11:05:33.045Z</time></trkpt><trkpt lat="42.3338472" lon="12.1900289"><ele>525.25</ele><time>2026-03-28T11:05:34.051Z</time></trkpt><trkpt lat="42.3338032" lon="12.189875"><ele>526.0</ele><time>2026-03-28T11:05:35.045Z</time></trkpt><trkpt lat="42.3337566" lon="12.1897065"><ele>524.0</ele><time>2026-03-28T11:05:36.052Z</time></trkpt><trkpt lat="42.3337201" lon="12.1895372"><ele>522.0</ele><time>2026-03-28T11:05:37.05Z</time></trkpt><trkpt lat="42.3336973" lon="12.1893617"><ele>520.0</ele><time>2026-03-28T11:05:38.058Z</time></trkpt><trkpt lat="42.3336844" lon="12.1891788"><ele>518.0</ele><time>2026-03-28T11:05:39.047Z</time></trkpt><trkpt lat="42.3336709" lon="12.1889947"><ele>518.0</ele><time>2026-03-28T11:05:40.051Z</time></trkpt><trkpt lat="42.3336561" lon="12.1888108"><ele>518.0</ele><time>2026-03-28T11:05:41.042Z</time></trkpt><trkpt lat="42.3336367" lon="12.1886167"><ele>518.0</ele><time>2026-03-28T11:05:42.059Z</time></trkpt><trkpt lat="42.3336128" lon="12.1884295"><ele>518.0</ele><time>2026-03-28T11:05:43.051Z</time></trkpt><trkpt lat="42.3336031" lon="12.1882446"><ele>518.0</ele><time>2026-03-28T11:05:44.044Z</time></trkpt><trkpt lat="42.3336041" lon="12.1880273"><ele>518.0</ele><time>2026-03-28T11:05:45.045Z</time></trkpt><trkpt lat="42.333634" lon="12.187863"><ele>518.0</ele><time>2026-03-28T11:05:46.055Z</time></trkpt><trkpt lat="42.3336325" lon="12.1876894"><ele>518.0</ele><time>2026-03-28T11:05:47.049Z</time></trkpt><trkpt lat="42.3336549" lon="12.187491"><ele>518.0</ele><time>2026-03-28T11:05:48.046Z</time></trkpt><trkpt lat="42.3336878" lon="12.1873177"><ele>518.0</ele><time>2026-03-28T11:05:49.043Z</time></trkpt><trkpt lat="42.3336965" lon="12.1871502"><ele>518.0</ele><time>2026-03-28T11:05:50.051Z</time></trkpt><trkpt lat="42.3337163" lon="12.1869775"><ele>518.0</ele><time>2026-03-28T11:05:51.065Z</time></trkpt><trkpt lat="42.3337411" lon="12.186823"><ele>518.0</ele><time>2026-03-28T11:05:52.051Z</time></trkpt><trkpt lat="42.3337663" lon="12.186638"><ele>518.0</ele><time>2026-03-28T11:05:53.046Z</time></trkpt><trkpt lat="42.3337691" lon="12.186458"><ele>518.0</ele><time>2026-03-28T11:05:54.049Z</time></trkpt><trkpt lat="42.3337643" lon="12.1863039"><ele>518.0</ele><time>2026-03-28T11:05:55.057Z</time></trkpt><trkpt lat="42.3337552" lon="12.186141"><ele>518.0</ele><time>2026-03-28T11:05:56.045Z</time></trkpt><trkpt lat="42.3337425" lon="12.1859548"><ele>518.0</ele><time>2026-03-28T11:05:57.049Z</time></trkpt><trkpt lat="42.3337245" lon="12.1857442"><ele>518.0</ele><time>2026-03-28T11:05:58.044Z</time></trkpt><trkpt lat="42.333699" lon="12.1855546"><ele>518.0</ele><time>2026-03-28T11:05:59.046Z</time></trkpt><trkpt lat="42.3336874" lon="12.185378"><ele>518.0</ele><time>2026-03-28T11:06:00.047Z</time></trkpt><trkpt lat="42.333669" lon="12.1852065"><ele>518.0</ele><time>2026-03-28T11:06:01.046Z</time></trkpt><trkpt lat="42.3336581" lon="12.1850413"><ele>518.0</ele><time>2026-03-28T11:06:02.05Z</time></trkpt><trkpt lat="42.3336351" lon="12.1848983"><ele>518.0</ele><time>2026-03-28T11:06:03.046Z</time></trkpt><trkpt lat="42.3336228" lon="12.1847666"><ele>518.0</ele><time>2026-03-28T11:06:04.049Z</time></trkpt><trkpt lat="42.3336023" lon="12.1846177"><ele>518.0</ele><time>2026-03-28T11:06:05.055Z</time></trkpt><trkpt lat="42.3335733" lon="12.1844502"><ele>518.0</ele><time>2026-03-28T11:06:06.041Z</time></trkpt><trkpt lat="42.3335459" lon="12.1842735"><ele>518.0</ele><time>2026-03-28T11:06:07.045Z</time></trkpt><trkpt lat="42.33352" lon="12.1841004"><ele>518.0</ele><time>2026-03-28T11:06:08.057Z</time></trkpt><trkpt lat="42.3334979" lon="12.1839327"><ele>518.0</ele><time>2026-03-28T11:06:09.041Z</time></trkpt><trkpt lat="42.3334711" lon="12.1837729"><ele>518.0</ele><time>2026-03-28T11:06:10.047Z</time></trkpt><trkpt lat="42.3334493" lon="12.1836202"><ele>518.0</ele><time>2026-03-28T11:06:11.045Z</time></trkpt><trkpt lat="42.3334426" lon="12.1834736"><ele>518.0</ele><time>2026-03-28T11:06:12.049Z</time></trkpt><trkpt lat="42.3334322" lon="12.1833258"><ele>518.0</ele><time>2026-03-28T11:06:13.045Z</time></trkpt><trkpt lat="42.3334179" lon="12.1831782"><ele>518.0</ele><time>2026-03-28T11:06:14.043Z</time></trkpt><trkpt lat="42.3334082" lon="12.1830345"><ele>518.0</ele><time>2026-03-28T11:06:15.047Z</time></trkpt><trkpt lat="42.3334013" lon="12.1828999"><ele>518.0</ele><time>2026-03-28T11:06:16.048Z</time></trkpt><trkpt lat="42.3333964" lon="12.1827626"><ele>518.25</ele><time>2026-03-28T11:06:17.05Z</time></trkpt><trkpt lat="42.3333899" lon="12.1826216"><ele>518.5</ele><time>2026-03-28T11:06:18.049Z</time></trkpt><trkpt lat="42.3333862" lon="12.1824698"><ele>518.75</ele><time>2026-03-28T11:06:19.05Z</time></trkpt><trkpt lat="42.3333776" lon="12.1823111"><ele>519.0</ele><time>2026-03-28T11:06:20.043Z</time></trkpt><trkpt lat="42.333368" lon="12.1821543"><ele>519.0</ele><time>2026-03-28T11:06:21.044Z</time></trkpt><trkpt lat="42.3333604" lon="12.1820006"><ele>519.0</ele><time>2026-03-28T11:06:22.046Z</time></trkpt><trkpt lat="42.3333607" lon="12.1818693"><ele>519.0</ele><time>2026-03-28T11:06:23.061Z</time></trkpt><trkpt lat="42.333354" lon="12.1817384"><ele>519.0</ele><time>2026-03-28T11:06:24.046Z</time></trkpt><trkpt lat="42.3333497" lon="12.1816127"><ele>519.0</ele><time>2026-03-28T11:06:25.05Z</time></trkpt><trkpt lat="42.3333444" lon="12.1814773"><ele>519.2</ele><time>2026-03-28T11:06:26.046Z</time></trkpt><trkpt lat="42.3333444" lon="12.1813524"><ele>519.4</ele><time>2026-03-28T11:06:27.05Z</time></trkpt><trkpt lat="42.3333489" lon="12.1812255"><ele>519.6</ele><time>2026-03-28T11:06:28.045Z</time></trkpt><trkpt lat="42.3333477" lon="12.1810866"><ele>519.8</ele><time>2026-03-28T11:06:29.042Z</time></trkpt><trkpt lat="42.3333496" lon="12.1809461"><ele>520.0</ele><time>2026-03-28T11:06:30.046Z</time></trkpt><trkpt lat="42.3333456" lon="12.180803"><ele>520.2</ele><time>2026-03-28T11:06:31.051Z</time></trkpt><trkpt lat="42.3333545" lon="12.180664"><ele>520.4</ele><time>2026-03-28T11:06:32.059Z</time></trkpt><trkpt lat="42.3333589" lon="12.1805337"><ele>520.6</ele><time>2026-03-28T11:06:33.057Z</time></trkpt><trkpt lat="42.3333569" lon="12.1803968"><ele>520.8</ele><time>2026-03-28T11:06:34.047Z</time></trkpt><trkpt lat="42.3333607" lon="12.1802558"><ele>521.0</ele><time>2026-03-28T11:06:35.047Z</time></trkpt><trkpt lat="42.3333747" lon="12.180123"><ele>521.0</ele><time>2026-03-28T11:06:36.049Z</time></trkpt><trkpt lat="42.3333784" lon="12.1799999"><ele>521.0</ele><time>2026-03-28T11:06:37.041Z</time></trkpt><trkpt lat="42.3333747" lon="12.179876"><ele>521.0</ele><time>2026-03-28T11:06:38.055Z</time></trkpt><trkpt lat="42.3333715" lon="12.1797555"><ele>521.0</ele><time>2026-03-28T11:06:39.047Z</time></trkpt><trkpt lat="42.3333644" lon="12.1796236"><ele>521.0</ele><time>2026-03-28T11:06:40.044Z</time></trkpt><trkpt lat="42.3333582" lon="12.179496"><ele>521.0</ele><time>2026-03-28T11:06:41.042Z</time></trkpt><trkpt lat="42.3333465" lon="12.1793687"><ele>521.0</ele><time>2026-03-28T11:06:42.054Z</time></trkpt><trkpt lat="42.3333438" lon="12.1792292"><ele>521.0</ele><time>2026-03-28T11:06:43.046Z</time></trkpt><trkpt lat="42.3333446" lon="12.1790897"><ele>521.0</ele><time>2026-03-28T11:06:44.043Z</time></trkpt><trkpt lat="42.3333507" lon="12.1789523"><ele>521.0</ele><time>2026-03-28T11:06:45.05Z</time></trkpt><trkpt lat="42.3333555" lon="12.1788042"><ele>521.0</ele><time>2026-03-28T11:06:46.051Z</time></trkpt><trkpt lat="42.3333615" lon="12.1786652"><ele>521.0</ele><time>2026-03-28T11:06:47.045Z</time></trkpt><trkpt lat="42.333371" lon="12.1785397"><ele>521.0</ele><time>2026-03-28T11:06:48.049Z</time></trkpt><trkpt lat="42.3333893" lon="12.1784198"><ele>521.0</ele><time>2026-03-28T11:06:49.055Z</time></trkpt><trkpt lat="42.3334184" lon="12.1783069"><ele>521.0</ele><time>2026-03-28T11:06:50.053Z</time></trkpt><trkpt lat="42.333446" lon="12.17819"><ele>521.1666666666666</ele><time>2026-03-28T11:06:51.049Z</time></trkpt><trkpt lat="42.3334706" lon="12.1780683"><ele>521.3333333333333</ele><time>2026-03-28T11:06:52.048Z</time></trkpt><trkpt lat="42.3334873" lon="12.1779482"><ele>521.5</ele><time>2026-03-28T11:06:53.043Z</time></trkpt><trkpt lat="42.3335034" lon="12.1778318"><ele>521.6666666666666</ele><time>2026-03-28T11:06:54.047Z</time></trkpt><trkpt lat="42.3335176" lon="12.1777235"><ele>521.8333333333334</ele><time>2026-03-28T11:06:55.044Z</time></trkpt><trkpt lat="42.3335268" lon="12.1776263"><ele>522.0</ele><time>2026-03-28T11:06:56.044Z</time></trkpt><trkpt lat="42.33354" lon="12.1774633"><ele>522.0</ele><time>2026-03-28T11:06:58.06Z</time></trkpt><trkpt lat="42.3335604" lon="12.1773451"><ele>522.0</ele><time>2026-03-28T11:07:00.047Z</time></trkpt><trkpt lat="42.3335159" lon="12.1775186"><ele>522.0</ele><time>2026-03-28T11:07:14.057Z</time></trkpt><trkpt lat="42.3335058" lon="12.1776406"><ele>522.0</ele><time>2026-03-28T11:07:15.045Z</time></trkpt><trkpt lat="42.3334915" lon="12.1777929"><ele>522.0</ele><time>2026-03-28T11:07:16.053Z</time></trkpt><trkpt lat="42.3334628" lon="12.1779462"><ele>522.0</ele><time>2026-03-28T11:07:17.052Z</time></trkpt><trkpt lat="42.3334376" lon="12.1781087"><ele>522.0</ele><time>2026-03-28T11:07:18.045Z</time></trkpt><trkpt lat="42.3334238" lon="12.1782662"><ele>522.0</ele><time>2026-03-28T11:07:19.043Z</time></trkpt><trkpt lat="42.3333992" lon="12.1784039"><ele>522.0</ele><time>2026-03-28T11:07:20.049Z</time></trkpt><trkpt lat="42.333371" lon="12.1785417"><ele>521.8000000000001</ele><time>2026-03-28T11:07:21.048Z</time></trkpt><trkpt lat="42.3333399" lon="12.1786725"><ele>521.6</ele><time>2026-03-28T11:07:22.054Z</time></trkpt><trkpt lat="42.3333377" lon="12.1788025"><ele>521.4000000000001</ele><time>2026-03-28T11:07:23.06Z</time></trkpt><trkpt lat="42.3333473" lon="12.1789447"><ele>521.2</ele><time>2026-03-28T11:07:24.053Z</time></trkpt><trkpt lat="42.3333468" lon="12.1791004"><ele>521.0</ele><time>2026-03-28T11:07:25.052Z</time></trkpt><trkpt lat="42.3333424" lon="12.1792655"><ele>521.0</ele><time>2026-03-28T11:07:26.048Z</time></trkpt><trkpt lat="42.3333366" lon="12.1794238"><ele>521.0</ele><time>2026-03-28T11:07:27.042Z</time></trkpt><trkpt lat="42.3333414" lon="12.1795983"><ele>521.0</ele><time>2026-03-28T11:07:28.046Z</time></trkpt><trkpt lat="42.3333428" lon="12.1797631"><ele>521.0</ele><time>2026-03-28T11:07:29.047Z</time></trkpt><trkpt lat="42.3333458" lon="12.1799246"><ele>521.0</ele><time>2026-03-28T11:07:30.053Z</time></trkpt><trkpt lat="42.3333442" lon="12.1800863"><ele>521.0</ele><time>2026-03-28T11:07:31.05Z</time></trkpt><trkpt lat="42.3333433" lon="12.1802334"><ele>521.0</ele><time>2026-03-28T11:07:32.053Z</time></trkpt><trkpt lat="42.3333448" lon="12.1803813"><ele>521.0</ele><time>2026-03-28T11:07:33.05Z</time></trkpt><trkpt lat="42.3333539" lon="12.1805208"><ele>521.0</ele><time>2026-03-28T11:07:34.047Z</time></trkpt><trkpt lat="42.3333491" lon="12.1806684"><ele>520.75</ele><time>2026-03-28T11:07:35.046Z</time></trkpt><trkpt lat="42.3333568" lon="12.1808272"><ele>520.5</ele><time>2026-03-28T11:07:36.048Z</time></trkpt><trkpt lat="42.3333541" lon="12.1809897"><ele>520.25</ele><time>2026-03-28T11:07:37.046Z</time></trkpt><trkpt lat="42.3333488" lon="12.1811601"><ele>520.0</ele><time>2026-03-28T11:07:38.046Z</time></trkpt><trkpt lat="42.3333447" lon="12.1813221"><ele>520.0</ele><time>2026-03-28T11:07:39.04Z</time></trkpt><trkpt lat="42.3333426" lon="12.1814812"><ele>520.0</ele><time>2026-03-28T11:07:40.05Z</time></trkpt><trkpt lat="42.3333506" lon="12.1816359"><ele>520.0</ele><time>2026-03-28T11:07:41.05Z</time></trkpt><trkpt lat="42.3333501" lon="12.1817872"><ele>520.0</ele><time>2026-03-28T11:07:42.053Z</time></trkpt><trkpt lat="42.3333494" lon="12.1819527"><ele>519.75</ele><time>2026-03-28T11:07:43.043Z</time></trkpt><trkpt lat="42.3333576" lon="12.1821391"><ele>519.5</ele><time>2026-03-28T11:07:44.047Z</time></trkpt><trkpt lat="42.3333657" lon="12.1823091"><ele>519.25</ele><time>2026-03-28T11:07:45.045Z</time></trkpt><trkpt lat="42.3333696" lon="12.1824651"><ele>519.0</ele><time>2026-03-28T11:07:46.04Z</time></trkpt><trkpt lat="42.3333842" lon="12.182612"><ele>519.0</ele><time>2026-03-28T11:07:47.044Z</time></trkpt><trkpt lat="42.3333933" lon="12.1827497"><ele>519.0</ele><time>2026-03-28T11:07:48.053Z</time></trkpt><trkpt lat="42.3333989" lon="12.1828731"><ele>519.0</ele><time>2026-03-28T11:07:49.039Z</time></trkpt><trkpt lat="42.3334091" lon="12.1829902"><ele>519.0</ele><time>2026-03-28T11:07:50.044Z</time></trkpt><trkpt lat="42.333411" lon="12.1831054"><ele>519.0</ele><time>2026-03-28T11:07:51.046Z</time></trkpt><trkpt lat="42.3334121" lon="12.1832257"><ele>518.8</ele><time>2026-03-28T11:07:52.047Z</time></trkpt><trkpt lat="42.3334176" lon="12.1833524"><ele>518.5999999999999</ele><time>2026-03-28T11:07:53.059Z</time></trkpt><trkpt lat="42.3334372" lon="12.183483"><ele>518.4</ele><time>2026-03-28T11:07:54.046Z</time></trkpt><trkpt lat="42.3334591" lon="12.183606"><ele>518.1999999999999</ele><time>2026-03-28T11:07:55.053Z</time></trkpt><trkpt lat="42.3334825" lon="12.1837274"><ele>518.0</ele><time>2026-03-28T11:07:56.048Z</time></trkpt><trkpt lat="42.3334925" lon="12.1838445"><ele>518.0</ele><time>2026-03-28T11:07:57.043Z</time></trkpt><trkpt lat="42.3335059" lon="12.1839573"><ele>518.0</ele><time>2026-03-28T11:07:58.052Z</time></trkpt><trkpt lat="42.333522" lon="12.1840637"><ele>518.0</ele><time>2026-03-28T11:07:59.044Z</time></trkpt><trkpt lat="42.3335415" lon="12.1841792"><ele>518.0</ele><time>2026-03-28T11:08:00.054Z</time></trkpt><trkpt lat="42.3335506" lon="12.1843104"><ele>518.0</ele><time>2026-03-28T11:08:01.046Z</time></trkpt><trkpt lat="42.3335677" lon="12.1844479"><ele>518.0</ele><time>2026-03-28T11:08:02.058Z</time></trkpt><trkpt lat="42.3335903" lon="12.1845865"><ele>518.0</ele><time>2026-03-28T11:08:03.041Z</time></trkpt><trkpt lat="42.3336107" lon="12.1847161"><ele>518.0</ele><time>2026-03-28T11:08:04.059Z</time></trkpt><trkpt lat="42.3336389" lon="12.1848517"><ele>518.0</ele><time>2026-03-28T11:08:05.042Z</time></trkpt><trkpt lat="42.3336646" lon="12.1849785"><ele>518.0</ele><time>2026-03-28T11:08:06.059Z</time></trkpt><trkpt lat="42.3336872" lon="12.1851308"><ele>518.0</ele><time>2026-03-28T11:08:07.041Z</time></trkpt><trkpt lat="42.3336983" lon="12.1852684"><ele>518.0</ele><time>2026-03-28T11:08:08.058Z</time></trkpt><trkpt lat="42.3337021" lon="12.1854017"><ele>518.0</ele><time>2026-03-28T11:08:09.045Z</time></trkpt><trkpt lat="42.3337005" lon="12.185545"><ele>518.0</ele><time>2026-03-28T11:08:10.051Z</time></trkpt><trkpt lat="42.3337051" lon="12.1856925"><ele>518.0</ele><time>2026-03-28T11:08:11.051Z</time></trkpt><trkpt lat="42.3337152" lon="12.1858449"><ele>518.0</ele><time>2026-03-28T11:08:12.05Z</time></trkpt><trkpt lat="42.3337305" lon="12.1860027"><ele>518.0</ele><time>2026-03-28T11:08:13.05Z</time></trkpt><trkpt lat="42.3337487" lon="12.1861627"><ele>518.0</ele><time>2026-03-28T11:08:14.049Z</time></trkpt><trkpt lat="42.3337602" lon="12.1863048"><ele>518.0</ele><time>2026-03-28T11:08:15.048Z</time></trkpt><trkpt lat="42.3337695" lon="12.1864435"><ele>518.0</ele><time>2026-03-28T11:08:16.042Z</time></trkpt><trkpt lat="42.3337727" lon="12.1865749"><ele>518.0</ele><time>2026-03-28T11:08:17.053Z</time></trkpt><trkpt lat="42.3337728" lon="12.1866986"><ele>518.0</ele><time>2026-03-28T11:08:18.043Z</time></trkpt><trkpt lat="42.3337703" lon="12.1868174"><ele>518.0</ele><time>2026-03-28T11:08:19.048Z</time></trkpt><trkpt lat="42.3337599" lon="12.1869349"><ele>518.0</ele><time>2026-03-28T11:08:20.043Z</time></trkpt><trkpt lat="42.3337429" lon="12.1870558"><ele>518.0</ele><time>2026-03-28T11:08:21.046Z</time></trkpt><trkpt lat="42.3337333" lon="12.1871941"><ele>518.0</ele><time>2026-03-28T11:08:22.052Z</time></trkpt><trkpt lat="42.3337222" lon="12.1873299"><ele>518.0</ele><time>2026-03-28T11:08:23.042Z</time></trkpt><trkpt lat="42.3337125" lon="12.187478"><ele>518.0</ele><time>2026-03-28T11:08:24.057Z</time></trkpt><trkpt lat="42.3337089" lon="12.1876222"><ele>518.0</ele><time>2026-03-28T11:08:25.044Z</time></trkpt><trkpt lat="42.3337068" lon="12.1877725"><ele>518.0</ele><time>2026-03-28T11:08:26.049Z</time></trkpt><trkpt lat="42.3336959" lon="12.1879358"><ele>518.0</ele><time>2026-03-28T11:08:27.049Z</time></trkpt><trkpt lat="42.3336755" lon="12.1880925"><ele>518.0</ele><time>2026-03-28T11:08:28.046Z</time></trkpt><trkpt lat="42.3336655" lon="12.1882541"><ele>518.0</ele><time>2026-03-28T11:08:29.051Z</time></trkpt><trkpt lat="42.3336642" lon="12.1884118"><ele>518.0</ele><time>2026-03-28T11:08:30.053Z</time></trkpt><trkpt lat="42.3336618" lon="12.1885704"><ele>518.0</ele><time>2026-03-28T11:08:31.049Z</time></trkpt><trkpt lat="42.3336636" lon="12.1887239"><ele>518.0</ele><time>2026-03-28T11:08:32.057Z</time></trkpt><trkpt lat="42.3336668" lon="12.1888813"><ele>518.0</ele><time>2026-03-28T11:08:33.049Z</time></trkpt><trkpt lat="42.3336731" lon="12.1890495"><ele>518.0</ele><time>2026-03-28T11:08:34.055Z</time></trkpt><trkpt lat="42.3336807" lon="12.1892154"><ele>517.75</ele><time>2026-03-28T11:08:35.045Z</time></trkpt><trkpt lat="42.3336929" lon="12.1893708"><ele>517.5</ele><time>2026-03-28T11:08:36.046Z</time></trkpt><trkpt lat="42.3337067" lon="12.1895151"><ele>517.25</ele><time>2026-03-28T11:08:37.045Z</time></trkpt><trkpt lat="42.333727" lon="12.1896656"><ele>517.0</ele><time>2026-03-28T11:08:38.063Z</time></trkpt><trkpt lat="42.3337611" lon="12.1898177"><ele>516.8000000000001</ele><time>2026-03-28T11:08:39.045Z</time></trkpt><trkpt lat="42.3337931" lon="12.1899619"><ele>516.6</ele><time>2026-03-28T11:08:40.065Z</time></trkpt><trkpt lat="42.3338306" lon="12.1900945"><ele>516.4000000000001</ele><time>2026-03-28T11:08:41.05Z</time></trkpt><trkpt lat="42.3338716" lon="12.1902212"><ele>516.2</ele><time>2026-03-28T11:08:42.052Z</time></trkpt><trkpt lat="42.3339032" lon="12.1903544"><ele>516.0</ele><time>2026-03-28T11:08:43.044Z</time></trkpt><trkpt lat="42.3339275" lon="12.1904971"><ele>517.75</ele><time>2026-03-28T11:08:44.057Z</time></trkpt><trkpt lat="42.3339468" lon="12.190649"><ele>519.5</ele><time>2026-03-28T11:08:45.053Z</time></trkpt><trkpt lat="42.3339569" lon="12.1908049"><ele>521.25</ele><time>2026-03-28T11:08:46.051Z</time></trkpt><trkpt lat="42.3339618" lon="12.1909764"><ele>523.0</ele><time>2026-03-28T11:08:47.048Z</time></trkpt><trkpt lat="42.3339674" lon="12.1911546"><ele>523.0</ele><time>2026-03-28T11:08:48.049Z</time></trkpt><trkpt lat="42.3339718" lon="12.1913303"><ele>523.0</ele><time>2026-03-28T11:08:49.067Z</time></trkpt><trkpt lat="42.3339769" lon="12.1915045"><ele>523.0</ele><time>2026-03-28T11:08:50.047Z</time></trkpt><trkpt lat="42.3339888" lon="12.191677"><ele>523.0</ele><time>2026-03-28T11:08:51.049Z</time></trkpt><trkpt lat="42.3340058" lon="12.1918535"><ele>522.5</ele><time>2026-03-28T11:08:52.047Z</time></trkpt><trkpt lat="42.3340276" lon="12.1920276"><ele>522.0</ele><time>2026-03-28T11:08:53.048Z</time></trkpt><trkpt lat="42.3340523" lon="12.1922011"><ele>521.5</ele><time>2026-03-28T11:08:54.053Z</time></trkpt><trkpt lat="42.334071" lon="12.1923708"><ele>521.0</ele><time>2026-03-28T11:08:55.049Z</time></trkpt><trkpt lat="42.3340905" lon="12.1925484"><ele>520.5</ele><time>2026-03-28T11:08:56.047Z</time></trkpt><trkpt lat="42.3341009" lon="12.1927234"><ele>520.0</ele><time>2026-03-28T11:08:57.042Z</time></trkpt><trkpt lat="42.3341099" lon="12.1928883"><ele>519.5</ele><time>2026-03-28T11:08:58.054Z</time></trkpt><trkpt lat="42.3341196" lon="12.1930521"><ele>519.0</ele><time>2026-03-28T11:08:59.048Z</time></trkpt><trkpt lat="42.3341244" lon="12.1932214"><ele>518.25</ele><time>2026-03-28T11:09:00.043Z</time></trkpt><trkpt lat="42.3341269" lon="12.1933819"><ele>517.5</ele><time>2026-03-28T11:09:01.051Z</time></trkpt><trkpt lat="42.3341295" lon="12.1935365"><ele>516.75</ele><time>2026-03-28T11:09:02.05Z</time></trkpt><trkpt lat="42.3341343" lon="12.1936892"><ele>516.0</ele><time>2026-03-28T11:09:03.055Z</time></trkpt><trkpt lat="42.3341339" lon="12.1938427"><ele>516.0</ele><time>2026-03-28T11:09:04.052Z</time></trkpt><trkpt lat="42.3341421" lon="12.1940127"><ele>516.0</ele><time>2026-03-28T11:09:05.055Z</time></trkpt><trkpt lat="42.3341493" lon="12.1941865"><ele>516.0</ele><time>2026-03-28T11:09:06.045Z</time></trkpt><trkpt lat="42.3341574" lon="12.1943608"><ele>516.0</ele><time>2026-03-28T11:09:07.051Z</time></trkpt><trkpt lat="42.3341525" lon="12.1945192"><ele>516.0</ele><time>2026-03-28T11:09:08.047Z</time></trkpt><trkpt lat="42.3341434" lon="12.1946705"><ele>516.0</ele><time>2026-03-28T11:09:09.047Z</time></trkpt><trkpt lat="42.3341427" lon="12.1948309"><ele>516.0</ele><time>2026-03-28T11:09:10.046Z</time></trkpt><trkpt lat="42.3341513" lon="12.1949811"><ele>516.0</ele><time>2026-03-28T11:09:11.046Z</time></trkpt><trkpt lat="42.3341579" lon="12.1951308"><ele>516.2</ele><time>2026-03-28T11:09:12.055Z</time></trkpt><trkpt lat="42.3341546" lon="12.1952716"><ele>516.4000000000001</ele><time>2026-03-28T11:09:13.05Z</time></trkpt><trkpt lat="42.3341532" lon="12.1954032"><ele>516.6</ele><time>2026-03-28T11:09:14.047Z</time></trkpt><trkpt lat="42.3341601" lon="12.1955454"><ele>516.8000000000001</ele><time>2026-03-28T11:09:15.058Z</time></trkpt><trkpt lat="42.334169" lon="12.1956887"><ele>517.0</ele><time>2026-03-28T11:09:16.045Z</time></trkpt><trkpt lat="42.3341783" lon="12.1958369"><ele>516.6</ele><time>2026-03-28T11:09:17.046Z</time></trkpt><trkpt lat="42.3341854" lon="12.1959764"><ele>516.2</ele><time>2026-03-28T11:09:18.056Z</time></trkpt><trkpt lat="42.3341842" lon="12.196106"><ele>515.8</ele><time>2026-03-28T11:09:19.051Z</time></trkpt><trkpt lat="42.3341798" lon="12.196232"><ele>515.4</ele><time>2026-03-28T11:09:20.055Z</time></trkpt><trkpt lat="42.3341767" lon="12.196373"><ele>515.0</ele><time>2026-03-28T11:09:21.044Z</time></trkpt><trkpt lat="42.334167" lon="12.1965324"><ele>514.6</ele><time>2026-03-28T11:09:22.062Z</time></trkpt><trkpt lat="42.3341714" lon="12.1966775"><ele>514.2</ele><time>2026-03-28T11:09:23.046Z</time></trkpt><trkpt lat="42.3341744" lon="12.1968138"><ele>513.8</ele><time>2026-03-28T11:09:24.054Z</time></trkpt><trkpt lat="42.334181" lon="12.1969582"><ele>513.4</ele><time>2026-03-28T11:09:25.046Z</time></trkpt><trkpt lat="42.3341905" lon="12.1971105"><ele>513.0</ele><time>2026-03-28T11:09:26.053Z</time></trkpt><trkpt lat="42.3341965" lon="12.1972674"><ele>513.25</ele><time>2026-03-28T11:09:27.044Z</time></trkpt><trkpt lat="42.3342044" lon="12.1974256"><ele>513.5</ele><time>2026-03-28T11:09:28.056Z</time></trkpt><trkpt lat="42.3342101" lon="12.1975859"><ele>513.75</ele><time>2026-03-28T11:09:29.055Z</time></trkpt><trkpt lat="42.3342259" lon="12.1977361"><ele>514.0</ele><time>2026-03-28T11:09:30.059Z</time></trkpt><trkpt lat="42.334233" lon="12.1978923"><ele>514.0</ele><time>2026-03-28T11:09:31.044Z</time></trkpt><trkpt lat="42.334246" lon="12.1980468"><ele>514.0</ele><time>2026-03-28T11:09:32.059Z</time></trkpt><trkpt lat="42.3342648" lon="12.1982007"><ele>514.0</ele><time>2026-03-28T11:09:33.045Z</time></trkpt><trkpt lat="42.3342869" lon="12.1983514"><ele>514.0</ele><time>2026-03-28T11:09:34.062Z</time></trkpt><trkpt lat="42.3343103" lon="12.1985036"><ele>514.25</ele><time>2026-03-28T11:09:35.043Z</time></trkpt><trkpt lat="42.3343421" lon="12.1986586"><ele>514.5</ele><time>2026-03-28T11:09:36.053Z</time></trkpt><trkpt lat="42.3343752" lon="12.1988108"><ele>514.75</ele><time>2026-03-28T11:09:37.043Z</time></trkpt><trkpt lat="42.3344087" lon="12.1989743"><ele>515.0</ele><time>2026-03-28T11:09:38.044Z</time></trkpt><trkpt lat="42.3344395" lon="12.1991396"><ele>515.5</ele><time>2026-03-28T11:09:39.057Z</time></trkpt><trkpt lat="42.3344714" lon="12.1992982"><ele>516.0</ele><time>2026-03-28T11:09:40.05Z</time></trkpt><trkpt lat="42.3345022" lon="12.1994559"><ele>516.5</ele><time>2026-03-28T11:09:41.054Z</time></trkpt><trkpt lat="42.3345386" lon="12.1996103"><ele>517.0</ele><time>2026-03-28T11:09:42.048Z</time></trkpt><trkpt lat="42.3345695" lon="12.199767"><ele>517.0</ele><time>2026-03-28T11:09:43.055Z</time></trkpt><trkpt lat="42.3346025" lon="12.1999166"><ele>517.0</ele><time>2026-03-28T11:09:44.041Z</time></trkpt><trkpt lat="42.3346401" lon="12.2000713"><ele>517.0</ele><time>2026-03-28T11:09:45.044Z</time></trkpt><trkpt lat="42.3346642" lon="12.2002124"><ele>517.0</ele><time>2026-03-28T11:09:46.044Z</time></trkpt><trkpt lat="42.3346978" lon="12.2003412"><ele>517.0</ele><time>2026-03-28T11:09:47.056Z</time></trkpt><trkpt lat="42.3347271" lon="12.2004662"><ele>518.5</ele><time>2026-03-28T11:09:48.051Z</time></trkpt><trkpt lat="42.3347619" lon="12.2005942"><ele>520.0</ele><time>2026-03-28T11:09:49.045Z</time></trkpt><trkpt lat="42.3348005" lon="12.2007433"><ele>521.5</ele><time>2026-03-28T11:09:50.053Z</time></trkpt><trkpt lat="42.3348362" lon="12.2009119"><ele>523.0</ele><time>2026-03-28T11:09:51.049Z</time></trkpt><trkpt lat="42.3348678" lon="12.2010864"><ele>523.5</ele><time>2026-03-28T11:09:52.053Z</time></trkpt><trkpt lat="42.3349009" lon="12.2012572"><ele>524.0</ele><time>2026-03-28T11:09:53.046Z</time></trkpt><trkpt lat="42.3349412" lon="12.2014503"><ele>524.5</ele><time>2026-03-28T11:09:54.047Z</time></trkpt><trkpt lat="42.3349864" lon="12.2016413"><ele>525.0</ele><time>2026-03-28T11:09:55.046Z</time></trkpt><trkpt lat="42.3350135" lon="12.2018423"><ele>525.5</ele><time>2026-03-28T11:09:56.049Z</time></trkpt><trkpt lat="42.3350716" lon="12.2020087"><ele>526.0</ele><time>2026-03-28T11:09:57.046Z</time></trkpt><trkpt lat="42.3351083" lon="12.2021928"><ele>526.5</ele><time>2026-03-28T11:09:58.054Z</time></trkpt><trkpt lat="42.3351402" lon="12.2023753"><ele>527.0</ele><time>2026-03-28T11:09:59.042Z</time></trkpt><trkpt lat="42.3351698" lon="12.2025452"><ele>527.25</ele><time>2026-03-28T11:10:00.048Z</time></trkpt><trkpt lat="42.3352033" lon="12.2027323"><ele>527.5</ele><time>2026-03-28T11:10:01.043Z</time></trkpt><trkpt lat="42.3352373" lon="12.2029053"><ele>527.75</ele><time>2026-03-28T11:10:02.043Z</time></trkpt><trkpt lat="42.3352531" lon="12.203065"><ele>528.0</ele><time>2026-03-28T11:10:03.041Z</time></trkpt><trkpt lat="42.3352652" lon="12.2032334"><ele>528.4</ele><time>2026-03-28T11:10:04.042Z</time></trkpt><trkpt lat="42.3352635" lon="12.2034001"><ele>528.8</ele><time>2026-03-28T11:10:05.043Z</time></trkpt><trkpt lat="42.3352239" lon="12.2035241"><ele>529.2</ele><time>2026-03-28T11:10:06.047Z</time></trkpt><trkpt lat="42.3351806" lon="12.2036254"><ele>529.6</ele><time>2026-03-28T11:10:07.043Z</time></trkpt><trkpt lat="42.3351261" lon="12.2036794"><ele>530.0</ele><time>2026-03-28T11:10:08.044Z</time></trkpt><trkpt lat="42.335064" lon="12.2037314"><ele>530.0</ele><time>2026-03-28T11:10:09.042Z</time></trkpt><trkpt lat="42.3349631" lon="12.2038084"><ele>530.0</ele><time>2026-03-28T11:10:11.044Z</time></trkpt><trkpt lat="42.3349506" lon="12.2039492"><ele>530.0</ele><time>2026-03-28T11:10:13.05Z</time></trkpt><trkpt lat="42.3349776" lon="12.2040728"><ele>530.0</ele><time>2026-03-28T11:10:15.042Z</time></trkpt><trkpt lat="42.3350005" lon="12.2042548"><ele>530.3333333333333</ele><time>2026-03-28T11:10:17.051Z</time></trkpt><trkpt lat="42.3350009" lon="12.204366"><ele>530.6666666666666</ele><time>2026-03-28T11:10:18.064Z</time></trkpt><trkpt lat="42.3350076" lon="12.204491"><ele>531.0</ele><time>2026-03-28T11:10:19.05Z</time></trkpt><trkpt lat="42.3350071" lon="12.2045961"><ele>531.3333333333334</ele><time>2026-03-28T11:10:20.054Z</time></trkpt><trkpt lat="42.3350133" lon="12.2046978"><ele>531.6666666666667</ele><time>2026-03-28T11:10:21.049Z</time></trkpt><trkpt lat="42.3350196" lon="12.2048076"><ele>532.0</ele><time>2026-03-28T11:10:22.053Z</time></trkpt><trkpt lat="42.3350202" lon="12.2049119"><ele>532.6666666666667</ele><time>2026-03-28T11:10:23.042Z</time></trkpt><trkpt lat="42.335026" lon="12.2050081"><ele>533.3333333333334</ele><time>2026-03-28T11:10:24.052Z</time></trkpt><trkpt lat="42.3350218" lon="12.2051068"><ele>534.0</ele><time>2026-03-28T11:10:25.054Z</time></trkpt><trkpt lat="42.3350221" lon="12.2052163"><ele>534.6666666666666</ele><time>2026-03-28T11:10:26.048Z</time></trkpt><trkpt lat="42.3350241" lon="12.205339"><ele>535.3333333333333</ele><time>2026-03-28T11:10:27.056Z</time></trkpt><trkpt lat="42.3350211" lon="12.2054565"><ele>536.0</ele><time>2026-03-28T11:10:28.044Z</time></trkpt><trkpt lat="42.3350189" lon="12.2055697"><ele>536.2857142857143</ele><time>2026-03-28T11:10:29.05Z</time></trkpt><trkpt lat="42.335022" lon="12.2056771"><ele>536.5714285714286</ele><time>2026-03-28T11:10:30.055Z</time></trkpt><trkpt lat="42.3350251" lon="12.2057799"><ele>536.8571428571429</ele><time>2026-03-28T11:10:31.042Z</time></trkpt><trkpt lat="42.3350231" lon="12.2058727"><ele>537.1428571428571</ele><time>2026-03-28T11:10:32.056Z</time></trkpt><trkpt lat="42.3350312" lon="12.2059583"><ele>537.4285714285714</ele><time>2026-03-28T11:10:33.041Z</time></trkpt><trkpt lat="42.3350367" lon="12.2060565"><ele>537.7142857142858</ele><time>2026-03-28T11:10:34.061Z</time></trkpt><trkpt lat="42.3350491" lon="12.206154"><ele>538.0</ele><time>2026-03-28T11:10:35.048Z</time></trkpt><trkpt lat="42.3350658" lon="12.2062537"><ele>538.0</ele><time>2026-03-28T11:10:36.057Z</time></trkpt><trkpt lat="42.3350954" lon="12.2063549"><ele>538.0</ele><time>2026-03-28T11:10:37.043Z</time></trkpt><trkpt lat="42.3351415" lon="12.2064412"><ele>538.0</ele><time>2026-03-28T11:10:38.047Z</time></trkpt><trkpt lat="42.3352023" lon="12.2065213"><ele>538.0</ele><time>2026-03-28T11:10:39.047Z</time></trkpt><trkpt lat="42.33526" lon="12.2066032"><ele>538.0</ele><time>2026-03-28T11:10:40.046Z</time></trkpt><trkpt lat="42.3353152" lon="12.2066985"><ele>538.0</ele><time>2026-03-28T11:10:41.048Z</time></trkpt><trkpt lat="42.335369" lon="12.2067964"><ele>538.1999999999999</ele><time>2026-03-28T11:10:42.05Z</time></trkpt><trkpt lat="42.3354261" lon="12.2068843"><ele>538.4</ele><time>2026-03-28T11:10:43.055Z</time></trkpt><trkpt lat="42.3354935" lon="12.2069716"><ele>538.5999999999999</ele><time>2026-03-28T11:10:44.05Z</time></trkpt><trkpt lat="42.3355744" lon="12.2070413"><ele>538.8</ele><time>2026-03-28T11:10:45.044Z</time></trkpt><trkpt lat="42.3356604" lon="12.2070936"><ele>539.0</ele><time>2026-03-28T11:10:46.043Z</time></trkpt><trkpt lat="42.3357477" lon="12.2071152"><ele>539.4</ele><time>2026-03-28T11:10:47.045Z</time></trkpt><trkpt lat="42.3358424" lon="12.207092"><ele>539.8</ele><time>2026-03-28T11:10:48.041Z</time></trkpt><trkpt lat="42.3359405" lon="12.2070695"><ele>540.2</ele><time>2026-03-28T11:10:49.044Z</time></trkpt><trkpt lat="42.3360415" lon="12.2070488"><ele>540.6</ele><time>2026-03-28T11:10:50.048Z</time></trkpt><trkpt lat="42.3361348" lon="12.2070454"><ele>541.0</ele><time>2026-03-28T11:10:51.046Z</time></trkpt><trkpt lat="42.3362231" lon="12.2070562"><ele>541.0</ele><time>2026-03-28T11:10:52.045Z</time></trkpt><trkpt lat="42.336304" lon="12.2070869"><ele>541.0</ele><time>2026-03-28T11:10:53.041Z</time></trkpt><trkpt lat="42.3363756" lon="12.207135"><ele>541.0</ele><time>2026-03-28T11:10:54.049Z</time></trkpt><trkpt lat="42.3364373" lon="12.2072009"><ele>541.0</ele><time>2026-03-28T11:10:55.047Z</time></trkpt><trkpt lat="42.3364824" lon="12.2072974"><ele>541.0</ele><time>2026-03-28T11:10:56.046Z</time></trkpt><trkpt lat="42.3365434" lon="12.2073803"><ele>541.0</ele><time>2026-03-28T11:10:57.044Z</time></trkpt><trkpt lat="42.3366152" lon="12.2074539"><ele>544.4</ele><time>2026-03-28T11:10:58.049Z</time></trkpt><trkpt lat="42.3366906" lon="12.2075158"><ele>547.8</ele><time>2026-03-28T11:10:59.049Z</time></trkpt><trkpt lat="42.3367656" lon="12.2075577"><ele>551.1999999999999</ele><time>2026-03-28T11:11:00.044Z</time></trkpt><trkpt lat="42.3368534" lon="12.2075968"><ele>554.6</ele><time>2026-03-28T11:11:01.054Z</time></trkpt><trkpt lat="42.3369395" lon="12.207632"><ele>558.0</ele><time>2026-03-28T11:11:02.046Z</time></trkpt><trkpt lat="42.3370357" lon="12.2076732"><ele>558.0</ele><time>2026-03-28T11:11:03.044Z</time></trkpt><trkpt lat="42.3371318" lon="12.2077101"><ele>558.0</ele><time>2026-03-28T11:11:04.05Z</time></trkpt><trkpt lat="42.3372313" lon="12.2077455"><ele>558.0</ele><time>2026-03-28T11:11:05.039Z</time></trkpt><trkpt lat="42.3373315" lon="12.2077807"><ele>558.0</ele><time>2026-03-28T11:11:06.05Z</time></trkpt><trkpt lat="42.337422" lon="12.2078095"><ele>558.0</ele><time>2026-03-28T11:11:07.046Z</time></trkpt><trkpt lat="42.337519" lon="12.2078498"><ele>556.5</ele><time>2026-03-28T11:11:08.055Z</time></trkpt><trkpt lat="42.3376378" lon="12.2078968"><ele>555.0</ele><time>2026-03-28T11:11:09.043Z</time></trkpt><trkpt lat="42.3377637" lon="12.2079461"><ele>553.5</ele><time>2026-03-28T11:11:10.039Z</time></trkpt><trkpt lat="42.3378737" lon="12.2079934"><ele>552.0</ele><time>2026-03-28T11:11:11.046Z</time></trkpt><trkpt lat="42.3379723" lon="12.2080296"><ele>552.0</ele><time>2026-03-28T11:11:12.042Z</time></trkpt><trkpt lat="42.3380697" lon="12.2080339"><ele>552.0</ele><time>2026-03-28T11:11:13.042Z</time></trkpt><trkpt lat="42.3381692" lon="12.2080143"><ele>552.0</ele><time>2026-03-28T11:11:14.046Z</time></trkpt><trkpt lat="42.338263" lon="12.2080001"><ele>552.0</ele><time>2026-03-28T11:11:15.044Z</time></trkpt><trkpt lat="42.3383513" lon="12.207986"><ele>552.0</ele><time>2026-03-28T11:11:16.05Z</time></trkpt><trkpt lat="42.3384513" lon="12.2079726"><ele>552.0</ele><time>2026-03-28T11:11:17.05Z</time></trkpt><trkpt lat="42.3385607" lon="12.2079711"><ele>552.0</ele><time>2026-03-28T11:11:18.054Z</time></trkpt><trkpt lat="42.3386696" lon="12.207979"><ele>552.0</ele><time>2026-03-28T11:11:19.047Z</time></trkpt><trkpt lat="42.3387686" lon="12.2079815"><ele>552.0</ele><time>2026-03-28T11:11:20.045Z</time></trkpt><trkpt lat="42.3388686" lon="12.207991"><ele>552.0</ele><time>2026-03-28T11:11:21.042Z</time></trkpt><trkpt lat="42.3389755" lon="12.2080116"><ele>552.8000000000001</ele><time>2026-03-28T11:11:22.051Z</time></trkpt><trkpt lat="42.3390863" lon="12.208012"><ele>553.6</ele><time>2026-03-28T11:11:23.043Z</time></trkpt><trkpt lat="42.3391862" lon="12.2080242"><ele>554.4000000000001</ele><time>2026-03-28T11:11:24.052Z</time></trkpt><trkpt lat="42.3392646" lon="12.2080338"><ele>555.2</ele><time>2026-03-28T11:11:25.04Z</time></trkpt><trkpt lat="42.3393629" lon="12.2080821"><ele>556.0</ele><time>2026-03-28T11:11:27.047Z</time></trkpt><trkpt lat="42.3393915" lon="12.2081689"><ele>557.8</ele><time>2026-03-28T11:11:29.048Z</time></trkpt><trkpt lat="42.3393131" lon="12.2083118"><ele>559.6</ele><time>2026-03-28T11:11:31.04Z</time></trkpt><trkpt lat="42.3392501" lon="12.2083841"><ele>561.4</ele><time>2026-03-28T11:11:32.053Z</time></trkpt><trkpt lat="42.3391752" lon="12.2084691"><ele>563.2</ele><time>2026-03-28T11:11:33.046Z</time></trkpt><trkpt lat="42.3391052" lon="12.2085537"><ele>565.0</ele><time>2026-03-28T11:11:34.046Z</time></trkpt><trkpt lat="42.3390243" lon="12.2086267"><ele>565.0</ele><time>2026-03-28T11:11:35.039Z</time></trkpt><trkpt lat="42.3389392" lon="12.208685"><ele>565.0</ele><time>2026-03-28T11:11:36.053Z</time></trkpt><trkpt lat="42.3388343" lon="12.2087237"><ele>565.0</ele><time>2026-03-28T11:11:37.039Z</time></trkpt><trkpt lat="42.3387185" lon="12.2087568"><ele>565.0</ele><time>2026-03-28T11:11:38.049Z</time></trkpt><trkpt lat="42.3385848" lon="12.2087752"><ele>565.75</ele><time>2026-03-28T11:11:39.044Z</time></trkpt><trkpt lat="42.3384565" lon="12.2087801"><ele>566.5</ele><time>2026-03-28T11:11:40.054Z</time></trkpt><trkpt lat="42.3383323" lon="12.2087864"><ele>567.25</ele><time>2026-03-28T11:11:41.039Z</time></trkpt><trkpt lat="42.3382017" lon="12.2088134"><ele>568.0</ele><time>2026-03-28T11:11:42.045Z</time></trkpt><trkpt lat="42.3380643" lon="12.2088473"><ele>570.0</ele><time>2026-03-28T11:11:43.041Z</time></trkpt><trkpt lat="42.3379334" lon="12.2088626"><ele>572.0</ele><time>2026-03-28T11:11:44.05Z</time></trkpt><trkpt lat="42.3378177" lon="12.2088572"><ele>574.0</ele><time>2026-03-28T11:11:45.054Z</time></trkpt><trkpt lat="42.3376973" lon="12.2088403"><ele>576.0</ele><time>2026-03-28T11:11:46.053Z</time></trkpt><trkpt lat="42.3375703" lon="12.2088141"><ele>576.0</ele><time>2026-03-28T11:11:47.05Z</time></trkpt><trkpt lat="42.3374252" lon="12.2087626"><ele>576.0</ele><time>2026-03-28T11:11:48.055Z</time></trkpt><trkpt lat="42.3372681" lon="12.2087006"><ele>576.0</ele><time>2026-03-28T11:11:49.05Z</time></trkpt><trkpt lat="42.3371302" lon="12.2086615"><ele>580.0</ele><time>2026-03-28T11:11:50.04Z</time></trkpt><trkpt lat="42.3369871" lon="12.2086041"><ele>584.0</ele><time>2026-03-28T11:11:51.044Z</time></trkpt><trkpt lat="42.336854" lon="12.2085441"><ele>588.0</ele><time>2026-03-28T11:11:52.049Z</time></trkpt><trkpt lat="42.3367631" lon="12.2084975"><ele>592.0</ele><time>2026-03-28T11:11:53.05Z</time></trkpt><trkpt lat="42.336631" lon="12.2084767"><ele>592.0</ele><time>2026-03-28T11:11:54.043Z</time></trkpt><trkpt lat="42.3365002" lon="12.2084748"><ele>592.0</ele><time>2026-03-28T11:11:55.051Z</time></trkpt><trkpt lat="42.336374" lon="12.2084628"><ele>592.0</ele><time>2026-03-28T11:11:56.045Z</time></trkpt><trkpt lat="42.3362451" lon="12.2084632"><ele>592.0</ele><time>2026-03-28T11:11:57.047Z</time></trkpt><trkpt lat="42.3361258" lon="12.2084829"><ele>591.4</ele><time>2026-03-28T11:11:58.058Z</time></trkpt><trkpt lat="42.3360141" lon="12.2085246"><ele>590.8000000000001</ele><time>2026-03-28T11:11:59.043Z</time></trkpt><trkpt lat="42.3359137" lon="12.2085853"><ele>590.2</ele><time>2026-03-28T11:12:00.043Z</time></trkpt><trkpt lat="42.3358222" lon="12.2086668"><ele>589.6</ele><time>2026-03-28T11:12:01.039Z</time></trkpt><trkpt lat="42.3357476" lon="12.2087572"><ele>589.0</ele><time>2026-03-28T11:12:02.045Z</time></trkpt><trkpt lat="42.3356963" lon="12.2088528"><ele>589.0</ele><time>2026-03-28T11:12:03.044Z</time></trkpt><trkpt lat="42.3356388" lon="12.2089627"><ele>589.0</ele><time>2026-03-28T11:12:04.054Z</time></trkpt><trkpt lat="42.3355771" lon="12.2090723"><ele>589.0</ele><time>2026-03-28T11:12:05.057Z</time></trkpt><trkpt lat="42.3354967" lon="12.2091749"><ele>589.0</ele><time>2026-03-28T11:12:06.049Z</time></trkpt><trkpt lat="42.3354119" lon="12.2092693"><ele>589.0</ele><time>2026-03-28T11:12:07.044Z</time></trkpt><trkpt lat="42.3353202" lon="12.2093718"><ele>589.4</ele><time>2026-03-28T11:12:08.046Z</time></trkpt><trkpt lat="42.3352231" lon="12.2094645"><ele>589.8</ele><time>2026-03-28T11:12:09.043Z</time></trkpt><trkpt lat="42.3351308" lon="12.2095453"><ele>590.2</ele><time>2026-03-28T11:12:10.045Z</time></trkpt><trkpt lat="42.3350474" lon="12.2096426"><ele>590.6</ele><time>2026-03-28T11:12:11.039Z</time></trkpt><trkpt lat="42.3349871" lon="12.2097341"><ele>591.0</ele><time>2026-03-28T11:12:12.047Z</time></trkpt><trkpt lat="42.3349306" lon="12.2098442"><ele>595.4</ele><time>2026-03-28T11:12:13.042Z</time></trkpt><trkpt lat="42.3349109" lon="12.2099707"><ele>599.8</ele><time>2026-03-28T11:12:14.045Z</time></trkpt><trkpt lat="42.3348891" lon="12.2101143"><ele>604.1999999999999</ele><time>2026-03-28T11:12:15.054Z</time></trkpt><trkpt lat="42.3348512" lon="12.2102688"><ele>608.6</ele><time>2026-03-28T11:12:16.045Z</time></trkpt><trkpt lat="42.3348178" lon="12.2104208"><ele>613.0</ele><time>2026-03-28T11:12:17.051Z</time></trkpt><trkpt lat="42.3347927" lon="12.2105701"><ele>611.1999999999999</ele><time>2026-03-28T11:12:18.046Z</time></trkpt><trkpt lat="42.3347555" lon="12.2107055"><ele>609.4</ele><time>2026-03-28T11:12:19.044Z</time></trkpt><trkpt lat="42.3347032" lon="12.2108278"><ele>607.5999999999999</ele><time>2026-03-28T11:12:20.046Z</time></trkpt><trkpt lat="42.3346166" lon="12.210918"><ele>605.8</ele><time>2026-03-28T11:12:21.048Z</time></trkpt><trkpt lat="42.3345203" lon="12.2109981"><ele>604.0</ele><time>2026-03-28T11:12:22.042Z</time></trkpt><trkpt lat="42.3344024" lon="12.2110455"><ele>604.0</ele><time>2026-03-28T11:12:23.052Z</time></trkpt><trkpt lat="42.3342698" lon="12.2110875"><ele>604.0</ele><time>2026-03-28T11:12:24.048Z</time></trkpt><trkpt lat="42.334139" lon="12.211122"><ele>604.0</ele><time>2026-03-28T11:12:25.05Z</time></trkpt><trkpt lat="42.3340017" lon="12.2111522"><ele>604.0</ele><time>2026-03-28T11:12:26.042Z</time></trkpt><trkpt lat="42.3338843" lon="12.21117"><ele>601.8</ele><time>2026-03-28T11:12:27.047Z</time></trkpt><trkpt lat="42.3337869" lon="12.2111964"><ele>599.5999999999999</ele><time>2026-03-28T11:12:28.038Z</time></trkpt><trkpt lat="42.3337099" lon="12.2112498"><ele>597.4</ele><time>2026-03-28T11:12:29.048Z</time></trkpt><trkpt lat="42.3336445" lon="12.211321"><ele>595.1999999999999</ele><time>2026-03-28T11:12:30.043Z</time></trkpt><trkpt lat="42.3335953" lon="12.2114162"><ele>593.0</ele><time>2026-03-28T11:12:31.054Z</time></trkpt><trkpt lat="42.3335535" lon="12.2115358"><ele>598.6</ele><time>2026-03-28T11:12:32.054Z</time></trkpt><trkpt lat="42.3335035" lon="12.2116514"><ele>604.1999999999999</ele><time>2026-03-28T11:12:33.053Z</time></trkpt><trkpt lat="42.3334546" lon="12.2117597"><ele>609.8</ele><time>2026-03-28T11:12:34.044Z</time></trkpt><trkpt lat="42.3333965" lon="12.2118522"><ele>615.4</ele><time>2026-03-28T11:12:35.04Z</time></trkpt><trkpt lat="42.3333131" lon="12.2118724"><ele>621.0</ele><time>2026-03-28T11:12:36.045Z</time></trkpt><trkpt lat="42.3332108" lon="12.2118599"><ele>621.0</ele><time>2026-03-28T11:12:37.049Z</time></trkpt><trkpt lat="42.3331045" lon="12.2118241"><ele>621.0</ele><time>2026-03-28T11:12:38.045Z</time></trkpt><trkpt lat="42.3329921" lon="12.2117843"><ele>621.0</ele><time>2026-03-28T11:12:39.042Z</time></trkpt><trkpt lat="42.3328685" lon="12.2117468"><ele>621.0</ele><time>2026-03-28T11:12:40.046Z</time></trkpt><trkpt lat="42.3327634" lon="12.2117092"><ele>619.6666666666666</ele><time>2026-03-28T11:12:41.05Z</time></trkpt><trkpt lat="42.3326856" lon="12.2116882"><ele>618.3333333333334</ele><time>2026-03-28T11:12:42.048Z</time></trkpt><trkpt lat="42.3326102" lon="12.2116886"><ele>617.0</ele><time>2026-03-28T11:12:43.041Z</time></trkpt><trkpt lat="42.3325311" lon="12.2117018"><ele>615.6666666666667</ele><time>2026-03-28T11:12:44.044Z</time></trkpt><trkpt lat="42.3324529" lon="12.2117864"><ele>614.3333333333334</ele><time>2026-03-28T11:12:45.042Z</time></trkpt><trkpt lat="42.3323786" lon="12.2119035"><ele>613.0</ele><time>2026-03-28T11:12:46.046Z</time></trkpt><trkpt lat="42.3323284" lon="12.2120216"><ele>613.0</ele><time>2026-03-28T11:12:47.055Z</time></trkpt><trkpt lat="42.3322941" lon="12.2121757"><ele>613.0</ele><time>2026-03-28T11:12:48.063Z</time></trkpt><trkpt lat="42.3322665" lon="12.2123446"><ele>613.0</ele><time>2026-03-28T11:12:49.047Z</time></trkpt><trkpt lat="42.332239" lon="12.2125207"><ele>613.0</ele><time>2026-03-28T11:12:50.052Z</time></trkpt><trkpt lat="42.3322136" lon="12.2126975"><ele>612.6</ele><time>2026-03-28T11:12:51.045Z</time></trkpt><trkpt lat="42.3321901" lon="12.2128544"><ele>612.1999999999999</ele><time>2026-03-28T11:12:52.05Z</time></trkpt><trkpt lat="42.3321551" lon="12.2129905"><ele>611.8</ele><time>2026-03-28T11:12:53.056Z</time></trkpt><trkpt lat="42.3321111" lon="12.2131145"><ele>611.4</ele><time>2026-03-28T11:12:54.044Z</time></trkpt><trkpt lat="42.3320666" lon="12.2132388"><ele>611.0</ele><time>2026-03-28T11:12:55.046Z</time></trkpt><trkpt lat="42.3319965" lon="12.2133377"><ele>617.0</ele><time>2026-03-28T11:12:56.041Z</time></trkpt><trkpt lat="42.3319195" lon="12.2134098"><ele>623.0</ele><time>2026-03-28T11:12:57.042Z</time></trkpt><trkpt lat="42.3318225" lon="12.2133995"><ele>629.0</ele><time>2026-03-28T11:12:58.038Z</time></trkpt><trkpt lat="42.3317208" lon="12.2133527"><ele>635.0</ele><time>2026-03-28T11:12:59.05Z</time></trkpt><trkpt lat="42.3316141" lon="12.2133017"><ele>641.0</ele><time>2026-03-28T11:13:00.043Z</time></trkpt><trkpt lat="42.3314913" lon="12.2132439"><ele>643.25</ele><time>2026-03-28T11:13:01.043Z</time></trkpt><trkpt lat="42.3313585" lon="12.2131559"><ele>645.5</ele><time>2026-03-28T11:13:02.04Z</time></trkpt><trkpt lat="42.3312339" lon="12.2130824"><ele>647.75</ele><time>2026-03-28T11:13:03.049Z</time></trkpt><trkpt lat="42.3311269" lon="12.2130164"><ele>650.0</ele><time>2026-03-28T11:13:04.046Z</time></trkpt><trkpt lat="42.3310317" lon="12.2129463"><ele>645.5</ele><time>2026-03-28T11:13:05.05Z</time></trkpt><trkpt lat="42.3309312" lon="12.2129001"><ele>641.0</ele><time>2026-03-28T11:13:06.045Z</time></trkpt><trkpt lat="42.3308338" lon="12.212903"><ele>636.5</ele><time>2026-03-28T11:13:07.056Z</time></trkpt><trkpt lat="42.3307457" lon="12.2129138"><ele>632.0</ele><time>2026-03-28T11:13:08.046Z</time></trkpt><trkpt lat="42.3306751" lon="12.2129561"><ele>627.5</ele><time>2026-03-28T11:13:09.049Z</time></trkpt><trkpt lat="42.3306264" lon="12.2130321"><ele>623.0</ele><time>2026-03-28T11:13:10.041Z</time></trkpt><trkpt lat="42.3305795" lon="12.2131469"><ele>629.5</ele><time>2026-03-28T11:13:11.051Z</time></trkpt><trkpt lat="42.330534" lon="12.213285"><ele>636.0</ele><time>2026-03-28T11:13:12.055Z</time></trkpt><trkpt lat="42.3304612" lon="12.2134088"><ele>642.5</ele><time>2026-03-28T11:13:13.056Z</time></trkpt><trkpt lat="42.330368" lon="12.2135022"><ele>649.0</ele><time>2026-03-28T11:13:14.05Z</time></trkpt><trkpt lat="42.3302671" lon="12.2135562"><ele>649.0</ele><time>2026-03-28T11:13:15.052Z</time></trkpt><trkpt lat="42.3301551" lon="12.2135435"><ele>649.0</ele><time>2026-03-28T11:13:16.041Z</time></trkpt><trkpt lat="42.3300408" lon="12.2134927"><ele>649.0</ele><time>2026-03-28T11:13:17.045Z</time></trkpt><trkpt lat="42.3299294" lon="12.213408"><ele>649.0</ele><time>2026-03-28T11:13:18.042Z</time></trkpt><trkpt lat="42.3298197" lon="12.2133195"><ele>648.6</ele><time>2026-03-28T11:13:19.044Z</time></trkpt><trkpt lat="42.3297174" lon="12.2132543"><ele>648.2</ele><time>2026-03-28T11:13:20.044Z</time></trkpt><trkpt lat="42.3296135" lon="12.2132183"><ele>647.8000000000001</ele><time>2026-03-28T11:13:21.045Z</time></trkpt><trkpt lat="42.3295233" lon="12.2131941"><ele>647.4000000000001</ele><time>2026-03-28T11:13:22.053Z</time></trkpt><trkpt lat="42.3294395" lon="12.2132029"><ele>647.0</ele><time>2026-03-28T11:13:23.045Z</time></trkpt><trkpt lat="42.3293727" lon="12.213271"><ele>647.0</ele><time>2026-03-28T11:13:24.044Z</time></trkpt><trkpt lat="42.3293264" lon="12.2133772"><ele>647.0</ele><time>2026-03-28T11:13:25.042Z</time></trkpt><trkpt lat="42.3292977" lon="12.2135291"><ele>647.0</ele><time>2026-03-28T11:13:26.047Z</time></trkpt><trkpt lat="42.3292394" lon="12.2136754"><ele>647.0</ele><time>2026-03-28T11:13:27.046Z</time></trkpt><trkpt lat="42.3291512" lon="12.2137804"><ele>647.0</ele><time>2026-03-28T11:13:28.045Z</time></trkpt><trkpt lat="42.3290547" lon="12.2138279"><ele>647.0</ele><time>2026-03-28T11:13:29.049Z</time></trkpt><trkpt lat="42.3289409" lon="12.2138429"><ele>647.0</ele><time>2026-03-28T11:13:30.05Z</time></trkpt><trkpt lat="42.3288167" lon="12.2138295"><ele>647.0</ele><time>2026-03-28T11:13:31.042Z</time></trkpt><trkpt lat="42.3286989" lon="12.2138064"><ele>647.0</ele><time>2026-03-28T11:13:32.046Z</time></trkpt><trkpt lat="42.3285842" lon="12.2137481"><ele>648.5</ele><time>2026-03-28T11:13:33.043Z</time></trkpt><trkpt lat="42.3284616" lon="12.2136864"><ele>650.0</ele><time>2026-03-28T11:13:34.044Z</time></trkpt><trkpt lat="42.3283543" lon="12.2136117"><ele>651.5</ele><time>2026-03-28T11:13:35.048Z</time></trkpt><trkpt lat="42.3282525" lon="12.2135225"><ele>653.0</ele><time>2026-03-28T11:13:36.056Z</time></trkpt><trkpt lat="42.3281441" lon="12.213444"><ele>655.25</ele><time>2026-03-28T11:13:37.042Z</time></trkpt><trkpt lat="42.3280289" lon="12.2133872"><ele>657.5</ele><time>2026-03-28T11:13:38.06Z</time></trkpt><trkpt lat="42.327905" lon="12.2133252"><ele>659.75</ele><time>2026-03-28T11:13:39.04Z</time></trkpt><trkpt lat="42.3277888" lon="12.2133007"><ele>662.0</ele><time>2026-03-28T11:13:40.046Z</time></trkpt><trkpt lat="42.3276792" lon="12.2133098"><ele>662.0</ele><time>2026-03-28T11:13:41.046Z</time></trkpt><trkpt lat="42.3275823" lon="12.2133427"><ele>662.0</ele><time>2026-03-28T11:13:42.047Z</time></trkpt><trkpt lat="42.3274853" lon="12.2134138"><ele>662.0</ele><time>2026-03-28T11:13:43.045Z</time></trkpt><trkpt lat="42.327398" lon="12.2135038"><ele>662.0</ele><time>2026-03-28T11:13:44.042Z</time></trkpt><trkpt lat="42.3273414" lon="12.2136085"><ele>662.0</ele><time>2026-03-28T11:13:45.041Z</time></trkpt><trkpt lat="42.3273272" lon="12.213724"><ele>662.0</ele><time>2026-03-28T11:13:46.04Z</time></trkpt><trkpt lat="42.32734" lon="12.2138414"><ele>662.0</ele><time>2026-03-28T11:13:47.049Z</time></trkpt><trkpt lat="42.3273858" lon="12.2139563"><ele>662.0</ele><time>2026-03-28T11:13:48.041Z</time></trkpt><trkpt lat="42.3274614" lon="12.2140651"><ele>662.0</ele><time>2026-03-28T11:13:49.043Z</time></trkpt><trkpt lat="42.3275715" lon="12.214138"><ele>662.0</ele><time>2026-03-28T11:13:50.048Z</time></trkpt><trkpt lat="42.3276642" lon="12.2141957"><ele>664.1666666666666</ele><time>2026-03-28T11:13:51.047Z</time></trkpt><trkpt lat="42.3277454" lon="12.2142521"><ele>666.3333333333333</ele><time>2026-03-28T11:13:52.042Z</time></trkpt><trkpt lat="42.3278174" lon="12.2143363"><ele>668.5</ele><time>2026-03-28T11:13:53.049Z</time></trkpt><trkpt lat="42.327871" lon="12.2144324"><ele>670.6666666666666</ele><time>2026-03-28T11:13:54.046Z</time></trkpt><trkpt lat="42.3279209" lon="12.2145314"><ele>672.8333333333334</ele><time>2026-03-28T11:13:55.044Z</time></trkpt><trkpt lat="42.3279521" lon="12.2146311"><ele>675.0</ele><time>2026-03-28T11:13:56.042Z</time></trkpt><trkpt lat="42.3279205" lon="12.2147509"><ele>675.0</ele><time>2026-03-28T11:13:58.047Z</time></trkpt><trkpt lat="42.3278353" lon="12.2147691"><ele>675.0</ele><time>2026-03-28T11:14:01.042Z</time></trkpt><trkpt lat="42.3277717" lon="12.21476"><ele>675.0</ele><time>2026-03-28T11:14:02.053Z</time></trkpt><trkpt lat="42.3276838" lon="12.2147259"><ele>675.0</ele><time>2026-03-28T11:14:03.05Z</time></trkpt><trkpt lat="42.3275798" lon="12.2146775"><ele>675.0</ele><time>2026-03-28T11:14:04.049Z</time></trkpt><trkpt lat="42.3274692" lon="12.2146515"><ele>675.0</ele><time>2026-03-28T11:14:05.046Z</time></trkpt><trkpt lat="42.3273495" lon="12.2146458"><ele>675.0</ele><time>2026-03-28T11:14:06.045Z</time></trkpt><trkpt lat="42.3272218" lon="12.2146317"><ele>675.0</ele><time>2026-03-28T11:14:07.048Z</time></trkpt><trkpt lat="42.327088" lon="12.2146259"><ele>675.0</ele><time>2026-03-28T11:14:08.044Z</time></trkpt><trkpt lat="42.3269533" lon="12.2146203"><ele>673.3333333333334</ele><time>2026-03-28T11:14:09.047Z</time></trkpt><trkpt lat="42.3268104" lon="12.2146137"><ele>671.6666666666667</ele><time>2026-03-28T11:14:10.045Z</time></trkpt><trkpt lat="42.3266531" lon="12.2146092"><ele>670.0</ele><time>2026-03-28T11:14:11.044Z</time></trkpt><trkpt lat="42.326497" lon="12.2146062"><ele>669.75</ele><time>2026-03-28T11:14:12.043Z</time></trkpt><trkpt lat="42.3263544" lon="12.2146083"><ele>669.5</ele><time>2026-03-28T11:14:13.045Z</time></trkpt><trkpt lat="42.3262049" lon="12.2146127"><ele>669.25</ele><time>2026-03-28T11:14:14.044Z</time></trkpt><trkpt lat="42.3260568" lon="12.2146033"><ele>669.0</ele><time>2026-03-28T11:14:15.049Z</time></trkpt><trkpt lat="42.3258936" lon="12.2146016"><ele>669.0</ele><time>2026-03-28T11:14:16.049Z</time></trkpt><trkpt lat="42.3257209" lon="12.2146027"><ele>669.0</ele><time>2026-03-28T11:14:17.045Z</time></trkpt><trkpt lat="42.3255627" lon="12.2146146"><ele>669.0</ele><time>2026-03-28T11:14:18.043Z</time></trkpt><trkpt lat="42.325402" lon="12.214611"><ele>667.6666666666666</ele><time>2026-03-28T11:14:19.042Z</time></trkpt><trkpt lat="42.325247" lon="12.2146144"><ele>666.3333333333333</ele><time>2026-03-28T11:14:20.052Z</time></trkpt><trkpt lat="42.3250958" lon="12.214624"><ele>665.0</ele><time>2026-03-28T11:14:21.048Z</time></trkpt><trkpt lat="42.3249519" lon="12.2146167"><ele>665.0</ele><time>2026-03-28T11:14:22.044Z</time></trkpt><trkpt lat="42.3248002" lon="12.2146004"><ele>665.0</ele><time>2026-03-28T11:14:23.037Z</time></trkpt><trkpt lat="42.3246473" lon="12.2145894"><ele>665.0</ele><time>2026-03-28T11:14:24.054Z</time></trkpt><trkpt lat="42.3245096" lon="12.2145716"><ele>665.0</ele><time>2026-03-28T11:14:25.044Z</time></trkpt><trkpt lat="42.3243577" lon="12.2145416"><ele>664.5</ele><time>2026-03-28T11:14:26.048Z</time></trkpt><trkpt lat="42.324215" lon="12.2144925"><ele>664.0</ele><time>2026-03-28T11:14:27.041Z</time></trkpt><trkpt lat="42.3240743" lon="12.2144362"><ele>663.5</ele><time>2026-03-28T11:14:28.069Z</time></trkpt><trkpt lat="42.3239447" lon="12.2143999"><ele>663.0</ele><time>2026-03-28T11:14:29.049Z</time></trkpt><trkpt lat="42.3237986" lon="12.2143497"><ele>661.0</ele><time>2026-03-28T11:14:30.052Z</time></trkpt><trkpt lat="42.3236378" lon="12.2142951"><ele>659.0</ele><time>2026-03-28T11:14:31.043Z</time></trkpt><trkpt lat="42.3234966" lon="12.2142488"><ele>657.0</ele><time>2026-03-28T11:14:32.057Z</time></trkpt><trkpt lat="42.3233483" lon="12.2141844"><ele>657.0</ele><time>2026-03-28T11:14:33.046Z</time></trkpt><trkpt lat="42.3231905" lon="12.2141085"><ele>657.0</ele><time>2026-03-28T11:14:34.046Z</time></trkpt><trkpt lat="42.3230181" lon="12.2140389"><ele>657.0</ele><time>2026-03-28T11:14:35.044Z</time></trkpt><trkpt lat="42.3228583" lon="12.2139629"><ele>654.6666666666666</ele><time>2026-03-28T11:14:36.044Z</time></trkpt><trkpt lat="42.3226953" lon="12.2138737"><ele>652.3333333333333</ele><time>2026-03-28T11:14:37.058Z</time></trkpt><trkpt lat="42.3225322" lon="12.2137749"><ele>650.0</ele><time>2026-03-28T11:14:38.048Z</time></trkpt><trkpt lat="42.3223679" lon="12.2136811"><ele>648.3333333333333</ele><time>2026-03-28T11:14:39.062Z</time></trkpt><trkpt lat="42.3222013" lon="12.2135848"><ele>646.6666666666666</ele><time>2026-03-28T11:14:40.048Z</time></trkpt><trkpt lat="42.3220364" lon="12.2134773"><ele>645.0</ele><time>2026-03-28T11:14:41.048Z</time></trkpt><trkpt lat="42.3218747" lon="12.2133684"><ele>645.0</ele><time>2026-03-28T11:14:42.046Z</time></trkpt><trkpt lat="42.3216939" lon="12.2132735"><ele>645.0</ele><time>2026-03-28T11:14:43.046Z</time></trkpt><trkpt lat="42.3215198" lon="12.2131785"><ele>645.0</ele><time>2026-03-28T11:14:44.047Z</time></trkpt><trkpt lat="42.3213597" lon="12.2130705"><ele>642.6666666666666</ele><time>2026-03-28T11:14:45.047Z</time></trkpt><trkpt lat="42.3211813" lon="12.2129707"><ele>640.3333333333333</ele><time>2026-03-28T11:14:46.052Z</time></trkpt><trkpt lat="42.3209882" lon="12.2128755"><ele>638.0</ele><time>2026-03-28T11:14:47.054Z</time></trkpt><trkpt lat="42.320797" lon="12.212743"><ele>638.0</ele><time>2026-03-28T11:14:48.049Z</time></trkpt><trkpt lat="42.3206213" lon="12.2126432"><ele>638.0</ele><time>2026-03-28T11:14:49.048Z</time></trkpt><trkpt lat="42.3204498" lon="12.2125439"><ele>638.0</ele><time>2026-03-28T11:14:50.048Z</time></trkpt><trkpt lat="42.320283" lon="12.2124439"><ele>636.3333333333333</ele><time>2026-03-28T11:14:51.052Z</time></trkpt><trkpt lat="42.320118" lon="12.2123377"><ele>634.6666666666666</ele><time>2026-03-28T11:14:52.056Z</time></trkpt><trkpt lat="42.3199509" lon="12.2122301"><ele>633.0</ele><time>2026-03-28T11:14:53.05Z</time></trkpt><trkpt lat="42.319776" lon="12.2121351"><ele>631.6666666666666</ele><time>2026-03-28T11:14:54.06Z</time></trkpt><trkpt lat="42.3196043" lon="12.2120211"><ele>630.3333333333333</ele><time>2026-03-28T11:14:55.041Z</time></trkpt><trkpt lat="42.3194265" lon="12.2119144"><ele>629.0</ele><time>2026-03-28T11:14:56.046Z</time></trkpt><trkpt lat="42.3192778" lon="12.2117998"><ele>629.0</ele><time>2026-03-28T11:14:57.041Z</time></trkpt><trkpt lat="42.319106" lon="12.2116571"><ele>629.0</ele><time>2026-03-28T11:14:58.053Z</time></trkpt><trkpt lat="42.3189671" lon="12.2115371"><ele>629.0</ele><time>2026-03-28T11:14:59.044Z</time></trkpt><trkpt lat="42.3188288" lon="12.2113963"><ele>627.0</ele><time>2026-03-28T11:15:00.052Z</time></trkpt><trkpt lat="42.3186805" lon="12.2112909"><ele>625.0</ele><time>2026-03-28T11:15:01.046Z</time></trkpt><trkpt lat="42.3185187" lon="12.2111697"><ele>623.0</ele><time>2026-03-28T11:15:02.055Z</time></trkpt><trkpt lat="42.3183814" lon="12.2110538"><ele>623.0</ele><time>2026-03-28T11:15:03.05Z</time></trkpt><trkpt lat="42.3182459" lon="12.2109364"><ele>623.0</ele><time>2026-03-28T11:15:04.049Z</time></trkpt><trkpt lat="42.3181233" lon="12.210816"><ele>623.0</ele><time>2026-03-28T11:15:05.054Z</time></trkpt><trkpt lat="42.3179812" lon="12.2107129"><ele>622.0</ele><time>2026-03-28T11:15:06.051Z</time></trkpt><trkpt lat="42.3178568" lon="12.2106046"><ele>621.0</ele><time>2026-03-28T11:15:07.052Z</time></trkpt><trkpt lat="42.317729" lon="12.2105041"><ele>620.0</ele><time>2026-03-28T11:15:08.046Z</time></trkpt><trkpt lat="42.3175926" lon="12.2104005"><ele>620.0</ele><time>2026-03-28T11:15:09.051Z</time></trkpt><trkpt lat="42.3174862" lon="12.2102972"><ele>620.0</ele><time>2026-03-28T11:15:10.04Z</time></trkpt><trkpt lat="42.3173526" lon="12.2101969"><ele>620.0</ele><time>2026-03-28T11:15:11.05Z</time></trkpt><trkpt lat="42.3172365" lon="12.210106"><ele>620.0</ele><time>2026-03-28T11:15:12.051Z</time></trkpt><trkpt lat="42.3171071" lon="12.2100321"><ele>618.6666666666666</ele><time>2026-03-28T11:15:13.056Z</time></trkpt><trkpt lat="42.3169627" lon="12.2099595"><ele>617.3333333333334</ele><time>2026-03-28T11:15:14.041Z</time></trkpt><trkpt lat="42.3168058" lon="12.2099047"><ele>616.0</ele><time>2026-03-28T11:15:15.053Z</time></trkpt><trkpt lat="42.316639" lon="12.209885"><ele>616.0</ele><time>2026-03-28T11:15:16.045Z</time></trkpt><trkpt lat="42.3164741" lon="12.2098707"><ele>616.0</ele><time>2026-03-28T11:15:17.053Z</time></trkpt><trkpt lat="42.3163153" lon="12.209882"><ele>616.0</ele><time>2026-03-28T11:15:18.058Z</time></trkpt><trkpt lat="42.3161382" lon="12.2098752"><ele>615.0</ele><time>2026-03-28T11:15:19.042Z</time></trkpt><trkpt lat="42.3159601" lon="12.2098794"><ele>614.0</ele><time>2026-03-28T11:15:20.055Z</time></trkpt><trkpt lat="42.3157733" lon="12.2099015"><ele>613.0</ele><time>2026-03-28T11:15:21.04Z</time></trkpt><trkpt lat="42.3155845" lon="12.2099313"><ele>612.6666666666667</ele><time>2026-03-28T11:15:22.058Z</time></trkpt><trkpt lat="42.3153839" lon="12.2099493"><ele>612.3333333333334</ele><time>2026-03-28T11:15:23.048Z</time></trkpt><trkpt lat="42.3152009" lon="12.2099575"><ele>612.0</ele><time>2026-03-28T11:15:24.055Z</time></trkpt><trkpt lat="42.3150095" lon="12.2099491"><ele>612.0</ele><time>2026-03-28T11:15:25.05Z</time></trkpt><trkpt lat="42.3148117" lon="12.2099221"><ele>612.0</ele><time>2026-03-28T11:15:26.051Z</time></trkpt><trkpt lat="42.3146201" lon="12.2098752"><ele>612.0</ele><time>2026-03-28T11:15:27.046Z</time></trkpt><trkpt lat="42.3144308" lon="12.2098349"><ele>610.3333333333334</ele><time>2026-03-28T11:15:28.042Z</time></trkpt><trkpt lat="42.3142299" lon="12.2097839"><ele>608.6666666666667</ele><time>2026-03-28T11:15:29.059Z</time></trkpt><trkpt lat="42.3140326" lon="12.2097357"><ele>607.0</ele><time>2026-03-28T11:15:30.047Z</time></trkpt><trkpt lat="42.3138563" lon="12.2096875"><ele>606.0</ele><time>2026-03-28T11:15:31.05Z</time></trkpt><trkpt lat="42.3136555" lon="12.2096184"><ele>605.0</ele><time>2026-03-28T11:15:32.042Z</time></trkpt><trkpt lat="42.3134708" lon="12.2095451"><ele>604.0</ele><time>2026-03-28T11:15:33.049Z</time></trkpt><trkpt lat="42.3132776" lon="12.2094882"><ele>604.0</ele><time>2026-03-28T11:15:34.044Z</time></trkpt><trkpt lat="42.313089" lon="12.2094295"><ele>604.0</ele><time>2026-03-28T11:15:35.045Z</time></trkpt><trkpt lat="42.3129004" lon="12.2093577"><ele>604.0</ele><time>2026-03-28T11:15:36.05Z</time></trkpt><trkpt lat="42.3127156" lon="12.2092844"><ele>603.0</ele><time>2026-03-28T11:15:37.051Z</time></trkpt><trkpt lat="42.3125442" lon="12.2092153"><ele>602.0</ele><time>2026-03-28T11:15:38.048Z</time></trkpt><trkpt lat="42.312372" lon="12.2091302"><ele>601.0</ele><time>2026-03-28T11:15:39.045Z</time></trkpt><trkpt lat="42.3121976" lon="12.2090536"><ele>599.6666666666667</ele><time>2026-03-28T11:15:40.054Z</time></trkpt><trkpt lat="42.3120504" lon="12.2089529"><ele>598.3333333333334</ele><time>2026-03-28T11:15:41.047Z</time></trkpt><trkpt lat="42.3119114" lon="12.2088561"><ele>597.0</ele><time>2026-03-28T11:15:42.05Z</time></trkpt><trkpt lat="42.3117797" lon="12.2087067"><ele>597.0</ele><time>2026-03-28T11:15:43.048Z</time></trkpt><trkpt lat="42.3116751" lon="12.2085214"><ele>597.0</ele><time>2026-03-28T11:15:44.05Z</time></trkpt><trkpt lat="42.3115622" lon="12.2083364"><ele>597.0</ele><time>2026-03-28T11:15:45.049Z</time></trkpt><trkpt lat="42.3114367" lon="12.2082016"><ele>595.6666666666666</ele><time>2026-03-28T11:15:46.046Z</time></trkpt><trkpt lat="42.3113136" lon="12.2080494"><ele>594.3333333333333</ele><time>2026-03-28T11:15:47.048Z</time></trkpt><trkpt lat="42.3111839" lon="12.2079037"><ele>593.0</ele><time>2026-03-28T11:15:48.041Z</time></trkpt><trkpt lat="42.3110599" lon="12.2077573"><ele>593.0</ele><time>2026-03-28T11:15:49.053Z</time></trkpt><trkpt lat="42.3109306" lon="12.2076185"><ele>593.0</ele><time>2026-03-28T11:15:50.046Z</time></trkpt><trkpt lat="42.3107849" lon="12.2074763"><ele>593.0</ele><time>2026-03-28T11:15:51.046Z</time></trkpt><trkpt lat="42.3106547" lon="12.2073319"><ele>591.0</ele><time>2026-03-28T11:15:52.048Z</time></trkpt><trkpt lat="42.3105366" lon="12.2071883"><ele>589.0</ele><time>2026-03-28T11:15:53.057Z</time></trkpt><trkpt lat="42.3103995" lon="12.2070366"><ele>587.0</ele><time>2026-03-28T11:15:54.045Z</time></trkpt><trkpt lat="42.3102497" lon="12.2069017"><ele>587.0</ele><time>2026-03-28T11:15:55.057Z</time></trkpt><trkpt lat="42.3101207" lon="12.2067653"><ele>587.0</ele><time>2026-03-28T11:15:56.047Z</time></trkpt><trkpt lat="42.3099871" lon="12.2066243"><ele>587.0</ele><time>2026-03-28T11:15:57.043Z</time></trkpt><trkpt lat="42.3098422" lon="12.2064714"><ele>585.0</ele><time>2026-03-28T11:15:58.046Z</time></trkpt><trkpt lat="42.3097162" lon="12.2063197"><ele>583.0</ele><time>2026-03-28T11:15:59.042Z</time></trkpt><trkpt lat="42.309585" lon="12.2061856"><ele>581.0</ele><time>2026-03-28T11:16:00.048Z</time></trkpt><trkpt lat="42.3094861" lon="12.2060126"><ele>581.0</ele><time>2026-03-28T11:16:01.05Z</time></trkpt><trkpt lat="42.3093809" lon="12.205824"><ele>581.0</ele><time>2026-03-28T11:16:02.048Z</time></trkpt><trkpt lat="42.3092378" lon="12.2056753"><ele>581.0</ele><time>2026-03-28T11:16:03.055Z</time></trkpt><trkpt lat="42.3090893" lon="12.2055828"><ele>578.0</ele><time>2026-03-28T11:16:04.04Z</time></trkpt><trkpt lat="42.3089355" lon="12.2054912"><ele>575.0</ele><time>2026-03-28T11:16:05.051Z</time></trkpt><trkpt lat="42.3087773" lon="12.2054039"><ele>572.0</ele><time>2026-03-28T11:16:06.05Z</time></trkpt><trkpt lat="42.3086077" lon="12.2053134"><ele>570.3333333333333</ele><time>2026-03-28T11:16:07.051Z</time></trkpt><trkpt lat="42.3084344" lon="12.2052578"><ele>568.6666666666666</ele><time>2026-03-28T11:16:08.055Z</time></trkpt><trkpt lat="42.3082758" lon="12.2051815"><ele>567.0</ele><time>2026-03-28T11:16:09.052Z</time></trkpt><trkpt lat="42.3081035" lon="12.2050853"><ele>569.3333333333334</ele><time>2026-03-28T11:16:10.05Z</time></trkpt><trkpt lat="42.3079598" lon="12.2049829"><ele>571.6666666666667</ele><time>2026-03-28T11:16:11.042Z</time></trkpt><trkpt lat="42.3077948" lon="12.2048784"><ele>574.0</ele><time>2026-03-28T11:16:12.055Z</time></trkpt><trkpt lat="42.3076409" lon="12.2047405"><ele>573.6666666666667</ele><time>2026-03-28T11:16:13.043Z</time></trkpt><trkpt lat="42.3075023" lon="12.2045777"><ele>573.3333333333334</ele><time>2026-03-28T11:16:14.048Z</time></trkpt><trkpt lat="42.3073738" lon="12.2043979"><ele>573.0</ele><time>2026-03-28T11:16:15.054Z</time></trkpt><trkpt lat="42.3072307" lon="12.204254"><ele>573.0</ele><time>2026-03-28T11:16:16.043Z</time></trkpt><trkpt lat="42.3070993" lon="12.2040968"><ele>573.0</ele><time>2026-03-28T11:16:17.048Z</time></trkpt><trkpt lat="42.3069856" lon="12.2039038"><ele>573.0</ele><time>2026-03-28T11:16:18.043Z</time></trkpt><trkpt lat="42.3068401" lon="12.20379"><ele>564.6666666666666</ele><time>2026-03-28T11:16:19.044Z</time></trkpt><trkpt lat="42.3067191" lon="12.2036315"><ele>556.3333333333333</ele><time>2026-03-28T11:16:20.046Z</time></trkpt><trkpt lat="42.3066055" lon="12.2034707"><ele>548.0</ele><time>2026-03-28T11:16:21.048Z</time></trkpt><trkpt lat="42.3064995" lon="12.203287"><ele>546.0</ele><time>2026-03-28T11:16:22.052Z</time></trkpt><trkpt lat="42.306399" lon="12.2030918"><ele>544.0</ele><time>2026-03-28T11:16:23.054Z</time></trkpt><trkpt lat="42.30627" lon="12.2029495"><ele>542.0</ele><time>2026-03-28T11:16:24.049Z</time></trkpt><trkpt lat="42.3061572" lon="12.2027983"><ele>542.0</ele><time>2026-03-28T11:16:25.05Z</time></trkpt><trkpt lat="42.3060479" lon="12.2026221"><ele>542.0</ele><time>2026-03-28T11:16:26.043Z</time></trkpt><trkpt lat="42.3059187" lon="12.2024594"><ele>542.0</ele><time>2026-03-28T11:16:27.05Z</time></trkpt><trkpt lat="42.3057951" lon="12.2022994"><ele>541.0</ele><time>2026-03-28T11:16:28.044Z</time></trkpt><trkpt lat="42.3057074" lon="12.2021406"><ele>540.0</ele><time>2026-03-28T11:16:29.056Z</time></trkpt><trkpt lat="42.3056188" lon="12.2019565"><ele>539.0</ele><time>2026-03-28T11:16:30.053Z</time></trkpt><trkpt lat="42.3055224" lon="12.2017661"><ele>539.0</ele><time>2026-03-28T11:16:31.054Z</time></trkpt><trkpt lat="42.3053888" lon="12.201595"><ele>539.0</ele><time>2026-03-28T11:16:32.042Z</time></trkpt><trkpt lat="42.3052859" lon="12.20143"><ele>539.0</ele><time>2026-03-28T11:16:33.049Z</time></trkpt><trkpt lat="42.3051705" lon="12.2012663"><ele>537.3333333333333</ele><time>2026-03-28T11:16:34.05Z</time></trkpt><trkpt lat="42.3050582" lon="12.2011039"><ele>535.6666666666666</ele><time>2026-03-28T11:16:35.056Z</time></trkpt><trkpt lat="42.3049697" lon="12.2009296"><ele>534.0</ele><time>2026-03-28T11:16:36.053Z</time></trkpt><trkpt lat="42.3048588" lon="12.2007379"><ele>533.6666666666666</ele><time>2026-03-28T11:16:37.052Z</time></trkpt><trkpt lat="42.3047416" lon="12.2005765"><ele>533.3333333333333</ele><time>2026-03-28T11:16:38.054Z</time></trkpt><trkpt lat="42.3046328" lon="12.200423"><ele>533.0</ele><time>2026-03-28T11:16:39.045Z</time></trkpt><trkpt lat="42.304522" lon="12.2002692"><ele>533.0</ele><time>2026-03-28T11:16:40.055Z</time></trkpt><trkpt lat="42.3044247" lon="12.2001119"><ele>533.0</ele><time>2026-03-28T11:16:41.046Z</time></trkpt><trkpt lat="42.3043244" lon="12.1999734"><ele>533.0</ele><time>2026-03-28T11:16:42.046Z</time></trkpt><trkpt lat="42.3042092" lon="12.1998374"><ele>533.0</ele><time>2026-03-28T11:16:43.044Z</time></trkpt><trkpt lat="42.3040967" lon="12.199706"><ele>532.6666666666666</ele><time>2026-03-28T11:16:44.047Z</time></trkpt><trkpt lat="42.3039547" lon="12.199579"><ele>532.3333333333334</ele><time>2026-03-28T11:16:45.046Z</time></trkpt><trkpt lat="42.3037987" lon="12.1994989"><ele>532.0</ele><time>2026-03-28T11:16:46.044Z</time></trkpt><trkpt lat="42.3036319" lon="12.1994256"><ele>533.5</ele><time>2026-03-28T11:16:47.043Z</time></trkpt><trkpt lat="42.3034833" lon="12.1994217"><ele>535.0</ele><time>2026-03-28T11:16:48.043Z</time></trkpt><trkpt lat="42.303336" lon="12.1994606"><ele>536.5</ele><time>2026-03-28T11:16:49.042Z</time></trkpt><trkpt lat="42.3031907" lon="12.1995096"><ele>538.0</ele><time>2026-03-28T11:16:50.043Z</time></trkpt><trkpt lat="42.3030655" lon="12.1995981"><ele>539.0</ele><time>2026-03-28T11:16:51.044Z</time></trkpt><trkpt lat="42.3029208" lon="12.1996954"><ele>540.0</ele><time>2026-03-28T11:16:52.045Z</time></trkpt><trkpt lat="42.3027605" lon="12.1997641"><ele>541.0</ele><time>2026-03-28T11:16:53.046Z</time></trkpt><trkpt lat="42.3026002" lon="12.199821"><ele>541.3333333333334</ele><time>2026-03-28T11:16:54.044Z</time></trkpt><trkpt lat="42.3024404" lon="12.1998882"><ele>541.6666666666666</ele><time>2026-03-28T11:16:55.05Z</time></trkpt><trkpt lat="42.302306" lon="12.199955"><ele>542.0</ele><time>2026-03-28T11:16:56.041Z</time></trkpt><trkpt lat="42.3021466" lon="12.200003"><ele>544.0</ele><time>2026-03-28T11:16:57.049Z</time></trkpt><trkpt lat="42.3020042" lon="12.2000777"><ele>546.0</ele><time>2026-03-28T11:16:58.062Z</time></trkpt><trkpt lat="42.3018487" lon="12.2001413"><ele>548.0</ele><time>2026-03-28T11:16:59.047Z</time></trkpt><trkpt lat="42.3017015" lon="12.2002169"><ele>548.0</ele><time>2026-03-28T11:17:00.041Z</time></trkpt><trkpt lat="42.3015675" lon="12.2003204"><ele>548.0</ele><time>2026-03-28T11:17:01.045Z</time></trkpt><trkpt lat="42.301412" lon="12.2004293"><ele>548.0</ele><time>2026-03-28T11:17:02.046Z</time></trkpt><trkpt lat="42.3012587" lon="12.2005352"><ele>549.6666666666666</ele><time>2026-03-28T11:17:03.058Z</time></trkpt><trkpt lat="42.3010987" lon="12.2006395"><ele>551.3333333333334</ele><time>2026-03-28T11:17:04.043Z</time></trkpt><trkpt lat="42.3009568" lon="12.2007095"><ele>553.0</ele><time>2026-03-28T11:17:05.044Z</time></trkpt><trkpt lat="42.3008016" lon="12.2007691"><ele>553.0</ele><time>2026-03-28T11:17:06.05Z</time></trkpt><trkpt lat="42.3006555" lon="12.2007961"><ele>553.0</ele><time>2026-03-28T11:17:07.045Z</time></trkpt><trkpt lat="42.3005025" lon="12.2008245"><ele>553.0</ele><time>2026-03-28T11:17:08.046Z</time></trkpt><trkpt lat="42.3003304" lon="12.2008502"><ele>551.6666666666667</ele><time>2026-03-28T11:17:09.055Z</time></trkpt><trkpt lat="42.3001775" lon="12.2008665"><ele>550.3333333333334</ele><time>2026-03-28T11:17:10.048Z</time></trkpt><trkpt lat="42.3000346" lon="12.2008852"><ele>549.0</ele><time>2026-03-28T11:17:11.044Z</time></trkpt><trkpt lat="42.2998661" lon="12.2008925"><ele>548.25</ele><time>2026-03-28T11:17:12.055Z</time></trkpt><trkpt lat="42.2997461" lon="12.200926"><ele>547.5</ele><time>2026-03-28T11:17:13.046Z</time></trkpt><trkpt lat="42.2996242" lon="12.2009531"><ele>546.75</ele><time>2026-03-28T11:17:14.054Z</time></trkpt><trkpt lat="42.2995188" lon="12.2010045"><ele>546.0</ele><time>2026-03-28T11:17:15.044Z</time></trkpt><trkpt lat="42.2994219" lon="12.2011079"><ele>546.0</ele><time>2026-03-28T11:17:16.046Z</time></trkpt><trkpt lat="42.2993115" lon="12.2012697"><ele>546.0</ele><time>2026-03-28T11:17:17.047Z</time></trkpt><trkpt lat="42.2992129" lon="12.2014667"><ele>546.0</ele><time>2026-03-28T11:17:18.046Z</time></trkpt><trkpt lat="42.2991064" lon="12.2015922"><ele>545.75</ele><time>2026-03-28T11:17:19.043Z</time></trkpt><trkpt lat="42.2990144" lon="12.2017338"><ele>545.5</ele><time>2026-03-28T11:17:20.052Z</time></trkpt><trkpt lat="42.2989523" lon="12.2018803"><ele>545.25</ele><time>2026-03-28T11:17:21.043Z</time></trkpt><trkpt lat="42.2988457" lon="12.2020676"><ele>545.0</ele><time>2026-03-28T11:17:22.048Z</time></trkpt><trkpt lat="42.2987753" lon="12.2022021"><ele>542.75</ele><time>2026-03-28T11:17:23.043Z</time></trkpt><trkpt lat="42.2986967" lon="12.2023363"><ele>540.5</ele><time>2026-03-28T11:17:24.047Z</time></trkpt><trkpt lat="42.2986327" lon="12.2024968"><ele>538.25</ele><time>2026-03-28T11:17:25.043Z</time></trkpt><trkpt lat="42.29856" lon="12.2026221"><ele>536.0</ele><time>2026-03-28T11:17:26.057Z</time></trkpt><trkpt lat="42.2984818" lon="12.2027522"><ele>536.0</ele><time>2026-03-28T11:17:27.048Z</time></trkpt><trkpt lat="42.2984157" lon="12.202868"><ele>536.0</ele><time>2026-03-28T11:17:28.047Z</time></trkpt><trkpt lat="42.2983412" lon="12.2029955"><ele>536.0</ele><time>2026-03-28T11:17:29.051Z</time></trkpt><trkpt lat="42.2982638" lon="12.2031148"><ele>536.0</ele><time>2026-03-28T11:17:30.042Z</time></trkpt><trkpt lat="42.2981829" lon="12.2032314"><ele>535.0</ele><time>2026-03-28T11:17:31.049Z</time></trkpt><trkpt lat="42.298092" lon="12.203362"><ele>534.0</ele><time>2026-03-28T11:17:32.042Z</time></trkpt><trkpt lat="42.298" lon="12.2034861"><ele>533.0</ele><time>2026-03-28T11:17:33.053Z</time></trkpt><trkpt lat="42.2979081" lon="12.2036094"><ele>532.0</ele><time>2026-03-28T11:17:34.046Z</time></trkpt><trkpt lat="42.2978218" lon="12.2037305"><ele>530.75</ele><time>2026-03-28T11:17:35.053Z</time></trkpt><trkpt lat="42.2977495" lon="12.2038558"><ele>529.5</ele><time>2026-03-28T11:17:36.047Z</time></trkpt><trkpt lat="42.2976822" lon="12.2039933"><ele>528.25</ele><time>2026-03-28T11:17:37.045Z</time></trkpt><trkpt lat="42.2976239" lon="12.2041365"><ele>527.0</ele><time>2026-03-28T11:17:38.05Z</time></trkpt><trkpt lat="42.2975657" lon="12.2042795"><ele>527.0</ele><time>2026-03-28T11:17:39.048Z</time></trkpt><trkpt lat="42.2975197" lon="12.2044314"><ele>527.0</ele><time>2026-03-28T11:17:40.044Z</time></trkpt><trkpt lat="42.2974721" lon="12.204576"><ele>527.0</ele><time>2026-03-28T11:17:41.047Z</time></trkpt><trkpt lat="42.2974253" lon="12.2047306"><ele>527.0</ele><time>2026-03-28T11:17:42.061Z</time></trkpt><trkpt lat="42.2973775" lon="12.2048851"><ele>526.25</ele><time>2026-03-28T11:17:43.046Z</time></trkpt><trkpt lat="42.297323" lon="12.2050423"><ele>525.5</ele><time>2026-03-28T11:17:44.054Z</time></trkpt><trkpt lat="42.2972507" lon="12.2051957"><ele>524.75</ele><time>2026-03-28T11:17:45.047Z</time></trkpt><trkpt lat="42.2971823" lon="12.2053511"><ele>524.0</ele><time>2026-03-28T11:17:46.052Z</time></trkpt><trkpt lat="42.2971247" lon="12.2055143"><ele>520.5</ele><time>2026-03-28T11:17:47.044Z</time></trkpt><trkpt lat="42.2970532" lon="12.2056746"><ele>517.0</ele><time>2026-03-28T11:17:48.069Z</time></trkpt><trkpt lat="42.2969686" lon="12.2058316"><ele>513.5</ele><time>2026-03-28T11:17:49.045Z</time></trkpt><trkpt lat="42.2968915" lon="12.2059882"><ele>510.0</ele><time>2026-03-28T11:17:50.053Z</time></trkpt><trkpt lat="42.2968225" lon="12.2061647"><ele>510.0</ele><time>2026-03-28T11:17:51.045Z</time></trkpt><trkpt lat="42.2967602" lon="12.2063345"><ele>510.0</ele><time>2026-03-28T11:17:52.049Z</time></trkpt><trkpt lat="42.2966886" lon="12.2065017"><ele>510.0</ele><time>2026-03-28T11:17:53.046Z</time></trkpt><trkpt lat="42.2966272" lon="12.2066682"><ele>510.0</ele><time>2026-03-28T11:17:54.051Z</time></trkpt><trkpt lat="42.296574" lon="12.206848"><ele>508.0</ele><time>2026-03-28T11:17:55.042Z</time></trkpt><trkpt lat="42.2965117" lon="12.2070322"><ele>506.0</ele><time>2026-03-28T11:17:56.05Z</time></trkpt><trkpt lat="42.2964713" lon="12.2072167"><ele>504.0</ele><time>2026-03-28T11:17:57.039Z</time></trkpt><trkpt lat="42.2964213" lon="12.2074144"><ele>502.0</ele><time>2026-03-28T11:17:58.043Z</time></trkpt><trkpt lat="42.2963847" lon="12.2076062"><ele>502.0</ele><time>2026-03-28T11:17:59.047Z</time></trkpt><trkpt lat="42.2963468" lon="12.2077875"><ele>502.0</ele><time>2026-03-28T11:18:00.047Z</time></trkpt><trkpt lat="42.2962946" lon="12.2079798"><ele>502.0</ele><time>2026-03-28T11:18:01.052Z</time></trkpt><trkpt lat="42.2962449" lon="12.2081643"><ele>502.0</ele><time>2026-03-28T11:18:02.049Z</time></trkpt><trkpt lat="42.2962104" lon="12.2083516"><ele>500.5</ele><time>2026-03-28T11:18:03.052Z</time></trkpt><trkpt lat="42.2961724" lon="12.2085409"><ele>499.0</ele><time>2026-03-28T11:18:04.043Z</time></trkpt><trkpt lat="42.2961286" lon="12.2087194"><ele>497.5</ele><time>2026-03-28T11:18:05.055Z</time></trkpt><trkpt lat="42.2960774" lon="12.2088909"><ele>496.0</ele><time>2026-03-28T11:18:06.044Z</time></trkpt><trkpt lat="42.2960419" lon="12.2090539"><ele>495.0</ele><time>2026-03-28T11:18:07.048Z</time></trkpt><trkpt lat="42.296008" lon="12.2091928"><ele>494.0</ele><time>2026-03-28T11:18:08.04Z</time></trkpt><trkpt lat="42.2959703" lon="12.2093323"><ele>493.0</ele><time>2026-03-28T11:18:09.046Z</time></trkpt><trkpt lat="42.2959355" lon="12.2094573"><ele>492.0</ele><time>2026-03-28T11:18:10.046Z</time></trkpt><trkpt lat="42.2958832" lon="12.2095835"><ele>491.0</ele><time>2026-03-28T11:18:11.057Z</time></trkpt><trkpt lat="42.2958178" lon="12.2096953"><ele>491.0</ele><time>2026-03-28T11:18:12.044Z</time></trkpt><trkpt lat="42.2957297" lon="12.2097847"><ele>491.0</ele><time>2026-03-28T11:18:13.054Z</time></trkpt><trkpt lat="42.29564" lon="12.2098464"><ele>491.0</ele><time>2026-03-28T11:18:14.041Z</time></trkpt><trkpt lat="42.2955347" lon="12.2098873"><ele>491.0</ele><time>2026-03-28T11:18:15.055Z</time></trkpt><trkpt lat="42.2954365" lon="12.2099373"><ele>491.0</ele><time>2026-03-28T11:18:16.046Z</time></trkpt><trkpt lat="42.2953463" lon="12.2099859"><ele>490.16666666666663</ele><time>2026-03-28T11:18:17.049Z</time></trkpt><trkpt lat="42.2952523" lon="12.2100205"><ele>489.3333333333333</ele><time>2026-03-28T11:18:18.045Z</time></trkpt><trkpt lat="42.2951695" lon="12.2100637"><ele>488.5</ele><time>2026-03-28T11:18:19.062Z</time></trkpt><trkpt lat="42.295075" lon="12.2101138"><ele>487.66666666666663</ele><time>2026-03-28T11:18:20.047Z</time></trkpt><trkpt lat="42.2949982" lon="12.2101546"><ele>486.8333333333333</ele><time>2026-03-28T11:18:21.054Z</time></trkpt><trkpt lat="42.2949287" lon="12.2101906"><ele>486.0</ele><time>2026-03-28T11:18:22.049Z</time></trkpt><trkpt lat="42.2948664" lon="12.2102198"><ele>486.0</ele><time>2026-03-28T11:18:23.049Z</time></trkpt><trkpt lat="42.2947548" lon="12.2102642"><ele>486.0</ele><time>2026-03-28T11:18:25.058Z</time></trkpt><trkpt lat="42.2946934" lon="12.2102896"><ele>486.0</ele><time>2026-03-28T11:18:26.052Z</time></trkpt><trkpt lat="42.2946293" lon="12.2103165"><ele>486.0</ele><time>2026-03-28T11:18:27.052Z</time></trkpt><trkpt lat="42.2945107" lon="12.2103619"><ele>486.0</ele><time>2026-03-28T11:18:29.044Z</time></trkpt><trkpt lat="42.2944352" lon="12.2103877"><ele>486.0</ele><time>2026-03-28T11:18:30.059Z</time></trkpt><trkpt lat="42.2943546" lon="12.2104017"><ele>485.6</ele><time>2026-03-28T11:18:31.044Z</time></trkpt><trkpt lat="42.2942744" lon="12.2104338"><ele>485.20000000000005</ele><time>2026-03-28T11:18:32.05Z</time></trkpt><trkpt lat="42.2941888" lon="12.2104807"><ele>484.79999999999995</ele><time>2026-03-28T11:18:33.046Z</time></trkpt><trkpt lat="42.2941014" lon="12.210518"><ele>484.4</ele><time>2026-03-28T11:18:34.051Z</time></trkpt><trkpt lat="42.2940181" lon="12.2105675"><ele>484.0</ele><time>2026-03-28T11:18:35.059Z</time></trkpt><trkpt lat="42.2939311" lon="12.210611"><ele>483.6</ele><time>2026-03-28T11:18:36.041Z</time></trkpt><trkpt lat="42.2938386" lon="12.2106551"><ele>483.2</ele><time>2026-03-28T11:18:37.048Z</time></trkpt><trkpt lat="42.2937449" lon="12.2107002"><ele>482.80000000000007</ele><time>2026-03-28T11:18:38.057Z</time></trkpt><trkpt lat="42.293661" lon="12.2107411"><ele>482.40000000000003</ele><time>2026-03-28T11:18:39.053Z</time></trkpt><trkpt lat="42.2935718" lon="12.2107804"><ele>482.0</ele><time>2026-03-28T11:18:40.055Z</time></trkpt><trkpt lat="42.2934798" lon="12.2108151"><ele>481.40000000000003</ele><time>2026-03-28T11:18:41.042Z</time></trkpt><trkpt lat="42.2933834" lon="12.2108493"><ele>480.80000000000007</ele><time>2026-03-28T11:18:42.047Z</time></trkpt><trkpt lat="42.2932931" lon="12.210899"><ele>480.2</ele><time>2026-03-28T11:18:43.043Z</time></trkpt><trkpt lat="42.2932025" lon="12.2109252"><ele>479.6</ele><time>2026-03-28T11:18:44.044Z</time></trkpt><trkpt lat="42.2931119" lon="12.2109615"><ele>479.0</ele><time>2026-03-28T11:18:45.041Z</time></trkpt><trkpt lat="42.2930228" lon="12.2110012"><ele>476.79999999999995</ele><time>2026-03-28T11:18:46.047Z</time></trkpt><trkpt lat="42.29293" lon="12.2110415"><ele>474.59999999999997</ele><time>2026-03-28T11:18:47.05Z</time></trkpt><trkpt lat="42.2928411" lon="12.2110719"><ele>472.4</ele><time>2026-03-28T11:18:48.042Z</time></trkpt><trkpt lat="42.2927332" lon="12.2110873"><ele>470.2</ele><time>2026-03-28T11:18:49.048Z</time></trkpt><trkpt lat="42.2926101" lon="12.2111075"><ele>468.0</ele><time>2026-03-28T11:18:50.051Z</time></trkpt><trkpt lat="42.2924929" lon="12.211127"><ele>468.0</ele><time>2026-03-28T11:18:51.044Z</time></trkpt><trkpt lat="42.2923903" lon="12.2111553"><ele>467.99999999999994</ele><time>2026-03-28T11:18:52.047Z</time></trkpt><trkpt lat="42.2922837" lon="12.2111827"><ele>467.99999999999994</ele><time>2026-03-28T11:18:53.047Z</time></trkpt><trkpt lat="42.2921825" lon="12.2112142"><ele>468.0</ele><time>2026-03-28T11:18:54.047Z</time></trkpt><trkpt lat="42.292073" lon="12.2112617"><ele>468.0</ele><time>2026-03-28T11:18:55.055Z</time></trkpt><trkpt lat="42.2919722" lon="12.2113181"><ele>467.5</ele><time>2026-03-28T11:18:56.042Z</time></trkpt><trkpt lat="42.291872" lon="12.2113748"><ele>467.0</ele><time>2026-03-28T11:18:57.046Z</time></trkpt><trkpt lat="42.2917654" lon="12.2114375"><ele>466.5</ele><time>2026-03-28T11:18:58.046Z</time></trkpt><trkpt lat="42.291659" lon="12.2115087"><ele>466.0</ele><time>2026-03-28T11:18:59.055Z</time></trkpt><trkpt lat="42.2915583" lon="12.2115852"><ele>464.5</ele><time>2026-03-28T11:19:00.04Z</time></trkpt><trkpt lat="42.2914606" lon="12.2116669"><ele>463.0</ele><time>2026-03-28T11:19:01.048Z</time></trkpt><trkpt lat="42.2913564" lon="12.2117375"><ele>461.5</ele><time>2026-03-28T11:19:02.047Z</time></trkpt><trkpt lat="42.2912553" lon="12.2118131"><ele>460.0</ele><time>2026-03-28T11:19:03.05Z</time></trkpt><trkpt lat="42.2911576" lon="12.2118959"><ele>460.0</ele><time>2026-03-28T11:19:04.05Z</time></trkpt><trkpt lat="42.2910547" lon="12.2119744"><ele>460.0</ele><time>2026-03-28T11:19:05.046Z</time></trkpt><trkpt lat="42.2909665" lon="12.2120718"><ele>460.0</ele><time>2026-03-28T11:19:06.052Z</time></trkpt><trkpt lat="42.2908838" lon="12.2121793"><ele>460.0</ele><time>2026-03-28T11:19:07.04Z</time></trkpt><trkpt lat="42.2908096" lon="12.2122873"><ele>459.4</ele><time>2026-03-28T11:19:08.046Z</time></trkpt><trkpt lat="42.2907421" lon="12.2124031"><ele>458.8</ele><time>2026-03-28T11:19:09.04Z</time></trkpt><trkpt lat="42.2906938" lon="12.2125255"><ele>458.20000000000005</ele><time>2026-03-28T11:19:10.056Z</time></trkpt><trkpt lat="42.2906595" lon="12.2126322"><ele>457.6</ele><time>2026-03-28T11:19:11.063Z</time></trkpt><trkpt lat="42.2906318" lon="12.212716"><ele>457.0</ele><time>2026-03-28T11:19:12.039Z</time></trkpt><trkpt lat="42.2905824" lon="12.2128094"><ele>457.00000000000006</ele><time>2026-03-28T11:19:17.045Z</time></trkpt><trkpt lat="42.290553" lon="12.2129091"><ele>457.0</ele><time>2026-03-28T11:19:23.041Z</time></trkpt><trkpt lat="42.2905208" lon="12.2130066"><ele>457.0</ele><time>2026-03-28T11:19:26.05Z</time></trkpt><trkpt lat="42.2904768" lon="12.2131091"><ele>457.0</ele><time>2026-03-28T11:19:28.064Z</time></trkpt><trkpt lat="42.2904408" lon="12.2131803"><ele>457.00000000000006</ele><time>2026-03-28T11:19:29.046Z</time></trkpt><trkpt lat="42.2904114" lon="12.2132577"><ele>457.0</ele><time>2026-03-28T11:19:30.05Z</time></trkpt><trkpt lat="42.2903506" lon="12.213393"><ele>456.00000000000006</ele><time>2026-03-28T11:19:32.047Z</time></trkpt><trkpt lat="42.2902954" lon="12.2135094"><ele>455.0</ele><time>2026-03-28T11:19:34.04Z</time></trkpt><trkpt lat="42.2902582" lon="12.2135961"><ele>454.0</ele><time>2026-03-28T11:20:26.049Z</time></trkpt><trkpt lat="42.2901938" lon="12.2137035"><ele>453.0</ele><time>2026-03-28T11:20:28.053Z</time></trkpt><trkpt lat="42.2901395" lon="12.2137903"><ele>452.00000000000006</ele><time>2026-03-28T11:20:29.043Z</time></trkpt><trkpt lat="42.2900798" lon="12.2138647"><ele>451.0</ele><time>2026-03-28T11:20:30.056Z</time></trkpt><trkpt lat="42.2899972" lon="12.2139507"><ele>451.0</ele><time>2026-03-28T11:20:31.044Z</time></trkpt><trkpt lat="42.2898949" lon="12.2140172"><ele>451.0</ele><time>2026-03-28T11:20:32.046Z</time></trkpt><trkpt lat="42.2897983" lon="12.2140767"><ele>451.0</ele><time>2026-03-28T11:20:33.041Z</time></trkpt><trkpt lat="42.2897054" lon="12.2141431"><ele>451.0</ele><time>2026-03-28T11:20:34.051Z</time></trkpt><trkpt lat="42.2896208" lon="12.2142116"><ele>451.0</ele><time>2026-03-28T11:20:35.041Z</time></trkpt><trkpt lat="42.2895306" lon="12.2142795"><ele>451.0</ele><time>2026-03-28T11:20:36.042Z</time></trkpt><trkpt lat="42.2894287" lon="12.2143439"><ele>451.0</ele><time>2026-03-28T11:20:37.039Z</time></trkpt><trkpt lat="42.2893196" lon="12.2143931"><ele>451.0</ele><time>2026-03-28T11:20:38.048Z</time></trkpt><trkpt lat="42.2892237" lon="12.2144269"><ele>451.0</ele><time>2026-03-28T11:20:39.042Z</time></trkpt><trkpt lat="42.2891188" lon="12.2144449"><ele>451.0</ele><time>2026-03-28T11:20:40.04Z</time></trkpt><trkpt lat="42.2890053" lon="12.2144495"><ele>451.4</ele><time>2026-03-28T11:20:41.046Z</time></trkpt><trkpt lat="42.2888887" lon="12.2144555"><ele>451.8</ele><time>2026-03-28T11:20:42.05Z</time></trkpt><trkpt lat="42.2887791" lon="12.2144636"><ele>452.19999999999993</ele><time>2026-03-28T11:20:43.043Z</time></trkpt><trkpt lat="42.2886722" lon="12.2144626"><ele>452.59999999999997</ele><time>2026-03-28T11:20:44.044Z</time></trkpt><trkpt lat="42.2885669" lon="12.2144653"><ele>453.0</ele><time>2026-03-28T11:20:45.043Z</time></trkpt><trkpt lat="42.2884653" lon="12.2144775"><ele>453.0</ele><time>2026-03-28T11:20:46.047Z</time></trkpt><trkpt lat="42.288358" lon="12.2144831"><ele>452.99999999999994</ele><time>2026-03-28T11:20:47.057Z</time></trkpt><trkpt lat="42.2882485" lon="12.2144915"><ele>452.99999999999994</ele><time>2026-03-28T11:20:48.057Z</time></trkpt><trkpt lat="42.2881351" lon="12.2145032"><ele>453.0</ele><time>2026-03-28T11:20:49.05Z</time></trkpt><trkpt lat="42.28802" lon="12.2145129"><ele>453.0</ele><time>2026-03-28T11:20:50.046Z</time></trkpt><trkpt lat="42.287904" lon="12.2145255"><ele>452.59999999999997</ele><time>2026-03-28T11:20:51.052Z</time></trkpt><trkpt lat="42.2877949" lon="12.2145434"><ele>452.19999999999993</ele><time>2026-03-28T11:20:52.043Z</time></trkpt><trkpt lat="42.2876893" lon="12.2145608"><ele>451.8</ele><time>2026-03-28T11:20:53.054Z</time></trkpt><trkpt lat="42.2875791" lon="12.2145636"><ele>451.4</ele><time>2026-03-28T11:20:54.044Z</time></trkpt><trkpt lat="42.2874587" lon="12.2145626"><ele>451.0</ele><time>2026-03-28T11:20:55.057Z</time></trkpt><trkpt lat="42.2873341" lon="12.2145714"><ele>450.0</ele><time>2026-03-28T11:20:56.043Z</time></trkpt><trkpt lat="42.2872084" lon="12.2145807"><ele>449.0</ele><time>2026-03-28T11:20:57.05Z</time></trkpt><trkpt lat="42.2870718" lon="12.2146018"><ele>448.0</ele><time>2026-03-28T11:20:58.053Z</time></trkpt><trkpt lat="42.2869208" lon="12.2146197"><ele>447.0</ele><time>2026-03-28T11:20:59.042Z</time></trkpt><trkpt lat="42.2867616" lon="12.2146342"><ele>447.0</ele><time>2026-03-28T11:21:00.054Z</time></trkpt><trkpt lat="42.2866151" lon="12.2146445"><ele>447.0</ele><time>2026-03-28T11:21:01.05Z</time></trkpt><trkpt lat="42.2864754" lon="12.2146556"><ele>447.0</ele><time>2026-03-28T11:21:02.043Z</time></trkpt><trkpt lat="42.2863374" lon="12.2146507"><ele>447.0</ele><time>2026-03-28T11:21:03.048Z</time></trkpt><trkpt lat="42.2861944" lon="12.214667"><ele>446.0</ele><time>2026-03-28T11:21:04.042Z</time></trkpt><trkpt lat="42.2860464" lon="12.2146886"><ele>445.0</ele><time>2026-03-28T11:21:05.055Z</time></trkpt><trkpt lat="42.2859055" lon="12.2147007"><ele>444.0</ele><time>2026-03-28T11:21:06.044Z</time></trkpt><trkpt lat="42.2857611" lon="12.2147075"><ele>443.0</ele><time>2026-03-28T11:21:07.038Z</time></trkpt><trkpt lat="42.2856232" lon="12.214727"><ele>441.5</ele><time>2026-03-28T11:21:08.058Z</time></trkpt><trkpt lat="42.2854847" lon="12.21474"><ele>440.0</ele><time>2026-03-28T11:21:09.056Z</time></trkpt><trkpt lat="42.2853651" lon="12.2147574"><ele>438.5</ele><time>2026-03-28T11:21:10.046Z</time></trkpt><trkpt lat="42.2852315" lon="12.2147692"><ele>437.0</ele><time>2026-03-28T11:21:11.055Z</time></trkpt><trkpt lat="42.285096" lon="12.2147901"><ele>437.0</ele><time>2026-03-28T11:21:12.042Z</time></trkpt><trkpt lat="42.284962" lon="12.21481"><ele>437.0</ele><time>2026-03-28T11:21:13.046Z</time></trkpt><trkpt lat="42.2848449" lon="12.2148084"><ele>437.0</ele><time>2026-03-28T11:21:14.046Z</time></trkpt><trkpt lat="42.2847257" lon="12.2148324"><ele>437.0</ele><time>2026-03-28T11:21:15.052Z</time></trkpt><trkpt lat="42.2846123" lon="12.2148417"><ele>435.0</ele><time>2026-03-28T11:21:16.042Z</time></trkpt><trkpt lat="42.2844996" lon="12.2148584"><ele>433.0</ele><time>2026-03-28T11:21:17.051Z</time></trkpt><trkpt lat="42.2843901" lon="12.2148743"><ele>431.0</ele><time>2026-03-28T11:21:18.045Z</time></trkpt><trkpt lat="42.2842767" lon="12.2148895"><ele>429.0</ele><time>2026-03-28T11:21:19.047Z</time></trkpt><trkpt lat="42.2841604" lon="12.2149001"><ele>429.0</ele><time>2026-03-28T11:21:20.052Z</time></trkpt><trkpt lat="42.2840377" lon="12.2149121"><ele>429.0</ele><time>2026-03-28T11:21:21.053Z</time></trkpt><trkpt lat="42.283907" lon="12.2149217"><ele>429.0</ele><time>2026-03-28T11:21:22.044Z</time></trkpt><trkpt lat="42.2837744" lon="12.2149284"><ele>429.0</ele><time>2026-03-28T11:21:23.057Z</time></trkpt><trkpt lat="42.2836448" lon="12.2149345"><ele>428.0</ele><time>2026-03-28T11:21:24.049Z</time></trkpt><trkpt lat="42.2835209" lon="12.2149437"><ele>427.0</ele><time>2026-03-28T11:21:25.046Z</time></trkpt><trkpt lat="42.28339" lon="12.2149574"><ele>426.0</ele><time>2026-03-28T11:21:26.046Z</time></trkpt><trkpt lat="42.2832628" lon="12.214972"><ele>425.0</ele><time>2026-03-28T11:21:27.053Z</time></trkpt><trkpt lat="42.2831328" lon="12.2149804"><ele>423.75</ele><time>2026-03-28T11:21:28.048Z</time></trkpt><trkpt lat="42.2830018" lon="12.2149895"><ele>422.5</ele><time>2026-03-28T11:21:29.055Z</time></trkpt><trkpt lat="42.2828713" lon="12.2149946"><ele>421.25</ele><time>2026-03-28T11:21:30.047Z</time></trkpt><trkpt lat="42.2827414" lon="12.2150085"><ele>420.0</ele><time>2026-03-28T11:21:31.052Z</time></trkpt><trkpt lat="42.2826034" lon="12.215025"><ele>420.0</ele><time>2026-03-28T11:21:32.042Z</time></trkpt><trkpt lat="42.2824666" lon="12.2150296"><ele>420.0</ele><time>2026-03-28T11:21:33.054Z</time></trkpt><trkpt lat="42.2823255" lon="12.2150403"><ele>420.0</ele><time>2026-03-28T11:21:34.046Z</time></trkpt><trkpt lat="42.2821982" lon="12.2150593"><ele>420.0</ele><time>2026-03-28T11:21:35.047Z</time></trkpt><trkpt lat="42.2820658" lon="12.2150837"><ele>419.25</ele><time>2026-03-28T11:21:36.051Z</time></trkpt><trkpt lat="42.2819226" lon="12.2151163"><ele>418.5</ele><time>2026-03-28T11:21:37.046Z</time></trkpt><trkpt lat="42.2817951" lon="12.2151603"><ele>417.75</ele><time>2026-03-28T11:21:38.049Z</time></trkpt><trkpt lat="42.2816673" lon="12.2152434"><ele>417.0</ele><time>2026-03-28T11:21:39.043Z</time></trkpt><trkpt lat="42.281549" lon="12.2153426"><ele>416.25</ele><time>2026-03-28T11:21:40.048Z</time></trkpt><trkpt lat="42.2814305" lon="12.2154562"><ele>415.5</ele><time>2026-03-28T11:21:41.046Z</time></trkpt><trkpt lat="42.281326" lon="12.215571"><ele>414.75</ele><time>2026-03-28T11:21:42.044Z</time></trkpt><trkpt lat="42.2812317" lon="12.2157039"><ele>414.0</ele><time>2026-03-28T11:21:43.05Z</time></trkpt><trkpt lat="42.2811289" lon="12.2158256"><ele>413.5</ele><time>2026-03-28T11:21:44.047Z</time></trkpt><trkpt lat="42.2810427" lon="12.2159603"><ele>413.0</ele><time>2026-03-28T11:21:45.048Z</time></trkpt><trkpt lat="42.2809456" lon="12.2160952"><ele>412.5</ele><time>2026-03-28T11:21:46.061Z</time></trkpt><trkpt lat="42.2808584" lon="12.2162286"><ele>412.0</ele><time>2026-03-28T11:21:47.045Z</time></trkpt><trkpt lat="42.2807576" lon="12.2163845"><ele>412.0</ele><time>2026-03-28T11:21:48.048Z</time></trkpt><trkpt lat="42.2806576" lon="12.2165293"><ele>412.0</ele><time>2026-03-28T11:21:49.047Z</time></trkpt><trkpt lat="42.2805567" lon="12.2166633"><ele>412.0</ele><time>2026-03-28T11:21:50.049Z</time></trkpt><trkpt lat="42.2804455" lon="12.2168129"><ele>412.0</ele><time>2026-03-28T11:21:51.044Z</time></trkpt><trkpt lat="42.2803435" lon="12.216964"><ele>411.0</ele><time>2026-03-28T11:21:52.042Z</time></trkpt><trkpt lat="42.2802612" lon="12.2171142"><ele>410.0</ele><time>2026-03-28T11:21:53.046Z</time></trkpt><trkpt lat="42.2801806" lon="12.2172594"><ele>409.0</ele><time>2026-03-28T11:21:54.041Z</time></trkpt><trkpt lat="42.280111" lon="12.2173842"><ele>408.0</ele><time>2026-03-28T11:21:55.042Z</time></trkpt><trkpt lat="42.2800368" lon="12.2175344"><ele>407.75</ele><time>2026-03-28T11:21:56.039Z</time></trkpt><trkpt lat="42.2799616" lon="12.2176679"><ele>407.5</ele><time>2026-03-28T11:21:57.046Z</time></trkpt><trkpt lat="42.2798916" lon="12.2178084"><ele>407.25</ele><time>2026-03-28T11:21:58.055Z</time></trkpt><trkpt lat="42.2798272" lon="12.2179573"><ele>407.0</ele><time>2026-03-28T11:21:59.043Z</time></trkpt><trkpt lat="42.2797557" lon="12.2181193"><ele>405.8</ele><time>2026-03-28T11:22:00.05Z</time></trkpt><trkpt lat="42.2796956" lon="12.2182814"><ele>404.6</ele><time>2026-03-28T11:22:01.047Z</time></trkpt><trkpt lat="42.27966" lon="12.218432"><ele>403.40000000000003</ele><time>2026-03-28T11:22:02.046Z</time></trkpt><trkpt lat="42.2796338" lon="12.2185619"><ele>402.20000000000005</ele><time>2026-03-28T11:22:03.042Z</time></trkpt><trkpt lat="42.279613" lon="12.2186713"><ele>401.0</ele><time>2026-03-28T11:22:04.046Z</time></trkpt><trkpt lat="42.2796011" lon="12.2187728"><ele>401.0</ele><time>2026-03-28T11:22:05.045Z</time></trkpt><trkpt lat="42.279594" lon="12.2188652"><ele>401.0</ele><time>2026-03-28T11:22:06.043Z</time></trkpt><trkpt lat="42.2795604" lon="12.2189973"><ele>401.0</ele><time>2026-03-28T11:22:08.048Z</time></trkpt><trkpt lat="42.279459" lon="12.2190934"><ele>401.0</ele><time>2026-03-28T11:22:10.053Z</time></trkpt><trkpt lat="42.2793779" lon="12.2191378"><ele>401.0</ele><time>2026-03-28T11:22:11.045Z</time></trkpt><trkpt lat="42.2792747" lon="12.2191648"><ele>401.0</ele><time>2026-03-28T11:22:12.042Z</time></trkpt><trkpt lat="42.2791569" lon="12.219172"><ele>401.0</ele><time>2026-03-28T11:22:13.042Z</time></trkpt><trkpt lat="42.2790255" lon="12.2191698"><ele>401.0</ele><time>2026-03-28T11:22:14.054Z</time></trkpt><trkpt lat="42.2788929" lon="12.2191784"><ele>401.0</ele><time>2026-03-28T11:22:15.051Z</time></trkpt><trkpt lat="42.2787523" lon="12.219184"><ele>400.0</ele><time>2026-03-28T11:22:16.044Z</time></trkpt><trkpt lat="42.2786048" lon="12.2191727"><ele>399.0</ele><time>2026-03-28T11:22:17.045Z</time></trkpt><trkpt lat="42.2784543" lon="12.2191562"><ele>398.0</ele><time>2026-03-28T11:22:18.04Z</time></trkpt><trkpt lat="42.2782976" lon="12.2190963"><ele>398.0</ele><time>2026-03-28T11:22:19.055Z</time></trkpt><trkpt lat="42.2781226" lon="12.2190306"><ele>398.0</ele><time>2026-03-28T11:22:20.046Z</time></trkpt><trkpt lat="42.2779918" lon="12.2189406"><ele>398.0</ele><time>2026-03-28T11:22:21.06Z</time></trkpt><trkpt lat="42.2778339" lon="12.2188562"><ele>396.3333333333333</ele><time>2026-03-28T11:22:22.042Z</time></trkpt><trkpt lat="42.2776586" lon="12.218792"><ele>394.66666666666663</ele><time>2026-03-28T11:22:23.049Z</time></trkpt><trkpt lat="42.2774819" lon="12.2187137"><ele>393.0</ele><time>2026-03-28T11:22:24.045Z</time></trkpt><trkpt lat="42.2773035" lon="12.2186244"><ele>393.33333333333337</ele><time>2026-03-28T11:22:25.048Z</time></trkpt><trkpt lat="42.2771406" lon="12.2185526"><ele>393.6666666666667</ele><time>2026-03-28T11:22:26.04Z</time></trkpt><trkpt lat="42.2769927" lon="12.2184935"><ele>394.0</ele><time>2026-03-28T11:22:27.062Z</time></trkpt><trkpt lat="42.276818" lon="12.2184029"><ele>394.0</ele><time>2026-03-28T11:22:28.052Z</time></trkpt><trkpt lat="42.2766773" lon="12.2183114"><ele>394.0</ele><time>2026-03-28T11:22:29.042Z</time></trkpt><trkpt lat="42.2765254" lon="12.218231"><ele>394.0</ele><time>2026-03-28T11:22:30.055Z</time></trkpt><trkpt lat="42.2763849" lon="12.2181657"><ele>389.6666666666667</ele><time>2026-03-28T11:22:31.044Z</time></trkpt><trkpt lat="42.2762342" lon="12.2180606"><ele>385.33333333333337</ele><time>2026-03-28T11:22:32.048Z</time></trkpt><trkpt lat="42.2760956" lon="12.2179953"><ele>381.0</ele><time>2026-03-28T11:22:33.043Z</time></trkpt><trkpt lat="42.275925" lon="12.2179516"><ele>381.0</ele><time>2026-03-28T11:22:34.042Z</time></trkpt><trkpt lat="42.2757699" lon="12.2179519"><ele>381.0</ele><time>2026-03-28T11:22:35.044Z</time></trkpt><trkpt lat="42.2756216" lon="12.2179904"><ele>381.0</ele><time>2026-03-28T11:22:36.048Z</time></trkpt><trkpt lat="42.2754872" lon="12.2181085"><ele>376.0</ele><time>2026-03-28T11:22:37.056Z</time></trkpt><trkpt lat="42.2753542" lon="12.2182398"><ele>371.0</ele><time>2026-03-28T11:22:38.038Z</time></trkpt><trkpt lat="42.2752043" lon="12.2184059"><ele>366.0</ele><time>2026-03-28T11:22:39.05Z</time></trkpt><trkpt lat="42.2750537" lon="12.2185828"><ele>366.0</ele><time>2026-03-28T11:22:40.041Z</time></trkpt><trkpt lat="42.2749183" lon="12.2187585"><ele>366.0</ele><time>2026-03-28T11:22:41.054Z</time></trkpt><trkpt lat="42.2747917" lon="12.2189224"><ele>366.0</ele><time>2026-03-28T11:22:42.047Z</time></trkpt><trkpt lat="42.2746745" lon="12.219056"><ele>364.75</ele><time>2026-03-28T11:22:43.049Z</time></trkpt><trkpt lat="42.2745711" lon="12.2191677"><ele>363.5</ele><time>2026-03-28T11:22:44.046Z</time></trkpt><trkpt lat="42.2744501" lon="12.2192222"><ele>362.25</ele><time>2026-03-28T11:22:45.044Z</time></trkpt><trkpt lat="42.2742979" lon="12.21919"><ele>361.0</ele><time>2026-03-28T11:22:46.045Z</time></trkpt><trkpt lat="42.2741835" lon="12.2191418"><ele>361.0</ele><time>2026-03-28T11:22:47.042Z</time></trkpt><trkpt lat="42.2740382" lon="12.2190198"><ele>361.0</ele><time>2026-03-28T11:22:48.046Z</time></trkpt><trkpt lat="42.2738792" lon="12.2189161"><ele>361.0</ele><time>2026-03-28T11:22:49.04Z</time></trkpt><trkpt lat="42.273736" lon="12.2188488"><ele>363.5</ele><time>2026-03-28T11:22:50.039Z</time></trkpt><trkpt lat="42.2736087" lon="12.2188295"><ele>366.0</ele><time>2026-03-28T11:22:51.038Z</time></trkpt><trkpt lat="42.2734766" lon="12.2189021"><ele>368.5</ele><time>2026-03-28T11:22:52.05Z</time></trkpt><trkpt lat="42.2733454" lon="12.2190331"><ele>371.0</ele><time>2026-03-28T11:22:53.046Z</time></trkpt><trkpt lat="42.273275" lon="12.2192037"><ele>371.0</ele><time>2026-03-28T11:22:54.05Z</time></trkpt><trkpt lat="42.2732079" lon="12.2193758"><ele>371.0</ele><time>2026-03-28T11:22:55.042Z</time></trkpt><trkpt lat="42.2731161" lon="12.2195541"><ele>371.0</ele><time>2026-03-28T11:22:56.048Z</time></trkpt><trkpt lat="42.2730139" lon="12.2197285"><ele>373.6666666666667</ele><time>2026-03-28T11:22:57.039Z</time></trkpt><trkpt lat="42.2729032" lon="12.21989"><ele>376.3333333333333</ele><time>2026-03-28T11:22:58.041Z</time></trkpt><trkpt lat="42.2727769" lon="12.2200124"><ele>379.0</ele><time>2026-03-28T11:22:59.047Z</time></trkpt><trkpt lat="42.272634" lon="12.2200909"><ele>379.0</ele><time>2026-03-28T11:23:00.046Z</time></trkpt><trkpt lat="42.2724715" lon="12.2200817"><ele>379.0</ele><time>2026-03-28T11:23:01.042Z</time></trkpt><trkpt lat="42.2723106" lon="12.2200517"><ele>379.0</ele><time>2026-03-28T11:23:02.047Z</time></trkpt><trkpt lat="42.272148" lon="12.2200308"><ele>379.66666666666663</ele><time>2026-03-28T11:23:03.042Z</time></trkpt><trkpt lat="42.272002" lon="12.2200007"><ele>380.3333333333333</ele><time>2026-03-28T11:23:04.042Z</time></trkpt><trkpt lat="42.2718611" lon="12.2199559"><ele>381.0</ele><time>2026-03-28T11:23:05.053Z</time></trkpt><trkpt lat="42.2716876" lon="12.2199405"><ele>381.0</ele><time>2026-03-28T11:23:06.042Z</time></trkpt><trkpt lat="42.2715253" lon="12.2199294"><ele>381.0</ele><time>2026-03-28T11:23:07.053Z</time></trkpt><trkpt lat="42.2713383" lon="12.2199154"><ele>381.0</ele><time>2026-03-28T11:23:08.042Z</time></trkpt><trkpt lat="42.2711586" lon="12.219908"><ele>381.3333333333333</ele><time>2026-03-28T11:23:09.055Z</time></trkpt><trkpt lat="42.2709947" lon="12.2198692"><ele>381.66666666666663</ele><time>2026-03-28T11:23:10.039Z</time></trkpt><trkpt lat="42.2708351" lon="12.2198539"><ele>382.0</ele><time>2026-03-28T11:23:11.046Z</time></trkpt><trkpt lat="42.2706754" lon="12.2198828"><ele>381.0</ele><time>2026-03-28T11:23:12.046Z</time></trkpt><trkpt lat="42.2705239" lon="12.2199071"><ele>380.0</ele><time>2026-03-28T11:23:13.044Z</time></trkpt><trkpt lat="42.2703721" lon="12.2199495"><ele>379.0</ele><time>2026-03-28T11:23:14.047Z</time></trkpt><trkpt lat="42.2702351" lon="12.2199938"><ele>378.0</ele><time>2026-03-28T11:23:15.05Z</time></trkpt><trkpt lat="42.2700891" lon="12.2200272"><ele>378.0</ele><time>2026-03-28T11:23:16.05Z</time></trkpt><trkpt lat="42.2699401" lon="12.2200671"><ele>378.0</ele><time>2026-03-28T11:23:17.051Z</time></trkpt><trkpt lat="42.2697712" lon="12.2201033"><ele>378.0</ele><time>2026-03-28T11:23:18.047Z</time></trkpt><trkpt lat="42.2695942" lon="12.2201359"><ele>377.3333333333333</ele><time>2026-03-28T11:23:19.044Z</time></trkpt><trkpt lat="42.2694248" lon="12.2201636"><ele>376.66666666666663</ele><time>2026-03-28T11:23:20.047Z</time></trkpt><trkpt lat="42.2692851" lon="12.2201941"><ele>376.0</ele><time>2026-03-28T11:23:21.054Z</time></trkpt><trkpt lat="42.2691229" lon="12.2201967"><ele>376.0</ele><time>2026-03-28T11:23:22.042Z</time></trkpt><trkpt lat="42.2689509" lon="12.220172"><ele>376.0</ele><time>2026-03-28T11:23:23.051Z</time></trkpt><trkpt lat="42.268798" lon="12.2201368"><ele>376.0</ele><time>2026-03-28T11:23:24.049Z</time></trkpt><trkpt lat="42.2686435" lon="12.2201013"><ele>375.0</ele><time>2026-03-28T11:23:25.055Z</time></trkpt><trkpt lat="42.2684925" lon="12.2200239"><ele>374.0</ele><time>2026-03-28T11:23:26.054Z</time></trkpt><trkpt lat="42.2683481" lon="12.2199216"><ele>373.0</ele><time>2026-03-28T11:23:27.064Z</time></trkpt><trkpt lat="42.2681978" lon="12.2198115"><ele>370.66666666666663</ele><time>2026-03-28T11:23:28.053Z</time></trkpt><trkpt lat="42.2680467" lon="12.2197052"><ele>368.3333333333333</ele><time>2026-03-28T11:23:29.05Z</time></trkpt><trkpt lat="42.2678941" lon="12.2195875"><ele>366.0</ele><time>2026-03-28T11:23:30.047Z</time></trkpt><trkpt lat="42.2677532" lon="12.2194782"><ele>366.0</ele><time>2026-03-28T11:23:31.05Z</time></trkpt><trkpt lat="42.2676038" lon="12.2193442"><ele>366.0</ele><time>2026-03-28T11:23:32.045Z</time></trkpt><trkpt lat="42.2674451" lon="12.219221"><ele>366.0</ele><time>2026-03-28T11:23:33.05Z</time></trkpt><trkpt lat="42.2672936" lon="12.219105"><ele>364.0</ele><time>2026-03-28T11:23:34.051Z</time></trkpt><trkpt lat="42.2671528" lon="12.218973"><ele>362.0</ele><time>2026-03-28T11:23:35.045Z</time></trkpt><trkpt lat="42.2669906" lon="12.2188587"><ele>360.0</ele><time>2026-03-28T11:23:36.048Z</time></trkpt><trkpt lat="42.2668445" lon="12.2187499"><ele>360.0</ele><time>2026-03-28T11:23:37.047Z</time></trkpt><trkpt lat="42.266675" lon="12.2186418"><ele>360.0</ele><time>2026-03-28T11:23:38.056Z</time></trkpt><trkpt lat="42.2665038" lon="12.2185498"><ele>360.0</ele><time>2026-03-28T11:23:39.049Z</time></trkpt><trkpt lat="42.2663366" lon="12.2184962"><ele>358.3333333333333</ele><time>2026-03-28T11:23:40.045Z</time></trkpt><trkpt lat="42.2661485" lon="12.2184374"><ele>356.66666666666663</ele><time>2026-03-28T11:23:41.043Z</time></trkpt><trkpt lat="42.2659669" lon="12.2183961"><ele>355.0</ele><time>2026-03-28T11:23:42.052Z</time></trkpt><trkpt lat="42.265777" lon="12.2183488"><ele>354.0</ele><time>2026-03-28T11:23:43.048Z</time></trkpt><trkpt lat="42.2655907" lon="12.2183154"><ele>353.0</ele><time>2026-03-28T11:23:44.054Z</time></trkpt><trkpt lat="42.2654176" lon="12.2182763"><ele>352.0</ele><time>2026-03-28T11:23:45.04Z</time></trkpt><trkpt lat="42.2652372" lon="12.2182543"><ele>352.0</ele><time>2026-03-28T11:23:46.059Z</time></trkpt><trkpt lat="42.2650601" lon="12.2182218"><ele>352.0</ele><time>2026-03-28T11:23:47.044Z</time></trkpt><trkpt lat="42.2648625" lon="12.2181834"><ele>352.0</ele><time>2026-03-28T11:23:48.043Z</time></trkpt><trkpt lat="42.2646893" lon="12.2181671"><ele>351.66666666666663</ele><time>2026-03-28T11:23:49.049Z</time></trkpt><trkpt lat="42.2644997" lon="12.2181643"><ele>351.3333333333333</ele><time>2026-03-28T11:23:50.051Z</time></trkpt><trkpt lat="42.2643221" lon="12.2181626"><ele>351.0</ele><time>2026-03-28T11:23:51.052Z</time></trkpt><trkpt lat="42.2641498" lon="12.2181685"><ele>351.0</ele><time>2026-03-28T11:23:52.045Z</time></trkpt><trkpt lat="42.2639697" lon="12.2181757"><ele>351.0</ele><time>2026-03-28T11:23:53.051Z</time></trkpt><trkpt lat="42.2638044" lon="12.2181595"><ele>351.0</ele><time>2026-03-28T11:23:54.042Z</time></trkpt><trkpt lat="42.2636324" lon="12.2181549"><ele>351.0</ele><time>2026-03-28T11:23:55.055Z</time></trkpt><trkpt lat="42.2634378" lon="12.2181535"><ele>351.0</ele><time>2026-03-28T11:23:56.041Z</time></trkpt><trkpt lat="42.2632764" lon="12.2181263"><ele>351.0</ele><time>2026-03-28T11:23:57.05Z</time></trkpt><trkpt lat="42.2631178" lon="12.2180934"><ele>350.3333333333333</ele><time>2026-03-28T11:23:58.052Z</time></trkpt><trkpt lat="42.2629524" lon="12.2181075"><ele>349.66666666666663</ele><time>2026-03-28T11:23:59.044Z</time></trkpt><trkpt lat="42.2627651" lon="12.2180983"><ele>349.0</ele><time>2026-03-28T11:24:00.048Z</time></trkpt><trkpt lat="42.2625784" lon="12.2181166"><ele>349.0</ele><time>2026-03-28T11:24:01.046Z</time></trkpt><trkpt lat="42.2624039" lon="12.2181479"><ele>349.0</ele><time>2026-03-28T11:24:02.044Z</time></trkpt><trkpt lat="42.262213" lon="12.2181772"><ele>349.0</ele><time>2026-03-28T11:24:03.044Z</time></trkpt><trkpt lat="42.2620448" lon="12.2182488"><ele>347.0</ele><time>2026-03-28T11:24:04.039Z</time></trkpt><trkpt lat="42.2618854" lon="12.2183184"><ele>345.0</ele><time>2026-03-28T11:24:05.049Z</time></trkpt><trkpt lat="42.2617215" lon="12.2183664"><ele>343.0</ele><time>2026-03-28T11:24:06.047Z</time></trkpt><trkpt lat="42.2615457" lon="12.2184244"><ele>342.66666666666663</ele><time>2026-03-28T11:24:07.057Z</time></trkpt><trkpt lat="42.2613678" lon="12.2184566"><ele>342.3333333333333</ele><time>2026-03-28T11:24:08.047Z</time></trkpt><trkpt lat="42.2611922" lon="12.218505"><ele>342.0</ele><time>2026-03-28T11:24:09.047Z</time></trkpt><trkpt lat="42.2610305" lon="12.218558"><ele>342.0</ele><time>2026-03-28T11:24:10.051Z</time></trkpt><trkpt lat="42.2608715" lon="12.2186178"><ele>342.0</ele><time>2026-03-28T11:24:11.039Z</time></trkpt><trkpt lat="42.2607049" lon="12.2186778"><ele>342.0</ele><time>2026-03-28T11:24:12.039Z</time></trkpt><trkpt lat="42.2605538" lon="12.2187152"><ele>341.6666666666667</ele><time>2026-03-28T11:24:13.047Z</time></trkpt><trkpt lat="42.260395" lon="12.2187283"><ele>341.33333333333337</ele><time>2026-03-28T11:24:14.042Z</time></trkpt><trkpt lat="42.2602392" lon="12.2187242"><ele>341.0</ele><time>2026-03-28T11:24:15.051Z</time></trkpt><trkpt lat="42.2600748" lon="12.2186887"><ele>341.0</ele><time>2026-03-28T11:24:16.045Z</time></trkpt><trkpt lat="42.2598918" lon="12.2186083"><ele>341.0</ele><time>2026-03-28T11:24:17.043Z</time></trkpt><trkpt lat="42.2597074" lon="12.2185533"><ele>341.0</ele><time>2026-03-28T11:24:18.046Z</time></trkpt><trkpt lat="42.259529" lon="12.2184796"><ele>339.6666666666667</ele><time>2026-03-28T11:24:19.042Z</time></trkpt><trkpt lat="42.2593381" lon="12.2183785"><ele>338.3333333333333</ele><time>2026-03-28T11:24:20.053Z</time></trkpt><trkpt lat="42.2591752" lon="12.21828"><ele>337.0</ele><time>2026-03-28T11:24:21.051Z</time></trkpt><trkpt lat="42.2590193" lon="12.2181345"><ele>335.66666666666663</ele><time>2026-03-28T11:24:22.044Z</time></trkpt><trkpt lat="42.258858" lon="12.2179839"><ele>334.3333333333333</ele><time>2026-03-28T11:24:23.051Z</time></trkpt><trkpt lat="42.2586896" lon="12.217819"><ele>333.0</ele><time>2026-03-28T11:24:24.053Z</time></trkpt><trkpt lat="42.258521" lon="12.2176615"><ele>333.0</ele><time>2026-03-28T11:24:25.053Z</time></trkpt><trkpt lat="42.2583545" lon="12.2175226"><ele>333.0</ele><time>2026-03-28T11:24:26.04Z</time></trkpt><trkpt lat="42.2582034" lon="12.2173569"><ele>333.0</ele><time>2026-03-28T11:24:27.056Z</time></trkpt><trkpt lat="42.2580463" lon="12.2172016"><ele>332.6666666666667</ele><time>2026-03-28T11:24:28.051Z</time></trkpt><trkpt lat="42.2578902" lon="12.2170566"><ele>332.33333333333337</ele><time>2026-03-28T11:24:29.043Z</time></trkpt><trkpt lat="42.2577268" lon="12.2169158"><ele>332.0</ele><time>2026-03-28T11:24:30.042Z</time></trkpt><trkpt lat="42.2575546" lon="12.2168124"><ele>332.0</ele><time>2026-03-28T11:24:31.048Z</time></trkpt><trkpt lat="42.2573675" lon="12.2167194"><ele>332.0</ele><time>2026-03-28T11:24:32.047Z</time></trkpt><trkpt lat="42.2571593" lon="12.2166439"><ele>332.0</ele><time>2026-03-28T11:24:33.045Z</time></trkpt><trkpt lat="42.2569512" lon="12.2165781"><ele>331.6666666666667</ele><time>2026-03-28T11:24:34.049Z</time></trkpt><trkpt lat="42.2567521" lon="12.2165199"><ele>331.3333333333333</ele><time>2026-03-28T11:24:35.051Z</time></trkpt><trkpt lat="42.256551" lon="12.2164558"><ele>331.0</ele><time>2026-03-28T11:24:36.045Z</time></trkpt><trkpt lat="42.2563596" lon="12.2163986"><ele>331.0</ele><time>2026-03-28T11:24:37.042Z</time></trkpt><trkpt lat="42.2561692" lon="12.2163489"><ele>331.0</ele><time>2026-03-28T11:24:38.055Z</time></trkpt><trkpt lat="42.2559768" lon="12.2162951"><ele>331.0</ele><time>2026-03-28T11:24:39.051Z</time></trkpt><trkpt lat="42.2557813" lon="12.2162343"><ele>330.0</ele><time>2026-03-28T11:24:40.053Z</time></trkpt><trkpt lat="42.2555801" lon="12.2161745"><ele>329.0</ele><time>2026-03-28T11:24:41.046Z</time></trkpt><trkpt lat="42.2553914" lon="12.2161201"><ele>328.0</ele><time>2026-03-28T11:24:42.05Z</time></trkpt><trkpt lat="42.2552085" lon="12.2160564"><ele>328.0</ele><time>2026-03-28T11:24:43.039Z</time></trkpt><trkpt lat="42.2550196" lon="12.2159901"><ele>328.0</ele><time>2026-03-28T11:24:44.047Z</time></trkpt><trkpt lat="42.2548385" lon="12.2158974"><ele>328.0</ele><time>2026-03-28T11:24:45.048Z</time></trkpt><trkpt lat="42.2546584" lon="12.2158027"><ele>327.0</ele><time>2026-03-28T11:24:46.051Z</time></trkpt><trkpt lat="42.2544751" lon="12.2157152"><ele>326.0</ele><time>2026-03-28T11:24:47.05Z</time></trkpt><trkpt lat="42.2543013" lon="12.2156217"><ele>325.0</ele><time>2026-03-28T11:24:48.046Z</time></trkpt><trkpt lat="42.2541241" lon="12.2155108"><ele>324.66666666666663</ele><time>2026-03-28T11:24:49.048Z</time></trkpt><trkpt lat="42.2539413" lon="12.2153812"><ele>324.3333333333333</ele><time>2026-03-28T11:24:50.055Z</time></trkpt><trkpt lat="42.2537633" lon="12.2152648"><ele>324.0</ele><time>2026-03-28T11:24:51.049Z</time></trkpt><trkpt lat="42.2536034" lon="12.2151587"><ele>324.0</ele><time>2026-03-28T11:24:52.051Z</time></trkpt><trkpt lat="42.2534453" lon="12.2150906"><ele>324.0</ele><time>2026-03-28T11:24:53.043Z</time></trkpt><trkpt lat="42.2532789" lon="12.2150419"><ele>324.0</ele><time>2026-03-28T11:24:54.039Z</time></trkpt><trkpt lat="42.2531269" lon="12.2150271"><ele>325.0</ele><time>2026-03-28T11:24:55.047Z</time></trkpt><trkpt lat="42.2529738" lon="12.215088"><ele>326.0</ele><time>2026-03-28T11:24:56.044Z</time></trkpt><trkpt lat="42.252831" lon="12.2152024"><ele>327.0</ele><time>2026-03-28T11:24:57.046Z</time></trkpt><trkpt lat="42.2526815" lon="12.2153403"><ele>327.0</ele><time>2026-03-28T11:24:58.044Z</time></trkpt><trkpt lat="42.2525199" lon="12.2154748"><ele>327.0</ele><time>2026-03-28T11:24:59.043Z</time></trkpt><trkpt lat="42.2523701" lon="12.2156401"><ele>327.0</ele><time>2026-03-28T11:25:00.043Z</time></trkpt><trkpt lat="42.2522181" lon="12.21578"><ele>327.0</ele><time>2026-03-28T11:25:01.045Z</time></trkpt><trkpt lat="42.2520498" lon="12.2158827"><ele>327.0</ele><time>2026-03-28T11:25:02.046Z</time></trkpt><trkpt lat="42.2518776" lon="12.2159496"><ele>327.0</ele><time>2026-03-28T11:25:03.041Z</time></trkpt><trkpt lat="42.2516953" lon="12.2159718"><ele>327.0</ele><time>2026-03-28T11:25:04.05Z</time></trkpt><trkpt lat="42.2515127" lon="12.2159702"><ele>327.0</ele><time>2026-03-28T11:25:05.046Z</time></trkpt><trkpt lat="42.2513337" lon="12.2159683"><ele>327.0</ele><time>2026-03-28T11:25:06.048Z</time></trkpt><trkpt lat="42.2511429" lon="12.2159185"><ele>325.0</ele><time>2026-03-28T11:25:07.055Z</time></trkpt><trkpt lat="42.2509433" lon="12.2158645"><ele>323.0</ele><time>2026-03-28T11:25:08.046Z</time></trkpt><trkpt lat="42.2507619" lon="12.2158282"><ele>321.0</ele><time>2026-03-28T11:25:09.044Z</time></trkpt><trkpt lat="42.2506052" lon="12.2158185"><ele>318.6666666666667</ele><time>2026-03-28T11:25:10.057Z</time></trkpt><trkpt lat="42.2504246" lon="12.2157881"><ele>316.33333333333337</ele><time>2026-03-28T11:25:11.051Z</time></trkpt><trkpt lat="42.2502521" lon="12.2157779"><ele>314.0</ele><time>2026-03-28T11:25:12.049Z</time></trkpt><trkpt lat="42.250074" lon="12.2157502"><ele>314.0</ele><time>2026-03-28T11:25:13.042Z</time></trkpt><trkpt lat="42.2499281" lon="12.2157437"><ele>314.0</ele><time>2026-03-28T11:25:14.04Z</time></trkpt><trkpt lat="42.2497837" lon="12.2157118"><ele>314.0</ele><time>2026-03-28T11:25:15.04Z</time></trkpt><trkpt lat="42.2496459" lon="12.2157102"><ele>314.0</ele><time>2026-03-28T11:25:16.042Z</time></trkpt><trkpt lat="42.2495066" lon="12.2156778"><ele>313.0</ele><time>2026-03-28T11:25:17.043Z</time></trkpt><trkpt lat="42.2493815" lon="12.2156631"><ele>312.0</ele><time>2026-03-28T11:25:18.052Z</time></trkpt><trkpt lat="42.2492547" lon="12.2156518"><ele>311.0</ele><time>2026-03-28T11:25:19.04Z</time></trkpt><trkpt lat="42.2491511" lon="12.2156313"><ele>310.0</ele><time>2026-03-28T11:25:20.046Z</time></trkpt><trkpt lat="42.2490507" lon="12.2155967"><ele>310.0</ele><time>2026-03-28T11:25:21.042Z</time></trkpt><trkpt lat="42.248974" lon="12.215572"><ele>310.0</ele><time>2026-03-28T11:25:22.04Z</time></trkpt><trkpt lat="42.2488918" lon="12.2155629"><ele>310.0</ele><time>2026-03-28T11:25:23.044Z</time></trkpt><trkpt lat="42.2487949" lon="12.2155588"><ele>310.0</ele><time>2026-03-28T11:25:24.057Z</time></trkpt><trkpt lat="42.2487109" lon="12.2155503"><ele>310.0</ele><time>2026-03-28T11:25:25.05Z</time></trkpt><trkpt lat="42.2486156" lon="12.215535"><ele>310.0</ele><time>2026-03-28T11:25:26.052Z</time></trkpt><trkpt lat="42.2485149" lon="12.2155147"><ele>310.2</ele><time>2026-03-28T11:25:27.049Z</time></trkpt><trkpt lat="42.2484148" lon="12.2154897"><ele>310.4</ele><time>2026-03-28T11:25:28.04Z</time></trkpt><trkpt lat="42.2483151" lon="12.2154653"><ele>310.6</ele><time>2026-03-28T11:25:29.053Z</time></trkpt><trkpt lat="42.2482168" lon="12.2154434"><ele>310.8</ele><time>2026-03-28T11:25:30.037Z</time></trkpt><trkpt lat="42.2481219" lon="12.215439"><ele>311.0</ele><time>2026-03-28T11:25:31.047Z</time></trkpt><trkpt lat="42.2480352" lon="12.2154339"><ele>311.83333333333337</ele><time>2026-03-28T11:25:32.046Z</time></trkpt><trkpt lat="42.2479416" lon="12.2154197"><ele>312.6666666666667</ele><time>2026-03-28T11:25:33.044Z</time></trkpt><trkpt lat="42.2478517" lon="12.2154068"><ele>313.5</ele><time>2026-03-28T11:25:34.049Z</time></trkpt><trkpt lat="42.2477667" lon="12.215398"><ele>314.3333333333333</ele><time>2026-03-28T11:25:35.043Z</time></trkpt><trkpt lat="42.247692" lon="12.2153912"><ele>315.16666666666663</ele><time>2026-03-28T11:25:36.054Z</time></trkpt><trkpt lat="42.2476218" lon="12.2153747"><ele>316.0</ele><time>2026-03-28T11:25:37.044Z</time></trkpt><trkpt lat="42.2475509" lon="12.2153637"><ele>316.0</ele><time>2026-03-28T11:25:38.05Z</time></trkpt><trkpt lat="42.2474752" lon="12.2153535"><ele>316.0</ele><time>2026-03-28T11:25:39.043Z</time></trkpt><trkpt lat="42.2474006" lon="12.2153484"><ele>316.0</ele><time>2026-03-28T11:25:40.05Z</time></trkpt><trkpt lat="42.2472735" lon="12.2153272"><ele>316.0</ele><time>2026-03-28T11:25:42.052Z</time></trkpt><trkpt lat="42.24715" lon="12.2153348"><ele>316.0</ele><time>2026-03-28T11:25:44.048Z</time></trkpt><trkpt lat="42.2470238" lon="12.2153216"><ele>315.8</ele><time>2026-03-28T11:25:46.046Z</time></trkpt><trkpt lat="42.2469627" lon="12.215301"><ele>315.6</ele><time>2026-03-28T11:25:47.051Z</time></trkpt><trkpt lat="42.2468287" lon="12.2152918"><ele>315.4</ele><time>2026-03-28T11:25:49.043Z</time></trkpt><trkpt lat="42.2467243" lon="12.215278"><ele>315.2</ele><time>2026-03-28T11:25:50.049Z</time></trkpt><trkpt lat="42.246606" lon="12.215255"><ele>315.0</ele><time>2026-03-28T11:25:51.063Z</time></trkpt><trkpt lat="42.2464954" lon="12.2152171"><ele>314.2</ele><time>2026-03-28T11:25:52.042Z</time></trkpt><trkpt lat="42.2463934" lon="12.2151859"><ele>313.4</ele><time>2026-03-28T11:25:53.053Z</time></trkpt><trkpt lat="42.2462888" lon="12.2151619"><ele>312.6</ele><time>2026-03-28T11:25:54.042Z</time></trkpt><trkpt lat="42.2461847" lon="12.2151311"><ele>311.8</ele><time>2026-03-28T11:25:55.058Z</time></trkpt><trkpt lat="42.2460836" lon="12.2150916"><ele>311.0</ele><time>2026-03-28T11:25:56.041Z</time></trkpt><trkpt lat="42.2459874" lon="12.2150478"><ele>311.0</ele><time>2026-03-28T11:25:57.051Z</time></trkpt><trkpt lat="42.2459129" lon="12.2150105"><ele>311.0</ele><time>2026-03-28T11:25:58.039Z</time></trkpt><trkpt lat="42.2458523" lon="12.2149837"><ele>311.0</ele><time>2026-03-28T11:25:59.048Z</time></trkpt><trkpt lat="42.2457428" lon="12.2149616"><ele>311.0</ele><time>2026-03-28T11:26:01.051Z</time></trkpt><trkpt lat="42.245681" lon="12.2150428"><ele>311.0</ele><time>2026-03-28T11:26:03.043Z</time></trkpt><trkpt lat="42.2456657" lon="12.2152057"><ele>311.0</ele><time>2026-03-28T11:26:05.04Z</time></trkpt><trkpt lat="42.2456387" lon="12.2153445"><ele>311.0</ele><time>2026-03-28T11:26:07.041Z</time></trkpt><trkpt lat="42.2456128" lon="12.215431"><ele>311.0</ele><time>2026-03-28T11:26:08.064Z</time></trkpt><trkpt lat="42.2455932" lon="12.2155274"><ele>311.0</ele><time>2026-03-28T11:26:09.049Z</time></trkpt><trkpt lat="42.2455859" lon="12.2156169"><ele>311.0</ele><time>2026-03-28T11:26:10.042Z</time></trkpt><trkpt lat="42.24555" lon="12.2157738"><ele>311.0</ele><time>2026-03-28T11:26:12.046Z</time></trkpt><trkpt lat="42.2455267" lon="12.2158611"><ele>310.6666666666667</ele><time>2026-03-28T11:26:13.046Z</time></trkpt><trkpt lat="42.2454967" lon="12.2159507"><ele>310.33333333333337</ele><time>2026-03-28T11:26:14.043Z</time></trkpt><trkpt lat="42.2454635" lon="12.2160424"><ele>310.0</ele><time>2026-03-28T11:26:15.046Z</time></trkpt><trkpt lat="42.2454353" lon="12.216133"><ele>309.6666666666667</ele><time>2026-03-28T11:26:16.044Z</time></trkpt><trkpt lat="42.2454096" lon="12.2162234"><ele>309.3333333333333</ele><time>2026-03-28T11:26:17.054Z</time></trkpt><trkpt lat="42.2453757" lon="12.2163158"><ele>309.0</ele><time>2026-03-28T11:26:18.041Z</time></trkpt><trkpt lat="42.2453504" lon="12.2164197"><ele>308.8333333333333</ele><time>2026-03-28T11:26:19.043Z</time></trkpt><trkpt lat="42.2453162" lon="12.2165198"><ele>308.6666666666667</ele><time>2026-03-28T11:26:20.049Z</time></trkpt><trkpt lat="42.2452875" lon="12.2166127"><ele>308.5</ele><time>2026-03-28T11:26:21.053Z</time></trkpt><trkpt lat="42.2452593" lon="12.2167117"><ele>308.33333333333337</ele><time>2026-03-28T11:26:22.044Z</time></trkpt><trkpt lat="42.2452304" lon="12.2168058"><ele>308.1666666666667</ele><time>2026-03-28T11:26:23.046Z</time></trkpt><trkpt lat="42.2451942" lon="12.2169652"><ele>308.0</ele><time>2026-03-28T11:26:25.05Z</time></trkpt><trkpt lat="42.2451634" lon="12.2170654"><ele>308.0</ele><time>2026-03-28T11:26:26.049Z</time></trkpt><trkpt lat="42.2451278" lon="12.2171672"><ele>308.0</ele><time>2026-03-28T11:26:27.043Z</time></trkpt><trkpt lat="42.2450976" lon="12.2172627"><ele>308.0</ele><time>2026-03-28T11:26:28.05Z</time></trkpt><trkpt lat="42.245072" lon="12.2173655"><ele>308.0</ele><time>2026-03-28T11:26:29.042Z</time></trkpt><trkpt lat="42.2450516" lon="12.2174699"><ele>308.0</ele><time>2026-03-28T11:26:30.047Z</time></trkpt><trkpt lat="42.2450145" lon="12.2175765"><ele>308.0</ele><time>2026-03-28T11:26:31.044Z</time></trkpt><trkpt lat="42.244967" lon="12.2176731"><ele>307.2</ele><time>2026-03-28T11:26:32.049Z</time></trkpt><trkpt lat="42.2449152" lon="12.2177673"><ele>306.4</ele><time>2026-03-28T11:26:33.051Z</time></trkpt><trkpt lat="42.2448521" lon="12.217854"><ele>305.59999999999997</ele><time>2026-03-28T11:26:34.054Z</time></trkpt><trkpt lat="42.2447818" lon="12.2179422"><ele>304.8</ele><time>2026-03-28T11:26:35.051Z</time></trkpt><trkpt lat="42.2447047" lon="12.2180208"><ele>304.0</ele><time>2026-03-28T11:26:36.037Z</time></trkpt><trkpt lat="42.2446154" lon="12.2180926"><ele>302.8</ele><time>2026-03-28T11:26:37.047Z</time></trkpt><trkpt lat="42.2445142" lon="12.2181558"><ele>301.59999999999997</ele><time>2026-03-28T11:26:38.042Z</time></trkpt><trkpt lat="42.2444166" lon="12.2182131"><ele>300.4</ele><time>2026-03-28T11:26:39.047Z</time></trkpt><trkpt lat="42.2443117" lon="12.218265"><ele>299.2</ele><time>2026-03-28T11:26:40.041Z</time></trkpt><trkpt lat="42.2442247" lon="12.2183267"><ele>298.0</ele><time>2026-03-28T11:26:41.048Z</time></trkpt><trkpt lat="42.2441266" lon="12.2183797"><ele>298.0</ele><time>2026-03-28T11:26:42.057Z</time></trkpt><trkpt lat="42.2440332" lon="12.2184385"><ele>298.0</ele><time>2026-03-28T11:26:43.044Z</time></trkpt><trkpt lat="42.2439434" lon="12.2184833"><ele>298.0</ele><time>2026-03-28T11:26:44.053Z</time></trkpt><trkpt lat="42.2438529" lon="12.2185378"><ele>298.0</ele><time>2026-03-28T11:26:45.046Z</time></trkpt><trkpt lat="42.2437744" lon="12.2185778"><ele>298.0</ele><time>2026-03-28T11:26:46.05Z</time></trkpt><trkpt lat="42.2436872" lon="12.2186325"><ele>296.2</ele><time>2026-03-28T11:26:47.041Z</time></trkpt><trkpt lat="42.243598" lon="12.2186838"><ele>294.4</ele><time>2026-03-28T11:26:48.048Z</time></trkpt><trkpt lat="42.2435107" lon="12.2187287"><ele>292.59999999999997</ele><time>2026-03-28T11:26:49.042Z</time></trkpt><trkpt lat="42.2434262" lon="12.2187825"><ele>290.8</ele><time>2026-03-28T11:26:50.055Z</time></trkpt><trkpt lat="42.2433366" lon="12.2188537"><ele>289.0</ele><time>2026-03-28T11:26:51.057Z</time></trkpt><trkpt lat="42.2432532" lon="12.2189192"><ele>289.0</ele><time>2026-03-28T11:26:52.042Z</time></trkpt><trkpt lat="42.2431683" lon="12.2189788"><ele>289.0</ele><time>2026-03-28T11:26:53.051Z</time></trkpt><trkpt lat="42.2430761" lon="12.2190402"><ele>289.0</ele><time>2026-03-28T11:26:54.045Z</time></trkpt><trkpt lat="42.242986" lon="12.2190997"><ele>289.0</ele><time>2026-03-28T11:26:55.043Z</time></trkpt><trkpt lat="42.2428989" lon="12.2191547"><ele>289.0</ele><time>2026-03-28T11:26:56.045Z</time></trkpt><trkpt lat="42.2428095" lon="12.2192312"><ele>287.0</ele><time>2026-03-28T11:26:57.046Z</time></trkpt><trkpt lat="42.242731" lon="12.2193156"><ele>285.0</ele><time>2026-03-28T11:26:58.061Z</time></trkpt><trkpt lat="42.2426677" lon="12.2194184"><ele>283.0</ele><time>2026-03-28T11:26:59.041Z</time></trkpt><trkpt lat="42.2426135" lon="12.2195269"><ele>281.0</ele><time>2026-03-28T11:27:00.048Z</time></trkpt><trkpt lat="42.2425596" lon="12.2196389"><ele>279.0</ele><time>2026-03-28T11:27:01.042Z</time></trkpt><trkpt lat="42.2425135" lon="12.2197597"><ele>280.8</ele><time>2026-03-28T11:27:02.048Z</time></trkpt><trkpt lat="42.2424837" lon="12.2199038"><ele>282.59999999999997</ele><time>2026-03-28T11:27:03.04Z</time></trkpt><trkpt lat="42.2424546" lon="12.2200324"><ele>284.4</ele><time>2026-03-28T11:27:04.044Z</time></trkpt><trkpt lat="42.2424291" lon="12.2201638"><ele>286.2</ele><time>2026-03-28T11:27:05.042Z</time></trkpt><trkpt lat="42.2424112" lon="12.2202906"><ele>288.0</ele><time>2026-03-28T11:27:06.041Z</time></trkpt><trkpt lat="42.242394" lon="12.2204192"><ele>288.0</ele><time>2026-03-28T11:27:07.04Z</time></trkpt><trkpt lat="42.2423799" lon="12.220535"><ele>288.0</ele><time>2026-03-28T11:27:08.042Z</time></trkpt><trkpt lat="42.2423705" lon="12.220642"><ele>288.0</ele><time>2026-03-28T11:27:09.047Z</time></trkpt><trkpt lat="42.2423461" lon="12.220746"><ele>288.0</ele><time>2026-03-28T11:27:10.047Z</time></trkpt><trkpt lat="42.2423209" lon="12.2208491"><ele>288.0</ele><time>2026-03-28T11:27:11.041Z</time></trkpt><trkpt lat="42.2423017" lon="12.2209514"><ele>288.0</ele><time>2026-03-28T11:27:12.043Z</time></trkpt><trkpt lat="42.2422838" lon="12.2210679"><ele>285.4</ele><time>2026-03-28T11:27:13.042Z</time></trkpt><trkpt lat="42.2422541" lon="12.2211841"><ele>282.8</ele><time>2026-03-28T11:27:14.043Z</time></trkpt><trkpt lat="42.2422215" lon="12.221309"><ele>280.2</ele><time>2026-03-28T11:27:15.043Z</time></trkpt><trkpt lat="42.2421887" lon="12.2214303"><ele>277.6</ele><time>2026-03-28T11:27:16.046Z</time></trkpt><trkpt lat="42.242156" lon="12.2215486"><ele>275.0</ele><time>2026-03-28T11:27:17.042Z</time></trkpt><trkpt lat="42.2421274" lon="12.2216508"><ele>275.0</ele><time>2026-03-28T11:27:18.047Z</time></trkpt><trkpt lat="42.2420946" lon="12.2217455"><ele>275.0</ele><time>2026-03-28T11:27:19.042Z</time></trkpt><trkpt lat="42.2420471" lon="12.2218369"><ele>275.0</ele><time>2026-03-28T11:27:20.05Z</time></trkpt><trkpt lat="42.2419905" lon="12.2219418"><ele>275.0</ele><time>2026-03-28T11:27:21.042Z</time></trkpt><trkpt lat="42.2419302" lon="12.2220317"><ele>275.0</ele><time>2026-03-28T11:27:22.038Z</time></trkpt><trkpt lat="42.2418778" lon="12.2221171"><ele>275.0</ele><time>2026-03-28T11:27:23.043Z</time></trkpt><trkpt lat="42.2418265" lon="12.2221891"><ele>275.0</ele><time>2026-03-28T11:27:24.051Z</time></trkpt><trkpt lat="42.2417844" lon="12.2222641"><ele>275.0</ele><time>2026-03-28T11:27:25.039Z</time></trkpt><trkpt lat="42.2417471" lon="12.2223353"><ele>275.0</ele><time>2026-03-28T11:27:26.042Z</time></trkpt><trkpt lat="42.2416871" lon="12.2224106"><ele>275.0</ele><time>2026-03-28T11:27:27.05Z</time></trkpt><trkpt lat="42.241607" lon="12.222505"><ele>275.0</ele><time>2026-03-28T11:27:28.049Z</time></trkpt><trkpt lat="42.2415161" lon="12.2226121"><ele>275.0</ele><time>2026-03-28T11:27:29.045Z</time></trkpt><trkpt lat="42.2414209" lon="12.2227292"><ele>274.5</ele><time>2026-03-28T11:27:30.041Z</time></trkpt><trkpt lat="42.2413301" lon="12.2228535"><ele>274.0</ele><time>2026-03-28T11:27:31.048Z</time></trkpt><trkpt lat="42.2412606" lon="12.2229734"><ele>273.5</ele><time>2026-03-28T11:27:32.045Z</time></trkpt><trkpt lat="42.2412043" lon="12.2230973"><ele>273.0</ele><time>2026-03-28T11:27:33.045Z</time></trkpt><trkpt lat="42.2411389" lon="12.2232016"><ele>273.0</ele><time>2026-03-28T11:27:34.052Z</time></trkpt><trkpt lat="42.2410965" lon="12.2233046"><ele>273.0</ele><time>2026-03-28T11:27:35.048Z</time></trkpt><trkpt lat="42.241068" lon="12.223413"><ele>273.0</ele><time>2026-03-28T11:27:36.051Z</time></trkpt><trkpt lat="42.2410205" lon="12.2235228"><ele>273.0</ele><time>2026-03-28T11:27:37.04Z</time></trkpt><trkpt lat="42.2409869" lon="12.223636"><ele>273.0</ele><time>2026-03-28T11:27:38.051Z</time></trkpt><trkpt lat="42.2409619" lon="12.2237637"><ele>273.0</ele><time>2026-03-28T11:27:39.042Z</time></trkpt><trkpt lat="42.2409295" lon="12.2238706"><ele>273.0</ele><time>2026-03-28T11:27:40.043Z</time></trkpt><trkpt lat="42.2408867" lon="12.2239759"><ele>273.0</ele><time>2026-03-28T11:27:41.044Z</time></trkpt><trkpt lat="42.2408523" lon="12.2240839"><ele>273.0</ele><time>2026-03-28T11:27:42.039Z</time></trkpt><trkpt lat="42.2408066" lon="12.2242024"><ele>273.0</ele><time>2026-03-28T11:27:43.048Z</time></trkpt><trkpt lat="42.2407599" lon="12.2243242"><ele>273.8</ele><time>2026-03-28T11:27:44.041Z</time></trkpt><trkpt lat="42.2407264" lon="12.2244409"><ele>274.6</ele><time>2026-03-28T11:27:45.045Z</time></trkpt><trkpt lat="42.2406885" lon="12.2245689"><ele>275.4</ele><time>2026-03-28T11:27:46.048Z</time></trkpt><trkpt lat="42.2406482" lon="12.224695"><ele>276.2</ele><time>2026-03-28T11:27:47.049Z</time></trkpt><trkpt lat="42.2406009" lon="12.2248192"><ele>277.0</ele><time>2026-03-28T11:27:48.071Z</time></trkpt><trkpt lat="42.2405627" lon="12.2249376"><ele>275.2</ele><time>2026-03-28T11:27:49.043Z</time></trkpt><trkpt lat="42.2405349" lon="12.2250535"><ele>273.4</ele><time>2026-03-28T11:27:50.055Z</time></trkpt><trkpt lat="42.2405305" lon="12.2251814"><ele>271.6</ele><time>2026-03-28T11:27:51.045Z</time></trkpt><trkpt lat="42.2405347" lon="12.2253041"><ele>269.8</ele><time>2026-03-28T11:27:52.043Z</time></trkpt><trkpt lat="42.2405604" lon="12.2254323"><ele>268.0</ele><time>2026-03-28T11:27:53.044Z</time></trkpt><trkpt lat="42.2405825" lon="12.2255722"><ele>269.0</ele><time>2026-03-28T11:27:54.041Z</time></trkpt><trkpt lat="42.2405975" lon="12.2257158"><ele>270.0</ele><time>2026-03-28T11:27:55.048Z</time></trkpt><trkpt lat="42.2406046" lon="12.2258735"><ele>271.0</ele><time>2026-03-28T11:27:56.05Z</time></trkpt><trkpt lat="42.2406106" lon="12.2260274"><ele>272.0</ele><time>2026-03-28T11:27:57.045Z</time></trkpt><trkpt lat="42.2405994" lon="12.2261656"><ele>273.0</ele><time>2026-03-28T11:27:58.046Z</time></trkpt><trkpt lat="42.2405884" lon="12.22629"><ele>273.0</ele><time>2026-03-28T11:27:59.048Z</time></trkpt><trkpt lat="42.2405828" lon="12.2264143"><ele>273.0</ele><time>2026-03-28T11:28:00.042Z</time></trkpt><trkpt lat="42.240565" lon="12.2265214"><ele>273.0</ele><time>2026-03-28T11:28:01.05Z</time></trkpt><trkpt lat="42.2405573" lon="12.2266364"><ele>273.0</ele><time>2026-03-28T11:28:02.046Z</time></trkpt><trkpt lat="42.240549" lon="12.2267511"><ele>273.0</ele><time>2026-03-28T11:28:03.052Z</time></trkpt><trkpt lat="42.2405321" lon="12.226876"><ele>273.0</ele><time>2026-03-28T11:28:04.052Z</time></trkpt><trkpt lat="42.2405277" lon="12.2270097"><ele>273.6</ele><time>2026-03-28T11:28:05.049Z</time></trkpt><trkpt lat="42.2405163" lon="12.2271309"><ele>274.20000000000005</ele><time>2026-03-28T11:28:06.056Z</time></trkpt><trkpt lat="42.2404997" lon="12.2272593"><ele>274.8</ele><time>2026-03-28T11:28:07.044Z</time></trkpt><trkpt lat="42.2404787" lon="12.2274007"><ele>275.40000000000003</ele><time>2026-03-28T11:28:08.047Z</time></trkpt><trkpt lat="42.2404717" lon="12.2275447"><ele>276.0</ele><time>2026-03-28T11:28:09.049Z</time></trkpt><trkpt lat="42.2404547" lon="12.2276842"><ele>276.40000000000003</ele><time>2026-03-28T11:28:10.054Z</time></trkpt><trkpt lat="42.2404412" lon="12.2278178"><ele>276.8</ele><time>2026-03-28T11:28:11.041Z</time></trkpt><trkpt lat="42.2404192" lon="12.2279462"><ele>277.20000000000005</ele><time>2026-03-28T11:28:12.056Z</time></trkpt><trkpt lat="42.2403995" lon="12.2280724"><ele>277.6</ele><time>2026-03-28T11:28:13.038Z</time></trkpt><trkpt lat="42.2403856" lon="12.2282008"><ele>278.0</ele><time>2026-03-28T11:28:14.046Z</time></trkpt><trkpt lat="42.2403723" lon="12.2283185"><ele>277.33333333333337</ele><time>2026-03-28T11:28:15.044Z</time></trkpt><trkpt lat="42.240359" lon="12.2284261"><ele>276.6666666666667</ele><time>2026-03-28T11:28:16.049Z</time></trkpt><trkpt lat="42.2403411" lon="12.2285384"><ele>276.0</ele><time>2026-03-28T11:28:17.049Z</time></trkpt><trkpt lat="42.2403306" lon="12.2286475"><ele>275.3333333333333</ele><time>2026-03-28T11:28:18.055Z</time></trkpt><trkpt lat="42.2403001" lon="12.2287388"><ele>274.66666666666663</ele><time>2026-03-28T11:28:19.042Z</time></trkpt><trkpt lat="42.2402498" lon="12.2288237"><ele>274.0</ele><time>2026-03-28T11:28:20.046Z</time></trkpt><trkpt lat="42.2402006" lon="12.2289277"><ele>273.59999999999997</ele><time>2026-03-28T11:28:21.047Z</time></trkpt><trkpt lat="42.2401388" lon="12.2290425"><ele>273.2</ele><time>2026-03-28T11:28:22.044Z</time></trkpt><trkpt lat="42.2400763" lon="12.2291533"><ele>272.79999999999995</ele><time>2026-03-28T11:28:23.042Z</time></trkpt><trkpt lat="42.2399923" lon="12.2292446"><ele>272.4</ele><time>2026-03-28T11:28:24.048Z</time></trkpt><trkpt lat="42.2398908" lon="12.2293384"><ele>272.0</ele><time>2026-03-28T11:28:25.051Z</time></trkpt><trkpt lat="42.2397939" lon="12.2294447"><ele>272.0</ele><time>2026-03-28T11:28:26.041Z</time></trkpt><trkpt lat="42.2396862" lon="12.2295461"><ele>272.0</ele><time>2026-03-28T11:28:27.048Z</time></trkpt><trkpt lat="42.2395886" lon="12.229644"><ele>272.0</ele><time>2026-03-28T11:28:28.051Z</time></trkpt><trkpt lat="42.239493" lon="12.2297602"><ele>272.0</ele><time>2026-03-28T11:28:29.045Z</time></trkpt><trkpt lat="42.2394016" lon="12.2298615"><ele>270.75</ele><time>2026-03-28T11:28:30.045Z</time></trkpt><trkpt lat="42.2393048" lon="12.22996"><ele>269.5</ele><time>2026-03-28T11:28:31.039Z</time></trkpt><trkpt lat="42.2392117" lon="12.2300562"><ele>268.25</ele><time>2026-03-28T11:28:32.05Z</time></trkpt><trkpt lat="42.2391202" lon="12.2301513"><ele>267.0</ele><time>2026-03-28T11:28:33.05Z</time></trkpt><trkpt lat="42.2390282" lon="12.2302477"><ele>267.25</ele><time>2026-03-28T11:28:34.05Z</time></trkpt><trkpt lat="42.2389265" lon="12.2303532"><ele>267.5</ele><time>2026-03-28T11:28:35.044Z</time></trkpt><trkpt lat="42.2388204" lon="12.2304586"><ele>267.75</ele><time>2026-03-28T11:28:36.053Z</time></trkpt><trkpt lat="42.2387113" lon="12.2305606"><ele>268.0</ele><time>2026-03-28T11:28:37.042Z</time></trkpt><trkpt lat="42.2386053" lon="12.2306688"><ele>268.0</ele><time>2026-03-28T11:28:38.056Z</time></trkpt><trkpt lat="42.2385072" lon="12.2307812"><ele>268.0</ele><time>2026-03-28T11:28:39.052Z</time></trkpt><trkpt lat="42.2383989" lon="12.2309079"><ele>268.0</ele><time>2026-03-28T11:28:40.055Z</time></trkpt><trkpt lat="42.2382929" lon="12.2310176"><ele>268.0</ele><time>2026-03-28T11:28:41.043Z</time></trkpt><trkpt lat="42.2381868" lon="12.2311222"><ele>269.25</ele><time>2026-03-28T11:28:42.05Z</time></trkpt><trkpt lat="42.2380794" lon="12.2312187"><ele>270.5</ele><time>2026-03-28T11:28:43.041Z</time></trkpt><trkpt lat="42.2379849" lon="12.2313125"><ele>271.75</ele><time>2026-03-28T11:28:44.047Z</time></trkpt><trkpt lat="42.2378865" lon="12.2314066"><ele>273.0</ele><time>2026-03-28T11:28:45.053Z</time></trkpt><trkpt lat="42.2377835" lon="12.2315076"><ele>273.0</ele><time>2026-03-28T11:28:46.043Z</time></trkpt><trkpt lat="42.2376706" lon="12.2316054"><ele>273.0</ele><time>2026-03-28T11:28:47.051Z</time></trkpt><trkpt lat="42.2375614" lon="12.2317008"><ele>273.0</ele><time>2026-03-28T11:28:48.048Z</time></trkpt><trkpt lat="42.2374575" lon="12.2317819"><ele>273.0</ele><time>2026-03-28T11:28:49.044Z</time></trkpt><trkpt lat="42.2373562" lon="12.2318618"><ele>275.5</ele><time>2026-03-28T11:28:50.045Z</time></trkpt><trkpt lat="42.2372515" lon="12.2319399"><ele>278.0</ele><time>2026-03-28T11:28:51.043Z</time></trkpt><trkpt lat="42.237135" lon="12.2320157"><ele>280.5</ele><time>2026-03-28T11:28:52.041Z</time></trkpt><trkpt lat="42.2370216" lon="12.2320844"><ele>283.0</ele><time>2026-03-28T11:28:53.045Z</time></trkpt><trkpt lat="42.2369071" lon="12.2321309"><ele>283.0</ele><time>2026-03-28T11:28:54.056Z</time></trkpt><trkpt lat="42.2367926" lon="12.232169"><ele>283.0</ele><time>2026-03-28T11:28:55.044Z</time></trkpt><trkpt lat="42.2366899" lon="12.2321983"><ele>283.0</ele><time>2026-03-28T11:28:56.05Z</time></trkpt><trkpt lat="42.2365961" lon="12.2322333"><ele>283.0</ele><time>2026-03-28T11:28:57.044Z</time></trkpt><trkpt lat="42.2365072" lon="12.2322725"><ele>283.0</ele><time>2026-03-28T11:28:58.042Z</time></trkpt><trkpt lat="42.236418" lon="12.2323126"><ele>282.4</ele><time>2026-03-28T11:28:59.05Z</time></trkpt><trkpt lat="42.2363297" lon="12.2323554"><ele>281.8</ele><time>2026-03-28T11:29:00.039Z</time></trkpt><trkpt lat="42.2362338" lon="12.2323998"><ele>281.2</ele><time>2026-03-28T11:29:01.043Z</time></trkpt><trkpt lat="42.2361237" lon="12.2324533"><ele>280.6</ele><time>2026-03-28T11:29:02.041Z</time></trkpt><trkpt lat="42.2360123" lon="12.2325249"><ele>280.0</ele><time>2026-03-28T11:29:03.058Z</time></trkpt><trkpt lat="42.2359071" lon="12.232603"><ele>280.0</ele><time>2026-03-28T11:29:04.039Z</time></trkpt><trkpt lat="42.2358072" lon="12.2326793"><ele>280.0</ele><time>2026-03-28T11:29:05.052Z</time></trkpt><trkpt lat="42.2357208" lon="12.2327551"><ele>280.0</ele><time>2026-03-28T11:29:06.042Z</time></trkpt><trkpt lat="42.2356117" lon="12.232836"><ele>280.0</ele><time>2026-03-28T11:29:07.045Z</time></trkpt><trkpt lat="42.2354983" lon="12.2329293"><ele>279.25</ele><time>2026-03-28T11:29:08.048Z</time></trkpt><trkpt lat="42.2353912" lon="12.2330263"><ele>278.5</ele><time>2026-03-28T11:29:09.045Z</time></trkpt><trkpt lat="42.2352874" lon="12.2331323"><ele>277.75</ele><time>2026-03-28T11:29:10.053Z</time></trkpt><trkpt lat="42.2351893" lon="12.2332438"><ele>277.0</ele><time>2026-03-28T11:29:11.044Z</time></trkpt><trkpt lat="42.2350942" lon="12.2333728"><ele>276.75</ele><time>2026-03-28T11:29:12.041Z</time></trkpt><trkpt lat="42.2350031" lon="12.2335143"><ele>276.5</ele><time>2026-03-28T11:29:13.041Z</time></trkpt><trkpt lat="42.2349245" lon="12.233681"><ele>276.25</ele><time>2026-03-28T11:29:14.045Z</time></trkpt><trkpt lat="42.2348527" lon="12.2338771"><ele>276.0</ele><time>2026-03-28T11:29:15.054Z</time></trkpt><trkpt lat="42.2347783" lon="12.2340832"><ele>276.0</ele><time>2026-03-28T11:29:16.047Z</time></trkpt><trkpt lat="42.2346931" lon="12.2343031"><ele>276.0</ele><time>2026-03-28T11:29:17.047Z</time></trkpt><trkpt lat="42.2345875" lon="12.2345478"><ele>276.0</ele><time>2026-03-28T11:29:18.052Z</time></trkpt><trkpt lat="42.2344711" lon="12.234809"><ele>276.0</ele><time>2026-03-28T11:29:19.037Z</time></trkpt><trkpt lat="42.2343546" lon="12.2350519"><ele>276.0</ele><time>2026-03-28T11:29:20.044Z</time></trkpt><trkpt lat="42.2342459" lon="12.2353051"><ele>276.0</ele><time>2026-03-28T11:29:21.04Z</time></trkpt><trkpt lat="42.23416" lon="12.2355427"><ele>276.6666666666667</ele><time>2026-03-28T11:29:22.048Z</time></trkpt><trkpt lat="42.2340547" lon="12.2357729"><ele>277.33333333333337</ele><time>2026-03-28T11:29:23.04Z</time></trkpt><trkpt lat="42.2339559" lon="12.2359875"><ele>278.0</ele><time>2026-03-28T11:29:24.046Z</time></trkpt><trkpt lat="42.2338626" lon="12.2362008"><ele>278.0</ele><time>2026-03-28T11:29:25.042Z</time></trkpt><trkpt lat="42.2337879" lon="12.2364041"><ele>278.0</ele><time>2026-03-28T11:29:26.042Z</time></trkpt><trkpt lat="42.2336943" lon="12.2365977"><ele>278.0</ele><time>2026-03-28T11:29:27.041Z</time></trkpt><trkpt lat="42.2336305" lon="12.236779"><ele>277.0</ele><time>2026-03-28T11:29:28.049Z</time></trkpt><trkpt lat="42.2335704" lon="12.2369463"><ele>276.0</ele><time>2026-03-28T11:29:29.043Z</time></trkpt><trkpt lat="42.2334865" lon="12.2371092"><ele>275.0</ele><time>2026-03-28T11:29:30.04Z</time></trkpt><trkpt lat="42.2334295" lon="12.2372725"><ele>274.0</ele><time>2026-03-28T11:29:31.043Z</time></trkpt><trkpt lat="42.2333563" lon="12.2374265"><ele>272.75</ele><time>2026-03-28T11:29:32.044Z</time></trkpt><trkpt lat="42.2333015" lon="12.2375932"><ele>271.5</ele><time>2026-03-28T11:29:33.043Z</time></trkpt><trkpt lat="42.2332583" lon="12.2377517"><ele>270.25</ele><time>2026-03-28T11:29:34.038Z</time></trkpt><trkpt lat="42.2332129" lon="12.237899"><ele>269.0</ele><time>2026-03-28T11:29:35.044Z</time></trkpt><trkpt lat="42.2331648" lon="12.238025"><ele>268.4</ele><time>2026-03-28T11:29:36.044Z</time></trkpt><trkpt lat="42.233112" lon="12.2381346"><ele>267.79999999999995</ele><time>2026-03-28T11:29:37.041Z</time></trkpt><trkpt lat="42.2330311" lon="12.2382237"><ele>267.20000000000005</ele><time>2026-03-28T11:29:38.042Z</time></trkpt><trkpt lat="42.2329275" lon="12.2382811"><ele>266.6</ele><time>2026-03-28T11:29:39.044Z</time></trkpt><trkpt lat="42.2327979" lon="12.2383154"><ele>266.0</ele><time>2026-03-28T11:29:40.051Z</time></trkpt><trkpt lat="42.2326607" lon="12.2383431"><ele>266.0</ele><time>2026-03-28T11:29:41.042Z</time></trkpt><trkpt lat="42.2325191" lon="12.2383478"><ele>266.0</ele><time>2026-03-28T11:29:42.047Z</time></trkpt><trkpt lat="42.2323663" lon="12.2383403"><ele>266.0</ele><time>2026-03-28T11:29:43.048Z</time></trkpt><trkpt lat="42.2321887" lon="12.2383093"><ele>267.25</ele><time>2026-03-28T11:29:44.047Z</time></trkpt><trkpt lat="42.2320406" lon="12.2382797"><ele>268.5</ele><time>2026-03-28T11:29:45.044Z</time></trkpt><trkpt lat="42.2319045" lon="12.2382405"><ele>269.75</ele><time>2026-03-28T11:29:46.05Z</time></trkpt><trkpt lat="42.2317692" lon="12.2381736"><ele>271.0</ele><time>2026-03-28T11:29:47.049Z</time></trkpt><trkpt lat="42.2316244" lon="12.2381008"><ele>271.0</ele><time>2026-03-28T11:29:48.043Z</time></trkpt><trkpt lat="42.2314786" lon="12.2380138"><ele>271.0</ele><time>2026-03-28T11:29:49.047Z</time></trkpt><trkpt lat="42.2313462" lon="12.2379087"><ele>271.0</ele><time>2026-03-28T11:29:50.039Z</time></trkpt><trkpt lat="42.2312002" lon="12.2377992"><ele>273.5</ele><time>2026-03-28T11:29:51.043Z</time></trkpt><trkpt lat="42.2310858" lon="12.2377133"><ele>276.0</ele><time>2026-03-28T11:29:52.043Z</time></trkpt><trkpt lat="42.2309641" lon="12.2376134"><ele>278.5</ele><time>2026-03-28T11:29:53.044Z</time></trkpt><trkpt lat="42.2308342" lon="12.2375407"><ele>281.0</ele><time>2026-03-28T11:29:54.037Z</time></trkpt><trkpt lat="42.2306937" lon="12.2374989"><ele>282.0</ele><time>2026-03-28T11:29:55.053Z</time></trkpt><trkpt lat="42.2304814" lon="12.2375493"><ele>283.0</ele><time>2026-03-28T11:29:56.052Z</time></trkpt><trkpt lat="42.2302924" lon="12.2375466"><ele>284.0</ele><time>2026-03-28T11:29:57.059Z</time></trkpt><trkpt lat="42.2301384" lon="12.237484"><ele>284.0</ele><time>2026-03-28T11:29:58.039Z</time></trkpt><trkpt lat="42.2299918" lon="12.2374825"><ele>284.0</ele><time>2026-03-28T11:29:59.043Z</time></trkpt><trkpt lat="42.2298547" lon="12.2374472"><ele>284.0</ele><time>2026-03-28T11:30:00.042Z</time></trkpt><trkpt lat="42.2297031" lon="12.2374647"><ele>284.0</ele><time>2026-03-28T11:30:01.052Z</time></trkpt><trkpt lat="42.2295689" lon="12.2375088"><ele>283.5</ele><time>2026-03-28T11:30:02.045Z</time></trkpt><trkpt lat="42.2294503" lon="12.2375808"><ele>283.0</ele><time>2026-03-28T11:30:03.044Z</time></trkpt><trkpt lat="42.2293263" lon="12.2376578"><ele>282.5</ele><time>2026-03-28T11:30:04.041Z</time></trkpt><trkpt lat="42.2292085" lon="12.2377483"><ele>282.0</ele><time>2026-03-28T11:30:05.049Z</time></trkpt><trkpt lat="42.2290857" lon="12.2378328"><ele>281.2</ele><time>2026-03-28T11:30:06.04Z</time></trkpt><trkpt lat="42.2289565" lon="12.2378882"><ele>280.4</ele><time>2026-03-28T11:30:07.051Z</time></trkpt><trkpt lat="42.2288463" lon="12.2379241"><ele>279.6</ele><time>2026-03-28T11:30:08.043Z</time></trkpt><trkpt lat="42.2287628" lon="12.2379515"><ele>278.8</ele><time>2026-03-28T11:30:09.044Z</time></trkpt><trkpt lat="42.2286826" lon="12.2379825"><ele>278.0</ele><time>2026-03-28T11:30:10.046Z</time></trkpt><trkpt lat="42.2286056" lon="12.2380272"><ele>278.0</ele><time>2026-03-28T11:30:11.048Z</time></trkpt><trkpt lat="42.2285149" lon="12.2380694"><ele>278.0</ele><time>2026-03-28T11:30:12.048Z</time></trkpt><trkpt lat="42.2284181" lon="12.2381341"><ele>278.0</ele><time>2026-03-28T11:30:13.052Z</time></trkpt><trkpt lat="42.2283328" lon="12.2382082"><ele>278.0</ele><time>2026-03-28T11:30:14.041Z</time></trkpt><trkpt lat="42.2282498" lon="12.2382837"><ele>278.0</ele><time>2026-03-28T11:30:15.045Z</time></trkpt><trkpt lat="42.2281501" lon="12.2383821"><ele>277.25</ele><time>2026-03-28T11:30:16.047Z</time></trkpt><trkpt lat="42.2280501" lon="12.2384967"><ele>276.5</ele><time>2026-03-28T11:30:17.053Z</time></trkpt><trkpt lat="42.227961" lon="12.2386279"><ele>275.75</ele><time>2026-03-28T11:30:18.065Z</time></trkpt><trkpt lat="42.2278719" lon="12.2387662"><ele>275.0</ele><time>2026-03-28T11:30:19.058Z</time></trkpt><trkpt lat="42.2277609" lon="12.238925"><ele>275.0</ele><time>2026-03-28T11:30:20.053Z</time></trkpt><trkpt lat="42.227648" lon="12.2390982"><ele>275.0</ele><time>2026-03-28T11:30:21.045Z</time></trkpt><trkpt lat="42.227527" lon="12.239277"><ele>275.0</ele><time>2026-03-28T11:30:22.053Z</time></trkpt><trkpt lat="42.2274218" lon="12.2394326"><ele>275.0</ele><time>2026-03-28T11:30:23.043Z</time></trkpt><trkpt lat="42.2273139" lon="12.2396016"><ele>275.0</ele><time>2026-03-28T11:30:24.049Z</time></trkpt><trkpt lat="42.2272112" lon="12.2397683"><ele>275.0</ele><time>2026-03-28T11:30:25.044Z</time></trkpt><trkpt lat="42.2271069" lon="12.2399208"><ele>273.0</ele><time>2026-03-28T11:30:26.051Z</time></trkpt><trkpt lat="42.2270006" lon="12.2400629"><ele>271.0</ele><time>2026-03-28T11:30:27.045Z</time></trkpt><trkpt lat="42.2268975" lon="12.2402669"><ele>269.0</ele><time>2026-03-28T11:30:28.042Z</time></trkpt><trkpt lat="42.2268228" lon="12.2404415"><ele>269.0</ele><time>2026-03-28T11:30:29.039Z</time></trkpt><trkpt lat="42.226761" lon="12.2406531"><ele>269.0</ele><time>2026-03-28T11:30:30.051Z</time></trkpt><trkpt lat="42.2267063" lon="12.240887"><ele>269.0</ele><time>2026-03-28T11:30:31.042Z</time></trkpt><trkpt lat="42.2266428" lon="12.2411188"><ele>269.0</ele><time>2026-03-28T11:30:32.045Z</time></trkpt><trkpt lat="42.2265666" lon="12.2413202"><ele>269.0</ele><time>2026-03-28T11:30:33.053Z</time></trkpt><trkpt lat="42.2265038" lon="12.241538"><ele>269.0</ele><time>2026-03-28T11:30:34.045Z</time></trkpt><trkpt lat="42.226429" lon="12.2417176"><ele>268.33333333333337</ele><time>2026-03-28T11:30:35.046Z</time></trkpt><trkpt lat="42.2263267" lon="12.2419195"><ele>267.6666666666667</ele><time>2026-03-28T11:30:36.047Z</time></trkpt><trkpt lat="42.2262184" lon="12.2421061"><ele>267.0</ele><time>2026-03-28T11:30:37.044Z</time></trkpt><trkpt lat="42.226106" lon="12.2422895"><ele>267.3333333333333</ele><time>2026-03-28T11:30:38.043Z</time></trkpt><trkpt lat="42.2259794" lon="12.242482"><ele>267.66666666666663</ele><time>2026-03-28T11:30:39.05Z</time></trkpt><trkpt lat="42.2258457" lon="12.242666"><ele>268.0</ele><time>2026-03-28T11:30:40.042Z</time></trkpt><trkpt lat="42.2257009" lon="12.2428665"><ele>268.0</ele><time>2026-03-28T11:30:41.051Z</time></trkpt><trkpt lat="42.2255584" lon="12.2430604"><ele>268.0</ele><time>2026-03-28T11:30:42.047Z</time></trkpt><trkpt lat="42.2254064" lon="12.2432557"><ele>268.0</ele><time>2026-03-28T11:30:43.054Z</time></trkpt><trkpt lat="42.2252739" lon="12.2434535"><ele>268.3333333333333</ele><time>2026-03-28T11:30:44.044Z</time></trkpt><trkpt lat="42.225142" lon="12.2436615"><ele>268.6666666666667</ele><time>2026-03-28T11:30:45.046Z</time></trkpt><trkpt lat="42.2249864" lon="12.2438574"><ele>269.0</ele><time>2026-03-28T11:30:46.05Z</time></trkpt><trkpt lat="42.2248311" lon="12.2440504"><ele>271.0</ele><time>2026-03-28T11:30:47.041Z</time></trkpt><trkpt lat="42.2246825" lon="12.2442434"><ele>273.0</ele><time>2026-03-28T11:30:48.053Z</time></trkpt><trkpt lat="42.2245573" lon="12.244435"><ele>275.0</ele><time>2026-03-28T11:30:49.045Z</time></trkpt><trkpt lat="42.2244155" lon="12.2446365"><ele>273.6666666666667</ele><time>2026-03-28T11:30:50.05Z</time></trkpt><trkpt lat="42.2242773" lon="12.2448478"><ele>272.3333333333333</ele><time>2026-03-28T11:30:51.04Z</time></trkpt><trkpt lat="42.2241406" lon="12.2450546"><ele>271.0</ele><time>2026-03-28T11:30:52.054Z</time></trkpt><trkpt lat="42.2240136" lon="12.245263"><ele>272.3333333333333</ele><time>2026-03-28T11:30:53.051Z</time></trkpt><trkpt lat="42.2238791" lon="12.2454398"><ele>273.6666666666667</ele><time>2026-03-28T11:30:54.043Z</time></trkpt><trkpt lat="42.2237387" lon="12.245614"><ele>275.0</ele><time>2026-03-28T11:30:55.058Z</time></trkpt><trkpt lat="42.223591" lon="12.2457794"><ele>275.0</ele><time>2026-03-28T11:30:56.04Z</time></trkpt><trkpt lat="42.223427" lon="12.2459032"><ele>275.0</ele><time>2026-03-28T11:30:57.051Z</time></trkpt><trkpt lat="42.2232559" lon="12.2459768"><ele>275.0</ele><time>2026-03-28T11:30:58.042Z</time></trkpt><trkpt lat="42.2230805" lon="12.2460123"><ele>275.33333333333337</ele><time>2026-03-28T11:30:59.04Z</time></trkpt><trkpt lat="42.2228954" lon="12.2460444"><ele>275.6666666666667</ele><time>2026-03-28T11:31:00.04Z</time></trkpt><trkpt lat="42.2227074" lon="12.2460835"><ele>276.0</ele><time>2026-03-28T11:31:01.047Z</time></trkpt><trkpt lat="42.2225092" lon="12.2461224"><ele>276.0</ele><time>2026-03-28T11:31:02.044Z</time></trkpt><trkpt lat="42.2223242" lon="12.246155"><ele>276.0</ele><time>2026-03-28T11:31:03.044Z</time></trkpt><trkpt lat="42.222154" lon="12.2461563"><ele>276.0</ele><time>2026-03-28T11:31:04.05Z</time></trkpt><trkpt lat="42.2219771" lon="12.2461207"><ele>274.3333333333333</ele><time>2026-03-28T11:31:05.039Z</time></trkpt><trkpt lat="42.2217699" lon="12.2460539"><ele>272.66666666666663</ele><time>2026-03-28T11:31:06.049Z</time></trkpt><trkpt lat="42.2215627" lon="12.2460128"><ele>271.0</ele><time>2026-03-28T11:31:07.044Z</time></trkpt><trkpt lat="42.2213618" lon="12.2459856"><ele>270.0</ele><time>2026-03-28T11:31:08.067Z</time></trkpt><trkpt lat="42.2211632" lon="12.2459254"><ele>269.0</ele><time>2026-03-28T11:31:09.047Z</time></trkpt><trkpt lat="42.2209588" lon="12.2458567"><ele>268.0</ele><time>2026-03-28T11:31:10.043Z</time></trkpt><trkpt lat="42.2207661" lon="12.2458048"><ele>268.66666666666663</ele><time>2026-03-28T11:31:11.041Z</time></trkpt><trkpt lat="42.2205741" lon="12.2457435"><ele>269.3333333333333</ele><time>2026-03-28T11:31:12.04Z</time></trkpt><trkpt lat="42.2203604" lon="12.2456621"><ele>270.0</ele><time>2026-03-28T11:31:13.053Z</time></trkpt><trkpt lat="42.2201621" lon="12.2455802"><ele>270.3333333333333</ele><time>2026-03-28T11:31:14.043Z</time></trkpt><trkpt lat="42.2199794" lon="12.2454983"><ele>270.66666666666663</ele><time>2026-03-28T11:31:15.057Z</time></trkpt><trkpt lat="42.2197739" lon="12.2454073"><ele>271.0</ele><time>2026-03-28T11:31:16.049Z</time></trkpt><trkpt lat="42.2195687" lon="12.2453243"><ele>271.66666666666663</ele><time>2026-03-28T11:31:17.05Z</time></trkpt><trkpt lat="42.2193761" lon="12.2452344"><ele>272.3333333333333</ele><time>2026-03-28T11:31:18.046Z</time></trkpt><trkpt lat="42.2191923" lon="12.2451312"><ele>273.0</ele><time>2026-03-28T11:31:19.049Z</time></trkpt><trkpt lat="42.2189984" lon="12.2450271"><ele>273.3333333333333</ele><time>2026-03-28T11:31:20.052Z</time></trkpt><trkpt lat="42.2188064" lon="12.2449255"><ele>273.66666666666663</ele><time>2026-03-28T11:31:21.044Z</time></trkpt><trkpt lat="42.2186357" lon="12.244828"><ele>274.0</ele><time>2026-03-28T11:31:22.05Z</time></trkpt><trkpt lat="42.2184748" lon="12.2447351"><ele>274.0</ele><time>2026-03-28T11:31:23.043Z</time></trkpt><trkpt lat="42.2183001" lon="12.2446579"><ele>274.0</ele><time>2026-03-28T11:31:24.05Z</time></trkpt><trkpt lat="42.2181191" lon="12.2445967"><ele>274.0</ele><time>2026-03-28T11:31:25.059Z</time></trkpt><trkpt lat="42.2179328" lon="12.244566"><ele>274.3333333333333</ele><time>2026-03-28T11:31:26.04Z</time></trkpt><trkpt lat="42.2177345" lon="12.2445653"><ele>274.6666666666667</ele><time>2026-03-28T11:31:27.052Z</time></trkpt><trkpt lat="42.217529" lon="12.2446035"><ele>275.0</ele><time>2026-03-28T11:31:28.039Z</time></trkpt><trkpt lat="42.2173303" lon="12.2446365"><ele>276.33333333333337</ele><time>2026-03-28T11:31:29.042Z</time></trkpt><trkpt lat="42.2171176" lon="12.244676"><ele>277.6666666666667</ele><time>2026-03-28T11:31:30.046Z</time></trkpt><trkpt lat="42.2169026" lon="12.2447226"><ele>279.0</ele><time>2026-03-28T11:31:31.039Z</time></trkpt><trkpt lat="42.2167012" lon="12.2447555"><ele>278.6666666666667</ele><time>2026-03-28T11:31:32.051Z</time></trkpt><trkpt lat="42.2165143" lon="12.244805"><ele>278.33333333333337</ele><time>2026-03-28T11:31:33.044Z</time></trkpt><trkpt lat="42.2163272" lon="12.2448442"><ele>278.0</ele><time>2026-03-28T11:31:34.054Z</time></trkpt><trkpt lat="42.2161506" lon="12.2448768"><ele>279.0</ele><time>2026-03-28T11:31:35.043Z</time></trkpt><trkpt lat="42.2159625" lon="12.2449131"><ele>280.0</ele><time>2026-03-28T11:31:36.046Z</time></trkpt><trkpt lat="42.2157591" lon="12.2449471"><ele>281.0</ele><time>2026-03-28T11:31:37.045Z</time></trkpt><trkpt lat="42.2155524" lon="12.2449839"><ele>282.33333333333337</ele><time>2026-03-28T11:31:38.044Z</time></trkpt><trkpt lat="42.2153575" lon="12.2450165"><ele>283.6666666666667</ele><time>2026-03-28T11:31:39.058Z</time></trkpt><trkpt lat="42.2151703" lon="12.2450491"><ele>285.0</ele><time>2026-03-28T11:31:40.038Z</time></trkpt><trkpt lat="42.215011" lon="12.2450927"><ele>285.0</ele><time>2026-03-28T11:31:41.053Z</time></trkpt><trkpt lat="42.2148312" lon="12.2451125"><ele>285.0</ele><time>2026-03-28T11:31:42.043Z</time></trkpt><trkpt lat="42.2146573" lon="12.2451339"><ele>285.0</ele><time>2026-03-28T11:31:43.05Z</time></trkpt><trkpt lat="42.2144968" lon="12.2451421"><ele>286.3333333333333</ele><time>2026-03-28T11:31:44.045Z</time></trkpt><trkpt lat="42.2143481" lon="12.2451377"><ele>287.66666666666663</ele><time>2026-03-28T11:31:45.047Z</time></trkpt><trkpt lat="42.2142062" lon="12.2450792"><ele>289.0</ele><time>2026-03-28T11:31:46.044Z</time></trkpt><trkpt lat="42.2140646" lon="12.2449689"><ele>289.0</ele><time>2026-03-28T11:31:47.044Z</time></trkpt><trkpt lat="42.213922" lon="12.2448585"><ele>289.0</ele><time>2026-03-28T11:31:48.044Z</time></trkpt><trkpt lat="42.2137513" lon="12.2447365"><ele>289.0</ele><time>2026-03-28T11:31:49.045Z</time></trkpt><trkpt lat="42.2135724" lon="12.2445573"><ele>294.5</ele><time>2026-03-28T11:31:50.044Z</time></trkpt><trkpt lat="42.213388" lon="12.2443486"><ele>300.0</ele><time>2026-03-28T11:31:51.047Z</time></trkpt><trkpt lat="42.2131774" lon="12.2441624"><ele>298.5</ele><time>2026-03-28T11:31:52.05Z</time></trkpt><trkpt lat="42.2129537" lon="12.2439803"><ele>297.0</ele><time>2026-03-28T11:31:53.054Z</time></trkpt><trkpt lat="42.2127238" lon="12.2437808"><ele>301.0</ele><time>2026-03-28T11:31:54.044Z</time></trkpt><trkpt lat="42.2124894" lon="12.2435901"><ele>305.0</ele><time>2026-03-28T11:31:55.054Z</time></trkpt><trkpt lat="42.2122766" lon="12.2434358"><ele>305.0</ele><time>2026-03-28T11:31:56.047Z</time></trkpt><trkpt lat="42.2120884" lon="12.243278"><ele>305.0</ele><time>2026-03-28T11:31:57.044Z</time></trkpt><trkpt lat="42.2119186" lon="12.2431086"><ele>305.0</ele><time>2026-03-28T11:31:58.056Z</time></trkpt><trkpt lat="42.2117595" lon="12.2429413"><ele>306.0</ele><time>2026-03-28T11:31:59.044Z</time></trkpt><trkpt lat="42.2116249" lon="12.2427454"><ele>307.0</ele><time>2026-03-28T11:32:00.045Z</time></trkpt><trkpt lat="42.2114728" lon="12.2425182"><ele>308.0</ele><time>2026-03-28T11:32:01.043Z</time></trkpt><trkpt lat="42.2113207" lon="12.242265"><ele>312.0</ele><time>2026-03-28T11:32:02.045Z</time></trkpt><trkpt lat="42.2111892" lon="12.2420152"><ele>316.0</ele><time>2026-03-28T11:32:03.043Z</time></trkpt><trkpt lat="42.2110494" lon="12.2417634"><ele>316.0</ele><time>2026-03-28T11:32:04.042Z</time></trkpt><trkpt lat="42.2109142" lon="12.2414899"><ele>316.0</ele><time>2026-03-28T11:32:05.052Z</time></trkpt><trkpt lat="42.2108001" lon="12.2412404"><ele>317.0</ele><time>2026-03-28T11:32:06.052Z</time></trkpt><trkpt lat="42.210688" lon="12.2409463"><ele>318.0</ele><time>2026-03-28T11:32:07.049Z</time></trkpt><trkpt lat="42.2105779" lon="12.2407016"><ele>321.3333333333333</ele><time>2026-03-28T11:32:08.057Z</time></trkpt><trkpt lat="42.2104701" lon="12.2404472"><ele>324.66666666666663</ele><time>2026-03-28T11:32:09.043Z</time></trkpt><trkpt lat="42.2103563" lon="12.2402334"><ele>328.0</ele><time>2026-03-28T11:32:10.041Z</time></trkpt><trkpt lat="42.2102149" lon="12.240035"><ele>328.0</ele><time>2026-03-28T11:32:11.041Z</time></trkpt><trkpt lat="42.2100516" lon="12.2398504"><ele>328.0</ele><time>2026-03-28T11:32:12.048Z</time></trkpt><trkpt lat="42.209898" lon="12.2396643"><ele>328.0</ele><time>2026-03-28T11:32:13.051Z</time></trkpt><trkpt lat="42.2097227" lon="12.2394977"><ele>331.66666666666663</ele><time>2026-03-28T11:32:14.049Z</time></trkpt><trkpt lat="42.2095496" lon="12.2393364"><ele>335.3333333333333</ele><time>2026-03-28T11:32:15.052Z</time></trkpt><trkpt lat="42.2093996" lon="12.2391816"><ele>339.0</ele><time>2026-03-28T11:32:16.049Z</time></trkpt><trkpt lat="42.2092436" lon="12.2390309"><ele>344.0</ele><time>2026-03-28T11:32:17.057Z</time></trkpt><trkpt lat="42.2090895" lon="12.2389139"><ele>349.0</ele><time>2026-03-28T11:32:18.045Z</time></trkpt><trkpt lat="42.2089792" lon="12.2387658"><ele>354.0</ele><time>2026-03-28T11:32:19.042Z</time></trkpt><trkpt lat="42.2088461" lon="12.2386722"><ele>356.25</ele><time>2026-03-28T11:32:20.045Z</time></trkpt><trkpt lat="42.2087103" lon="12.2386258"><ele>358.5</ele><time>2026-03-28T11:32:21.043Z</time></trkpt><trkpt lat="42.2085804" lon="12.2386226"><ele>360.75</ele><time>2026-03-28T11:32:22.04Z</time></trkpt><trkpt lat="42.2084696" lon="12.2386747"><ele>363.0</ele><time>2026-03-28T11:32:23.039Z</time></trkpt><trkpt lat="42.2083758" lon="12.238759"><ele>363.0</ele><time>2026-03-28T11:32:24.044Z</time></trkpt><trkpt lat="42.2082908" lon="12.2389088"><ele>363.0</ele><time>2026-03-28T11:32:25.044Z</time></trkpt><trkpt lat="42.2082279" lon="12.2391072"><ele>363.0</ele><time>2026-03-28T11:32:26.04Z</time></trkpt><trkpt lat="42.2081999" lon="12.239304"><ele>363.0</ele><time>2026-03-28T11:32:27.048Z</time></trkpt><trkpt lat="42.2082167" lon="12.2394885"><ele>360.0</ele><time>2026-03-28T11:32:28.049Z</time></trkpt><trkpt lat="42.2082671" lon="12.2396421"><ele>357.0</ele><time>2026-03-28T11:32:29.043Z</time></trkpt><trkpt lat="42.2083817" lon="12.2398042"><ele>354.0</ele><time>2026-03-28T11:32:30.052Z</time></trkpt><trkpt lat="42.2085066" lon="12.2399465"><ele>354.0</ele><time>2026-03-28T11:32:31.044Z</time></trkpt><trkpt lat="42.2085786" lon="12.2401026"><ele>354.0</ele><time>2026-03-28T11:32:32.043Z</time></trkpt><trkpt lat="42.2086342" lon="12.2403042"><ele>354.0</ele><time>2026-03-28T11:32:33.05Z</time></trkpt><trkpt lat="42.2086055" lon="12.2405096"><ele>352.75</ele><time>2026-03-28T11:32:34.039Z</time></trkpt><trkpt lat="42.2085476" lon="12.2406887"><ele>351.5</ele><time>2026-03-28T11:32:35.036Z</time></trkpt><trkpt lat="42.2084357" lon="12.2408134"><ele>350.25</ele><time>2026-03-28T11:32:36.052Z</time></trkpt><trkpt lat="42.2082991" lon="12.2408864"><ele>349.0</ele><time>2026-03-28T11:32:37.049Z</time></trkpt><trkpt lat="42.2081394" lon="12.2409409"><ele>352.66666666666663</ele><time>2026-03-28T11:32:38.039Z</time></trkpt><trkpt lat="42.2079934" lon="12.2409225"><ele>356.3333333333333</ele><time>2026-03-28T11:32:39.049Z</time></trkpt><trkpt lat="42.2078262" lon="12.2409155"><ele>360.0</ele><time>2026-03-28T11:32:40.043Z</time></trkpt><trkpt lat="42.2075672" lon="12.2409369"><ele>362.0</ele><time>2026-03-28T11:32:41.047Z</time></trkpt><trkpt lat="42.2072977" lon="12.2409334"><ele>364.0</ele><time>2026-03-28T11:32:42.042Z</time></trkpt><trkpt lat="42.2070768" lon="12.2408881"><ele>364.0</ele><time>2026-03-28T11:32:43.045Z</time></trkpt><trkpt lat="42.2068714" lon="12.2408438"><ele>364.0</ele><time>2026-03-28T11:32:44.044Z</time></trkpt><trkpt lat="42.2066498" lon="12.2407852"><ele>364.0</ele><time>2026-03-28T11:32:45.042Z</time></trkpt><trkpt lat="42.206418" lon="12.2407446"><ele>365.5</ele><time>2026-03-28T11:32:46.04Z</time></trkpt><trkpt lat="42.2061632" lon="12.2407121"><ele>367.0</ele><time>2026-03-28T11:32:47.043Z</time></trkpt><trkpt lat="42.2059192" lon="12.240676"><ele>367.0</ele><time>2026-03-28T11:32:48.055Z</time></trkpt><trkpt lat="42.2056926" lon="12.2406444"><ele>367.0</ele><time>2026-03-28T11:32:49.054Z</time></trkpt><trkpt lat="42.2054854" lon="12.240609"><ele>367.0</ele><time>2026-03-28T11:32:50.041Z</time></trkpt><trkpt lat="42.2052953" lon="12.2405804"><ele>375.0</ele><time>2026-03-28T11:32:51.049Z</time></trkpt><trkpt lat="42.2050875" lon="12.2405472"><ele>383.0</ele><time>2026-03-28T11:32:52.042Z</time></trkpt><trkpt lat="42.204892" lon="12.2404891"><ele>391.0</ele><time>2026-03-28T11:32:53.04Z</time></trkpt><trkpt lat="42.2046646" lon="12.2404277"><ele>391.0</ele><time>2026-03-28T11:32:54.038Z</time></trkpt><trkpt lat="42.2044564" lon="12.2403295"><ele>391.0</ele><time>2026-03-28T11:32:55.04Z</time></trkpt><trkpt lat="42.2042535" lon="12.2402593"><ele>391.0</ele><time>2026-03-28T11:32:56.046Z</time></trkpt><trkpt lat="42.2040874" lon="12.2401973"><ele>388.0</ele><time>2026-03-28T11:32:57.056Z</time></trkpt><trkpt lat="42.2039095" lon="12.2401176"><ele>385.0</ele><time>2026-03-28T11:32:58.049Z</time></trkpt><trkpt lat="42.2037442" lon="12.2400087"><ele>382.0</ele><time>2026-03-28T11:32:59.044Z</time></trkpt><trkpt lat="42.2035983" lon="12.239876"><ele>387.66666666666663</ele><time>2026-03-28T11:33:00.047Z</time></trkpt><trkpt lat="42.2034722" lon="12.2397308"><ele>393.3333333333333</ele><time>2026-03-28T11:33:01.049Z</time></trkpt><trkpt lat="42.2033736" lon="12.2395454"><ele>399.0</ele><time>2026-03-28T11:33:02.054Z</time></trkpt><trkpt lat="42.2033" lon="12.2393173"><ele>399.0</ele><time>2026-03-28T11:33:03.046Z</time></trkpt><trkpt lat="42.2032426" lon="12.2390719"><ele>399.0</ele><time>2026-03-28T11:33:04.053Z</time></trkpt><trkpt lat="42.2032001" lon="12.238823"><ele>399.0</ele><time>2026-03-28T11:33:05.041Z</time></trkpt><trkpt lat="42.2031464" lon="12.2385697"><ele>399.0</ele><time>2026-03-28T11:33:06.049Z</time></trkpt><trkpt lat="42.203098" lon="12.2383207"><ele>399.0</ele><time>2026-03-28T11:33:07.042Z</time></trkpt><trkpt lat="42.2030265" lon="12.2381256"><ele>399.0</ele><time>2026-03-28T11:33:08.042Z</time></trkpt><trkpt lat="42.2029446" lon="12.2379564"><ele>401.33333333333337</ele><time>2026-03-28T11:33:09.04Z</time></trkpt><trkpt lat="42.2028228" lon="12.2377816"><ele>403.6666666666667</ele><time>2026-03-28T11:33:10.049Z</time></trkpt><trkpt lat="42.2026739" lon="12.2376302"><ele>406.0</ele><time>2026-03-28T11:33:11.042Z</time></trkpt><trkpt lat="42.2025356" lon="12.2374775"><ele>406.0</ele><time>2026-03-28T11:33:12.047Z</time></trkpt><trkpt lat="42.2023766" lon="12.2373272"><ele>406.0</ele><time>2026-03-28T11:33:13.043Z</time></trkpt><trkpt lat="42.2022232" lon="12.2371906"><ele>406.0</ele><time>2026-03-28T11:33:14.053Z</time></trkpt><trkpt lat="42.202081" lon="12.2370457"><ele>407.6666666666667</ele><time>2026-03-28T11:33:15.049Z</time></trkpt><trkpt lat="42.201931" lon="12.2368954"><ele>409.33333333333337</ele><time>2026-03-28T11:33:16.043Z</time></trkpt><trkpt lat="42.2017909" lon="12.2367898"><ele>411.0</ele><time>2026-03-28T11:33:17.039Z</time></trkpt><trkpt lat="42.2016239" lon="12.2367191"><ele>412.33333333333337</ele><time>2026-03-28T11:33:18.042Z</time></trkpt><trkpt lat="42.2014657" lon="12.2366688"><ele>413.6666666666667</ele><time>2026-03-28T11:33:19.038Z</time></trkpt><trkpt lat="42.2013163" lon="12.2366314"><ele>415.0</ele><time>2026-03-28T11:33:20.061Z</time></trkpt><trkpt lat="42.2011503" lon="12.2366496"><ele>415.0</ele><time>2026-03-28T11:33:21.043Z</time></trkpt><trkpt lat="42.200978" lon="12.2367297"><ele>415.0</ele><time>2026-03-28T11:33:22.045Z</time></trkpt><trkpt lat="42.2008162" lon="12.236823"><ele>415.0</ele><time>2026-03-28T11:33:23.048Z</time></trkpt><trkpt lat="42.2006357" lon="12.2369589"><ele>415.0</ele><time>2026-03-28T11:33:24.044Z</time></trkpt><trkpt lat="42.2004491" lon="12.2371365"><ele>415.0</ele><time>2026-03-28T11:33:25.04Z</time></trkpt><trkpt lat="42.2002497" lon="12.2373151"><ele>415.0</ele><time>2026-03-28T11:33:26.043Z</time></trkpt><trkpt lat="42.2000154" lon="12.2374751"><ele>415.0</ele><time>2026-03-28T11:33:27.044Z</time></trkpt><trkpt lat="42.199766" lon="12.2376743"><ele>417.5</ele><time>2026-03-28T11:33:28.05Z</time></trkpt><trkpt lat="42.1995255" lon="12.23788"><ele>420.0</ele><time>2026-03-28T11:33:29.048Z</time></trkpt><trkpt lat="42.1992843" lon="12.2380643"><ele>421.0</ele><time>2026-03-28T11:33:30.043Z</time></trkpt><trkpt lat="42.1990552" lon="12.2382163"><ele>422.0</ele><time>2026-03-28T11:33:31.042Z</time></trkpt><trkpt lat="42.1988424" lon="12.2383823"><ele>422.0</ele><time>2026-03-28T11:33:32.051Z</time></trkpt><trkpt lat="42.1986566" lon="12.2385617"><ele>422.0</ele><time>2026-03-28T11:33:33.042Z</time></trkpt><trkpt lat="42.1984513" lon="12.2386918"><ele>422.0</ele><time>2026-03-28T11:33:34.046Z</time></trkpt><trkpt lat="42.1982581" lon="12.2388252"><ele>422.0</ele><time>2026-03-28T11:33:35.049Z</time></trkpt><trkpt lat="42.1980796" lon="12.2389451"><ele>422.0</ele><time>2026-03-28T11:33:36.042Z</time></trkpt><trkpt lat="42.1979032" lon="12.2390838"><ele>421.0</ele><time>2026-03-28T11:33:37.05Z</time></trkpt><trkpt lat="42.1977151" lon="12.2392423"><ele>420.0</ele><time>2026-03-28T11:33:38.059Z</time></trkpt><trkpt lat="42.1975111" lon="12.2393979"><ele>420.5</ele><time>2026-03-28T11:33:39.049Z</time></trkpt><trkpt lat="42.1973168" lon="12.2395434"><ele>421.0</ele><time>2026-03-28T11:33:40.053Z</time></trkpt><trkpt lat="42.1970859" lon="12.2397239"><ele>421.5</ele><time>2026-03-28T11:33:41.04Z</time></trkpt><trkpt lat="42.1968408" lon="12.2399313"><ele>422.0</ele><time>2026-03-28T11:33:42.06Z</time></trkpt><trkpt lat="42.1965948" lon="12.2401212"><ele>422.0</ele><time>2026-03-28T11:33:43.045Z</time></trkpt><trkpt lat="42.1963827" lon="12.240283"><ele>422.0</ele><time>2026-03-28T11:33:44.053Z</time></trkpt><trkpt lat="42.1961547" lon="12.2404324"><ele>422.0</ele><time>2026-03-28T11:33:45.044Z</time></trkpt><trkpt lat="42.1959543" lon="12.2405797"><ele>422.0</ele><time>2026-03-28T11:33:46.048Z</time></trkpt><trkpt lat="42.1957562" lon="12.240734"><ele>421.0</ele><time>2026-03-28T11:33:47.054Z</time></trkpt><trkpt lat="42.19557" lon="12.2408733"><ele>420.0</ele><time>2026-03-28T11:33:48.037Z</time></trkpt><trkpt lat="42.1953982" lon="12.2410133"><ele>419.0</ele><time>2026-03-28T11:33:49.048Z</time></trkpt><trkpt lat="42.1952434" lon="12.2411333"><ele>419.0</ele><time>2026-03-28T11:33:50.04Z</time></trkpt><trkpt lat="42.1950817" lon="12.2412559"><ele>419.0</ele><time>2026-03-28T11:33:51.048Z</time></trkpt><trkpt lat="42.1949197" lon="12.2413855"><ele>419.0</ele><time>2026-03-28T11:33:52.038Z</time></trkpt><trkpt lat="42.1947531" lon="12.2414943"><ele>420.66666666666663</ele><time>2026-03-28T11:33:53.047Z</time></trkpt><trkpt lat="42.1945761" lon="12.241574"><ele>422.33333333333337</ele><time>2026-03-28T11:33:54.048Z</time></trkpt><trkpt lat="42.1944131" lon="12.2416408"><ele>424.0</ele><time>2026-03-28T11:33:55.047Z</time></trkpt><trkpt lat="42.1942332" lon="12.2416641"><ele>424.0</ele><time>2026-03-28T11:33:56.045Z</time></trkpt><trkpt lat="42.1940483" lon="12.2416875"><ele>424.0</ele><time>2026-03-28T11:33:57.046Z</time></trkpt><trkpt lat="42.1938316" lon="12.2416796"><ele>424.0</ele><time>2026-03-28T11:33:58.041Z</time></trkpt><trkpt lat="42.1936189" lon="12.2416567"><ele>422.5</ele><time>2026-03-28T11:33:59.044Z</time></trkpt><trkpt lat="42.1933706" lon="12.2416208"><ele>421.0</ele><time>2026-03-28T11:34:00.051Z</time></trkpt><trkpt lat="42.1930987" lon="12.2415878"><ele>421.0</ele><time>2026-03-28T11:34:01.042Z</time></trkpt><trkpt lat="42.1928187" lon="12.2415461"><ele>421.0</ele><time>2026-03-28T11:34:02.05Z</time></trkpt><trkpt lat="42.1925435" lon="12.2415153"><ele>421.0</ele><time>2026-03-28T11:34:03.045Z</time></trkpt><trkpt lat="42.1923039" lon="12.2414816"><ele>421.0</ele><time>2026-03-28T11:34:04.046Z</time></trkpt><trkpt lat="42.1920752" lon="12.241452"><ele>421.0</ele><time>2026-03-28T11:34:05.041Z</time></trkpt><trkpt lat="42.1918427" lon="12.2414303"><ele>421.0</ele><time>2026-03-28T11:34:06.051Z</time></trkpt><trkpt lat="42.1916307" lon="12.2413908"><ele>421.0</ele><time>2026-03-28T11:34:07.056Z</time></trkpt><trkpt lat="42.1914348" lon="12.2413733"><ele>421.0</ele><time>2026-03-28T11:34:08.046Z</time></trkpt><trkpt lat="42.1912315" lon="12.2413491"><ele>421.0</ele><time>2026-03-28T11:34:09.043Z</time></trkpt><trkpt lat="42.1910376" lon="12.2413214"><ele>421.0</ele><time>2026-03-28T11:34:10.057Z</time></trkpt><trkpt lat="42.1908422" lon="12.2413104"><ele>421.6666666666667</ele><time>2026-03-28T11:34:11.04Z</time></trkpt><trkpt lat="42.1906566" lon="12.2412957"><ele>422.33333333333337</ele><time>2026-03-28T11:34:12.054Z</time></trkpt><trkpt lat="42.1904654" lon="12.2412773"><ele>423.0</ele><time>2026-03-28T11:34:13.04Z</time></trkpt><trkpt lat="42.1902869" lon="12.2412675"><ele>423.0</ele><time>2026-03-28T11:34:14.043Z</time></trkpt><trkpt lat="42.1901038" lon="12.2412524"><ele>423.0</ele><time>2026-03-28T11:34:15.048Z</time></trkpt><trkpt lat="42.1899152" lon="12.2412389"><ele>423.0</ele><time>2026-03-28T11:34:16.054Z</time></trkpt><trkpt lat="42.1897158" lon="12.2412384"><ele>422.33333333333337</ele><time>2026-03-28T11:34:17.057Z</time></trkpt><trkpt lat="42.1895154" lon="12.2412185"><ele>421.6666666666667</ele><time>2026-03-28T11:34:18.041Z</time></trkpt><trkpt lat="42.1893324" lon="12.2412092"><ele>421.0</ele><time>2026-03-28T11:34:19.04Z</time></trkpt><trkpt lat="42.1891576" lon="12.2412203"><ele>421.6666666666667</ele><time>2026-03-28T11:34:20.047Z</time></trkpt><trkpt lat="42.1889824" lon="12.2412274"><ele>422.33333333333337</ele><time>2026-03-28T11:34:21.043Z</time></trkpt><trkpt lat="42.1888123" lon="12.2412327"><ele>423.0</ele><time>2026-03-28T11:34:22.055Z</time></trkpt><trkpt lat="42.1886689" lon="12.241255"><ele>423.0</ele><time>2026-03-28T11:34:23.038Z</time></trkpt><trkpt lat="42.1885167" lon="12.2412754"><ele>423.0</ele><time>2026-03-28T11:34:24.048Z</time></trkpt><trkpt lat="42.1883764" lon="12.2413136"><ele>423.0</ele><time>2026-03-28T11:34:25.043Z</time></trkpt><trkpt lat="42.188243" lon="12.2413851"><ele>423.0</ele><time>2026-03-28T11:34:26.054Z</time></trkpt><trkpt lat="42.1881142" lon="12.2414715"><ele>425.0</ele><time>2026-03-28T11:34:27.045Z</time></trkpt><trkpt lat="42.1879796" lon="12.2415705"><ele>427.0</ele><time>2026-03-28T11:34:28.069Z</time></trkpt><trkpt lat="42.1878378" lon="12.2416814"><ele>429.0</ele><time>2026-03-28T11:34:29.038Z</time></trkpt><trkpt lat="42.1877344" lon="12.2418249"><ele>429.0</ele><time>2026-03-28T11:34:30.046Z</time></trkpt><trkpt lat="42.1876386" lon="12.2419798"><ele>429.0</ele><time>2026-03-28T11:34:31.04Z</time></trkpt><trkpt lat="42.1875796" lon="12.2421547"><ele>429.0</ele><time>2026-03-28T11:34:32.052Z</time></trkpt><trkpt lat="42.1875359" lon="12.2423112"><ele>429.0</ele><time>2026-03-28T11:34:33.039Z</time></trkpt><trkpt lat="42.1874903" lon="12.2424976"><ele>430.5</ele><time>2026-03-28T11:34:34.057Z</time></trkpt><trkpt lat="42.1874488" lon="12.2426811"><ele>432.0</ele><time>2026-03-28T11:34:35.05Z</time></trkpt><trkpt lat="42.1874151" lon="12.2428711"><ele>433.5</ele><time>2026-03-28T11:34:36.046Z</time></trkpt><trkpt lat="42.1874027" lon="12.2430736"><ele>435.0</ele><time>2026-03-28T11:34:37.042Z</time></trkpt><trkpt lat="42.1874069" lon="12.2433154"><ele>436.0</ele><time>2026-03-28T11:34:38.056Z</time></trkpt><trkpt lat="42.187399" lon="12.2435551"><ele>437.0</ele><time>2026-03-28T11:34:39.041Z</time></trkpt><trkpt lat="42.1873802" lon="12.2437948"><ele>438.0</ele><time>2026-03-28T11:34:40.052Z</time></trkpt><trkpt lat="42.1873519" lon="12.2440237"><ele>441.66666666666663</ele><time>2026-03-28T11:34:41.043Z</time></trkpt><trkpt lat="42.1873322" lon="12.244266"><ele>445.3333333333333</ele><time>2026-03-28T11:34:42.042Z</time></trkpt><trkpt lat="42.1872979" lon="12.2444779"><ele>449.0</ele><time>2026-03-28T11:34:43.042Z</time></trkpt><trkpt lat="42.1872265" lon="12.2446634"><ele>445.3333333333333</ele><time>2026-03-28T11:34:44.044Z</time></trkpt><trkpt lat="42.187161" lon="12.2448698"><ele>441.66666666666663</ele><time>2026-03-28T11:34:45.045Z</time></trkpt><trkpt lat="42.1870582" lon="12.245035"><ele>438.0</ele><time>2026-03-28T11:34:46.044Z</time></trkpt><trkpt lat="42.1869352" lon="12.2452349"><ele>438.0</ele><time>2026-03-28T11:34:47.05Z</time></trkpt><trkpt lat="42.1868075" lon="12.2454409"><ele>438.0</ele><time>2026-03-28T11:34:48.051Z</time></trkpt><trkpt lat="42.1866748" lon="12.2456226"><ele>438.0</ele><time>2026-03-28T11:34:49.046Z</time></trkpt><trkpt lat="42.1865795" lon="12.2458119"><ele>432.66666666666663</ele><time>2026-03-28T11:34:50.049Z</time></trkpt><trkpt lat="42.1864847" lon="12.245998"><ele>427.3333333333333</ele><time>2026-03-28T11:34:51.045Z</time></trkpt><trkpt lat="42.1863692" lon="12.2461638"><ele>422.0</ele><time>2026-03-28T11:34:52.056Z</time></trkpt><trkpt lat="42.1862273" lon="12.2463218"><ele>416.3333333333333</ele><time>2026-03-28T11:34:53.048Z</time></trkpt><trkpt lat="42.1860665" lon="12.2464717"><ele>410.66666666666663</ele><time>2026-03-28T11:34:54.054Z</time></trkpt><trkpt lat="42.1859063" lon="12.2465757"><ele>405.0</ele><time>2026-03-28T11:34:55.044Z</time></trkpt><trkpt lat="42.1857346" lon="12.2466729"><ele>404.33333333333337</ele><time>2026-03-28T11:34:56.05Z</time></trkpt><trkpt lat="42.1855416" lon="12.2467615"><ele>403.6666666666667</ele><time>2026-03-28T11:34:57.04Z</time></trkpt><trkpt lat="42.1853795" lon="12.2468448"><ele>403.0</ele><time>2026-03-28T11:34:58.049Z</time></trkpt><trkpt lat="42.1852092" lon="12.2469237"><ele>403.0</ele><time>2026-03-28T11:34:59.047Z</time></trkpt><trkpt lat="42.1850281" lon="12.2470008"><ele>403.0</ele><time>2026-03-28T11:35:00.04Z</time></trkpt><trkpt lat="42.1848628" lon="12.2471054"><ele>403.0</ele><time>2026-03-28T11:35:01.058Z</time></trkpt><trkpt lat="42.184696" lon="12.2472071"><ele>399.0</ele><time>2026-03-28T11:35:02.047Z</time></trkpt><trkpt lat="42.1845328" lon="12.2473"><ele>395.0</ele><time>2026-03-28T11:35:03.047Z</time></trkpt><trkpt lat="42.1843721" lon="12.2473867"><ele>391.0</ele><time>2026-03-28T11:35:04.039Z</time></trkpt><trkpt lat="42.1842071" lon="12.2474789"><ele>391.0</ele><time>2026-03-28T11:35:05.056Z</time></trkpt><trkpt lat="42.1840279" lon="12.247581"><ele>391.0</ele><time>2026-03-28T11:35:06.04Z</time></trkpt><trkpt lat="42.1838414" lon="12.2477119"><ele>391.0</ele><time>2026-03-28T11:35:07.05Z</time></trkpt><trkpt lat="42.1836613" lon="12.2478245"><ele>391.0</ele><time>2026-03-28T11:35:08.041Z</time></trkpt><trkpt lat="42.1834867" lon="12.2479325"><ele>391.0</ele><time>2026-03-28T11:35:09.055Z</time></trkpt><trkpt lat="42.1832996" lon="12.2480613"><ele>391.0</ele><time>2026-03-28T11:35:10.051Z</time></trkpt><trkpt lat="42.1831075" lon="12.2481907"><ele>390.5</ele><time>2026-03-28T11:35:11.052Z</time></trkpt><trkpt lat="42.1829044" lon="12.2483093"><ele>390.0</ele><time>2026-03-28T11:35:12.052Z</time></trkpt><trkpt lat="42.1826923" lon="12.2484288"><ele>390.0</ele><time>2026-03-28T11:35:13.051Z</time></trkpt><trkpt lat="42.1824929" lon="12.2485454"><ele>390.0</ele><time>2026-03-28T11:35:14.046Z</time></trkpt><trkpt lat="42.1822765" lon="12.248686"><ele>393.0</ele><time>2026-03-28T11:35:15.049Z</time></trkpt><trkpt lat="42.1820571" lon="12.2488342"><ele>396.0</ele><time>2026-03-28T11:35:16.056Z</time></trkpt><trkpt lat="42.1818329" lon="12.2489763"><ele>396.0</ele><time>2026-03-28T11:35:17.052Z</time></trkpt><trkpt lat="42.181622" lon="12.2491193"><ele>396.0</ele><time>2026-03-28T11:35:18.069Z</time></trkpt><trkpt lat="42.1814365" lon="12.24922"><ele>396.0</ele><time>2026-03-28T11:35:19.056Z</time></trkpt><trkpt lat="42.1812512" lon="12.2493239"><ele>398.0</ele><time>2026-03-28T11:35:20.059Z</time></trkpt><trkpt lat="42.1810644" lon="12.2494351"><ele>400.0</ele><time>2026-03-28T11:35:21.04Z</time></trkpt><trkpt lat="42.1808713" lon="12.2495623"><ele>402.0</ele><time>2026-03-28T11:35:22.053Z</time></trkpt><trkpt lat="42.1806846" lon="12.2496741"><ele>402.66666666666663</ele><time>2026-03-28T11:35:23.039Z</time></trkpt><trkpt lat="42.1805263" lon="12.2497848"><ele>403.3333333333333</ele><time>2026-03-28T11:35:24.044Z</time></trkpt><trkpt lat="42.1803755" lon="12.2498862"><ele>404.0</ele><time>2026-03-28T11:35:25.045Z</time></trkpt><trkpt lat="42.1802266" lon="12.2499761"><ele>404.0</ele><time>2026-03-28T11:35:26.046Z</time></trkpt><trkpt lat="42.1800725" lon="12.2500729"><ele>404.0</ele><time>2026-03-28T11:35:27.05Z</time></trkpt><trkpt lat="42.1799023" lon="12.2501557"><ele>404.0</ele><time>2026-03-28T11:35:28.042Z</time></trkpt><trkpt lat="42.1797094" lon="12.2502225"><ele>404.3333333333333</ele><time>2026-03-28T11:35:29.041Z</time></trkpt><trkpt lat="42.1795467" lon="12.2502764"><ele>404.66666666666663</ele><time>2026-03-28T11:35:30.05Z</time></trkpt><trkpt lat="42.1793823" lon="12.250315"><ele>405.0</ele><time>2026-03-28T11:35:31.042Z</time></trkpt><trkpt lat="42.1792128" lon="12.2503288"><ele>405.0</ele><time>2026-03-28T11:35:32.058Z</time></trkpt><trkpt lat="42.1790354" lon="12.250355"><ele>405.0</ele><time>2026-03-28T11:35:33.042Z</time></trkpt><trkpt lat="42.1788719" lon="12.2503606"><ele>405.0</ele><time>2026-03-28T11:35:34.047Z</time></trkpt><trkpt lat="42.1787059" lon="12.2503584"><ele>405.0</ele><time>2026-03-28T11:35:35.042Z</time></trkpt><trkpt lat="42.1785319" lon="12.250337"><ele>405.0</ele><time>2026-03-28T11:35:36.053Z</time></trkpt><trkpt lat="42.1783363" lon="12.2503151"><ele>405.0</ele><time>2026-03-28T11:35:37.05Z</time></trkpt><trkpt lat="42.1781393" lon="12.2502948"><ele>404.66666666666663</ele><time>2026-03-28T11:35:38.062Z</time></trkpt><trkpt lat="42.1779533" lon="12.2502681"><ele>404.3333333333333</ele><time>2026-03-28T11:35:39.043Z</time></trkpt><trkpt lat="42.1777593" lon="12.2502438"><ele>404.0</ele><time>2026-03-28T11:35:40.051Z</time></trkpt><trkpt lat="42.1775699" lon="12.2502347"><ele>404.0</ele><time>2026-03-28T11:35:41.049Z</time></trkpt><trkpt lat="42.1773884" lon="12.2502016"><ele>404.0</ele><time>2026-03-28T11:35:42.052Z</time></trkpt><trkpt lat="42.1772045" lon="12.2501572"><ele>404.0</ele><time>2026-03-28T11:35:43.044Z</time></trkpt><trkpt lat="42.1770191" lon="12.2501298"><ele>402.3333333333333</ele><time>2026-03-28T11:35:44.052Z</time></trkpt><trkpt lat="42.1768403" lon="12.2501167"><ele>400.66666666666663</ele><time>2026-03-28T11:35:45.05Z</time></trkpt><trkpt lat="42.1766682" lon="12.2500938"><ele>399.0</ele><time>2026-03-28T11:35:46.046Z</time></trkpt><trkpt lat="42.1765014" lon="12.2500631"><ele>396.66666666666663</ele><time>2026-03-28T11:35:47.045Z</time></trkpt><trkpt lat="42.176344" lon="12.2500368"><ele>394.3333333333333</ele><time>2026-03-28T11:35:48.041Z</time></trkpt><trkpt lat="42.1761929" lon="12.2500277"><ele>392.0</ele><time>2026-03-28T11:35:49.048Z</time></trkpt><trkpt lat="42.1760377" lon="12.2500075"><ele>392.0</ele><time>2026-03-28T11:35:50.053Z</time></trkpt><trkpt lat="42.1758731" lon="12.2499906"><ele>392.0</ele><time>2026-03-28T11:35:51.045Z</time></trkpt><trkpt lat="42.1756942" lon="12.2499734"><ele>392.0</ele><time>2026-03-28T11:35:52.053Z</time></trkpt><trkpt lat="42.1755011" lon="12.2499461"><ele>390.0</ele><time>2026-03-28T11:35:53.05Z</time></trkpt><trkpt lat="42.1752831" lon="12.2499205"><ele>388.0</ele><time>2026-03-28T11:35:54.044Z</time></trkpt><trkpt lat="42.1750478" lon="12.2498908"><ele>384.5</ele><time>2026-03-28T11:35:55.045Z</time></trkpt><trkpt lat="42.1748121" lon="12.2498499"><ele>381.0</ele><time>2026-03-28T11:35:56.04Z</time></trkpt><trkpt lat="42.1745815" lon="12.2498084"><ele>381.0</ele><time>2026-03-28T11:35:57.045Z</time></trkpt><trkpt lat="42.1743689" lon="12.2497903"><ele>381.0</ele><time>2026-03-28T11:35:58.045Z</time></trkpt><trkpt lat="42.1741577" lon="12.2497695"><ele>381.0</ele><time>2026-03-28T11:35:59.044Z</time></trkpt><trkpt lat="42.1739604" lon="12.2497395"><ele>379.0</ele><time>2026-03-28T11:36:00.042Z</time></trkpt><trkpt lat="42.1737591" lon="12.2496958"><ele>377.0</ele><time>2026-03-28T11:36:01.052Z</time></trkpt><trkpt lat="42.1735673" lon="12.2496594"><ele>375.0</ele><time>2026-03-28T11:36:02.05Z</time></trkpt><trkpt lat="42.1734001" lon="12.2496266"><ele>375.0</ele><time>2026-03-28T11:36:03.045Z</time></trkpt><trkpt lat="42.1732404" lon="12.2496093"><ele>375.0</ele><time>2026-03-28T11:36:04.049Z</time></trkpt><trkpt lat="42.1730788" lon="12.2495711"><ele>375.0</ele><time>2026-03-28T11:36:05.039Z</time></trkpt><trkpt lat="42.1729319" lon="12.2495127"><ele>373.0</ele><time>2026-03-28T11:36:06.045Z</time></trkpt><trkpt lat="42.1728221" lon="12.2494094"><ele>371.0</ele><time>2026-03-28T11:36:07.042Z</time></trkpt><trkpt lat="42.1727313" lon="12.249256"><ele>369.0</ele><time>2026-03-28T11:36:08.092Z</time></trkpt><trkpt lat="42.1726833" lon="12.2490602"><ele>367.0</ele><time>2026-03-28T11:36:09.049Z</time></trkpt><trkpt lat="42.1726887" lon="12.2488479"><ele>365.75</ele><time>2026-03-28T11:36:10.042Z</time></trkpt><trkpt lat="42.1727257" lon="12.2486537"><ele>364.5</ele><time>2026-03-28T11:36:11.042Z</time></trkpt><trkpt lat="42.1727914" lon="12.2484923"><ele>363.25</ele><time>2026-03-28T11:36:12.044Z</time></trkpt><trkpt lat="42.1728943" lon="12.2483454"><ele>362.0</ele><time>2026-03-28T11:36:13.042Z</time></trkpt><trkpt lat="42.173025" lon="12.2482046"><ele>362.75</ele><time>2026-03-28T11:36:14.044Z</time></trkpt><trkpt lat="42.1731043" lon="12.2480517"><ele>363.5</ele><time>2026-03-28T11:36:15.058Z</time></trkpt><trkpt lat="42.1731622" lon="12.247863"><ele>364.25</ele><time>2026-03-28T11:36:16.042Z</time></trkpt><trkpt lat="42.1731982" lon="12.247683"><ele>365.0</ele><time>2026-03-28T11:36:17.048Z</time></trkpt><trkpt lat="42.1731903" lon="12.2474881"><ele>361.33333333333337</ele><time>2026-03-28T11:36:18.04Z</time></trkpt><trkpt lat="42.173161" lon="12.2472946"><ele>357.6666666666667</ele><time>2026-03-28T11:36:19.055Z</time></trkpt><trkpt lat="42.173134" lon="12.2470916"><ele>354.0</ele><time>2026-03-28T11:36:20.041Z</time></trkpt><trkpt lat="42.1730834" lon="12.2468878"><ele>353.6666666666667</ele><time>2026-03-28T11:36:21.044Z</time></trkpt><trkpt lat="42.1730226" lon="12.2466771"><ele>353.33333333333337</ele><time>2026-03-28T11:36:22.049Z</time></trkpt><trkpt lat="42.1729387" lon="12.2465084"><ele>353.0</ele><time>2026-03-28T11:36:23.043Z</time></trkpt><trkpt lat="42.1728406" lon="12.2463467"><ele>353.0</ele><time>2026-03-28T11:36:24.039Z</time></trkpt><trkpt lat="42.1727204" lon="12.24618"><ele>353.0</ele><time>2026-03-28T11:36:25.048Z</time></trkpt><trkpt lat="42.1725551" lon="12.2460547"><ele>353.0</ele><time>2026-03-28T11:36:26.046Z</time></trkpt><trkpt lat="42.1724297" lon="12.2458909"><ele>349.0</ele><time>2026-03-28T11:36:27.052Z</time></trkpt><trkpt lat="42.172305" lon="12.2457115"><ele>345.0</ele><time>2026-03-28T11:36:28.038Z</time></trkpt><trkpt lat="42.1721752" lon="12.245526"><ele>341.0</ele><time>2026-03-28T11:36:29.051Z</time></trkpt><trkpt lat="42.1720507" lon="12.2453463"><ele>341.0</ele><time>2026-03-28T11:36:30.044Z</time></trkpt><trkpt lat="42.171925" lon="12.2451838"><ele>341.0</ele><time>2026-03-28T11:36:31.05Z</time></trkpt><trkpt lat="42.1718048" lon="12.2450105"><ele>341.0</ele><time>2026-03-28T11:36:32.047Z</time></trkpt><trkpt lat="42.1717095" lon="12.2448219"><ele>341.0</ele><time>2026-03-28T11:36:33.045Z</time></trkpt><trkpt lat="42.1716239" lon="12.2446239"><ele>341.0</ele><time>2026-03-28T11:36:34.061Z</time></trkpt><trkpt lat="42.1715466" lon="12.2443934"><ele>341.0</ele><time>2026-03-28T11:36:35.043Z</time></trkpt><trkpt lat="42.1715002" lon="12.2441445"><ele>338.0</ele><time>2026-03-28T11:36:36.044Z</time></trkpt><trkpt lat="42.1714372" lon="12.2439048"><ele>335.0</ele><time>2026-03-28T11:36:37.041Z</time></trkpt><trkpt lat="42.1713434" lon="12.2436672"><ele>332.0</ele><time>2026-03-28T11:36:38.045Z</time></trkpt><trkpt lat="42.1712404" lon="12.2434502"><ele>332.0</ele><time>2026-03-28T11:36:39.055Z</time></trkpt><trkpt lat="42.1711046" lon="12.2432315"><ele>332.0</ele><time>2026-03-28T11:36:40.051Z</time></trkpt><trkpt lat="42.1709308" lon="12.2430476"><ele>332.0</ele><time>2026-03-28T11:36:41.049Z</time></trkpt><trkpt lat="42.1707619" lon="12.2428648"><ele>331.6666666666667</ele><time>2026-03-28T11:36:42.047Z</time></trkpt><trkpt lat="42.1705961" lon="12.2426906"><ele>331.3333333333333</ele><time>2026-03-28T11:36:43.04Z</time></trkpt><trkpt lat="42.1704394" lon="12.2425326"><ele>331.0</ele><time>2026-03-28T11:36:44.052Z</time></trkpt><trkpt lat="42.1702929" lon="12.242354"><ele>329.66666666666663</ele><time>2026-03-28T11:36:45.051Z</time></trkpt><trkpt lat="42.1701536" lon="12.2421783"><ele>328.3333333333333</ele><time>2026-03-28T11:36:46.056Z</time></trkpt><trkpt lat="42.1700003" lon="12.2420208"><ele>327.0</ele><time>2026-03-28T11:36:47.051Z</time></trkpt><trkpt lat="42.1698524" lon="12.241853"><ele>324.6666666666667</ele><time>2026-03-28T11:36:48.049Z</time></trkpt><trkpt lat="42.1697113" lon="12.2416769"><ele>322.33333333333337</ele><time>2026-03-28T11:36:49.039Z</time></trkpt><trkpt lat="42.1695646" lon="12.2414948"><ele>320.0</ele><time>2026-03-28T11:36:50.039Z</time></trkpt><trkpt lat="42.1694182" lon="12.2413162"><ele>318.33333333333337</ele><time>2026-03-28T11:36:51.05Z</time></trkpt><trkpt lat="42.1692961" lon="12.24112"><ele>316.6666666666667</ele><time>2026-03-28T11:36:52.043Z</time></trkpt><trkpt lat="42.1691789" lon="12.2408993"><ele>315.0</ele><time>2026-03-28T11:36:53.047Z</time></trkpt><trkpt lat="42.1690628" lon="12.240706"><ele>311.0</ele><time>2026-03-28T11:36:54.042Z</time></trkpt><trkpt lat="42.1689514" lon="12.2405131"><ele>307.0</ele><time>2026-03-28T11:36:55.051Z</time></trkpt><trkpt lat="42.1688476" lon="12.2403104"><ele>303.0</ele><time>2026-03-28T11:36:56.042Z</time></trkpt><trkpt lat="42.1687503" lon="12.2400948"><ele>303.0</ele><time>2026-03-28T11:36:57.059Z</time></trkpt><trkpt lat="42.1686517" lon="12.2398809"><ele>303.0</ele><time>2026-03-28T11:36:58.054Z</time></trkpt><trkpt lat="42.1685587" lon="12.2396613"><ele>303.0</ele><time>2026-03-28T11:36:59.048Z</time></trkpt><trkpt lat="42.1684751" lon="12.2394427"><ele>302.0</ele><time>2026-03-28T11:37:00.044Z</time></trkpt><trkpt lat="42.1683915" lon="12.2392378"><ele>301.0</ele><time>2026-03-28T11:37:01.041Z</time></trkpt><trkpt lat="42.168325" lon="12.2390176"><ele>300.0</ele><time>2026-03-28T11:37:02.052Z</time></trkpt><trkpt lat="42.168274" lon="12.2387922"><ele>300.0</ele><time>2026-03-28T11:37:03.042Z</time></trkpt><trkpt lat="42.1682161" lon="12.2385437"><ele>300.0</ele><time>2026-03-28T11:37:04.043Z</time></trkpt><trkpt lat="42.1681584" lon="12.2382989"><ele>300.0</ele><time>2026-03-28T11:37:05.048Z</time></trkpt><trkpt lat="42.1681072" lon="12.2380641"><ele>295.6666666666667</ele><time>2026-03-28T11:37:06.054Z</time></trkpt><trkpt lat="42.1680411" lon="12.2378384"><ele>291.33333333333337</ele><time>2026-03-28T11:37:07.055Z</time></trkpt><trkpt lat="42.1679622" lon="12.2376301"><ele>287.0</ele><time>2026-03-28T11:37:08.044Z</time></trkpt><trkpt lat="42.1678493" lon="12.2374558"><ele>288.6666666666667</ele><time>2026-03-28T11:37:09.042Z</time></trkpt><trkpt lat="42.1677382" lon="12.2373007"><ele>290.3333333333333</ele><time>2026-03-28T11:37:10.051Z</time></trkpt><trkpt lat="42.1676279" lon="12.2371623"><ele>292.0</ele><time>2026-03-28T11:37:11.05Z</time></trkpt><trkpt lat="42.1675347" lon="12.2369826"><ele>292.0</ele><time>2026-03-28T11:37:12.059Z</time></trkpt><trkpt lat="42.1674683" lon="12.2367861"><ele>292.0</ele><time>2026-03-28T11:37:13.041Z</time></trkpt><trkpt lat="42.167435" lon="12.236589"><ele>292.0</ele><time>2026-03-28T11:37:14.055Z</time></trkpt><trkpt lat="42.1674257" lon="12.2363798"><ele>291.3333333333333</ele><time>2026-03-28T11:37:15.04Z</time></trkpt><trkpt lat="42.1674239" lon="12.2361226"><ele>290.6666666666667</ele><time>2026-03-28T11:37:16.045Z</time></trkpt><trkpt lat="42.1673895" lon="12.2358815"><ele>290.0</ele><time>2026-03-28T11:37:17.04Z</time></trkpt><trkpt lat="42.1672851" lon="12.2357015"><ele>284.0</ele><time>2026-03-28T11:37:18.044Z</time></trkpt><trkpt lat="42.1672063" lon="12.2355101"><ele>278.0</ele><time>2026-03-28T11:37:19.039Z</time></trkpt><trkpt lat="42.1671307" lon="12.2353144"><ele>272.0</ele><time>2026-03-28T11:37:20.055Z</time></trkpt><trkpt lat="42.167032" lon="12.2351354"><ele>272.0</ele><time>2026-03-28T11:37:21.047Z</time></trkpt><trkpt lat="42.1669543" lon="12.2349264"><ele>272.0</ele><time>2026-03-28T11:37:22.048Z</time></trkpt><trkpt lat="42.1669485" lon="12.2347181"><ele>272.0</ele><time>2026-03-28T11:37:23.042Z</time></trkpt><trkpt lat="42.1669879" lon="12.23454"><ele>269.33333333333337</ele><time>2026-03-28T11:37:24.05Z</time></trkpt><trkpt lat="42.1670528" lon="12.2343344"><ele>266.6666666666667</ele><time>2026-03-28T11:37:25.041Z</time></trkpt><trkpt lat="42.1671269" lon="12.234139"><ele>264.0</ele><time>2026-03-28T11:37:26.053Z</time></trkpt><trkpt lat="42.167224" lon="12.23398"><ele>261.25</ele><time>2026-03-28T11:37:27.043Z</time></trkpt><trkpt lat="42.1673421" lon="12.2338075"><ele>258.5</ele><time>2026-03-28T11:37:28.045Z</time></trkpt><trkpt lat="42.1674245" lon="12.2336698"><ele>255.75</ele><time>2026-03-28T11:37:29.042Z</time></trkpt><trkpt lat="42.1674595" lon="12.2335058"><ele>253.0</ele><time>2026-03-28T11:37:30.041Z</time></trkpt><trkpt lat="42.1674633" lon="12.2333405"><ele>252.25</ele><time>2026-03-28T11:37:31.043Z</time></trkpt><trkpt lat="42.1674279" lon="12.2332086"><ele>251.5</ele><time>2026-03-28T11:37:32.044Z</time></trkpt><trkpt lat="42.1673203" lon="12.2330308"><ele>250.75</ele><time>2026-03-28T11:37:33.041Z</time></trkpt><trkpt lat="42.1672274" lon="12.2328464"><ele>250.0</ele><time>2026-03-28T11:37:34.049Z</time></trkpt><trkpt lat="42.1671361" lon="12.2326337"><ele>250.0</ele><time>2026-03-28T11:37:35.052Z</time></trkpt><trkpt lat="42.1670596" lon="12.2324447"><ele>250.0</ele><time>2026-03-28T11:37:36.043Z</time></trkpt><trkpt lat="42.1670299" lon="12.2322474"><ele>250.0</ele><time>2026-03-28T11:37:37.045Z</time></trkpt><trkpt lat="42.1670612" lon="12.2320471"><ele>247.66666666666666</ele><time>2026-03-28T11:37:38.047Z</time></trkpt><trkpt lat="42.1671368" lon="12.2318612"><ele>245.33333333333331</ele><time>2026-03-28T11:37:39.046Z</time></trkpt><trkpt lat="42.1672392" lon="12.2316817"><ele>243.0</ele><time>2026-03-28T11:37:40.047Z</time></trkpt><trkpt lat="42.167336" lon="12.2315052"><ele>241.75</ele><time>2026-03-28T11:37:41.044Z</time></trkpt><trkpt lat="42.1673953" lon="12.2313075"><ele>240.5</ele><time>2026-03-28T11:37:42.04Z</time></trkpt><trkpt lat="42.1674118" lon="12.2311239"><ele>239.25</ele><time>2026-03-28T11:37:43.044Z</time></trkpt><trkpt lat="42.1673936" lon="12.2309245"><ele>238.0</ele><time>2026-03-28T11:37:44.047Z</time></trkpt><trkpt lat="42.167337" lon="12.2307409"><ele>237.66666666666666</ele><time>2026-03-28T11:37:45.048Z</time></trkpt><trkpt lat="42.1672691" lon="12.230559"><ele>237.33333333333331</ele><time>2026-03-28T11:37:46.047Z</time></trkpt><trkpt lat="42.167213" lon="12.2303476"><ele>237.0</ele><time>2026-03-28T11:37:47.042Z</time></trkpt><trkpt lat="42.1671689" lon="12.2301493"><ele>237.0</ele><time>2026-03-28T11:37:48.07Z</time></trkpt><trkpt lat="42.1671198" lon="12.2299416"><ele>237.0</ele><time>2026-03-28T11:37:49.043Z</time></trkpt><trkpt lat="42.1670724" lon="12.2297528"><ele>237.0</ele><time>2026-03-28T11:37:50.053Z</time></trkpt><trkpt lat="42.1670203" lon="12.2295496"><ele>237.0</ele><time>2026-03-28T11:37:51.044Z</time></trkpt><trkpt lat="42.1669793" lon="12.2293636"><ele>237.0</ele><time>2026-03-28T11:37:52.063Z</time></trkpt><trkpt lat="42.1669409" lon="12.2291733"><ele>237.0</ele><time>2026-03-28T11:37:53.042Z</time></trkpt><trkpt lat="42.1669225" lon="12.2289856"><ele>237.0</ele><time>2026-03-28T11:37:54.055Z</time></trkpt><trkpt lat="42.1669301" lon="12.2287986"><ele>234.75</ele><time>2026-03-28T11:37:55.044Z</time></trkpt><trkpt lat="42.1669574" lon="12.2286154"><ele>232.5</ele><time>2026-03-28T11:37:56.05Z</time></trkpt><trkpt lat="42.1670209" lon="12.2284442"><ele>230.25</ele><time>2026-03-28T11:37:57.04Z</time></trkpt><trkpt lat="42.1670944" lon="12.2282504"><ele>228.0</ele><time>2026-03-28T11:37:58.058Z</time></trkpt><trkpt lat="42.167172" lon="12.2280585"><ele>226.5</ele><time>2026-03-28T11:37:59.052Z</time></trkpt><trkpt lat="42.1672548" lon="12.2278785"><ele>225.0</ele><time>2026-03-28T11:38:00.05Z</time></trkpt><trkpt lat="42.1673156" lon="12.2277039"><ele>223.5</ele><time>2026-03-28T11:38:01.037Z</time></trkpt><trkpt lat="42.1673337" lon="12.227534"><ele>222.0</ele><time>2026-03-28T11:38:02.047Z</time></trkpt><trkpt lat="42.1672984" lon="12.2273723"><ele>220.75</ele><time>2026-03-28T11:38:03.044Z</time></trkpt><trkpt lat="42.1672201" lon="12.2272232"><ele>219.5</ele><time>2026-03-28T11:38:04.053Z</time></trkpt><trkpt lat="42.1671497" lon="12.2270945"><ele>218.25</ele><time>2026-03-28T11:38:05.04Z</time></trkpt><trkpt lat="42.1670258" lon="12.2269936"><ele>217.0</ele><time>2026-03-28T11:38:06.045Z</time></trkpt><trkpt lat="42.1668995" lon="12.2269395"><ele>217.0</ele><time>2026-03-28T11:38:07.04Z</time></trkpt><trkpt lat="42.1667553" lon="12.2269744"><ele>217.0</ele><time>2026-03-28T11:38:08.044Z</time></trkpt><trkpt lat="42.1666321" lon="12.2270221"><ele>217.0</ele><time>2026-03-28T11:38:09.054Z</time></trkpt><trkpt lat="42.1665244" lon="12.2270938"><ele>217.0</ele><time>2026-03-28T11:38:10.044Z</time></trkpt><trkpt lat="42.166424" lon="12.2271964"><ele>214.0</ele><time>2026-03-28T11:38:11.044Z</time></trkpt><trkpt lat="42.1663322" lon="12.2273682"><ele>211.0</ele><time>2026-03-28T11:38:12.042Z</time></trkpt><trkpt lat="42.1662767" lon="12.2275481"><ele>208.0</ele><time>2026-03-28T11:38:13.047Z</time></trkpt><trkpt lat="42.1662227" lon="12.22775"><ele>208.0</ele><time>2026-03-28T11:38:14.044Z</time></trkpt><trkpt lat="42.1661545" lon="12.2279443"><ele>208.0</ele><time>2026-03-28T11:38:15.053Z</time></trkpt><trkpt lat="42.166087" lon="12.2281346"><ele>208.0</ele><time>2026-03-28T11:38:16.037Z</time></trkpt><trkpt lat="42.1660284" lon="12.2282969"><ele>208.5</ele><time>2026-03-28T11:38:17.046Z</time></trkpt><trkpt lat="42.1659467" lon="12.228469"><ele>209.0</ele><time>2026-03-28T11:38:18.042Z</time></trkpt><trkpt lat="42.1659051" lon="12.2286371"><ele>209.5</ele><time>2026-03-28T11:38:19.047Z</time></trkpt><trkpt lat="42.165848" lon="12.2288038"><ele>210.0</ele><time>2026-03-28T11:38:20.042Z</time></trkpt><trkpt lat="42.1658229" lon="12.2289449"><ele>211.25</ele><time>2026-03-28T11:38:21.038Z</time></trkpt><trkpt lat="42.1657563" lon="12.2290904"><ele>212.5</ele><time>2026-03-28T11:38:22.058Z</time></trkpt><trkpt lat="42.1656821" lon="12.2292372"><ele>213.75</ele><time>2026-03-28T11:38:23.049Z</time></trkpt><trkpt lat="42.1656286" lon="12.2294183"><ele>215.0</ele><time>2026-03-28T11:38:24.04Z</time></trkpt><trkpt lat="42.1655628" lon="12.2295859"><ele>211.5</ele><time>2026-03-28T11:38:25.043Z</time></trkpt><trkpt lat="42.1655056" lon="12.2297747"><ele>208.0</ele><time>2026-03-28T11:38:26.066Z</time></trkpt><trkpt lat="42.1654371" lon="12.2299255"><ele>204.5</ele><time>2026-03-28T11:38:27.039Z</time></trkpt><trkpt lat="42.165369" lon="12.2300823"><ele>201.0</ele><time>2026-03-28T11:38:28.049Z</time></trkpt><trkpt lat="42.1652991" lon="12.2302192"><ele>201.0</ele><time>2026-03-28T11:38:29.043Z</time></trkpt><trkpt lat="42.1652208" lon="12.2303247"><ele>201.0</ele><time>2026-03-28T11:38:30.041Z</time></trkpt><trkpt lat="42.1651302" lon="12.2304052"><ele>201.0</ele><time>2026-03-28T11:38:31.04Z</time></trkpt><trkpt lat="42.1650321" lon="12.2304436"><ele>201.0</ele><time>2026-03-28T11:38:32.044Z</time></trkpt><trkpt lat="42.1649322" lon="12.2304253"><ele>201.0</ele><time>2026-03-28T11:38:33.042Z</time></trkpt><trkpt lat="42.1648401" lon="12.2303342"><ele>198.8</ele><time>2026-03-28T11:38:34.052Z</time></trkpt><trkpt lat="42.1647672" lon="12.2302303"><ele>196.60000000000002</ele><time>2026-03-28T11:38:35.04Z</time></trkpt><trkpt lat="42.1646971" lon="12.2301093"><ele>194.4</ele><time>2026-03-28T11:38:36.047Z</time></trkpt><trkpt lat="42.1646343" lon="12.2299812"><ele>192.2</ele><time>2026-03-28T11:38:37.042Z</time></trkpt><trkpt lat="42.1645706" lon="12.2298533"><ele>190.0</ele><time>2026-03-28T11:38:38.075Z</time></trkpt><trkpt lat="42.1645095" lon="12.2297251"><ele>189.8</ele><time>2026-03-28T11:38:39.038Z</time></trkpt><trkpt lat="42.1644478" lon="12.2296009"><ele>189.6</ele><time>2026-03-28T11:38:40.039Z</time></trkpt><trkpt lat="42.1643861" lon="12.2294769"><ele>189.39999999999998</ele><time>2026-03-28T11:38:41.043Z</time></trkpt><trkpt lat="42.1643244" lon="12.2293654"><ele>189.2</ele><time>2026-03-28T11:38:42.041Z</time></trkpt><trkpt lat="42.1642712" lon="12.2292563"><ele>189.0</ele><time>2026-03-28T11:38:43.043Z</time></trkpt><trkpt lat="42.1642231" lon="12.2291509"><ele>189.0</ele><time>2026-03-28T11:38:44.047Z</time></trkpt><trkpt lat="42.1641764" lon="12.2290618"><ele>189.0</ele><time>2026-03-28T11:38:45.038Z</time></trkpt><trkpt lat="42.1641214" lon="12.2289897"><ele>189.0</ele><time>2026-03-28T11:38:46.04Z</time></trkpt><trkpt lat="42.1640725" lon="12.2289114"><ele>189.0</ele><time>2026-03-28T11:38:47.05Z</time></trkpt><trkpt lat="42.1640254" lon="12.22884"><ele>189.0</ele><time>2026-03-28T11:38:48.045Z</time></trkpt><trkpt lat="42.1639895" lon="12.2287662"><ele>189.0</ele><time>2026-03-28T11:38:49.042Z</time></trkpt><trkpt lat="42.1639447" lon="12.2286953"><ele>189.0</ele><time>2026-03-28T11:38:50.045Z</time></trkpt><trkpt lat="42.163902" lon="12.2286282"><ele>188.0</ele><time>2026-03-28T11:38:51.04Z</time></trkpt><trkpt lat="42.1638512" lon="12.2285666"><ele>187.0</ele><time>2026-03-28T11:38:52.044Z</time></trkpt><trkpt lat="42.1637992" lon="12.2285064"><ele>186.0</ele><time>2026-03-28T11:38:53.039Z</time></trkpt><trkpt lat="42.1637545" lon="12.228446"><ele>185.0</ele><time>2026-03-28T11:38:54.043Z</time></trkpt><trkpt lat="42.1636789" lon="12.2283661"><ele>184.0</ele><time>2026-03-28T11:38:56.04Z</time></trkpt><trkpt lat="42.1636215" lon="12.2283141"><ele>183.0</ele><time>2026-03-28T11:38:58.047Z</time></trkpt><trkpt lat="42.1635476" lon="12.2282942"><ele>182.0</ele><time>2026-03-28T11:39:00.051Z</time></trkpt><trkpt lat="42.1634829" lon="12.2282817"><ele>182.0</ele><time>2026-03-28T11:39:02.047Z</time></trkpt><trkpt lat="42.1634081" lon="12.2282633"><ele>182.0</ele><time>2026-03-28T11:39:04.049Z</time></trkpt><trkpt lat="42.1633008" lon="12.2282367"><ele>182.0</ele><time>2026-03-28T11:39:06.041Z</time></trkpt><trkpt lat="42.1632196" lon="12.2282108"><ele>182.0</ele><time>2026-03-28T11:39:08.041Z</time></trkpt><trkpt lat="42.163146" lon="12.2281998"><ele>182.0</ele><time>2026-03-28T11:39:11.039Z</time></trkpt><trkpt lat="42.1631042" lon="12.228342"><ele>181.66666666666666</ele><time>2026-03-28T11:39:13.044Z</time></trkpt><trkpt lat="42.1630921" lon="12.2284529"><ele>181.33333333333331</ele><time>2026-03-28T11:39:14.051Z</time></trkpt><trkpt lat="42.163086" lon="12.2285614"><ele>181.0</ele><time>2026-03-28T11:39:15.047Z</time></trkpt><trkpt lat="42.1630765" lon="12.2286702"><ele>180.66666666666666</ele><time>2026-03-28T11:39:16.051Z</time></trkpt><trkpt lat="42.1630474" lon="12.2287701"><ele>180.33333333333334</ele><time>2026-03-28T11:39:17.05Z</time></trkpt><trkpt lat="42.163033" lon="12.2288715"><ele>180.0</ele><time>2026-03-28T11:39:18.052Z</time></trkpt><trkpt lat="42.1630134" lon="12.2289964"><ele>180.0</ele><time>2026-03-28T11:39:19.039Z</time></trkpt><trkpt lat="42.1629995" lon="12.229125"><ele>180.0</ele><time>2026-03-28T11:39:20.051Z</time></trkpt><trkpt lat="42.1629754" lon="12.2292537"><ele>180.0</ele><time>2026-03-28T11:39:21.041Z</time></trkpt><trkpt lat="42.1629503" lon="12.2293812"><ele>180.0</ele><time>2026-03-28T11:39:22.059Z</time></trkpt><trkpt lat="42.1629168" lon="12.2294997"><ele>180.0</ele><time>2026-03-28T11:39:23.038Z</time></trkpt><trkpt lat="42.1628957" lon="12.2296177"><ele>180.0</ele><time>2026-03-28T11:39:24.047Z</time></trkpt><trkpt lat="42.1628767" lon="12.2297434"><ele>180.0</ele><time>2026-03-28T11:39:25.041Z</time></trkpt><trkpt lat="42.1628586" lon="12.2298763"><ele>180.0</ele><time>2026-03-28T11:39:26.047Z</time></trkpt><trkpt lat="42.1628546" lon="12.2300118"><ele>180.0</ele><time>2026-03-28T11:39:27.044Z</time></trkpt><trkpt lat="42.1628479" lon="12.2301424"><ele>180.0</ele><time>2026-03-28T11:39:28.056Z</time></trkpt><trkpt lat="42.162847" lon="12.2302626"><ele>179.66666666666666</ele><time>2026-03-28T11:39:29.052Z</time></trkpt><trkpt lat="42.1628446" lon="12.2303785"><ele>179.33333333333334</ele><time>2026-03-28T11:39:30.049Z</time></trkpt><trkpt lat="42.1628481" lon="12.2304867"><ele>179.0</ele><time>2026-03-28T11:39:31.049Z</time></trkpt><trkpt lat="42.1628523" lon="12.2305972"><ele>178.66666666666669</ele><time>2026-03-28T11:39:32.048Z</time></trkpt><trkpt lat="42.162854" lon="12.2307054"><ele>178.33333333333334</ele><time>2026-03-28T11:39:33.058Z</time></trkpt><trkpt lat="42.1628556" lon="12.2308275"><ele>178.0</ele><time>2026-03-28T11:39:34.043Z</time></trkpt><trkpt lat="42.1628635" lon="12.2309455"><ele>177.60000000000002</ele><time>2026-03-28T11:39:35.049Z</time></trkpt><trkpt lat="42.1628683" lon="12.2310616"><ele>177.20000000000002</ele><time>2026-03-28T11:39:36.045Z</time></trkpt><trkpt lat="42.1628711" lon="12.2311822"><ele>176.8</ele><time>2026-03-28T11:39:37.039Z</time></trkpt><trkpt lat="42.16287" lon="12.2312961"><ele>176.4</ele><time>2026-03-28T11:39:38.046Z</time></trkpt><trkpt lat="42.162867" lon="12.2314261"><ele>176.0</ele><time>2026-03-28T11:39:39.038Z</time></trkpt><trkpt lat="42.1628527" lon="12.2315729"><ele>176.0</ele><time>2026-03-28T11:39:40.049Z</time></trkpt><trkpt lat="42.1628355" lon="12.2317203"><ele>176.0</ele><time>2026-03-28T11:39:41.042Z</time></trkpt><trkpt lat="42.1628139" lon="12.2318642"><ele>176.0</ele><time>2026-03-28T11:39:42.04Z</time></trkpt><trkpt lat="42.1627927" lon="12.2320109"><ele>176.0</ele><time>2026-03-28T11:39:43.041Z</time></trkpt><trkpt lat="42.1627659" lon="12.2321493"><ele>176.0</ele><time>2026-03-28T11:39:44.049Z</time></trkpt><trkpt lat="42.1627273" lon="12.232267"><ele>176.0</ele><time>2026-03-28T11:39:45.053Z</time></trkpt><trkpt lat="42.1626854" lon="12.2323812"><ele>176.0</ele><time>2026-03-28T11:39:46.045Z</time></trkpt><trkpt lat="42.1626365" lon="12.2325009"><ele>176.0</ele><time>2026-03-28T11:39:47.048Z</time></trkpt><trkpt lat="42.1625794" lon="12.2326164"><ele>176.0</ele><time>2026-03-28T11:39:48.04Z</time></trkpt><trkpt lat="42.1625281" lon="12.2327223"><ele>176.0</ele><time>2026-03-28T11:39:49.046Z</time></trkpt><trkpt lat="42.1624792" lon="12.2328229"><ele>176.0</ele><time>2026-03-28T11:39:50.038Z</time></trkpt><trkpt lat="42.1624273" lon="12.2329268"><ele>176.0</ele><time>2026-03-28T11:39:51.043Z</time></trkpt><trkpt lat="42.1623817" lon="12.2330358"><ele>176.0</ele><time>2026-03-28T11:39:52.044Z</time></trkpt><trkpt lat="42.1623478" lon="12.233158"><ele>176.0</ele><time>2026-03-28T11:39:53.044Z</time></trkpt><trkpt lat="42.1623337" lon="12.233296"><ele>176.0</ele><time>2026-03-28T11:39:54.045Z</time></trkpt><trkpt lat="42.1623294" lon="12.2334255"><ele>175.20000000000002</ele><time>2026-03-28T11:39:55.044Z</time></trkpt><trkpt lat="42.1623242" lon="12.2335478"><ele>174.4</ele><time>2026-03-28T11:39:56.042Z</time></trkpt><trkpt lat="42.16232" lon="12.233683"><ele>173.6</ele><time>2026-03-28T11:39:57.045Z</time></trkpt><trkpt lat="42.1623147" lon="12.2338175"><ele>172.8</ele><time>2026-03-28T11:39:58.051Z</time></trkpt><trkpt lat="42.1622977" lon="12.2339475"><ele>172.0</ele><time>2026-03-28T11:39:59.047Z</time></trkpt><trkpt lat="42.1622657" lon="12.2340814"><ele>171.6</ele><time>2026-03-28T11:40:00.054Z</time></trkpt><trkpt lat="42.162224" lon="12.2342146"><ele>171.2</ele><time>2026-03-28T11:40:01.041Z</time></trkpt><trkpt lat="42.1621852" lon="12.2343619"><ele>170.8</ele><time>2026-03-28T11:40:02.053Z</time></trkpt><trkpt lat="42.1621395" lon="12.2345011"><ele>170.4</ele><time>2026-03-28T11:40:03.04Z</time></trkpt><trkpt lat="42.1620999" lon="12.2346369"><ele>170.0</ele><time>2026-03-28T11:40:04.048Z</time></trkpt><trkpt lat="42.1620573" lon="12.2347572"><ele>170.4</ele><time>2026-03-28T11:40:05.037Z</time></trkpt><trkpt lat="42.1620213" lon="12.2348972"><ele>170.8</ele><time>2026-03-28T11:40:06.053Z</time></trkpt><trkpt lat="42.1619722" lon="12.2350269"><ele>171.2</ele><time>2026-03-28T11:40:07.045Z</time></trkpt><trkpt lat="42.1619139" lon="12.2351471"><ele>171.6</ele><time>2026-03-28T11:40:08.046Z</time></trkpt><trkpt lat="42.1618436" lon="12.2352597"><ele>172.0</ele><time>2026-03-28T11:40:09.043Z</time></trkpt><trkpt lat="42.1617575" lon="12.23536"><ele>172.0</ele><time>2026-03-28T11:40:10.042Z</time></trkpt><trkpt lat="42.161662" lon="12.2354555"><ele>172.0</ele><time>2026-03-28T11:40:11.039Z</time></trkpt><trkpt lat="42.1615648" lon="12.2355431"><ele>172.0</ele><time>2026-03-28T11:40:12.044Z</time></trkpt><trkpt lat="42.1614796" lon="12.2356254"><ele>172.0</ele><time>2026-03-28T11:40:13.049Z</time></trkpt><trkpt lat="42.161393" lon="12.2357089"><ele>172.0</ele><time>2026-03-28T11:40:14.04Z</time></trkpt><trkpt lat="42.1613067" lon="12.2357997"><ele>171.8</ele><time>2026-03-28T11:40:15.053Z</time></trkpt><trkpt lat="42.1612294" lon="12.2358941"><ele>171.6</ele><time>2026-03-28T11:40:16.041Z</time></trkpt><trkpt lat="42.1611606" lon="12.2359899"><ele>171.4</ele><time>2026-03-28T11:40:17.054Z</time></trkpt><trkpt lat="42.1610953" lon="12.236097"><ele>171.20000000000002</ele><time>2026-03-28T11:40:18.055Z</time></trkpt><trkpt lat="42.1610325" lon="12.2362191"><ele>171.0</ele><time>2026-03-28T11:40:19.051Z</time></trkpt><trkpt lat="42.1609645" lon="12.2363395"><ele>171.0</ele><time>2026-03-28T11:40:20.051Z</time></trkpt><trkpt lat="42.1609094" lon="12.2364623"><ele>171.0</ele><time>2026-03-28T11:40:21.054Z</time></trkpt><trkpt lat="42.1608623" lon="12.2365697"><ele>171.0</ele><time>2026-03-28T11:40:22.047Z</time></trkpt><trkpt lat="42.1608161" lon="12.2366692"><ele>171.0</ele><time>2026-03-28T11:40:23.045Z</time></trkpt><trkpt lat="42.1607537" lon="12.2367618"><ele>171.0</ele><time>2026-03-28T11:40:24.041Z</time></trkpt><trkpt lat="42.1606863" lon="12.2368673"><ele>171.4</ele><time>2026-03-28T11:40:25.041Z</time></trkpt><trkpt lat="42.1606189" lon="12.2369682"><ele>171.8</ele><time>2026-03-28T11:40:26.047Z</time></trkpt><trkpt lat="42.1605444" lon="12.2370659"><ele>172.20000000000002</ele><time>2026-03-28T11:40:27.055Z</time></trkpt><trkpt lat="42.1604761" lon="12.2371604"><ele>172.60000000000002</ele><time>2026-03-28T11:40:28.035Z</time></trkpt><trkpt lat="42.1604191" lon="12.237252"><ele>173.0</ele><time>2026-03-28T11:40:29.052Z</time></trkpt><trkpt lat="42.16033" lon="12.2373316"><ele>173.25</ele><time>2026-03-28T11:40:30.036Z</time></trkpt><trkpt lat="42.160233" lon="12.2374133"><ele>173.5</ele><time>2026-03-28T11:40:31.043Z</time></trkpt><trkpt lat="42.1601404" lon="12.2375029"><ele>173.75</ele><time>2026-03-28T11:40:32.044Z</time></trkpt><trkpt lat="42.160042" lon="12.2375965"><ele>174.0</ele><time>2026-03-28T11:40:33.047Z</time></trkpt><trkpt lat="42.1599532" lon="12.2376918"><ele>174.0</ele><time>2026-03-28T11:40:34.042Z</time></trkpt><trkpt lat="42.1598766" lon="12.2377753"><ele>174.0</ele><time>2026-03-28T11:40:35.054Z</time></trkpt><trkpt lat="42.1598012" lon="12.237849"><ele>174.0</ele><time>2026-03-28T11:40:36.041Z</time></trkpt><trkpt lat="42.1597371" lon="12.2379225"><ele>174.0</ele><time>2026-03-28T11:40:37.051Z</time></trkpt><trkpt lat="42.1596678" lon="12.2380118"><ele>174.0</ele><time>2026-03-28T11:40:38.044Z</time></trkpt><trkpt lat="42.1596123" lon="12.2381053"><ele>174.0</ele><time>2026-03-28T11:40:39.047Z</time></trkpt><trkpt lat="42.1595629" lon="12.2382007"><ele>174.0</ele><time>2026-03-28T11:40:40.039Z</time></trkpt><trkpt lat="42.1594981" lon="12.2382885"><ele>174.0</ele><time>2026-03-28T11:40:41.055Z</time></trkpt><trkpt lat="42.1594436" lon="12.2383816"><ele>174.0</ele><time>2026-03-28T11:40:42.052Z</time></trkpt><trkpt lat="42.1593966" lon="12.2384742"><ele>174.0</ele><time>2026-03-28T11:40:43.043Z</time></trkpt><trkpt lat="42.1593546" lon="12.2385693"><ele>174.0</ele><time>2026-03-28T11:40:44.056Z</time></trkpt><trkpt lat="42.1593044" lon="12.238664"><ele>174.0</ele><time>2026-03-28T11:40:45.043Z</time></trkpt><trkpt lat="42.1592502" lon="12.2387685"><ele>174.0</ele><time>2026-03-28T11:40:46.049Z</time></trkpt><trkpt lat="42.1592111" lon="12.23887"><ele>174.0</ele><time>2026-03-28T11:40:47.042Z</time></trkpt><trkpt lat="42.1591812" lon="12.2389751"><ele>174.0</ele><time>2026-03-28T11:40:48.041Z</time></trkpt><trkpt lat="42.1591272" lon="12.2390767"><ele>174.0</ele><time>2026-03-28T11:40:49.039Z</time></trkpt><trkpt lat="42.1590934" lon="12.239183"><ele>174.0</ele><time>2026-03-28T11:40:50.044Z</time></trkpt><trkpt lat="42.1590593" lon="12.2392987"><ele>173.66666666666666</ele><time>2026-03-28T11:40:51.04Z</time></trkpt><trkpt lat="42.1590214" lon="12.2394203"><ele>173.33333333333334</ele><time>2026-03-28T11:40:52.048Z</time></trkpt><trkpt lat="42.1589942" lon="12.2395329"><ele>173.0</ele><time>2026-03-28T11:40:53.04Z</time></trkpt><trkpt lat="42.1589733" lon="12.2396366"><ele>172.66666666666669</ele><time>2026-03-28T11:40:54.047Z</time></trkpt><trkpt lat="42.1589376" lon="12.2397384"><ele>172.33333333333334</ele><time>2026-03-28T11:40:55.039Z</time></trkpt><trkpt lat="42.1589135" lon="12.2398431"><ele>172.0</ele><time>2026-03-28T11:40:56.041Z</time></trkpt><trkpt lat="42.1588983" lon="12.2399568"><ele>172.0</ele><time>2026-03-28T11:40:57.053Z</time></trkpt><trkpt lat="42.1588718" lon="12.2400598"><ele>172.0</ele><time>2026-03-28T11:40:58.048Z</time></trkpt><trkpt lat="42.1588386" lon="12.2401775"><ele>172.0</ele><time>2026-03-28T11:40:59.052Z</time></trkpt><trkpt lat="42.1588036" lon="12.2402911"><ele>172.0</ele><time>2026-03-28T11:41:00.038Z</time></trkpt><trkpt lat="42.1587659" lon="12.2403979"><ele>172.0</ele><time>2026-03-28T11:41:01.055Z</time></trkpt><trkpt lat="42.1587264" lon="12.2405111"><ele>172.0</ele><time>2026-03-28T11:41:02.046Z</time></trkpt><trkpt lat="42.1586926" lon="12.2406251"><ele>172.33333333333334</ele><time>2026-03-28T11:41:03.052Z</time></trkpt><trkpt lat="42.1586417" lon="12.240739"><ele>172.66666666666669</ele><time>2026-03-28T11:41:04.04Z</time></trkpt><trkpt lat="42.1585956" lon="12.2408359"><ele>173.0</ele><time>2026-03-28T11:41:05.046Z</time></trkpt><trkpt lat="42.1585472" lon="12.2409282"><ele>173.33333333333334</ele><time>2026-03-28T11:41:06.051Z</time></trkpt><trkpt lat="42.1585018" lon="12.2410222"><ele>173.66666666666666</ele><time>2026-03-28T11:41:07.038Z</time></trkpt><trkpt lat="42.1584464" lon="12.2411052"><ele>174.0</ele><time>2026-03-28T11:41:08.06Z</time></trkpt><trkpt lat="42.1583936" lon="12.2411924"><ele>174.0</ele><time>2026-03-28T11:41:09.044Z</time></trkpt><trkpt lat="42.158344" lon="12.2412834"><ele>174.0</ele><time>2026-03-28T11:41:10.044Z</time></trkpt><trkpt lat="42.158285" lon="12.241373"><ele>174.0</ele><time>2026-03-28T11:41:11.041Z</time></trkpt><trkpt lat="42.1582305" lon="12.2414669"><ele>174.0</ele><time>2026-03-28T11:41:12.049Z</time></trkpt><trkpt lat="42.1581732" lon="12.2415655"><ele>174.0</ele><time>2026-03-28T11:41:13.042Z</time></trkpt><trkpt lat="42.1581324" lon="12.2416606"><ele>174.0</ele><time>2026-03-28T11:41:14.048Z</time></trkpt><trkpt lat="42.1581012" lon="12.2417581"><ele>174.16666666666666</ele><time>2026-03-28T11:41:15.041Z</time></trkpt><trkpt lat="42.158067" lon="12.2418476"><ele>174.33333333333334</ele><time>2026-03-28T11:41:16.046Z</time></trkpt><trkpt lat="42.1580328" lon="12.2419523"><ele>174.5</ele><time>2026-03-28T11:41:17.047Z</time></trkpt><trkpt lat="42.1580066" lon="12.242062"><ele>174.66666666666669</ele><time>2026-03-28T11:41:18.041Z</time></trkpt><trkpt lat="42.1579875" lon="12.2421617"><ele>174.83333333333334</ele><time>2026-03-28T11:41:19.052Z</time></trkpt><trkpt lat="42.1579736" lon="12.2422541"><ele>175.0</ele><time>2026-03-28T11:41:20.041Z</time></trkpt><trkpt lat="42.1579457" lon="12.2423435"><ele>175.0</ele><time>2026-03-28T11:41:21.042Z</time></trkpt><trkpt lat="42.1579024" lon="12.2424347"><ele>175.0</ele><time>2026-03-28T11:41:22.045Z</time></trkpt><trkpt lat="42.1578517" lon="12.2425247"><ele>175.0</ele><time>2026-03-28T11:41:23.05Z</time></trkpt><trkpt lat="42.1578062" lon="12.2426097"><ele>175.0</ele><time>2026-03-28T11:41:24.037Z</time></trkpt><trkpt lat="42.1577665" lon="12.2426935"><ele>175.0</ele><time>2026-03-28T11:41:25.05Z</time></trkpt><trkpt lat="42.1577227" lon="12.2427807"><ele>175.0</ele><time>2026-03-28T11:41:26.045Z</time></trkpt><trkpt lat="42.1576789" lon="12.2428728"><ele>175.0</ele><time>2026-03-28T11:41:27.047Z</time></trkpt><trkpt lat="42.157631" lon="12.2429629"><ele>175.0</ele><time>2026-03-28T11:41:28.053Z</time></trkpt><trkpt lat="42.1575779" lon="12.243053"><ele>175.0</ele><time>2026-03-28T11:41:29.046Z</time></trkpt><trkpt lat="42.1575227" lon="12.2431473"><ele>175.0</ele><time>2026-03-28T11:41:30.048Z</time></trkpt><trkpt lat="42.1574681" lon="12.2432363"><ele>175.0</ele><time>2026-03-28T11:41:31.041Z</time></trkpt><trkpt lat="42.1574208" lon="12.2433213"><ele>175.0</ele><time>2026-03-28T11:41:32.051Z</time></trkpt><trkpt lat="42.1573894" lon="12.2434021"><ele>174.16666666666669</ele><time>2026-03-28T11:41:33.048Z</time></trkpt><trkpt lat="42.1573349" lon="12.243525"><ele>173.33333333333334</ele><time>2026-03-28T11:41:35.046Z</time></trkpt><trkpt lat="42.1572687" lon="12.2436369"><ele>172.5</ele><time>2026-03-28T11:41:37.05Z</time></trkpt><trkpt lat="42.1572113" lon="12.2437552"><ele>171.66666666666666</ele><time>2026-03-28T11:41:39.044Z</time></trkpt><trkpt lat="42.1571683" lon="12.2438279"><ele>170.83333333333331</ele><time>2026-03-28T11:41:40.04Z</time></trkpt><trkpt lat="42.1571286" lon="12.2438941"><ele>170.0</ele><time>2026-03-28T11:41:41.04Z</time></trkpt><trkpt lat="42.1570829" lon="12.243963"><ele>170.16666666666666</ele><time>2026-03-28T11:41:42.048Z</time></trkpt><trkpt lat="42.1570384" lon="12.2440309"><ele>170.33333333333331</ele><time>2026-03-28T11:41:43.037Z</time></trkpt><trkpt lat="42.1569988" lon="12.2441102"><ele>170.5</ele><time>2026-03-28T11:41:44.04Z</time></trkpt><trkpt lat="42.1569622" lon="12.2441887"><ele>170.66666666666666</ele><time>2026-03-28T11:41:45.042Z</time></trkpt><trkpt lat="42.1569033" lon="12.244322"><ele>170.83333333333334</ele><time>2026-03-28T11:41:47.05Z</time></trkpt><trkpt lat="42.1568494" lon="12.2444563"><ele>171.0</ele><time>2026-03-28T11:41:49.041Z</time></trkpt><trkpt lat="42.1567917" lon="12.2445876"><ele>170.99999999999997</ele><time>2026-03-28T11:41:51.043Z</time></trkpt><trkpt lat="42.1567507" lon="12.2446646"><ele>171.0</ele><time>2026-03-28T11:41:52.05Z</time></trkpt><trkpt lat="42.1567038" lon="12.24474"><ele>171.0</ele><time>2026-03-28T11:41:53.052Z</time></trkpt><trkpt lat="42.1566632" lon="12.2448125"><ele>171.0</ele><time>2026-03-28T11:41:54.044Z</time></trkpt><trkpt lat="42.1566245" lon="12.2448866"><ele>171.0</ele><time>2026-03-28T11:41:55.051Z</time></trkpt><trkpt lat="42.1565903" lon="12.2449619"><ele>170.99999999999997</ele><time>2026-03-28T11:41:56.046Z</time></trkpt><trkpt lat="42.1565531" lon="12.2450309"><ele>171.0</ele><time>2026-03-28T11:41:57.049Z</time></trkpt><trkpt lat="42.1564974" lon="12.2451014"><ele>170.66666666666666</ele><time>2026-03-28T11:41:58.058Z</time></trkpt><trkpt lat="42.1564297" lon="12.2451925"><ele>170.33333333333334</ele><time>2026-03-28T11:42:00.048Z</time></trkpt><trkpt lat="42.1563811" lon="12.2452718"><ele>170.0</ele><time>2026-03-28T11:42:09.044Z</time></trkpt><trkpt lat="42.1563535" lon="12.2453824"><ele>169.66666666666669</ele><time>2026-03-28T11:42:12.046Z</time></trkpt><trkpt lat="42.1563284" lon="12.2454843"><ele>169.33333333333334</ele><time>2026-03-28T11:42:14.052Z</time></trkpt><trkpt lat="42.156274" lon="12.2455867"><ele>169.0</ele><time>2026-03-28T11:42:16.053Z</time></trkpt><trkpt lat="42.1562087" lon="12.2457086"><ele>169.0</ele><time>2026-03-28T11:42:18.048Z</time></trkpt><trkpt lat="42.156165" lon="12.2457741"><ele>169.0</ele><time>2026-03-28T11:42:19.047Z</time></trkpt><trkpt lat="42.1560793" lon="12.245914"><ele>169.0</ele><time>2026-03-28T11:42:21.047Z</time></trkpt><trkpt lat="42.1560202" lon="12.2459887"><ele>169.0</ele><time>2026-03-28T11:42:22.039Z</time></trkpt><trkpt lat="42.155956" lon="12.246064"><ele>169.0</ele><time>2026-03-28T11:42:23.045Z</time></trkpt><trkpt lat="42.1558832" lon="12.246132"><ele>169.0</ele><time>2026-03-28T11:42:24.042Z</time></trkpt><trkpt lat="42.1557707" lon="12.2461522"><ele>169.0</ele><time>2026-03-28T11:42:26.038Z</time></trkpt><trkpt lat="42.1556961" lon="12.2461399"><ele>169.0</ele><time>2026-03-28T11:42:28.043Z</time></trkpt><trkpt lat="42.1556279" lon="12.2461081"><ele>169.0</ele><time>2026-03-28T11:42:31.044Z</time></trkpt><trkpt lat="42.1555495" lon="12.246091"><ele>169.0</ele><time>2026-03-28T11:42:33.038Z</time></trkpt><trkpt lat="42.1554435" lon="12.246138"><ele>168.5</ele><time>2026-03-28T11:42:35.038Z</time></trkpt><trkpt lat="42.1553439" lon="12.2461378"><ele>168.0</ele><time>2026-03-28T11:42:37.047Z</time></trkpt><trkpt lat="42.1552548" lon="12.2461043"><ele>167.5</ele><time>2026-03-28T11:42:39.043Z</time></trkpt><trkpt lat="42.1551662" lon="12.2460838"><ele>167.0</ele><time>2026-03-28T11:42:41.038Z</time></trkpt><trkpt lat="42.1550991" lon="12.2460796"><ele>166.5</ele><time>2026-03-28T11:44:02.04Z</time></trkpt><trkpt lat="42.1550762" lon="12.2461809"><ele>166.0</ele><time>2026-03-28T11:44:35.044Z</time></trkpt><trkpt lat="42.1550351" lon="12.2462996"><ele>166.0</ele><time>2026-03-28T11:44:37.038Z</time></trkpt><trkpt lat="42.1549979" lon="12.2463873"><ele>166.0</ele><time>2026-03-28T11:44:38.047Z</time></trkpt><trkpt lat="42.1549493" lon="12.2464999"><ele>166.0</ele><time>2026-03-28T11:44:40.049Z</time></trkpt><trkpt lat="42.1548851" lon="12.2466191"><ele>166.0</ele><time>2026-03-28T11:44:42.05Z</time></trkpt><trkpt lat="42.1548243" lon="12.2467275"><ele>166.0</ele><time>2026-03-28T11:44:44.043Z</time></trkpt><trkpt lat="42.1547732" lon="12.246849"><ele>165.5</ele><time>2026-03-28T11:44:46.052Z</time></trkpt><trkpt lat="42.1547378" lon="12.2469225"><ele>165.0</ele><time>2026-03-28T11:44:47.043Z</time></trkpt><trkpt lat="42.1547038" lon="12.2470068"><ele>164.5</ele><time>2026-03-28T11:44:48.039Z</time></trkpt><trkpt lat="42.15466" lon="12.247161"><ele>164.0</ele><time>2026-03-28T11:44:50.038Z</time></trkpt><trkpt lat="42.1546331" lon="12.2472428"><ele>163.5</ele><time>2026-03-28T11:44:51.044Z</time></trkpt><trkpt lat="42.1545851" lon="12.2473892"><ele>163.0</ele><time>2026-03-28T11:44:53.042Z</time></trkpt><trkpt lat="42.1545229" lon="12.2475375"><ele>163.0</ele><time>2026-03-28T11:44:55.041Z</time></trkpt><trkpt lat="42.1544854" lon="12.2476735"><ele>163.0</ele><time>2026-03-28T11:44:57.046Z</time></trkpt><trkpt lat="42.1544837" lon="12.2478115"><ele>163.0</ele><time>2026-03-28T11:44:59.044Z</time></trkpt><trkpt lat="42.1544812" lon="12.2479519"><ele>163.0</ele><time>2026-03-28T11:45:01.042Z</time></trkpt><trkpt lat="42.154492" lon="12.248108"><ele>163.0</ele><time>2026-03-28T11:45:03.045Z</time></trkpt><trkpt lat="42.1545136" lon="12.2482466"><ele>162.5</ele><time>2026-03-28T11:45:05.05Z</time></trkpt><trkpt lat="42.1545431" lon="12.2483949"><ele>162.0</ele><time>2026-03-28T11:45:07.042Z</time></trkpt><trkpt lat="42.1545974" lon="12.2485413"><ele>161.5</ele><time>2026-03-28T11:45:09.039Z</time></trkpt><trkpt lat="42.1546776" lon="12.2486586"><ele>161.0</ele><time>2026-03-28T11:45:11.039Z</time></trkpt><trkpt lat="42.1547791" lon="12.2487466"><ele>161.0</ele><time>2026-03-28T11:45:13.048Z</time></trkpt><trkpt lat="42.1548418" lon="12.2487651"><ele>161.0</ele><time>2026-03-28T11:45:14.047Z</time></trkpt><trkpt lat="42.1549619" lon="12.2487896"><ele>161.0</ele><time>2026-03-28T11:45:16.049Z</time></trkpt><trkpt lat="42.1550806" lon="12.248841"><ele>161.0</ele><time>2026-03-28T11:45:18.05Z</time></trkpt><trkpt lat="42.155192" lon="12.2488916"><ele>161.0</ele><time>2026-03-28T11:45:20.045Z</time></trkpt><trkpt lat="42.1552902" lon="12.2489422"><ele>161.83333333333331</ele><time>2026-03-28T11:45:22.046Z</time></trkpt><trkpt lat="42.1553981" lon="12.2489893"><ele>162.66666666666666</ele><time>2026-03-28T11:45:24.036Z</time></trkpt><trkpt lat="42.1555121" lon="12.2490665"><ele>163.5</ele><time>2026-03-28T11:45:26.041Z</time></trkpt><trkpt lat="42.1555631" lon="12.2491267"><ele>164.33333333333334</ele><time>2026-03-28T11:45:27.058Z</time></trkpt><trkpt lat="42.1556284" lon="12.2491711"><ele>165.16666666666669</ele><time>2026-03-28T11:45:28.042Z</time></trkpt><trkpt lat="42.155684" lon="12.2492172"><ele>166.0</ele><time>2026-03-28T11:45:29.045Z</time></trkpt><trkpt lat="42.1557988" lon="12.2492655"><ele>166.42857142857142</ele><time>2026-03-28T11:45:31.056Z</time></trkpt><trkpt lat="42.1558631" lon="12.2492846"><ele>166.85714285714286</ele><time>2026-03-28T11:45:32.039Z</time></trkpt><trkpt lat="42.1559328" lon="12.2493023"><ele>167.28571428571428</ele><time>2026-03-28T11:45:33.038Z</time></trkpt><trkpt lat="42.1559942" lon="12.2493229"><ele>167.71428571428572</ele><time>2026-03-28T11:45:34.039Z</time></trkpt><trkpt lat="42.1560609" lon="12.2493245"><ele>168.14285714285714</ele><time>2026-03-28T11:45:35.052Z</time></trkpt><trkpt lat="42.1561525" lon="12.249355"><ele>168.57142857142858</ele><time>2026-03-28T11:45:37.046Z</time></trkpt><trkpt lat="42.1562383" lon="12.249355"><ele>169.0</ele><time>2026-03-28T11:45:39.044Z</time></trkpt><trkpt lat="42.1563138" lon="12.2493603"><ele>169.0</ele><time>2026-03-28T11:45:41.039Z</time></trkpt><trkpt lat="42.1563984" lon="12.2493791"><ele>169.0</ele><time>2026-03-28T11:45:43.043Z</time></trkpt><trkpt lat="42.1565013" lon="12.2494096"><ele>169.0</ele><time>2026-03-28T11:45:45.047Z</time></trkpt><trkpt lat="42.156565" lon="12.2494373"><ele>169.0</ele><time>2026-03-28T11:45:46.039Z</time></trkpt><trkpt lat="42.1566287" lon="12.249459"><ele>169.0</ele><time>2026-03-28T11:45:47.054Z</time></trkpt><trkpt lat="42.1566976" lon="12.2494729"><ele>169.0</ele><time>2026-03-28T11:45:48.046Z</time></trkpt><trkpt lat="42.1567648" lon="12.2494965"><ele>169.33333333333334</ele><time>2026-03-28T11:45:49.048Z</time></trkpt><trkpt lat="42.1568362" lon="12.2495344"><ele>169.66666666666669</ele><time>2026-03-28T11:45:50.041Z</time></trkpt><trkpt lat="42.1569093" lon="12.2495703"><ele>170.0</ele><time>2026-03-28T11:45:51.041Z</time></trkpt><trkpt lat="42.1569755" lon="12.2496106"><ele>170.33333333333334</ele><time>2026-03-28T11:45:52.043Z</time></trkpt><trkpt lat="42.1570467" lon="12.2496401"><ele>170.66666666666666</ele><time>2026-03-28T11:45:53.048Z</time></trkpt><trkpt lat="42.1571482" lon="12.2496686"><ele>171.0</ele><time>2026-03-28T11:45:55.045Z</time></trkpt><trkpt lat="42.1572382" lon="12.2496956"><ele>171.0</ele><time>2026-03-28T11:45:57.045Z</time></trkpt><trkpt lat="42.1573056" lon="12.2497288"><ele>171.0</ele><time>2026-03-28T11:45:58.038Z</time></trkpt><trkpt lat="42.157388" lon="12.2497628"><ele>171.0</ele><time>2026-03-28T11:45:59.043Z</time></trkpt><trkpt lat="42.1574755" lon="12.249807"><ele>171.0</ele><time>2026-03-28T11:46:00.038Z</time></trkpt><trkpt lat="42.1575808" lon="12.2498569"><ele>171.0</ele><time>2026-03-28T11:46:01.041Z</time></trkpt><trkpt lat="42.1576901" lon="12.2499196"><ele>170.5</ele><time>2026-03-28T11:46:02.04Z</time></trkpt><trkpt lat="42.1578003" lon="12.2499808"><ele>170.0</ele><time>2026-03-28T11:46:03.052Z</time></trkpt><trkpt lat="42.1579039" lon="12.2500441"><ele>169.5</ele><time>2026-03-28T11:46:04.048Z</time></trkpt><trkpt lat="42.1580109" lon="12.2500999"><ele>169.0</ele><time>2026-03-28T11:46:05.045Z</time></trkpt><trkpt lat="42.1581167" lon="12.2501596"><ele>169.39999999999998</ele><time>2026-03-28T11:46:06.043Z</time></trkpt><trkpt lat="42.1582227" lon="12.2502304"><ele>169.8</ele><time>2026-03-28T11:46:07.048Z</time></trkpt><trkpt lat="42.15832" lon="12.2503036"><ele>170.2</ele><time>2026-03-28T11:46:08.063Z</time></trkpt><trkpt lat="42.1584191" lon="12.2503702"><ele>170.60000000000002</ele><time>2026-03-28T11:46:09.04Z</time></trkpt><trkpt lat="42.1585097" lon="12.250432"><ele>171.0</ele><time>2026-03-28T11:46:10.05Z</time></trkpt><trkpt lat="42.158596" lon="12.2504995"><ele>171.0</ele><time>2026-03-28T11:46:11.037Z</time></trkpt><trkpt lat="42.1586862" lon="12.2505743"><ele>171.0</ele><time>2026-03-28T11:46:12.046Z</time></trkpt><trkpt lat="42.1587689" lon="12.2506575"><ele>171.0</ele><time>2026-03-28T11:46:13.043Z</time></trkpt><trkpt lat="42.1588548" lon="12.2507534"><ele>171.0</ele><time>2026-03-28T11:46:14.053Z</time></trkpt><trkpt lat="42.1589519" lon="12.2508617"><ele>171.0</ele><time>2026-03-28T11:46:15.048Z</time></trkpt><trkpt lat="42.1590468" lon="12.250982"><ele>170.75</ele><time>2026-03-28T11:46:16.04Z</time></trkpt><trkpt lat="42.1591427" lon="12.2511045"><ele>170.5</ele><time>2026-03-28T11:46:17.049Z</time></trkpt><trkpt lat="42.1592416" lon="12.2512246"><ele>170.25</ele><time>2026-03-28T11:46:18.04Z</time></trkpt><trkpt lat="42.1593386" lon="12.2513393"><ele>170.0</ele><time>2026-03-28T11:46:19.05Z</time></trkpt><trkpt lat="42.159438" lon="12.2514444"><ele>170.25</ele><time>2026-03-28T11:46:20.046Z</time></trkpt><trkpt lat="42.1595439" lon="12.2515347"><ele>170.5</ele><time>2026-03-28T11:46:21.039Z</time></trkpt><trkpt lat="42.1596635" lon="12.2516125"><ele>170.75</ele><time>2026-03-28T11:46:22.045Z</time></trkpt><trkpt lat="42.1597805" lon="12.2517019"><ele>171.0</ele><time>2026-03-28T11:46:23.051Z</time></trkpt><trkpt lat="42.1599022" lon="12.2518032"><ele>171.0</ele><time>2026-03-28T11:46:24.045Z</time></trkpt><trkpt lat="42.1600245" lon="12.2519072"><ele>171.0</ele><time>2026-03-28T11:46:25.053Z</time></trkpt><trkpt lat="42.1601342" lon="12.2520147"><ele>171.0</ele><time>2026-03-28T11:46:26.038Z</time></trkpt><trkpt lat="42.160255" lon="12.2521366"><ele>171.0</ele><time>2026-03-28T11:46:27.044Z</time></trkpt><trkpt lat="42.1603651" lon="12.2522614"><ele>170.25</ele><time>2026-03-28T11:46:28.043Z</time></trkpt><trkpt lat="42.1604596" lon="12.2523916"><ele>169.5</ele><time>2026-03-28T11:46:29.046Z</time></trkpt><trkpt lat="42.1605527" lon="12.2524927"><ele>168.75</ele><time>2026-03-28T11:46:30.055Z</time></trkpt><trkpt lat="42.160643" lon="12.2526063"><ele>168.0</ele><time>2026-03-28T11:46:31.04Z</time></trkpt><trkpt lat="42.160727" lon="12.2527344"><ele>168.0</ele><time>2026-03-28T11:46:32.041Z</time></trkpt><trkpt lat="42.1608363" lon="12.2528352"><ele>168.0</ele><time>2026-03-28T11:46:33.048Z</time></trkpt><trkpt lat="42.1609567" lon="12.2529195"><ele>168.0</ele><time>2026-03-28T11:46:34.038Z</time></trkpt><trkpt lat="42.1610857" lon="12.2529813"><ele>168.0</ele><time>2026-03-28T11:46:35.053Z</time></trkpt><trkpt lat="42.1612004" lon="12.2530395"><ele>168.0</ele><time>2026-03-28T11:46:36.043Z</time></trkpt><trkpt lat="42.1613205" lon="12.2530908"><ele>168.0</ele><time>2026-03-28T11:46:37.049Z</time></trkpt><trkpt lat="42.1614575" lon="12.2531577"><ele>168.0</ele><time>2026-03-28T11:46:38.045Z</time></trkpt><trkpt lat="42.1616349" lon="12.2532312"><ele>168.33333333333334</ele><time>2026-03-28T11:46:39.038Z</time></trkpt><trkpt lat="42.1618228" lon="12.2532913"><ele>168.66666666666669</ele><time>2026-03-28T11:46:40.05Z</time></trkpt><trkpt lat="42.1620085" lon="12.2533622"><ele>169.0</ele><time>2026-03-28T11:46:41.049Z</time></trkpt><trkpt lat="42.1621898" lon="12.2534323"><ele>169.0</ele><time>2026-03-28T11:46:42.04Z</time></trkpt><trkpt lat="42.1623599" lon="12.253501"><ele>169.0</ele><time>2026-03-28T11:46:43.053Z</time></trkpt><trkpt lat="42.1625336" lon="12.2535797"><ele>169.0</ele><time>2026-03-28T11:46:44.036Z</time></trkpt><trkpt lat="42.1626747" lon="12.2536698"><ele>169.25</ele><time>2026-03-28T11:46:45.049Z</time></trkpt><trkpt lat="42.1627936" lon="12.2537881"><ele>169.5</ele><time>2026-03-28T11:46:46.038Z</time></trkpt><trkpt lat="42.1628939" lon="12.2539028"><ele>169.75</ele><time>2026-03-28T11:46:47.043Z</time></trkpt><trkpt lat="42.1629866" lon="12.2540437"><ele>170.0</ele><time>2026-03-28T11:46:48.046Z</time></trkpt><trkpt lat="42.1630522" lon="12.2542375"><ele>168.66666666666666</ele><time>2026-03-28T11:46:49.041Z</time></trkpt><trkpt lat="42.163122" lon="12.2544166"><ele>167.33333333333334</ele><time>2026-03-28T11:46:50.041Z</time></trkpt><trkpt lat="42.1631357" lon="12.2546356"><ele>166.0</ele><time>2026-03-28T11:46:51.049Z</time></trkpt><trkpt lat="42.163158" lon="12.2548634"><ele>165.33333333333334</ele><time>2026-03-28T11:46:52.042Z</time></trkpt><trkpt lat="42.1631716" lon="12.2550769"><ele>164.66666666666666</ele><time>2026-03-28T11:46:53.045Z</time></trkpt><trkpt lat="42.1631756" lon="12.2552755"><ele>164.0</ele><time>2026-03-28T11:46:54.045Z</time></trkpt><trkpt lat="42.1631708" lon="12.2554823"><ele>164.0</ele><time>2026-03-28T11:46:55.044Z</time></trkpt><trkpt lat="42.1631451" lon="12.255664"><ele>164.0</ele><time>2026-03-28T11:46:56.046Z</time></trkpt><trkpt lat="42.1631014" lon="12.2558615"><ele>164.0</ele><time>2026-03-28T11:46:57.038Z</time></trkpt><trkpt lat="42.1630671" lon="12.2560957"><ele>164.0</ele><time>2026-03-28T11:46:58.056Z</time></trkpt><trkpt lat="42.1630295" lon="12.2563357"><ele>164.0</ele><time>2026-03-28T11:46:59.043Z</time></trkpt><trkpt lat="42.1630127" lon="12.2565711"><ele>164.0</ele><time>2026-03-28T11:47:00.043Z</time></trkpt><trkpt lat="42.1629729" lon="12.2568077"><ele>164.0</ele><time>2026-03-28T11:47:01.037Z</time></trkpt><trkpt lat="42.162959" lon="12.2570401"><ele>164.0</ele><time>2026-03-28T11:47:02.05Z</time></trkpt><trkpt lat="42.1629584" lon="12.2572705"><ele>164.0</ele><time>2026-03-28T11:47:03.041Z</time></trkpt><trkpt lat="42.1629474" lon="12.2575041"><ele>164.0</ele><time>2026-03-28T11:47:04.048Z</time></trkpt><trkpt lat="42.162953" lon="12.2577256"><ele>164.0</ele><time>2026-03-28T11:47:05.039Z</time></trkpt><trkpt lat="42.1629856" lon="12.2579412"><ele>164.0</ele><time>2026-03-28T11:47:06.05Z</time></trkpt><trkpt lat="42.1630412" lon="12.2581726"><ele>164.0</ele><time>2026-03-28T11:47:07.041Z</time></trkpt><trkpt lat="42.1631082" lon="12.2583918"><ele>164.0</ele><time>2026-03-28T11:47:08.049Z</time></trkpt><trkpt lat="42.1631734" lon="12.2586038"><ele>164.0</ele><time>2026-03-28T11:47:09.043Z</time></trkpt><trkpt lat="42.1632042" lon="12.2588135"><ele>163.66666666666666</ele><time>2026-03-28T11:47:10.049Z</time></trkpt><trkpt lat="42.1632193" lon="12.2590292"><ele>163.33333333333334</ele><time>2026-03-28T11:47:11.042Z</time></trkpt><trkpt lat="42.1631954" lon="12.2592278"><ele>163.0</ele><time>2026-03-28T11:47:12.045Z</time></trkpt><trkpt lat="42.1631695" lon="12.2594423"><ele>163.0</ele><time>2026-03-28T11:47:13.042Z</time></trkpt><trkpt lat="42.1631148" lon="12.2596444"><ele>163.0</ele><time>2026-03-28T11:47:14.047Z</time></trkpt><trkpt lat="42.1630717" lon="12.2598327"><ele>163.0</ele><time>2026-03-28T11:47:15.046Z</time></trkpt><trkpt lat="42.163008" lon="12.260024"><ele>163.5</ele><time>2026-03-28T11:47:16.046Z</time></trkpt><trkpt lat="42.1629699" lon="12.2602093"><ele>164.0</ele><time>2026-03-28T11:47:17.048Z</time></trkpt><trkpt lat="42.1629201" lon="12.2603739"><ele>164.5</ele><time>2026-03-28T11:47:18.041Z</time></trkpt><trkpt lat="42.1628789" lon="12.2605391"><ele>165.0</ele><time>2026-03-28T11:47:19.039Z</time></trkpt><trkpt lat="42.162837" lon="12.2606893"><ele>165.6</ele><time>2026-03-28T11:47:20.05Z</time></trkpt><trkpt lat="42.1627819" lon="12.2608157"><ele>166.2</ele><time>2026-03-28T11:47:21.036Z</time></trkpt><trkpt lat="42.1627234" lon="12.2609357"><ele>166.8</ele><time>2026-03-28T11:47:22.051Z</time></trkpt><trkpt lat="42.1626739" lon="12.2610712"><ele>167.4</ele><time>2026-03-28T11:47:23.041Z</time></trkpt><trkpt lat="42.1626203" lon="12.2612097"><ele>168.0</ele><time>2026-03-28T11:47:24.041Z</time></trkpt><trkpt lat="42.162558" lon="12.2613589"><ele>168.25</ele><time>2026-03-28T11:47:25.038Z</time></trkpt><trkpt lat="42.1624938" lon="12.2615067"><ele>168.5</ele><time>2026-03-28T11:47:26.045Z</time></trkpt><trkpt lat="42.1624344" lon="12.2616567"><ele>168.75</ele><time>2026-03-28T11:47:27.056Z</time></trkpt><trkpt lat="42.1623729" lon="12.2617993"><ele>169.0</ele><time>2026-03-28T11:47:28.039Z</time></trkpt><trkpt lat="42.1623092" lon="12.2619314"><ele>169.0</ele><time>2026-03-28T11:47:29.047Z</time></trkpt><trkpt lat="42.1622429" lon="12.2620735"><ele>169.0</ele><time>2026-03-28T11:47:30.038Z</time></trkpt><trkpt lat="42.1621694" lon="12.2622133"><ele>169.0</ele><time>2026-03-28T11:47:31.042Z</time></trkpt><trkpt lat="42.1620929" lon="12.26235"><ele>169.0</ele><time>2026-03-28T11:47:32.045Z</time></trkpt><trkpt lat="42.1620149" lon="12.2624785"><ele>169.0</ele><time>2026-03-28T11:47:33.04Z</time></trkpt><trkpt lat="42.1619423" lon="12.2626019"><ele>169.0</ele><time>2026-03-28T11:47:34.044Z</time></trkpt><trkpt lat="42.1618694" lon="12.2627199"><ele>169.0</ele><time>2026-03-28T11:47:35.047Z</time></trkpt><trkpt lat="42.1618019" lon="12.2628349"><ele>169.0</ele><time>2026-03-28T11:47:36.04Z</time></trkpt><trkpt lat="42.1617367" lon="12.2629446"><ele>169.0</ele><time>2026-03-28T11:47:37.048Z</time></trkpt><trkpt lat="42.1616654" lon="12.2630414"><ele>168.6</ele><time>2026-03-28T11:47:38.047Z</time></trkpt><trkpt lat="42.1615879" lon="12.2631315"><ele>168.2</ele><time>2026-03-28T11:47:39.04Z</time></trkpt><trkpt lat="42.1615085" lon="12.2632147"><ele>167.79999999999998</ele><time>2026-03-28T11:47:40.047Z</time></trkpt><trkpt lat="42.1614232" lon="12.2632893"><ele>167.39999999999998</ele><time>2026-03-28T11:47:41.036Z</time></trkpt><trkpt lat="42.1613308" lon="12.2633648"><ele>167.0</ele><time>2026-03-28T11:47:42.045Z</time></trkpt><trkpt lat="42.1612359" lon="12.2634458"><ele>167.0</ele><time>2026-03-28T11:47:43.039Z</time></trkpt><trkpt lat="42.1611381" lon="12.2635337"><ele>167.0</ele><time>2026-03-28T11:47:44.047Z</time></trkpt><trkpt lat="42.1610251" lon="12.2636289"><ele>167.0</ele><time>2026-03-28T11:47:45.039Z</time></trkpt><trkpt lat="42.1608901" lon="12.2637463"><ele>167.0</ele><time>2026-03-28T11:47:46.047Z</time></trkpt><trkpt lat="42.1607255" lon="12.2638656"><ele>167.0</ele><time>2026-03-28T11:47:47.04Z</time></trkpt><trkpt lat="42.1605812" lon="12.263975"><ele>167.0</ele><time>2026-03-28T11:47:48.058Z</time></trkpt><trkpt lat="42.1604539" lon="12.2640565"><ele>167.0</ele><time>2026-03-28T11:47:49.037Z</time></trkpt><trkpt lat="42.160337" lon="12.2641545"><ele>167.0</ele><time>2026-03-28T11:47:50.044Z</time></trkpt><trkpt lat="42.1602328" lon="12.264251"><ele>167.0</ele><time>2026-03-28T11:47:51.039Z</time></trkpt><trkpt lat="42.1601297" lon="12.2643438"><ele>167.0</ele><time>2026-03-28T11:47:52.057Z</time></trkpt><trkpt lat="42.1600192" lon="12.2644272"><ele>167.0</ele><time>2026-03-28T11:47:53.053Z</time></trkpt><trkpt lat="42.1599169" lon="12.2645004"><ele>167.0</ele><time>2026-03-28T11:47:54.047Z</time></trkpt><trkpt lat="42.1598037" lon="12.2645816"><ele>166.25</ele><time>2026-03-28T11:47:55.04Z</time></trkpt><trkpt lat="42.1596774" lon="12.2646572"><ele>165.5</ele><time>2026-03-28T11:47:56.047Z</time></trkpt><trkpt lat="42.1595413" lon="12.2647298"><ele>164.75</ele><time>2026-03-28T11:47:57.051Z</time></trkpt><trkpt lat="42.1593938" lon="12.2648062"><ele>164.0</ele><time>2026-03-28T11:47:58.042Z</time></trkpt><trkpt lat="42.1592175" lon="12.2648576"><ele>165.5</ele><time>2026-03-28T11:47:59.039Z</time></trkpt><trkpt lat="42.1590743" lon="12.2649003"><ele>167.0</ele><time>2026-03-28T11:48:00.042Z</time></trkpt><trkpt lat="42.1589349" lon="12.2649387"><ele>168.5</ele><time>2026-03-28T11:48:01.042Z</time></trkpt><trkpt lat="42.158803" lon="12.2649616"><ele>170.0</ele><time>2026-03-28T11:48:02.04Z</time></trkpt><trkpt lat="42.1586795" lon="12.2649777"><ele>170.25</ele><time>2026-03-28T11:48:03.049Z</time></trkpt><trkpt lat="42.1585413" lon="12.2649609"><ele>170.5</ele><time>2026-03-28T11:48:04.038Z</time></trkpt><trkpt lat="42.1584244" lon="12.2649749"><ele>170.75</ele><time>2026-03-28T11:48:05.05Z</time></trkpt><trkpt lat="42.1582374" lon="12.2649335"><ele>171.0</ele><time>2026-03-28T11:48:06.04Z</time></trkpt><trkpt lat="42.158044" lon="12.2648827"><ele>169.33333333333334</ele><time>2026-03-28T11:48:07.049Z</time></trkpt><trkpt lat="42.157852" lon="12.2648101"><ele>167.66666666666669</ele><time>2026-03-28T11:48:08.042Z</time></trkpt><trkpt lat="42.1576787" lon="12.2647472"><ele>166.0</ele><time>2026-03-28T11:48:09.042Z</time></trkpt><trkpt lat="42.1574777" lon="12.264688"><ele>170.5</ele><time>2026-03-28T11:48:10.041Z</time></trkpt><trkpt lat="42.1572556" lon="12.2645857"><ele>175.0</ele><time>2026-03-28T11:48:11.048Z</time></trkpt><trkpt lat="42.1570357" lon="12.26446"><ele>175.0</ele><time>2026-03-28T11:48:12.041Z</time></trkpt><trkpt lat="42.1568065" lon="12.2642875"><ele>175.0</ele><time>2026-03-28T11:48:13.056Z</time></trkpt><trkpt lat="42.1565892" lon="12.2641403"><ele>172.33333333333334</ele><time>2026-03-28T11:48:14.041Z</time></trkpt><trkpt lat="42.1564052" lon="12.2640151"><ele>169.66666666666666</ele><time>2026-03-28T11:48:15.051Z</time></trkpt><trkpt lat="42.1562061" lon="12.2639001"><ele>167.0</ele><time>2026-03-28T11:48:16.039Z</time></trkpt><trkpt lat="42.1560104" lon="12.2637936"><ele>167.0</ele><time>2026-03-28T11:48:17.043Z</time></trkpt><trkpt lat="42.1558139" lon="12.2636543"><ele>167.0</ele><time>2026-03-28T11:48:18.048Z</time></trkpt><trkpt lat="42.155599" lon="12.2634998"><ele>174.0</ele><time>2026-03-28T11:48:19.037Z</time></trkpt><trkpt lat="42.1553637" lon="12.2633355"><ele>181.0</ele><time>2026-03-28T11:48:20.046Z</time></trkpt><trkpt lat="42.1551156" lon="12.2631704"><ele>177.5</ele><time>2026-03-28T11:48:21.042Z</time></trkpt><trkpt lat="42.1549006" lon="12.2630283"><ele>174.0</ele><time>2026-03-28T11:48:22.042Z</time></trkpt><trkpt lat="42.1546994" lon="12.2628967"><ele>174.0</ele><time>2026-03-28T11:48:23.038Z</time></trkpt><trkpt lat="42.1544922" lon="12.2627909"><ele>174.0</ele><time>2026-03-28T11:48:24.043Z</time></trkpt><trkpt lat="42.1543014" lon="12.2626786"><ele>174.0</ele><time>2026-03-28T11:48:25.051Z</time></trkpt><trkpt lat="42.1541382" lon="12.2625816"><ele>173.5</ele><time>2026-03-28T11:48:26.047Z</time></trkpt><trkpt lat="42.1539869" lon="12.2625082"><ele>173.0</ele><time>2026-03-28T11:48:27.039Z</time></trkpt><trkpt lat="42.1538436" lon="12.2624612"><ele>172.5</ele><time>2026-03-28T11:48:28.035Z</time></trkpt><trkpt lat="42.1537158" lon="12.2624467"><ele>172.0</ele><time>2026-03-28T11:48:29.049Z</time></trkpt><trkpt lat="42.1535983" lon="12.2624909"><ele>172.0</ele><time>2026-03-28T11:48:30.038Z</time></trkpt><trkpt lat="42.1534996" lon="12.2626001"><ele>172.0</ele><time>2026-03-28T11:48:31.038Z</time></trkpt><trkpt lat="42.1533831" lon="12.2626911"><ele>172.0</ele><time>2026-03-28T11:48:32.039Z</time></trkpt><trkpt lat="42.1532518" lon="12.2628447"><ele>172.0</ele><time>2026-03-28T11:48:33.04Z</time></trkpt><trkpt lat="42.1531388" lon="12.2630026"><ele>170.33333333333334</ele><time>2026-03-28T11:48:34.048Z</time></trkpt><trkpt lat="42.1530009" lon="12.2631535"><ele>168.66666666666666</ele><time>2026-03-28T11:48:35.038Z</time></trkpt><trkpt lat="42.152871" lon="12.263302"><ele>167.0</ele><time>2026-03-28T11:48:36.048Z</time></trkpt><trkpt lat="42.1527627" lon="12.2634486"><ele>167.0</ele><time>2026-03-28T11:48:37.051Z</time></trkpt><trkpt lat="42.1526358" lon="12.2635688"><ele>167.0</ele><time>2026-03-28T11:48:38.054Z</time></trkpt><trkpt lat="42.1525173" lon="12.2636679"><ele>167.0</ele><time>2026-03-28T11:48:39.04Z</time></trkpt><trkpt lat="42.1523963" lon="12.2637631"><ele>167.0</ele><time>2026-03-28T11:48:40.044Z</time></trkpt><trkpt lat="42.1522821" lon="12.2638584"><ele>167.5</ele><time>2026-03-28T11:48:41.042Z</time></trkpt><trkpt lat="42.152157" lon="12.2639582"><ele>168.0</ele><time>2026-03-28T11:48:42.046Z</time></trkpt><trkpt lat="42.1520383" lon="12.2640753"><ele>168.5</ele><time>2026-03-28T11:48:43.036Z</time></trkpt><trkpt lat="42.1519223" lon="12.2641633"><ele>169.0</ele><time>2026-03-28T11:48:44.042Z</time></trkpt><trkpt lat="42.1517569" lon="12.2642311"><ele>169.0</ele><time>2026-03-28T11:48:45.042Z</time></trkpt><trkpt lat="42.1516236" lon="12.2642686"><ele>169.0</ele><time>2026-03-28T11:48:46.043Z</time></trkpt><trkpt lat="42.1514497" lon="12.264262"><ele>169.0</ele><time>2026-03-28T11:48:47.042Z</time></trkpt><trkpt lat="42.1512765" lon="12.2642886"><ele>168.0</ele><time>2026-03-28T11:48:48.043Z</time></trkpt><trkpt lat="42.1510881" lon="12.2642792"><ele>167.0</ele><time>2026-03-28T11:48:49.039Z</time></trkpt><trkpt lat="42.1508988" lon="12.2643294"><ele>166.0</ele><time>2026-03-28T11:48:50.038Z</time></trkpt><trkpt lat="42.1507535" lon="12.2643819"><ele>165.5</ele><time>2026-03-28T11:48:51.047Z</time></trkpt><trkpt lat="42.1506046" lon="12.2644271"><ele>165.0</ele><time>2026-03-28T11:48:52.036Z</time></trkpt><trkpt lat="42.1504911" lon="12.2645064"><ele>164.5</ele><time>2026-03-28T11:48:53.042Z</time></trkpt><trkpt lat="42.1503971" lon="12.2646086"><ele>164.0</ele><time>2026-03-28T11:48:54.039Z</time></trkpt><trkpt lat="42.1503127" lon="12.2647409"><ele>165.0</ele><time>2026-03-28T11:48:55.036Z</time></trkpt><trkpt lat="42.1502108" lon="12.2649157"><ele>166.0</ele><time>2026-03-28T11:48:56.048Z</time></trkpt><trkpt lat="42.1501133" lon="12.2650877"><ele>167.0</ele><time>2026-03-28T11:48:57.039Z</time></trkpt><trkpt lat="42.1500013" lon="12.2652608"><ele>166.33333333333331</ele><time>2026-03-28T11:48:58.037Z</time></trkpt><trkpt lat="42.1498724" lon="12.2654281"><ele>165.66666666666666</ele><time>2026-03-28T11:48:59.046Z</time></trkpt><trkpt lat="42.1497642" lon="12.2655833"><ele>165.0</ele><time>2026-03-28T11:49:00.04Z</time></trkpt><trkpt lat="42.1496829" lon="12.2657441"><ele>165.0</ele><time>2026-03-28T11:49:01.041Z</time></trkpt><trkpt lat="42.1496106" lon="12.2659345"><ele>165.0</ele><time>2026-03-28T11:49:02.039Z</time></trkpt><trkpt lat="42.1495472" lon="12.2661102"><ele>165.0</ele><time>2026-03-28T11:49:03.042Z</time></trkpt><trkpt lat="42.1494982" lon="12.2662741"><ele>165.0</ele><time>2026-03-28T11:49:04.041Z</time></trkpt><trkpt lat="42.149444" lon="12.266435"><ele>165.5</ele><time>2026-03-28T11:49:05.039Z</time></trkpt><trkpt lat="42.149399" lon="12.2666"><ele>166.0</ele><time>2026-03-28T11:49:06.043Z</time></trkpt><trkpt lat="42.1493642" lon="12.2667764"><ele>166.5</ele><time>2026-03-28T11:49:07.05Z</time></trkpt><trkpt lat="42.1493098" lon="12.2669805"><ele>167.0</ele><time>2026-03-28T11:49:08.045Z</time></trkpt><trkpt lat="42.1492335" lon="12.2671989"><ele>168.0</ele><time>2026-03-28T11:49:09.042Z</time></trkpt><trkpt lat="42.1491945" lon="12.2674033"><ele>169.0</ele><time>2026-03-28T11:49:10.038Z</time></trkpt><trkpt lat="42.1491711" lon="12.2676071"><ele>170.0</ele><time>2026-03-28T11:49:11.043Z</time></trkpt><trkpt lat="42.1491312" lon="12.2678165"><ele>170.0</ele><time>2026-03-28T11:49:12.04Z</time></trkpt><trkpt lat="42.1491071" lon="12.2680272"><ele>170.0</ele><time>2026-03-28T11:49:13.04Z</time></trkpt><trkpt lat="42.1490761" lon="12.2682189"><ele>170.0</ele><time>2026-03-28T11:49:14.037Z</time></trkpt><trkpt lat="42.1490436" lon="12.2684184"><ele>169.5</ele><time>2026-03-28T11:49:15.043Z</time></trkpt><trkpt lat="42.149035" lon="12.2686057"><ele>169.0</ele><time>2026-03-28T11:49:16.039Z</time></trkpt><trkpt lat="42.1490414" lon="12.268829"><ele>168.5</ele><time>2026-03-28T11:49:17.056Z</time></trkpt><trkpt lat="42.149025" lon="12.2690205"><ele>168.0</ele><time>2026-03-28T11:49:18.04Z</time></trkpt><trkpt lat="42.1490379" lon="12.2692273"><ele>167.75</ele><time>2026-03-28T11:49:19.046Z</time></trkpt><trkpt lat="42.1490446" lon="12.2694107"><ele>167.5</ele><time>2026-03-28T11:49:20.043Z</time></trkpt><trkpt lat="42.1490547" lon="12.2695889"><ele>167.25</ele><time>2026-03-28T11:49:21.046Z</time></trkpt><trkpt lat="42.1490275" lon="12.2697842"><ele>167.0</ele><time>2026-03-28T11:49:22.047Z</time></trkpt><trkpt lat="42.1489905" lon="12.269964"><ele>167.0</ele><time>2026-03-28T11:49:23.036Z</time></trkpt><trkpt lat="42.1489599" lon="12.270129"><ele>167.0</ele><time>2026-03-28T11:49:24.044Z</time></trkpt><trkpt lat="42.1489499" lon="12.2703045"><ele>167.0</ele><time>2026-03-28T11:49:25.036Z</time></trkpt><trkpt lat="42.1489358" lon="12.2705127"><ele>167.0</ele><time>2026-03-28T11:49:26.037Z</time></trkpt><trkpt lat="42.148912" lon="12.2707512"><ele>166.66666666666666</ele><time>2026-03-28T11:49:27.042Z</time></trkpt><trkpt lat="42.1488835" lon="12.2709767"><ele>166.33333333333334</ele><time>2026-03-28T11:49:28.056Z</time></trkpt><trkpt lat="42.1488699" lon="12.2712192"><ele>166.0</ele><time>2026-03-28T11:49:29.044Z</time></trkpt><trkpt lat="42.1488262" lon="12.2714679"><ele>166.33333333333334</ele><time>2026-03-28T11:49:30.041Z</time></trkpt><trkpt lat="42.1487671" lon="12.2717387"><ele>166.66666666666666</ele><time>2026-03-28T11:49:31.04Z</time></trkpt><trkpt lat="42.1487167" lon="12.2720248"><ele>167.0</ele><time>2026-03-28T11:49:32.042Z</time></trkpt><trkpt lat="42.1486352" lon="12.2722843"><ele>167.0</ele><time>2026-03-28T11:49:33.035Z</time></trkpt><trkpt lat="42.1485573" lon="12.2725321"><ele>167.0</ele><time>2026-03-28T11:49:34.043Z</time></trkpt><trkpt lat="42.1484851" lon="12.2727902"><ele>167.0</ele><time>2026-03-28T11:49:35.041Z</time></trkpt><trkpt lat="42.1484076" lon="12.2730376"><ele>167.0</ele><time>2026-03-28T11:49:36.042Z</time></trkpt><trkpt lat="42.1483389" lon="12.273277"><ele>167.0</ele><time>2026-03-28T11:49:37.046Z</time></trkpt><trkpt lat="42.1482578" lon="12.2735134"><ele>167.0</ele><time>2026-03-28T11:49:38.044Z</time></trkpt><trkpt lat="42.1481952" lon="12.2737461"><ele>166.66666666666666</ele><time>2026-03-28T11:49:39.042Z</time></trkpt><trkpt lat="42.1481414" lon="12.273975"><ele>166.33333333333334</ele><time>2026-03-28T11:49:40.047Z</time></trkpt><trkpt lat="42.1480817" lon="12.2742099"><ele>166.0</ele><time>2026-03-28T11:49:41.038Z</time></trkpt><trkpt lat="42.1480186" lon="12.2744401"><ele>166.0</ele><time>2026-03-28T11:49:42.052Z</time></trkpt><trkpt lat="42.1479371" lon="12.2746799"><ele>166.0</ele><time>2026-03-28T11:49:43.043Z</time></trkpt><trkpt lat="42.1478457" lon="12.2749327"><ele>166.0</ele><time>2026-03-28T11:49:44.05Z</time></trkpt><trkpt lat="42.1477474" lon="12.2752007"><ele>166.0</ele><time>2026-03-28T11:49:45.044Z</time></trkpt><trkpt lat="42.1476402" lon="12.2755051"><ele>166.0</ele><time>2026-03-28T11:49:46.041Z</time></trkpt><trkpt lat="42.1475568" lon="12.2758025"><ele>166.5</ele><time>2026-03-28T11:49:47.041Z</time></trkpt><trkpt lat="42.1474508" lon="12.2761217"><ele>167.0</ele><time>2026-03-28T11:49:48.044Z</time></trkpt><trkpt lat="42.1473716" lon="12.2763967"><ele>166.66666666666666</ele><time>2026-03-28T11:49:49.036Z</time></trkpt><trkpt lat="42.1472902" lon="12.276653"><ele>166.33333333333334</ele><time>2026-03-28T11:49:50.04Z</time></trkpt><trkpt lat="42.1472165" lon="12.2769334"><ele>166.0</ele><time>2026-03-28T11:49:51.045Z</time></trkpt><trkpt lat="42.1471327" lon="12.2771939"><ele>166.33333333333334</ele><time>2026-03-28T11:49:52.044Z</time></trkpt><trkpt lat="42.1470657" lon="12.2774338"><ele>166.66666666666666</ele><time>2026-03-28T11:49:53.045Z</time></trkpt><trkpt lat="42.1469931" lon="12.2776789"><ele>167.0</ele><time>2026-03-28T11:49:54.064Z</time></trkpt><trkpt lat="42.1469223" lon="12.277912"><ele>167.33333333333331</ele><time>2026-03-28T11:49:55.041Z</time></trkpt><trkpt lat="42.1468442" lon="12.2781466"><ele>167.66666666666666</ele><time>2026-03-28T11:49:56.042Z</time></trkpt><trkpt lat="42.1467646" lon="12.2783824"><ele>168.0</ele><time>2026-03-28T11:49:57.04Z</time></trkpt><trkpt lat="42.1466949" lon="12.2786032"><ele>168.0</ele><time>2026-03-28T11:49:58.051Z</time></trkpt><trkpt lat="42.1466189" lon="12.2788378"><ele>168.0</ele><time>2026-03-28T11:49:59.046Z</time></trkpt><trkpt lat="42.1465451" lon="12.2790467"><ele>168.0</ele><time>2026-03-28T11:50:00.038Z</time></trkpt><trkpt lat="42.1464826" lon="12.2792416"><ele>168.33333333333334</ele><time>2026-03-28T11:50:01.047Z</time></trkpt><trkpt lat="42.1464336" lon="12.2794419"><ele>168.66666666666669</ele><time>2026-03-28T11:50:02.047Z</time></trkpt><trkpt lat="42.1463638" lon="12.2796527"><ele>169.0</ele><time>2026-03-28T11:50:03.043Z</time></trkpt><trkpt lat="42.1462837" lon="12.2798209"><ele>169.0</ele><time>2026-03-28T11:50:04.04Z</time></trkpt><trkpt lat="42.1462051" lon="12.2799642"><ele>169.0</ele><time>2026-03-28T11:50:05.039Z</time></trkpt><trkpt lat="42.1460847" lon="12.2801033"><ele>169.0</ele><time>2026-03-28T11:50:06.04Z</time></trkpt><trkpt lat="42.1459647" lon="12.2802641"><ele>169.0</ele><time>2026-03-28T11:50:07.041Z</time></trkpt><trkpt lat="42.1458249" lon="12.2804023"><ele>169.0</ele><time>2026-03-28T11:50:08.035Z</time></trkpt><trkpt lat="42.1456789" lon="12.2805589"><ele>169.0</ele><time>2026-03-28T11:50:09.043Z</time></trkpt><trkpt lat="42.1455438" lon="12.2807021"><ele>169.33333333333334</ele><time>2026-03-28T11:50:10.041Z</time></trkpt><trkpt lat="42.1454244" lon="12.280855"><ele>169.66666666666666</ele><time>2026-03-28T11:50:11.04Z</time></trkpt><trkpt lat="42.1453091" lon="12.2809599"><ele>170.0</ele><time>2026-03-28T11:50:12.041Z</time></trkpt><trkpt lat="42.145204" lon="12.2810992"><ele>170.0</ele><time>2026-03-28T11:50:13.036Z</time></trkpt><trkpt lat="42.1450976" lon="12.281209"><ele>170.0</ele><time>2026-03-28T11:50:14.045Z</time></trkpt><trkpt lat="42.144999" lon="12.2813281"><ele>170.0</ele><time>2026-03-28T11:50:15.039Z</time></trkpt><trkpt lat="42.1448992" lon="12.2814435"><ele>170.0</ele><time>2026-03-28T11:50:16.039Z</time></trkpt><trkpt lat="42.1447925" lon="12.2815573"><ele>169.75</ele><time>2026-03-28T11:50:17.036Z</time></trkpt><trkpt lat="42.1446939" lon="12.2816772"><ele>169.5</ele><time>2026-03-28T11:50:18.054Z</time></trkpt><trkpt lat="42.1445848" lon="12.281786"><ele>169.25</ele><time>2026-03-28T11:50:19.043Z</time></trkpt><trkpt lat="42.1444834" lon="12.2818441"><ele>169.0</ele><time>2026-03-28T11:50:20.038Z</time></trkpt><trkpt lat="42.1443571" lon="12.281884"><ele>169.0</ele><time>2026-03-28T11:50:21.036Z</time></trkpt><trkpt lat="42.1442286" lon="12.2818788"><ele>169.0</ele><time>2026-03-28T11:50:22.043Z</time></trkpt><trkpt lat="42.1440854" lon="12.2818859"><ele>169.0</ele><time>2026-03-28T11:50:23.047Z</time></trkpt><trkpt lat="42.1439421" lon="12.281907"><ele>169.0</ele><time>2026-03-28T11:50:24.049Z</time></trkpt><trkpt lat="42.143785" lon="12.2819138"><ele>168.66666666666669</ele><time>2026-03-28T11:50:25.036Z</time></trkpt><trkpt lat="42.1436056" lon="12.2819489"><ele>168.33333333333334</ele><time>2026-03-28T11:50:26.049Z</time></trkpt><trkpt lat="42.1434237" lon="12.2819658"><ele>168.0</ele><time>2026-03-28T11:50:27.036Z</time></trkpt><trkpt lat="42.1432381" lon="12.2819822"><ele>167.66666666666666</ele><time>2026-03-28T11:50:28.047Z</time></trkpt><trkpt lat="42.1430581" lon="12.2819875"><ele>167.33333333333331</ele><time>2026-03-28T11:50:29.043Z</time></trkpt><trkpt lat="42.1428787" lon="12.282011"><ele>167.0</ele><time>2026-03-28T11:50:30.044Z</time></trkpt><trkpt lat="42.1426869" lon="12.2820302"><ele>167.0</ele><time>2026-03-28T11:50:31.034Z</time></trkpt><trkpt lat="42.1425075" lon="12.2820523"><ele>167.0</ele><time>2026-03-28T11:50:32.038Z</time></trkpt><trkpt lat="42.1423225" lon="12.282063"><ele>167.0</ele><time>2026-03-28T11:50:33.049Z</time></trkpt><trkpt lat="42.1421422" lon="12.2820909"><ele>166.66666666666666</ele><time>2026-03-28T11:50:34.043Z</time></trkpt><trkpt lat="42.14197" lon="12.2821098"><ele>166.33333333333334</ele><time>2026-03-28T11:50:35.038Z</time></trkpt><trkpt lat="42.1418083" lon="12.2821245"><ele>166.0</ele><time>2026-03-28T11:50:36.05Z</time></trkpt><trkpt lat="42.1416339" lon="12.2821616"><ele>166.33333333333334</ele><time>2026-03-28T11:50:37.038Z</time></trkpt><trkpt lat="42.1414613" lon="12.2822081"><ele>166.66666666666666</ele><time>2026-03-28T11:50:38.056Z</time></trkpt><trkpt lat="42.1412902" lon="12.2822816"><ele>167.0</ele><time>2026-03-28T11:50:39.04Z</time></trkpt><trkpt lat="42.141135" lon="12.2823912"><ele>167.0</ele><time>2026-03-28T11:50:40.047Z</time></trkpt><trkpt lat="42.1409812" lon="12.28252"><ele>167.0</ele><time>2026-03-28T11:50:41.037Z</time></trkpt><trkpt lat="42.1408291" lon="12.2827188"><ele>167.0</ele><time>2026-03-28T11:50:42.044Z</time></trkpt><trkpt lat="42.1406839" lon="12.2828876"><ele>166.66666666666666</ele><time>2026-03-28T11:50:43.038Z</time></trkpt><trkpt lat="42.1405317" lon="12.2830229"><ele>166.33333333333334</ele><time>2026-03-28T11:50:44.05Z</time></trkpt><trkpt lat="42.1403966" lon="12.2831446"><ele>166.0</ele><time>2026-03-28T11:50:45.043Z</time></trkpt><trkpt lat="42.1402655" lon="12.2832626"><ele>165.66666666666669</ele><time>2026-03-28T11:50:46.045Z</time></trkpt><trkpt lat="42.1401242" lon="12.2833902"><ele>165.33333333333334</ele><time>2026-03-28T11:50:47.041Z</time></trkpt><trkpt lat="42.1399633" lon="12.2835038"><ele>165.0</ele><time>2026-03-28T11:50:48.043Z</time></trkpt><trkpt lat="42.1398001" lon="12.2836117"><ele>165.0</ele><time>2026-03-28T11:50:49.051Z</time></trkpt><trkpt lat="42.1396572" lon="12.2837239"><ele>165.0</ele><time>2026-03-28T11:50:50.043Z</time></trkpt><trkpt lat="42.1395095" lon="12.2838261"><ele>165.0</ele><time>2026-03-28T11:50:51.045Z</time></trkpt><trkpt lat="42.1393535" lon="12.2839449"><ele>165.33333333333334</ele><time>2026-03-28T11:50:52.039Z</time></trkpt><trkpt lat="42.1391863" lon="12.2840595"><ele>165.66666666666669</ele><time>2026-03-28T11:50:53.046Z</time></trkpt><trkpt lat="42.1390001" lon="12.2842026"><ele>166.0</ele><time>2026-03-28T11:50:54.047Z</time></trkpt><trkpt lat="42.1387795" lon="12.28434"><ele>165.0</ele><time>2026-03-28T11:50:55.039Z</time></trkpt><trkpt lat="42.1385496" lon="12.2844914"><ele>164.0</ele><time>2026-03-28T11:50:56.045Z</time></trkpt><trkpt lat="42.1383023" lon="12.2846587"><ele>163.0</ele><time>2026-03-28T11:50:57.045Z</time></trkpt><trkpt lat="42.1380379" lon="12.2848431"><ele>162.0</ele><time>2026-03-28T11:50:58.057Z</time></trkpt><trkpt lat="42.1377586" lon="12.2850398"><ele>162.0</ele><time>2026-03-28T11:50:59.042Z</time></trkpt><trkpt lat="42.1375062" lon="12.2852247"><ele>162.0</ele><time>2026-03-28T11:51:00.041Z</time></trkpt><trkpt lat="42.137286" lon="12.2853881"><ele>161.5</ele><time>2026-03-28T11:51:01.041Z</time></trkpt><trkpt lat="42.1370582" lon="12.2855316"><ele>161.0</ele><time>2026-03-28T11:51:02.048Z</time></trkpt><trkpt lat="42.1368407" lon="12.2856784"><ele>162.5</ele><time>2026-03-28T11:51:03.05Z</time></trkpt><trkpt lat="42.1366397" lon="12.2858178"><ele>164.0</ele><time>2026-03-28T11:51:04.041Z</time></trkpt><trkpt lat="42.1364435" lon="12.2859652"><ele>164.0</ele><time>2026-03-28T11:51:05.047Z</time></trkpt><trkpt lat="42.1362594" lon="12.2860767"><ele>164.0</ele><time>2026-03-28T11:51:06.043Z</time></trkpt><trkpt lat="42.1360902" lon="12.2861918"><ele>164.0</ele><time>2026-03-28T11:51:07.051Z</time></trkpt><trkpt lat="42.1359356" lon="12.2863062"><ele>164.0</ele><time>2026-03-28T11:51:08.059Z</time></trkpt><trkpt lat="42.1357866" lon="12.286424"><ele>164.0</ele><time>2026-03-28T11:51:09.041Z</time></trkpt><trkpt lat="42.1356428" lon="12.2865482"><ele>164.0</ele><time>2026-03-28T11:51:10.05Z</time></trkpt><trkpt lat="42.135531" lon="12.2866846"><ele>165.0</ele><time>2026-03-28T11:51:11.038Z</time></trkpt><trkpt lat="42.1354204" lon="12.2868388"><ele>166.0</ele><time>2026-03-28T11:51:12.048Z</time></trkpt><trkpt lat="42.1353188" lon="12.2870089"><ele>167.0</ele><time>2026-03-28T11:51:13.04Z</time></trkpt><trkpt lat="42.1352103" lon="12.2871873"><ele>166.33333333333331</ele><time>2026-03-28T11:51:14.039Z</time></trkpt><trkpt lat="42.1350828" lon="12.2873894"><ele>165.66666666666666</ele><time>2026-03-28T11:51:15.052Z</time></trkpt><trkpt lat="42.1349694" lon="12.2876088"><ele>165.0</ele><time>2026-03-28T11:51:16.039Z</time></trkpt><trkpt lat="42.1348515" lon="12.2878066"><ele>165.0</ele><time>2026-03-28T11:51:17.049Z</time></trkpt><trkpt lat="42.1347454" lon="12.287997"><ele>165.0</ele><time>2026-03-28T11:51:18.041Z</time></trkpt><trkpt lat="42.1346349" lon="12.2881935"><ele>165.0</ele><time>2026-03-28T11:51:19.049Z</time></trkpt><trkpt lat="42.1345337" lon="12.2883699"><ele>166.0</ele><time>2026-03-28T11:51:20.045Z</time></trkpt><trkpt lat="42.1344293" lon="12.2885213"><ele>167.0</ele><time>2026-03-28T11:51:21.044Z</time></trkpt><trkpt lat="42.1343043" lon="12.2886501"><ele>168.0</ele><time>2026-03-28T11:51:22.056Z</time></trkpt><trkpt lat="42.1341546" lon="12.2887201"><ele>167.0</ele><time>2026-03-28T11:51:23.042Z</time></trkpt><trkpt lat="42.1340111" lon="12.2887711"><ele>166.0</ele><time>2026-03-28T11:51:24.045Z</time></trkpt><trkpt lat="42.1338625" lon="12.288789"><ele>165.0</ele><time>2026-03-28T11:51:25.047Z</time></trkpt><trkpt lat="42.1337097" lon="12.2887609"><ele>165.0</ele><time>2026-03-28T11:51:26.04Z</time></trkpt><trkpt lat="42.13355" lon="12.2887128"><ele>165.0</ele><time>2026-03-28T11:51:27.04Z</time></trkpt><trkpt lat="42.1333564" lon="12.2886567"><ele>165.0</ele><time>2026-03-28T11:51:28.042Z</time></trkpt><trkpt lat="42.133147" lon="12.2885896"><ele>165.33333333333334</ele><time>2026-03-28T11:51:29.048Z</time></trkpt><trkpt lat="42.1329508" lon="12.288521"><ele>165.66666666666669</ele><time>2026-03-28T11:51:30.047Z</time></trkpt><trkpt lat="42.1327613" lon="12.2884676"><ele>166.0</ele><time>2026-03-28T11:51:31.04Z</time></trkpt><trkpt lat="42.1325683" lon="12.2884235"><ele>166.0</ele><time>2026-03-28T11:51:32.046Z</time></trkpt><trkpt lat="42.1323958" lon="12.2883812"><ele>166.0</ele><time>2026-03-28T11:51:33.051Z</time></trkpt><trkpt lat="42.1322259" lon="12.2883226"><ele>166.0</ele><time>2026-03-28T11:51:34.039Z</time></trkpt><trkpt lat="42.132062" lon="12.2882878"><ele>166.4</ele><time>2026-03-28T11:51:35.046Z</time></trkpt><trkpt lat="42.1319104" lon="12.2882511"><ele>166.8</ele><time>2026-03-28T11:51:36.044Z</time></trkpt><trkpt lat="42.1317898" lon="12.2882189"><ele>167.20000000000002</ele><time>2026-03-28T11:51:37.046Z</time></trkpt><trkpt lat="42.1317021" lon="12.288198"><ele>167.60000000000002</ele><time>2026-03-28T11:51:38.04Z</time></trkpt><trkpt lat="42.131627" lon="12.2881734"><ele>168.0</ele><time>2026-03-28T11:51:39.043Z</time></trkpt><trkpt lat="42.1315149" lon="12.2881449"><ele>169.4</ele><time>2026-03-28T11:51:41.037Z</time></trkpt><trkpt lat="42.1314265" lon="12.2881055"><ele>170.8</ele><time>2026-03-28T11:53:25.039Z</time></trkpt><trkpt lat="42.1313223" lon="12.2880517"><ele>172.2</ele><time>2026-03-28T11:53:28.047Z</time></trkpt><trkpt lat="42.13125" lon="12.2879766"><ele>173.6</ele><time>2026-03-28T11:53:29.04Z</time></trkpt><trkpt lat="42.1311701" lon="12.2878552"><ele>175.0</ele><time>2026-03-28T11:53:30.04Z</time></trkpt><trkpt lat="42.1310728" lon="12.2876883"><ele>175.0</ele><time>2026-03-28T11:53:31.049Z</time></trkpt><trkpt lat="42.130979" lon="12.2875149"><ele>175.0</ele><time>2026-03-28T11:53:32.041Z</time></trkpt><trkpt lat="42.1308672" lon="12.2873367"><ele>175.0</ele><time>2026-03-28T11:53:33.045Z</time></trkpt><trkpt lat="42.1307553" lon="12.2871841"><ele>175.5</ele><time>2026-03-28T11:53:34.041Z</time></trkpt><trkpt lat="42.1306582" lon="12.2870496"><ele>176.0</ele><time>2026-03-28T11:53:35.044Z</time></trkpt><trkpt lat="42.1305606" lon="12.2869221"><ele>176.5</ele><time>2026-03-28T11:53:36.044Z</time></trkpt><trkpt lat="42.1304576" lon="12.2867778"><ele>177.0</ele><time>2026-03-28T11:53:37.046Z</time></trkpt><trkpt lat="42.1303291" lon="12.2866911"><ele>177.0</ele><time>2026-03-28T11:53:38.059Z</time></trkpt><trkpt lat="42.1301993" lon="12.2866013"><ele>177.0</ele><time>2026-03-28T11:53:39.037Z</time></trkpt><trkpt lat="42.1300477" lon="12.2865376"><ele>177.0</ele><time>2026-03-28T11:53:40.043Z</time></trkpt><trkpt lat="42.1298791" lon="12.286473"><ele>175.33333333333334</ele><time>2026-03-28T11:53:41.043Z</time></trkpt><trkpt lat="42.1297198" lon="12.2864087"><ele>173.66666666666669</ele><time>2026-03-28T11:53:42.047Z</time></trkpt><trkpt lat="42.1295521" lon="12.2863191"><ele>172.0</ele><time>2026-03-28T11:53:43.04Z</time></trkpt><trkpt lat="42.1293874" lon="12.2861986"><ele>172.0</ele><time>2026-03-28T11:53:44.05Z</time></trkpt><trkpt lat="42.1292215" lon="12.2860942"><ele>172.0</ele><time>2026-03-28T11:53:45.041Z</time></trkpt><trkpt lat="42.1290614" lon="12.2859911"><ele>172.0</ele><time>2026-03-28T11:53:46.038Z</time></trkpt><trkpt lat="42.1289168" lon="12.2858789"><ele>174.66666666666669</ele><time>2026-03-28T11:53:47.045Z</time></trkpt><trkpt lat="42.1287771" lon="12.2857648"><ele>177.33333333333334</ele><time>2026-03-28T11:53:48.038Z</time></trkpt><trkpt lat="42.1286254" lon="12.2856503"><ele>180.0</ele><time>2026-03-28T11:53:49.048Z</time></trkpt><trkpt lat="42.1284639" lon="12.2855721"><ele>176.66666666666666</ele><time>2026-03-28T11:53:50.037Z</time></trkpt><trkpt lat="42.1283207" lon="12.2854914"><ele>173.33333333333331</ele><time>2026-03-28T11:53:51.048Z</time></trkpt><trkpt lat="42.1281506" lon="12.2854324"><ele>170.0</ele><time>2026-03-28T11:53:52.042Z</time></trkpt><trkpt lat="42.1279705" lon="12.2854153"><ele>170.0</ele><time>2026-03-28T11:53:53.041Z</time></trkpt><trkpt lat="42.1277877" lon="12.2853919"><ele>170.0</ele><time>2026-03-28T11:53:54.036Z</time></trkpt><trkpt lat="42.1275964" lon="12.2853489"><ele>170.0</ele><time>2026-03-28T11:53:55.041Z</time></trkpt><trkpt lat="42.1274141" lon="12.2852978"><ele>172.33333333333331</ele><time>2026-03-28T11:53:56.05Z</time></trkpt><trkpt lat="42.127223" lon="12.2852431"><ele>174.66666666666666</ele><time>2026-03-28T11:53:57.038Z</time></trkpt><trkpt lat="42.1270452" lon="12.2852031"><ele>177.0</ele><time>2026-03-28T11:53:58.061Z</time></trkpt><trkpt lat="42.12685" lon="12.2851455"><ele>177.0</ele><time>2026-03-28T11:53:59.04Z</time></trkpt><trkpt lat="42.1266558" lon="12.2851048"><ele>177.0</ele><time>2026-03-28T11:54:00.048Z</time></trkpt><trkpt lat="42.1264583" lon="12.2850555"><ele>177.0</ele><time>2026-03-28T11:54:01.041Z</time></trkpt><trkpt lat="42.1262779" lon="12.2849904"><ele>180.33333333333334</ele><time>2026-03-28T11:54:02.048Z</time></trkpt><trkpt lat="42.1261052" lon="12.2849125"><ele>183.66666666666669</ele><time>2026-03-28T11:54:03.039Z</time></trkpt><trkpt lat="42.1259375" lon="12.2848369"><ele>187.0</ele><time>2026-03-28T11:54:04.043Z</time></trkpt><trkpt lat="42.1257457" lon="12.2847906"><ele>179.0</ele><time>2026-03-28T11:54:05.048Z</time></trkpt><trkpt lat="42.1255439" lon="12.284748"><ele>171.0</ele><time>2026-03-28T11:54:06.039Z</time></trkpt><trkpt lat="42.1253413" lon="12.2846994"><ele>163.0</ele><time>2026-03-28T11:54:07.042Z</time></trkpt><trkpt lat="42.1251436" lon="12.2846524"><ele>163.0</ele><time>2026-03-28T11:54:08.044Z</time></trkpt><trkpt lat="42.1249272" lon="12.2845978"><ele>163.0</ele><time>2026-03-28T11:54:09.045Z</time></trkpt><trkpt lat="42.1247284" lon="12.2845562"><ele>163.0</ele><time>2026-03-28T11:54:10.049Z</time></trkpt><trkpt lat="42.1245202" lon="12.2845044"><ele>163.66666666666669</ele><time>2026-03-28T11:54:11.049Z</time></trkpt><trkpt lat="42.1243162" lon="12.2844563"><ele>164.33333333333334</ele><time>2026-03-28T11:54:12.039Z</time></trkpt><trkpt lat="42.1241215" lon="12.2844223"><ele>165.0</ele><time>2026-03-28T11:54:13.043Z</time></trkpt><trkpt lat="42.1239141" lon="12.2843705"><ele>168.33333333333334</ele><time>2026-03-28T11:54:14.04Z</time></trkpt><trkpt lat="42.1237186" lon="12.2843221"><ele>171.66666666666669</ele><time>2026-03-28T11:54:15.047Z</time></trkpt><trkpt lat="42.1235298" lon="12.2842584"><ele>175.0</ele><time>2026-03-28T11:54:16.048Z</time></trkpt><trkpt lat="42.1233487" lon="12.2842008"><ele>176.0</ele><time>2026-03-28T11:54:17.048Z</time></trkpt><trkpt lat="42.123167" lon="12.2841355"><ele>177.0</ele><time>2026-03-28T11:54:18.04Z</time></trkpt><trkpt lat="42.1229939" lon="12.2841124"><ele>178.0</ele><time>2026-03-28T11:54:19.043Z</time></trkpt><trkpt lat="42.1227931" lon="12.2840823"><ele>178.0</ele><time>2026-03-28T11:54:20.038Z</time></trkpt><trkpt lat="42.1226058" lon="12.2840698"><ele>178.0</ele><time>2026-03-28T11:54:21.052Z</time></trkpt><trkpt lat="42.1223803" lon="12.2840791"><ele>178.0</ele><time>2026-03-28T11:54:22.048Z</time></trkpt><trkpt lat="42.1221526" lon="12.2840969"><ele>177.66666666666669</ele><time>2026-03-28T11:54:23.036Z</time></trkpt><trkpt lat="42.1219594" lon="12.2841126"><ele>177.33333333333334</ele><time>2026-03-28T11:54:24.048Z</time></trkpt><trkpt lat="42.1217837" lon="12.2841026"><ele>177.0</ele><time>2026-03-28T11:54:25.036Z</time></trkpt><trkpt lat="42.1216011" lon="12.284095"><ele>178.33333333333334</ele><time>2026-03-28T11:54:26.044Z</time></trkpt><trkpt lat="42.1214183" lon="12.2840822"><ele>179.66666666666669</ele><time>2026-03-28T11:54:27.041Z</time></trkpt><trkpt lat="42.1212174" lon="12.2840857"><ele>181.0</ele><time>2026-03-28T11:54:28.059Z</time></trkpt><trkpt lat="42.1210289" lon="12.2840733"><ele>181.0</ele><time>2026-03-28T11:54:29.038Z</time></trkpt><trkpt lat="42.1208499" lon="12.2840516"><ele>181.0</ele><time>2026-03-28T11:54:30.042Z</time></trkpt><trkpt lat="42.1206744" lon="12.2840264"><ele>181.0</ele><time>2026-03-28T11:54:31.043Z</time></trkpt><trkpt lat="42.1204962" lon="12.2840014"><ele>181.33333333333334</ele><time>2026-03-28T11:54:32.046Z</time></trkpt><trkpt lat="42.1203021" lon="12.2839762"><ele>181.66666666666666</ele><time>2026-03-28T11:54:33.04Z</time></trkpt><trkpt lat="42.1201121" lon="12.2839301"><ele>182.0</ele><time>2026-03-28T11:54:34.045Z</time></trkpt><trkpt lat="42.11993" lon="12.283868"><ele>177.66666666666666</ele><time>2026-03-28T11:54:35.04Z</time></trkpt><trkpt lat="42.1197384" lon="12.283794"><ele>173.33333333333334</ele><time>2026-03-28T11:54:36.039Z</time></trkpt><trkpt lat="42.1195391" lon="12.2837259"><ele>169.0</ele><time>2026-03-28T11:54:37.04Z</time></trkpt><trkpt lat="42.1193361" lon="12.2836714"><ele>169.0</ele><time>2026-03-28T11:54:38.042Z</time></trkpt><trkpt lat="42.119128" lon="12.2836109"><ele>169.0</ele><time>2026-03-28T11:54:39.043Z</time></trkpt><trkpt lat="42.1189283" lon="12.283573"><ele>169.0</ele><time>2026-03-28T11:54:40.043Z</time></trkpt><trkpt lat="42.1187421" lon="12.2835459"><ele>169.66666666666669</ele><time>2026-03-28T11:54:41.046Z</time></trkpt><trkpt lat="42.1185477" lon="12.2835115"><ele>170.33333333333334</ele><time>2026-03-28T11:54:42.042Z</time></trkpt><trkpt lat="42.1183586" lon="12.2834789"><ele>171.0</ele><time>2026-03-28T11:54:43.052Z</time></trkpt><trkpt lat="42.1181698" lon="12.2834321"><ele>171.66666666666666</ele><time>2026-03-28T11:54:44.039Z</time></trkpt><trkpt lat="42.1179859" lon="12.2833891"><ele>172.33333333333331</ele><time>2026-03-28T11:54:45.037Z</time></trkpt><trkpt lat="42.1178064" lon="12.2833544"><ele>173.0</ele><time>2026-03-28T11:54:46.044Z</time></trkpt><trkpt lat="42.117622" lon="12.2833374"><ele>173.0</ele><time>2026-03-28T11:54:47.047Z</time></trkpt><trkpt lat="42.1174215" lon="12.2833123"><ele>173.0</ele><time>2026-03-28T11:54:48.054Z</time></trkpt><trkpt lat="42.1172254" lon="12.2833014"><ele>173.0</ele><time>2026-03-28T11:54:49.044Z</time></trkpt><trkpt lat="42.1170267" lon="12.2832986"><ele>175.0</ele><time>2026-03-28T11:54:50.046Z</time></trkpt><trkpt lat="42.1168179" lon="12.2832525"><ele>177.0</ele><time>2026-03-28T11:54:51.044Z</time></trkpt><trkpt lat="42.1166152" lon="12.2832054"><ele>179.0</ele><time>2026-03-28T11:54:52.04Z</time></trkpt><trkpt lat="42.1164058" lon="12.2831849"><ele>179.33333333333331</ele><time>2026-03-28T11:54:53.048Z</time></trkpt><trkpt lat="42.1161974" lon="12.2831684"><ele>179.66666666666666</ele><time>2026-03-28T11:54:54.045Z</time></trkpt><trkpt lat="42.1159903" lon="12.2831419"><ele>180.0</ele><time>2026-03-28T11:54:55.048Z</time></trkpt><trkpt lat="42.1157867" lon="12.2831204"><ele>175.66666666666666</ele><time>2026-03-28T11:54:56.046Z</time></trkpt><trkpt lat="42.1155749" lon="12.2830731"><ele>171.33333333333331</ele><time>2026-03-28T11:54:57.048Z</time></trkpt><trkpt lat="42.1153738" lon="12.2830134"><ele>167.0</ele><time>2026-03-28T11:54:58.042Z</time></trkpt><trkpt lat="42.1151743" lon="12.2829551"><ele>167.0</ele><time>2026-03-28T11:54:59.044Z</time></trkpt><trkpt lat="42.1149621" lon="12.2828909"><ele>167.0</ele><time>2026-03-28T11:55:00.044Z</time></trkpt><trkpt lat="42.1147529" lon="12.2828268"><ele>167.0</ele><time>2026-03-28T11:55:01.052Z</time></trkpt><trkpt lat="42.114544" lon="12.282754"><ele>169.33333333333331</ele><time>2026-03-28T11:55:02.038Z</time></trkpt><trkpt lat="42.1143326" lon="12.282711"><ele>171.66666666666666</ele><time>2026-03-28T11:55:03.056Z</time></trkpt><trkpt lat="42.114112" lon="12.2826348"><ele>174.0</ele><time>2026-03-28T11:55:04.039Z</time></trkpt><trkpt lat="42.1138896" lon="12.2825641"><ele>175.66666666666666</ele><time>2026-03-28T11:55:05.049Z</time></trkpt><trkpt lat="42.1136704" lon="12.2825025"><ele>177.33333333333331</ele><time>2026-03-28T11:55:06.041Z</time></trkpt><trkpt lat="42.1134659" lon="12.2824452"><ele>179.0</ele><time>2026-03-28T11:55:07.057Z</time></trkpt><trkpt lat="42.1132756" lon="12.2823853"><ele>181.0</ele><time>2026-03-28T11:55:08.04Z</time></trkpt><trkpt lat="42.1130822" lon="12.2823425"><ele>183.0</ele><time>2026-03-28T11:55:09.051Z</time></trkpt><trkpt lat="42.1128863" lon="12.2823086"><ele>185.0</ele><time>2026-03-28T11:55:10.042Z</time></trkpt><trkpt lat="42.1126821" lon="12.2822596"><ele>179.66666666666666</ele><time>2026-03-28T11:55:11.044Z</time></trkpt><trkpt lat="42.1125056" lon="12.2822215"><ele>174.33333333333334</ele><time>2026-03-28T11:55:12.053Z</time></trkpt><trkpt lat="42.1123346" lon="12.282191"><ele>169.0</ele><time>2026-03-28T11:55:13.039Z</time></trkpt><trkpt lat="42.1121603" lon="12.28214"><ele>169.0</ele><time>2026-03-28T11:55:14.042Z</time></trkpt><trkpt lat="42.1119652" lon="12.2820687"><ele>169.0</ele><time>2026-03-28T11:55:15.039Z</time></trkpt><trkpt lat="42.1117779" lon="12.2820087"><ele>169.0</ele><time>2026-03-28T11:55:16.052Z</time></trkpt><trkpt lat="42.1115955" lon="12.2819258"><ele>175.66666666666669</ele><time>2026-03-28T11:55:17.044Z</time></trkpt><trkpt lat="42.1114164" lon="12.2817837"><ele>182.33333333333334</ele><time>2026-03-28T11:55:18.05Z</time></trkpt><trkpt lat="42.1112233" lon="12.2816543"><ele>189.0</ele><time>2026-03-28T11:55:19.041Z</time></trkpt><trkpt lat="42.1110495" lon="12.2815387"><ele>187.0</ele><time>2026-03-28T11:55:20.047Z</time></trkpt><trkpt lat="42.1109025" lon="12.2813475"><ele>185.0</ele><time>2026-03-28T11:55:21.043Z</time></trkpt><trkpt lat="42.1107559" lon="12.2811828"><ele>183.0</ele><time>2026-03-28T11:55:22.056Z</time></trkpt><trkpt lat="42.1106055" lon="12.2810298"><ele>183.0</ele><time>2026-03-28T11:55:23.042Z</time></trkpt><trkpt lat="42.1104577" lon="12.2808858"><ele>183.0</ele><time>2026-03-28T11:55:24.046Z</time></trkpt><trkpt lat="42.1102923" lon="12.2807594"><ele>183.0</ele><time>2026-03-28T11:55:25.047Z</time></trkpt><trkpt lat="42.1101493" lon="12.2806049"><ele>177.5</ele><time>2026-03-28T11:55:26.043Z</time></trkpt><trkpt lat="42.1100039" lon="12.280497"><ele>172.0</ele><time>2026-03-28T11:55:27.043Z</time></trkpt><trkpt lat="42.1098768" lon="12.2804094"><ele>166.5</ele><time>2026-03-28T11:55:28.041Z</time></trkpt><trkpt lat="42.109742" lon="12.2804031"><ele>161.0</ele><time>2026-03-28T11:55:29.041Z</time></trkpt><trkpt lat="42.1096161" lon="12.2804499"><ele>161.0</ele><time>2026-03-28T11:55:30.039Z</time></trkpt><trkpt lat="42.1094759" lon="12.2805577"><ele>161.0</ele><time>2026-03-28T11:55:31.04Z</time></trkpt><trkpt lat="42.1093082" lon="12.2806535"><ele>161.0</ele><time>2026-03-28T11:55:32.044Z</time></trkpt><trkpt lat="42.1091274" lon="12.2807178"><ele>171.66666666666666</ele><time>2026-03-28T11:55:33.039Z</time></trkpt><trkpt lat="42.1089411" lon="12.2807518"><ele>182.33333333333331</ele><time>2026-03-28T11:55:34.046Z</time></trkpt><trkpt lat="42.1087751" lon="12.2807071"><ele>193.0</ele><time>2026-03-28T11:55:35.041Z</time></trkpt><trkpt lat="42.1086141" lon="12.2806098"><ele>190.33333333333331</ele><time>2026-03-28T11:55:36.035Z</time></trkpt><trkpt lat="42.1084289" lon="12.2805478"><ele>187.66666666666666</ele><time>2026-03-28T11:55:37.041Z</time></trkpt><trkpt lat="42.1082693" lon="12.2804566"><ele>185.0</ele><time>2026-03-28T11:55:38.046Z</time></trkpt><trkpt lat="42.1080809" lon="12.2803735"><ele>185.0</ele><time>2026-03-28T11:55:39.034Z</time></trkpt><trkpt lat="42.107918" lon="12.2802786"><ele>185.0</ele><time>2026-03-28T11:55:40.038Z</time></trkpt><trkpt lat="42.1077664" lon="12.2801625"><ele>185.0</ele><time>2026-03-28T11:55:41.043Z</time></trkpt><trkpt lat="42.1076056" lon="12.2800282"><ele>185.0</ele><time>2026-03-28T11:55:42.044Z</time></trkpt><trkpt lat="42.1074399" lon="12.279897"><ele>185.0</ele><time>2026-03-28T11:55:43.037Z</time></trkpt><trkpt lat="42.1072769" lon="12.2797555"><ele>185.0</ele><time>2026-03-28T11:55:44.044Z</time></trkpt><trkpt lat="42.1071308" lon="12.2796181"><ele>183.66666666666666</ele><time>2026-03-28T11:55:45.05Z</time></trkpt><trkpt lat="42.1069985" lon="12.2794637"><ele>182.33333333333334</ele><time>2026-03-28T11:55:46.043Z</time></trkpt><trkpt lat="42.1068775" lon="12.2792775"><ele>181.0</ele><time>2026-03-28T11:55:47.036Z</time></trkpt><trkpt lat="42.1067627" lon="12.2790981"><ele>177.75</ele><time>2026-03-28T11:55:48.048Z</time></trkpt><trkpt lat="42.1066742" lon="12.2789132"><ele>174.5</ele><time>2026-03-28T11:55:49.038Z</time></trkpt><trkpt lat="42.1065494" lon="12.2788153"><ele>171.25</ele><time>2026-03-28T11:55:50.043Z</time></trkpt><trkpt lat="42.1064341" lon="12.2787077"><ele>168.0</ele><time>2026-03-28T11:55:51.038Z</time></trkpt><trkpt lat="42.1063328" lon="12.2786192"><ele>168.0</ele><time>2026-03-28T11:55:52.038Z</time></trkpt><trkpt lat="42.1061708" lon="12.2785894"><ele>168.0</ele><time>2026-03-28T11:55:53.053Z</time></trkpt><trkpt lat="42.1059739" lon="12.2785687"><ele>168.0</ele><time>2026-03-28T11:55:54.038Z</time></trkpt><trkpt lat="42.1057779" lon="12.2785153"><ele>169.33333333333334</ele><time>2026-03-28T11:55:55.053Z</time></trkpt><trkpt lat="42.1055638" lon="12.2784901"><ele>170.66666666666669</ele><time>2026-03-28T11:55:56.043Z</time></trkpt><trkpt lat="42.105377" lon="12.2784535"><ele>172.0</ele><time>2026-03-28T11:55:57.041Z</time></trkpt><trkpt lat="42.1051856" lon="12.2783949"><ele>172.0</ele><time>2026-03-28T11:55:58.044Z</time></trkpt><trkpt lat="42.1050094" lon="12.2783262"><ele>172.0</ele><time>2026-03-28T11:55:59.058Z</time></trkpt><trkpt lat="42.1048138" lon="12.2782558"><ele>172.0</ele><time>2026-03-28T11:56:00.042Z</time></trkpt><trkpt lat="42.1046272" lon="12.2781922"><ele>174.0</ele><time>2026-03-28T11:56:01.042Z</time></trkpt><trkpt lat="42.104426" lon="12.2781404"><ele>176.0</ele><time>2026-03-28T11:56:02.038Z</time></trkpt><trkpt lat="42.1042656" lon="12.2781354"><ele>178.0</ele><time>2026-03-28T11:56:03.053Z</time></trkpt><trkpt lat="42.104075" lon="12.278174"><ele>178.0</ele><time>2026-03-28T11:56:04.045Z</time></trkpt><trkpt lat="42.103894" lon="12.2782209"><ele>178.0</ele><time>2026-03-28T11:56:05.05Z</time></trkpt><trkpt lat="42.1037374" lon="12.2782734"><ele>178.0</ele><time>2026-03-28T11:56:06.047Z</time></trkpt><trkpt lat="42.1035949" lon="12.2783227"><ele>178.0</ele><time>2026-03-28T11:56:07.036Z</time></trkpt><trkpt lat="42.1034576" lon="12.2783604"><ele>178.0</ele><time>2026-03-28T11:56:08.059Z</time></trkpt><trkpt lat="42.1033038" lon="12.2784247"><ele>178.0</ele><time>2026-03-28T11:56:09.037Z</time></trkpt><trkpt lat="42.1031545" lon="12.2784866"><ele>173.66666666666669</ele><time>2026-03-28T11:56:10.039Z</time></trkpt><trkpt lat="42.1030073" lon="12.2785654"><ele>169.33333333333334</ele><time>2026-03-28T11:56:11.04Z</time></trkpt><trkpt lat="42.1028588" lon="12.2786155"><ele>165.0</ele><time>2026-03-28T11:56:12.047Z</time></trkpt><trkpt lat="42.1026894" lon="12.2786752"><ele>165.0</ele><time>2026-03-28T11:56:13.044Z</time></trkpt><trkpt lat="42.1025344" lon="12.2787613"><ele>165.0</ele><time>2026-03-28T11:56:14.036Z</time></trkpt><trkpt lat="42.1023929" lon="12.278886"><ele>165.0</ele><time>2026-03-28T11:56:15.052Z</time></trkpt><trkpt lat="42.1022191" lon="12.2789538"><ele>168.33333333333334</ele><time>2026-03-28T11:56:16.041Z</time></trkpt><trkpt lat="42.1020654" lon="12.279033"><ele>171.66666666666669</ele><time>2026-03-28T11:56:17.049Z</time></trkpt><trkpt lat="42.1019243" lon="12.2791155"><ele>175.0</ele><time>2026-03-28T11:56:18.039Z</time></trkpt><trkpt lat="42.1017589" lon="12.2791623"><ele>175.0</ele><time>2026-03-28T11:56:19.046Z</time></trkpt><trkpt lat="42.1016196" lon="12.279242"><ele>175.0</ele><time>2026-03-28T11:56:20.043Z</time></trkpt><trkpt lat="42.1014781" lon="12.2793107"><ele>175.0</ele><time>2026-03-28T11:56:21.054Z</time></trkpt><trkpt lat="42.1013484" lon="12.2794475"><ele>176.66666666666669</ele><time>2026-03-28T11:56:22.038Z</time></trkpt><trkpt lat="42.1011943" lon="12.2795962"><ele>178.33333333333334</ele><time>2026-03-28T11:56:23.046Z</time></trkpt><trkpt lat="42.1010478" lon="12.2797103"><ele>180.0</ele><time>2026-03-28T11:56:24.043Z</time></trkpt><trkpt lat="42.1009103" lon="12.2797959"><ele>180.0</ele><time>2026-03-28T11:56:25.042Z</time></trkpt><trkpt lat="42.1007574" lon="12.279847"><ele>180.0</ele><time>2026-03-28T11:56:26.039Z</time></trkpt><trkpt lat="42.1005886" lon="12.2798799"><ele>180.0</ele><time>2026-03-28T11:56:27.041Z</time></trkpt><trkpt lat="42.1004094" lon="12.2798777"><ele>175.66666666666666</ele><time>2026-03-28T11:56:28.042Z</time></trkpt><trkpt lat="42.1002521" lon="12.2798632"><ele>171.33333333333331</ele><time>2026-03-28T11:56:29.039Z</time></trkpt><trkpt lat="42.1000854" lon="12.279836"><ele>167.0</ele><time>2026-03-28T11:56:30.048Z</time></trkpt><trkpt lat="42.0998765" lon="12.2797983"><ele>165.33333333333331</ele><time>2026-03-28T11:56:31.045Z</time></trkpt><trkpt lat="42.0996834" lon="12.2797606"><ele>163.66666666666666</ele><time>2026-03-28T11:56:32.048Z</time></trkpt><trkpt lat="42.0995062" lon="12.2797617"><ele>162.0</ele><time>2026-03-28T11:56:33.039Z</time></trkpt><trkpt lat="42.0993186" lon="12.2797405"><ele>162.0</ele><time>2026-03-28T11:56:34.047Z</time></trkpt><trkpt lat="42.0991275" lon="12.2797196"><ele>162.0</ele><time>2026-03-28T11:56:35.047Z</time></trkpt><trkpt lat="42.0989516" lon="12.2797169"><ele>162.0</ele><time>2026-03-28T11:56:36.051Z</time></trkpt><trkpt lat="42.0987691" lon="12.2797009"><ele>163.0</ele><time>2026-03-28T11:56:37.044Z</time></trkpt><trkpt lat="42.0985943" lon="12.2796728"><ele>164.0</ele><time>2026-03-28T11:56:38.049Z</time></trkpt><trkpt lat="42.0984229" lon="12.2796281"><ele>165.0</ele><time>2026-03-28T11:56:39.041Z</time></trkpt><trkpt lat="42.0982603" lon="12.2795261"><ele>166.0</ele><time>2026-03-28T11:56:40.047Z</time></trkpt><trkpt lat="42.0981214" lon="12.2794262"><ele>167.0</ele><time>2026-03-28T11:56:41.043Z</time></trkpt><trkpt lat="42.0979748" lon="12.2793319"><ele>168.0</ele><time>2026-03-28T11:56:42.039Z</time></trkpt><trkpt lat="42.09784" lon="12.2792633"><ele>168.0</ele><time>2026-03-28T11:56:43.041Z</time></trkpt><trkpt lat="42.0976882" lon="12.2792177"><ele>168.0</ele><time>2026-03-28T11:56:44.041Z</time></trkpt><trkpt lat="42.0975746" lon="12.2791741"><ele>168.0</ele><time>2026-03-28T11:56:45.041Z</time></trkpt><trkpt lat="42.0974" lon="12.2791913"><ele>168.0</ele><time>2026-03-28T11:56:46.041Z</time></trkpt><trkpt lat="42.097172" lon="12.2792742"><ele>166.66666666666666</ele><time>2026-03-28T11:56:47.04Z</time></trkpt><trkpt lat="42.096988" lon="12.2793474"><ele>165.33333333333331</ele><time>2026-03-28T11:56:48.041Z</time></trkpt><trkpt lat="42.0968097" lon="12.2793786"><ele>164.0</ele><time>2026-03-28T11:56:49.04Z</time></trkpt><trkpt lat="42.0966463" lon="12.2794208"><ele>163.66666666666666</ele><time>2026-03-28T11:56:50.05Z</time></trkpt><trkpt lat="42.0964792" lon="12.2794898"><ele>163.33333333333334</ele><time>2026-03-28T11:56:51.045Z</time></trkpt><trkpt lat="42.0963054" lon="12.2795291"><ele>163.0</ele><time>2026-03-28T11:56:52.041Z</time></trkpt><trkpt lat="42.096139" lon="12.2795649"><ele>163.0</ele><time>2026-03-28T11:56:53.041Z</time></trkpt><trkpt lat="42.0959525" lon="12.2796045"><ele>163.0</ele><time>2026-03-28T11:56:54.042Z</time></trkpt><trkpt lat="42.095777" lon="12.2796486"><ele>163.0</ele><time>2026-03-28T11:56:55.045Z</time></trkpt><trkpt lat="42.0956097" lon="12.2797077"><ele>162.66666666666669</ele><time>2026-03-28T11:56:56.042Z</time></trkpt><trkpt lat="42.0954469" lon="12.2797619"><ele>162.33333333333334</ele><time>2026-03-28T11:56:57.042Z</time></trkpt><trkpt lat="42.0952665" lon="12.2797933"><ele>162.0</ele><time>2026-03-28T11:56:58.053Z</time></trkpt><trkpt lat="42.0950974" lon="12.2798447"><ele>163.0</ele><time>2026-03-28T11:56:59.047Z</time></trkpt><trkpt lat="42.0949263" lon="12.2798782"><ele>164.0</ele><time>2026-03-28T11:57:00.057Z</time></trkpt><trkpt lat="42.094765" lon="12.2799336"><ele>165.0</ele><time>2026-03-28T11:57:01.038Z</time></trkpt><trkpt lat="42.0946101" lon="12.2799753"><ele>165.33333333333334</ele><time>2026-03-28T11:57:02.051Z</time></trkpt><trkpt lat="42.0944453" lon="12.2800131"><ele>165.66666666666669</ele><time>2026-03-28T11:57:03.048Z</time></trkpt><trkpt lat="42.094282" lon="12.2800076"><ele>166.0</ele><time>2026-03-28T11:57:04.039Z</time></trkpt><trkpt lat="42.0941239" lon="12.2799895"><ele>166.0</ele><time>2026-03-28T11:57:05.039Z</time></trkpt><trkpt lat="42.0939924" lon="12.2799116"><ele>166.0</ele><time>2026-03-28T11:57:06.042Z</time></trkpt><trkpt lat="42.093853" lon="12.2798299"><ele>166.0</ele><time>2026-03-28T11:57:07.045Z</time></trkpt><trkpt lat="42.0937429" lon="12.2796733"><ele>166.33333333333334</ele><time>2026-03-28T11:57:08.039Z</time></trkpt><trkpt lat="42.0936633" lon="12.2794855"><ele>166.66666666666666</ele><time>2026-03-28T11:57:09.04Z</time></trkpt><trkpt lat="42.093615" lon="12.2793003"><ele>167.0</ele><time>2026-03-28T11:57:10.045Z</time></trkpt><trkpt lat="42.0935636" lon="12.2790818"><ele>167.0</ele><time>2026-03-28T11:57:11.045Z</time></trkpt><trkpt lat="42.0935118" lon="12.2788528"><ele>167.0</ele><time>2026-03-28T11:57:12.039Z</time></trkpt><trkpt lat="42.0934581" lon="12.2786559"><ele>167.0</ele><time>2026-03-28T11:57:13.039Z</time></trkpt><trkpt lat="42.0934086" lon="12.2784313"><ele>167.0</ele><time>2026-03-28T11:57:14.047Z</time></trkpt><trkpt lat="42.0933593" lon="12.2782184"><ele>167.0</ele><time>2026-03-28T11:57:15.047Z</time></trkpt><trkpt lat="42.0933142" lon="12.2779914"><ele>167.0</ele><time>2026-03-28T11:57:16.039Z</time></trkpt><trkpt lat="42.0932614" lon="12.2777767"><ele>168.0</ele><time>2026-03-28T11:57:17.048Z</time></trkpt><trkpt lat="42.0932118" lon="12.2775728"><ele>169.0</ele><time>2026-03-28T11:57:18.045Z</time></trkpt><trkpt lat="42.0931682" lon="12.2773952"><ele>170.0</ele><time>2026-03-28T11:57:19.046Z</time></trkpt><trkpt lat="42.0931199" lon="12.2772059"><ele>171.0</ele><time>2026-03-28T11:57:20.04Z</time></trkpt><trkpt lat="42.0930679" lon="12.2770206"><ele>171.25</ele><time>2026-03-28T11:57:21.045Z</time></trkpt><trkpt lat="42.09304" lon="12.2768568"><ele>171.5</ele><time>2026-03-28T11:57:22.038Z</time></trkpt><trkpt lat="42.092997" lon="12.2766883"><ele>171.75</ele><time>2026-03-28T11:57:23.041Z</time></trkpt><trkpt lat="42.0929758" lon="12.2765255"><ele>172.0</ele><time>2026-03-28T11:57:24.041Z</time></trkpt><trkpt lat="42.0929457" lon="12.2763695"><ele>173.25</ele><time>2026-03-28T11:57:25.056Z</time></trkpt><trkpt lat="42.0929117" lon="12.2762191"><ele>174.5</ele><time>2026-03-28T11:57:26.036Z</time></trkpt><trkpt lat="42.0928836" lon="12.2760665"><ele>175.75</ele><time>2026-03-28T11:57:27.042Z</time></trkpt><trkpt lat="42.0928612" lon="12.2759078"><ele>177.0</ele><time>2026-03-28T11:57:28.041Z</time></trkpt><trkpt lat="42.0928256" lon="12.275767"><ele>177.0</ele><time>2026-03-28T11:57:29.044Z</time></trkpt><trkpt lat="42.0927952" lon="12.2756442"><ele>177.0</ele><time>2026-03-28T11:57:30.048Z</time></trkpt><trkpt lat="42.0927752" lon="12.2755208"><ele>177.0</ele><time>2026-03-28T11:57:31.037Z</time></trkpt><trkpt lat="42.0927512" lon="12.2754264"><ele>177.0</ele><time>2026-03-28T11:57:32.043Z</time></trkpt><trkpt lat="42.0927255" lon="12.2753413"><ele>177.0</ele><time>2026-03-28T11:57:34.041Z</time></trkpt><trkpt lat="42.0926637" lon="12.2753958"><ele>177.0</ele><time>2026-03-28T11:57:36.05Z</time></trkpt><trkpt lat="42.0925795" lon="12.2754461"><ele>176.83333333333334</ele><time>2026-03-28T11:57:38.043Z</time></trkpt><trkpt lat="42.0926457" lon="12.2754801"><ele>176.66666666666666</ele><time>2026-03-28T11:57:50.044Z</time></trkpt><trkpt lat="42.0927192" lon="12.2754801"><ele>176.5</ele><time>2026-03-28T11:57:52.036Z</time></trkpt><trkpt lat="42.0927812" lon="12.2754227"><ele>176.33333333333331</ele><time>2026-03-28T11:57:55.043Z</time></trkpt><trkpt lat="42.0927645" lon="12.2752817"><ele>176.16666666666666</ele><time>2026-03-28T11:57:58.042Z</time></trkpt><trkpt lat="42.0927512" lon="12.2751828"><ele>176.0</ele><time>2026-03-28T11:58:02.043Z</time></trkpt><trkpt lat="42.0924115" lon="12.2724391"><ele>194.0</ele><time>2026-03-28T12:02:18.039Z</time></trkpt><trkpt lat="42.0906771" lon="12.2739927"><ele>187.0</ele><time>2026-03-28T12:03:20.04Z</time></trkpt><trkpt lat="42.089635" lon="12.2764928"><ele>187.0</ele><time>2026-03-28T12:03:39.041Z</time></trkpt><trkpt lat="42.0884555" lon="12.2787913"><ele>188.0</ele><time>2026-03-28T12:03:59.042Z</time></trkpt><trkpt lat="42.0867695" lon="12.2804582"><ele>183.0</ele><time>2026-03-28T12:04:17.037Z</time></trkpt><trkpt lat="42.0838847" lon="12.2828259"><ele>182.0</ele><time>2026-03-28T12:04:48.04Z</time></trkpt><trkpt lat="42.0819702" lon="12.2838573"><ele>178.0</ele><time>2026-03-28T12:05:06.042Z</time></trkpt><trkpt lat="42.080051" lon="12.2864436"><ele>179.0</ele><time>2026-03-28T12:05:27.048Z</time></trkpt><trkpt lat="42.0777566" lon="12.2886631"><ele>170.0</ele><time>2026-03-28T12:05:46.04Z</time></trkpt><trkpt lat="42.0746732" lon="12.2906654"><ele>169.0</ele><time>2026-03-28T12:06:08.059Z</time></trkpt><trkpt lat="42.0712075" lon="12.2911513"><ele>168.0</ele><time>2026-03-28T12:06:37.035Z</time></trkpt><trkpt lat="42.0685161" lon="12.2906741"><ele>164.0</ele><time>2026-03-28T12:07:00.037Z</time></trkpt><trkpt lat="42.0658293" lon="12.291354"><ele>161.0</ele><time>2026-03-28T12:07:24.039Z</time></trkpt><trkpt lat="42.0631096" lon="12.2920908"><ele>159.0</ele><time>2026-03-28T12:07:43.039Z</time></trkpt><trkpt lat="42.0603434" lon="12.2927686"><ele>160.0</ele><time>2026-03-28T12:08:00.039Z</time></trkpt><trkpt lat="42.057087" lon="12.294074"><ele>158.0</ele><time>2026-03-28T12:08:20.039Z</time></trkpt><trkpt lat="42.0537018" lon="12.2953145"><ele>153.0</ele><time>2026-03-28T12:08:42.044Z</time></trkpt><trkpt lat="42.0509042" lon="12.2956265"><ele>155.0</ele><time>2026-03-28T12:09:00.034Z</time></trkpt><trkpt lat="42.0481866" lon="12.2962368"><ele>144.0</ele><time>2026-03-28T12:09:19.041Z</time></trkpt><trkpt lat="42.0463943" lon="12.2993737"><ele>144.0</ele><time>2026-03-28T12:09:36.041Z</time></trkpt><trkpt lat="42.0428668" lon="12.3040327"><ele>144.0</ele><time>2026-03-28T12:09:56.048Z</time></trkpt><trkpt lat="42.0399271" lon="12.3078947"><ele>141.0</ele><time>2026-03-28T12:10:21.038Z</time></trkpt><trkpt lat="42.0379736" lon="12.3104865"><ele>134.0</ele><time>2026-03-28T12:10:44.037Z</time></trkpt><trkpt lat="42.0364123" lon="12.3122481"><ele>141.0</ele><time>2026-03-28T12:11:18.041Z</time></trkpt><trkpt lat="42.0365011" lon="12.3149829"><ele>146.0</ele><time>2026-03-28T12:11:41.036Z</time></trkpt><trkpt lat="42.0368172" lon="12.3177953"><ele>134.0</ele><time>2026-03-28T12:12:06.041Z</time></trkpt><trkpt lat="42.0374902" lon="12.3214609"><ele>139.0</ele><time>2026-03-28T12:12:22.042Z</time></trkpt><trkpt lat="42.0369573" lon="12.3259565"><ele>131.0</ele><time>2026-03-28T12:12:40.035Z</time></trkpt><trkpt lat="42.0373384" lon="12.3305813"><ele>120.0</ele><time>2026-03-28T12:13:01.043Z</time></trkpt><trkpt lat="42.0353534" lon="12.3343659"><ele>124.0</ele><time>2026-03-28T12:13:21.035Z</time></trkpt><trkpt lat="42.0344588" lon="12.3387916"><ele>128.0</ele><time>2026-03-28T12:13:41.038Z</time></trkpt><trkpt lat="42.0310714" lon="12.341898"><ele>139.0</ele><time>2026-03-28T12:13:59.039Z</time></trkpt><trkpt lat="42.0269929" lon="12.3431067"><ele>137.0</ele><time>2026-03-28T12:14:18.04Z</time></trkpt><trkpt lat="42.0226792" lon="12.3459091"><ele>130.0</ele><time>2026-03-28T12:14:41.035Z</time></trkpt><trkpt lat="42.0206944" lon="12.3498333"><ele>136.0</ele><time>2026-03-28T12:15:02.038Z</time></trkpt><trkpt lat="42.0183089" lon="12.3530543"><ele>141.0</ele><time>2026-03-28T12:15:25.039Z</time></trkpt><trkpt lat="42.0175982" lon="12.3566103"><ele>150.0</ele><time>2026-03-28T12:15:46.037Z</time></trkpt><trkpt lat="42.0171933" lon="12.3602624"><ele>142.0</ele><time>2026-03-28T12:16:04.039Z</time></trkpt><trkpt lat="42.0145076" lon="12.3633103"><ele>157.0</ele><time>2026-03-28T12:16:27.039Z</time></trkpt><trkpt lat="42.0123141" lon="12.3658007"><ele>159.0</ele><time>2026-03-28T12:16:43.037Z</time></trkpt><trkpt lat="42.0092776" lon="12.3696731"><ele>151.0</ele><time>2026-03-28T12:17:14.048Z</time></trkpt><trkpt lat="42.0088797" lon="12.3743744"><ele>159.0</ele><time>2026-03-28T12:17:32.042Z</time></trkpt><trkpt lat="42.0062571" lon="12.3786499"><ele>164.0</ele><time>2026-03-28T12:17:57.038Z</time></trkpt><trkpt lat="42.0028033" lon="12.3782666"><ele>159.0</ele><time>2026-03-28T12:18:15.043Z</time></trkpt><trkpt lat="41.9995497" lon="12.3819158"><ele>156.0</ele><time>2026-03-28T12:18:36.042Z</time></trkpt><trkpt lat="41.9973843" lon="12.385631"><ele>151.0</ele><time>2026-03-28T12:18:55.038Z</time></trkpt><trkpt lat="41.9950209" lon="12.3913634"><ele>135.0</ele><time>2026-03-28T12:19:25.034Z</time></trkpt><trkpt lat="41.9931022" lon="12.3939684"><ele>144.0</ele><time>2026-03-28T12:19:44.037Z</time></trkpt><trkpt lat="41.9913504" lon="12.3968111"><ele>149.0</ele><time>2026-03-28T12:20:13.036Z</time></trkpt><trkpt lat="41.9899326" lon="12.3988498"><ele>144.0</ele><time>2026-03-28T12:20:35.037Z</time></trkpt><trkpt lat="41.9884178" lon="12.4006874"><ele>143.0</ele><time>2026-03-28T12:20:54.04Z</time></trkpt><trkpt lat="41.9868287" lon="12.4025792"><ele>150.0</ele><time>2026-03-28T12:21:12.038Z</time></trkpt><trkpt lat="41.9856812" lon="12.4048198"><ele>147.0</ele><time>2026-03-28T12:21:36.033Z</time></trkpt><trkpt lat="41.9845468" lon="12.4071011"><ele>138.0</ele><time>2026-03-28T12:22:02.039Z</time></trkpt><trkpt lat="41.9825074" lon="12.4077109"><ele>139.0</ele><time>2026-03-28T12:22:33.042Z</time></trkpt><trkpt lat="41.9804278" lon="12.4076795"><ele>137.0</ele><time>2026-03-28T12:22:58.039Z</time></trkpt><trkpt lat="41.9776666" lon="12.4075209"><ele>140.0</ele><time>2026-03-28T12:23:10.038Z</time></trkpt><trkpt lat="41.9728719" lon="12.4069482"><ele>128.0</ele><time>2026-03-28T12:23:31.037Z</time></trkpt><trkpt lat="41.9701799" lon="12.407922"><ele>126.0</ele><time>2026-03-28T12:23:46.032Z</time></trkpt><trkpt lat="41.9667087" lon="12.4078403"><ele>140.0</ele><time>2026-03-28T12:24:08.034Z</time></trkpt><trkpt lat="41.9632766" lon="12.408732"><ele>139.0</ele><time>2026-03-28T12:24:58.035Z</time></trkpt><trkpt lat="41.9602749" lon="12.4108878"><ele>135.0</ele><time>2026-03-28T12:25:21.035Z</time></trkpt><trkpt lat="41.9570464" lon="12.4124224"><ele>128.0</ele><time>2026-03-28T12:25:43.036Z</time></trkpt><trkpt lat="41.9536169" lon="12.4120605"><ele>129.0</ele><time>2026-03-28T12:26:05.035Z</time></trkpt><trkpt lat="41.9502734" lon="12.4127083"><ele>127.0</ele><time>2026-03-28T12:26:30.04Z</time></trkpt><trkpt lat="41.948086" lon="12.4149146"><ele>115.0</ele><time>2026-03-28T12:26:54.034Z</time></trkpt><trkpt lat="41.9459628" lon="12.4172549"><ele>121.0</ele><time>2026-03-28T12:27:15.036Z</time></trkpt><trkpt lat="41.9435426" lon="12.419055"><ele>125.0</ele><time>2026-03-28T12:27:42.045Z</time></trkpt><trkpt lat="41.9418832" lon="12.4206703"><ele>126.0</ele><time>2026-03-28T12:28:06.03Z</time></trkpt><trkpt lat="41.9411009" lon="12.4222121"><ele>127.0</ele><time>2026-03-28T12:28:35.037Z</time></trkpt><trkpt lat="41.9387962" lon="12.4241676"><ele>125.0</ele><time>2026-03-28T12:29:05.04Z</time></trkpt><trkpt lat="41.9368901" lon="12.4251604"><ele>119.0</ele><time>2026-03-28T12:29:38.036Z</time></trkpt><trkpt lat="41.9354757" lon="12.4271037"><ele>125.0</ele><time>2026-03-28T12:30:00.031Z</time></trkpt><trkpt lat="41.9366521" lon="12.4294195"><ele>125.0</ele><time>2026-03-28T12:30:19.031Z</time></trkpt><trkpt lat="41.9355073" lon="12.4317116"><ele>128.0</ele><time>2026-03-28T12:30:42.035Z</time></trkpt><trkpt lat="41.9346179" lon="12.4341531"><ele>129.0</ele><time>2026-03-28T12:30:58.041Z</time></trkpt><trkpt lat="41.9360434" lon="12.4372891"><ele>125.0</ele><time>2026-03-28T12:31:34.036Z</time></trkpt><trkpt lat="41.9344965" lon="12.439239"><ele>125.0</ele><time>2026-03-28T12:31:51.035Z</time></trkpt><trkpt lat="41.9329151" lon="12.4411215"><ele>130.0</ele><time>2026-03-28T12:32:10.039Z</time></trkpt><trkpt lat="41.9310908" lon="12.4438612"><ele>137.0</ele><time>2026-03-28T12:32:26.033Z</time></trkpt><trkpt lat="41.9280568" lon="12.4462464"><ele>122.0</ele><time>2026-03-28T12:32:48.038Z</time></trkpt><trkpt lat="41.9255312" lon="12.4476696"><ele>119.0</ele><time>2026-03-28T12:33:09.032Z</time></trkpt><trkpt lat="41.9227687" lon="12.4479094"><ele>108.0</ele><time>2026-03-28T12:33:43.035Z</time></trkpt><trkpt lat="41.9207293" lon="12.4479365"><ele>74.0</ele><time>2026-03-28T12:34:01.029Z</time></trkpt><trkpt lat="41.9184878" lon="12.4499621"><ele>46.0</ele><time>2026-03-28T12:34:25.028Z</time></trkpt><trkpt lat="41.9157657" lon="12.4494955"><ele>24.0</ele><time>2026-03-28T12:35:30.033Z</time></trkpt><trkpt lat="41.9140083" lon="12.4509684"><ele>32.0</ele><time>2026-03-28T12:35:51.034Z</time></trkpt><trkpt lat="41.9121829" lon="12.4497288"><ele>38.0</ele><time>2026-03-28T12:36:10.028Z</time></trkpt><trkpt lat="41.9101587" lon="12.4491798"><ele>30.0</ele><time>2026-03-28T12:36:33.032Z</time></trkpt><trkpt lat="41.9077774" lon="12.4472301"><ele>42.0</ele><time>2026-03-28T12:36:58.03Z</time></trkpt><trkpt lat="41.9061076" lon="12.4455699"><ele>44.0</ele><time>2026-03-28T12:37:22.035Z</time></trkpt><trkpt lat="41.9043768" lon="12.4436428"><ele>56.0</ele><time>2026-03-28T12:38:17.036Z</time></trkpt><trkpt lat="41.9003151" lon="12.4423483"><ele>67.0</ele><time>2026-03-28T12:38:36.028Z</time></trkpt><trkpt lat="41.8961476" lon="12.4391883"><ele>66.0</ele><time>2026-03-28T12:39:18.033Z</time></trkpt><trkpt lat="41.894566" lon="12.4374063"><ele>69.0</ele><time>2026-03-28T12:39:40.031Z</time></trkpt><trkpt lat="41.8911828" lon="12.4383036"><ele>79.0</ele><time>2026-03-28T12:40:00.035Z</time></trkpt><trkpt lat="41.8881529" lon="12.4405493"><ele>70.0</ele><time>2026-03-28T12:40:24.032Z</time></trkpt><trkpt lat="41.8853588" lon="12.44039"><ele>77.0</ele><time>2026-03-28T12:40:42.034Z</time></trkpt><trkpt lat="41.8818629" lon="12.4405464"><ele>68.0</ele><time>2026-03-28T12:41:01.04Z</time></trkpt><trkpt lat="41.8790573" lon="12.4431117"><ele>74.0</ele><time>2026-03-28T12:42:35.03Z</time></trkpt><trkpt lat="41.8775744" lon="12.4450862"><ele>62.0</ele><time>2026-03-28T12:42:59.035Z</time></trkpt><trkpt lat="41.8788683" lon="12.4483097"><ele>51.0</ele><time>2026-03-28T12:43:50.034Z</time></trkpt><trkpt lat="41.8804722" lon="12.4501308"><ele>51.0</ele><time>2026-03-28T12:44:32.029Z</time></trkpt></trkseg></trk></gpx>